<?xml version='1.0' encoding='UTF-8'?><gpx version="1.1" creator="JPX - https://github.com/jenetics/jpx" xmlns="http://www.topografix.com/GPX/1/1"><trk><trkseg><trkpt lat="42.43053040690708" lon="-8.074715561273482"><ele>400.99999999999994</ele><time>2026-04-05T13:11:28.999Z</time></trkpt><trkpt lat="42.430517657292114" lon="-8.074629572872846"><ele>401.0</ele><time>2026-04-05T13:11:29.999Z</time></trkpt><trkpt lat="42.43050925502565" lon="-8.074521930179323"><ele>401.0</ele><time>2026-04-05T13:11:30.999Z</time></trkpt><trkpt lat="42.43048649391904" lon="-8.074408923464151"><ele>401.0</ele><time>2026-04-05T13:11:31.999Z</time></trkpt><trkpt lat="42.43045389467783" lon="-8.07429330062631"><ele>400.99999999999994</ele><time>2026-04-05T13:11:32.999Z</time></trkpt><trkpt lat="42.430372451253206" lon="-8.074203260242344"><ele>401.0</ele><time>2026-04-05T13:11:33.999Z</time></trkpt><trkpt lat="42.43035300956241" lon="-8.07411327181795"><ele>400.0</ele><time>2026-04-05T13:11:34.999Z</time></trkpt><trkpt lat="42.43033432505256" lon="-8.074026788365455"><ele>399.0</ele><time>2026-04-05T13:11:35.999Z</time></trkpt><trkpt lat="42.43030008371342" lon="-8.073868298215952"><ele>398.0</ele><time>2026-04-05T13:11:37.999Z</time></trkpt><trkpt lat="42.430270663476875" lon="-8.073732121126536"><ele>397.0</ele><time>2026-04-05T13:11:39.999Z</time></trkpt><trkpt lat="42.43046140337717" lon="-8.07358309842634"><ele>397.0</ele><time>2026-04-05T13:11:40.999Z</time></trkpt><trkpt lat="42.43052027277736" lon="-8.073486309848098"><ele>397.0</ele><time>2026-04-05T13:11:41.999Z</time></trkpt><trkpt lat="42.43058232165507" lon="-8.073384100786843"><ele>397.0</ele><time>2026-04-05T13:11:42.999Z</time></trkpt><trkpt lat="42.43064541617566" lon="-8.073280946562399"><ele>397.0</ele><time>2026-04-05T13:11:43.999Z</time></trkpt><trkpt lat="42.43071212331849" lon="-8.073187388118567"><ele>397.0</ele><time>2026-04-05T13:11:44.999Z</time></trkpt><trkpt lat="42.43077797840209" lon="-8.073076335684442"><ele>396.0</ele><time>2026-04-05T13:11:45.999Z</time></trkpt><trkpt lat="42.430855887397676" lon="-8.072952246456754"><ele>395.0</ele><time>2026-04-05T13:11:46.999Z</time></trkpt><trkpt lat="42.430937418275406" lon="-8.072814732828876"><ele>394.0</ele><time>2026-04-05T13:11:47.999Z</time></trkpt><trkpt lat="42.431025649696046" lon="-8.072678272331538"><ele>393.0</ele><time>2026-04-05T13:11:48.999Z</time></trkpt><trkpt lat="42.4311061241391" lon="-8.072539166373705"><ele>393.5</ele><time>2026-04-05T13:11:49.999Z</time></trkpt><trkpt lat="42.431182856695784" lon="-8.07240049473392"><ele>394.0</ele><time>2026-04-05T13:11:50.999Z</time></trkpt><trkpt lat="42.43127193886235" lon="-8.0722793679319"><ele>394.5</ele><time>2026-04-05T13:11:51.999Z</time></trkpt><trkpt lat="42.43134923094826" lon="-8.072146982235596"><ele>395.0</ele><time>2026-04-05T13:11:52.999Z</time></trkpt><trkpt lat="42.43142774727285" lon="-8.07201535003624"><ele>395.0</ele><time>2026-04-05T13:11:53.999Z</time></trkpt><trkpt lat="42.43151130794479" lon="-8.071894009897363"><ele>395.0</ele><time>2026-04-05T13:11:54.999Z</time></trkpt><trkpt lat="42.43158984792057" lon="-8.0717741411133"><ele>395.0</ele><time>2026-04-05T13:11:55.999Z</time></trkpt><trkpt lat="42.43165933651324" lon="-8.071655986822229"><ele>395.0</ele><time>2026-04-05T13:11:56.999Z</time></trkpt><trkpt lat="42.43172401680611" lon="-8.071552631486597"><ele>395.2</ele><time>2026-04-05T13:11:57.999Z</time></trkpt><trkpt lat="42.43178322474964" lon="-8.071457945630048"><ele>395.4</ele><time>2026-04-05T13:11:58.999Z</time></trkpt><trkpt lat="42.431834382851" lon="-8.071376005762016"><ele>395.6</ele><time>2026-04-05T13:11:59.999Z</time></trkpt><trkpt lat="42.431865507526986" lon="-8.071293685923491"><ele>395.8</ele><time>2026-04-05T13:12:00.999Z</time></trkpt><trkpt lat="42.4319227084373" lon="-8.071221903389116"><ele>396.0</ele><time>2026-04-05T13:12:02.999Z</time></trkpt><trkpt lat="42.43206855791868" lon="-8.071389354771144"><ele>396.0</ele><time>2026-04-05T13:12:07.999Z</time></trkpt><trkpt lat="42.43209444728633" lon="-8.071470037606717"><ele>396.0</ele><time>2026-04-05T13:12:08.999Z</time></trkpt><trkpt lat="42.432119485244755" lon="-8.071551420732959"><ele>396.0</ele><time>2026-04-05T13:12:09.999Z</time></trkpt><trkpt lat="42.432169942062664" lon="-8.071670508931595"><ele>396.0</ele><time>2026-04-05T13:12:10.999Z</time></trkpt><trkpt lat="42.43221190734943" lon="-8.071766434195425"><ele>396.0</ele><time>2026-04-05T13:12:11.999Z</time></trkpt><trkpt lat="42.43227058192422" lon="-8.07190158988158"><ele>396.0</ele><time>2026-04-05T13:12:12.999Z</time></trkpt><trkpt lat="42.43233902480017" lon="-8.072033078827056"><ele>396.5</ele><time>2026-04-05T13:12:13.999Z</time></trkpt><trkpt lat="42.43240820719177" lon="-8.072180285275385"><ele>397.0</ele><time>2026-04-05T13:12:14.999Z</time></trkpt><trkpt lat="42.432471884086816" lon="-8.072324190600227"><ele>397.5</ele><time>2026-04-05T13:12:15.999Z</time></trkpt><trkpt lat="42.43253294354327" lon="-8.072475027684137"><ele>398.0</ele><time>2026-04-05T13:12:16.999Z</time></trkpt><trkpt lat="42.43259623228743" lon="-8.072601175394594"><ele>398.3333333333333</ele><time>2026-04-05T13:12:17.999Z</time></trkpt><trkpt lat="42.432652789248166" lon="-8.072728828102697"><ele>398.66666666666663</ele><time>2026-04-05T13:12:18.999Z</time></trkpt><trkpt lat="42.432699828912206" lon="-8.072842950520297"><ele>399.0</ele><time>2026-04-05T13:12:19.999Z</time></trkpt><trkpt lat="42.4327448938165" lon="-8.07294059685282"><ele>399.33333333333337</ele><time>2026-04-05T13:12:20.999Z</time></trkpt><trkpt lat="42.43278375996197" lon="-8.073024282090191"><ele>399.6666666666667</ele><time>2026-04-05T13:12:21.999Z</time></trkpt><trkpt lat="42.432822600032786" lon="-8.073093600615797"><ele>400.0</ele><time>2026-04-05T13:12:22.999Z</time></trkpt><trkpt lat="42.43287197733352" lon="-8.073203999905072"><ele>400.5</ele><time>2026-04-05T13:12:24.999Z</time></trkpt><trkpt lat="42.43269856220477" lon="-8.07330754443275"><ele>401.0</ele><time>2026-04-05T13:12:26.999Z</time></trkpt><trkpt lat="42.43260741507896" lon="-8.073385028191126"><ele>401.5</ele><time>2026-04-05T13:12:27.999Z</time></trkpt><trkpt lat="42.432503053668654" lon="-8.073457504407036"><ele>402.0</ele><time>2026-04-05T13:12:28.999Z</time></trkpt><trkpt lat="42.43240409982071" lon="-8.073537497855963"><ele>402.0</ele><time>2026-04-05T13:12:29.999Z</time></trkpt><trkpt lat="42.4323025629911" lon="-8.073608353907652"><ele>402.0</ele><time>2026-04-05T13:12:30.999Z</time></trkpt><trkpt lat="42.43220323960699" lon="-8.073683384842562"><ele>402.0</ele><time>2026-04-05T13:12:31.999Z</time></trkpt><trkpt lat="42.43211532231253" lon="-8.073751507614734"><ele>402.0</ele><time>2026-04-05T13:12:32.999Z</time></trkpt><trkpt lat="42.43203619941448" lon="-8.073825979598944"><ele>402.0</ele><time>2026-04-05T13:12:33.999Z</time></trkpt><trkpt lat="42.43196199508001" lon="-8.07388846621427"><ele>402.0</ele><time>2026-04-05T13:12:34.999Z</time></trkpt><trkpt lat="42.431886033672185" lon="-8.0739376934988"><ele>402.0</ele><time>2026-04-05T13:12:35.999Z</time></trkpt><trkpt lat="42.4318219541093" lon="-8.073988115804282"><ele>402.0</ele><time>2026-04-05T13:12:36.999Z</time></trkpt><trkpt lat="42.431765875390894" lon="-8.074042899988044"><ele>402.0</ele><time>2026-04-05T13:12:37.999Z</time></trkpt><trkpt lat="42.43166782538381" lon="-8.074126442970831"><ele>402.0</ele><time>2026-04-05T13:12:39.999Z</time></trkpt><trkpt lat="42.431595569767524" lon="-8.074185946749347"><ele>402.0</ele><time>2026-04-05T13:12:41.999Z</time></trkpt><trkpt lat="42.43151206159952" lon="-8.074258242454032"><ele>402.0</ele><time>2026-04-05T13:12:43.999Z</time></trkpt><trkpt lat="42.43143212484011" lon="-8.074312306481714"><ele>402.0</ele><time>2026-04-05T13:12:45.999Z</time></trkpt><trkpt lat="42.4313597414175" lon="-8.074373064172987"><ele>402.0</ele><time>2026-04-05T13:12:47.999Z</time></trkpt><trkpt lat="42.43128742305044" lon="-8.07442597707215"><ele>402.0</ele><time>2026-04-05T13:12:50.999Z</time></trkpt><trkpt lat="42.43121199926752" lon="-8.074472119247131"><ele>402.0</ele><time>2026-04-05T13:12:52.999Z</time></trkpt><trkpt lat="42.43115131132479" lon="-8.074505235032873"><ele>402.0</ele><time>2026-04-05T13:12:53.999Z</time></trkpt><trkpt lat="42.43109028094624" lon="-8.074542566021261"><ele>401.8</ele><time>2026-04-05T13:12:54.999Z</time></trkpt><trkpt lat="42.43102992568786" lon="-8.074567842110113"><ele>401.6</ele><time>2026-04-05T13:12:55.999Z</time></trkpt><trkpt lat="42.43092615076381" lon="-8.07461879688193"><ele>401.40000000000003</ele><time>2026-04-05T13:12:57.999Z</time></trkpt><trkpt lat="42.430814322701394" lon="-8.07465716232184"><ele>401.20000000000005</ele><time>2026-04-05T13:12:59.999Z</time></trkpt><trkpt lat="42.430719591343866" lon="-8.074699156380177"><ele>401.0</ele><time>2026-04-05T13:13:01.999Z</time></trkpt><trkpt lat="42.43063067586542" lon="-8.074741922930366"><ele>401.0</ele><time>2026-04-05T13:13:03.999Z</time></trkpt><trkpt lat="42.43056579944178" lon="-8.074815368043685"><ele>401.0</ele><time>2026-04-05T13:13:05.999Z</time></trkpt><trkpt lat="42.43058983988852" lon="-8.074998986206285"><ele>401.0</ele><time>2026-04-05T13:13:07.999Z</time></trkpt><trkpt lat="42.430615375297386" lon="-8.07509119277761"><ele>401.0</ele><time>2026-04-05T13:13:08.999Z</time></trkpt><trkpt lat="42.43064804165042" lon="-8.075242321464884"><ele>401.0</ele><time>2026-04-05T13:13:10.999Z</time></trkpt><trkpt lat="42.43067595036234" lon="-8.075367948787559"><ele>401.6</ele><time>2026-04-05T13:13:12.999Z</time></trkpt><trkpt lat="42.43070712784049" lon="-8.075510936702951"><ele>402.20000000000005</ele><time>2026-04-05T13:13:14.999Z</time></trkpt><trkpt lat="42.43072513858967" lon="-8.075593803709518"><ele>402.79999999999995</ele><time>2026-04-05T13:13:15.999Z</time></trkpt><trkpt lat="42.43074344286729" lon="-8.0756896729963"><ele>403.4</ele><time>2026-04-05T13:13:16.999Z</time></trkpt><trkpt lat="42.43075731755334" lon="-8.075837216987521"><ele>404.0</ele><time>2026-04-05T13:13:18.999Z</time></trkpt><trkpt lat="42.43079488270358" lon="-8.075960290937102"><ele>404.0</ele><time>2026-04-05T13:13:20.999Z</time></trkpt><trkpt lat="42.430805778519016" lon="-8.076050973806666"><ele>404.0</ele><time>2026-04-05T13:13:22.999Z</time></trkpt><trkpt lat="42.43087067199783" lon="-8.076048172689015"><ele>404.0</ele><time>2026-04-05T13:13:24.999Z</time></trkpt><trkpt lat="42.43097686401213" lon="-8.07592223498114"><ele>404.0</ele><time>2026-04-05T13:13:26.999Z</time></trkpt><trkpt lat="42.4310362681512" lon="-8.07587172214002"><ele>404.0</ele><time>2026-04-05T13:13:27.999Z</time></trkpt><trkpt lat="42.431015656545235" lon="-8.075679739223231"><ele>403.99999999999994</ele><time>2026-04-05T13:13:29.999Z</time></trkpt><trkpt lat="42.43098949351427" lon="-8.075601261610396"><ele>404.0</ele><time>2026-04-05T13:13:30.999Z</time></trkpt><trkpt lat="42.43100698949152" lon="-8.075464093520837"><ele>404.0</ele><time>2026-04-05T13:13:32.999Z</time></trkpt><trkpt lat="42.431031228077664" lon="-8.075375704402099"><ele>404.0</ele><time>2026-04-05T13:13:34.999Z</time></trkpt><trkpt lat="42.43114227848205" lon="-8.075466486994761"><ele>403.99999999999994</ele><time>2026-04-05T13:13:35.999Z</time></trkpt><trkpt lat="42.431212146564405" lon="-8.07550023927829"><ele>404.0</ele><time>2026-04-05T13:13:36.999Z</time></trkpt><trkpt lat="42.43130090036902" lon="-8.075545110969106"><ele>404.5</ele><time>2026-04-05T13:13:37.999Z</time></trkpt><trkpt lat="42.43140415403306" lon="-8.07556928891296"><ele>405.0</ele><time>2026-04-05T13:13:38.999Z</time></trkpt><trkpt lat="42.43151476294222" lon="-8.075625343543063"><ele>405.5</ele><time>2026-04-05T13:13:39.999Z</time></trkpt><trkpt lat="42.431633019786965" lon="-8.075650662270117"><ele>406.0</ele><time>2026-04-05T13:13:40.999Z</time></trkpt><trkpt lat="42.43174192215836" lon="-8.07567579304437"><ele>406.0</ele><time>2026-04-05T13:13:41.999Z</time></trkpt><trkpt lat="42.43182628068433" lon="-8.075706035785736"><ele>406.0</ele><time>2026-04-05T13:13:42.999Z</time></trkpt><trkpt lat="42.43188754196839" lon="-8.075726916722799"><ele>406.0</ele><time>2026-04-05T13:13:43.999Z</time></trkpt><trkpt lat="42.431992575189916" lon="-8.075775955937159"><ele>406.0</ele><time>2026-04-05T13:13:45.999Z</time></trkpt><trkpt lat="42.43212982749436" lon="-8.07582735182426"><ele>406.0</ele><time>2026-04-05T13:13:47.999Z</time></trkpt><trkpt lat="42.43224158770932" lon="-8.075891885695032"><ele>407.20000000000005</ele><time>2026-04-05T13:13:49.999Z</time></trkpt><trkpt lat="42.43230333925991" lon="-8.0759237832451"><ele>408.40000000000003</ele><time>2026-04-05T13:13:50.999Z</time></trkpt><trkpt lat="42.43235260138512" lon="-8.076027551703717"><ele>409.6</ele><time>2026-04-05T13:13:52.999Z</time></trkpt><trkpt lat="42.432385975487556" lon="-8.076106412963611"><ele>410.8</ele><time>2026-04-05T13:13:54.999Z</time></trkpt><trkpt lat="42.43252787358128" lon="-8.07606582556741"><ele>412.0</ele><time>2026-04-05T13:13:57.999Z</time></trkpt><trkpt lat="42.432601023765905" lon="-8.075998481876344"><ele>412.0</ele><time>2026-04-05T13:13:58.999Z</time></trkpt><trkpt lat="42.4326844259333" lon="-8.075918702343207"><ele>412.0</ele><time>2026-04-05T13:13:59.999Z</time></trkpt><trkpt lat="42.432778906346584" lon="-8.075833944392038"><ele>412.0</ele><time>2026-04-05T13:14:00.999Z</time></trkpt><trkpt lat="42.43288098531065" lon="-8.075750596900201"><ele>412.0</ele><time>2026-04-05T13:14:01.999Z</time></trkpt><trkpt lat="42.4329747935026" lon="-8.075668439778598"><ele>412.0</ele><time>2026-04-05T13:14:02.999Z</time></trkpt><trkpt lat="42.433060760913534" lon="-8.075602152764361"><ele>412.0</ele><time>2026-04-05T13:14:03.999Z</time></trkpt><trkpt lat="42.433139034702045" lon="-8.075535923132337"><ele>412.0</ele><time>2026-04-05T13:14:04.999Z</time></trkpt><trkpt lat="42.433257345004485" lon="-8.075438923001677"><ele>412.0</ele><time>2026-04-05T13:14:06.999Z</time></trkpt><trkpt lat="42.43331508860937" lon="-8.075383818622509"><ele>412.0</ele><time>2026-04-05T13:14:07.999Z</time></trkpt><trkpt lat="42.43339165145791" lon="-8.075300799085488"><ele>412.0</ele><time>2026-04-05T13:14:09.999Z</time></trkpt><trkpt lat="42.43345368710868" lon="-8.075266639323788"><ele>412.00000000000006</ele><time>2026-04-05T13:14:11.998Z</time></trkpt><trkpt lat="42.433523587644906" lon="-8.075247012050543"><ele>412.0</ele><time>2026-04-05T13:15:02.999Z</time></trkpt><trkpt lat="42.43357246910717" lon="-8.075184527261996"><ele>412.0</ele><time>2026-04-05T13:15:04.999Z</time></trkpt><trkpt lat="42.4336494875147" lon="-8.075116976205402"><ele>412.0</ele><time>2026-04-05T13:15:06.999Z</time></trkpt><trkpt lat="42.43371325047243" lon="-8.07506077663632"><ele>412.00000000000006</ele><time>2026-04-05T13:15:08.999Z</time></trkpt><trkpt lat="42.43380653992378" lon="-8.075202200507357"><ele>412.0</ele><time>2026-04-05T13:15:09.999Z</time></trkpt><trkpt lat="42.433847430318174" lon="-8.075286240555563"><ele>411.20000000000005</ele><time>2026-04-05T13:15:10.999Z</time></trkpt><trkpt lat="42.43388796483774" lon="-8.075403923244735"><ele>410.4</ele><time>2026-04-05T13:15:11.999Z</time></trkpt><trkpt lat="42.43394563369584" lon="-8.075527356974167"><ele>409.6</ele><time>2026-04-05T13:15:12.999Z</time></trkpt><trkpt lat="42.43400392743467" lon="-8.075650615150318"><ele>408.79999999999995</ele><time>2026-04-05T13:15:13.999Z</time></trkpt><trkpt lat="42.43405681903203" lon="-8.075768217823805"><ele>408.0</ele><time>2026-04-05T13:15:14.999Z</time></trkpt><trkpt lat="42.43410711740907" lon="-8.075883676092992"><ele>408.0</ele><time>2026-04-05T13:15:15.999Z</time></trkpt><trkpt lat="42.434159379389556" lon="-8.075999771215455"><ele>408.0</ele><time>2026-04-05T13:15:16.999Z</time></trkpt><trkpt lat="42.43420857205542" lon="-8.07611585633932"><ele>408.0</ele><time>2026-04-05T13:15:17.999Z</time></trkpt><trkpt lat="42.434260426325906" lon="-8.076231791678525"><ele>408.0</ele><time>2026-04-05T13:15:18.999Z</time></trkpt><trkpt lat="42.43431154500392" lon="-8.076348892237501"><ele>408.0</ele><time>2026-04-05T13:15:19.999Z</time></trkpt><trkpt lat="42.434362142572844" lon="-8.076465535962704"><ele>408.0</ele><time>2026-04-05T13:15:20.999Z</time></trkpt><trkpt lat="42.43441337322143" lon="-8.076588495459333"><ele>408.0</ele><time>2026-04-05T13:15:21.999Z</time></trkpt><trkpt lat="42.43446821106067" lon="-8.076704986926933"><ele>408.0</ele><time>2026-04-05T13:15:22.999Z</time></trkpt><trkpt lat="42.434524409548374" lon="-8.076820800148553"><ele>408.0</ele><time>2026-04-05T13:15:23.999Z</time></trkpt><trkpt lat="42.434583094415935" lon="-8.07693187856542"><ele>408.0</ele><time>2026-04-05T13:15:24.999Z</time></trkpt><trkpt lat="42.434636925958586" lon="-8.077038807129473"><ele>407.2</ele><time>2026-04-05T13:15:25.999Z</time></trkpt><trkpt lat="42.434694412699464" lon="-8.077145533749492"><ele>406.4</ele><time>2026-04-05T13:15:26.999Z</time></trkpt><trkpt lat="42.43474945884098" lon="-8.077247181982766"><ele>405.59999999999997</ele><time>2026-04-05T13:15:27.999Z</time></trkpt><trkpt lat="42.4348070501933" lon="-8.07734232534762"><ele>404.79999999999995</ele><time>2026-04-05T13:15:28.999Z</time></trkpt><trkpt lat="42.43487145812668" lon="-8.077429880848573"><ele>404.0</ele><time>2026-04-05T13:15:29.999Z</time></trkpt><trkpt lat="42.43493246344703" lon="-8.077514165887326"><ele>404.0</ele><time>2026-04-05T13:15:30.999Z</time></trkpt><trkpt lat="42.43498798619358" lon="-8.07759801284202"><ele>404.0</ele><time>2026-04-05T13:15:31.999Z</time></trkpt><trkpt lat="42.435026359247985" lon="-8.077692608939714"><ele>404.0</ele><time>2026-04-05T13:15:32.999Z</time></trkpt><trkpt lat="42.43502476643435" lon="-8.077785443143597"><ele>404.0</ele><time>2026-04-05T13:15:33.999Z</time></trkpt><trkpt lat="42.43499171692253" lon="-8.077879646607645"><ele>404.0</ele><time>2026-04-05T13:15:34.999Z</time></trkpt><trkpt lat="42.434949137285656" lon="-8.077943442706738"><ele>404.0</ele><time>2026-04-05T13:15:35.999Z</time></trkpt><trkpt lat="42.43490625382078" lon="-8.078015537649632"><ele>404.0</ele><time>2026-04-05T13:15:36.999Z</time></trkpt><trkpt lat="42.43487040457235" lon="-8.078093089579049"><ele>403.99999999999994</ele><time>2026-04-05T13:15:37.999Z</time></trkpt><trkpt lat="42.434847890905814" lon="-8.078180698747751"><ele>404.0</ele><time>2026-04-05T13:15:38.999Z</time></trkpt><trkpt lat="42.4348289900765" lon="-8.078273809199745"><ele>404.0</ele><time>2026-04-05T13:15:39.999Z</time></trkpt><trkpt lat="42.43481443311052" lon="-8.078361941069701"><ele>404.0</ele><time>2026-04-05T13:15:40.999Z</time></trkpt><trkpt lat="42.43475276411771" lon="-8.07846570782789"><ele>403.99999999999994</ele><time>2026-04-05T13:15:42.999Z</time></trkpt><trkpt lat="42.434793372135374" lon="-8.078350561674199"><ele>404.0</ele><time>2026-04-05T13:15:45.999Z</time></trkpt><trkpt lat="42.434814900775606" lon="-8.078242570284196"><ele>404.0</ele><time>2026-04-05T13:15:55.999Z</time></trkpt><trkpt lat="42.43484201371343" lon="-8.078105989162868"><ele>404.0</ele><time>2026-04-05T13:15:57.999Z</time></trkpt></trkseg><trkseg><trkpt lat="42.431817444599154" lon="-8.07135667292444"><ele>396.0</ele><time>2026-04-05T14:34:06Z</time></trkpt><trkpt lat="42.43187255169669" lon="-8.071283232356514"><ele>396.0</ele><time>2026-04-05T14:34:07Z</time></trkpt><trkpt lat="42.431927341007565" lon="-8.071217010572994"><ele>396.0</ele><time>2026-04-05T14:34:09Z</time></trkpt><trkpt lat="42.43210020095323" lon="-8.071406445037159"><ele>396.0</ele><time>2026-04-05T14:34:12Z</time></trkpt><trkpt lat="42.43214316725346" lon="-8.071543571997584"><ele>396.5</ele><time>2026-04-05T14:34:13Z</time></trkpt><trkpt lat="42.43220477626156" lon="-8.071689687034265"><ele>397.0</ele><time>2026-04-05T14:34:14Z</time></trkpt><trkpt lat="42.43226922201606" lon="-8.07183613293899"><ele>397.5</ele><time>2026-04-05T14:34:15Z</time></trkpt><trkpt lat="42.432344733677446" lon="-8.071999295030746"><ele>398.0</ele><time>2026-04-05T14:34:16Z</time></trkpt><trkpt lat="42.432423845024225" lon="-8.072174258150211"><ele>398.0</ele><time>2026-04-05T14:34:17Z</time></trkpt><trkpt lat="42.43250483075818" lon="-8.072352501491268"><ele>398.0</ele><time>2026-04-05T14:34:18Z</time></trkpt><trkpt lat="42.432590140244635" lon="-8.072534922964287"><ele>398.0</ele><time>2026-04-05T14:34:19Z</time></trkpt><trkpt lat="42.432677543939185" lon="-8.072725106523551"><ele>398.66666666666663</ele><time>2026-04-05T14:34:20Z</time></trkpt><trkpt lat="42.43276574383369" lon="-8.072920259522872"><ele>399.33333333333337</ele><time>2026-04-05T14:34:21Z</time></trkpt><trkpt lat="42.432851548514755" lon="-8.073116589831603"><ele>400.0</ele><time>2026-04-05T14:34:22Z</time></trkpt><trkpt lat="42.43293571052486" lon="-8.073314938919708"><ele>401.0</ele><time>2026-04-05T14:34:23Z</time></trkpt><trkpt lat="42.43301914164816" lon="-8.07350000986489"><ele>402.0</ele><time>2026-04-05T14:34:24Z</time></trkpt><trkpt lat="42.43310404187341" lon="-8.073689789554598"><ele>403.0</ele><time>2026-04-05T14:34:25Z</time></trkpt><trkpt lat="42.433189131455975" lon="-8.073879045887706"><ele>403.0</ele><time>2026-04-05T14:34:26Z</time></trkpt><trkpt lat="42.433271201199354" lon="-8.074072156566611"><ele>403.0</ele><time>2026-04-05T14:34:27Z</time></trkpt><trkpt lat="42.43335128343523" lon="-8.07425845238008"><ele>403.0</ele><time>2026-04-05T14:34:28Z</time></trkpt><trkpt lat="42.433424964750536" lon="-8.074422851405618"><ele>404.0</ele><time>2026-04-05T14:34:29Z</time></trkpt><trkpt lat="42.43349161035389" lon="-8.074563630682853"><ele>405.0</ele><time>2026-04-05T14:34:30Z</time></trkpt><trkpt lat="42.43354851607282" lon="-8.07468861467471"><ele>406.0</ele><time>2026-04-05T14:34:31Z</time></trkpt><trkpt lat="42.433593402377845" lon="-8.074787635206416"><ele>407.0</ele><time>2026-04-05T14:34:32Z</time></trkpt><trkpt lat="42.433657362260305" lon="-8.074931375369523"><ele>408.0</ele><time>2026-04-05T14:35:25Z</time></trkpt><trkpt lat="42.43369714136442" lon="-8.075030207619857"><ele>408.0</ele><time>2026-04-05T14:35:26Z</time></trkpt><trkpt lat="42.43375838596253" lon="-8.0751530531504"><ele>408.0</ele><time>2026-04-05T14:35:27Z</time></trkpt><trkpt lat="42.433819883158264" lon="-8.075286289674274"><ele>408.0</ele><time>2026-04-05T14:35:28Z</time></trkpt><trkpt lat="42.4338876329641" lon="-8.075437788123917"><ele>408.0</ele><time>2026-04-05T14:35:29Z</time></trkpt><trkpt lat="42.433958539391845" lon="-8.075601468171673"><ele>408.0</ele><time>2026-04-05T14:35:30Z</time></trkpt><trkpt lat="42.434036784485826" lon="-8.07578384914916"><ele>408.0</ele><time>2026-04-05T14:35:31Z</time></trkpt><trkpt lat="42.43411568938426" lon="-8.075969430913146"><ele>408.0</ele><time>2026-04-05T14:35:32Z</time></trkpt><trkpt lat="42.43421021615833" lon="-8.076159771963987"><ele>408.0</ele><time>2026-04-05T14:35:33Z</time></trkpt><trkpt lat="42.43428957402076" lon="-8.076342958119744"><ele>408.0</ele><time>2026-04-05T14:35:34Z</time></trkpt><trkpt lat="42.43437763031123" lon="-8.076517716102957"><ele>408.0</ele><time>2026-04-05T14:35:35Z</time></trkpt><trkpt lat="42.434458528001514" lon="-8.07668962496191"><ele>407.75</ele><time>2026-04-05T14:35:36Z</time></trkpt><trkpt lat="42.43454059832702" lon="-8.076849720048331"><ele>407.5</ele><time>2026-04-05T14:35:37Z</time></trkpt><trkpt lat="42.43462166229432" lon="-8.0770065446812"><ele>407.25</ele><time>2026-04-05T14:35:37.999Z</time></trkpt><trkpt lat="42.434705560327274" lon="-8.077150516550429"><ele>407.0</ele><time>2026-04-05T14:35:38.999Z</time></trkpt><trkpt lat="42.43478969967312" lon="-8.077281010543794"><ele>406.25</ele><time>2026-04-05T14:35:39.999Z</time></trkpt><trkpt lat="42.43487121261693" lon="-8.077412135571238"><ele>405.5</ele><time>2026-04-05T14:35:40.999Z</time></trkpt><trkpt lat="42.4349365284755" lon="-8.077559283907162"><ele>404.75</ele><time>2026-04-05T14:35:41.999Z</time></trkpt><trkpt lat="42.434999663030126" lon="-8.077709088354117"><ele>404.0</ele><time>2026-04-05T14:35:42.999Z</time></trkpt><trkpt lat="42.43504987761079" lon="-8.077874645942408"><ele>404.0</ele><time>2026-04-05T14:35:43.999Z</time></trkpt><trkpt lat="42.435119847867156" lon="-8.078028213735466"><ele>404.0</ele><time>2026-04-05T14:35:44.999Z</time></trkpt><trkpt lat="42.435241978904486" lon="-8.078125978926426"><ele>404.0</ele><time>2026-04-05T14:35:45.999Z</time></trkpt><trkpt lat="42.43536296283306" lon="-8.078255978279095"><ele>404.0</ele><time>2026-04-05T14:35:46.999Z</time></trkpt><trkpt lat="42.43548539351798" lon="-8.078367093364912"><ele>401.75</ele><time>2026-04-05T14:35:47.999Z</time></trkpt><trkpt lat="42.435587606180256" lon="-8.078458385482032"><ele>399.5</ele><time>2026-04-05T14:35:48.999Z</time></trkpt><trkpt lat="42.43568114470119" lon="-8.078556138237168"><ele>397.25</ele><time>2026-04-05T14:35:49.999Z</time></trkpt><trkpt lat="42.43578400253089" lon="-8.078657180101365"><ele>395.0</ele><time>2026-04-05T14:35:50.999Z</time></trkpt><trkpt lat="42.43591289998364" lon="-8.07876781624208"><ele>395.0</ele><time>2026-04-05T14:35:51.999Z</time></trkpt><trkpt lat="42.43604398901917" lon="-8.078894224889803"><ele>395.0</ele><time>2026-04-05T14:35:53Z</time></trkpt><trkpt lat="42.436170658004755" lon="-8.07906727743287"><ele>395.0</ele><time>2026-04-05T14:35:54Z</time></trkpt><trkpt lat="42.43628931124226" lon="-8.079247117399687"><ele>392.3333333333333</ele><time>2026-04-05T14:35:55Z</time></trkpt><trkpt lat="42.43640876478849" lon="-8.079445332721303"><ele>389.66666666666663</ele><time>2026-04-05T14:35:56Z</time></trkpt><trkpt lat="42.436521287241966" lon="-8.079665214260075"><ele>387.0</ele><time>2026-04-05T14:35:57Z</time></trkpt><trkpt lat="42.43661803374305" lon="-8.079904006994635"><ele>385.6666666666667</ele><time>2026-04-05T14:35:58Z</time></trkpt><trkpt lat="42.43670431169188" lon="-8.080159159203435"><ele>384.33333333333337</ele><time>2026-04-05T14:35:59Z</time></trkpt><trkpt lat="42.43677362607909" lon="-8.080430408773681"><ele>383.0</ele><time>2026-04-05T14:36:00Z</time></trkpt><trkpt lat="42.43682312022053" lon="-8.080713648193075"><ele>381.33333333333337</ele><time>2026-04-05T14:36:01Z</time></trkpt><trkpt lat="42.436852827033015" lon="-8.081006605832219"><ele>379.6666666666667</ele><time>2026-04-05T14:36:02Z</time></trkpt><trkpt lat="42.436860872442026" lon="-8.081283722701055"><ele>378.0</ele><time>2026-04-05T14:36:03Z</time></trkpt><trkpt lat="42.43685378365224" lon="-8.081555825145191"><ele>378.3333333333333</ele><time>2026-04-05T14:36:04Z</time></trkpt><trkpt lat="42.436823346267936" lon="-8.081829030776058"><ele>378.66666666666663</ele><time>2026-04-05T14:36:05Z</time></trkpt><trkpt lat="42.43677890879515" lon="-8.082101990883363"><ele>379.0</ele><time>2026-04-05T14:36:06Z</time></trkpt><trkpt lat="42.43671308008975" lon="-8.082368360612156"><ele>380.66666666666663</ele><time>2026-04-05T14:36:07Z</time></trkpt><trkpt lat="42.43661621991231" lon="-8.082623232644087"><ele>382.3333333333333</ele><time>2026-04-05T14:36:08Z</time></trkpt><trkpt lat="42.43648814450586" lon="-8.08284929482149"><ele>384.0</ele><time>2026-04-05T14:36:09Z</time></trkpt><trkpt lat="42.436331796905" lon="-8.083036471051006"><ele>384.66666666666663</ele><time>2026-04-05T14:36:10Z</time></trkpt><trkpt lat="42.436148701210286" lon="-8.083184832666204"><ele>385.3333333333333</ele><time>2026-04-05T14:36:11Z</time></trkpt><trkpt lat="42.43595369944331" lon="-8.083299483339683"><ele>386.0</ele><time>2026-04-05T14:36:12Z</time></trkpt><trkpt lat="42.435749504273204" lon="-8.083379882340468"><ele>386.0</ele><time>2026-04-05T14:36:13Z</time></trkpt><trkpt lat="42.43553340878093" lon="-8.083446620741583"><ele>386.0</ele><time>2026-04-05T14:36:14Z</time></trkpt><trkpt lat="42.435337342729404" lon="-8.083539176447301"><ele>386.0</ele><time>2026-04-05T14:36:15Z</time></trkpt><trkpt lat="42.43513300848913" lon="-8.08364154081926"><ele>383.3333333333333</ele><time>2026-04-05T14:36:16Z</time></trkpt><trkpt lat="42.43493025671573" lon="-8.083749228844782"><ele>380.66666666666663</ele><time>2026-04-05T14:36:17Z</time></trkpt><trkpt lat="42.43472666637365" lon="-8.083876234667116"><ele>378.0</ele><time>2026-04-05T14:36:18Z</time></trkpt><trkpt lat="42.434528784303374" lon="-8.084012429456834"><ele>378.0</ele><time>2026-04-05T14:36:19Z</time></trkpt><trkpt lat="42.434334676816015" lon="-8.084158498706548"><ele>378.0</ele><time>2026-04-05T14:36:20Z</time></trkpt><trkpt lat="42.43414710371335" lon="-8.084324625626664"><ele>378.0</ele><time>2026-04-05T14:36:21Z</time></trkpt><trkpt lat="42.4339672400899" lon="-8.084502827076765"><ele>378.0</ele><time>2026-04-05T14:36:22Z</time></trkpt><trkpt lat="42.43379224221538" lon="-8.084693998782505"><ele>378.0</ele><time>2026-04-05T14:36:23Z</time></trkpt><trkpt lat="42.433626460821614" lon="-8.08490148326641"><ele>381.0</ele><time>2026-04-05T14:36:24Z</time></trkpt><trkpt lat="42.43346755117526" lon="-8.085123182271206"><ele>384.0</ele><time>2026-04-05T14:36:25Z</time></trkpt><trkpt lat="42.43331313000965" lon="-8.085348205929934"><ele>384.0</ele><time>2026-04-05T14:36:26Z</time></trkpt><trkpt lat="42.43314703464524" lon="-8.085575189226782"><ele>384.0</ele><time>2026-04-05T14:36:27Z</time></trkpt><trkpt lat="42.43298248912618" lon="-8.085789066795654"><ele>384.5</ele><time>2026-04-05T14:36:28Z</time></trkpt><trkpt lat="42.432814821677354" lon="-8.086000584226978"><ele>385.0</ele><time>2026-04-05T14:36:29Z</time></trkpt><trkpt lat="42.43264110036204" lon="-8.086213471764157"><ele>385.0</ele><time>2026-04-05T14:36:30Z</time></trkpt><trkpt lat="42.43246824084797" lon="-8.086420748097549"><ele>385.0</ele><time>2026-04-05T14:36:31Z</time></trkpt><trkpt lat="42.43229061514626" lon="-8.086623601283236"><ele>382.0</ele><time>2026-04-05T14:36:32Z</time></trkpt><trkpt lat="42.43210398053587" lon="-8.086821809931275"><ele>379.0</ele><time>2026-04-05T14:36:33Z</time></trkpt><trkpt lat="42.43191713944595" lon="-8.087018136621955"><ele>379.0</ele><time>2026-04-05T14:36:34Z</time></trkpt><trkpt lat="42.431733773342366" lon="-8.087214962868275"><ele>379.0</ele><time>2026-04-05T14:36:35Z</time></trkpt><trkpt lat="42.431551035687924" lon="-8.08741939683909"><ele>377.5</ele><time>2026-04-05T14:36:36Z</time></trkpt><trkpt lat="42.43137652626803" lon="-8.087637371983588"><ele>376.0</ele><time>2026-04-05T14:36:37Z</time></trkpt><trkpt lat="42.431207661606976" lon="-8.087862039369087"><ele>376.0</ele><time>2026-04-05T14:36:38Z</time></trkpt><trkpt lat="42.43105015871377" lon="-8.088097289067733"><ele>376.0</ele><time>2026-04-05T14:36:39Z</time></trkpt><trkpt lat="42.43089886556973" lon="-8.088336667889154"><ele>378.5</ele><time>2026-04-05T14:36:40Z</time></trkpt><trkpt lat="42.4307692035548" lon="-8.088596908623668"><ele>381.0</ele><time>2026-04-05T14:36:41Z</time></trkpt><trkpt lat="42.43062280525922" lon="-8.088844515287335"><ele>378.0</ele><time>2026-04-05T14:36:42Z</time></trkpt><trkpt lat="42.43049585302594" lon="-8.08911417581799"><ele>375.0</ele><time>2026-04-05T14:36:43Z</time></trkpt><trkpt lat="42.43037458447279" lon="-8.089383208565359"><ele>375.0</ele><time>2026-04-05T14:36:44Z</time></trkpt><trkpt lat="42.43025159434632" lon="-8.089648141325084"><ele>375.0</ele><time>2026-04-05T14:36:45Z</time></trkpt><trkpt lat="42.430145506491094" lon="-8.089933085276385"><ele>380.0</ele><time>2026-04-05T14:36:46Z</time></trkpt><trkpt lat="42.430028826886996" lon="-8.090202504311208"><ele>385.0</ele><time>2026-04-05T14:36:47Z</time></trkpt><trkpt lat="42.429894090050546" lon="-8.090463848376775"><ele>385.0</ele><time>2026-04-05T14:36:48Z</time></trkpt><trkpt lat="42.429779196173584" lon="-8.090734931565647"><ele>385.0</ele><time>2026-04-05T14:36:49Z</time></trkpt><trkpt lat="42.4296564529422" lon="-8.091003381429564"><ele>379.0</ele><time>2026-04-05T14:36:50Z</time></trkpt><trkpt lat="42.42953001165791" lon="-8.091263559906498"><ele>373.0</ele><time>2026-04-05T14:36:51Z</time></trkpt><trkpt lat="42.42939697686759" lon="-8.091523392810638"><ele>374.5</ele><time>2026-04-05T14:36:52Z</time></trkpt><trkpt lat="42.429263167737616" lon="-8.091782046965317"><ele>376.0</ele><time>2026-04-05T14:36:53Z</time></trkpt><trkpt lat="42.42912910041876" lon="-8.092046564620277"><ele>376.0</ele><time>2026-04-05T14:36:54Z</time></trkpt><trkpt lat="42.42899655895936" lon="-8.092305222030998"><ele>376.0</ele><time>2026-04-05T14:36:55Z</time></trkpt><trkpt lat="42.42886187144943" lon="-8.092568844198016"><ele>373.5</ele><time>2026-04-05T14:36:56Z</time></trkpt><trkpt lat="42.428724162585304" lon="-8.092826737892734"><ele>371.0</ele><time>2026-04-05T14:36:57Z</time></trkpt><trkpt lat="42.4285838901809" lon="-8.09308276443127"><ele>373.0</ele><time>2026-04-05T14:36:58Z</time></trkpt><trkpt lat="42.428440413423786" lon="-8.09333760495909"><ele>375.0</ele><time>2026-04-05T14:36:59Z</time></trkpt><trkpt lat="42.42829921642466" lon="-8.093589386962321"><ele>375.0</ele><time>2026-04-05T14:37:00Z</time></trkpt><trkpt lat="42.428154634681995" lon="-8.093837490082729"><ele>375.0</ele><time>2026-04-05T14:37:01Z</time></trkpt><trkpt lat="42.428005933765846" lon="-8.09408467522498"><ele>377.0</ele><time>2026-04-05T14:37:02Z</time></trkpt><trkpt lat="42.42785577906345" lon="-8.09432337879977"><ele>379.0</ele><time>2026-04-05T14:37:03Z</time></trkpt><trkpt lat="42.427704006285026" lon="-8.094561769655348"><ele>379.0</ele><time>2026-04-05T14:37:04Z</time></trkpt><trkpt lat="42.427553110697424" lon="-8.094800815183042"><ele>379.0</ele><time>2026-04-05T14:37:05Z</time></trkpt><trkpt lat="42.427397107426266" lon="-8.095037548578128"><ele>377.5</ele><time>2026-04-05T14:37:06Z</time></trkpt><trkpt lat="42.427237387269194" lon="-8.095273326746227"><ele>376.0</ele><time>2026-04-05T14:37:07Z</time></trkpt><trkpt lat="42.42708062839112" lon="-8.095513800536837"><ele>376.0</ele><time>2026-04-05T14:37:08Z</time></trkpt><trkpt lat="42.42691835614906" lon="-8.095745063065028"><ele>376.0</ele><time>2026-04-05T14:37:09Z</time></trkpt><trkpt lat="42.42676069318135" lon="-8.09597543199035"><ele>378.5</ele><time>2026-04-05T14:37:10Z</time></trkpt><trkpt lat="42.42659431668533" lon="-8.096208120307042"><ele>381.0</ele><time>2026-04-05T14:37:11Z</time></trkpt><trkpt lat="42.426444499814764" lon="-8.096452489510005"><ele>383.5</ele><time>2026-04-05T14:37:12Z</time></trkpt><trkpt lat="42.42630548963854" lon="-8.09670646729263"><ele>386.0</ele><time>2026-04-05T14:37:13Z</time></trkpt><trkpt lat="42.426177695137376" lon="-8.096971997459459"><ele>386.0</ele><time>2026-04-05T14:37:14Z</time></trkpt><trkpt lat="42.426070637236684" lon="-8.097250545985741"><ele>386.0</ele><time>2026-04-05T14:37:15Z</time></trkpt><trkpt lat="42.425978802040625" lon="-8.097546223658988"><ele>387.5</ele><time>2026-04-05T14:37:16Z</time></trkpt><trkpt lat="42.42591140169536" lon="-8.09784823262758"><ele>389.0</ele><time>2026-04-05T14:37:17Z</time></trkpt><trkpt lat="42.42586424910821" lon="-8.098162671445897"><ele>387.5</ele><time>2026-04-05T14:37:18Z</time></trkpt><trkpt lat="42.4258382792626" lon="-8.098483907083725"><ele>386.0</ele><time>2026-04-05T14:37:19Z</time></trkpt><trkpt lat="42.42582983017186" lon="-8.098807686611948"><ele>383.0</ele><time>2026-04-05T14:37:20Z</time></trkpt><trkpt lat="42.42581196130257" lon="-8.09912607379885"><ele>380.0</ele><time>2026-04-05T14:37:21Z</time></trkpt><trkpt lat="42.42577856106819" lon="-8.099444876251589"><ele>380.0</ele><time>2026-04-05T14:37:22Z</time></trkpt><trkpt lat="42.42573012482402" lon="-8.099762734955014"><ele>380.0</ele><time>2026-04-05T14:37:23Z</time></trkpt><trkpt lat="42.42566442886986" lon="-8.10008017878745"><ele>377.5</ele><time>2026-04-05T14:37:24Z</time></trkpt><trkpt lat="42.42559514954655" lon="-8.100396602454282"><ele>375.0</ele><time>2026-04-05T14:37:25Z</time></trkpt><trkpt lat="42.425517739976854" lon="-8.100707056486034"><ele>366.5</ele><time>2026-04-05T14:37:26Z</time></trkpt><trkpt lat="42.42544118773794" lon="-8.101019249106528"><ele>358.0</ele><time>2026-04-05T14:37:27Z</time></trkpt><trkpt lat="42.425388271958816" lon="-8.101348453419353"><ele>356.5</ele><time>2026-04-05T14:37:28Z</time></trkpt><trkpt lat="42.425359047029346" lon="-8.101681287552823"><ele>355.0</ele><time>2026-04-05T14:37:29Z</time></trkpt><trkpt lat="42.42535964058039" lon="-8.102020610840476"><ele>355.0</ele><time>2026-04-05T14:37:30Z</time></trkpt><trkpt lat="42.42537973064094" lon="-8.102359727635436"><ele>355.0</ele><time>2026-04-05T14:37:31Z</time></trkpt><trkpt lat="42.425418614074495" lon="-8.102693254747736"><ele>353.0</ele><time>2026-04-05T14:37:32Z</time></trkpt><trkpt lat="42.42546076675297" lon="-8.103027062760425"><ele>351.0</ele><time>2026-04-05T14:37:33Z</time></trkpt><trkpt lat="42.42549587785387" lon="-8.10335577167098"><ele>353.6666666666667</ele><time>2026-04-05T14:37:34Z</time></trkpt><trkpt lat="42.42551139451503" lon="-8.103663140364555"><ele>356.33333333333337</ele><time>2026-04-05T14:37:35Z</time></trkpt><trkpt lat="42.42550842199507" lon="-8.103958679398465"><ele>359.0</ele><time>2026-04-05T14:37:36Z</time></trkpt><trkpt lat="42.42548913040638" lon="-8.104239681645439"><ele>356.0</ele><time>2026-04-05T14:37:37Z</time></trkpt><trkpt lat="42.42545965878477" lon="-8.104497037328445"><ele>353.0</ele><time>2026-04-05T14:37:38Z</time></trkpt><trkpt lat="42.425433752556465" lon="-8.10470721443102"><ele>350.0</ele><time>2026-04-05T14:37:39Z</time></trkpt><trkpt lat="42.42539171413787" lon="-8.104899697617498"><ele>349.6666666666667</ele><time>2026-04-05T14:37:40Z</time></trkpt><trkpt lat="42.42534869624388" lon="-8.105095869939646"><ele>349.3333333333333</ele><time>2026-04-05T14:37:41Z</time></trkpt><trkpt lat="42.42530570705992" lon="-8.105301652496586"><ele>349.0</ele><time>2026-04-05T14:37:42Z</time></trkpt><trkpt lat="42.425273537590655" lon="-8.105517064959276"><ele>349.0</ele><time>2026-04-05T14:37:43Z</time></trkpt><trkpt lat="42.42524887377635" lon="-8.105739840638636"><ele>349.0</ele><time>2026-04-05T14:37:44Z</time></trkpt><trkpt lat="42.42524897458447" lon="-8.105985343062153"><ele>349.0</ele><time>2026-04-05T14:37:45Z</time></trkpt><trkpt lat="42.42526235771039" lon="-8.10623558622217"><ele>348.66666666666663</ele><time>2026-04-05T14:37:46Z</time></trkpt><trkpt lat="42.42529384650746" lon="-8.106490701242135"><ele>348.3333333333333</ele><time>2026-04-05T14:37:47Z</time></trkpt><trkpt lat="42.425336476153085" lon="-8.106749086394029"><ele>348.0</ele><time>2026-04-05T14:37:48Z</time></trkpt><trkpt lat="42.4254012345877" lon="-8.107003962801905"><ele>349.3333333333333</ele><time>2026-04-05T14:37:49Z</time></trkpt><trkpt lat="42.42548284781593" lon="-8.107254165721878"><ele>350.66666666666663</ele><time>2026-04-05T14:37:50Z</time></trkpt><trkpt lat="42.42557382812169" lon="-8.107506538192945"><ele>352.0</ele><time>2026-04-05T14:37:51Z</time></trkpt><trkpt lat="42.425661190277204" lon="-8.10775616590712"><ele>352.0</ele><time>2026-04-05T14:37:52Z</time></trkpt><trkpt lat="42.425749214331255" lon="-8.108010795817815"><ele>352.0</ele><time>2026-04-05T14:37:53Z</time></trkpt><trkpt lat="42.42583760128578" lon="-8.108266760120419"><ele>352.0</ele><time>2026-04-05T14:37:54Z</time></trkpt><trkpt lat="42.42593431949005" lon="-8.108522674102328"><ele>351.0</ele><time>2026-04-05T14:37:55Z</time></trkpt><trkpt lat="42.4260359664937" lon="-8.108778290409193"><ele>350.0</ele><time>2026-04-05T14:37:56Z</time></trkpt><trkpt lat="42.42613968471844" lon="-8.109038590717747"><ele>349.0</ele><time>2026-04-05T14:37:57Z</time></trkpt><trkpt lat="42.42623624754866" lon="-8.109301697627759"><ele>349.66666666666663</ele><time>2026-04-05T14:37:58Z</time></trkpt><trkpt lat="42.426321242118114" lon="-8.109576108149032"><ele>350.3333333333333</ele><time>2026-04-05T14:37:59Z</time></trkpt><trkpt lat="42.4263966327173" lon="-8.109856578905358"><ele>351.0</ele><time>2026-04-05T14:38:00Z</time></trkpt><trkpt lat="42.42645657081701" lon="-8.110144604896172"><ele>351.0</ele><time>2026-04-05T14:38:01Z</time></trkpt><trkpt lat="42.42650320745712" lon="-8.110441267913915"><ele>351.0</ele><time>2026-04-05T14:38:02Z</time></trkpt><trkpt lat="42.42653013611981" lon="-8.110743979345072"><ele>351.0</ele><time>2026-04-05T14:38:03Z</time></trkpt><trkpt lat="42.4265401091365" lon="-8.111047646771386"><ele>351.0</ele><time>2026-04-05T14:38:04Z</time></trkpt><trkpt lat="42.42654102178597" lon="-8.111351244932997"><ele>351.0</ele><time>2026-04-05T14:38:05Z</time></trkpt><trkpt lat="42.426525809379356" lon="-8.111654829239983"><ele>351.0</ele><time>2026-04-05T14:38:06Z</time></trkpt><trkpt lat="42.426495461701165" lon="-8.111957228080682"><ele>351.0</ele><time>2026-04-05T14:38:07Z</time></trkpt><trkpt lat="42.42644996208892" lon="-8.112255895180569"><ele>351.0</ele><time>2026-04-05T14:38:08Z</time></trkpt><trkpt lat="42.42638537396332" lon="-8.112545668084305"><ele>351.0</ele><time>2026-04-05T14:38:09Z</time></trkpt><trkpt lat="42.42630421487849" lon="-8.112832006825709"><ele>351.0</ele><time>2026-04-05T14:38:10Z</time></trkpt><trkpt lat="42.42620667331986" lon="-8.113104687577389"><ele>351.0</ele><time>2026-04-05T14:38:11Z</time></trkpt><trkpt lat="42.42609989113161" lon="-8.113362321318993"><ele>351.0</ele><time>2026-04-05T14:38:12Z</time></trkpt><trkpt lat="42.425976150652225" lon="-8.113617419016435"><ele>351.0</ele><time>2026-04-05T14:38:13Z</time></trkpt><trkpt lat="42.42583965607652" lon="-8.113860711823785"><ele>351.0</ele><time>2026-04-05T14:38:14Z</time></trkpt><trkpt lat="42.4256935626777" lon="-8.114088731671517"><ele>351.0</ele><time>2026-04-05T14:38:15Z</time></trkpt><trkpt lat="42.425537553627954" lon="-8.114303758978428"><ele>351.3333333333333</ele><time>2026-04-05T14:38:16Z</time></trkpt><trkpt lat="42.42536711687739" lon="-8.11450335396819"><ele>351.66666666666663</ele><time>2026-04-05T14:38:17Z</time></trkpt><trkpt lat="42.4251926432332" lon="-8.114690486866166"><ele>352.0</ele><time>2026-04-05T14:38:18Z</time></trkpt><trkpt lat="42.425009294575496" lon="-8.11486330134252"><ele>354.3333333333333</ele><time>2026-04-05T14:38:19Z</time></trkpt><trkpt lat="42.424832683642656" lon="-8.115049721640617"><ele>356.6666666666667</ele><time>2026-04-05T14:38:20Z</time></trkpt><trkpt lat="42.4246559565421" lon="-8.11522116248776"><ele>359.0</ele><time>2026-04-05T14:38:21Z</time></trkpt><trkpt lat="42.424472296662415" lon="-8.115400033923311"><ele>360.6666666666667</ele><time>2026-04-05T14:38:22Z</time></trkpt><trkpt lat="42.4242950306504" lon="-8.115580997326154"><ele>362.3333333333333</ele><time>2026-04-05T14:38:23Z</time></trkpt><trkpt lat="42.42412523661903" lon="-8.11578255268416"><ele>364.0</ele><time>2026-04-05T14:38:24Z</time></trkpt><trkpt lat="42.423964763563404" lon="-8.1159931449062"><ele>364.0</ele><time>2026-04-05T14:38:25Z</time></trkpt><trkpt lat="42.42382283601143" lon="-8.116220886617954"><ele>364.0</ele><time>2026-04-05T14:38:26Z</time></trkpt><trkpt lat="42.42368917310344" lon="-8.11646054456043"><ele>364.0</ele><time>2026-04-05T14:38:27Z</time></trkpt><trkpt lat="42.42356509364301" lon="-8.116708586395594"><ele>365.0</ele><time>2026-04-05T14:38:28Z</time></trkpt><trkpt lat="42.42343808456298" lon="-8.116957963860003"><ele>366.0</ele><time>2026-04-05T14:38:29Z</time></trkpt><trkpt lat="42.42332927560608" lon="-8.117217634150887"><ele>367.0</ele><time>2026-04-05T14:38:30Z</time></trkpt><trkpt lat="42.42321840095376" lon="-8.117476873850869"><ele>367.0</ele><time>2026-04-05T14:38:31Z</time></trkpt><trkpt lat="42.423109373435835" lon="-8.11773496529689"><ele>367.0</ele><time>2026-04-05T14:38:32Z</time></trkpt><trkpt lat="42.4230142038265" lon="-8.11799684673404"><ele>367.0</ele><time>2026-04-05T14:38:33Z</time></trkpt><trkpt lat="42.42289383708202" lon="-8.11823857676581"><ele>365.0</ele><time>2026-04-05T14:38:34Z</time></trkpt><trkpt lat="42.42280024811589" lon="-8.118504119925847"><ele>363.0</ele><time>2026-04-05T14:38:35Z</time></trkpt><trkpt lat="42.42269340926863" lon="-8.118757291963606"><ele>361.0</ele><time>2026-04-05T14:38:36Z</time></trkpt><trkpt lat="42.42258634831132" lon="-8.119014463600205"><ele>366.3333333333333</ele><time>2026-04-05T14:38:37Z</time></trkpt><trkpt lat="42.42248208194234" lon="-8.119268714696418"><ele>371.6666666666667</ele><time>2026-04-05T14:38:38Z</time></trkpt><trkpt lat="42.42238000309002" lon="-8.119522063523407"><ele>377.0</ele><time>2026-04-05T14:38:39Z</time></trkpt><trkpt lat="42.4222656130818" lon="-8.119775453603884"><ele>379.6666666666667</ele><time>2026-04-05T14:38:40Z</time></trkpt><trkpt lat="42.42217060453908" lon="-8.12003821745717"><ele>382.33333333333337</ele><time>2026-04-05T14:38:41Z</time></trkpt><trkpt lat="42.422077885086175" lon="-8.120308502009982"><ele>385.0</ele><time>2026-04-05T14:38:42Z</time></trkpt><trkpt lat="42.42199007482536" lon="-8.120580845738987"><ele>379.0</ele><time>2026-04-05T14:38:43Z</time></trkpt><trkpt lat="42.42189798622097" lon="-8.120847775192141"><ele>373.0</ele><time>2026-04-05T14:38:44Z</time></trkpt><trkpt lat="42.42181764072824" lon="-8.121128270238854"><ele>367.0</ele><time>2026-04-05T14:38:45Z</time></trkpt><trkpt lat="42.42174365180017" lon="-8.12141052322624"><ele>370.0</ele><time>2026-04-05T14:38:46Z</time></trkpt><trkpt lat="42.4216668632931" lon="-8.12169302306128"><ele>373.0</ele><time>2026-04-05T14:38:47Z</time></trkpt><trkpt lat="42.42158853668635" lon="-8.121978853257925"><ele>376.0</ele><time>2026-04-05T14:38:48Z</time></trkpt><trkpt lat="42.42151272012838" lon="-8.122257984982738"><ele>379.3333333333333</ele><time>2026-04-05T14:38:49Z</time></trkpt><trkpt lat="42.421442935609086" lon="-8.12253914417984"><ele>382.66666666666663</ele><time>2026-04-05T14:38:50Z</time></trkpt><trkpt lat="42.42137953445334" lon="-8.122827297584562"><ele>386.0</ele><time>2026-04-05T14:38:51Z</time></trkpt><trkpt lat="42.42133252175508" lon="-8.12311763705752"><ele>379.3333333333333</ele><time>2026-04-05T14:38:52Z</time></trkpt><trkpt lat="42.42130200060315" lon="-8.123411672115477"><ele>372.66666666666663</ele><time>2026-04-05T14:38:53Z</time></trkpt><trkpt lat="42.4212933640383" lon="-8.12370353586757"><ele>366.0</ele><time>2026-04-05T14:38:54Z</time></trkpt><trkpt lat="42.4213035372848" lon="-8.123991591475207"><ele>378.0</ele><time>2026-04-05T14:38:55Z</time></trkpt><trkpt lat="42.421330711540705" lon="-8.124275025010139"><ele>390.0</ele><time>2026-04-05T14:38:56Z</time></trkpt><trkpt lat="42.4213705329559" lon="-8.124536664085207"><ele>402.0</ele><time>2026-04-05T14:38:57Z</time></trkpt><trkpt lat="42.42144156544559" lon="-8.124778737880787"><ele>401.0</ele><time>2026-04-05T14:38:58Z</time></trkpt><trkpt lat="42.42154041909896" lon="-8.12500020173087"><ele>400.0</ele><time>2026-04-05T14:38:59Z</time></trkpt><trkpt lat="42.42166628227623" lon="-8.125196835462239"><ele>399.0</ele><time>2026-04-05T14:39:00Z</time></trkpt><trkpt lat="42.421808343303304" lon="-8.125364332816165"><ele>399.0</ele><time>2026-04-05T14:39:01Z</time></trkpt><trkpt lat="42.42196578095905" lon="-8.125503750895357"><ele>399.0</ele><time>2026-04-05T14:39:02Z</time></trkpt><trkpt lat="42.4221219214472" lon="-8.125638039352072"><ele>399.0</ele><time>2026-04-05T14:39:03Z</time></trkpt><trkpt lat="42.422280653885274" lon="-8.12576626516973"><ele>400.33333333333337</ele><time>2026-04-05T14:39:04Z</time></trkpt><trkpt lat="42.42243757599891" lon="-8.125913426256536"><ele>401.6666666666667</ele><time>2026-04-05T14:39:05Z</time></trkpt><trkpt lat="42.422593411701406" lon="-8.126065266804146"><ele>403.0</ele><time>2026-04-05T14:39:06Z</time></trkpt><trkpt lat="42.422758058843215" lon="-8.12620906482775"><ele>403.0</ele><time>2026-04-05T14:39:07Z</time></trkpt><trkpt lat="42.422929347223715" lon="-8.12634201198802"><ele>403.0</ele><time>2026-04-05T14:39:08Z</time></trkpt><trkpt lat="42.42310386116031" lon="-8.12647957674566"><ele>403.0</ele><time>2026-04-05T14:39:09Z</time></trkpt><trkpt lat="42.42327673645745" lon="-8.126637589600305"><ele>402.33333333333337</ele><time>2026-04-05T14:39:10Z</time></trkpt><trkpt lat="42.42345784170639" lon="-8.126779274681383"><ele>401.66666666666663</ele><time>2026-04-05T14:39:11Z</time></trkpt><trkpt lat="42.42364386440707" lon="-8.12691791260185"><ele>401.0</ele><time>2026-04-05T14:39:12Z</time></trkpt><trkpt lat="42.42383802444216" lon="-8.127053775802423"><ele>397.3333333333333</ele><time>2026-04-05T14:39:13Z</time></trkpt><trkpt lat="42.42403047675976" lon="-8.12719501549647"><ele>393.66666666666663</ele><time>2026-04-05T14:39:14Z</time></trkpt><trkpt lat="42.42423381086161" lon="-8.12734157057499"><ele>390.0</ele><time>2026-04-05T14:39:15Z</time></trkpt><trkpt lat="42.42444207676105" lon="-8.127469387544187"><ele>391.5</ele><time>2026-04-05T14:39:16Z</time></trkpt><trkpt lat="42.42466713521757" lon="-8.127564514154654"><ele>393.0</ele><time>2026-04-05T14:39:17Z</time></trkpt><trkpt lat="42.42490199527396" lon="-8.127620672787701"><ele>393.0</ele><time>2026-04-05T14:39:18Z</time></trkpt><trkpt lat="42.42513886083105" lon="-8.12765026435125"><ele>393.0</ele><time>2026-04-05T14:39:19Z</time></trkpt><trkpt lat="42.42538453151168" lon="-8.12767363515986"><ele>396.5</ele><time>2026-04-05T14:39:20Z</time></trkpt><trkpt lat="42.42560633302905" lon="-8.127721406998205"><ele>400.0</ele><time>2026-04-05T14:39:21Z</time></trkpt><trkpt lat="42.42584648163392" lon="-8.127753805078305"><ele>400.0</ele><time>2026-04-05T14:39:22Z</time></trkpt><trkpt lat="42.42608343945614" lon="-8.12779242783149"><ele>400.0</ele><time>2026-04-05T14:39:23Z</time></trkpt><trkpt lat="42.426327979467956" lon="-8.127826355910997"><ele>401.5</ele><time>2026-04-05T14:39:24Z</time></trkpt><trkpt lat="42.426570128376106" lon="-8.12785964933807"><ele>403.0</ele><time>2026-04-05T14:39:25Z</time></trkpt><trkpt lat="42.42681325739571" lon="-8.127901133464688"><ele>403.0</ele><time>2026-04-05T14:39:26Z</time></trkpt><trkpt lat="42.42706094682934" lon="-8.127930276492979"><ele>403.0</ele><time>2026-04-05T14:39:27Z</time></trkpt><trkpt lat="42.427296915972974" lon="-8.12797552273797"><ele>402.5</ele><time>2026-04-05T14:39:28Z</time></trkpt><trkpt lat="42.427533533270235" lon="-8.128043392090373"><ele>402.0</ele><time>2026-04-05T14:39:29Z</time></trkpt><trkpt lat="42.42777085693917" lon="-8.128123489240641"><ele>396.0</ele><time>2026-04-05T14:39:30Z</time></trkpt><trkpt lat="42.4280007239348" lon="-8.128232645123683"><ele>390.0</ele><time>2026-04-05T14:39:31Z</time></trkpt><trkpt lat="42.42822385077567" lon="-8.128361585678638"><ele>390.0</ele><time>2026-04-05T14:39:32Z</time></trkpt><trkpt lat="42.428435868003724" lon="-8.12851497778789"><ele>390.0</ele><time>2026-04-05T14:39:33Z</time></trkpt><trkpt lat="42.42863456340018" lon="-8.128696370082517"><ele>390.0</ele><time>2026-04-05T14:39:34Z</time></trkpt><trkpt lat="42.42882395036966" lon="-8.128884840423233"><ele>390.0</ele><time>2026-04-05T14:39:35Z</time></trkpt><trkpt lat="42.42901300089066" lon="-8.129077398372079"><ele>390.0</ele><time>2026-04-05T14:39:36Z</time></trkpt><trkpt lat="42.42921202433222" lon="-8.129264413914749"><ele>390.0</ele><time>2026-04-05T14:39:37Z</time></trkpt><trkpt lat="42.42940243855662" lon="-8.129449540467883"><ele>390.0</ele><time>2026-04-05T14:39:38Z</time></trkpt><trkpt lat="42.429595191262436" lon="-8.129638690361364"><ele>390.0</ele><time>2026-04-05T14:39:39Z</time></trkpt><trkpt lat="42.429785982941496" lon="-8.12982478878642"><ele>390.5</ele><time>2026-04-05T14:39:40Z</time></trkpt><trkpt lat="42.429973408972046" lon="-8.130021357620052"><ele>391.0</ele><time>2026-04-05T14:39:41Z</time></trkpt><trkpt lat="42.43016184511301" lon="-8.130216348907705"><ele>391.0</ele><time>2026-04-05T14:39:42Z</time></trkpt><trkpt lat="42.43034558171685" lon="-8.130405921668693"><ele>391.0</ele><time>2026-04-05T14:39:43Z</time></trkpt><trkpt lat="42.43052733444092" lon="-8.130605244575683"><ele>390.5</ele><time>2026-04-05T14:39:44Z</time></trkpt><trkpt lat="42.4306993157439" lon="-8.130812828455014"><ele>390.0</ele><time>2026-04-05T14:39:45Z</time></trkpt><trkpt lat="42.430860831966456" lon="-8.131033641465185"><ele>390.0</ele><time>2026-04-05T14:39:46Z</time></trkpt><trkpt lat="42.43101760605753" lon="-8.131265579821124"><ele>390.0</ele><time>2026-04-05T14:39:47Z</time></trkpt><trkpt lat="42.431163939957166" lon="-8.13150888946716"><ele>388.5</ele><time>2026-04-05T14:39:48Z</time></trkpt><trkpt lat="42.43130037103436" lon="-8.131764859056528"><ele>387.0</ele><time>2026-04-05T14:39:49Z</time></trkpt><trkpt lat="42.431429187051435" lon="-8.132025365217162"><ele>391.0</ele><time>2026-04-05T14:39:50Z</time></trkpt><trkpt lat="42.431548161470445" lon="-8.132300116586718"><ele>395.0</ele><time>2026-04-05T14:39:51Z</time></trkpt><trkpt lat="42.431657385649196" lon="-8.132582941573139"><ele>395.5</ele><time>2026-04-05T14:39:52Z</time></trkpt><trkpt lat="42.4317719438658" lon="-8.132861757819164"><ele>396.0</ele><time>2026-04-05T14:39:53Z</time></trkpt><trkpt lat="42.431892211890194" lon="-8.133133407055118"><ele>395.5</ele><time>2026-04-05T14:39:54Z</time></trkpt><trkpt lat="42.432020231841676" lon="-8.133391709882044"><ele>395.0</ele><time>2026-04-05T14:39:55Z</time></trkpt><trkpt lat="42.43217057356965" lon="-8.133638894273666"><ele>395.0</ele><time>2026-04-05T14:39:56Z</time></trkpt><trkpt lat="42.43233483715325" lon="-8.133859249577831"><ele>395.0</ele><time>2026-04-05T14:39:57Z</time></trkpt><trkpt lat="42.43251435126114" lon="-8.134061987007257"><ele>396.0</ele><time>2026-04-05T14:39:58Z</time></trkpt><trkpt lat="42.43270919593306" lon="-8.13423486931562"><ele>397.0</ele><time>2026-04-05T14:39:59Z</time></trkpt><trkpt lat="42.43291455857721" lon="-8.134378766914573"><ele>398.0</ele><time>2026-04-05T14:40:00Z</time></trkpt><trkpt lat="42.43312629185729" lon="-8.13448939542736"><ele>399.0</ele><time>2026-04-05T14:40:01Z</time></trkpt><trkpt lat="42.433344323045176" lon="-8.134584105717703"><ele>399.0</ele><time>2026-04-05T14:40:02Z</time></trkpt><trkpt lat="42.433562830250374" lon="-8.134681369921942"><ele>399.0</ele><time>2026-04-05T14:40:03Z</time></trkpt><trkpt lat="42.433770246844944" lon="-8.134782730346279"><ele>399.33333333333337</ele><time>2026-04-05T14:40:04Z</time></trkpt><trkpt lat="42.433981569155414" lon="-8.134887668409794"><ele>399.6666666666667</ele><time>2026-04-05T14:40:05Z</time></trkpt><trkpt lat="42.43418941342469" lon="-8.134988776985889"><ele>400.0</ele><time>2026-04-05T14:40:06Z</time></trkpt><trkpt lat="42.43439970420109" lon="-8.135087672855981"><ele>400.0</ele><time>2026-04-05T14:40:07Z</time></trkpt><trkpt lat="42.43461021736537" lon="-8.13517203454995"><ele>400.0</ele><time>2026-04-05T14:40:08Z</time></trkpt><trkpt lat="42.43482955147328" lon="-8.135234753042326"><ele>400.0</ele><time>2026-04-05T14:40:09Z</time></trkpt><trkpt lat="42.43504767129346" lon="-8.13526612246201"><ele>401.6666666666667</ele><time>2026-04-05T14:40:10Z</time></trkpt><trkpt lat="42.435269700523556" lon="-8.135270056475358"><ele>403.33333333333337</ele><time>2026-04-05T14:40:11Z</time></trkpt><trkpt lat="42.43548396444506" lon="-8.135267598523651"><ele>405.0</ele><time>2026-04-05T14:40:12Z</time></trkpt><trkpt lat="42.43570740943281" lon="-8.135277850309224"><ele>406.0</ele><time>2026-04-05T14:40:13Z</time></trkpt><trkpt lat="42.435924237148946" lon="-8.135286997536785"><ele>407.0</ele><time>2026-04-05T14:40:14Z</time></trkpt><trkpt lat="42.43614341342715" lon="-8.135298450003841"><ele>408.0</ele><time>2026-04-05T14:40:15Z</time></trkpt><trkpt lat="42.43636282194398" lon="-8.135315491447892"><ele>409.66666666666663</ele><time>2026-04-05T14:40:16Z</time></trkpt><trkpt lat="42.43657616175671" lon="-8.135335338388751"><ele>411.3333333333333</ele><time>2026-04-05T14:40:17Z</time></trkpt><trkpt lat="42.43678063109743" lon="-8.135363774076184"><ele>413.0</ele><time>2026-04-05T14:40:18Z</time></trkpt><trkpt lat="42.43695845771867" lon="-8.135409600148813"><ele>413.66666666666663</ele><time>2026-04-05T14:40:19Z</time></trkpt><trkpt lat="42.43713821701731" lon="-8.135466620077239"><ele>414.33333333333337</ele><time>2026-04-05T14:40:20Z</time></trkpt><trkpt lat="42.437310945407006" lon="-8.135547497962621"><ele>415.0</ele><time>2026-04-05T14:40:21Z</time></trkpt><trkpt lat="42.437480930114965" lon="-8.13564715116158"><ele>415.0</ele><time>2026-04-05T14:40:22Z</time></trkpt><trkpt lat="42.437639114888114" lon="-8.135778248550888"><ele>415.0</ele><time>2026-04-05T14:40:23Z</time></trkpt><trkpt lat="42.437795806059334" lon="-8.135931259541444"><ele>415.0</ele><time>2026-04-05T14:40:24Z</time></trkpt><trkpt lat="42.43794136642521" lon="-8.136098398954925"><ele>415.33333333333337</ele><time>2026-04-05T14:40:25Z</time></trkpt><trkpt lat="42.438078020782555" lon="-8.136259389563243"><ele>415.66666666666663</ele><time>2026-04-05T14:40:26Z</time></trkpt><trkpt lat="42.4382065443705" lon="-8.13641209812093"><ele>416.0</ele><time>2026-04-05T14:40:27Z</time></trkpt><trkpt lat="42.438337379133245" lon="-8.136540789400296"><ele>415.3333333333333</ele><time>2026-04-05T14:40:28Z</time></trkpt><trkpt lat="42.4384843525949" lon="-8.136631488424577"><ele>414.66666666666663</ele><time>2026-04-05T14:40:29Z</time></trkpt><trkpt lat="42.43865063079315" lon="-8.136688376366326"><ele>414.0</ele><time>2026-04-05T14:40:30Z</time></trkpt><trkpt lat="42.43881904911618" lon="-8.136723092842702"><ele>412.0</ele><time>2026-04-05T14:40:31Z</time></trkpt><trkpt lat="42.43899330422421" lon="-8.136721676623656"><ele>410.0</ele><time>2026-04-05T14:40:32Z</time></trkpt><trkpt lat="42.43917634357615" lon="-8.13667968682774"><ele>408.0</ele><time>2026-04-05T14:40:33Z</time></trkpt><trkpt lat="42.43936190356782" lon="-8.1366024036809"><ele>410.0</ele><time>2026-04-05T14:40:34Z</time></trkpt><trkpt lat="42.43954886805254" lon="-8.1364987053168"><ele>412.0</ele><time>2026-04-05T14:40:35Z</time></trkpt><trkpt lat="42.43974305986185" lon="-8.136396736028983"><ele>414.0</ele><time>2026-04-05T14:40:36Z</time></trkpt><trkpt lat="42.43995027944733" lon="-8.13632524134778"><ele>416.0</ele><time>2026-04-05T14:40:37Z</time></trkpt><trkpt lat="42.440172661736796" lon="-8.136302479421003"><ele>418.0</ele><time>2026-04-05T14:40:38Z</time></trkpt><trkpt lat="42.440407514244356" lon="-8.13631299934456"><ele>419.5</ele><time>2026-04-05T14:40:39Z</time></trkpt><trkpt lat="42.440645269008485" lon="-8.136346655517999"><ele>421.0</ele><time>2026-04-05T14:40:40Z</time></trkpt><trkpt lat="42.440881247560576" lon="-8.136384332848401"><ele>421.0</ele><time>2026-04-05T14:40:41Z</time></trkpt><trkpt lat="42.44112364709507" lon="-8.136413175877252"><ele>421.0</ele><time>2026-04-05T14:40:42Z</time></trkpt><trkpt lat="42.441365339180635" lon="-8.136434505416991"><ele>418.6666666666667</ele><time>2026-04-05T14:40:43Z</time></trkpt><trkpt lat="42.44159306695123" lon="-8.136457988881256"><ele>416.33333333333337</ele><time>2026-04-05T14:40:44Z</time></trkpt><trkpt lat="42.44181268513457" lon="-8.136490230501572"><ele>414.0</ele><time>2026-04-05T14:40:45Z</time></trkpt><trkpt lat="42.44202052053974" lon="-8.136545691438185"><ele>408.33333333333337</ele><time>2026-04-05T14:40:46Z</time></trkpt><trkpt lat="42.44222026665661" lon="-8.136641933207972"><ele>402.6666666666667</ele><time>2026-04-05T14:40:47Z</time></trkpt><trkpt lat="42.44240685530003" lon="-8.136796299453735"><ele>397.0</ele><time>2026-04-05T14:40:48Z</time></trkpt><trkpt lat="42.44259288318637" lon="-8.13697980383492"><ele>397.0</ele><time>2026-04-05T14:40:49Z</time></trkpt><trkpt lat="42.44276796297111" lon="-8.137172333962676"><ele>397.0</ele><time>2026-04-05T14:40:50Z</time></trkpt><trkpt lat="42.44295229320309" lon="-8.13734510158109"><ele>397.0</ele><time>2026-04-05T14:40:51Z</time></trkpt><trkpt lat="42.44315342642005" lon="-8.137478227464321"><ele>397.0</ele><time>2026-04-05T14:40:52Z</time></trkpt><trkpt lat="42.443363732305954" lon="-8.137534091290503"><ele>397.0</ele><time>2026-04-05T14:40:53Z</time></trkpt><trkpt lat="42.4435935914723" lon="-8.137575582470342"><ele>398.0</ele><time>2026-04-05T14:40:54Z</time></trkpt><trkpt lat="42.44382272634298" lon="-8.137632894700202"><ele>399.0</ele><time>2026-04-05T14:40:55Z</time></trkpt><trkpt lat="42.44405025779909" lon="-8.137661290818713"><ele>399.0</ele><time>2026-04-05T14:40:56Z</time></trkpt><trkpt lat="42.44428366559518" lon="-8.13771294465464"><ele>399.0</ele><time>2026-04-05T14:40:57Z</time></trkpt><trkpt lat="42.44451614924036" lon="-8.137779893868196"><ele>400.5</ele><time>2026-04-05T14:40:58Z</time></trkpt><trkpt lat="42.4447450688838" lon="-8.137877359438344"><ele>402.0</ele><time>2026-04-05T14:40:59Z</time></trkpt><trkpt lat="42.444975704311176" lon="-8.137980219920228"><ele>402.0</ele><time>2026-04-05T14:41:00Z</time></trkpt><trkpt lat="42.44520420958354" lon="-8.138090295753573"><ele>402.0</ele><time>2026-04-05T14:41:01Z</time></trkpt><trkpt lat="42.4454379833699" lon="-8.138194614186732"><ele>394.0</ele><time>2026-04-05T14:41:02Z</time></trkpt><trkpt lat="42.445672310837594" lon="-8.138287652518065"><ele>386.0</ele><time>2026-04-05T14:41:03Z</time></trkpt><trkpt lat="42.44591005299847" lon="-8.138376548747146"><ele>386.0</ele><time>2026-04-05T14:41:04Z</time></trkpt><trkpt lat="42.446147990457085" lon="-8.138450218390595"><ele>386.0</ele><time>2026-04-05T14:41:05Z</time></trkpt><trkpt lat="42.44638716098294" lon="-8.138513800979338"><ele>386.5</ele><time>2026-04-05T14:41:06Z</time></trkpt><trkpt lat="42.44661974466661" lon="-8.138558874912444"><ele>387.0</ele><time>2026-04-05T14:41:07Z</time></trkpt><trkpt lat="42.44684424638943" lon="-8.138599455209695"><ele>387.0</ele><time>2026-04-05T14:41:08Z</time></trkpt><trkpt lat="42.44707136930586" lon="-8.138626010659546"><ele>387.0</ele><time>2026-04-05T14:41:09Z</time></trkpt><trkpt lat="42.44729285031367" lon="-8.138651368455427"><ele>385.3333333333333</ele><time>2026-04-05T14:41:10Z</time></trkpt><trkpt lat="42.44750651571781" lon="-8.138683258130664"><ele>383.66666666666663</ele><time>2026-04-05T14:41:11Z</time></trkpt><trkpt lat="42.44771304692255" lon="-8.138703210421474"><ele>382.0</ele><time>2026-04-05T14:41:12Z</time></trkpt><trkpt lat="42.44791564751007" lon="-8.138721503852668"><ele>382.3333333333333</ele><time>2026-04-05T14:41:13Z</time></trkpt><trkpt lat="42.448109198561" lon="-8.13874285225525"><ele>382.6666666666667</ele><time>2026-04-05T14:41:14Z</time></trkpt><trkpt lat="42.4482974668084" lon="-8.138785852909985"><ele>383.0</ele><time>2026-04-05T14:41:15Z</time></trkpt><trkpt lat="42.44847619775721" lon="-8.138840722716187"><ele>383.0</ele><time>2026-04-05T14:41:16Z</time></trkpt><trkpt lat="42.44865278393657" lon="-8.138904518858418"><ele>383.0</ele><time>2026-04-05T14:41:17Z</time></trkpt><trkpt lat="42.44881521556227" lon="-8.13897909916021"><ele>383.0</ele><time>2026-04-05T14:41:18Z</time></trkpt><trkpt lat="42.44898137016176" lon="-8.139069489478882"><ele>377.6666666666667</ele><time>2026-04-05T14:41:19Z</time></trkpt><trkpt lat="42.449154568925" lon="-8.139178682405037"><ele>372.3333333333333</ele><time>2026-04-05T14:41:20Z</time></trkpt><trkpt lat="42.44932802352602" lon="-8.139314311412829"><ele>367.0</ele><time>2026-04-05T14:41:21Z</time></trkpt><trkpt lat="42.44950045729281" lon="-8.139468495441422"><ele>364.3333333333333</ele><time>2026-04-05T14:41:22Z</time></trkpt><trkpt lat="42.449672212211205" lon="-8.139642557409921"><ele>361.6666666666667</ele><time>2026-04-05T14:41:23Z</time></trkpt><trkpt lat="42.4498438644038" lon="-8.139831561790043"><ele>359.0</ele><time>2026-04-05T14:41:24Z</time></trkpt><trkpt lat="42.45000355939349" lon="-8.140036846037829"><ele>358.0</ele><time>2026-04-05T14:41:25Z</time></trkpt><trkpt lat="42.45015241275689" lon="-8.140255932672762"><ele>357.0</ele><time>2026-04-05T14:41:26Z</time></trkpt><trkpt lat="42.45028476782896" lon="-8.14049203362775"><ele>356.0</ele><time>2026-04-05T14:41:27Z</time></trkpt><trkpt lat="42.45040854099886" lon="-8.140738776987282"><ele>357.6666666666667</ele><time>2026-04-05T14:41:28Z</time></trkpt><trkpt lat="42.450519448147034" lon="-8.140995756012183"><ele>359.3333333333333</ele><time>2026-04-05T14:41:29Z</time></trkpt><trkpt lat="42.45061465580264" lon="-8.141255140430584"><ele>361.0</ele><time>2026-04-05T14:41:30Z</time></trkpt><trkpt lat="42.450703627273455" lon="-8.141526470560477"><ele>361.66666666666663</ele><time>2026-04-05T14:41:31Z</time></trkpt><trkpt lat="42.450786944067" lon="-8.141795813397321"><ele>362.3333333333333</ele><time>2026-04-05T14:41:32Z</time></trkpt><trkpt lat="42.45086963938467" lon="-8.142055283953676"><ele>363.0</ele><time>2026-04-05T14:41:33Z</time></trkpt><trkpt lat="42.45094403603233" lon="-8.142325869180636"><ele>364.3333333333333</ele><time>2026-04-05T14:41:34Z</time></trkpt><trkpt lat="42.45099089472015" lon="-8.142592600201933"><ele>365.66666666666663</ele><time>2026-04-05T14:41:35Z</time></trkpt><trkpt lat="42.45101230922809" lon="-8.142845850408671"><ele>367.0</ele><time>2026-04-05T14:41:36Z</time></trkpt><trkpt lat="42.45100620270902" lon="-8.143075086613479"><ele>368.25</ele><time>2026-04-05T14:41:37Z</time></trkpt><trkpt lat="42.45099289091253" lon="-8.143288495171417"><ele>369.5</ele><time>2026-04-05T14:41:38Z</time></trkpt><trkpt lat="42.45098197011334" lon="-8.143482939270873"><ele>370.75</ele><time>2026-04-05T14:41:39Z</time></trkpt><trkpt lat="42.45097181805181" lon="-8.14366207296294"><ele>372.0</ele><time>2026-04-05T14:41:40Z</time></trkpt><trkpt lat="42.45096232105143" lon="-8.14383043664785"><ele>372.0</ele><time>2026-04-05T14:41:41Z</time></trkpt><trkpt lat="42.45095343279892" lon="-8.143992657564633"><ele>372.0</ele><time>2026-04-05T14:41:42Z</time></trkpt><trkpt lat="42.450945974321584" lon="-8.144148320202081"><ele>372.0</ele><time>2026-04-05T14:41:43Z</time></trkpt><trkpt lat="42.4509372056349" lon="-8.144319636072506"><ele>372.0</ele><time>2026-04-05T14:41:44Z</time></trkpt><trkpt lat="42.450926275138684" lon="-8.144504762040338"><ele>372.75</ele><time>2026-04-05T14:41:45Z</time></trkpt><trkpt lat="42.45091492617539" lon="-8.144700176039997"><ele>373.5</ele><time>2026-04-05T14:41:46Z</time></trkpt><trkpt lat="42.45090280090579" lon="-8.144897035574262"><ele>374.25</ele><time>2026-04-05T14:41:47Z</time></trkpt><trkpt lat="42.45089339482211" lon="-8.145101398461229"><ele>375.0</ele><time>2026-04-05T14:41:48Z</time></trkpt><trkpt lat="42.45088381298719" lon="-8.145308302434492"><ele>375.5</ele><time>2026-04-05T14:41:49Z</time></trkpt><trkpt lat="42.450873872930515" lon="-8.145516167681404"><ele>376.0</ele><time>2026-04-05T14:41:50Z</time></trkpt><trkpt lat="42.45086436291845" lon="-8.145714932900251"><ele>376.5</ele><time>2026-04-05T14:41:51Z</time></trkpt><trkpt lat="42.450850713397756" lon="-8.145915340163365"><ele>377.0</ele><time>2026-04-05T14:41:52Z</time></trkpt><trkpt lat="42.450836114593635" lon="-8.146125857574562"><ele>378.33333333333337</ele><time>2026-04-05T14:41:53Z</time></trkpt><trkpt lat="42.45083022214024" lon="-8.146341853830283"><ele>379.6666666666667</ele><time>2026-04-05T14:41:54Z</time></trkpt><trkpt lat="42.45081581245206" lon="-8.14655975412887"><ele>381.0</ele><time>2026-04-05T14:41:55Z</time></trkpt><trkpt lat="42.45080370362835" lon="-8.146778900695159"><ele>382.0</ele><time>2026-04-05T14:41:56Z</time></trkpt><trkpt lat="42.45079008793275" lon="-8.146998688802842"><ele>383.0</ele><time>2026-04-05T14:41:57Z</time></trkpt><trkpt lat="42.45077792674217" lon="-8.147205331873218"><ele>384.0</ele><time>2026-04-05T14:41:58Z</time></trkpt><trkpt lat="42.450765109382885" lon="-8.147409093018377"><ele>385.0</ele><time>2026-04-05T14:41:59Z</time></trkpt><trkpt lat="42.450756238088495" lon="-8.147610504753336"><ele>386.0</ele><time>2026-04-05T14:42:00Z</time></trkpt><trkpt lat="42.45074447032906" lon="-8.147809235353439"><ele>387.0</ele><time>2026-04-05T14:42:01Z</time></trkpt><trkpt lat="42.45073251811501" lon="-8.148008360409447"><ele>388.0</ele><time>2026-04-05T14:42:02Z</time></trkpt><trkpt lat="42.45072139128958" lon="-8.148198027288702"><ele>389.0</ele><time>2026-04-05T14:42:03Z</time></trkpt><trkpt lat="42.4507140618262" lon="-8.148371542504204"><ele>390.0</ele><time>2026-04-05T14:42:04Z</time></trkpt><trkpt lat="42.45071123554092" lon="-8.148538224300564"><ele>391.0</ele><time>2026-04-05T14:42:05Z</time></trkpt><trkpt lat="42.450723475185164" lon="-8.148699911382419"><ele>392.0</ele><time>2026-04-05T14:42:06Z</time></trkpt><trkpt lat="42.45075715489126" lon="-8.148864695548793"><ele>392.0</ele><time>2026-04-05T14:42:07Z</time></trkpt><trkpt lat="42.450833315110906" lon="-8.14901764151544"><ele>392.0</ele><time>2026-04-05T14:42:08Z</time></trkpt><trkpt lat="42.45093994122406" lon="-8.149140056599364"><ele>392.0</ele><time>2026-04-05T14:42:09Z</time></trkpt><trkpt lat="42.45107067540078" lon="-8.149226487399936"><ele>392.0</ele><time>2026-04-05T14:42:10Z</time></trkpt><trkpt lat="42.45120961418779" lon="-8.14928902427329"><ele>394.3333333333333</ele><time>2026-04-05T14:42:11Z</time></trkpt><trkpt lat="42.45135955788845" lon="-8.149328649619932"><ele>396.66666666666663</ele><time>2026-04-05T14:42:12Z</time></trkpt><trkpt lat="42.45150910172069" lon="-8.149357723346395"><ele>399.0</ele><time>2026-04-05T14:42:13Z</time></trkpt><trkpt lat="42.45166746678759" lon="-8.149393902870807"><ele>399.0</ele><time>2026-04-05T14:42:14Z</time></trkpt><trkpt lat="42.45182873665337" lon="-8.149435867906089"><ele>399.0</ele><time>2026-04-05T14:42:15Z</time></trkpt><trkpt lat="42.451991021278246" lon="-8.149484642311268"><ele>399.0</ele><time>2026-04-05T14:42:16Z</time></trkpt><trkpt lat="42.452156142149526" lon="-8.149531706052318"><ele>399.0</ele><time>2026-04-05T14:42:17Z</time></trkpt><trkpt lat="42.452324190360955" lon="-8.149579833860685"><ele>399.0</ele><time>2026-04-05T14:42:18Z</time></trkpt><trkpt lat="42.452492838767455" lon="-8.149627624419608"><ele>399.0</ele><time>2026-04-05T14:42:19Z</time></trkpt><trkpt lat="42.452664848417555" lon="-8.149679290234046"><ele>399.0</ele><time>2026-04-05T14:42:20Z</time></trkpt><trkpt lat="42.45283428548685" lon="-8.14974583978971"><ele>399.0</ele><time>2026-04-05T14:42:21Z</time></trkpt><trkpt lat="42.45299646378407" lon="-8.149844497734707"><ele>399.0</ele><time>2026-04-05T14:42:22Z</time></trkpt><trkpt lat="42.45314452770679" lon="-8.149978729227437"><ele>403.0</ele><time>2026-04-05T14:42:23Z</time></trkpt><trkpt lat="42.453275738530074" lon="-8.150146236504456"><ele>407.0</ele><time>2026-04-05T14:42:24Z</time></trkpt><trkpt lat="42.453391607291785" lon="-8.150340652271352"><ele>411.0</ele><time>2026-04-05T14:42:25Z</time></trkpt><trkpt lat="42.45347857721493" lon="-8.150553950042621"><ele>414.33333333333337</ele><time>2026-04-05T14:42:26Z</time></trkpt><trkpt lat="42.45356239456668" lon="-8.150772634057137"><ele>417.6666666666667</ele><time>2026-04-05T14:42:27Z</time></trkpt><trkpt lat="42.4536606454713" lon="-8.150982579073272"><ele>421.0</ele><time>2026-04-05T14:42:28Z</time></trkpt><trkpt lat="42.45377698707949" lon="-8.15117163380078"><ele>422.33333333333337</ele><time>2026-04-05T14:42:29Z</time></trkpt><trkpt lat="42.453906029632435" lon="-8.151348460863641"><ele>423.66666666666663</ele><time>2026-04-05T14:42:30Z</time></trkpt><trkpt lat="42.454053433180306" lon="-8.151504279642928"><ele>425.0</ele><time>2026-04-05T14:42:31Z</time></trkpt><trkpt lat="42.4542070855802" lon="-8.151639043330459"><ele>425.0</ele><time>2026-04-05T14:42:32Z</time></trkpt><trkpt lat="42.45435902924346" lon="-8.151768408001175"><ele>425.0</ele><time>2026-04-05T14:42:33Z</time></trkpt><trkpt lat="42.45450754611732" lon="-8.151905571843097"><ele>425.0</ele><time>2026-04-05T14:42:34Z</time></trkpt><trkpt lat="42.4546636035741" lon="-8.15204371891979"><ele>425.0</ele><time>2026-04-05T14:42:35Z</time></trkpt><trkpt lat="42.45481931377999" lon="-8.152166666537005"><ele>425.0</ele><time>2026-04-05T14:42:36Z</time></trkpt><trkpt lat="42.45498685936853" lon="-8.15227078735591"><ele>425.0</ele><time>2026-04-05T14:42:37Z</time></trkpt><trkpt lat="42.45516698429561" lon="-8.15233562537848"><ele>425.0</ele><time>2026-04-05T14:42:38Z</time></trkpt><trkpt lat="42.45534674813108" lon="-8.15236214185397"><ele>425.0</ele><time>2026-04-05T14:42:39Z</time></trkpt><trkpt lat="42.45552780944939" lon="-8.152372310303349"><ele>425.0</ele><time>2026-04-05T14:42:40Z</time></trkpt><trkpt lat="42.455713321222575" lon="-8.152379509052814"><ele>431.0</ele><time>2026-04-05T14:42:41Z</time></trkpt><trkpt lat="42.455895673560875" lon="-8.152397030747474"><ele>437.0</ele><time>2026-04-05T14:42:42Z</time></trkpt><trkpt lat="42.456079441818986" lon="-8.15241391736475"><ele>443.0</ele><time>2026-04-05T14:42:43Z</time></trkpt><trkpt lat="42.456265806929046" lon="-8.15242575643856"><ele>442.0</ele><time>2026-04-05T14:42:44Z</time></trkpt><trkpt lat="42.456453049441556" lon="-8.152443521797402"><ele>441.0</ele><time>2026-04-05T14:42:45Z</time></trkpt><trkpt lat="42.45663829855307" lon="-8.152462828133459"><ele>440.0</ele><time>2026-04-05T14:42:46Z</time></trkpt><trkpt lat="42.45682651342876" lon="-8.152477225216787"><ele>440.0</ele><time>2026-04-05T14:42:47Z</time></trkpt><trkpt lat="42.45701376591201" lon="-8.15249279650951"><ele>440.0</ele><time>2026-04-05T14:42:48Z</time></trkpt><trkpt lat="42.45720245354759" lon="-8.15252142898354"><ele>440.0</ele><time>2026-04-05T14:42:49Z</time></trkpt><trkpt lat="42.457393226660116" lon="-8.152555909335131"><ele>439.0</ele><time>2026-04-05T14:42:50Z</time></trkpt><trkpt lat="42.457582397245965" lon="-8.152611541790856"><ele>438.0</ele><time>2026-04-05T14:42:51Z</time></trkpt><trkpt lat="42.45776189061882" lon="-8.152710412432988"><ele>437.0</ele><time>2026-04-05T14:42:52Z</time></trkpt><trkpt lat="42.45792510438132" lon="-8.15285747383626"><ele>433.3333333333333</ele><time>2026-04-05T14:42:53Z</time></trkpt><trkpt lat="42.45806261084388" lon="-8.15304646912799"><ele>429.66666666666663</ele><time>2026-04-05T14:42:54Z</time></trkpt><trkpt lat="42.45817613406877" lon="-8.153253479798911"><ele>426.0</ele><time>2026-04-05T14:42:55Z</time></trkpt><trkpt lat="42.45825856248876" lon="-8.153486888661991"><ele>433.33333333333337</ele><time>2026-04-05T14:42:56Z</time></trkpt><trkpt lat="42.4583151358728" lon="-8.15373051945868"><ele>440.6666666666667</ele><time>2026-04-05T14:42:57Z</time></trkpt><trkpt lat="42.45835601208556" lon="-8.153985532545883"><ele>448.0</ele><time>2026-04-05T14:42:58Z</time></trkpt><trkpt lat="42.4583887959383" lon="-8.154227336067155"><ele>450.33333333333337</ele><time>2026-04-05T14:42:59Z</time></trkpt><trkpt lat="42.45842319305609" lon="-8.154479852282812"><ele>452.66666666666663</ele><time>2026-04-05T14:43:00Z</time></trkpt><trkpt lat="42.4584552313975" lon="-8.154728206431326"><ele>455.0</ele><time>2026-04-05T14:43:01Z</time></trkpt><trkpt lat="42.45849167820935" lon="-8.154978788987288"><ele>456.3333333333333</ele><time>2026-04-05T14:43:02Z</time></trkpt><trkpt lat="42.4585248089154" lon="-8.155228274187238"><ele>457.66666666666663</ele><time>2026-04-05T14:43:03Z</time></trkpt><trkpt lat="42.45855972238705" lon="-8.155478454931155"><ele>459.0</ele><time>2026-04-05T14:43:04Z</time></trkpt><trkpt lat="42.4585955919802" lon="-8.155725197445717"><ele>462.66666666666663</ele><time>2026-04-05T14:43:05Z</time></trkpt><trkpt lat="42.458631144082624" lon="-8.155974750601192"><ele>466.3333333333333</ele><time>2026-04-05T14:43:06Z</time></trkpt><trkpt lat="42.4586634218728" lon="-8.156223710703236"><ele>470.0</ele><time>2026-04-05T14:43:07Z</time></trkpt><trkpt lat="42.45869352659402" lon="-8.1564679180852"><ele>473.66666666666663</ele><time>2026-04-05T14:43:08Z</time></trkpt><trkpt lat="42.45871533604537" lon="-8.156714697179654"><ele>477.33333333333337</ele><time>2026-04-05T14:43:09Z</time></trkpt><trkpt lat="42.45872340888413" lon="-8.156961889486228"><ele>481.0</ele><time>2026-04-05T14:43:10Z</time></trkpt><trkpt lat="42.4587015313706" lon="-8.157208611101654"><ele>480.6666666666667</ele><time>2026-04-05T14:43:11Z</time></trkpt><trkpt lat="42.45864664448311" lon="-8.157451077911212"><ele>480.33333333333337</ele><time>2026-04-05T14:43:12Z</time></trkpt><trkpt lat="42.45856277605405" lon="-8.157672605023313"><ele>480.0</ele><time>2026-04-05T14:43:13Z</time></trkpt><trkpt lat="42.45846401974176" lon="-8.157887149238777"><ele>480.0</ele><time>2026-04-05T14:43:14Z</time></trkpt><trkpt lat="42.4583718595902" lon="-8.158103367791771"><ele>480.0</ele><time>2026-04-05T14:43:15Z</time></trkpt><trkpt lat="42.458271361474374" lon="-8.158312596951017"><ele>480.0</ele><time>2026-04-05T14:43:16Z</time></trkpt><trkpt lat="42.45816699130763" lon="-8.158512703534152"><ele>477.66666666666663</ele><time>2026-04-05T14:43:17Z</time></trkpt><trkpt lat="42.458095011984874" lon="-8.15873224576596"><ele>475.3333333333333</ele><time>2026-04-05T14:43:18Z</time></trkpt><trkpt lat="42.45805025370479" lon="-8.158959307058314"><ele>473.0</ele><time>2026-04-05T14:43:19Z</time></trkpt><trkpt lat="42.45803392003151" lon="-8.159197055521444"><ele>473.0</ele><time>2026-04-05T14:43:20Z</time></trkpt><trkpt lat="42.45804159094944" lon="-8.159440688079593"><ele>473.0</ele><time>2026-04-05T14:43:21Z</time></trkpt><trkpt lat="42.45810620579958" lon="-8.159672617672257"><ele>473.0</ele><time>2026-04-05T14:43:22Z</time></trkpt><trkpt lat="42.45820074245929" lon="-8.159886486593738"><ele>476.3333333333333</ele><time>2026-04-05T14:43:23Z</time></trkpt><trkpt lat="42.458328183237754" lon="-8.160068398315058"><ele>479.66666666666663</ele><time>2026-04-05T14:43:24Z</time></trkpt><trkpt lat="42.45847806224369" lon="-8.160208389831135"><ele>483.0</ele><time>2026-04-05T14:43:25Z</time></trkpt><trkpt lat="42.4586423756488" lon="-8.160309862516565"><ele>482.0</ele><time>2026-04-05T14:43:26Z</time></trkpt><trkpt lat="42.45882264694362" lon="-8.160363337024332"><ele>481.0</ele><time>2026-04-05T14:43:27Z</time></trkpt><trkpt lat="42.45900895690091" lon="-8.160375433942498"><ele>480.0</ele><time>2026-04-05T14:43:28Z</time></trkpt><trkpt lat="42.459195447124145" lon="-8.160354085829974"><ele>480.0</ele><time>2026-04-05T14:43:29Z</time></trkpt><trkpt lat="42.45938498359234" lon="-8.160316279908146"><ele>480.0</ele><time>2026-04-05T14:43:30Z</time></trkpt><trkpt lat="42.45957571402513" lon="-8.160295760819716"><ele>480.0</ele><time>2026-04-05T14:43:31Z</time></trkpt><trkpt lat="42.45977898690176" lon="-8.160284417749287"><ele>479.0</ele><time>2026-04-05T14:43:32Z</time></trkpt><trkpt lat="42.459980444683076" lon="-8.160267219660204"><ele>478.0</ele><time>2026-04-05T14:43:33Z</time></trkpt><trkpt lat="42.46019014655644" lon="-8.16024387501776"><ele>477.0</ele><time>2026-04-05T14:43:34Z</time></trkpt><trkpt lat="42.46040482251773" lon="-8.160228889093055"><ele>478.66666666666663</ele><time>2026-04-05T14:43:35Z</time></trkpt><trkpt lat="42.460622539344165" lon="-8.160211108565619"><ele>480.3333333333333</ele><time>2026-04-05T14:43:36Z</time></trkpt><trkpt lat="42.46083852847705" lon="-8.160190555564498"><ele>482.0</ele><time>2026-04-05T14:43:37Z</time></trkpt><trkpt lat="42.46104148063705" lon="-8.160186705415857"><ele>482.0</ele><time>2026-04-05T14:43:38Z</time></trkpt><trkpt lat="42.46122750873289" lon="-8.160221666726944"><ele>482.0</ele><time>2026-04-05T14:43:39Z</time></trkpt><trkpt lat="42.46141598956757" lon="-8.16029098319416"><ele>482.0</ele><time>2026-04-05T14:43:40Z</time></trkpt><trkpt lat="42.461605794874856" lon="-8.160416855611146"><ele>482.66666666666663</ele><time>2026-04-05T14:43:41Z</time></trkpt><trkpt lat="42.461782330434694" lon="-8.160581671411327"><ele>483.33333333333337</ele><time>2026-04-05T14:43:42Z</time></trkpt><trkpt lat="42.4619524294517" lon="-8.160766707695789"><ele>484.0</ele><time>2026-04-05T14:43:43Z</time></trkpt><trkpt lat="42.46212051128084" lon="-8.160967777517651"><ele>480.33333333333337</ele><time>2026-04-05T14:43:44Z</time></trkpt><trkpt lat="42.46228883007422" lon="-8.161160163590589"><ele>476.66666666666663</ele><time>2026-04-05T14:43:45Z</time></trkpt><trkpt lat="42.46247072125995" lon="-8.16134221656686"><ele>473.0</ele><time>2026-04-05T14:43:46Z</time></trkpt><trkpt lat="42.46265553239521" lon="-8.16152089764601"><ele>472.5</ele><time>2026-04-05T14:43:47Z</time></trkpt><trkpt lat="42.46284366928685" lon="-8.161703434593443"><ele>472.0</ele><time>2026-04-05T14:43:48Z</time></trkpt><trkpt lat="42.46303564931824" lon="-8.161882515710412"><ele>472.0</ele><time>2026-04-05T14:43:49Z</time></trkpt><trkpt lat="42.463231253478085" lon="-8.162051084571411"><ele>472.0</ele><time>2026-04-05T14:43:50Z</time></trkpt><trkpt lat="42.463426516217574" lon="-8.162216354999169"><ele>475.0</ele><time>2026-04-05T14:43:51Z</time></trkpt><trkpt lat="42.46362100546799" lon="-8.162383725909299"><ele>478.0</ele><time>2026-04-05T14:43:52Z</time></trkpt><trkpt lat="42.4638135116898" lon="-8.162539583939413"><ele>478.0</ele><time>2026-04-05T14:43:53Z</time></trkpt><trkpt lat="42.46398857024524" lon="-8.162688161752056"><ele>478.0</ele><time>2026-04-05T14:43:54Z</time></trkpt><trkpt lat="42.464154506745786" lon="-8.162854156309493"><ele>478.0</ele><time>2026-04-05T14:43:55Z</time></trkpt><trkpt lat="42.46430420378787" lon="-8.16305917728883"><ele>479.33333333333337</ele><time>2026-04-05T14:43:56Z</time></trkpt><trkpt lat="42.4644362171815" lon="-8.163297831082694"><ele>480.66666666666663</ele><time>2026-04-05T14:43:57Z</time></trkpt><trkpt lat="42.46456696977828" lon="-8.16354188466605"><ele>482.0</ele><time>2026-04-05T14:43:58Z</time></trkpt><trkpt lat="42.464697253770645" lon="-8.163787740453897"><ele>482.3333333333333</ele><time>2026-04-05T14:43:59Z</time></trkpt><trkpt lat="42.464830540224035" lon="-8.16401274028631"><ele>482.66666666666663</ele><time>2026-04-05T14:44:00Z</time></trkpt><trkpt lat="42.46496564422336" lon="-8.164216034704545"><ele>483.0</ele><time>2026-04-05T14:44:01Z</time></trkpt><trkpt lat="42.46512187094424" lon="-8.164394760024074"><ele>483.0</ele><time>2026-04-05T14:44:02Z</time></trkpt><trkpt lat="42.465313967951055" lon="-8.164518299738871"><ele>483.0</ele><time>2026-04-05T14:44:03Z</time></trkpt><trkpt lat="42.46551132121635" lon="-8.164609310664902"><ele>483.0</ele><time>2026-04-05T14:44:04Z</time></trkpt><trkpt lat="42.46570453298276" lon="-8.164676141173722"><ele>484.33333333333337</ele><time>2026-04-05T14:44:05Z</time></trkpt><trkpt lat="42.465893506138755" lon="-8.16475191237492"><ele>485.6666666666667</ele><time>2026-04-05T14:44:06Z</time></trkpt><trkpt lat="42.466073695340036" lon="-8.164855189094016"><ele>487.0</ele><time>2026-04-05T14:44:07Z</time></trkpt><trkpt lat="42.46624990964796" lon="-8.164985221215721"><ele>482.6666666666667</ele><time>2026-04-05T14:44:08Z</time></trkpt><trkpt lat="42.46642498215283" lon="-8.165138713138944"><ele>478.33333333333337</ele><time>2026-04-05T14:44:09Z</time></trkpt><trkpt lat="42.466576937907874" lon="-8.16532176695396"><ele>474.0</ele><time>2026-04-05T14:44:10Z</time></trkpt><trkpt lat="42.466707265143405" lon="-8.165537788843196"><ele>479.0</ele><time>2026-04-05T14:44:11Z</time></trkpt><trkpt lat="42.46680282032815" lon="-8.165764267568152"><ele>484.0</ele><time>2026-04-05T14:44:12Z</time></trkpt><trkpt lat="42.466883772810625" lon="-8.166007753828955"><ele>489.0</ele><time>2026-04-05T14:44:13Z</time></trkpt><trkpt lat="42.46693811744236" lon="-8.166264453973575"><ele>489.66666666666663</ele><time>2026-04-05T14:44:14Z</time></trkpt><trkpt lat="42.46696415260874" lon="-8.16653250866543"><ele>490.3333333333333</ele><time>2026-04-05T14:44:15Z</time></trkpt><trkpt lat="42.46697455368251" lon="-8.16679800472341"><ele>491.0</ele><time>2026-04-05T14:44:16Z</time></trkpt><trkpt lat="42.46695042981885" lon="-8.167065125407591"><ele>491.0</ele><time>2026-04-05T14:44:17Z</time></trkpt><trkpt lat="42.46689720157431" lon="-8.167333452301174"><ele>491.0</ele><time>2026-04-05T14:44:18Z</time></trkpt><trkpt lat="42.46681798023926" lon="-8.167581048037254"><ele>491.0</ele><time>2026-04-05T14:44:19Z</time></trkpt><trkpt lat="42.46673578999035" lon="-8.167810669891638"><ele>488.3333333333333</ele><time>2026-04-05T14:44:20Z</time></trkpt><trkpt lat="42.46665097380546" lon="-8.16803302925724"><ele>485.66666666666663</ele><time>2026-04-05T14:44:21Z</time></trkpt><trkpt lat="42.46656600639205" lon="-8.16826574027803"><ele>483.0</ele><time>2026-04-05T14:44:22Z</time></trkpt><trkpt lat="42.46648730611724" lon="-8.168506950626615"><ele>479.33333333333337</ele><time>2026-04-05T14:44:23Z</time></trkpt><trkpt lat="42.46640347336" lon="-8.168744400073269"><ele>475.6666666666667</ele><time>2026-04-05T14:44:24Z</time></trkpt><trkpt lat="42.466308200228376" lon="-8.168985355908362"><ele>472.0</ele><time>2026-04-05T14:44:25Z</time></trkpt><trkpt lat="42.46621001086166" lon="-8.169215514487812"><ele>477.0</ele><time>2026-04-05T14:44:26Z</time></trkpt><trkpt lat="42.46610935351527" lon="-8.169449038043858"><ele>482.0</ele><time>2026-04-05T14:44:27Z</time></trkpt><trkpt lat="42.466009990894186" lon="-8.16968221360213"><ele>487.0</ele><time>2026-04-05T14:44:28Z</time></trkpt><trkpt lat="42.46590755128238" lon="-8.1699154135422"><ele>487.0</ele><time>2026-04-05T14:44:29Z</time></trkpt><trkpt lat="42.465801839353006" lon="-8.17015151832188"><ele>487.0</ele><time>2026-04-05T14:44:30Z</time></trkpt><trkpt lat="42.46569482005978" lon="-8.170383996236888"><ele>487.0</ele><time>2026-04-05T14:44:31Z</time></trkpt><trkpt lat="42.465587241247334" lon="-8.170611996716383"><ele>485.0</ele><time>2026-04-05T14:44:32Z</time></trkpt><trkpt lat="42.46547518461086" lon="-8.170840627398187"><ele>483.0</ele><time>2026-04-05T14:44:33Z</time></trkpt><trkpt lat="42.465358664880846" lon="-8.171070466801405"><ele>481.0</ele><time>2026-04-05T14:44:34Z</time></trkpt><trkpt lat="42.46523676394855" lon="-8.171302130963987"><ele>484.33333333333337</ele><time>2026-04-05T14:44:35Z</time></trkpt><trkpt lat="42.46511810180535" lon="-8.17152952205484"><ele>487.66666666666663</ele><time>2026-04-05T14:44:36Z</time></trkpt><trkpt lat="42.46500022204647" lon="-8.171749310797628"><ele>491.0</ele><time>2026-04-05T14:44:37Z</time></trkpt><trkpt lat="42.46489062617177" lon="-8.171947391825416"><ele>491.0</ele><time>2026-04-05T14:44:38Z</time></trkpt><trkpt lat="42.46478030482709" lon="-8.172148225548641"><ele>491.0</ele><time>2026-04-05T14:44:39Z</time></trkpt><trkpt lat="42.464665045068315" lon="-8.172351362108285"><ele>491.0</ele><time>2026-04-05T14:44:40Z</time></trkpt><trkpt lat="42.46458390058998" lon="-8.172578490270842"><ele>491.3333333333333</ele><time>2026-04-05T14:44:41Z</time></trkpt><trkpt lat="42.464494840661686" lon="-8.172809674608938"><ele>491.66666666666663</ele><time>2026-04-05T14:44:42Z</time></trkpt><trkpt lat="42.46441394560259" lon="-8.17304428976074"><ele>492.0</ele><time>2026-04-05T14:44:43Z</time></trkpt><trkpt lat="42.464356392205026" lon="-8.17329307736066"><ele>492.0</ele><time>2026-04-05T14:44:44Z</time></trkpt><trkpt lat="42.46431199306072" lon="-8.173552687240363"><ele>492.0</ele><time>2026-04-05T14:44:45Z</time></trkpt><trkpt lat="42.464271900642885" lon="-8.17382388392409"><ele>492.0</ele><time>2026-04-05T14:44:46Z</time></trkpt><trkpt lat="42.464227877455684" lon="-8.17409373562695"><ele>490.66666666666663</ele><time>2026-04-05T14:44:47Z</time></trkpt><trkpt lat="42.46417176665339" lon="-8.174352234309678"><ele>489.3333333333333</ele><time>2026-04-05T14:44:48Z</time></trkpt><trkpt lat="42.46411369230928" lon="-8.174600027174733"><ele>488.0</ele><time>2026-04-05T14:44:49Z</time></trkpt><trkpt lat="42.46404657879814" lon="-8.174835840320481"><ele>486.66666666666663</ele><time>2026-04-05T14:44:50Z</time></trkpt><trkpt lat="42.46396282988609" lon="-8.175058353742834"><ele>485.33333333333337</ele><time>2026-04-05T14:44:51Z</time></trkpt><trkpt lat="42.46386987091272" lon="-8.175269226925186"><ele>484.0</ele><time>2026-04-05T14:44:52Z</time></trkpt><trkpt lat="42.4637652193171" lon="-8.175465541224701"><ele>486.0</ele><time>2026-04-05T14:44:53Z</time></trkpt><trkpt lat="42.46364879244779" lon="-8.17565214661"><ele>488.0</ele><time>2026-04-05T14:44:54Z</time></trkpt><trkpt lat="42.463517047627064" lon="-8.17583590101201"><ele>490.0</ele><time>2026-04-05T14:44:55Z</time></trkpt><trkpt lat="42.46337692311274" lon="-8.176006484225098"><ele>490.0</ele><time>2026-04-05T14:44:56Z</time></trkpt><trkpt lat="42.46323269764031" lon="-8.176170030358875"><ele>490.0</ele><time>2026-04-05T14:44:57Z</time></trkpt><trkpt lat="42.463089628937446" lon="-8.176337236957087"><ele>490.0</ele><time>2026-04-05T14:44:58Z</time></trkpt><trkpt lat="42.46294717098538" lon="-8.176508944033568"><ele>495.0</ele><time>2026-04-05T14:44:59Z</time></trkpt><trkpt lat="42.46280404057349" lon="-8.176687156374136"><ele>500.0</ele><time>2026-04-05T14:45:00Z</time></trkpt><trkpt lat="42.46266337976451" lon="-8.176871616089223"><ele>505.0</ele><time>2026-04-05T14:45:01Z</time></trkpt><trkpt lat="42.462521199528084" lon="-8.177059006143917"><ele>505.0</ele><time>2026-04-05T14:45:02Z</time></trkpt><trkpt lat="42.46238304040651" lon="-8.177243845427157"><ele>505.0</ele><time>2026-04-05T14:45:03Z</time></trkpt><trkpt lat="42.46224601533748" lon="-8.177427519997732"><ele>505.0</ele><time>2026-04-05T14:45:04Z</time></trkpt><trkpt lat="42.462113020941224" lon="-8.177607653210698"><ele>506.0</ele><time>2026-04-05T14:45:05Z</time></trkpt><trkpt lat="42.46198452738578" lon="-8.177796302051979"><ele>507.0</ele><time>2026-04-05T14:45:06Z</time></trkpt><trkpt lat="42.461857720657605" lon="-8.177989290470569"><ele>508.0</ele><time>2026-04-05T14:45:07Z</time></trkpt><trkpt lat="42.46174321808482" lon="-8.178188235680778"><ele>508.0</ele><time>2026-04-05T14:45:08Z</time></trkpt><trkpt lat="42.46164550916246" lon="-8.178398707226503"><ele>508.0</ele><time>2026-04-05T14:45:09Z</time></trkpt><trkpt lat="42.461567065096865" lon="-8.178622428591154"><ele>508.0</ele><time>2026-04-05T14:45:10Z</time></trkpt><trkpt lat="42.46152429337296" lon="-8.17885491920913"><ele>505.6666666666667</ele><time>2026-04-05T14:45:11Z</time></trkpt><trkpt lat="42.46147533166936" lon="-8.179087966290972"><ele>503.33333333333337</ele><time>2026-04-05T14:45:12Z</time></trkpt><trkpt lat="42.46145539703592" lon="-8.179329168930124"><ele>501.0</ele><time>2026-04-05T14:45:13Z</time></trkpt><trkpt lat="42.46144548605122" lon="-8.179577177443834"><ele>501.0</ele><time>2026-04-05T14:45:14Z</time></trkpt><trkpt lat="42.46144945117198" lon="-8.179814160233517"><ele>501.0</ele><time>2026-04-05T14:45:15Z</time></trkpt><trkpt lat="42.46147231605666" lon="-8.180056692909465"><ele>501.0</ele><time>2026-04-05T14:45:16Z</time></trkpt><trkpt lat="42.461503863428604" lon="-8.180294979692912"><ele>502.0</ele><time>2026-04-05T14:45:17Z</time></trkpt><trkpt lat="42.461539052074166" lon="-8.180530329139756"><ele>503.0</ele><time>2026-04-05T14:45:18Z</time></trkpt><trkpt lat="42.461585734527354" lon="-8.180764723913942"><ele>504.0</ele><time>2026-04-05T14:45:19Z</time></trkpt><trkpt lat="42.4616409682508" lon="-8.180990906712731"><ele>507.66666666666663</ele><time>2026-04-05T14:45:20Z</time></trkpt><trkpt lat="42.46170091578839" lon="-8.181216263298982"><ele>511.3333333333333</ele><time>2026-04-05T14:45:21Z</time></trkpt><trkpt lat="42.46177292352576" lon="-8.181442970409345"><ele>515.0</ele><time>2026-04-05T14:45:22Z</time></trkpt><trkpt lat="42.46185158101393" lon="-8.181661038519234"><ele>517.6666666666666</ele><time>2026-04-05T14:45:23Z</time></trkpt><trkpt lat="42.46193999391222" lon="-8.181875745354517"><ele>520.3333333333334</ele><time>2026-04-05T14:45:24Z</time></trkpt><trkpt lat="42.46204021186383" lon="-8.182077456697261"><ele>523.0</ele><time>2026-04-05T14:45:25Z</time></trkpt><trkpt lat="42.462158319860826" lon="-8.182267922967867"><ele>526.3333333333334</ele><time>2026-04-05T14:45:26Z</time></trkpt><trkpt lat="42.46227468578919" lon="-8.182449834445762"><ele>529.6666666666666</ele><time>2026-04-05T14:45:27Z</time></trkpt><trkpt lat="42.46239615812191" lon="-8.182637637763342"><ele>533.0</ele><time>2026-04-05T14:45:28Z</time></trkpt><trkpt lat="42.46252287436217" lon="-8.182796656644875"><ele>533.0</ele><time>2026-04-05T14:45:29Z</time></trkpt><trkpt lat="42.46267069790299" lon="-8.182947575877893"><ele>533.0</ele><time>2026-04-05T14:45:30Z</time></trkpt><trkpt lat="42.46281279040164" lon="-8.183094518024522"><ele>533.0</ele><time>2026-04-05T14:45:31Z</time></trkpt><trkpt lat="42.46295856083031" lon="-8.183233057493638"><ele>535.3333333333333</ele><time>2026-04-05T14:45:32Z</time></trkpt><trkpt lat="42.463113157042116" lon="-8.18336136384978"><ele>537.6666666666666</ele><time>2026-04-05T14:45:33Z</time></trkpt><trkpt lat="42.46327441091154" lon="-8.18347611913223"><ele>540.0</ele><time>2026-04-05T14:45:34Z</time></trkpt><trkpt lat="42.46344006416789" lon="-8.183577390904963"><ele>540.0</ele><time>2026-04-05T14:45:35Z</time></trkpt><trkpt lat="42.46361564247611" lon="-8.183661035628914"><ele>540.0</ele><time>2026-04-05T14:45:36Z</time></trkpt><trkpt lat="42.46379005730772" lon="-8.18372745982587"><ele>540.0</ele><time>2026-04-05T14:45:37Z</time></trkpt><trkpt lat="42.46397269497146" lon="-8.183788421994079"><ele>538.3333333333334</ele><time>2026-04-05T14:45:38Z</time></trkpt><trkpt lat="42.464156216429494" lon="-8.183832011256264"><ele>536.6666666666667</ele><time>2026-04-05T14:45:39Z</time></trkpt><trkpt lat="42.46434788907166" lon="-8.183864854956097"><ele>535.0</ele><time>2026-04-05T14:45:40Z</time></trkpt><trkpt lat="42.46453837975943" lon="-8.183894800275713"><ele>532.0</ele><time>2026-04-05T14:45:41Z</time></trkpt><trkpt lat="42.46473605718435" lon="-8.183918135032847"><ele>529.0</ele><time>2026-04-05T14:45:42Z</time></trkpt><trkpt lat="42.46493071817222" lon="-8.183919129352802"><ele>526.0</ele><time>2026-04-05T14:45:43Z</time></trkpt><trkpt lat="42.465129120190284" lon="-8.183909441035711"><ele>526.0</ele><time>2026-04-05T14:45:44Z</time></trkpt><trkpt lat="42.465328345841904" lon="-8.183902069472802"><ele>526.0</ele><time>2026-04-05T14:45:45Z</time></trkpt><trkpt lat="42.4655220403454" lon="-8.183909529971784"><ele>526.0</ele><time>2026-04-05T14:45:46Z</time></trkpt><trkpt lat="42.46571658715913" lon="-8.183921072332279"><ele>526.0</ele><time>2026-04-05T14:45:47Z</time></trkpt><trkpt lat="42.4659246114075" lon="-8.183927055583409"><ele>526.0</ele><time>2026-04-05T14:45:48Z</time></trkpt><trkpt lat="42.46612449028759" lon="-8.183920307126385"><ele>526.0</ele><time>2026-04-05T14:45:49Z</time></trkpt><trkpt lat="42.4663234103804" lon="-8.183926586375275"><ele>526.0</ele><time>2026-04-05T14:45:50Z</time></trkpt><trkpt lat="42.466523623540894" lon="-8.183930912904819"><ele>526.0</ele><time>2026-04-05T14:45:51Z</time></trkpt><trkpt lat="42.46672392249231" lon="-8.183933575377576"><ele>526.0</ele><time>2026-04-05T14:45:52Z</time></trkpt><trkpt lat="42.46692764992894" lon="-8.18393776960137"><ele>529.3333333333334</ele><time>2026-04-05T14:45:53Z</time></trkpt><trkpt lat="42.46712647992668" lon="-8.183938391501288"><ele>532.6666666666666</ele><time>2026-04-05T14:45:54Z</time></trkpt><trkpt lat="42.467324595770876" lon="-8.183941891100893"><ele>536.0</ele><time>2026-04-05T14:45:55Z</time></trkpt><trkpt lat="42.46752339018197" lon="-8.183946880287673"><ele>536.0</ele><time>2026-04-05T14:45:56Z</time></trkpt><trkpt lat="42.467726022827044" lon="-8.183951528703124"><ele>536.0</ele><time>2026-04-05T14:45:57Z</time></trkpt><trkpt lat="42.467928740661385" lon="-8.183960447591366"><ele>536.0</ele><time>2026-04-05T14:45:58Z</time></trkpt><trkpt lat="42.46812658799709" lon="-8.183970498845122"><ele>538.6666666666666</ele><time>2026-04-05T14:45:59Z</time></trkpt><trkpt lat="42.468327808688926" lon="-8.183979663971723"><ele>541.3333333333334</ele><time>2026-04-05T14:46:00Z</time></trkpt><trkpt lat="42.46852026716216" lon="-8.183979567451377"><ele>544.0</ele><time>2026-04-05T14:46:01Z</time></trkpt><trkpt lat="42.46872225372956" lon="-8.183991444944636"><ele>548.3333333333334</ele><time>2026-04-05T14:46:02Z</time></trkpt><trkpt lat="42.468926230879724" lon="-8.184003484867775"><ele>552.6666666666666</ele><time>2026-04-05T14:46:03Z</time></trkpt><trkpt lat="42.46912652261674" lon="-8.184010435664698"><ele>557.0</ele><time>2026-04-05T14:46:04Z</time></trkpt><trkpt lat="42.46932392715732" lon="-8.184012100097556"><ele>559.6666666666666</ele><time>2026-04-05T14:46:05Z</time></trkpt><trkpt lat="42.46952302574206" lon="-8.184015573124247"><ele>562.3333333333334</ele><time>2026-04-05T14:46:06Z</time></trkpt><trkpt lat="42.46972015419712" lon="-8.18400462643625"><ele>565.0</ele><time>2026-04-05T14:46:07Z</time></trkpt><trkpt lat="42.46992037536724" lon="-8.183984591761927"><ele>565.0</ele><time>2026-04-05T14:46:08.001Z</time></trkpt><trkpt lat="42.47011874196736" lon="-8.183964031859379"><ele>565.0</ele><time>2026-04-05T14:46:09.001Z</time></trkpt><trkpt lat="42.470317164669844" lon="-8.183944002544822"><ele>565.0</ele><time>2026-04-05T14:46:10.001Z</time></trkpt><trkpt lat="42.47052063897158" lon="-8.183920176680912"><ele>567.0</ele><time>2026-04-05T14:46:11.001Z</time></trkpt><trkpt lat="42.47071363499645" lon="-8.18390547769126"><ele>569.0</ele><time>2026-04-05T14:46:12.001Z</time></trkpt><trkpt lat="42.470917368002034" lon="-8.183869290614547"><ele>571.0</ele><time>2026-04-05T14:46:13.001Z</time></trkpt><trkpt lat="42.47111732954964" lon="-8.183836125986657"><ele>571.0</ele><time>2026-04-05T14:46:14.001Z</time></trkpt><trkpt lat="42.47131579008921" lon="-8.183791608647091"><ele>571.0</ele><time>2026-04-05T14:46:15Z</time></trkpt><trkpt lat="42.47151341358328" lon="-8.183753709318164"><ele>571.0</ele><time>2026-04-05T14:46:16Z</time></trkpt><trkpt lat="42.47171221415835" lon="-8.183712007068843"><ele>571.0</ele><time>2026-04-05T14:46:17Z</time></trkpt><trkpt lat="42.47191027025975" lon="-8.183661801998863"><ele>571.0</ele><time>2026-04-05T14:46:18Z</time></trkpt><trkpt lat="42.47210987851548" lon="-8.18360722633772"><ele>571.0</ele><time>2026-04-05T14:46:19Z</time></trkpt><trkpt lat="42.47230771163669" lon="-8.183548486922758"><ele>573.3333333333334</ele><time>2026-04-05T14:46:20Z</time></trkpt><trkpt lat="42.47250247321666" lon="-8.18348219100065"><ele>575.6666666666666</ele><time>2026-04-05T14:46:21Z</time></trkpt><trkpt lat="42.472693755575705" lon="-8.183408703827418"><ele>578.0</ele><time>2026-04-05T14:46:22Z</time></trkpt><trkpt lat="42.472888574841505" lon="-8.183343664365282"><ele>578.3333333333333</ele><time>2026-04-05T14:46:23Z</time></trkpt><trkpt lat="42.4730830798495" lon="-8.183286731555885"><ele>578.6666666666666</ele><time>2026-04-05T14:46:24Z</time></trkpt><trkpt lat="42.47327860687054" lon="-8.183224695854783"><ele>579.0</ele><time>2026-04-05T14:46:25Z</time></trkpt><trkpt lat="42.473475132308394" lon="-8.183163455216196"><ele>579.0</ele><time>2026-04-05T14:46:26Z</time></trkpt><trkpt lat="42.47367465857172" lon="-8.183106432035656"><ele>579.0</ele><time>2026-04-05T14:46:27Z</time></trkpt><trkpt lat="42.473876436136834" lon="-8.183053947572034"><ele>579.0</ele><time>2026-04-05T14:46:28Z</time></trkpt><trkpt lat="42.4740751731703" lon="-8.18300448376295"><ele>581.6666666666666</ele><time>2026-04-05T14:46:29Z</time></trkpt><trkpt lat="42.47428004468422" lon="-8.182990000293493"><ele>584.3333333333333</ele><time>2026-04-05T14:46:30Z</time></trkpt><trkpt lat="42.474484204063096" lon="-8.183026961348277"><ele>587.0</ele><time>2026-04-05T14:46:31Z</time></trkpt><trkpt lat="42.47467755732056" lon="-8.18312240277537"><ele>589.3333333333333</ele><time>2026-04-05T14:46:32Z</time></trkpt><trkpt lat="42.47485607495903" lon="-8.183262309586112"><ele>591.6666666666666</ele><time>2026-04-05T14:46:33Z</time></trkpt><trkpt lat="42.47501521254953" lon="-8.183437545879181"><ele>594.0</ele><time>2026-04-05T14:46:34Z</time></trkpt><trkpt lat="42.47515287187479" lon="-8.183646699148422"><ele>594.0</ele><time>2026-04-05T14:46:35Z</time></trkpt><trkpt lat="42.47525453336475" lon="-8.183884764120954"><ele>594.0</ele><time>2026-04-05T14:46:36Z</time></trkpt><trkpt lat="42.47533472928292" lon="-8.184138387082049"><ele>594.0</ele><time>2026-04-05T14:46:37Z</time></trkpt><trkpt lat="42.475384139271256" lon="-8.184404007090333"><ele>599.6666666666666</ele><time>2026-04-05T14:46:38Z</time></trkpt><trkpt lat="42.47540719957066" lon="-8.184676611587786"><ele>605.3333333333333</ele><time>2026-04-05T14:46:39Z</time></trkpt><trkpt lat="42.475416381250575" lon="-8.184947426741797"><ele>611.0</ele><time>2026-04-05T14:46:40Z</time></trkpt><trkpt lat="42.47543570544527" lon="-8.185217181685374"><ele>609.6666666666666</ele><time>2026-04-05T14:46:41Z</time></trkpt><trkpt lat="42.47548826076086" lon="-8.185478087850315"><ele>608.3333333333334</ele><time>2026-04-05T14:46:42Z</time></trkpt><trkpt lat="42.47558323428405" lon="-8.185723448601298"><ele>607.0</ele><time>2026-04-05T14:46:43Z</time></trkpt><trkpt lat="42.47570695242245" lon="-8.185940065911884"><ele>607.0</ele><time>2026-04-05T14:46:44Z</time></trkpt><trkpt lat="42.4758604247114" lon="-8.186115793819777"><ele>607.0</ele><time>2026-04-05T14:46:45Z</time></trkpt><trkpt lat="42.4760327472956" lon="-8.186255895532028"><ele>607.0</ele><time>2026-04-05T14:46:46Z</time></trkpt><trkpt lat="42.476218023071375" lon="-8.186351445741177"><ele>611.3333333333334</ele><time>2026-04-05T14:46:47Z</time></trkpt><trkpt lat="42.47641346622328" lon="-8.186413665591129"><ele>615.6666666666666</ele><time>2026-04-05T14:46:48Z</time></trkpt><trkpt lat="42.47660303454064" lon="-8.18647826142429"><ele>620.0</ele><time>2026-04-05T14:46:49Z</time></trkpt><trkpt lat="42.4767835224129" lon="-8.186577669363015"><ele>620.0</ele><time>2026-04-05T14:46:50Z</time></trkpt><trkpt lat="42.47694924931255" lon="-8.186712929682683"><ele>620.0</ele><time>2026-04-05T14:46:51Z</time></trkpt><trkpt lat="42.47710180168374" lon="-8.186881811819562"><ele>620.0</ele><time>2026-04-05T14:46:52Z</time></trkpt><trkpt lat="42.477236269852035" lon="-8.187068269740795"><ele>622.0</ele><time>2026-04-05T14:46:53Z</time></trkpt><trkpt lat="42.47736530728389" lon="-8.187268238793884"><ele>624.0</ele><time>2026-04-05T14:46:54Z</time></trkpt><trkpt lat="42.477499314171006" lon="-8.187459828221737"><ele>626.0</ele><time>2026-04-05T14:46:55Z</time></trkpt><trkpt lat="42.47764331904687" lon="-8.187642514699354"><ele>626.0</ele><time>2026-04-05T14:46:56Z</time></trkpt><trkpt lat="42.47781632477566" lon="-8.187780745813397"><ele>626.0</ele><time>2026-04-05T14:46:57Z</time></trkpt><trkpt lat="42.47800133386096" lon="-8.18786717438082"><ele>626.0</ele><time>2026-04-05T14:46:58Z</time></trkpt><trkpt lat="42.47820162189929" lon="-8.187889300256625"><ele>625.3333333333333</ele><time>2026-04-05T14:46:59Z</time></trkpt><trkpt lat="42.47840123680761" lon="-8.187871758161934"><ele>624.6666666666666</ele><time>2026-04-05T14:47:00Z</time></trkpt><trkpt lat="42.47859204153468" lon="-8.187840059621477"><ele>624.0</ele><time>2026-04-05T14:47:01Z</time></trkpt><trkpt lat="42.47878454817256" lon="-8.18780268658922"><ele>625.3333333333334</ele><time>2026-04-05T14:47:02Z</time></trkpt><trkpt lat="42.478976644808775" lon="-8.187782346367646"><ele>626.6666666666667</ele><time>2026-04-05T14:47:03Z</time></trkpt><trkpt lat="42.47917096541805" lon="-8.18780435610506"><ele>628.0</ele><time>2026-04-05T14:47:04Z</time></trkpt><trkpt lat="42.47934262953898" lon="-8.1878752523894"><ele>628.0</ele><time>2026-04-05T14:47:05Z</time></trkpt><trkpt lat="42.479501992604455" lon="-8.18798047304435"><ele>628.0</ele><time>2026-04-05T14:47:06Z</time></trkpt><trkpt lat="42.479649128678275" lon="-8.188124808728837"><ele>628.0</ele><time>2026-04-05T14:47:07Z</time></trkpt><trkpt lat="42.47978607924875" lon="-8.188292713151629"><ele>629.6666666666667</ele><time>2026-04-05T14:47:08Z</time></trkpt><trkpt lat="42.47990413600315" lon="-8.188481231567051"><ele>631.3333333333334</ele><time>2026-04-05T14:47:09Z</time></trkpt><trkpt lat="42.480015768419584" lon="-8.188673840256374"><ele>633.0</ele><time>2026-04-05T14:47:10Z</time></trkpt><trkpt lat="42.48012463862865" lon="-8.188869544048938"><ele>636.6666666666666</ele><time>2026-04-05T14:47:11Z</time></trkpt><trkpt lat="42.480235075177866" lon="-8.189065343871366"><ele>640.3333333333333</ele><time>2026-04-05T14:47:12Z</time></trkpt><trkpt lat="42.480343563821776" lon="-8.189265663392156"><ele>644.0</ele><time>2026-04-05T14:47:13Z</time></trkpt><trkpt lat="42.480449435123255" lon="-8.189464694644393"><ele>644.0</ele><time>2026-04-05T14:47:14Z</time></trkpt><trkpt lat="42.48055393260547" lon="-8.18966581649025"><ele>644.0</ele><time>2026-04-05T14:47:15Z</time></trkpt><trkpt lat="42.48065603625221" lon="-8.189867368051614"><ele>644.0</ele><time>2026-04-05T14:47:16Z</time></trkpt><trkpt lat="42.48076684609698" lon="-8.190068147026837"><ele>649.0</ele><time>2026-04-05T14:47:17Z</time></trkpt><trkpt lat="42.48087932443793" lon="-8.190267171155433"><ele>654.0</ele><time>2026-04-05T14:47:18Z</time></trkpt><trkpt lat="42.480987223172995" lon="-8.190468114289407"><ele>659.0</ele><time>2026-04-05T14:47:19Z</time></trkpt><trkpt lat="42.48108945852645" lon="-8.1906691930204"><ele>657.6666666666666</ele><time>2026-04-05T14:47:20Z</time></trkpt><trkpt lat="42.48120106996989" lon="-8.190867643330114"><ele>656.3333333333334</ele><time>2026-04-05T14:47:21Z</time></trkpt><trkpt lat="42.48131272630074" lon="-8.191067102197593"><ele>655.0</ele><time>2026-04-05T14:47:22Z</time></trkpt><trkpt lat="42.48142551007712" lon="-8.191257016162583"><ele>655.0</ele><time>2026-04-05T14:47:23Z</time></trkpt><trkpt lat="42.481542447300335" lon="-8.191445818341263"><ele>655.0</ele><time>2026-04-05T14:47:24Z</time></trkpt><trkpt lat="42.48166592200611" lon="-8.19163338706503"><ele>655.0</ele><time>2026-04-05T14:47:25Z</time></trkpt><trkpt lat="42.481785927989336" lon="-8.191823357619631"><ele>657.3333333333334</ele><time>2026-04-05T14:47:26Z</time></trkpt><trkpt lat="42.48190580717776" lon="-8.192016597201533"><ele>659.6666666666666</ele><time>2026-04-05T14:47:27Z</time></trkpt><trkpt lat="42.482020756611234" lon="-8.19221208986132"><ele>662.0</ele><time>2026-04-05T14:47:28Z</time></trkpt><trkpt lat="42.48214065747017" lon="-8.192406547473846"><ele>662.0</ele><time>2026-04-05T14:47:29Z</time></trkpt><trkpt lat="42.482260289255464" lon="-8.192597845295781"><ele>662.0</ele><time>2026-04-05T14:47:30Z</time></trkpt><trkpt lat="42.48238602114248" lon="-8.192792815171018"><ele>662.0</ele><time>2026-04-05T14:47:31Z</time></trkpt><trkpt lat="42.48250756878414" lon="-8.192983924437964"><ele>665.0</ele><time>2026-04-05T14:47:32Z</time></trkpt><trkpt lat="42.48263146958977" lon="-8.193173756313794"><ele>668.0</ele><time>2026-04-05T14:47:33Z</time></trkpt><trkpt lat="42.482757058912604" lon="-8.193365094262951"><ele>671.0</ele><time>2026-04-05T14:47:34Z</time></trkpt><trkpt lat="42.482884291402435" lon="-8.19355003072879"><ele>673.6666666666666</ele><time>2026-04-05T14:47:35Z</time></trkpt><trkpt lat="42.483009058692694" lon="-8.193740482022738"><ele>676.3333333333334</ele><time>2026-04-05T14:47:36Z</time></trkpt><trkpt lat="42.48314522939762" lon="-8.193934988376164"><ele>679.0</ele><time>2026-04-05T14:47:37Z</time></trkpt><trkpt lat="42.483277813133235" lon="-8.194121500199614"><ele>679.0</ele><time>2026-04-05T14:47:38Z</time></trkpt><trkpt lat="42.48340443709877" lon="-8.194310715984772"><ele>679.0</ele><time>2026-04-05T14:47:39Z</time></trkpt><trkpt lat="42.483534972790096" lon="-8.19450201164812"><ele>679.0</ele><time>2026-04-05T14:47:40Z</time></trkpt><trkpt lat="42.48366377531675" lon="-8.194689360468434"><ele>676.3333333333334</ele><time>2026-04-05T14:47:41Z</time></trkpt><trkpt lat="42.48379419058427" lon="-8.194877848626469"><ele>673.6666666666666</ele><time>2026-04-05T14:47:42Z</time></trkpt><trkpt lat="42.48392607315738" lon="-8.195064761783739"><ele>671.0</ele><time>2026-04-05T14:47:43Z</time></trkpt><trkpt lat="42.48405294619073" lon="-8.195255903363902"><ele>671.0</ele><time>2026-04-05T14:47:44Z</time></trkpt><trkpt lat="42.484166876184474" lon="-8.195455691791029"><ele>671.0</ele><time>2026-04-05T14:47:45Z</time></trkpt><trkpt lat="42.4842574270733" lon="-8.195668733341822"><ele>671.0</ele><time>2026-04-05T14:47:46Z</time></trkpt><trkpt lat="42.48434617161731" lon="-8.195896207097855"><ele>677.3333333333333</ele><time>2026-04-05T14:47:47Z</time></trkpt><trkpt lat="42.48441855234881" lon="-8.19612233612849"><ele>683.6666666666666</ele><time>2026-04-05T14:47:48Z</time></trkpt><trkpt lat="42.484476565553784" lon="-8.19635797603439"><ele>690.0</ele><time>2026-04-05T14:47:49Z</time></trkpt><trkpt lat="42.48452780041173" lon="-8.196593637520927"><ele>693.3333333333334</ele><time>2026-04-05T14:47:50Z</time></trkpt><trkpt lat="42.48456552198671" lon="-8.196833811554766"><ele>696.6666666666667</ele><time>2026-04-05T14:47:51Z</time></trkpt><trkpt lat="42.48459725273672" lon="-8.197071154287856"><ele>700.0</ele><time>2026-04-05T14:47:52Z</time></trkpt><trkpt lat="42.484629867338576" lon="-8.197311076876513"><ele>693.3333333333334</ele><time>2026-04-05T14:47:53Z</time></trkpt><trkpt lat="42.48465469363063" lon="-8.19755135742973"><ele>686.6666666666666</ele><time>2026-04-05T14:47:54Z</time></trkpt><trkpt lat="42.484679371129786" lon="-8.19779167519847"><ele>680.0</ele><time>2026-04-05T14:47:55Z</time></trkpt><trkpt lat="42.48470180779719" lon="-8.198036935643282"><ele>682.3333333333333</ele><time>2026-04-05T14:47:56Z</time></trkpt><trkpt lat="42.48472591603455" lon="-8.198277938190065"><ele>684.6666666666666</ele><time>2026-04-05T14:47:57Z</time></trkpt><trkpt lat="42.484764863336196" lon="-8.198523979733293"><ele>687.0</ele><time>2026-04-05T14:47:58Z</time></trkpt><trkpt lat="42.4848235604258" lon="-8.198758388246771"><ele>687.0</ele><time>2026-04-05T14:47:59Z</time></trkpt><trkpt lat="42.48490329514318" lon="-8.198989930852237"><ele>687.0</ele><time>2026-04-05T14:48:00Z</time></trkpt><trkpt lat="42.484993201458096" lon="-8.199198867376918"><ele>687.0</ele><time>2026-04-05T14:48:01Z</time></trkpt><trkpt lat="42.48509870226416" lon="-8.19940884392147"><ele>690.0</ele><time>2026-04-05T14:48:02Z</time></trkpt><trkpt lat="42.48521259765127" lon="-8.199606598156747"><ele>693.0</ele><time>2026-04-05T14:48:03Z</time></trkpt><trkpt lat="42.48533977520963" lon="-8.199797029296532"><ele>696.0</ele><time>2026-04-05T14:48:04Z</time></trkpt><trkpt lat="42.485458620002426" lon="-8.19998620945646"><ele>696.0</ele><time>2026-04-05T14:48:05Z</time></trkpt><trkpt lat="42.48556535696943" lon="-8.200179628616802"><ele>696.0</ele><time>2026-04-05T14:48:06Z</time></trkpt><trkpt lat="42.48566442199906" lon="-8.200388677374121"><ele>696.0</ele><time>2026-04-05T14:48:07Z</time></trkpt><trkpt lat="42.48574966860659" lon="-8.200607355582507"><ele>700.0</ele><time>2026-04-05T14:48:08Z</time></trkpt><trkpt lat="42.48583212517669" lon="-8.200833545107864"><ele>704.0</ele><time>2026-04-05T14:48:09Z</time></trkpt><trkpt lat="42.485897764788575" lon="-8.201058583693554"><ele>708.0</ele><time>2026-04-05T14:48:10Z</time></trkpt><trkpt lat="42.485957318095465" lon="-8.201299691773185"><ele>710.3333333333334</ele><time>2026-04-05T14:48:11Z</time></trkpt><trkpt lat="42.48600147384755" lon="-8.201541174075416"><ele>712.6666666666667</ele><time>2026-04-05T14:48:12Z</time></trkpt><trkpt lat="42.486035443166344" lon="-8.201779432859382"><ele>715.0</ele><time>2026-04-05T14:48:13Z</time></trkpt><trkpt lat="42.486056443146474" lon="-8.202026749987404"><ele>715.0</ele><time>2026-04-05T14:48:14Z</time></trkpt><trkpt lat="42.48607115250779" lon="-8.202275259164605"><ele>715.0</ele><time>2026-04-05T14:48:15Z</time></trkpt><trkpt lat="42.486080921272745" lon="-8.202516543362119"><ele>715.0</ele><time>2026-04-05T14:48:16Z</time></trkpt><trkpt lat="42.48607102899035" lon="-8.202767615663118"><ele>717.3333333333334</ele><time>2026-04-05T14:48:17Z</time></trkpt><trkpt lat="42.48605283109647" lon="-8.203015049031105"><ele>719.6666666666666</ele><time>2026-04-05T14:48:18Z</time></trkpt><trkpt lat="42.48603650672483" lon="-8.203268615327179"><ele>722.0</ele><time>2026-04-05T14:48:19Z</time></trkpt><trkpt lat="42.48602214775946" lon="-8.20351564964469"><ele>722.6666666666666</ele><time>2026-04-05T14:48:20Z</time></trkpt><trkpt lat="42.4860052720838" lon="-8.203763280153236"><ele>723.3333333333334</ele><time>2026-04-05T14:48:21Z</time></trkpt><trkpt lat="42.48600449832394" lon="-8.204012775614903"><ele>724.0</ele><time>2026-04-05T14:48:22Z</time></trkpt><trkpt lat="42.4860131004091" lon="-8.204262914139449"><ele>724.3333333333334</ele><time>2026-04-05T14:48:23Z</time></trkpt><trkpt lat="42.48603007863297" lon="-8.204508094992224"><ele>724.6666666666666</ele><time>2026-04-05T14:48:24Z</time></trkpt><trkpt lat="42.486051811737475" lon="-8.204755097634047"><ele>725.0</ele><time>2026-04-05T14:48:25Z</time></trkpt><trkpt lat="42.486090878124855" lon="-8.20500437050416"><ele>725.6666666666666</ele><time>2026-04-05T14:48:26Z</time></trkpt><trkpt lat="42.48614334346454" lon="-8.205242766426885"><ele>726.3333333333334</ele><time>2026-04-05T14:48:27Z</time></trkpt><trkpt lat="42.486207018616895" lon="-8.205478232843806"><ele>727.0</ele><time>2026-04-05T14:48:28Z</time></trkpt><trkpt lat="42.486310113419385" lon="-8.205685601449888"><ele>727.0</ele><time>2026-04-05T14:48:29Z</time></trkpt><trkpt lat="42.486401831568266" lon="-8.205901381097707"><ele>727.0</ele><time>2026-04-05T14:48:30Z</time></trkpt><trkpt lat="42.48652454290046" lon="-8.206087965219972"><ele>727.0</ele><time>2026-04-05T14:48:31Z</time></trkpt><trkpt lat="42.48664240986827" lon="-8.206277852403995"><ele>727.0</ele><time>2026-04-05T14:48:32Z</time></trkpt><trkpt lat="42.486757315831916" lon="-8.206473908345288"><ele>727.0</ele><time>2026-04-05T14:48:33Z</time></trkpt><trkpt lat="42.486863987333855" lon="-8.206672055842898"><ele>727.0</ele><time>2026-04-05T14:48:34Z</time></trkpt><trkpt lat="42.48696477354725" lon="-8.206880253294479"><ele>725.6666666666667</ele><time>2026-04-05T14:48:35Z</time></trkpt><trkpt lat="42.48705661207105" lon="-8.207093812152923"><ele>724.3333333333334</ele><time>2026-04-05T14:48:36Z</time></trkpt><trkpt lat="42.487142156596626" lon="-8.207314897500876"><ele>723.0</ele><time>2026-04-05T14:48:37Z</time></trkpt><trkpt lat="42.48721563272249" lon="-8.207543981230968"><ele>727.3333333333334</ele><time>2026-04-05T14:48:38Z</time></trkpt><trkpt lat="42.4872744923197" lon="-8.207781679359396"><ele>731.6666666666667</ele><time>2026-04-05T14:48:39Z</time></trkpt><trkpt lat="42.48732324627568" lon="-8.20802378170526"><ele>736.0</ele><time>2026-04-05T14:48:40Z</time></trkpt><trkpt lat="42.48735860107996" lon="-8.20826548278241"><ele>738.5</ele><time>2026-04-05T14:48:41Z</time></trkpt><trkpt lat="42.48737924295984" lon="-8.208513892336518"><ele>741.0</ele><time>2026-04-05T14:48:42Z</time></trkpt><trkpt lat="42.487393188721164" lon="-8.209018368223447"><ele>742.0</ele><time>2026-04-05T14:48:44Z</time></trkpt><trkpt lat="42.487390697960755" lon="-8.209262450347097"><ele>743.0</ele><time>2026-04-05T14:48:45Z</time></trkpt><trkpt lat="42.48737057345379" lon="-8.209509653605933"><ele>744.0</ele><time>2026-04-05T14:48:46Z</time></trkpt><trkpt lat="42.48733410747946" lon="-8.20977867951692"><ele>745.6666666666666</ele><time>2026-04-05T14:48:47Z</time></trkpt><trkpt lat="42.487301692454956" lon="-8.210030118807879"><ele>747.3333333333333</ele><time>2026-04-05T14:48:48Z</time></trkpt><trkpt lat="42.487274609913385" lon="-8.210280926960078"><ele>749.0</ele><time>2026-04-05T14:48:49Z</time></trkpt><trkpt lat="42.48725002879281" lon="-8.210526793601309"><ele>749.3333333333333</ele><time>2026-04-05T14:48:50Z</time></trkpt><trkpt lat="42.48722341528562" lon="-8.210768200841454"><ele>749.6666666666666</ele><time>2026-04-05T14:48:51Z</time></trkpt><trkpt lat="42.487215944780914" lon="-8.211015661645458"><ele>750.0</ele><time>2026-04-05T14:48:52Z</time></trkpt><trkpt lat="42.48723460474281" lon="-8.211263156402927"><ele>750.6666666666666</ele><time>2026-04-05T14:48:53Z</time></trkpt><trkpt lat="42.48727981304409" lon="-8.21151148036424"><ele>751.3333333333333</ele><time>2026-04-05T14:48:54Z</time></trkpt><trkpt lat="42.48734075675574" lon="-8.211757040240196"><ele>752.0</ele><time>2026-04-05T14:48:55Z</time></trkpt><trkpt lat="42.4874086959701" lon="-8.211995174143695"><ele>752.0</ele><time>2026-04-05T14:48:56Z</time></trkpt><trkpt lat="42.48749039631675" lon="-8.212219483616138"><ele>752.0</ele><time>2026-04-05T14:48:57Z</time></trkpt><trkpt lat="42.48759429607081" lon="-8.212436011961428"><ele>752.0</ele><time>2026-04-05T14:48:58Z</time></trkpt><trkpt lat="42.4877224543767" lon="-8.21263586199524"><ele>751.0</ele><time>2026-04-05T14:48:59Z</time></trkpt><trkpt lat="42.48786709624069" lon="-8.212812246446763"><ele>750.0</ele><time>2026-04-05T14:49:00Z</time></trkpt><trkpt lat="42.48802227634139" lon="-8.212963214016073"><ele>749.0</ele><time>2026-04-05T14:49:01Z</time></trkpt><trkpt lat="42.488178724904635" lon="-8.21311531413773"><ele>755.3333333333333</ele><time>2026-04-05T14:49:02Z</time></trkpt><trkpt lat="42.488330058700654" lon="-8.213274721991546"><ele>761.6666666666666</ele><time>2026-04-05T14:49:03Z</time></trkpt><trkpt lat="42.48847608295674" lon="-8.213430506207724"><ele>768.0</ele><time>2026-04-05T14:49:04Z</time></trkpt><trkpt lat="42.488628235851586" lon="-8.213582655627919"><ele>770.6666666666667</ele><time>2026-04-05T14:49:05Z</time></trkpt><trkpt lat="42.48878037552659" lon="-8.213739303497254"><ele>773.3333333333334</ele><time>2026-04-05T14:49:06Z</time></trkpt><trkpt lat="42.488933077154556" lon="-8.213891644644798"><ele>776.0</ele><time>2026-04-05T14:49:07Z</time></trkpt><trkpt lat="42.48908125291085" lon="-8.214038861057869"><ele>776.0</ele><time>2026-04-05T14:49:08Z</time></trkpt><trkpt lat="42.48924430643278" lon="-8.214185317930271"><ele>776.0</ele><time>2026-04-05T14:49:09Z</time></trkpt><trkpt lat="42.4894142623007" lon="-8.214292684639892"><ele>776.0</ele><time>2026-04-05T14:49:10Z</time></trkpt><trkpt lat="42.489594506005574" lon="-8.214373845535544"><ele>775.3333333333334</ele><time>2026-04-05T14:49:11Z</time></trkpt><trkpt lat="42.48978115374889" lon="-8.214429371429846"><ele>774.6666666666667</ele><time>2026-04-05T14:49:12Z</time></trkpt><trkpt lat="42.48996864004392" lon="-8.214458514174604"><ele>774.0</ele><time>2026-04-05T14:49:13Z</time></trkpt><trkpt lat="42.49015584201472" lon="-8.21447100618868"><ele>774.0</ele><time>2026-04-05T14:49:14Z</time></trkpt><trkpt lat="42.49034325863693" lon="-8.214486520281694"><ele>774.0</ele><time>2026-04-05T14:49:15Z</time></trkpt><trkpt lat="42.49052984822957" lon="-8.214520388415009"><ele>774.0</ele><time>2026-04-05T14:49:16Z</time></trkpt><trkpt lat="42.4907145404157" lon="-8.214582602303821"><ele>776.6666666666667</ele><time>2026-04-05T14:49:17Z</time></trkpt><trkpt lat="42.490889827232735" lon="-8.214682101898658"><ele>779.3333333333334</ele><time>2026-04-05T14:49:18Z</time></trkpt><trkpt lat="42.49105159581483" lon="-8.214826186624771"><ele>782.0</ele><time>2026-04-05T14:49:19Z</time></trkpt><trkpt lat="42.49119199127392" lon="-8.21500368214831"><ele>781.6666666666667</ele><time>2026-04-05T14:49:20Z</time></trkpt><trkpt lat="42.491314468030986" lon="-8.215206838275819"><ele>781.3333333333333</ele><time>2026-04-05T14:49:21Z</time></trkpt><trkpt lat="42.4914147126089" lon="-8.215426490931614"><ele>781.0</ele><time>2026-04-05T14:49:22Z</time></trkpt><trkpt lat="42.49147928095562" lon="-8.215673251000931"><ele>781.0</ele><time>2026-04-05T14:49:23Z</time></trkpt><trkpt lat="42.49151533259064" lon="-8.215923496472342"><ele>781.0</ele><time>2026-04-05T14:49:24Z</time></trkpt><trkpt lat="42.49151953159315" lon="-8.216175287092614"><ele>781.0</ele><time>2026-04-05T14:49:25Z</time></trkpt><trkpt lat="42.491502520001696" lon="-8.216430447327767"><ele>781.0</ele><time>2026-04-05T14:49:26Z</time></trkpt><trkpt lat="42.49146874718854" lon="-8.21668629424567"><ele>781.0</ele><time>2026-04-05T14:49:27Z</time></trkpt><trkpt lat="42.491442169516546" lon="-8.21693177978078"><ele>781.0</ele><time>2026-04-05T14:49:28Z</time></trkpt><trkpt lat="42.49142401392232" lon="-8.217182100361747"><ele>782.0</ele><time>2026-04-05T14:49:29Z</time></trkpt><trkpt lat="42.49143616932754" lon="-8.217432747602361"><ele>783.0</ele><time>2026-04-05T14:49:30Z</time></trkpt><trkpt lat="42.49148074811051" lon="-8.217687636963873"><ele>784.0</ele><time>2026-04-05T14:49:31Z</time></trkpt><trkpt lat="42.491563987965655" lon="-8.217918661953842"><ele>784.0</ele><time>2026-04-05T14:49:32Z</time></trkpt><trkpt lat="42.491657049877084" lon="-8.218146305108744"><ele>784.0</ele><time>2026-04-05T14:49:33Z</time></trkpt><trkpt lat="42.491768153178704" lon="-8.218357415285686"><ele>784.0</ele><time>2026-04-05T14:49:34Z</time></trkpt><trkpt lat="42.49184693176821" lon="-8.218557006298179"><ele>780.3333333333333</ele><time>2026-04-05T14:49:35Z</time></trkpt><trkpt lat="42.491935047386946" lon="-8.218790045094968"><ele>776.6666666666667</ele><time>2026-04-05T14:49:36Z</time></trkpt><trkpt lat="42.49203859793539" lon="-8.219032429981443"><ele>773.0</ele><time>2026-04-05T14:49:37Z</time></trkpt><trkpt lat="42.49212911035467" lon="-8.219266810941413"><ele>773.0</ele><time>2026-04-05T14:49:38Z</time></trkpt><trkpt lat="42.49221343004625" lon="-8.219505361744421"><ele>773.0</ele><time>2026-04-05T14:49:39Z</time></trkpt><trkpt lat="42.49229171145554" lon="-8.219754119368577"><ele>773.0</ele><time>2026-04-05T14:49:40Z</time></trkpt><trkpt lat="42.49236916528975" lon="-8.22000090642137"><ele>778.3333333333334</ele><time>2026-04-05T14:49:41Z</time></trkpt><trkpt lat="42.49244438553676" lon="-8.220246944200744"><ele>783.6666666666667</ele><time>2026-04-05T14:49:42Z</time></trkpt><trkpt lat="42.49251859714612" lon="-8.220501942329335"><ele>789.0</ele><time>2026-04-05T14:49:43Z</time></trkpt><trkpt lat="42.49258953876461" lon="-8.220753906224905"><ele>794.0</ele><time>2026-04-05T14:49:44Z</time></trkpt><trkpt lat="42.49266195006237" lon="-8.221008657870362"><ele>799.0</ele><time>2026-04-05T14:49:45Z</time></trkpt><trkpt lat="42.49272811388599" lon="-8.221258888240682"><ele>804.0</ele><time>2026-04-05T14:49:46Z</time></trkpt><trkpt lat="42.49277681566432" lon="-8.221521976415433"><ele>806.6666666666667</ele><time>2026-04-05T14:49:47Z</time></trkpt><trkpt lat="42.492801362916325" lon="-8.221785669715548"><ele>809.3333333333334</ele><time>2026-04-05T14:49:48Z</time></trkpt><trkpt lat="42.492811406724435" lon="-8.222054843132668"><ele>812.0</ele><time>2026-04-05T14:49:49Z</time></trkpt><trkpt lat="42.49281656282106" lon="-8.222322472097629"><ele>813.0</ele><time>2026-04-05T14:49:50Z</time></trkpt><trkpt lat="42.492811870504504" lon="-8.222589674008193"><ele>814.0</ele><time>2026-04-05T14:49:51Z</time></trkpt><trkpt lat="42.49280703583527" lon="-8.222863505809235"><ele>815.0</ele><time>2026-04-05T14:49:52Z</time></trkpt><trkpt lat="42.492810256367555" lon="-8.223132743131078"><ele>816.6666666666667</ele><time>2026-04-05T14:49:53Z</time></trkpt><trkpt lat="42.49282083294027" lon="-8.223405706491915"><ele>818.3333333333333</ele><time>2026-04-05T14:49:54Z</time></trkpt><trkpt lat="42.49284642180083" lon="-8.22367589409518"><ele>820.0</ele><time>2026-04-05T14:49:55Z</time></trkpt><trkpt lat="42.49289098802308" lon="-8.223943023678936"><ele>820.6666666666666</ele><time>2026-04-05T14:49:56Z</time></trkpt><trkpt lat="42.49295695150754" lon="-8.224202094579278"><ele>821.3333333333333</ele><time>2026-04-05T14:49:57Z</time></trkpt><trkpt lat="42.49303836574031" lon="-8.224457022444222"><ele>822.0</ele><time>2026-04-05T14:49:58Z</time></trkpt><trkpt lat="42.49313227276345" lon="-8.224697731047977"><ele>821.3333333333333</ele><time>2026-04-05T14:49:59Z</time></trkpt><trkpt lat="42.49324868642137" lon="-8.224927777257244"><ele>820.6666666666666</ele><time>2026-04-05T14:50:00Z</time></trkpt><trkpt lat="42.49338256478144" lon="-8.225142645456136"><ele>820.0</ele><time>2026-04-05T14:50:01Z</time></trkpt><trkpt lat="42.493525809426664" lon="-8.225339929631058"><ele>820.0</ele><time>2026-04-05T14:50:02Z</time></trkpt><trkpt lat="42.4936830888061" lon="-8.22552978965952"><ele>820.0</ele><time>2026-04-05T14:50:03Z</time></trkpt><trkpt lat="42.493845047460354" lon="-8.225712563703814"><ele>820.0</ele><time>2026-04-05T14:50:04Z</time></trkpt><trkpt lat="42.49401787054977" lon="-8.225892998893741"><ele>818.3333333333333</ele><time>2026-04-05T14:50:05Z</time></trkpt><trkpt lat="42.494192888060496" lon="-8.226061847052188"><ele>816.6666666666667</ele><time>2026-04-05T14:50:06Z</time></trkpt><trkpt lat="42.4943745904307" lon="-8.226234039465622"><ele>815.0</ele><time>2026-04-05T14:50:07Z</time></trkpt><trkpt lat="42.494554163275055" lon="-8.226412328597377"><ele>810.0</ele><time>2026-04-05T14:50:08Z</time></trkpt><trkpt lat="42.49473318565544" lon="-8.226593293174794"><ele>805.0</ele><time>2026-04-05T14:50:09Z</time></trkpt><trkpt lat="42.494911981778664" lon="-8.22678689169478"><ele>805.0</ele><time>2026-04-05T14:50:10Z</time></trkpt><trkpt lat="42.495089476791975" lon="-8.226998161769814"><ele>805.0</ele><time>2026-04-05T14:50:11Z</time></trkpt><trkpt lat="42.49524702126623" lon="-8.22722791668994"><ele>806.5</ele><time>2026-04-05T14:50:12Z</time></trkpt><trkpt lat="42.49538359599984" lon="-8.227474339998043"><ele>808.0</ele><time>2026-04-05T14:50:13Z</time></trkpt><trkpt lat="42.49550845903819" lon="-8.227738176089145"><ele>804.5</ele><time>2026-04-05T14:50:14Z</time></trkpt><trkpt lat="42.49561699973624" lon="-8.228021634756082"><ele>801.0</ele><time>2026-04-05T14:50:15Z</time></trkpt><trkpt lat="42.495707251374775" lon="-8.228329395946526"><ele>801.0</ele><time>2026-04-05T14:50:16Z</time></trkpt><trkpt lat="42.49577545335298" lon="-8.228643189844144"><ele>801.0</ele><time>2026-04-05T14:50:17Z</time></trkpt><trkpt lat="42.49583073772416" lon="-8.228966536720097"><ele>799.0</ele><time>2026-04-05T14:50:18Z</time></trkpt><trkpt lat="42.495872381915255" lon="-8.229297465812778"><ele>797.0</ele><time>2026-04-05T14:50:19Z</time></trkpt><trkpt lat="42.495902445669984" lon="-8.229624970427222"><ele>794.0</ele><time>2026-04-05T14:50:20Z</time></trkpt><trkpt lat="42.49593381026236" lon="-8.229955300855792"><ele>791.0</ele><time>2026-04-05T14:50:21Z</time></trkpt><trkpt lat="42.49597181366588" lon="-8.230295478688177"><ele>791.0</ele><time>2026-04-05T14:50:22Z</time></trkpt><trkpt lat="42.496007572059916" lon="-8.230630416816387"><ele>791.0</ele><time>2026-04-05T14:50:23Z</time></trkpt><trkpt lat="42.496041957408565" lon="-8.230966970406877"><ele>789.5</ele><time>2026-04-05T14:50:24Z</time></trkpt><trkpt lat="42.49607916936253" lon="-8.231298471704472"><ele>788.0</ele><time>2026-04-05T14:50:25Z</time></trkpt><trkpt lat="42.496117734840055" lon="-8.231622182086252"><ele>786.0</ele><time>2026-04-05T14:50:26Z</time></trkpt><trkpt lat="42.49615309559894" lon="-8.231946137159738"><ele>784.0</ele><time>2026-04-05T14:50:27Z</time></trkpt><trkpt lat="42.496189607732745" lon="-8.232266813990492"><ele>784.5</ele><time>2026-04-05T14:50:28Z</time></trkpt><trkpt lat="42.496237964169836" lon="-8.232570900805051"><ele>785.0</ele><time>2026-04-05T14:50:29Z</time></trkpt><trkpt lat="42.49630779766374" lon="-8.232869608808628"><ele>788.0</ele><time>2026-04-05T14:50:30Z</time></trkpt><trkpt lat="42.49641043464305" lon="-8.2331439772565"><ele>791.0</ele><time>2026-04-05T14:50:31Z</time></trkpt><trkpt lat="42.49655084482415" lon="-8.233390271388812"><ele>791.0</ele><time>2026-04-05T14:50:32Z</time></trkpt><trkpt lat="42.4967219519989" lon="-8.233601642338531"><ele>791.0</ele><time>2026-04-05T14:50:33Z</time></trkpt><trkpt lat="42.496903655786596" lon="-8.233798012221744"><ele>792.0</ele><time>2026-04-05T14:50:34Z</time></trkpt><trkpt lat="42.49708453544243" lon="-8.233995834654795"><ele>793.0</ele><time>2026-04-05T14:50:35Z</time></trkpt><trkpt lat="42.49726281958352" lon="-8.23419903760916"><ele>793.0</ele><time>2026-04-05T14:50:36Z</time></trkpt><trkpt lat="42.49744194310582" lon="-8.234410266333573"><ele>793.0</ele><time>2026-04-05T14:50:37Z</time></trkpt><trkpt lat="42.49761879343612" lon="-8.23462419005185"><ele>794.0</ele><time>2026-04-05T14:50:38Z</time></trkpt><trkpt lat="42.497795288211925" lon="-8.234838483620889"><ele>795.0</ele><time>2026-04-05T14:50:39Z</time></trkpt><trkpt lat="42.49797317358324" lon="-8.235050218611724"><ele>795.0</ele><time>2026-04-05T14:50:40Z</time></trkpt><trkpt lat="42.49815156628615" lon="-8.235258593938402"><ele>795.0</ele><time>2026-04-05T14:50:41Z</time></trkpt><trkpt lat="42.498329573904336" lon="-8.235465256309887"><ele>789.5</ele><time>2026-04-05T14:50:42Z</time></trkpt><trkpt lat="42.498506262439776" lon="-8.235668029208949"><ele>784.0</ele><time>2026-04-05T14:50:43Z</time></trkpt><trkpt lat="42.49868284765151" lon="-8.235851859293208"><ele>788.0</ele><time>2026-04-05T14:50:44Z</time></trkpt><trkpt lat="42.49888210980602" lon="-8.235996429274017"><ele>792.0</ele><time>2026-04-05T14:50:45Z</time></trkpt><trkpt lat="42.49910457106136" lon="-8.236064153599477"><ele>792.0</ele><time>2026-04-05T14:50:46Z</time></trkpt><trkpt lat="42.499319974588445" lon="-8.236150049092023"><ele>792.0</ele><time>2026-04-05T14:50:47Z</time></trkpt><trkpt lat="42.499526586970894" lon="-8.236203027179908"><ele>792.0</ele><time>2026-04-05T14:50:48Z</time></trkpt><trkpt lat="42.49971469592028" lon="-8.236284983564804"><ele>792.6666666666667</ele><time>2026-04-05T14:50:49Z</time></trkpt><trkpt lat="42.49989258955495" lon="-8.236412629757487"><ele>793.3333333333334</ele><time>2026-04-05T14:50:50Z</time></trkpt><trkpt lat="42.50007745008724" lon="-8.236513087449879"><ele>794.0</ele><time>2026-04-05T14:50:51Z</time></trkpt><trkpt lat="42.50025157216005" lon="-8.236624564982677"><ele>795.0</ele><time>2026-04-05T14:50:52Z</time></trkpt><trkpt lat="42.50031523941526" lon="-8.237054947151082"><ele>796.0</ele><time>2026-04-05T14:50:53Z</time></trkpt><trkpt lat="42.50042934625055" lon="-8.237297767914356"><ele>794.0</ele><time>2026-04-05T14:50:54Z</time></trkpt><trkpt lat="42.500544908668104" lon="-8.23753856662518"><ele>792.0</ele><time>2026-04-05T14:50:55Z</time></trkpt><trkpt lat="42.50067003320461" lon="-8.237775303706119"><ele>790.0</ele><time>2026-04-05T14:50:56Z</time></trkpt><trkpt lat="42.50079562825839" lon="-8.238008261292588"><ele>789.0</ele><time>2026-04-05T14:50:57Z</time></trkpt><trkpt lat="42.50092193649262" lon="-8.238241333906261"><ele>788.0</ele><time>2026-04-05T14:50:58Z</time></trkpt><trkpt lat="42.501051460209354" lon="-8.238468575117166"><ele>787.0</ele><time>2026-04-05T14:50:59Z</time></trkpt><trkpt lat="42.50118959717006" lon="-8.238699565813315"><ele>788.0</ele><time>2026-04-05T14:51:00Z</time></trkpt><trkpt lat="42.50133675056575" lon="-8.238905124829943"><ele>789.0</ele><time>2026-04-05T14:51:01Z</time></trkpt><trkpt lat="42.50149937733171" lon="-8.23907076311254"><ele>790.0</ele><time>2026-04-05T14:51:02Z</time></trkpt><trkpt lat="42.50168071871799" lon="-8.239181749602896"><ele>790.0</ele><time>2026-04-05T14:51:03Z</time></trkpt><trkpt lat="42.50187122344882" lon="-8.239239343259687"><ele>790.0</ele><time>2026-04-05T14:51:04Z</time></trkpt><trkpt lat="42.502071217463545" lon="-8.239270391819261"><ele>790.0</ele><time>2026-04-05T14:51:05Z</time></trkpt><trkpt lat="42.50227056535912" lon="-8.239287182556154"><ele>792.0</ele><time>2026-04-05T14:51:06Z</time></trkpt><trkpt lat="42.50246718175304" lon="-8.239327168907192"><ele>794.0</ele><time>2026-04-05T14:51:07Z</time></trkpt><trkpt lat="42.50265344171693" lon="-8.239407756226802"><ele>796.0</ele><time>2026-04-05T14:51:08Z</time></trkpt><trkpt lat="42.50280888617973" lon="-8.239530098558843"><ele>796.0</ele><time>2026-04-05T14:51:09Z</time></trkpt><trkpt lat="42.50292539131843" lon="-8.23969312335206"><ele>796.0</ele><time>2026-04-05T14:51:10Z</time></trkpt><trkpt lat="42.5030103395347" lon="-8.239885323743017"><ele>796.0</ele><time>2026-04-05T14:51:11Z</time></trkpt><trkpt lat="42.50306349097624" lon="-8.240099004250894"><ele>796.6666666666666</ele><time>2026-04-05T14:51:12Z</time></trkpt><trkpt lat="42.50310028070089" lon="-8.24032700067812"><ele>797.3333333333333</ele><time>2026-04-05T14:51:13Z</time></trkpt><trkpt lat="42.503130226217515" lon="-8.240552698382071"><ele>798.0</ele><time>2026-04-05T14:51:14Z</time></trkpt><trkpt lat="42.50317064641098" lon="-8.240782265812005"><ele>798.6666666666667</ele><time>2026-04-05T14:51:15Z</time></trkpt><trkpt lat="42.503241495177" lon="-8.240994240361765"><ele>799.3333333333334</ele><time>2026-04-05T14:51:16Z</time></trkpt><trkpt lat="42.50335179819478" lon="-8.241178271705659"><ele>800.0</ele><time>2026-04-05T14:51:17Z</time></trkpt><trkpt lat="42.50347928801528" lon="-8.241321362066374"><ele>800.0</ele><time>2026-04-05T14:51:18Z</time></trkpt><trkpt lat="42.50359580120741" lon="-8.241446327014337"><ele>800.0</ele><time>2026-04-05T14:51:19Z</time></trkpt><trkpt lat="42.50369928275787" lon="-8.241559409273064"><ele>800.0</ele><time>2026-04-05T14:51:20Z</time></trkpt><trkpt lat="42.5037926235464" lon="-8.241673202679632"><ele>800.0</ele><time>2026-04-05T14:51:21Z</time></trkpt><trkpt lat="42.50387986708779" lon="-8.241790097667128"><ele>799.6</ele><time>2026-04-05T14:51:22Z</time></trkpt><trkpt lat="42.50395256394826" lon="-8.241901089107037"><ele>799.2</ele><time>2026-04-05T14:51:23Z</time></trkpt><trkpt lat="42.50402562644563" lon="-8.242009796433516"><ele>798.8</ele><time>2026-04-05T14:51:24Z</time></trkpt><trkpt lat="42.504096932008935" lon="-8.242106490761765"><ele>798.4</ele><time>2026-04-05T14:51:25Z</time></trkpt><trkpt lat="42.504172755955175" lon="-8.242201653281338"><ele>798.0</ele><time>2026-04-05T14:51:26Z</time></trkpt><trkpt lat="42.50425367456132" lon="-8.242305012405366"><ele>798.0</ele><time>2026-04-05T14:51:27Z</time></trkpt><trkpt lat="42.504338392147694" lon="-8.24242032379574"><ele>798.0</ele><time>2026-04-05T14:51:28Z</time></trkpt><trkpt lat="42.50442788544027" lon="-8.242544256264273"><ele>798.0</ele><time>2026-04-05T14:51:29Z</time></trkpt><trkpt lat="42.50452419061676" lon="-8.242661042113097"><ele>798.0</ele><time>2026-04-05T14:51:30Z</time></trkpt><trkpt lat="42.504626514820906" lon="-8.24277404159631"><ele>798.25</ele><time>2026-04-05T14:51:31Z</time></trkpt><trkpt lat="42.5047245011991" lon="-8.24287348100688"><ele>798.5</ele><time>2026-04-05T14:51:32Z</time></trkpt><trkpt lat="42.50482163919784" lon="-8.242969418202698"><ele>798.75</ele><time>2026-04-05T14:51:33Z</time></trkpt><trkpt lat="42.50492475171188" lon="-8.24306742655997"><ele>799.0</ele><time>2026-04-05T14:51:34Z</time></trkpt><trkpt lat="42.5050344659735" lon="-8.243172567345713"><ele>799.0</ele><time>2026-04-05T14:51:35Z</time></trkpt><trkpt lat="42.505145311840884" lon="-8.243288903765018"><ele>799.0</ele><time>2026-04-05T14:51:36Z</time></trkpt><trkpt lat="42.505250361297875" lon="-8.24340081998219"><ele>799.0</ele><time>2026-04-05T14:51:37Z</time></trkpt><trkpt lat="42.50534544074334" lon="-8.243501556068852"><ele>799.0</ele><time>2026-04-05T14:51:38Z</time></trkpt><trkpt lat="42.50544142115434" lon="-8.243603521228255"><ele>800.5</ele><time>2026-04-05T14:51:39Z</time></trkpt><trkpt lat="42.505531206199805" lon="-8.243725712214323"><ele>802.0</ele><time>2026-04-05T14:51:40Z</time></trkpt><trkpt lat="42.50560970483017" lon="-8.243872279841442"><ele>803.5</ele><time>2026-04-05T14:51:41Z</time></trkpt><trkpt lat="42.50567230973564" lon="-8.244022513113615"><ele>805.0</ele><time>2026-04-05T14:51:42Z</time></trkpt><trkpt lat="42.50572132358229" lon="-8.244185425802968"><ele>805.5</ele><time>2026-04-05T14:51:43Z</time></trkpt><trkpt lat="42.50576261390107" lon="-8.244354850957693"><ele>806.0</ele><time>2026-04-05T14:51:44Z</time></trkpt><trkpt lat="42.50578679343053" lon="-8.244539603715742"><ele>806.5</ele><time>2026-04-05T14:51:45Z</time></trkpt><trkpt lat="42.505792615116796" lon="-8.244727281756907"><ele>807.0</ele><time>2026-04-05T14:51:46Z</time></trkpt><trkpt lat="42.50577702719604" lon="-8.244916921331114"><ele>808.0</ele><time>2026-04-05T14:51:47Z</time></trkpt><trkpt lat="42.505751189089274" lon="-8.245101503092805"><ele>809.0</ele><time>2026-04-05T14:51:48Z</time></trkpt><trkpt lat="42.50571289739422" lon="-8.245282061349977"><ele>810.0</ele><time>2026-04-05T14:51:49Z</time></trkpt><trkpt lat="42.50566948581374" lon="-8.245468052586704"><ele>811.0</ele><time>2026-04-05T14:51:50Z</time></trkpt><trkpt lat="42.5056259946525" lon="-8.245653316355936"><ele>811.75</ele><time>2026-04-05T14:51:51Z</time></trkpt><trkpt lat="42.50557870816849" lon="-8.24584636758369"><ele>812.5</ele><time>2026-04-05T14:51:52Z</time></trkpt><trkpt lat="42.50553194395068" lon="-8.246030312376929"><ele>813.25</ele><time>2026-04-05T14:51:53Z</time></trkpt><trkpt lat="42.505481574129746" lon="-8.24620829619754"><ele>814.0</ele><time>2026-04-05T14:51:54Z</time></trkpt><trkpt lat="42.50542387774996" lon="-8.246398182152207"><ele>814.3333333333333</ele><time>2026-04-05T14:51:55Z</time></trkpt><trkpt lat="42.50536672438364" lon="-8.24658691502247"><ele>814.6666666666667</ele><time>2026-04-05T14:51:56Z</time></trkpt><trkpt lat="42.50531196392627" lon="-8.246777111471165"><ele>815.0</ele><time>2026-04-05T14:51:57Z</time></trkpt><trkpt lat="42.50525225145534" lon="-8.246974219186496"><ele>815.0</ele><time>2026-04-05T14:51:58Z</time></trkpt><trkpt lat="42.50519307800084" lon="-8.247159742508137"><ele>815.0</ele><time>2026-04-05T14:51:59Z</time></trkpt><trkpt lat="42.50513209370661" lon="-8.247336281134038"><ele>815.0</ele><time>2026-04-05T14:52:00Z</time></trkpt><trkpt lat="42.505071540849436" lon="-8.247515048012163"><ele>815.0</ele><time>2026-04-05T14:52:01Z</time></trkpt><trkpt lat="42.50500776524376" lon="-8.247701740760707"><ele>815.3333333333334</ele><time>2026-04-05T14:52:02Z</time></trkpt><trkpt lat="42.504942622185354" lon="-8.2478961299099"><ele>815.6666666666667</ele><time>2026-04-05T14:52:03Z</time></trkpt><trkpt lat="42.50487006559467" lon="-8.248092652489413"><ele>816.0</ele><time>2026-04-05T14:52:04Z</time></trkpt><trkpt lat="42.504795580710976" lon="-8.24828853360132"><ele>815.0</ele><time>2026-04-05T14:52:05Z</time></trkpt><trkpt lat="42.504724552649655" lon="-8.248475498929608"><ele>814.0</ele><time>2026-04-05T14:52:06Z</time></trkpt><trkpt lat="42.50465422366355" lon="-8.248656023265198"><ele>813.0</ele><time>2026-04-05T14:52:07Z</time></trkpt><trkpt lat="42.504583545969965" lon="-8.248841875023464"><ele>812.0</ele><time>2026-04-05T14:52:08Z</time></trkpt><trkpt lat="42.50451334831692" lon="-8.24903217659943"><ele>811.0</ele><time>2026-04-05T14:52:09Z</time></trkpt><trkpt lat="42.50444709659098" lon="-8.249224618713368"><ele>810.0</ele><time>2026-04-05T14:52:10Z</time></trkpt><trkpt lat="42.50439914569683" lon="-8.249426982939271"><ele>810.0</ele><time>2026-04-05T14:52:11Z</time></trkpt><trkpt lat="42.5043745549522" lon="-8.249638045314448"><ele>810.0</ele><time>2026-04-05T14:52:12Z</time></trkpt><trkpt lat="42.50437360909916" lon="-8.2498497794533"><ele>810.0</ele><time>2026-04-05T14:52:13Z</time></trkpt><trkpt lat="42.50438965007684" lon="-8.250054600153884"><ele>809.6666666666667</ele><time>2026-04-05T14:52:14Z</time></trkpt><trkpt lat="42.504419152831304" lon="-8.250257537836438"><ele>809.3333333333334</ele><time>2026-04-05T14:52:15Z</time></trkpt><trkpt lat="42.50445110535006" lon="-8.250470016397289"><ele>809.0</ele><time>2026-04-05T14:52:16Z</time></trkpt><trkpt lat="42.50448406820768" lon="-8.250688814153799"><ele>809.0</ele><time>2026-04-05T14:52:17Z</time></trkpt><trkpt lat="42.50451666518795" lon="-8.250910320352318"><ele>809.0</ele><time>2026-04-05T14:52:18Z</time></trkpt><trkpt lat="42.50454518984184" lon="-8.251141802328991"><ele>809.0</ele><time>2026-04-05T14:52:19Z</time></trkpt><trkpt lat="42.504568736099756" lon="-8.25138246259787"><ele>812.0</ele><time>2026-04-05T14:52:20Z</time></trkpt><trkpt lat="42.504587911125306" lon="-8.2516249294167"><ele>815.0</ele><time>2026-04-05T14:52:21Z</time></trkpt><trkpt lat="42.504602001348026" lon="-8.251870688143645"><ele>818.0</ele><time>2026-04-05T14:52:22Z</time></trkpt><trkpt lat="42.504606898456224" lon="-8.252119500790245"><ele>817.3333333333334</ele><time>2026-04-05T14:52:23Z</time></trkpt><trkpt lat="42.50459834940457" lon="-8.252369821736238"><ele>816.6666666666667</ele><time>2026-04-05T14:52:24Z</time></trkpt><trkpt lat="42.50458603834892" lon="-8.252622237932929"><ele>816.0</ele><time>2026-04-05T14:52:25Z</time></trkpt><trkpt lat="42.50456443625494" lon="-8.252875157768317"><ele>815.3333333333333</ele><time>2026-04-05T14:52:26Z</time></trkpt><trkpt lat="42.504535915756875" lon="-8.253134851272428"><ele>814.6666666666666</ele><time>2026-04-05T14:52:27Z</time></trkpt><trkpt lat="42.50449783919578" lon="-8.253389074252311"><ele>814.0</ele><time>2026-04-05T14:52:28Z</time></trkpt><trkpt lat="42.5044613112079" lon="-8.253646313349604"><ele>814.0</ele><time>2026-04-05T14:52:29Z</time></trkpt><trkpt lat="42.50442412445947" lon="-8.253902527918507"><ele>814.0</ele><time>2026-04-05T14:52:30Z</time></trkpt><trkpt lat="42.50438761948498" lon="-8.254157701571009"><ele>814.0</ele><time>2026-04-05T14:52:31Z</time></trkpt><trkpt lat="42.50435526418415" lon="-8.254406005933546"><ele>816.6666666666666</ele><time>2026-04-05T14:52:32Z</time></trkpt><trkpt lat="42.50434301027902" lon="-8.254667873246355"><ele>819.3333333333333</ele><time>2026-04-05T14:52:33Z</time></trkpt><trkpt lat="42.50435438348676" lon="-8.254918485389139"><ele>822.0</ele><time>2026-04-05T14:52:34Z</time></trkpt><trkpt lat="42.504401794022556" lon="-8.255146985501847"><ele>822.6666666666667</ele><time>2026-04-05T14:52:35Z</time></trkpt><trkpt lat="42.50447957601694" lon="-8.255355340896255"><ele>823.3333333333334</ele><time>2026-04-05T14:52:36Z</time></trkpt><trkpt lat="42.50458484583055" lon="-8.255548471472059"><ele>824.0</ele><time>2026-04-05T14:52:37Z</time></trkpt><trkpt lat="42.504714089944585" lon="-8.255714375926269"><ele>824.0</ele><time>2026-04-05T14:52:38Z</time></trkpt><trkpt lat="42.504861496799826" lon="-8.25585515458038"><ele>824.0</ele><time>2026-04-05T14:52:39Z</time></trkpt><trkpt lat="42.5050208832279" lon="-8.25596981628528"><ele>824.0</ele><time>2026-04-05T14:52:40Z</time></trkpt><trkpt lat="42.505189546334655" lon="-8.256068187946225"><ele>824.0</ele><time>2026-04-05T14:52:41Z</time></trkpt><trkpt lat="42.505367134635996" lon="-8.256161180833612"><ele>824.0</ele><time>2026-04-05T14:52:42Z</time></trkpt><trkpt lat="42.505541801187796" lon="-8.256267014343978"><ele>824.0</ele><time>2026-04-05T14:52:43Z</time></trkpt><trkpt lat="42.505717483597714" lon="-8.256383287749118"><ele>823.3333333333334</ele><time>2026-04-05T14:52:44Z</time></trkpt><trkpt lat="42.50589680490412" lon="-8.256498272834074"><ele>822.6666666666667</ele><time>2026-04-05T14:52:45Z</time></trkpt><trkpt lat="42.50608401689623" lon="-8.256611556850492"><ele>822.0</ele><time>2026-04-05T14:52:46Z</time></trkpt><trkpt lat="42.506272521804625" lon="-8.256728680761055"><ele>825.3333333333333</ele><time>2026-04-05T14:52:47Z</time></trkpt><trkpt lat="42.50645864390429" lon="-8.256843423062664"><ele>828.6666666666666</ele><time>2026-04-05T14:52:48Z</time></trkpt><trkpt lat="42.50664864875796" lon="-8.256959163546416"><ele>832.0</ele><time>2026-04-05T14:52:49Z</time></trkpt><trkpt lat="42.50682892737752" lon="-8.257067412428107"><ele>832.0</ele><time>2026-04-05T14:52:50Z</time></trkpt><trkpt lat="42.50700657320905" lon="-8.25717708760876"><ele>832.0</ele><time>2026-04-05T14:52:51Z</time></trkpt><trkpt lat="42.50718489063269" lon="-8.257285193295143"><ele>832.0</ele><time>2026-04-05T14:52:52Z</time></trkpt><trkpt lat="42.50736179985542" lon="-8.257405518069087"><ele>830.0</ele><time>2026-04-05T14:52:53Z</time></trkpt><trkpt lat="42.50752700540053" lon="-8.25754649284436"><ele>828.0</ele><time>2026-04-05T14:52:54Z</time></trkpt><trkpt lat="42.50768530555228" lon="-8.257710450937713"><ele>826.0</ele><time>2026-04-05T14:52:55Z</time></trkpt><trkpt lat="42.50782465554992" lon="-8.257886035503427"><ele>825.0</ele><time>2026-04-05T14:52:56Z</time></trkpt><trkpt lat="42.507968640702614" lon="-8.258070743781426"><ele>824.0</ele><time>2026-04-05T14:52:57Z</time></trkpt><trkpt lat="42.508105183998126" lon="-8.258243266089904"><ele>823.0</ele><time>2026-04-05T14:52:58Z</time></trkpt><trkpt lat="42.50825210781551" lon="-8.258412277178065"><ele>823.0</ele><time>2026-04-05T14:52:59Z</time></trkpt><trkpt lat="42.508408556500235" lon="-8.258566422418786"><ele>823.0</ele><time>2026-04-05T14:53:00Z</time></trkpt><trkpt lat="42.50857901975754" lon="-8.258707951793133"><ele>823.0</ele><time>2026-04-05T14:53:01Z</time></trkpt><trkpt lat="42.50875609051305" lon="-8.25881492164395"><ele>820.6666666666666</ele><time>2026-04-05T14:53:02Z</time></trkpt><trkpt lat="42.50894785980911" lon="-8.258904845840634"><ele>818.3333333333333</ele><time>2026-04-05T14:53:03Z</time></trkpt><trkpt lat="42.50913463552998" lon="-8.258973713855074"><ele>816.0</ele><time>2026-04-05T14:53:04Z</time></trkpt><trkpt lat="42.509314420260196" lon="-8.259038703941757"><ele>816.0</ele><time>2026-04-05T14:53:05Z</time></trkpt><trkpt lat="42.50948935931452" lon="-8.25912063572219"><ele>816.0</ele><time>2026-04-05T14:53:06Z</time></trkpt><trkpt lat="42.50965424946645" lon="-8.259238054980523"><ele>816.0</ele><time>2026-04-05T14:53:07Z</time></trkpt><trkpt lat="42.50979877265797" lon="-8.259395084943117"><ele>815.6666666666667</ele><time>2026-04-05T14:53:08Z</time></trkpt><trkpt lat="42.50991768384624" lon="-8.259582636402733"><ele>815.3333333333334</ele><time>2026-04-05T14:53:09Z</time></trkpt><trkpt lat="42.51001278946198" lon="-8.25979817943555"><ele>815.0</ele><time>2026-04-05T14:53:10Z</time></trkpt><trkpt lat="42.51008071464759" lon="-8.260029065963348"><ele>815.0</ele><time>2026-04-05T14:53:11Z</time></trkpt><trkpt lat="42.51013179174018" lon="-8.260273778402293"><ele>815.0</ele><time>2026-04-05T14:53:12Z</time></trkpt><trkpt lat="42.51016367439657" lon="-8.260514258262138"><ele>815.0</ele><time>2026-04-05T14:53:13Z</time></trkpt><trkpt lat="42.51020159464142" lon="-8.260765377947028"><ele>813.6666666666667</ele><time>2026-04-05T14:53:14Z</time></trkpt><trkpt lat="42.510241981595804" lon="-8.261006391304322"><ele>812.3333333333333</ele><time>2026-04-05T14:53:15Z</time></trkpt><trkpt lat="42.51029743025582" lon="-8.26123892735937"><ele>811.0</ele><time>2026-04-05T14:53:16Z</time></trkpt><trkpt lat="42.510373450376235" lon="-8.261445262634433"><ele>811.6666666666666</ele><time>2026-04-05T14:53:17Z</time></trkpt><trkpt lat="42.51048528385285" lon="-8.261644329977294"><ele>812.3333333333333</ele><time>2026-04-05T14:53:18Z</time></trkpt><trkpt lat="42.51062564402341" lon="-8.261817342011346"><ele>813.0</ele><time>2026-04-05T14:53:19Z</time></trkpt><trkpt lat="42.51077893591456" lon="-8.261952727518757"><ele>813.0</ele><time>2026-04-05T14:53:20Z</time></trkpt><trkpt lat="42.51095221543612" lon="-8.26205071656405"><ele>813.0</ele><time>2026-04-05T14:53:21Z</time></trkpt><trkpt lat="42.51113971730962" lon="-8.262119656327942"><ele>813.0</ele><time>2026-04-05T14:53:22Z</time></trkpt><trkpt lat="42.51134077943163" lon="-8.262173522155068"><ele>813.3333333333333</ele><time>2026-04-05T14:53:23Z</time></trkpt><trkpt lat="42.51154579298781" lon="-8.262222351526956"><ele>813.6666666666666</ele><time>2026-04-05T14:53:24Z</time></trkpt><trkpt lat="42.51175322008629" lon="-8.262274910967708"><ele>814.0</ele><time>2026-04-05T14:53:25Z</time></trkpt><trkpt lat="42.5119620336631" lon="-8.262332466338863"><ele>808.3333333333333</ele><time>2026-04-05T14:53:26Z</time></trkpt><trkpt lat="42.512172474678664" lon="-8.262394763970487"><ele>802.6666666666667</ele><time>2026-04-05T14:53:27Z</time></trkpt><trkpt lat="42.51238779949696" lon="-8.262456998563978"><ele>797.0</ele><time>2026-04-05T14:53:28Z</time></trkpt><trkpt lat="42.51260588343529" lon="-8.262521407528405"><ele>797.0</ele><time>2026-04-05T14:53:29Z</time></trkpt><trkpt lat="42.51282087989655" lon="-8.26257699483271"><ele>797.0</ele><time>2026-04-05T14:53:30Z</time></trkpt><trkpt lat="42.513044631057696" lon="-8.262634712582079"><ele>797.0</ele><time>2026-04-05T14:53:31Z</time></trkpt><trkpt lat="42.51326178349009" lon="-8.262689391860421"><ele>797.0</ele><time>2026-04-05T14:53:32Z</time></trkpt><trkpt lat="42.51348012667395" lon="-8.262739956184818"><ele>797.0</ele><time>2026-04-05T14:53:33Z</time></trkpt><trkpt lat="42.51369730526212" lon="-8.262793217597263"><ele>797.0</ele><time>2026-04-05T14:53:34Z</time></trkpt><trkpt lat="42.51392092824179" lon="-8.262850036475177"><ele>797.3333333333334</ele><time>2026-04-05T14:53:35Z</time></trkpt><trkpt lat="42.51413906375562" lon="-8.262907861720732"><ele>797.6666666666667</ele><time>2026-04-05T14:53:36Z</time></trkpt><trkpt lat="42.51435548884144" lon="-8.26296938139736"><ele>798.0</ele><time>2026-04-05T14:53:37Z</time></trkpt><trkpt lat="42.51456994369664" lon="-8.263031179259027"><ele>798.6666666666667</ele><time>2026-04-05T14:53:38Z</time></trkpt><trkpt lat="42.51478385442198" lon="-8.26309074720444"><ele>799.3333333333334</ele><time>2026-04-05T14:53:39Z</time></trkpt><trkpt lat="42.51499061689982" lon="-8.26314933778629"><ele>800.0</ele><time>2026-04-05T14:53:40Z</time></trkpt><trkpt lat="42.51518134894326" lon="-8.263217951460897"><ele>797.3333333333334</ele><time>2026-04-05T14:53:41Z</time></trkpt><trkpt lat="42.51536852210816" lon="-8.263285193292885"><ele>794.6666666666667</ele><time>2026-04-05T14:53:42Z</time></trkpt><trkpt lat="42.515549302848605" lon="-8.263356296151079"><ele>792.0</ele><time>2026-04-05T14:53:43Z</time></trkpt><trkpt lat="42.515726312898344" lon="-8.263435122339105"><ele>792.0</ele><time>2026-04-05T14:53:44Z</time></trkpt><trkpt lat="42.51588184594664" lon="-8.263547787149433"><ele>792.0</ele><time>2026-04-05T14:53:45Z</time></trkpt><trkpt lat="42.51601428516855" lon="-8.2636851561667"><ele>792.0</ele><time>2026-04-05T14:53:46Z</time></trkpt><trkpt lat="42.516123988578336" lon="-8.263850724831656"><ele>794.6666666666667</ele><time>2026-04-05T14:53:47Z</time></trkpt><trkpt lat="42.516219573713535" lon="-8.264031933160046"><ele>797.3333333333334</ele><time>2026-04-05T14:53:48Z</time></trkpt><trkpt lat="42.51629087017535" lon="-8.264221296738828"><ele>800.0</ele><time>2026-04-05T14:53:49Z</time></trkpt><trkpt lat="42.51633977548618" lon="-8.264422364098424"><ele>800.0</ele><time>2026-04-05T14:53:50Z</time></trkpt><trkpt lat="42.51638205975395" lon="-8.264631856723469"><ele>800.0</ele><time>2026-04-05T14:53:51Z</time></trkpt><trkpt lat="42.51640752782492" lon="-8.264841910535887"><ele>800.0</ele><time>2026-04-05T14:53:52Z</time></trkpt><trkpt lat="42.516436773614736" lon="-8.265040139124615"><ele>798.6666666666667</ele><time>2026-04-05T14:53:53Z</time></trkpt><trkpt lat="42.51646908886893" lon="-8.26525051126297"><ele>797.3333333333333</ele><time>2026-04-05T14:53:54Z</time></trkpt><trkpt lat="42.516490356312744" lon="-8.265454009448584"><ele>796.0</ele><time>2026-04-05T14:53:55Z</time></trkpt><trkpt lat="42.51650182829377" lon="-8.265674635631713"><ele>795.6666666666666</ele><time>2026-04-05T14:53:56Z</time></trkpt><trkpt lat="42.51648032506083" lon="-8.265881525324339"><ele>795.3333333333333</ele><time>2026-04-05T14:53:57Z</time></trkpt><trkpt lat="42.51645052993902" lon="-8.266081178164065"><ele>795.0</ele><time>2026-04-05T14:53:58Z</time></trkpt><trkpt lat="42.516408426343155" lon="-8.266288495921577"><ele>797.0</ele><time>2026-04-05T14:53:59Z</time></trkpt><trkpt lat="42.51636561954801" lon="-8.266480770496026"><ele>799.0</ele><time>2026-04-05T14:54:00Z</time></trkpt><trkpt lat="42.51632217154559" lon="-8.266682867468427"><ele>801.0</ele><time>2026-04-05T14:54:01Z</time></trkpt><trkpt lat="42.51629373557509" lon="-8.266882877815744"><ele>801.0</ele><time>2026-04-05T14:54:02Z</time></trkpt><trkpt lat="42.51627022361426" lon="-8.2670743122413"><ele>801.0</ele><time>2026-04-05T14:54:03Z</time></trkpt><trkpt lat="42.5162602101041" lon="-8.26726616211945"><ele>801.0</ele><time>2026-04-05T14:54:04Z</time></trkpt><trkpt lat="42.51626204849468" lon="-8.26746566183287"><ele>801.0</ele><time>2026-04-05T14:54:05Z</time></trkpt><trkpt lat="42.51628092107335" lon="-8.267654506814903"><ele>801.0</ele><time>2026-04-05T14:54:06Z</time></trkpt><trkpt lat="42.51630800670351" lon="-8.267837504160491"><ele>801.0</ele><time>2026-04-05T14:54:07Z</time></trkpt><trkpt lat="42.516331573038215" lon="-8.268009260458335"><ele>801.0</ele><time>2026-04-05T14:54:08Z</time></trkpt><trkpt lat="42.51635727449833" lon="-8.268181725182457"><ele>801.0</ele><time>2026-04-05T14:54:09Z</time></trkpt><trkpt lat="42.51638374874236" lon="-8.268358309167422"><ele>801.0</ele><time>2026-04-05T14:54:10Z</time></trkpt><trkpt lat="42.516399815182545" lon="-8.268536533780312"><ele>801.0</ele><time>2026-04-05T14:54:11Z</time></trkpt><trkpt lat="42.516395497036214" lon="-8.26872788214945"><ele>801.0</ele><time>2026-04-05T14:54:12Z</time></trkpt><trkpt lat="42.51636607361183" lon="-8.26892134852493"><ele>801.0</ele><time>2026-04-05T14:54:13Z</time></trkpt><trkpt lat="42.51629502096472" lon="-8.26911268068687"><ele>796.6666666666667</ele><time>2026-04-05T14:54:14Z</time></trkpt><trkpt lat="42.51621440818978" lon="-8.26928327823826"><ele>792.3333333333334</ele><time>2026-04-05T14:54:15Z</time></trkpt><trkpt lat="42.516115712254596" lon="-8.269454336529398"><ele>788.0</ele><time>2026-04-05T14:54:16Z</time></trkpt><trkpt lat="42.51600965031506" lon="-8.269588440206112"><ele>788.0</ele><time>2026-04-05T14:54:17Z</time></trkpt><trkpt lat="42.51590487335998" lon="-8.269745748676607"><ele>788.0</ele><time>2026-04-05T14:54:18Z</time></trkpt><trkpt lat="42.515809232045044" lon="-8.269901907366677"><ele>788.0</ele><time>2026-04-05T14:54:19Z</time></trkpt><trkpt lat="42.51570882179121" lon="-8.270048478327388"><ele>790.0</ele><time>2026-04-05T14:54:20Z</time></trkpt><trkpt lat="42.51560422888452" lon="-8.270176779618732"><ele>792.0</ele><time>2026-04-05T14:54:21Z</time></trkpt><trkpt lat="42.51550961065668" lon="-8.270309724292298"><ele>794.0</ele><time>2026-04-05T14:54:22Z</time></trkpt><trkpt lat="42.5154048501395" lon="-8.270431263254627"><ele>796.0</ele><time>2026-04-05T14:54:23Z</time></trkpt><trkpt lat="42.515300538788296" lon="-8.270547119809676"><ele>794.25</ele><time>2026-04-05T14:54:24Z</time></trkpt><trkpt lat="42.51521331319635" lon="-8.270698987835248"><ele>792.5</ele><time>2026-04-05T14:54:25Z</time></trkpt><trkpt lat="42.515142293587026" lon="-8.27087374515017"><ele>790.75</ele><time>2026-04-05T14:54:26Z</time></trkpt><trkpt lat="42.515091335827414" lon="-8.271050380090749"><ele>789.0</ele><time>2026-04-05T14:54:27Z</time></trkpt><trkpt lat="42.51505906364614" lon="-8.271242741681508"><ele>789.0</ele><time>2026-04-05T14:54:28Z</time></trkpt><trkpt lat="42.51503898306026" lon="-8.271424616165744"><ele>789.0</ele><time>2026-04-05T14:54:29Z</time></trkpt><trkpt lat="42.515036864057926" lon="-8.271617410187854"><ele>789.0</ele><time>2026-04-05T14:54:30Z</time></trkpt><trkpt lat="42.51505548116359" lon="-8.271810346913396"><ele>789.0</ele><time>2026-04-05T14:54:31Z</time></trkpt><trkpt lat="42.51509473110401" lon="-8.272003630267923"><ele>791.0</ele><time>2026-04-05T14:54:32.001Z</time></trkpt><trkpt lat="42.51516200281903" lon="-8.272180040500402"><ele>793.0</ele><time>2026-04-05T14:54:33.001Z</time></trkpt><trkpt lat="42.51524420130883" lon="-8.272359389184313"><ele>795.0</ele><time>2026-04-05T14:54:34.001Z</time></trkpt><trkpt lat="42.51534036114693" lon="-8.272526701498984"><ele>798.6666666666667</ele><time>2026-04-05T14:54:35.001Z</time></trkpt><trkpt lat="42.51546031892261" lon="-8.27267249741358"><ele>802.3333333333334</ele><time>2026-04-05T14:54:36.001Z</time></trkpt><trkpt lat="42.515601877750164" lon="-8.272803749547366"><ele>806.0</ele><time>2026-04-05T14:54:37.001Z</time></trkpt><trkpt lat="42.51575533800357" lon="-8.272911934685974"><ele>806.0</ele><time>2026-04-05T14:54:38.001Z</time></trkpt><trkpt lat="42.51592006562379" lon="-8.273000810935253"><ele>806.0</ele><time>2026-04-05T14:54:39.001Z</time></trkpt><trkpt lat="42.516090534735184" lon="-8.273080422007984"><ele>806.0</ele><time>2026-04-05T14:54:40.001Z</time></trkpt><trkpt lat="42.51626440614986" lon="-8.273161240922231"><ele>804.6666666666667</ele><time>2026-04-05T14:54:41.001Z</time></trkpt><trkpt lat="42.51644223320327" lon="-8.27324488459884"><ele>803.3333333333333</ele><time>2026-04-05T14:54:42.001Z</time></trkpt><trkpt lat="42.516623210144346" lon="-8.27333333255627"><ele>802.0</ele><time>2026-04-05T14:54:43.001Z</time></trkpt><trkpt lat="42.516806402311516" lon="-8.273433079938892"><ele>802.0</ele><time>2026-04-05T14:54:44.001Z</time></trkpt><trkpt lat="42.51699604350501" lon="-8.273511493591382"><ele>802.0</ele><time>2026-04-05T14:54:45.001Z</time></trkpt><trkpt lat="42.517186374737626" lon="-8.273602444587812"><ele>802.0</ele><time>2026-04-05T14:54:46.001Z</time></trkpt><trkpt lat="42.51737740581753" lon="-8.273693728352077"><ele>802.3333333333333</ele><time>2026-04-05T14:54:47.001Z</time></trkpt><trkpt lat="42.517571578580466" lon="-8.273786515112489"><ele>802.6666666666667</ele><time>2026-04-05T14:54:48Z</time></trkpt><trkpt lat="42.51776764669617" lon="-8.27388020834194"><ele>803.0</ele><time>2026-04-05T14:54:49Z</time></trkpt><trkpt lat="42.51796689214406" lon="-8.273975021062345"><ele>803.0</ele><time>2026-04-05T14:54:50Z</time></trkpt><trkpt lat="42.51816122160961" lon="-8.274096635520372"><ele>803.0</ele><time>2026-04-05T14:54:51Z</time></trkpt><trkpt lat="42.51836873743443" lon="-8.274194794498154"><ele>803.0</ele><time>2026-04-05T14:54:52Z</time></trkpt><trkpt lat="42.51857975953986" lon="-8.27429251632257"><ele>806.6666666666667</ele><time>2026-04-05T14:54:53Z</time></trkpt><trkpt lat="42.51878851070079" lon="-8.274391984478658"><ele>810.3333333333333</ele><time>2026-04-05T14:54:54Z</time></trkpt><trkpt lat="42.518995501523925" lon="-8.274509742646956"><ele>814.0</ele><time>2026-04-05T14:54:55Z</time></trkpt><trkpt lat="42.51919435847071" lon="-8.274659831178518"><ele>807.0</ele><time>2026-04-05T14:54:56Z</time></trkpt><trkpt lat="42.519380516635124" lon="-8.274842417762615"><ele>800.0</ele><time>2026-04-05T14:54:57Z</time></trkpt><trkpt lat="42.51954921785233" lon="-8.275059947553366"><ele>807.5</ele><time>2026-04-05T14:54:58Z</time></trkpt><trkpt lat="42.51970000562998" lon="-8.275301518301621"><ele>815.0</ele><time>2026-04-05T14:54:59Z</time></trkpt><trkpt lat="42.51983625995876" lon="-8.275558683251814"><ele>810.0</ele><time>2026-04-05T14:55:00Z</time></trkpt><trkpt lat="42.51995763785426" lon="-8.275833907482586"><ele>805.0</ele><time>2026-04-05T14:55:01Z</time></trkpt><trkpt lat="42.52005162809378" lon="-8.276118072472823"><ele>805.0</ele><time>2026-04-05T14:55:02Z</time></trkpt><trkpt lat="42.520131236891" lon="-8.276407021511337"><ele>805.0</ele><time>2026-04-05T14:55:03Z</time></trkpt><trkpt lat="42.52020754972818" lon="-8.27669790246867"><ele>802.6666666666666</ele><time>2026-04-05T14:55:04Z</time></trkpt><trkpt lat="42.52027044596869" lon="-8.276969267406207"><ele>800.3333333333333</ele><time>2026-04-05T14:55:05Z</time></trkpt><trkpt lat="42.52031191231081" lon="-8.277229919542144"><ele>798.0</ele><time>2026-04-05T14:55:06Z</time></trkpt><trkpt lat="42.52032037471451" lon="-8.277495688224478"><ele>798.6666666666667</ele><time>2026-04-05T14:55:07Z</time></trkpt><trkpt lat="42.52030476076662" lon="-8.277778886733271"><ele>799.3333333333334</ele><time>2026-04-05T14:55:08Z</time></trkpt><trkpt lat="42.52023904839263" lon="-8.278048256383585"><ele>800.0</ele><time>2026-04-05T14:55:09Z</time></trkpt><trkpt lat="42.52015623841217" lon="-8.278315828942779"><ele>800.0</ele><time>2026-04-05T14:55:10Z</time></trkpt><trkpt lat="42.52003115259229" lon="-8.278550308712244"><ele>800.0</ele><time>2026-04-05T14:55:11Z</time></trkpt><trkpt lat="42.51988257639423" lon="-8.278762629505175"><ele>800.0</ele><time>2026-04-05T14:55:12Z</time></trkpt><trkpt lat="42.51971706550624" lon="-8.278947670544435"><ele>799.3333333333334</ele><time>2026-04-05T14:55:13Z</time></trkpt><trkpt lat="42.519540918040526" lon="-8.279120078046747"><ele>798.6666666666667</ele><time>2026-04-05T14:55:14Z</time></trkpt><trkpt lat="42.51937298723037" lon="-8.279313980564666"><ele>798.0</ele><time>2026-04-05T14:55:15Z</time></trkpt><trkpt lat="42.51922676103694" lon="-8.279543362301851"><ele>801.0</ele><time>2026-04-05T14:55:16Z</time></trkpt><trkpt lat="42.519114300099304" lon="-8.279803610701212"><ele>804.0</ele><time>2026-04-05T14:55:17Z</time></trkpt><trkpt lat="42.519038708681286" lon="-8.280096900180201"><ele>804.0</ele><time>2026-04-05T14:55:18Z</time></trkpt><trkpt lat="42.51899754801511" lon="-8.280401034012714"><ele>804.0</ele><time>2026-04-05T14:55:19Z</time></trkpt><trkpt lat="42.51899178641525" lon="-8.280711031875231"><ele>802.5</ele><time>2026-04-05T14:55:20Z</time></trkpt><trkpt lat="42.51903636596055" lon="-8.281019901653124"><ele>801.0</ele><time>2026-04-05T14:55:21Z</time></trkpt><trkpt lat="42.519115200415484" lon="-8.281324595735196"><ele>797.5</ele><time>2026-04-05T14:55:22Z</time></trkpt><trkpt lat="42.519198307857785" lon="-8.281629790157758"><ele>794.0</ele><time>2026-04-05T14:55:23Z</time></trkpt><trkpt lat="42.51926301277121" lon="-8.281939258615026"><ele>794.0</ele><time>2026-04-05T14:55:24Z</time></trkpt><trkpt lat="42.51931103966646" lon="-8.282256878206425"><ele>794.0</ele><time>2026-04-05T14:55:25Z</time></trkpt><trkpt lat="42.51933920039014" lon="-8.2825833812585"><ele>791.0</ele><time>2026-04-05T14:55:26Z</time></trkpt><trkpt lat="42.519337484949624" lon="-8.282907953500537"><ele>788.0</ele><time>2026-04-05T14:55:27Z</time></trkpt><trkpt lat="42.51930180353514" lon="-8.283231060942766"><ele>785.0</ele><time>2026-04-05T14:55:28Z</time></trkpt><trkpt lat="42.51925276075549" lon="-8.283550152419485"><ele>782.0</ele><time>2026-04-05T14:55:29Z</time></trkpt><trkpt lat="42.51922770375271" lon="-8.283881979248847"><ele>780.0</ele><time>2026-04-05T14:55:30Z</time></trkpt><trkpt lat="42.519198384775066" lon="-8.284207402984705"><ele>778.0</ele><time>2026-04-05T14:55:31Z</time></trkpt><trkpt lat="42.519093959085865" lon="-8.284534102833202"><ele>774.5</ele><time>2026-04-05T14:55:32Z</time></trkpt><trkpt lat="42.519095784279074" lon="-8.284860499769463"><ele>771.0</ele><time>2026-04-05T14:55:33Z</time></trkpt><trkpt lat="42.519147238456284" lon="-8.285176400712514"><ele>771.0</ele><time>2026-04-05T14:55:34Z</time></trkpt><trkpt lat="42.51923549812149" lon="-8.285462824340536"><ele>771.0</ele><time>2026-04-05T14:55:35Z</time></trkpt><trkpt lat="42.51936215139589" lon="-8.285712992791469"><ele>768.5</ele><time>2026-04-05T14:55:36Z</time></trkpt><trkpt lat="42.51951456457083" lon="-8.285937532200142"><ele>766.0</ele><time>2026-04-05T14:55:37Z</time></trkpt><trkpt lat="42.519693568529114" lon="-8.286123499934675"><ele>764.6666666666667</ele><time>2026-04-05T14:55:38Z</time></trkpt><trkpt lat="42.519883205613844" lon="-8.286264133376118"><ele>763.3333333333334</ele><time>2026-04-05T14:55:39Z</time></trkpt><trkpt lat="42.52009067369492" lon="-8.286366337602352"><ele>762.0</ele><time>2026-04-05T14:55:40Z</time></trkpt><trkpt lat="42.5203135146372" lon="-8.286431809448118"><ele>762.0</ele><time>2026-04-05T14:55:41Z</time></trkpt><trkpt lat="42.52054789834494" lon="-8.286461117782222"><ele>762.0</ele><time>2026-04-05T14:55:42Z</time></trkpt><trkpt lat="42.52077916404295" lon="-8.286471901912861"><ele>762.0</ele><time>2026-04-05T14:55:43Z</time></trkpt><trkpt lat="42.521016269059594" lon="-8.28649862416477"><ele>762.0</ele><time>2026-04-05T14:55:44Z</time></trkpt><trkpt lat="42.52125076302469" lon="-8.28655472662704"><ele>759.0</ele><time>2026-04-05T14:55:45Z</time></trkpt><trkpt lat="42.5214894955681" lon="-8.286638655276926"><ele>756.0</ele><time>2026-04-05T14:55:46Z</time></trkpt><trkpt lat="42.52172064929277" lon="-8.286752993511145"><ele>756.0</ele><time>2026-04-05T14:55:47Z</time></trkpt><trkpt lat="42.52194771694846" lon="-8.286889352855468"><ele>756.0</ele><time>2026-04-05T14:55:48Z</time></trkpt><trkpt lat="42.52216831935712" lon="-8.28704156145171"><ele>754.0</ele><time>2026-04-05T14:55:49Z</time></trkpt><trkpt lat="42.52238578291825" lon="-8.287208554639902"><ele>752.0</ele><time>2026-04-05T14:55:50Z</time></trkpt><trkpt lat="42.52259817652038" lon="-8.287386516638993"><ele>752.0</ele><time>2026-04-05T14:55:51Z</time></trkpt><trkpt lat="42.522806526626376" lon="-8.28758214479234"><ele>752.0</ele><time>2026-04-05T14:55:52Z</time></trkpt><trkpt lat="42.523004375716745" lon="-8.287792986047076"><ele>749.5</ele><time>2026-04-05T14:55:53Z</time></trkpt><trkpt lat="42.52320367440697" lon="-8.28800450111214"><ele>747.0</ele><time>2026-04-05T14:55:54Z</time></trkpt><trkpt lat="42.52340314148572" lon="-8.288220178105588"><ele>747.0</ele><time>2026-04-05T14:55:55Z</time></trkpt><trkpt lat="42.52359621597101" lon="-8.288441835601201"><ele>747.0</ele><time>2026-04-05T14:55:56Z</time></trkpt><trkpt lat="42.52378984289365" lon="-8.288668293059647"><ele>742.5</ele><time>2026-04-05T14:55:57Z</time></trkpt><trkpt lat="42.52398112743566" lon="-8.288904079264064"><ele>738.0</ele><time>2026-04-05T14:55:58Z</time></trkpt><trkpt lat="42.52416579178615" lon="-8.289148100960944"><ele>738.0</ele><time>2026-04-05T14:55:59Z</time></trkpt><trkpt lat="42.52434971485006" lon="-8.289390405671247"><ele>738.0</ele><time>2026-04-05T14:56:00Z</time></trkpt><trkpt lat="42.52453329762436" lon="-8.289635200602648"><ele>733.0</ele><time>2026-04-05T14:56:01Z</time></trkpt><trkpt lat="42.524716615065856" lon="-8.289879806195573"><ele>728.0</ele><time>2026-04-05T14:56:02Z</time></trkpt><trkpt lat="42.52490177011257" lon="-8.290113895506597"><ele>728.0</ele><time>2026-04-05T14:56:03Z</time></trkpt><trkpt lat="42.52508833757602" lon="-8.290327215713825"><ele>728.0</ele><time>2026-04-05T14:56:04Z</time></trkpt><trkpt lat="42.525293523075284" lon="-8.290515256652911"><ele>728.0</ele><time>2026-04-05T14:56:05Z</time></trkpt><trkpt lat="42.52551480477915" lon="-8.290669087038092"><ele>728.0</ele><time>2026-04-05T14:56:06Z</time></trkpt><trkpt lat="42.52575752105036" lon="-8.290783469207412"><ele>728.0</ele><time>2026-04-05T14:56:07Z</time></trkpt><trkpt lat="42.5260041680973" lon="-8.29086288724728"><ele>728.0</ele><time>2026-04-05T14:56:08Z</time></trkpt><trkpt lat="42.52625814841697" lon="-8.290921299273746"><ele>724.0</ele><time>2026-04-05T14:56:09Z</time></trkpt><trkpt lat="42.52651225935195" lon="-8.29097444929071"><ele>720.0</ele><time>2026-04-05T14:56:10Z</time></trkpt><trkpt lat="42.52676721949306" lon="-8.291025562649962"><ele>720.0</ele><time>2026-04-05T14:56:11Z</time></trkpt><trkpt lat="42.527027049626405" lon="-8.291088137468746"><ele>720.0</ele><time>2026-04-05T14:56:12Z</time></trkpt><trkpt lat="42.527282937012004" lon="-8.291167487225838"><ele>714.0</ele><time>2026-04-05T14:56:13Z</time></trkpt><trkpt lat="42.527532104439786" lon="-8.291260034265786"><ele>708.0</ele><time>2026-04-05T14:56:14Z</time></trkpt><trkpt lat="42.52776515959208" lon="-8.291356527562959"><ele>711.0</ele><time>2026-04-05T14:56:15Z</time></trkpt><trkpt lat="42.52799691538943" lon="-8.291446888388293"><ele>714.0</ele><time>2026-04-05T14:56:16Z</time></trkpt><trkpt lat="42.52822134208631" lon="-8.291528407042563"><ele>714.0</ele><time>2026-04-05T14:56:17Z</time></trkpt><trkpt lat="42.52844325413911" lon="-8.291620017954152"><ele>714.0</ele><time>2026-04-05T14:56:18Z</time></trkpt><trkpt lat="42.52866601950056" lon="-8.291735951649013"><ele>708.0</ele><time>2026-04-05T14:56:19Z</time></trkpt><trkpt lat="42.52889105705629" lon="-8.291866544793352"><ele>702.0</ele><time>2026-04-05T14:56:20Z</time></trkpt><trkpt lat="42.529116319128" lon="-8.292002896012493"><ele>702.0</ele><time>2026-04-05T14:56:21Z</time></trkpt><trkpt lat="42.52933930498007" lon="-8.292151606869277"><ele>702.0</ele><time>2026-04-05T14:56:22Z</time></trkpt><trkpt lat="42.5295596676438" lon="-8.292308801097894"><ele>702.5</ele><time>2026-04-05T14:56:23Z</time></trkpt><trkpt lat="42.52977876050817" lon="-8.292473963416525"><ele>703.0</ele><time>2026-04-05T14:56:24Z</time></trkpt><trkpt lat="42.52997804968443" lon="-8.292639396214529"><ele>703.0</ele><time>2026-04-05T14:56:25Z</time></trkpt><trkpt lat="42.530151045412495" lon="-8.292828083573456"><ele>703.0</ele><time>2026-04-05T14:56:26Z</time></trkpt><trkpt lat="42.53030867695925" lon="-8.293039295634967"><ele>703.0</ele><time>2026-04-05T14:56:27Z</time></trkpt><trkpt lat="42.53044706736943" lon="-8.293280974831402"><ele>698.0</ele><time>2026-04-05T14:56:28Z</time></trkpt><trkpt lat="42.5305777151611" lon="-8.293540790072235"><ele>693.0</ele><time>2026-04-05T14:56:29Z</time></trkpt><trkpt lat="42.53068982476003" lon="-8.29381636913903"><ele>694.0</ele><time>2026-04-05T14:56:30Z</time></trkpt><trkpt lat="42.53079306078283" lon="-8.294096911359286"><ele>695.0</ele><time>2026-04-05T14:56:31Z</time></trkpt><trkpt lat="42.5308868352031" lon="-8.29439049702397"><ele>695.0</ele><time>2026-04-05T14:56:32Z</time></trkpt><trkpt lat="42.53098207610405" lon="-8.294682849975729"><ele>695.0</ele><time>2026-04-05T14:56:33Z</time></trkpt><trkpt lat="42.53109114297337" lon="-8.294952931767249"><ele>695.0</ele><time>2026-04-05T14:56:34Z</time></trkpt><trkpt lat="42.53121460555217" lon="-8.295193672099822"><ele>695.0</ele><time>2026-04-05T14:56:35Z</time></trkpt><trkpt lat="42.53136824439508" lon="-8.295411691750918"><ele>695.0</ele><time>2026-04-05T14:56:36Z</time></trkpt><trkpt lat="42.531548896327664" lon="-8.295602699420211"><ele>689.0</ele><time>2026-04-05T14:56:37Z</time></trkpt><trkpt lat="42.531750996417884" lon="-8.295757658314963"><ele>683.0</ele><time>2026-04-05T14:56:38.001Z</time></trkpt><trkpt lat="42.53195944478695" lon="-8.295879606538563"><ele>681.0</ele><time>2026-04-05T14:56:39.001Z</time></trkpt><trkpt lat="42.5321657685975" lon="-8.295965969832757"><ele>679.0</ele><time>2026-04-05T14:56:40.001Z</time></trkpt><trkpt lat="42.53237023387246" lon="-8.29602980279878"><ele>677.0</ele><time>2026-04-05T14:56:41.001Z</time></trkpt><trkpt lat="42.532564877272804" lon="-8.296088890193122"><ele>677.0</ele><time>2026-04-05T14:56:42.001Z</time></trkpt><trkpt lat="42.532751167452446" lon="-8.29617591027773"><ele>677.0</ele><time>2026-04-05T14:56:43.001Z</time></trkpt><trkpt lat="42.532928587943736" lon="-8.296290979335605"><ele>677.0</ele><time>2026-04-05T14:56:44.001Z</time></trkpt><trkpt lat="42.53308634835611" lon="-8.296432544221766"><ele>675.3333333333333</ele><time>2026-04-05T14:56:45Z</time></trkpt><trkpt lat="42.53322407244569" lon="-8.296597584742718"><ele>673.6666666666666</ele><time>2026-04-05T14:56:46Z</time></trkpt><trkpt lat="42.533333667955326" lon="-8.296787880964635"><ele>672.0</ele><time>2026-04-05T14:56:47Z</time></trkpt><trkpt lat="42.53341738562655" lon="-8.296991408540498"><ele>672.0</ele><time>2026-04-05T14:56:48Z</time></trkpt><trkpt lat="42.53348815069152" lon="-8.297193993516862"><ele>672.0</ele><time>2026-04-05T14:56:49Z</time></trkpt><trkpt lat="42.533543864239135" lon="-8.297389863926792"><ele>672.0</ele><time>2026-04-05T14:56:50Z</time></trkpt><trkpt lat="42.533597664118496" lon="-8.29756543699805"><ele>671.75</ele><time>2026-04-05T14:56:51Z</time></trkpt><trkpt lat="42.5336470340885" lon="-8.297721027416411"><ele>671.5</ele><time>2026-04-05T14:56:52Z</time></trkpt><trkpt lat="42.53369342147824" lon="-8.297876081124256"><ele>671.25</ele><time>2026-04-05T14:56:53Z</time></trkpt><trkpt lat="42.533741146217324" lon="-8.29803630442928"><ele>671.0</ele><time>2026-04-05T14:56:54Z</time></trkpt><trkpt lat="42.5337857140425" lon="-8.298191788724614"><ele>668.5</ele><time>2026-04-05T14:56:55Z</time></trkpt><trkpt lat="42.53383396916375" lon="-8.298353247699294"><ele>666.0</ele><time>2026-04-05T14:56:56Z</time></trkpt><trkpt lat="42.53388237213647" lon="-8.298519355828244"><ele>663.5</ele><time>2026-04-05T14:56:57Z</time></trkpt><trkpt lat="42.53393031710775" lon="-8.298682006103189"><ele>661.0</ele><time>2026-04-05T14:56:58Z</time></trkpt><trkpt lat="42.53398155925891" lon="-8.298840786260467"><ele>660.75</ele><time>2026-04-05T14:56:59Z</time></trkpt><trkpt lat="42.534031155086744" lon="-8.298990522107086"><ele>660.5</ele><time>2026-04-05T14:57:00Z</time></trkpt><trkpt lat="42.53408070159296" lon="-8.299141693518928"><ele>660.25</ele><time>2026-04-05T14:57:01Z</time></trkpt><trkpt lat="42.53412865379259" lon="-8.299286897014147"><ele>660.0</ele><time>2026-04-05T14:57:02Z</time></trkpt><trkpt lat="42.534177010255775" lon="-8.299438739682302"><ele>660.0</ele><time>2026-04-05T14:57:03Z</time></trkpt><trkpt lat="42.53423020133086" lon="-8.299590104133266"><ele>660.0</ele><time>2026-04-05T14:57:04Z</time></trkpt><trkpt lat="42.53427970571549" lon="-8.299743775064083"><ele>660.0</ele><time>2026-04-05T14:57:05Z</time></trkpt><trkpt lat="42.53433485259209" lon="-8.299897722096524"><ele>660.0</ele><time>2026-04-05T14:57:06Z</time></trkpt><trkpt lat="42.53437983103071" lon="-8.300049810608217"><ele>659.8</ele><time>2026-04-05T14:57:07Z</time></trkpt><trkpt lat="42.53442660179376" lon="-8.300194047608128"><ele>659.6</ele><time>2026-04-05T14:57:08Z</time></trkpt><trkpt lat="42.53446819051809" lon="-8.300333634395862"><ele>659.4000000000001</ele><time>2026-04-05T14:57:09Z</time></trkpt><trkpt lat="42.53451078334947" lon="-8.300468585109403"><ele>659.2</ele><time>2026-04-05T14:57:10Z</time></trkpt><trkpt lat="42.534563662809035" lon="-8.300600443481393"><ele>659.0</ele><time>2026-04-05T14:57:11Z</time></trkpt><trkpt lat="42.5346157400052" lon="-8.300724544842204"><ele>657.8000000000001</ele><time>2026-04-05T14:57:12Z</time></trkpt><trkpt lat="42.53467667281046" lon="-8.300832392024088"><ele>656.6</ele><time>2026-04-05T14:57:13Z</time></trkpt><trkpt lat="42.53474690922704" lon="-8.300930407038354"><ele>655.4</ele><time>2026-04-05T14:57:14Z</time></trkpt><trkpt lat="42.53483858165251" lon="-8.301024163969771"><ele>654.2</ele><time>2026-04-05T14:57:15Z</time></trkpt><trkpt lat="42.53493168365465" lon="-8.301117248150916"><ele>653.0</ele><time>2026-04-05T14:57:16Z</time></trkpt><trkpt lat="42.535022972732435" lon="-8.301196998514083"><ele>653.0</ele><time>2026-04-05T14:57:17Z</time></trkpt><trkpt lat="42.535120324840165" lon="-8.301260920435626"><ele>653.0</ele><time>2026-04-05T14:57:18Z</time></trkpt><trkpt lat="42.535212521713625" lon="-8.301321568971053"><ele>653.0</ele><time>2026-04-05T14:57:19Z</time></trkpt><trkpt lat="42.53530548365185" lon="-8.301374049727988"><ele>653.0</ele><time>2026-04-05T14:57:20Z</time></trkpt><trkpt lat="42.53539795153397" lon="-8.301427692293457"><ele>653.0</ele><time>2026-04-05T14:57:21Z</time></trkpt><trkpt lat="42.535481322720734" lon="-8.3014778304857"><ele>652.2</ele><time>2026-04-05T14:57:22Z</time></trkpt><trkpt lat="42.53556760291412" lon="-8.301524031141216"><ele>651.4</ele><time>2026-04-05T14:57:23Z</time></trkpt><trkpt lat="42.53565135479564" lon="-8.30157561085199"><ele>650.6</ele><time>2026-04-05T14:57:24Z</time></trkpt><trkpt lat="42.53573470529291" lon="-8.30162816463566"><ele>649.8000000000001</ele><time>2026-04-05T14:57:25Z</time></trkpt><trkpt lat="42.53581762268643" lon="-8.301686433680086"><ele>649.0</ele><time>2026-04-05T14:57:26Z</time></trkpt><trkpt lat="42.53589670065838" lon="-8.301763787717242"><ele>649.0</ele><time>2026-04-05T14:57:27Z</time></trkpt><trkpt lat="42.53597485197059" lon="-8.301857061051127"><ele>649.0</ele><time>2026-04-05T14:57:28Z</time></trkpt><trkpt lat="42.53605304408588" lon="-8.30195653330332"><ele>649.0</ele><time>2026-04-05T14:57:29Z</time></trkpt><trkpt lat="42.536128028891774" lon="-8.302065131423074"><ele>649.0</ele><time>2026-04-05T14:57:30Z</time></trkpt><trkpt lat="42.536192153228264" lon="-8.302180086324242"><ele>649.0</ele><time>2026-04-05T14:57:31Z</time></trkpt><trkpt lat="42.536245834531336" lon="-8.302293416707348"><ele>649.8000000000001</ele><time>2026-04-05T14:57:32Z</time></trkpt><trkpt lat="42.53629552042338" lon="-8.302403981973224"><ele>650.6</ele><time>2026-04-05T14:57:33Z</time></trkpt><trkpt lat="42.53633964427291" lon="-8.302522604103498"><ele>651.4</ele><time>2026-04-05T14:57:34Z</time></trkpt><trkpt lat="42.536382622603625" lon="-8.302636166209108"><ele>652.2</ele><time>2026-04-05T14:57:35Z</time></trkpt><trkpt lat="42.53641794674402" lon="-8.302754451782393"><ele>653.0</ele><time>2026-04-05T14:57:36Z</time></trkpt><trkpt lat="42.53645287951648" lon="-8.302886169214164"><ele>653.0</ele><time>2026-04-05T14:57:37Z</time></trkpt><trkpt lat="42.53648334524461" lon="-8.303037069756696"><ele>653.0</ele><time>2026-04-05T14:57:38Z</time></trkpt><trkpt lat="42.53651863680495" lon="-8.30319696947157"><ele>653.0</ele><time>2026-04-05T14:57:39Z</time></trkpt><trkpt lat="42.53655511051663" lon="-8.30335691508482"><ele>653.0</ele><time>2026-04-05T14:57:40Z</time></trkpt><trkpt lat="42.53657424427361" lon="-8.303523289684335"><ele>653.0</ele><time>2026-04-05T14:57:41Z</time></trkpt><trkpt lat="42.53660300303691" lon="-8.303674361146395"><ele>653.0</ele><time>2026-04-05T14:57:42Z</time></trkpt><trkpt lat="42.53662405770875" lon="-8.303830766490456"><ele>653.0</ele><time>2026-04-05T14:57:43Z</time></trkpt><trkpt lat="42.53664275992809" lon="-8.303990728388003"><ele>653.0</ele><time>2026-04-05T14:57:44Z</time></trkpt><trkpt lat="42.536658235432384" lon="-8.304143924130077"><ele>653.0</ele><time>2026-04-05T14:57:45Z</time></trkpt><trkpt lat="42.536672070784356" lon="-8.304291645437852"><ele>653.0</ele><time>2026-04-05T14:57:46Z</time></trkpt><trkpt lat="42.53668428959866" lon="-8.304434072910219"><ele>653.0</ele><time>2026-04-05T14:57:47Z</time></trkpt><trkpt lat="42.53669219879304" lon="-8.304572505314495"><ele>653.0</ele><time>2026-04-05T14:57:48Z</time></trkpt><trkpt lat="42.536692345700494" lon="-8.304710969678123"><ele>653.0</ele><time>2026-04-05T14:57:49Z</time></trkpt><trkpt lat="42.53668825696311" lon="-8.304843152120508"><ele>652.5999999999999</ele><time>2026-04-05T14:57:50Z</time></trkpt><trkpt lat="42.536679593542445" lon="-8.304978483290338"><ele>652.1999999999999</ele><time>2026-04-05T14:57:51Z</time></trkpt><trkpt lat="42.536668838564324" lon="-8.305109775713136"><ele>651.8</ele><time>2026-04-05T14:57:52Z</time></trkpt><trkpt lat="42.53665901615214" lon="-8.30524956484627"><ele>651.4</ele><time>2026-04-05T14:57:53Z</time></trkpt><trkpt lat="42.53665239222846" lon="-8.305395209905228"><ele>651.0</ele><time>2026-04-05T14:57:54Z</time></trkpt><trkpt lat="42.53664946163822" lon="-8.305543780157024"><ele>650.25</ele><time>2026-04-05T14:57:55Z</time></trkpt><trkpt lat="42.53664043975768" lon="-8.305684156577161"><ele>649.5</ele><time>2026-04-05T14:57:56Z</time></trkpt><trkpt lat="42.53662864873723" lon="-8.305847248696574"><ele>648.75</ele><time>2026-04-05T14:57:57Z</time></trkpt><trkpt lat="42.536619319541614" lon="-8.306023917546753"><ele>648.0</ele><time>2026-04-05T14:57:58Z</time></trkpt><trkpt lat="42.53660531523426" lon="-8.306212702999773"><ele>648.0</ele><time>2026-04-05T14:57:59Z</time></trkpt><trkpt lat="42.53659379866792" lon="-8.306392866098498"><ele>648.0</ele><time>2026-04-05T14:58:00Z</time></trkpt><trkpt lat="42.5365892953393" lon="-8.306575764213564"><ele>648.0</ele><time>2026-04-05T14:58:01Z</time></trkpt><trkpt lat="42.53660206820256" lon="-8.306765027710494"><ele>648.0</ele><time>2026-04-05T14:58:02Z</time></trkpt><trkpt lat="42.53663452723454" lon="-8.306952468922354"><ele>647.25</ele><time>2026-04-05T14:58:03Z</time></trkpt><trkpt lat="42.53667934908039" lon="-8.307121197842259"><ele>646.5</ele><time>2026-04-05T14:58:04Z</time></trkpt><trkpt lat="42.536748371279536" lon="-8.307275356003329"><ele>645.75</ele><time>2026-04-05T14:58:05Z</time></trkpt><trkpt lat="42.53682838911903" lon="-8.307415980700934"><ele>645.0</ele><time>2026-04-05T14:58:06Z</time></trkpt><trkpt lat="42.53692478247327" lon="-8.307536354518003"><ele>644.0</ele><time>2026-04-05T14:58:07Z</time></trkpt><trkpt lat="42.53704403611427" lon="-8.307651985754942"><ele>643.0</ele><time>2026-04-05T14:58:08Z</time></trkpt><trkpt lat="42.53717509721671" lon="-8.307769402719972"><ele>642.0</ele><time>2026-04-05T14:58:09Z</time></trkpt><trkpt lat="42.53732022273115" lon="-8.307882172459372"><ele>642.0</ele><time>2026-04-05T14:58:10Z</time></trkpt><trkpt lat="42.53747822227263" lon="-8.307994450742655"><ele>642.0</ele><time>2026-04-05T14:58:11Z</time></trkpt><trkpt lat="42.53764542958132" lon="-8.308098347380648"><ele>642.0</ele><time>2026-04-05T14:58:12Z</time></trkpt><trkpt lat="42.53782278348963" lon="-8.308202124771771"><ele>639.6666666666666</ele><time>2026-04-05T14:58:13Z</time></trkpt><trkpt lat="42.537997734204076" lon="-8.308317359618746"><ele>637.3333333333333</ele><time>2026-04-05T14:58:14Z</time></trkpt><trkpt lat="42.5381796094058" lon="-8.308442775433846"><ele>635.0</ele><time>2026-04-05T14:58:15Z</time></trkpt><trkpt lat="42.53836041692477" lon="-8.308573958188745"><ele>635.0</ele><time>2026-04-05T14:58:16Z</time></trkpt><trkpt lat="42.538535996815234" lon="-8.308703326116639"><ele>635.0</ele><time>2026-04-05T14:58:17Z</time></trkpt><trkpt lat="42.538703511575505" lon="-8.3088502273442"><ele>635.0</ele><time>2026-04-05T14:58:18Z</time></trkpt><trkpt lat="42.53886930030221" lon="-8.30901488057126"><ele>631.6666666666666</ele><time>2026-04-05T14:58:19Z</time></trkpt><trkpt lat="42.53903064124714" lon="-8.309198246817628"><ele>628.3333333333334</ele><time>2026-04-05T14:58:20Z</time></trkpt><trkpt lat="42.53919754496343" lon="-8.309385433260234"><ele>625.0</ele><time>2026-04-05T14:58:21Z</time></trkpt><trkpt lat="42.53936295621048" lon="-8.309563239180465"><ele>625.0</ele><time>2026-04-05T14:58:22Z</time></trkpt><trkpt lat="42.539515468020326" lon="-8.30973588538004"><ele>625.0</ele><time>2026-04-05T14:58:23Z</time></trkpt><trkpt lat="42.53966345532334" lon="-8.309901830687922"><ele>625.0</ele><time>2026-04-05T14:58:24Z</time></trkpt><trkpt lat="42.539813350041996" lon="-8.310063321731953"><ele>623.0</ele><time>2026-04-05T14:58:25Z</time></trkpt><trkpt lat="42.53996075595481" lon="-8.31023069596905"><ele>621.0</ele><time>2026-04-05T14:58:26Z</time></trkpt><trkpt lat="42.54010929996948" lon="-8.310403385127017"><ele>619.0</ele><time>2026-04-05T14:58:27Z</time></trkpt><trkpt lat="42.54025745899608" lon="-8.310570590305655"><ele>618.3333333333334</ele><time>2026-04-05T14:58:28Z</time></trkpt><trkpt lat="42.540390229253205" lon="-8.310742977025166"><ele>617.6666666666666</ele><time>2026-04-05T14:58:29Z</time></trkpt><trkpt lat="42.54051505743945" lon="-8.31093488874554"><ele>617.0</ele><time>2026-04-05T14:58:30Z</time></trkpt><trkpt lat="42.54062566747143" lon="-8.311144967394899"><ele>617.0</ele><time>2026-04-05T14:58:31Z</time></trkpt><trkpt lat="42.54071786959053" lon="-8.311371417754154"><ele>617.0</ele><time>2026-04-05T14:58:32Z</time></trkpt><trkpt lat="42.54079486971536" lon="-8.311618327098028"><ele>617.0</ele><time>2026-04-05T14:58:33Z</time></trkpt><trkpt lat="42.54084326964112" lon="-8.311880239944596"><ele>616.6666666666666</ele><time>2026-04-05T14:58:34Z</time></trkpt><trkpt lat="42.54087093454543" lon="-8.312150142681741"><ele>616.3333333333334</ele><time>2026-04-05T14:58:35Z</time></trkpt><trkpt lat="42.540882651978244" lon="-8.312425032101185"><ele>616.0</ele><time>2026-04-05T14:58:36Z</time></trkpt><trkpt lat="42.54087118189743" lon="-8.3126906720841"><ele>613.6666666666667</ele><time>2026-04-05T14:58:37Z</time></trkpt><trkpt lat="42.54083983339489" lon="-8.312943104588035"><ele>611.3333333333334</ele><time>2026-04-05T14:58:38Z</time></trkpt><trkpt lat="42.540781234536496" lon="-8.313181443408553"><ele>609.0</ele><time>2026-04-05T14:58:39Z</time></trkpt><trkpt lat="42.54069554509997" lon="-8.31341735443977"><ele>606.6666666666666</ele><time>2026-04-05T14:58:40Z</time></trkpt><trkpt lat="42.54057931607556" lon="-8.313651716357574"><ele>604.3333333333333</ele><time>2026-04-05T14:58:41Z</time></trkpt><trkpt lat="42.54045007937585" lon="-8.31388696515852"><ele>602.0</ele><time>2026-04-05T14:58:42Z</time></trkpt><trkpt lat="42.54030990002295" lon="-8.314124501904667"><ele>599.0</ele><time>2026-04-05T14:58:43Z</time></trkpt><trkpt lat="42.540160935905696" lon="-8.314360197147012"><ele>596.0</ele><time>2026-04-05T14:58:44Z</time></trkpt><trkpt lat="42.54000443400452" lon="-8.31459643423922"><ele>593.0</ele><time>2026-04-05T14:58:45Z</time></trkpt><trkpt lat="42.5398459119521" lon="-8.31484281192558"><ele>590.0</ele><time>2026-04-05T14:58:46Z</time></trkpt><trkpt lat="42.53969254572443" lon="-8.31509594504417"><ele>591.0</ele><time>2026-04-05T14:58:47Z</time></trkpt><trkpt lat="42.53953250764537" lon="-8.315346796157577"><ele>592.0</ele><time>2026-04-05T14:58:48Z</time></trkpt><trkpt lat="42.53937048675041" lon="-8.315593978086076"><ele>589.0</ele><time>2026-04-05T14:58:49Z</time></trkpt><trkpt lat="42.53920438584012" lon="-8.315842789505027"><ele>586.0</ele><time>2026-04-05T14:58:50Z</time></trkpt><trkpt lat="42.53903609823961" lon="-8.316092643147874"><ele>586.0</ele><time>2026-04-05T14:58:51Z</time></trkpt><trkpt lat="42.538868438931104" lon="-8.31634276839294"><ele>586.0</ele><time>2026-04-05T14:58:52Z</time></trkpt><trkpt lat="42.53870182605901" lon="-8.316598262060637"><ele>583.0</ele><time>2026-04-05T14:58:53Z</time></trkpt><trkpt lat="42.53853372269049" lon="-8.316850433494334"><ele>580.0</ele><time>2026-04-05T14:58:54Z</time></trkpt><trkpt lat="42.538368307700665" lon="-8.317109768409091"><ele>580.5</ele><time>2026-04-05T14:58:55Z</time></trkpt><trkpt lat="42.5382194305671" lon="-8.317384060302173"><ele>581.0</ele><time>2026-04-05T14:58:56Z</time></trkpt><trkpt lat="42.5380892957264" lon="-8.317670859959115"><ele>581.0</ele><time>2026-04-05T14:58:57Z</time></trkpt><trkpt lat="42.53798069085398" lon="-8.317976048067266"><ele>581.0</ele><time>2026-04-05T14:58:58Z</time></trkpt><trkpt lat="42.5378976538005" lon="-8.31829415152016"><ele>579.0</ele><time>2026-04-05T14:58:59Z</time></trkpt><trkpt lat="42.53784097601609" lon="-8.318622569093792"><ele>577.0</ele><time>2026-04-05T14:59:00Z</time></trkpt><trkpt lat="42.537801425758" lon="-8.318952143029897"><ele>576.0</ele><time>2026-04-05T14:59:01Z</time></trkpt><trkpt lat="42.537773353171545" lon="-8.319287550060082"><ele>575.0</ele><time>2026-04-05T14:59:02Z</time></trkpt><trkpt lat="42.53775331038271" lon="-8.31962628110924"><ele>573.5</ele><time>2026-04-05T14:59:03Z</time></trkpt><trkpt lat="42.537730174935064" lon="-8.31996490058976"><ele>572.0</ele><time>2026-04-05T14:59:04Z</time></trkpt><trkpt lat="42.53770041647912" lon="-8.320307033369499"><ele>570.5</ele><time>2026-04-05T14:59:05Z</time></trkpt><trkpt lat="42.5376744478195" lon="-8.320651175209262"><ele>569.0</ele><time>2026-04-05T14:59:06Z</time></trkpt><trkpt lat="42.53765115900046" lon="-8.320974382627053"><ele>569.0</ele><time>2026-04-05T14:59:07Z</time></trkpt><trkpt lat="42.53762348480635" lon="-8.321316116710456"><ele>569.0</ele><time>2026-04-05T14:59:08Z</time></trkpt><trkpt lat="42.53759910731289" lon="-8.321649388302443"><ele>569.0</ele><time>2026-04-05T14:59:09Z</time></trkpt><trkpt lat="42.53758375224233" lon="-8.321973256960936"><ele>569.0</ele><time>2026-04-05T14:59:10Z</time></trkpt><trkpt lat="42.53758677647145" lon="-8.322301550443685"><ele>571.0</ele><time>2026-04-05T14:59:11Z</time></trkpt><trkpt lat="42.53761390363949" lon="-8.322620451223436"><ele>573.0</ele><time>2026-04-05T14:59:12Z</time></trkpt><trkpt lat="42.537667001522415" lon="-8.322934689314515"><ele>572.0</ele><time>2026-04-05T14:59:13Z</time></trkpt><trkpt lat="42.537743637854476" lon="-8.323224998505605"><ele>571.0</ele><time>2026-04-05T14:59:14Z</time></trkpt><trkpt lat="42.53784824479795" lon="-8.323507141850282"><ele>571.5</ele><time>2026-04-05T14:59:15Z</time></trkpt><trkpt lat="42.537963811274594" lon="-8.323777939682483"><ele>572.0</ele><time>2026-04-05T14:59:16Z</time></trkpt><trkpt lat="42.538089083418235" lon="-8.324040469413838"><ele>572.0</ele><time>2026-04-05T14:59:17Z</time></trkpt><trkpt lat="42.53821293517655" lon="-8.32429357929551"><ele>572.0</ele><time>2026-04-05T14:59:18Z</time></trkpt><trkpt lat="42.53834667840113" lon="-8.324549384914242"><ele>571.5</ele><time>2026-04-05T14:59:19Z</time></trkpt><trkpt lat="42.538484305197606" lon="-8.324799785560108"><ele>571.0</ele><time>2026-04-05T14:59:20Z</time></trkpt><trkpt lat="42.53862076366476" lon="-8.325053487950752"><ele>571.0</ele><time>2026-04-05T14:59:21Z</time></trkpt><trkpt lat="42.53876164360514" lon="-8.325309893598343"><ele>571.0</ele><time>2026-04-05T14:59:22Z</time></trkpt><trkpt lat="42.53889795734647" lon="-8.325565588022808"><ele>569.0</ele><time>2026-04-05T14:59:23Z</time></trkpt><trkpt lat="42.53903565601624" lon="-8.325828578596488"><ele>567.0</ele><time>2026-04-05T14:59:24Z</time></trkpt><trkpt lat="42.53917411462637" lon="-8.32608782698572"><ele>567.0</ele><time>2026-04-05T14:59:25Z</time></trkpt><trkpt lat="42.53931680392216" lon="-8.326355211709759"><ele>567.0</ele><time>2026-04-05T14:59:26Z</time></trkpt><trkpt lat="42.53945780679263" lon="-8.326616070175046"><ele>569.5</ele><time>2026-04-05T14:59:27Z</time></trkpt><trkpt lat="42.539601609563626" lon="-8.32686336394504"><ele>572.0</ele><time>2026-04-05T14:59:28Z</time></trkpt><trkpt lat="42.53975980783003" lon="-8.32709378403905"><ele>569.5</ele><time>2026-04-05T14:59:29Z</time></trkpt><trkpt lat="42.53992621456546" lon="-8.327304857131411"><ele>567.0</ele><time>2026-04-05T14:59:30Z</time></trkpt><trkpt lat="42.54010342957925" lon="-8.327501940821985"><ele>567.0</ele><time>2026-04-05T14:59:31Z</time></trkpt><trkpt lat="42.54028775763927" lon="-8.327679867408605"><ele>567.0</ele><time>2026-04-05T14:59:32Z</time></trkpt><trkpt lat="42.540470210364575" lon="-8.327852889046042"><ele>567.0</ele><time>2026-04-05T14:59:33Z</time></trkpt><trkpt lat="42.540637667036755" lon="-8.328023042334607"><ele>566.0</ele><time>2026-04-05T14:59:34Z</time></trkpt><trkpt lat="42.54079556767687" lon="-8.32819213031686"><ele>565.0</ele><time>2026-04-05T14:59:35Z</time></trkpt><trkpt lat="42.54093768411646" lon="-8.328367560160185"><ele>564.0</ele><time>2026-04-05T14:59:36Z</time></trkpt><trkpt lat="42.541065994877165" lon="-8.328561752593084"><ele>564.0</ele><time>2026-04-05T14:59:37Z</time></trkpt><trkpt lat="42.5411781752385" lon="-8.328775976655683"><ele>564.0</ele><time>2026-04-05T14:59:38Z</time></trkpt><trkpt lat="42.541271808227954" lon="-8.3290012827105"><ele>564.0</ele><time>2026-04-05T14:59:39Z</time></trkpt><trkpt lat="42.54136723630408" lon="-8.329229021981167"><ele>565.0</ele><time>2026-04-05T14:59:40Z</time></trkpt><trkpt lat="42.54145937797014" lon="-8.329472672733257"><ele>566.0</ele><time>2026-04-05T14:59:41Z</time></trkpt><trkpt lat="42.54152860158126" lon="-8.329730551727769"><ele>567.0</ele><time>2026-04-05T14:59:42Z</time></trkpt><trkpt lat="42.54158459737433" lon="-8.33000518308738"><ele>567.0</ele><time>2026-04-05T14:59:43Z</time></trkpt><trkpt lat="42.541629576326" lon="-8.330280228228583"><ele>567.0</ele><time>2026-04-05T14:59:44Z</time></trkpt><trkpt lat="42.54165654731843" lon="-8.330563012658445"><ele>567.0</ele><time>2026-04-05T14:59:45Z</time></trkpt><trkpt lat="42.54165948462325" lon="-8.330852845071258"><ele>566.6666666666666</ele><time>2026-04-05T14:59:46Z</time></trkpt><trkpt lat="42.5416410750659" lon="-8.331143297488634"><ele>566.3333333333333</ele><time>2026-04-05T14:59:47Z</time></trkpt><trkpt lat="42.54160398542704" lon="-8.331427521485823"><ele>566.0</ele><time>2026-04-05T14:59:48Z</time></trkpt><trkpt lat="42.54154146150221" lon="-8.331707650769923"><ele>566.0</ele><time>2026-04-05T14:59:49Z</time></trkpt><trkpt lat="42.5414628791981" lon="-8.331984029794079"><ele>566.0</ele><time>2026-04-05T14:59:50Z</time></trkpt><trkpt lat="42.541372407696755" lon="-8.332235620690865"><ele>566.0</ele><time>2026-04-05T14:59:51Z</time></trkpt><trkpt lat="42.5412557772599" lon="-8.332489808272673"><ele>564.6666666666666</ele><time>2026-04-05T14:59:52Z</time></trkpt><trkpt lat="42.54112964650698" lon="-8.33272806914073"><ele>563.3333333333334</ele><time>2026-04-05T14:59:53Z</time></trkpt><trkpt lat="42.54098813794493" lon="-8.332950008553494"><ele>562.0</ele><time>2026-04-05T14:59:54Z</time></trkpt><trkpt lat="42.54083307037979" lon="-8.333159571549762"><ele>562.6666666666667</ele><time>2026-04-05T14:59:55Z</time></trkpt><trkpt lat="42.54066414925532" lon="-8.333345237576017"><ele>563.3333333333334</ele><time>2026-04-05T14:59:56Z</time></trkpt><trkpt lat="42.540484165322304" lon="-8.33351280153107"><ele>564.0</ele><time>2026-04-05T14:59:57Z</time></trkpt><trkpt lat="42.54030945499167" lon="-8.333673654655245"><ele>564.0</ele><time>2026-04-05T14:59:58Z</time></trkpt><trkpt lat="42.54012305786737" lon="-8.333830632593653"><ele>564.0</ele><time>2026-04-05T14:59:59Z</time></trkpt><trkpt lat="42.539935947021874" lon="-8.333986755018136"><ele>564.0</ele><time>2026-04-05T15:00:00Z</time></trkpt><trkpt lat="42.539760758843194" lon="-8.334150631575321"><ele>566.3333333333334</ele><time>2026-04-05T15:00:01Z</time></trkpt><trkpt lat="42.539606462984516" lon="-8.334347733263236"><ele>568.6666666666667</ele><time>2026-04-05T15:00:02Z</time></trkpt><trkpt lat="42.53947325378023" lon="-8.334574515722766"><ele>571.0</ele><time>2026-04-05T15:00:03Z</time></trkpt><trkpt lat="42.539366631052744" lon="-8.334830723589187"><ele>571.3333333333334</ele><time>2026-04-05T15:00:04Z</time></trkpt><trkpt lat="42.53928988993484" lon="-8.335103976155787"><ele>571.6666666666666</ele><time>2026-04-05T15:00:05Z</time></trkpt><trkpt lat="42.539238600835205" lon="-8.335388907793364"><ele>572.0</ele><time>2026-04-05T15:00:06Z</time></trkpt><trkpt lat="42.539212167104715" lon="-8.335682686583247"><ele>572.0</ele><time>2026-04-05T15:00:07Z</time></trkpt><trkpt lat="42.53921888225441" lon="-8.335978785035264"><ele>572.0</ele><time>2026-04-05T15:00:08Z</time></trkpt><trkpt lat="42.53925284056394" lon="-8.33627641624326"><ele>572.0</ele><time>2026-04-05T15:00:09Z</time></trkpt><trkpt lat="42.53931213177883" lon="-8.336574307721655"><ele>571.0</ele><time>2026-04-05T15:00:10Z</time></trkpt><trkpt lat="42.53940439017056" lon="-8.33685775262903"><ele>570.0</ele><time>2026-04-05T15:00:11Z</time></trkpt><trkpt lat="42.53952857006702" lon="-8.337123600664981"><ele>573.5</ele><time>2026-04-05T15:00:12Z</time></trkpt><trkpt lat="42.53967734532078" lon="-8.337366936745203"><ele>577.0</ele><time>2026-04-05T15:00:13Z</time></trkpt><trkpt lat="42.53984006068267" lon="-8.337590944231192"><ele>577.0</ele><time>2026-04-05T15:00:14Z</time></trkpt><trkpt lat="42.540003102974595" lon="-8.337820636179869"><ele>577.0</ele><time>2026-04-05T15:00:15Z</time></trkpt><trkpt lat="42.54015862687632" lon="-8.338053983299876"><ele>577.6666666666667</ele><time>2026-04-05T15:00:16Z</time></trkpt><trkpt lat="42.54030362995987" lon="-8.338281775237757"><ele>578.3333333333334</ele><time>2026-04-05T15:00:17Z</time></trkpt><trkpt lat="42.5404422698039" lon="-8.338499105773407"><ele>579.0</ele><time>2026-04-05T15:00:18Z</time></trkpt><trkpt lat="42.54057836396117" lon="-8.338711122245064"><ele>575.0</ele><time>2026-04-05T15:00:19Z</time></trkpt><trkpt lat="42.54071462620927" lon="-8.338918807276997"><ele>571.0</ele><time>2026-04-05T15:00:20Z</time></trkpt><trkpt lat="42.5408518890965" lon="-8.339112427916195"><ele>567.0</ele><time>2026-04-05T15:00:21Z</time></trkpt><trkpt lat="42.540983435152214" lon="-8.339305298119207"><ele>567.0</ele><time>2026-04-05T15:00:22Z</time></trkpt><trkpt lat="42.54112283116668" lon="-8.33949031977016"><ele>567.0</ele><time>2026-04-05T15:00:23Z</time></trkpt><trkpt lat="42.54127837203588" lon="-8.339647797886192"><ele>567.0</ele><time>2026-04-05T15:00:24Z</time></trkpt><trkpt lat="42.54144233067526" lon="-8.339789256756694"><ele>566.6666666666666</ele><time>2026-04-05T15:00:25Z</time></trkpt><trkpt lat="42.54160911083776" lon="-8.339922790090817"><ele>566.3333333333333</ele><time>2026-04-05T15:00:26Z</time></trkpt><trkpt lat="42.54178476607526" lon="-8.34005081131761"><ele>566.0</ele><time>2026-04-05T15:00:27Z</time></trkpt><trkpt lat="42.54196458635063" lon="-8.340169309821144"><ele>564.6666666666666</ele><time>2026-04-05T15:00:28Z</time></trkpt><trkpt lat="42.54214848700741" lon="-8.340285061638703"><ele>563.3333333333334</ele><time>2026-04-05T15:00:29Z</time></trkpt><trkpt lat="42.5423217975677" lon="-8.340428226343883"><ele>562.0</ele><time>2026-04-05T15:00:30Z</time></trkpt><trkpt lat="42.54249223304556" lon="-8.340588222628655"><ele>562.0</ele><time>2026-04-05T15:00:31Z</time></trkpt><trkpt lat="42.542658106776365" lon="-8.34076308309537"><ele>562.0</ele><time>2026-04-05T15:00:32Z</time></trkpt><trkpt lat="42.542803977377254" lon="-8.340962883245899"><ele>562.0</ele><time>2026-04-05T15:00:33Z</time></trkpt><trkpt lat="42.542925260696656" lon="-8.34119523700381"><ele>564.0</ele><time>2026-04-05T15:00:34Z</time></trkpt><trkpt lat="42.54302022044713" lon="-8.341449875847973"><ele>566.0</ele><time>2026-04-05T15:00:35Z</time></trkpt><trkpt lat="42.5430884518346" lon="-8.34171886402616"><ele>568.0</ele><time>2026-04-05T15:00:36Z</time></trkpt><trkpt lat="42.543132185137345" lon="-8.34200225507985"><ele>566.3333333333334</ele><time>2026-04-05T15:00:37Z</time></trkpt><trkpt lat="42.543152256039896" lon="-8.342291756744059"><ele>564.6666666666666</ele><time>2026-04-05T15:00:38Z</time></trkpt><trkpt lat="42.54314634580588" lon="-8.342580458064264"><ele>563.0</ele><time>2026-04-05T15:00:39Z</time></trkpt><trkpt lat="42.543120539046356" lon="-8.342874140580271"><ele>562.6666666666666</ele><time>2026-04-05T15:00:40Z</time></trkpt><trkpt lat="42.54306821599388" lon="-8.343163528627365"><ele>562.3333333333334</ele><time>2026-04-05T15:00:41Z</time></trkpt><trkpt lat="42.542994432187314" lon="-8.343447310089317"><ele>562.0</ele><time>2026-04-05T15:00:42Z</time></trkpt><trkpt lat="42.5429160394147" lon="-8.343732143566529"><ele>562.0</ele><time>2026-04-05T15:00:43Z</time></trkpt><trkpt lat="42.54287928084306" lon="-8.344018280597657"><ele>562.0</ele><time>2026-04-05T15:00:44Z</time></trkpt><trkpt lat="42.54290479423464" lon="-8.344312087067575"><ele>562.0</ele><time>2026-04-05T15:00:45Z</time></trkpt><trkpt lat="42.54291722532301" lon="-8.34462004853182"><ele>556.5</ele><time>2026-04-05T15:00:46Z</time></trkpt><trkpt lat="42.54295700258482" lon="-8.344930511278973"><ele>551.0</ele><time>2026-04-05T15:00:47Z</time></trkpt><trkpt lat="42.54299146418887" lon="-8.345244701048104"><ele>549.5</ele><time>2026-04-05T15:00:48Z</time></trkpt><trkpt lat="42.54301088567691" lon="-8.345562095268416"><ele>548.0</ele><time>2026-04-05T15:00:49Z</time></trkpt><trkpt lat="42.543035468391416" lon="-8.345886829901513"><ele>548.0</ele><time>2026-04-05T15:00:49.999Z</time></trkpt><trkpt lat="42.543056332436635" lon="-8.346195926156774"><ele>548.0</ele><time>2026-04-05T15:00:50.999Z</time></trkpt><trkpt lat="42.5430827346623" lon="-8.346484286788378"><ele>548.0</ele><time>2026-04-05T15:00:51.999Z</time></trkpt><trkpt lat="42.54310548586076" lon="-8.346766671645518"><ele>547.3333333333333</ele><time>2026-04-05T15:00:52.999Z</time></trkpt><trkpt lat="42.54313871240822" lon="-8.347043855147101"><ele>546.6666666666666</ele><time>2026-04-05T15:00:53.999Z</time></trkpt><trkpt lat="42.54316388203513" lon="-8.347335902213937"><ele>546.0</ele><time>2026-04-05T15:00:54.999Z</time></trkpt><trkpt lat="42.5432152408689" lon="-8.347635776218574"><ele>543.0</ele><time>2026-04-05T15:00:55.999Z</time></trkpt><trkpt lat="42.543257709333325" lon="-8.347938684016828"><ele>540.0</ele><time>2026-04-05T15:00:56.999Z</time></trkpt><trkpt lat="42.54333377246229" lon="-8.348235629987176"><ele>537.5</ele><time>2026-04-05T15:00:57.999Z</time></trkpt><trkpt lat="42.54343043801993" lon="-8.348530970212016"><ele>535.0</ele><time>2026-04-05T15:00:58.999Z</time></trkpt><trkpt lat="42.54351944406524" lon="-8.348812654779339"><ele>535.3333333333334</ele><time>2026-04-05T15:00:59.999Z</time></trkpt><trkpt lat="42.5436073129984" lon="-8.349076202702923"><ele>535.6666666666666</ele><time>2026-04-05T15:01:00.999Z</time></trkpt><trkpt lat="42.54367113920725" lon="-8.349340894735533"><ele>536.0</ele><time>2026-04-05T15:01:01.999Z</time></trkpt><trkpt lat="42.54372689667414" lon="-8.349591616705872"><ele>535.6666666666666</ele><time>2026-04-05T15:01:02.999Z</time></trkpt><trkpt lat="42.54377224475786" lon="-8.349839468036219"><ele>535.3333333333334</ele><time>2026-04-05T15:01:03.999Z</time></trkpt><trkpt lat="42.54379873314542" lon="-8.350064134077586"><ele>535.0</ele><time>2026-04-05T15:01:04.999Z</time></trkpt><trkpt lat="42.54380438063976" lon="-8.35030255165411"><ele>534.6666666666667</ele><time>2026-04-05T15:01:05.999Z</time></trkpt><trkpt lat="42.54379325629928" lon="-8.350541493699394"><ele>534.3333333333334</ele><time>2026-04-05T15:01:06.999Z</time></trkpt><trkpt lat="42.54376860130179" lon="-8.350775017032634"><ele>534.0</ele><time>2026-04-05T15:01:07.999Z</time></trkpt><trkpt lat="42.543743521098556" lon="-8.35101240274734"><ele>534.0</ele><time>2026-04-05T15:01:08.999Z</time></trkpt><trkpt lat="42.54371593277031" lon="-8.351250270132331"><ele>534.0</ele><time>2026-04-05T15:01:09.999Z</time></trkpt><trkpt lat="42.543682005445795" lon="-8.351492633932066"><ele>534.0</ele><time>2026-04-05T15:01:10.999Z</time></trkpt><trkpt lat="42.54364030476273" lon="-8.351736108306042"><ele>533.6666666666666</ele><time>2026-04-05T15:01:11.999Z</time></trkpt><trkpt lat="42.54359716702785" lon="-8.351980572191042"><ele>533.3333333333333</ele><time>2026-04-05T15:01:12.999Z</time></trkpt><trkpt lat="42.543558339756665" lon="-8.352224224941132"><ele>533.0</ele><time>2026-04-05T15:01:13.999Z</time></trkpt><trkpt lat="42.54352883175949" lon="-8.352469945597791"><ele>533.0</ele><time>2026-04-05T15:01:14.999Z</time></trkpt><trkpt lat="42.54350390842804" lon="-8.352713924016179"><ele>533.0</ele><time>2026-04-05T15:01:15.999Z</time></trkpt><trkpt lat="42.54348263621253" lon="-8.352948181610364"><ele>533.0</ele><time>2026-04-05T15:01:16.999Z</time></trkpt><trkpt lat="42.543465831108456" lon="-8.353178141262351"><ele>532.6666666666666</ele><time>2026-04-05T15:01:17.999Z</time></trkpt><trkpt lat="42.54345149753143" lon="-8.35340678587791"><ele>532.3333333333334</ele><time>2026-04-05T15:01:18.999Z</time></trkpt><trkpt lat="42.543441757007585" lon="-8.353632748297212"><ele>532.0</ele><time>2026-04-05T15:01:20Z</time></trkpt><trkpt lat="42.54343764066752" lon="-8.353854497953941"><ele>530.6666666666667</ele><time>2026-04-05T15:01:21Z</time></trkpt><trkpt lat="42.54343017496114" lon="-8.354077390901393"><ele>529.3333333333334</ele><time>2026-04-05T15:01:22Z</time></trkpt><trkpt lat="42.543410752269864" lon="-8.354291879227718"><ele>528.0</ele><time>2026-04-05T15:01:23Z</time></trkpt><trkpt lat="42.54338202400187" lon="-8.354508723612765"><ele>526.6666666666666</ele><time>2026-04-05T15:01:24Z</time></trkpt><trkpt lat="42.54334015907899" lon="-8.354725516856625"><ele>525.3333333333333</ele><time>2026-04-05T15:01:25Z</time></trkpt><trkpt lat="42.54328918893236" lon="-8.354940492688772"><ele>524.0</ele><time>2026-04-05T15:01:26Z</time></trkpt><trkpt lat="42.54323060482557" lon="-8.355150392474064"><ele>524.0</ele><time>2026-04-05T15:01:27Z</time></trkpt><trkpt lat="42.543158696292025" lon="-8.35536132245554"><ele>524.0</ele><time>2026-04-05T15:01:28Z</time></trkpt><trkpt lat="42.543076363781346" lon="-8.35557146844029"><ele>524.0</ele><time>2026-04-05T15:01:29Z</time></trkpt><trkpt lat="42.54298382166967" lon="-8.355779130367376"><ele>523.3333333333333</ele><time>2026-04-05T15:01:30Z</time></trkpt><trkpt lat="42.54288405763986" lon="-8.355984146922093"><ele>522.6666666666666</ele><time>2026-04-05T15:01:31Z</time></trkpt><trkpt lat="42.542778755672195" lon="-8.356189114413947"><ele>522.0</ele><time>2026-04-05T15:01:32Z</time></trkpt><trkpt lat="42.54267758916863" lon="-8.356395113510388"><ele>521.0</ele><time>2026-04-05T15:01:33Z</time></trkpt><trkpt lat="42.54257393546316" lon="-8.356608164982655"><ele>520.0</ele><time>2026-04-05T15:01:34Z</time></trkpt><trkpt lat="42.54247485113105" lon="-8.35682377745023"><ele>519.0</ele><time>2026-04-05T15:01:35Z</time></trkpt><trkpt lat="42.54237824179931" lon="-8.357045376098586"><ele>517.6666666666666</ele><time>2026-04-05T15:01:36Z</time></trkpt><trkpt lat="42.54228154805084" lon="-8.35726958799849"><ele>516.3333333333333</ele><time>2026-04-05T15:01:37Z</time></trkpt><trkpt lat="42.54217862751704" lon="-8.357491424332455"><ele>515.0</ele><time>2026-04-05T15:01:38Z</time></trkpt><trkpt lat="42.5420721331056" lon="-8.357710412204373"><ele>512.6666666666666</ele><time>2026-04-05T15:01:39Z</time></trkpt><trkpt lat="42.54196959538342" lon="-8.357920060229937"><ele>510.33333333333337</ele><time>2026-04-05T15:01:40Z</time></trkpt><trkpt lat="42.541875501421494" lon="-8.358125209040265"><ele>508.0</ele><time>2026-04-05T15:01:41Z</time></trkpt><trkpt lat="42.54179427765762" lon="-8.358331679599429"><ele>508.0</ele><time>2026-04-05T15:01:42Z</time></trkpt><trkpt lat="42.54172756660365" lon="-8.358543119185729"><ele>508.0</ele><time>2026-04-05T15:01:43Z</time></trkpt><trkpt lat="42.541676911023586" lon="-8.358768216999538"><ele>508.0</ele><time>2026-04-05T15:01:44Z</time></trkpt><trkpt lat="42.54164236028105" lon="-8.359005560881055"><ele>508.6666666666667</ele><time>2026-04-05T15:01:45Z</time></trkpt><trkpt lat="42.54161400807706" lon="-8.359245780034914"><ele>509.33333333333337</ele><time>2026-04-05T15:01:46Z</time></trkpt><trkpt lat="42.54159821577432" lon="-8.359480918705541"><ele>510.0</ele><time>2026-04-05T15:01:47Z</time></trkpt><trkpt lat="42.541581760223785" lon="-8.359719446289516"><ele>508.33333333333337</ele><time>2026-04-05T15:01:48Z</time></trkpt><trkpt lat="42.54156926017524" lon="-8.359954431447198"><ele>506.6666666666667</ele><time>2026-04-05T15:01:49Z</time></trkpt><trkpt lat="42.5415464870504" lon="-8.36019111719757"><ele>505.0</ele><time>2026-04-05T15:01:50Z</time></trkpt><trkpt lat="42.541503619233715" lon="-8.36042271456374"><ele>506.6666666666667</ele><time>2026-04-05T15:01:51Z</time></trkpt><trkpt lat="42.54144455004091" lon="-8.360649328476534"><ele>508.33333333333337</ele><time>2026-04-05T15:01:52Z</time></trkpt><trkpt lat="42.54136815360158" lon="-8.360866747709556"><ele>510.0</ele><time>2026-04-05T15:01:53Z</time></trkpt><trkpt lat="42.5412822069353" lon="-8.361074019919256"><ele>510.66666666666663</ele><time>2026-04-05T15:01:54Z</time></trkpt><trkpt lat="42.541189842971605" lon="-8.361272760880157"><ele>511.3333333333333</ele><time>2026-04-05T15:01:55Z</time></trkpt><trkpt lat="42.541084258572084" lon="-8.36147003905281"><ele>512.0</ele><time>2026-04-05T15:01:56Z</time></trkpt><trkpt lat="42.540977876324675" lon="-8.361652058979168"><ele>512.0</ele><time>2026-04-05T15:01:57Z</time></trkpt><trkpt lat="42.54086724859016" lon="-8.36183515257633"><ele>512.0</ele><time>2026-04-05T15:01:58Z</time></trkpt><trkpt lat="42.54076124770572" lon="-8.362021523424247"><ele>512.0</ele><time>2026-04-05T15:01:59Z</time></trkpt><trkpt lat="42.540655820124485" lon="-8.362208319237066"><ele>510.3333333333333</ele><time>2026-04-05T15:02:00Z</time></trkpt><trkpt lat="42.54055228163618" lon="-8.362392216254246"><ele>508.66666666666663</ele><time>2026-04-05T15:02:01Z</time></trkpt><trkpt lat="42.54044811588008" lon="-8.36256679322127"><ele>507.0</ele><time>2026-04-05T15:02:02Z</time></trkpt><trkpt lat="42.5403424485403" lon="-8.362745250441431"><ele>507.0</ele><time>2026-04-05T15:02:03Z</time></trkpt><trkpt lat="42.540231728149095" lon="-8.362923214782858"><ele>507.0</ele><time>2026-04-05T15:02:04Z</time></trkpt><trkpt lat="42.54012136674275" lon="-8.36308999253621"><ele>507.0</ele><time>2026-04-05T15:02:05Z</time></trkpt><trkpt lat="42.53999877187784" lon="-8.363252372328374"><ele>510.0</ele><time>2026-04-05T15:02:06Z</time></trkpt><trkpt lat="42.5398690576924" lon="-8.363412146448884"><ele>513.0</ele><time>2026-04-05T15:02:07Z</time></trkpt><trkpt lat="42.5397409059423" lon="-8.36357464264498"><ele>516.0</ele><time>2026-04-05T15:02:08Z</time></trkpt><trkpt lat="42.53961004914514" lon="-8.363739479618966"><ele>512.6666666666666</ele><time>2026-04-05T15:02:09Z</time></trkpt><trkpt lat="42.53947540506159" lon="-8.363909730049633"><ele>509.3333333333333</ele><time>2026-04-05T15:02:10Z</time></trkpt><trkpt lat="42.539344716231085" lon="-8.36408526980139"><ele>506.0</ele><time>2026-04-05T15:02:11Z</time></trkpt><trkpt lat="42.53921076887657" lon="-8.364267534885068"><ele>506.0</ele><time>2026-04-05T15:02:12Z</time></trkpt><trkpt lat="42.539086874163736" lon="-8.364457501481757"><ele>506.0</ele><time>2026-04-05T15:02:13Z</time></trkpt><trkpt lat="42.53897835023931" lon="-8.364662666997278"><ele>506.0</ele><time>2026-04-05T15:02:14Z</time></trkpt><trkpt lat="42.53887945102066" lon="-8.364891139311338"><ele>509.0</ele><time>2026-04-05T15:02:15Z</time></trkpt><trkpt lat="42.53881408038799" lon="-8.365129507805346"><ele>512.0</ele><time>2026-04-05T15:02:16Z</time></trkpt><trkpt lat="42.53877651771932" lon="-8.365368314060555"><ele>515.0</ele><time>2026-04-05T15:02:17Z</time></trkpt><trkpt lat="42.538762642269994" lon="-8.365618577499507"><ele>515.0</ele><time>2026-04-05T15:02:18Z</time></trkpt><trkpt lat="42.53878016182788" lon="-8.365866288150869"><ele>515.0</ele><time>2026-04-05T15:02:19Z</time></trkpt><trkpt lat="42.53880741410003" lon="-8.36611354005519"><ele>515.0</ele><time>2026-04-05T15:02:20Z</time></trkpt><trkpt lat="42.53883715434132" lon="-8.366349411135714"><ele>512.0</ele><time>2026-04-05T15:02:21Z</time></trkpt><trkpt lat="42.53886544352829" lon="-8.366576532038863"><ele>509.0</ele><time>2026-04-05T15:02:22Z</time></trkpt><trkpt lat="42.53889486768277" lon="-8.366796422861201"><ele>506.0</ele><time>2026-04-05T15:02:23Z</time></trkpt><trkpt lat="42.53894049303708" lon="-8.36701099882137"><ele>503.3333333333333</ele><time>2026-04-05T15:02:24Z</time></trkpt><trkpt lat="42.53900496416037" lon="-8.367221741122416"><ele>500.66666666666663</ele><time>2026-04-05T15:02:25Z</time></trkpt><trkpt lat="42.53908370096813" lon="-8.367423376620707"><ele>498.0</ele><time>2026-04-05T15:02:26Z</time></trkpt><trkpt lat="42.539189625168355" lon="-8.367606542494178"><ele>498.0</ele><time>2026-04-05T15:02:27Z</time></trkpt><trkpt lat="42.53931646705604" lon="-8.367766686274011"><ele>498.0</ele><time>2026-04-05T15:02:28Z</time></trkpt><trkpt lat="42.53946129233102" lon="-8.367903626368067"><ele>498.0</ele><time>2026-04-05T15:02:29Z</time></trkpt><trkpt lat="42.539610245899844" lon="-8.36802458534433"><ele>496.33333333333337</ele><time>2026-04-05T15:02:30Z</time></trkpt><trkpt lat="42.539751749114146" lon="-8.368146912863166"><ele>494.6666666666667</ele><time>2026-04-05T15:02:31Z</time></trkpt><trkpt lat="42.5399025746058" lon="-8.368282971274166"><ele>493.0</ele><time>2026-04-05T15:02:32Z</time></trkpt><trkpt lat="42.54004682400756" lon="-8.368416485861145"><ele>493.0</ele><time>2026-04-05T15:02:33Z</time></trkpt><trkpt lat="42.540185960199246" lon="-8.368566798532969"><ele>493.0</ele><time>2026-04-05T15:02:34Z</time></trkpt><trkpt lat="42.540326867896866" lon="-8.368718888202961"><ele>493.0</ele><time>2026-04-05T15:02:35Z</time></trkpt><trkpt lat="42.54046471521894" lon="-8.36887569769178"><ele>489.33333333333337</ele><time>2026-04-05T15:02:36Z</time></trkpt><trkpt lat="42.54059906700471" lon="-8.369044763884492"><ele>485.66666666666663</ele><time>2026-04-05T15:02:37Z</time></trkpt><trkpt lat="42.54073541352078" lon="-8.369214903069425"><ele>482.0</ele><time>2026-04-05T15:02:38Z</time></trkpt><trkpt lat="42.54086270458921" lon="-8.36939177558194"><ele>482.0</ele><time>2026-04-05T15:02:39Z</time></trkpt><trkpt lat="42.54098322066806" lon="-8.36958606175229"><ele>482.0</ele><time>2026-04-05T15:02:40Z</time></trkpt><trkpt lat="42.54109315414398" lon="-8.369791522575012"><ele>482.0</ele><time>2026-04-05T15:02:41Z</time></trkpt><trkpt lat="42.54118983451767" lon="-8.370007923423527"><ele>481.66666666666663</ele><time>2026-04-05T15:02:42Z</time></trkpt><trkpt lat="42.541269406560424" lon="-8.370236503526774"><ele>481.33333333333337</ele><time>2026-04-05T15:02:43Z</time></trkpt><trkpt lat="42.54131723254352" lon="-8.37048308486981"><ele>481.0</ele><time>2026-04-05T15:02:44Z</time></trkpt><trkpt lat="42.54135881475643" lon="-8.370730719281001"><ele>481.0</ele><time>2026-04-05T15:02:45Z</time></trkpt><trkpt lat="42.541375623848666" lon="-8.37097856635789"><ele>481.0</ele><time>2026-04-05T15:02:46Z</time></trkpt><trkpt lat="42.54137450315789" lon="-8.371228839161635"><ele>481.0</ele><time>2026-04-05T15:02:47Z</time></trkpt><trkpt lat="42.541355762807186" lon="-8.371482788696648"><ele>478.6666666666667</ele><time>2026-04-05T15:02:48Z</time></trkpt><trkpt lat="42.54132344001694" lon="-8.37173387408628"><ele>476.33333333333337</ele><time>2026-04-05T15:02:49Z</time></trkpt><trkpt lat="42.541273745680854" lon="-8.371975569833527"><ele>474.0</ele><time>2026-04-05T15:02:50Z</time></trkpt><trkpt lat="42.54119844495143" lon="-8.37220860276436"><ele>466.0</ele><time>2026-04-05T15:02:51Z</time></trkpt><trkpt lat="42.541109676626526" lon="-8.37243487391674"><ele>458.0</ele><time>2026-04-05T15:02:52Z</time></trkpt><trkpt lat="42.541012938571136" lon="-8.372662598079632"><ele>450.0</ele><time>2026-04-05T15:02:53Z</time></trkpt><trkpt lat="42.54090927500444" lon="-8.372880539519002"><ele>453.66666666666663</ele><time>2026-04-05T15:02:54Z</time></trkpt><trkpt lat="42.54080102069131" lon="-8.373102137314046"><ele>457.3333333333333</ele><time>2026-04-05T15:02:55Z</time></trkpt><trkpt lat="42.5406962330342" lon="-8.373317326624557"><ele>461.0</ele><time>2026-04-05T15:02:55.999Z</time></trkpt><trkpt lat="42.54058687894286" lon="-8.373545346790824"><ele>461.0</ele><time>2026-04-05T15:02:56.999Z</time></trkpt><trkpt lat="42.54048621947276" lon="-8.373769220431894"><ele>461.0</ele><time>2026-04-05T15:02:57.999Z</time></trkpt><trkpt lat="42.54038229340114" lon="-8.373997539593816"><ele>461.0</ele><time>2026-04-05T15:02:58.999Z</time></trkpt><trkpt lat="42.54027114666042" lon="-8.374220026113104"><ele>459.3333333333333</ele><time>2026-04-05T15:02:59.999Z</time></trkpt><trkpt lat="42.54015826619802" lon="-8.374437147630474"><ele>457.66666666666663</ele><time>2026-04-05T15:03:00.999Z</time></trkpt><trkpt lat="42.54004069042891" lon="-8.374657620284149"><ele>456.0</ele><time>2026-04-05T15:03:01.999Z</time></trkpt><trkpt lat="42.539914230402225" lon="-8.374871685979072"><ele>456.0</ele><time>2026-04-05T15:03:02.999Z</time></trkpt><trkpt lat="42.53978197722588" lon="-8.37508652981745"><ele>456.0</ele><time>2026-04-05T15:03:03.999Z</time></trkpt><trkpt lat="42.539634296708044" lon="-8.375293302652114"><ele>456.0</ele><time>2026-04-05T15:03:04.999Z</time></trkpt><trkpt lat="42.539478998832145" lon="-8.375495809939297"><ele>452.33333333333337</ele><time>2026-04-05T15:03:05.999Z</time></trkpt><trkpt lat="42.5393174652962" lon="-8.375693263827234"><ele>448.6666666666667</ele><time>2026-04-05T15:03:06.999Z</time></trkpt><trkpt lat="42.53914980312026" lon="-8.375883889134434"><ele>445.0</ele><time>2026-04-05T15:03:07.999Z</time></trkpt><trkpt lat="42.53897636684981" lon="-8.376073590008819"><ele>445.0</ele><time>2026-04-05T15:03:08.999Z</time></trkpt><trkpt lat="42.53879466440204" lon="-8.376264407881974"><ele>445.0</ele><time>2026-04-05T15:03:09.999Z</time></trkpt><trkpt lat="42.53861463828542" lon="-8.37644211185809"><ele>441.0</ele><time>2026-04-05T15:03:10.999Z</time></trkpt><trkpt lat="42.53842103081313" lon="-8.376639950566316"><ele>437.0</ele><time>2026-04-05T15:03:11.999Z</time></trkpt><trkpt lat="42.53822677066105" lon="-8.376841914858272"><ele>437.0</ele><time>2026-04-05T15:03:12.999Z</time></trkpt><trkpt lat="42.53803663423079" lon="-8.37705864802491"><ele>437.0</ele><time>2026-04-05T15:03:13.999Z</time></trkpt><trkpt lat="42.53784757426176" lon="-8.377278508265007"><ele>435.0</ele><time>2026-04-05T15:03:14.999Z</time></trkpt><trkpt lat="42.53766104374104" lon="-8.377506084866146"><ele>433.0</ele><time>2026-04-05T15:03:15.999Z</time></trkpt><trkpt lat="42.537469401170775" lon="-8.377734544859315"><ele>433.0</ele><time>2026-04-05T15:03:16.999Z</time></trkpt><trkpt lat="42.5372785883544" lon="-8.377955445587725"><ele>433.0</ele><time>2026-04-05T15:03:17.999Z</time></trkpt><trkpt lat="42.5370809778266" lon="-8.378178761361458"><ele>429.0</ele><time>2026-04-05T15:03:18.999Z</time></trkpt><trkpt lat="42.53687747061492" lon="-8.378381413961682"><ele>425.0</ele><time>2026-04-05T15:03:19.999Z</time></trkpt><trkpt lat="42.53667744538896" lon="-8.378589020430057"><ele>425.0</ele><time>2026-04-05T15:03:20.999Z</time></trkpt><trkpt lat="42.53648502160616" lon="-8.378804028505977"><ele>425.0</ele><time>2026-04-05T15:03:21.999Z</time></trkpt><trkpt lat="42.536307636350266" lon="-8.379009170181163"><ele>422.3333333333333</ele><time>2026-04-05T15:03:23Z</time></trkpt><trkpt lat="42.53614017691447" lon="-8.379214796949665"><ele>419.66666666666663</ele><time>2026-04-05T15:03:24Z</time></trkpt><trkpt lat="42.53598829901823" lon="-8.379416005021339"><ele>417.0</ele><time>2026-04-05T15:03:25Z</time></trkpt><trkpt lat="42.53584402913131" lon="-8.379624833581655"><ele>419.0</ele><time>2026-04-05T15:03:26Z</time></trkpt><trkpt lat="42.53570210923757" lon="-8.37985060151831"><ele>421.0</ele><time>2026-04-05T15:03:27Z</time></trkpt><trkpt lat="42.53555879725438" lon="-8.380088849430413"><ele>423.0</ele><time>2026-04-05T15:03:28Z</time></trkpt><trkpt lat="42.53542703391408" lon="-8.38034441714662"><ele>413.0</ele><time>2026-04-05T15:03:29Z</time></trkpt><trkpt lat="42.535309750680206" lon="-8.380612438884622"><ele>403.0</ele><time>2026-04-05T15:03:30Z</time></trkpt><trkpt lat="42.53520699434477" lon="-8.380898411549929"><ele>403.0</ele><time>2026-04-05T15:03:31Z</time></trkpt><trkpt lat="42.53511028553842" lon="-8.381189965537942"><ele>403.0</ele><time>2026-04-05T15:03:32Z</time></trkpt><trkpt lat="42.53501927682417" lon="-8.38148948995662"><ele>405.5</ele><time>2026-04-05T15:03:33Z</time></trkpt><trkpt lat="42.53492907072795" lon="-8.381797026676793"><ele>408.0</ele><time>2026-04-05T15:03:34Z</time></trkpt><trkpt lat="42.534844804834734" lon="-8.382104351623633"><ele>410.66666666666663</ele><time>2026-04-05T15:03:35Z</time></trkpt><trkpt lat="42.5347616728755" lon="-8.382391367901379"><ele>413.3333333333333</ele><time>2026-04-05T15:03:36Z</time></trkpt><trkpt lat="42.53468725937586" lon="-8.382668668669785"><ele>416.0</ele><time>2026-04-05T15:03:37Z</time></trkpt><trkpt lat="42.534610416764686" lon="-8.382942377011613"><ele>406.66666666666663</ele><time>2026-04-05T15:03:38Z</time></trkpt><trkpt lat="42.53453398473513" lon="-8.383211009563237"><ele>397.33333333333337</ele><time>2026-04-05T15:03:39Z</time></trkpt><trkpt lat="42.53444795119159" lon="-8.383481356949675"><ele>388.0</ele><time>2026-04-05T15:03:40Z</time></trkpt><trkpt lat="42.53436787834811" lon="-8.38373361233903"><ele>391.0</ele><time>2026-04-05T15:03:41Z</time></trkpt><trkpt lat="42.53427673436423" lon="-8.3839653475033"><ele>394.0</ele><time>2026-04-05T15:03:42Z</time></trkpt><trkpt lat="42.53417423943018" lon="-8.384185702325048"><ele>397.0</ele><time>2026-04-05T15:03:43Z</time></trkpt><trkpt lat="42.53407068273874" lon="-8.384402301905018"><ele>397.0</ele><time>2026-04-05T15:03:44Z</time></trkpt><trkpt lat="42.53398219278871" lon="-8.384611362071839"><ele>397.0</ele><time>2026-04-05T15:03:45Z</time></trkpt><trkpt lat="42.53389685510801" lon="-8.384821435359305"><ele>397.0</ele><time>2026-04-05T15:03:46Z</time></trkpt><trkpt lat="42.53382344033197" lon="-8.385021828331583"><ele>398.6666666666667</ele><time>2026-04-05T15:03:47Z</time></trkpt><trkpt lat="42.53376271419199" lon="-8.385228279614434"><ele>400.33333333333337</ele><time>2026-04-05T15:03:48Z</time></trkpt><trkpt lat="42.533716235535245" lon="-8.385433056241462"><ele>402.0</ele><time>2026-04-05T15:03:49Z</time></trkpt><trkpt lat="42.53369833376413" lon="-8.385644294790769"><ele>396.5</ele><time>2026-04-05T15:03:50Z</time></trkpt><trkpt lat="42.53370546899993" lon="-8.385848459201107"><ele>391.0</ele><time>2026-04-05T15:03:51Z</time></trkpt><trkpt lat="42.533717236486815" lon="-8.386035781057416"><ele>385.5</ele><time>2026-04-05T15:03:52Z</time></trkpt><trkpt lat="42.533716302704356" lon="-8.386208199658757"><ele>380.0</ele><time>2026-04-05T15:03:53Z</time></trkpt><trkpt lat="42.53369511255355" lon="-8.386367824172968"><ele>380.0</ele><time>2026-04-05T15:03:54Z</time></trkpt><trkpt lat="42.53365222928" lon="-8.386521715596574"><ele>380.0</ele><time>2026-04-05T15:03:55Z</time></trkpt><trkpt lat="42.533571614266705" lon="-8.386647367223295"><ele>380.0</ele><time>2026-04-05T15:03:56Z</time></trkpt><trkpt lat="42.53347338099919" lon="-8.386750268601569"><ele>380.0</ele><time>2026-04-05T15:03:57Z</time></trkpt><trkpt lat="42.53338409925915" lon="-8.3868643342362"><ele>380.0</ele><time>2026-04-05T15:03:58Z</time></trkpt><trkpt lat="42.53330588417664" lon="-8.38698610381909"><ele>380.0</ele><time>2026-04-05T15:03:59Z</time></trkpt><trkpt lat="42.533232231875" lon="-8.387108565440734"><ele>380.0</ele><time>2026-04-05T15:04:00Z</time></trkpt><trkpt lat="42.53316534274196" lon="-8.387234819817769"><ele>380.0</ele><time>2026-04-05T15:04:01Z</time></trkpt><trkpt lat="42.53310663728479" lon="-8.38736017706341"><ele>380.6</ele><time>2026-04-05T15:04:02Z</time></trkpt><trkpt lat="42.53304807747618" lon="-8.387484985758048"><ele>381.2</ele><time>2026-04-05T15:04:03Z</time></trkpt><trkpt lat="42.5329922976757" lon="-8.38759925319834"><ele>381.79999999999995</ele><time>2026-04-05T15:04:04Z</time></trkpt><trkpt lat="42.532938489579244" lon="-8.387722131800686"><ele>382.4</ele><time>2026-04-05T15:04:05Z</time></trkpt><trkpt lat="42.53288564920619" lon="-8.387849954627738"><ele>383.0</ele><time>2026-04-05T15:04:06Z</time></trkpt><trkpt lat="42.53283154742988" lon="-8.387971526939683"><ele>380.33333333333337</ele><time>2026-04-05T15:04:07Z</time></trkpt><trkpt lat="42.532778907857484" lon="-8.38808754903525"><ele>377.6666666666667</ele><time>2026-04-05T15:04:08Z</time></trkpt><trkpt lat="42.53273713867177" lon="-8.388192661362634"><ele>375.0</ele><time>2026-04-05T15:04:09Z</time></trkpt><trkpt lat="42.532699917139084" lon="-8.388292906655186"><ele>372.3333333333333</ele><time>2026-04-05T15:04:10Z</time></trkpt><trkpt lat="42.53266096517804" lon="-8.38838988872831"><ele>369.66666666666663</ele><time>2026-04-05T15:04:11Z</time></trkpt><trkpt lat="42.532626255205436" lon="-8.38848605857119"><ele>367.0</ele><time>2026-04-05T15:04:12Z</time></trkpt><trkpt lat="42.53258856304084" lon="-8.388586062933252"><ele>367.0</ele><time>2026-04-05T15:04:13Z</time></trkpt><trkpt lat="42.532546099047636" lon="-8.388687509758594"><ele>367.0</ele><time>2026-04-05T15:04:14Z</time></trkpt><trkpt lat="42.53250663305512" lon="-8.38879852466101"><ele>367.0</ele><time>2026-04-05T15:04:15Z</time></trkpt><trkpt lat="42.53246268491315" lon="-8.38892145813592"><ele>367.0</ele><time>2026-04-05T15:04:16Z</time></trkpt><trkpt lat="42.53241639460832" lon="-8.389044953702744"><ele>367.0</ele><time>2026-04-05T15:04:17Z</time></trkpt><trkpt lat="42.53236995212244" lon="-8.389169937040178"><ele>367.40000000000003</ele><time>2026-04-05T15:04:18Z</time></trkpt><trkpt lat="42.5323236936127" lon="-8.389300610489206"><ele>367.8</ele><time>2026-04-05T15:04:19Z</time></trkpt><trkpt lat="42.532275493801535" lon="-8.389430168342928"><ele>368.2</ele><time>2026-04-05T15:04:20Z</time></trkpt><trkpt lat="42.53223145399604" lon="-8.389552709238828"><ele>368.6</ele><time>2026-04-05T15:04:21Z</time></trkpt><trkpt lat="42.53218650640817" lon="-8.38967392971008"><ele>369.0</ele><time>2026-04-05T15:04:22Z</time></trkpt><trkpt lat="42.53214445781809" lon="-8.389790178179219"><ele>369.6</ele><time>2026-04-05T15:04:23Z</time></trkpt><trkpt lat="42.53210028888548" lon="-8.389906250964021"><ele>370.2</ele><time>2026-04-05T15:04:24Z</time></trkpt><trkpt lat="42.53205438610944" lon="-8.390019364638059"><ele>370.8</ele><time>2026-04-05T15:04:25Z</time></trkpt><trkpt lat="42.532008781782935" lon="-8.390141913098383"><ele>371.40000000000003</ele><time>2026-04-05T15:04:26Z</time></trkpt><trkpt lat="42.531969115998194" lon="-8.390267894274288"><ele>372.0</ele><time>2026-04-05T15:04:27Z</time></trkpt><trkpt lat="42.531939135988964" lon="-8.390398118996567"><ele>369.8</ele><time>2026-04-05T15:04:28Z</time></trkpt><trkpt lat="42.53191660396399" lon="-8.390536764110417"><ele>367.6</ele><time>2026-04-05T15:04:29Z</time></trkpt><trkpt lat="42.53190780547339" lon="-8.390672759515883"><ele>365.40000000000003</ele><time>2026-04-05T15:04:30Z</time></trkpt><trkpt lat="42.5319098114938" lon="-8.390818906874589"><ele>363.20000000000005</ele><time>2026-04-05T15:04:31Z</time></trkpt><trkpt lat="42.53191715225386" lon="-8.390973013072905"><ele>361.0</ele><time>2026-04-05T15:04:32Z</time></trkpt><trkpt lat="42.531932310277" lon="-8.391124537944096"><ele>361.0</ele><time>2026-04-05T15:04:33Z</time></trkpt><trkpt lat="42.531947823604135" lon="-8.391273884994735"><ele>361.0</ele><time>2026-04-05T15:04:34Z</time></trkpt><trkpt lat="42.53196888476875" lon="-8.391416135144953"><ele>361.0</ele><time>2026-04-05T15:04:35Z</time></trkpt><trkpt lat="42.5319845668364" lon="-8.39155538472517"><ele>361.0</ele><time>2026-04-05T15:04:36Z</time></trkpt><trkpt lat="42.531999466480286" lon="-8.39169568599102"><ele>361.0</ele><time>2026-04-05T15:04:37Z</time></trkpt><trkpt lat="42.532007271437976" lon="-8.391839954727521"><ele>359.8</ele><time>2026-04-05T15:04:38Z</time></trkpt><trkpt lat="42.53201939032394" lon="-8.391965335094962"><ele>358.6</ele><time>2026-04-05T15:04:39Z</time></trkpt><trkpt lat="42.53202839616728" lon="-8.392099486194981"><ele>357.4</ele><time>2026-04-05T15:04:40Z</time></trkpt><trkpt lat="42.532030794962964" lon="-8.392247538840877"><ele>356.2</ele><time>2026-04-05T15:04:41Z</time></trkpt><trkpt lat="42.53203410926144" lon="-8.392397761761892"><ele>355.0</ele><time>2026-04-05T15:04:42Z</time></trkpt><trkpt lat="42.532046865699655" lon="-8.392549113645074"><ele>353.0</ele><time>2026-04-05T15:04:43Z</time></trkpt><trkpt lat="42.53204572252206" lon="-8.39271413657164"><ele>351.0</ele><time>2026-04-05T15:04:44Z</time></trkpt><trkpt lat="42.532044289283824" lon="-8.392879150305388"><ele>349.0</ele><time>2026-04-05T15:04:45Z</time></trkpt><trkpt lat="42.532042939206185" lon="-8.393034589468277"><ele>347.0</ele><time>2026-04-05T15:04:46Z</time></trkpt><trkpt lat="42.53202798082546" lon="-8.393186815050939"><ele>346.40000000000003</ele><time>2026-04-05T15:04:47Z</time></trkpt><trkpt lat="42.53203391535472" lon="-8.393328180932478"><ele>345.8</ele><time>2026-04-05T15:04:48Z</time></trkpt><trkpt lat="42.53203638139466" lon="-8.393465302210574"><ele>345.2</ele><time>2026-04-05T15:04:49Z</time></trkpt><trkpt lat="42.532038050745875" lon="-8.393602894506841"><ele>344.6</ele><time>2026-04-05T15:04:50Z</time></trkpt><trkpt lat="42.53203892416921" lon="-8.393748916767374"><ele>344.0</ele><time>2026-04-05T15:04:51Z</time></trkpt><trkpt lat="42.53204281521255" lon="-8.393899760565839"><ele>343.4</ele><time>2026-04-05T15:04:52Z</time></trkpt><trkpt lat="42.532052251029576" lon="-8.394051070116051"><ele>342.79999999999995</ele><time>2026-04-05T15:04:53Z</time></trkpt><trkpt lat="42.53206591484305" lon="-8.394205822873205"><ele>342.20000000000005</ele><time>2026-04-05T15:04:54Z</time></trkpt><trkpt lat="42.53208444884673" lon="-8.394357518865284"><ele>341.6</ele><time>2026-04-05T15:04:55Z</time></trkpt><trkpt lat="42.532100228828355" lon="-8.394494664160607"><ele>341.0</ele><time>2026-04-05T15:04:56Z</time></trkpt><trkpt lat="42.532123377591056" lon="-8.394617155256109"><ele>341.0</ele><time>2026-04-05T15:04:57Z</time></trkpt><trkpt lat="42.5321624829768" lon="-8.394723013068841"><ele>341.0</ele><time>2026-04-05T15:04:58Z</time></trkpt><trkpt lat="42.53221302401711" lon="-8.39481031901837"><ele>341.0</ele><time>2026-04-05T15:04:59Z</time></trkpt><trkpt lat="42.53224864348912" lon="-8.394903056840532"><ele>341.0</ele><time>2026-04-05T15:05:00Z</time></trkpt><trkpt lat="42.53225224828698" lon="-8.395019955635552"><ele>341.0</ele><time>2026-04-05T15:05:01Z</time></trkpt><trkpt lat="42.532227316294076" lon="-8.395138337288929"><ele>341.0</ele><time>2026-04-05T15:05:02Z</time></trkpt><trkpt lat="42.53218453661842" lon="-8.39525724818518"><ele>341.0</ele><time>2026-04-05T15:05:03Z</time></trkpt><trkpt lat="42.53215725261232" lon="-8.395399133750548"><ele>341.0</ele><time>2026-04-05T15:05:04Z</time></trkpt><trkpt lat="42.5321550339305" lon="-8.395552263820726"><ele>341.0</ele><time>2026-04-05T15:05:05Z</time></trkpt><trkpt lat="42.532160616121054" lon="-8.395707663582835"><ele>341.0</ele><time>2026-04-05T15:05:06Z</time></trkpt><trkpt lat="42.53216523646035" lon="-8.395856503784065"><ele>341.0</ele><time>2026-04-05T15:05:07Z</time></trkpt><trkpt lat="42.53217294179652" lon="-8.396003415385252"><ele>339.25</ele><time>2026-04-05T15:05:08Z</time></trkpt><trkpt lat="42.53217753741516" lon="-8.39615119637026"><ele>337.5</ele><time>2026-04-05T15:05:09Z</time></trkpt><trkpt lat="42.53218751656455" lon="-8.396319934602985"><ele>335.75</ele><time>2026-04-05T15:05:10Z</time></trkpt><trkpt lat="42.532200523139984" lon="-8.396502820606267"><ele>334.0</ele><time>2026-04-05T15:05:11Z</time></trkpt><trkpt lat="42.5322112831255" lon="-8.396700581924694"><ele>334.0</ele><time>2026-04-05T15:05:12Z</time></trkpt><trkpt lat="42.53222393337061" lon="-8.396911179138078"><ele>334.0</ele><time>2026-04-05T15:05:13Z</time></trkpt><trkpt lat="42.53223850996884" lon="-8.397133841443004"><ele>334.0</ele><time>2026-04-05T15:05:14Z</time></trkpt><trkpt lat="42.532254517493215" lon="-8.397347037923698"><ele>336.0</ele><time>2026-04-05T15:05:15Z</time></trkpt><trkpt lat="42.53226909236104" lon="-8.397545008481416"><ele>338.0</ele><time>2026-04-05T15:05:16Z</time></trkpt><trkpt lat="42.53228293734502" lon="-8.397731721294248"><ele>340.0</ele><time>2026-04-05T15:05:17Z</time></trkpt><trkpt lat="42.53229816735361" lon="-8.397915811324008"><ele>342.0</ele><time>2026-04-05T15:05:18Z</time></trkpt><trkpt lat="42.53230609310058" lon="-8.398101350473063"><ele>344.0</ele><time>2026-04-05T15:05:19Z</time></trkpt><trkpt lat="42.53231683444711" lon="-8.398291741602712"><ele>346.0</ele><time>2026-04-05T15:05:20Z</time></trkpt><trkpt lat="42.53232805447487" lon="-8.398474551745155"><ele>348.0</ele><time>2026-04-05T15:05:21Z</time></trkpt><trkpt lat="42.53234214970761" lon="-8.398659644781935"><ele>350.0</ele><time>2026-04-05T15:05:22Z</time></trkpt><trkpt lat="42.53235708397845" lon="-8.398847036379372"><ele>351.5</ele><time>2026-04-05T15:05:23Z</time></trkpt><trkpt lat="42.53237578096733" lon="-8.39903666168103"><ele>353.0</ele><time>2026-04-05T15:05:24Z</time></trkpt><trkpt lat="42.532390147423214" lon="-8.399224425039517"><ele>354.5</ele><time>2026-04-05T15:05:25Z</time></trkpt><trkpt lat="42.53239838420364" lon="-8.399410153046306"><ele>356.0</ele><time>2026-04-05T15:05:26Z</time></trkpt><trkpt lat="42.53241043154522" lon="-8.399601603292272"><ele>356.25</ele><time>2026-04-05T15:05:27Z</time></trkpt><trkpt lat="42.53242724618225" lon="-8.399800598550561"><ele>356.5</ele><time>2026-04-05T15:05:28Z</time></trkpt><trkpt lat="42.53244079052244" lon="-8.399998321794538"><ele>356.75</ele><time>2026-04-05T15:05:29Z</time></trkpt><trkpt lat="42.53245831473071" lon="-8.400201810862418"><ele>357.0</ele><time>2026-04-05T15:05:30Z</time></trkpt><trkpt lat="42.53248048227" lon="-8.40040632824343"><ele>356.0</ele><time>2026-04-05T15:05:31Z</time></trkpt><trkpt lat="42.53250511941865" lon="-8.400617065982399"><ele>355.0</ele><time>2026-04-05T15:05:32Z</time></trkpt><trkpt lat="42.53253358511701" lon="-8.400839211364778"><ele>354.0</ele><time>2026-04-05T15:05:33Z</time></trkpt><trkpt lat="42.53256695956661" lon="-8.401063520772333"><ele>354.0</ele><time>2026-04-05T15:05:34Z</time></trkpt><trkpt lat="42.532599972310194" lon="-8.401301736578692"><ele>354.0</ele><time>2026-04-05T15:05:35Z</time></trkpt><trkpt lat="42.5326348963063" lon="-8.401539392149346"><ele>354.0</ele><time>2026-04-05T15:05:36Z</time></trkpt><trkpt lat="42.53265938803301" lon="-8.40179232665874"><ele>353.3333333333333</ele><time>2026-04-05T15:05:37Z</time></trkpt><trkpt lat="42.5326918694867" lon="-8.402048667117118"><ele>352.66666666666663</ele><time>2026-04-05T15:05:38Z</time></trkpt><trkpt lat="42.53272890105351" lon="-8.402310403045448"><ele>352.0</ele><time>2026-04-05T15:05:39Z</time></trkpt><trkpt lat="42.53276281975319" lon="-8.402580520920091"><ele>350.0</ele><time>2026-04-05T15:05:40Z</time></trkpt><trkpt lat="42.53279802169592" lon="-8.402856061247618"><ele>348.0</ele><time>2026-04-05T15:05:41Z</time></trkpt><trkpt lat="42.53283671930548" lon="-8.403131505345081"><ele>346.0</ele><time>2026-04-05T15:05:42Z</time></trkpt><trkpt lat="42.53286950325144" lon="-8.403410394800156"><ele>346.0</ele><time>2026-04-05T15:05:43Z</time></trkpt><trkpt lat="42.532891971768635" lon="-8.40366204329008"><ele>346.0</ele><time>2026-04-05T15:05:44Z</time></trkpt><trkpt lat="42.5328819301219" lon="-8.403925649905158"><ele>346.0</ele><time>2026-04-05T15:05:45Z</time></trkpt><trkpt lat="42.53284083656464" lon="-8.404184159417552"><ele>346.0</ele><time>2026-04-05T15:05:46Z</time></trkpt><trkpt lat="42.53276686495602" lon="-8.404442104118843"><ele>346.0</ele><time>2026-04-05T15:05:47Z</time></trkpt><trkpt lat="42.53268255890492" lon="-8.404691771564234"><ele>346.0</ele><time>2026-04-05T15:05:48Z</time></trkpt><trkpt lat="42.53259207383534" lon="-8.404934388553293"><ele>350.0</ele><time>2026-04-05T15:05:49Z</time></trkpt><trkpt lat="42.532499610033526" lon="-8.405176346287611"><ele>354.0</ele><time>2026-04-05T15:05:50Z</time></trkpt><trkpt lat="42.532404065286066" lon="-8.405416662487767"><ele>358.0</ele><time>2026-04-05T15:05:51Z</time></trkpt><trkpt lat="42.53231555425376" lon="-8.405649963613751"><ele>359.3333333333333</ele><time>2026-04-05T15:05:52Z</time></trkpt><trkpt lat="42.53223186794098" lon="-8.405883045963524"><ele>360.6666666666667</ele><time>2026-04-05T15:05:53Z</time></trkpt><trkpt lat="42.532153876625436" lon="-8.406116681197883"><ele>362.0</ele><time>2026-04-05T15:05:54Z</time></trkpt><trkpt lat="42.53207441967831" lon="-8.40634786116967"><ele>357.6666666666667</ele><time>2026-04-05T15:05:55Z</time></trkpt><trkpt lat="42.53200095017584" lon="-8.406571100273602"><ele>353.3333333333333</ele><time>2026-04-05T15:05:56Z</time></trkpt><trkpt lat="42.531943322114515" lon="-8.406800313364213"><ele>349.0</ele><time>2026-04-05T15:05:57Z</time></trkpt><trkpt lat="42.5319048383676" lon="-8.407035256060423"><ele>348.66666666666663</ele><time>2026-04-05T15:05:58Z</time></trkpt><trkpt lat="42.53189292256791" lon="-8.407285480473611"><ele>348.3333333333333</ele><time>2026-04-05T15:05:59Z</time></trkpt><trkpt lat="42.531888308985955" lon="-8.407547494325186"><ele>348.0</ele><time>2026-04-05T15:06:00Z</time></trkpt><trkpt lat="42.53191062638484" lon="-8.407812752299998"><ele>347.6666666666667</ele><time>2026-04-05T15:06:01Z</time></trkpt><trkpt lat="42.531945894075264" lon="-8.40807945801952"><ele>347.33333333333337</ele><time>2026-04-05T15:06:02Z</time></trkpt><trkpt lat="42.53199463486373" lon="-8.408347271921183"><ele>347.0</ele><time>2026-04-05T15:06:03Z</time></trkpt><trkpt lat="42.53204604712255" lon="-8.4086249265467"><ele>356.0</ele><time>2026-04-05T15:06:04Z</time></trkpt><trkpt lat="42.532097858593445" lon="-8.408905555175352"><ele>365.0</ele><time>2026-04-05T15:06:05Z</time></trkpt><trkpt lat="42.532148714615616" lon="-8.409189672643011"><ele>374.0</ele><time>2026-04-05T15:06:06Z</time></trkpt><trkpt lat="42.53219499317683" lon="-8.40947045964004"><ele>371.6666666666667</ele><time>2026-04-05T15:06:07Z</time></trkpt><trkpt lat="42.5322414558003" lon="-8.409745863080675"><ele>369.3333333333333</ele><time>2026-04-05T15:06:08Z</time></trkpt><trkpt lat="42.53229195657217" lon="-8.410014459983916"><ele>367.0</ele><time>2026-04-05T15:06:09Z</time></trkpt><trkpt lat="42.53234278206725" lon="-8.410287248142957"><ele>365.66666666666663</ele><time>2026-04-05T15:06:10Z</time></trkpt><trkpt lat="42.53239437531508" lon="-8.41056165890716"><ele>364.3333333333333</ele><time>2026-04-05T15:06:11Z</time></trkpt><trkpt lat="42.53244681920728" lon="-8.410844045236924"><ele>363.0</ele><time>2026-04-05T15:06:12Z</time></trkpt><trkpt lat="42.53249609788126" lon="-8.411124902945412"><ele>359.6666666666667</ele><time>2026-04-05T15:06:13Z</time></trkpt><trkpt lat="42.53254471316209" lon="-8.41140459723615"><ele>356.33333333333337</ele><time>2026-04-05T15:06:14Z</time></trkpt><trkpt lat="42.53257743741282" lon="-8.41169595919653"><ele>353.0</ele><time>2026-04-05T15:06:15Z</time></trkpt><trkpt lat="42.53259276387546" lon="-8.411989672645394"><ele>352.6666666666667</ele><time>2026-04-05T15:06:16Z</time></trkpt><trkpt lat="42.53258680487611" lon="-8.412288520674398"><ele>352.3333333333333</ele><time>2026-04-05T15:06:17Z</time></trkpt><trkpt lat="42.53258794037401" lon="-8.412590782629316"><ele>352.0</ele><time>2026-04-05T15:06:18Z</time></trkpt><trkpt lat="42.53259633149597" lon="-8.4128959542035"><ele>354.0</ele><time>2026-04-05T15:06:19Z</time></trkpt><trkpt lat="42.532606818859165" lon="-8.41319956864793"><ele>356.0</ele><time>2026-04-05T15:06:20Z</time></trkpt><trkpt lat="42.53261952250831" lon="-8.413505191656308"><ele>356.0</ele><time>2026-04-05T15:06:21Z</time></trkpt><trkpt lat="42.53263873643841" lon="-8.413813289174563"><ele>356.0</ele><time>2026-04-05T15:06:22Z</time></trkpt><trkpt lat="42.53264726197638" lon="-8.414120558927895"><ele>354.33333333333337</ele><time>2026-04-05T15:06:23Z</time></trkpt><trkpt lat="42.532646573419115" lon="-8.414428073307057"><ele>352.6666666666667</ele><time>2026-04-05T15:06:24Z</time></trkpt><trkpt lat="42.532645941278766" lon="-8.414717893974549"><ele>351.0</ele><time>2026-04-05T15:06:25Z</time></trkpt><trkpt lat="42.532666763787134" lon="-8.414991428679487"><ele>350.3333333333333</ele><time>2026-04-05T15:06:26Z</time></trkpt><trkpt lat="42.53271260238027" lon="-8.415275476513887"><ele>349.66666666666663</ele><time>2026-04-05T15:06:27Z</time></trkpt><trkpt lat="42.53278902093776" lon="-8.415554732999864"><ele>349.0</ele><time>2026-04-05T15:06:28Z</time></trkpt><trkpt lat="42.532895564818766" lon="-8.415814359970241"><ele>351.5</ele><time>2026-04-05T15:06:29Z</time></trkpt><trkpt lat="42.53301906772962" lon="-8.416072762866822"><ele>354.0</ele><time>2026-04-05T15:06:30Z</time></trkpt><trkpt lat="42.53314834899075" lon="-8.416320499765504"><ele>354.0</ele><time>2026-04-05T15:06:31Z</time></trkpt><trkpt lat="42.53326939627094" lon="-8.416577653410483"><ele>354.0</ele><time>2026-04-05T15:06:32Z</time></trkpt><trkpt lat="42.53337103579603" lon="-8.416857671772934"><ele>354.0</ele><time>2026-04-05T15:06:33Z</time></trkpt><trkpt lat="42.53344733786317" lon="-8.417151839645413"><ele>354.0</ele><time>2026-04-05T15:06:34Z</time></trkpt><trkpt lat="42.53349638794765" lon="-8.417453995101972"><ele>351.3333333333333</ele><time>2026-04-05T15:06:35Z</time></trkpt><trkpt lat="42.5335303245659" lon="-8.417758757094429"><ele>348.66666666666663</ele><time>2026-04-05T15:06:36Z</time></trkpt><trkpt lat="42.533549665729325" lon="-8.418045357090163"><ele>346.0</ele><time>2026-04-05T15:06:37Z</time></trkpt><trkpt lat="42.53354388915263" lon="-8.418335639493142"><ele>346.0</ele><time>2026-04-05T15:06:38Z</time></trkpt><trkpt lat="42.53352369885502" lon="-8.41861968892315"><ele>346.0</ele><time>2026-04-05T15:06:39Z</time></trkpt><trkpt lat="42.53347674682685" lon="-8.418896463090139"><ele>346.0</ele><time>2026-04-05T15:06:40Z</time></trkpt><trkpt lat="42.53340425131658" lon="-8.419164394893222"><ele>347.3333333333333</ele><time>2026-04-05T15:06:41Z</time></trkpt><trkpt lat="42.533345156882085" lon="-8.419438450403707"><ele>348.6666666666667</ele><time>2026-04-05T15:06:42Z</time></trkpt><trkpt lat="42.53328799533012" lon="-8.419708520882232"><ele>350.0</ele><time>2026-04-05T15:06:43Z</time></trkpt><trkpt lat="42.53322387466687" lon="-8.419975872536492"><ele>346.5</ele><time>2026-04-05T15:06:44Z</time></trkpt><trkpt lat="42.53295876964375" lon="-8.420162049278442"><ele>343.0</ele><time>2026-04-05T15:06:45Z</time></trkpt><trkpt lat="42.53282359978875" lon="-8.420395172019562"><ele>346.0</ele><time>2026-04-05T15:06:46Z</time></trkpt><trkpt lat="42.5326901492834" lon="-8.420630510178473"><ele>349.0</ele><time>2026-04-05T15:06:47Z</time></trkpt><trkpt lat="42.53257258992766" lon="-8.420876623017184"><ele>352.0</ele><time>2026-04-05T15:06:48Z</time></trkpt><trkpt lat="42.53247004888196" lon="-8.421144258181858"><ele>353.3333333333333</ele><time>2026-04-05T15:06:49Z</time></trkpt><trkpt lat="42.53238393203967" lon="-8.42142562344322"><ele>354.6666666666667</ele><time>2026-04-05T15:06:50Z</time></trkpt><trkpt lat="42.53231164765493" lon="-8.421713140436484"><ele>356.0</ele><time>2026-04-05T15:06:51Z</time></trkpt><trkpt lat="42.532255466691204" lon="-8.422014445605127"><ele>359.0</ele><time>2026-04-05T15:06:52Z</time></trkpt><trkpt lat="42.532216765638736" lon="-8.422323716937523"><ele>362.0</ele><time>2026-04-05T15:06:53Z</time></trkpt><trkpt lat="42.53219965787871" lon="-8.422637641113822"><ele>362.0</ele><time>2026-04-05T15:06:54Z</time></trkpt><trkpt lat="42.5321961363326" lon="-8.42294666771321"><ele>362.0</ele><time>2026-04-05T15:06:55Z</time></trkpt><trkpt lat="42.532209067706404" lon="-8.423260332746029"><ele>362.0</ele><time>2026-04-05T15:06:56Z</time></trkpt><trkpt lat="42.532229385108685" lon="-8.423573531897038"><ele>362.0</ele><time>2026-04-05T15:06:57Z</time></trkpt><trkpt lat="42.53224473296259" lon="-8.42388957992297"><ele>362.0</ele><time>2026-04-05T15:06:58Z</time></trkpt><trkpt lat="42.5322578073636" lon="-8.424204673249779"><ele>362.0</ele><time>2026-04-05T15:06:59Z</time></trkpt><trkpt lat="42.53225887312304" lon="-8.424522526157746"><ele>359.5</ele><time>2026-04-05T15:07:00Z</time></trkpt><trkpt lat="42.53222719020975" lon="-8.424837872395758"><ele>357.0</ele><time>2026-04-05T15:07:01Z</time></trkpt><trkpt lat="42.532168972953635" lon="-8.425144571142857"><ele>357.0</ele><time>2026-04-05T15:07:02Z</time></trkpt><trkpt lat="42.53209932500027" lon="-8.425444243200666"><ele>357.0</ele><time>2026-04-05T15:07:03Z</time></trkpt><trkpt lat="42.5320222336826" lon="-8.425742238516158"><ele>344.0</ele><time>2026-04-05T15:07:04Z</time></trkpt><trkpt lat="42.53195115251888" lon="-8.426042439739271"><ele>331.0</ele><time>2026-04-05T15:07:05Z</time></trkpt><trkpt lat="42.531882957449746" lon="-8.426345670591186"><ele>330.0</ele><time>2026-04-05T15:07:06Z</time></trkpt><trkpt lat="42.5318217796624" lon="-8.426640419220922"><ele>329.0</ele><time>2026-04-05T15:07:07Z</time></trkpt><trkpt lat="42.53176752824954" lon="-8.426911202582831"><ele>328.0</ele><time>2026-04-05T15:07:08Z</time></trkpt><trkpt lat="42.5317156402481" lon="-8.427165945720919"><ele>332.3333333333333</ele><time>2026-04-05T15:07:09Z</time></trkpt><trkpt lat="42.531654579240495" lon="-8.42742285497703"><ele>336.6666666666667</ele><time>2026-04-05T15:07:10Z</time></trkpt><trkpt lat="42.53159876826421" lon="-8.427686654383812"><ele>341.0</ele><time>2026-04-05T15:07:11Z</time></trkpt><trkpt lat="42.53153717761584" lon="-8.4279600629842"><ele>342.6666666666667</ele><time>2026-04-05T15:07:12Z</time></trkpt><trkpt lat="42.53146584045018" lon="-8.428225243213875"><ele>344.3333333333333</ele><time>2026-04-05T15:07:13Z</time></trkpt><trkpt lat="42.53138781727939" lon="-8.428487931670418"><ele>346.0</ele><time>2026-04-05T15:07:14Z</time></trkpt><trkpt lat="42.53129689474276" lon="-8.42874270630993"><ele>348.3333333333333</ele><time>2026-04-05T15:07:15Z</time></trkpt><trkpt lat="42.531187652473214" lon="-8.428979430952507"><ele>350.6666666666667</ele><time>2026-04-05T15:07:16Z</time></trkpt><trkpt lat="42.53106585017476" lon="-8.42919818337713"><ele>353.0</ele><time>2026-04-05T15:07:17Z</time></trkpt><trkpt lat="42.53093822229295" lon="-8.42941676756852"><ele>353.0</ele><time>2026-04-05T15:07:18Z</time></trkpt><trkpt lat="42.5308057387258" lon="-8.429629292742488"><ele>353.0</ele><time>2026-04-05T15:07:19Z</time></trkpt><trkpt lat="42.53067282153862" lon="-8.429833075251222"><ele>353.0</ele><time>2026-04-05T15:07:20Z</time></trkpt><trkpt lat="42.53054340963716" lon="-8.430039693040651"><ele>353.0</ele><time>2026-04-05T15:07:21Z</time></trkpt><trkpt lat="42.530419822696246" lon="-8.430251537035732"><ele>353.0</ele><time>2026-04-05T15:07:22Z</time></trkpt><trkpt lat="42.53029473998007" lon="-8.430462709609156"><ele>353.0</ele><time>2026-04-05T15:07:23Z</time></trkpt><trkpt lat="42.53016715631677" lon="-8.430668335306427"><ele>358.6666666666667</ele><time>2026-04-05T15:07:24Z</time></trkpt><trkpt lat="42.53004235786251" lon="-8.430876057081036"><ele>364.3333333333333</ele><time>2026-04-05T15:07:25Z</time></trkpt><trkpt lat="42.52992571522254" lon="-8.431087271606721"><ele>370.0</ele><time>2026-04-05T15:07:26Z</time></trkpt><trkpt lat="42.52981233187534" lon="-8.431302064502681"><ele>370.66666666666663</ele><time>2026-04-05T15:07:27Z</time></trkpt><trkpt lat="42.5297130902023" lon="-8.431527467944917"><ele>371.3333333333333</ele><time>2026-04-05T15:07:28Z</time></trkpt><trkpt lat="42.5296294044906" lon="-8.431759034741853"><ele>372.0</ele><time>2026-04-05T15:07:29Z</time></trkpt><trkpt lat="42.52955540273677" lon="-8.43199639809561"><ele>375.0</ele><time>2026-04-05T15:07:30Z</time></trkpt><trkpt lat="42.529490754676026" lon="-8.4322382107"><ele>378.0</ele><time>2026-04-05T15:07:31Z</time></trkpt><trkpt lat="42.52943204014641" lon="-8.432475692865214"><ele>381.0</ele><time>2026-04-05T15:07:32Z</time></trkpt><trkpt lat="42.52938231703457" lon="-8.432719074618463"><ele>381.0</ele><time>2026-04-05T15:07:33Z</time></trkpt><trkpt lat="42.529339299681375" lon="-8.43296574620062"><ele>381.0</ele><time>2026-04-05T15:07:34Z</time></trkpt><trkpt lat="42.52930558507762" lon="-8.433215829195067"><ele>381.0</ele><time>2026-04-05T15:07:35Z</time></trkpt><trkpt lat="42.529273968972525" lon="-8.433465413269962"><ele>381.3333333333333</ele><time>2026-04-05T15:07:36Z</time></trkpt><trkpt lat="42.5292470126571" lon="-8.433722315685785"><ele>381.66666666666663</ele><time>2026-04-05T15:07:37Z</time></trkpt><trkpt lat="42.529219465424575" lon="-8.433980433669461"><ele>382.0</ele><time>2026-04-05T15:07:38Z</time></trkpt><trkpt lat="42.529191230471596" lon="-8.434244471938124"><ele>382.3333333333333</ele><time>2026-04-05T15:07:39Z</time></trkpt><trkpt lat="42.52915047453375" lon="-8.434507177837023"><ele>382.6666666666667</ele><time>2026-04-05T15:07:40Z</time></trkpt><trkpt lat="42.52911242505561" lon="-8.434769941908288"><ele>383.0</ele><time>2026-04-05T15:07:41Z</time></trkpt><trkpt lat="42.52906058288508" lon="-8.435033895748587"><ele>382.33333333333337</ele><time>2026-04-05T15:07:42Z</time></trkpt><trkpt lat="42.52900919991701" lon="-8.43530707159634"><ele>381.6666666666667</ele><time>2026-04-05T15:07:43Z</time></trkpt><trkpt lat="42.52895281202848" lon="-8.43558422012955"><ele>381.0</ele><time>2026-04-05T15:07:44Z</time></trkpt><trkpt lat="42.52889178453637" lon="-8.435863330841874"><ele>381.0</ele><time>2026-04-05T15:07:45Z</time></trkpt><trkpt lat="42.52882641685786" lon="-8.436145108371994"><ele>381.0</ele><time>2026-04-05T15:07:46Z</time></trkpt><trkpt lat="42.52876150084824" lon="-8.436435211813352"><ele>381.0</ele><time>2026-04-05T15:07:47Z</time></trkpt><trkpt lat="42.52869493410077" lon="-8.43672505097809"><ele>380.5</ele><time>2026-04-05T15:07:48Z</time></trkpt><trkpt lat="42.52862842738502" lon="-8.437023418954627"><ele>380.0</ele><time>2026-04-05T15:07:49Z</time></trkpt><trkpt lat="42.52855832994638" lon="-8.437323035649982"><ele>380.0</ele><time>2026-04-05T15:07:50Z</time></trkpt><trkpt lat="42.52848770331129" lon="-8.437620062968348"><ele>380.0</ele><time>2026-04-05T15:07:51Z</time></trkpt><trkpt lat="42.52842108712137" lon="-8.437889867975448"><ele>380.0</ele><time>2026-04-05T15:07:52Z</time></trkpt><trkpt lat="42.52836128727854" lon="-8.438150531633127"><ele>377.33333333333337</ele><time>2026-04-05T15:07:53Z</time></trkpt><trkpt lat="42.52827570836791" lon="-8.438411746662855"><ele>374.6666666666667</ele><time>2026-04-05T15:07:54Z</time></trkpt><trkpt lat="42.52818193130117" lon="-8.43866675238291"><ele>372.0</ele><time>2026-04-05T15:07:55Z</time></trkpt><trkpt lat="42.5280861346754" lon="-8.438910163604207"><ele>370.0</ele><time>2026-04-05T15:07:56Z</time></trkpt><trkpt lat="42.527951528867" lon="-8.439095557469747"><ele>368.0</ele><time>2026-04-05T15:07:57Z</time></trkpt><trkpt lat="42.52782301100349" lon="-8.439296280576487"><ele>366.0</ele><time>2026-04-05T15:07:58Z</time></trkpt><trkpt lat="42.527662096318124" lon="-8.43946083703761"><ele>366.0</ele><time>2026-04-05T15:07:59Z</time></trkpt><trkpt lat="42.52747247691656" lon="-8.439583004802552"><ele>366.0</ele><time>2026-04-05T15:08:00Z</time></trkpt><trkpt lat="42.52727852956939" lon="-8.439705058819012"><ele>366.0</ele><time>2026-04-05T15:08:01Z</time></trkpt><trkpt lat="42.52707022224329" lon="-8.43979833722504"><ele>360.0</ele><time>2026-04-05T15:08:02Z</time></trkpt><trkpt lat="42.52685369140709" lon="-8.439862714746234"><ele>354.0</ele><time>2026-04-05T15:08:03Z</time></trkpt><trkpt lat="42.52663597583125" lon="-8.439904098755814"><ele>348.0</ele><time>2026-04-05T15:08:04Z</time></trkpt><trkpt lat="42.52641724647194" lon="-8.439968544082674"><ele>347.5</ele><time>2026-04-05T15:08:05Z</time></trkpt><trkpt lat="42.52619320244995" lon="-8.440019372843379"><ele>347.0</ele><time>2026-04-05T15:08:06Z</time></trkpt><trkpt lat="42.52596882717604" lon="-8.44008786504631"><ele>347.0</ele><time>2026-04-05T15:08:07Z</time></trkpt><trkpt lat="42.52574546406219" lon="-8.440184281611865"><ele>347.0</ele><time>2026-04-05T15:08:08Z</time></trkpt><trkpt lat="42.525523304760824" lon="-8.440309687878182"><ele>348.0</ele><time>2026-04-05T15:08:09Z</time></trkpt><trkpt lat="42.52530400509709" lon="-8.440457560292696"><ele>349.0</ele><time>2026-04-05T15:08:10Z</time></trkpt><trkpt lat="42.525088171414765" lon="-8.440629299128071"><ele>344.0</ele><time>2026-04-05T15:08:11Z</time></trkpt><trkpt lat="42.5248824079509" lon="-8.440815318895966"><ele>339.0</ele><time>2026-04-05T15:08:12Z</time></trkpt><trkpt lat="42.524676633082855" lon="-8.441014242309322"><ele>336.5</ele><time>2026-04-05T15:08:13Z</time></trkpt><trkpt lat="42.5245010004475" lon="-8.441254481309153"><ele>334.0</ele><time>2026-04-05T15:08:14Z</time></trkpt><trkpt lat="42.524339376222116" lon="-8.441512779553847"><ele>334.0</ele><time>2026-04-05T15:08:15Z</time></trkpt><trkpt lat="42.52419214186004" lon="-8.441785006802563"><ele>334.0</ele><time>2026-04-05T15:08:16Z</time></trkpt><trkpt lat="42.52406342803274" lon="-8.442068349551786"><ele>333.0</ele><time>2026-04-05T15:08:17Z</time></trkpt><trkpt lat="42.5239525336134" lon="-8.442357718257952"><ele>332.0</ele><time>2026-04-05T15:08:18Z</time></trkpt><trkpt lat="42.52385835463014" lon="-8.442657638439817"><ele>332.0</ele><time>2026-04-05T15:08:19Z</time></trkpt><trkpt lat="42.523779841201666" lon="-8.442956616658336"><ele>332.0</ele><time>2026-04-05T15:08:20Z</time></trkpt><trkpt lat="42.523717950594566" lon="-8.443260957417404"><ele>333.0</ele><time>2026-04-05T15:08:21Z</time></trkpt><trkpt lat="42.523680699328864" lon="-8.443566187425684"><ele>334.0</ele><time>2026-04-05T15:08:22Z</time></trkpt><trkpt lat="42.523661500944336" lon="-8.443870982305285"><ele>336.66666666666663</ele><time>2026-04-05T15:08:23Z</time></trkpt><trkpt lat="42.52365935400731" lon="-8.444175217148496"><ele>339.3333333333333</ele><time>2026-04-05T15:08:24Z</time></trkpt><trkpt lat="42.52367120141935" lon="-8.444473640758183"><ele>342.0</ele><time>2026-04-05T15:08:25Z</time></trkpt><trkpt lat="42.523700424313965" lon="-8.444765187723247"><ele>342.0</ele><time>2026-04-05T15:08:26Z</time></trkpt><trkpt lat="42.523735852503016" lon="-8.44505244013648"><ele>342.0</ele><time>2026-04-05T15:08:27Z</time></trkpt><trkpt lat="42.523783618751324" lon="-8.445335497712122"><ele>342.0</ele><time>2026-04-05T15:08:28Z</time></trkpt><trkpt lat="42.52384928849646" lon="-8.44560886769215"><ele>346.3333333333333</ele><time>2026-04-05T15:08:29Z</time></trkpt><trkpt lat="42.52393022537905" lon="-8.445873654859618"><ele>350.66666666666663</ele><time>2026-04-05T15:08:30Z</time></trkpt><trkpt lat="42.52401958455577" lon="-8.446129231133307"><ele>355.0</ele><time>2026-04-05T15:08:31Z</time></trkpt><trkpt lat="42.52412142848685" lon="-8.44637321984839"><ele>360.0</ele><time>2026-04-05T15:08:32Z</time></trkpt><trkpt lat="42.524239818689686" lon="-8.446602111451895"><ele>365.0</ele><time>2026-04-05T15:08:33Z</time></trkpt><trkpt lat="42.52436109939897" lon="-8.446816344735382"><ele>370.0</ele><time>2026-04-05T15:08:34Z</time></trkpt><trkpt lat="42.524493817146734" lon="-8.447025654472037"><ele>371.0</ele><time>2026-04-05T15:08:35Z</time></trkpt><trkpt lat="42.52462520565285" lon="-8.44722846800901"><ele>372.0</ele><time>2026-04-05T15:08:36Z</time></trkpt><trkpt lat="42.52474887386394" lon="-8.447434626567995"><ele>373.0</ele><time>2026-04-05T15:08:37Z</time></trkpt><trkpt lat="42.524871604322215" lon="-8.44764502466633"><ele>373.0</ele><time>2026-04-05T15:08:38Z</time></trkpt><trkpt lat="42.524991286761356" lon="-8.44785648132487"><ele>373.0</ele><time>2026-04-05T15:08:39Z</time></trkpt><trkpt lat="42.5250916428826" lon="-8.448077270799883"><ele>373.0</ele><time>2026-04-05T15:08:40Z</time></trkpt><trkpt lat="42.52517514433064" lon="-8.448313942447298"><ele>375.66666666666663</ele><time>2026-04-05T15:08:41Z</time></trkpt><trkpt lat="42.52523681058728" lon="-8.448561322180849"><ele>378.3333333333333</ele><time>2026-04-05T15:08:42Z</time></trkpt><trkpt lat="42.5252827251329" lon="-8.448815092216577"><ele>381.0</ele><time>2026-04-05T15:08:43Z</time></trkpt><trkpt lat="42.525358000541324" lon="-8.449052119213736"><ele>381.5</ele><time>2026-04-05T15:08:44Z</time></trkpt><trkpt lat="42.525415556138476" lon="-8.449282484737036"><ele>382.0</ele><time>2026-04-05T15:08:45Z</time></trkpt><trkpt lat="42.525282107378885" lon="-8.449606834075777"><ele>381.3333333333333</ele><time>2026-04-05T15:08:46Z</time></trkpt><trkpt lat="42.52524846749434" lon="-8.449872553651469"><ele>380.6666666666667</ele><time>2026-04-05T15:08:47Z</time></trkpt><trkpt lat="42.52519785624949" lon="-8.450129656149691"><ele>380.0</ele><time>2026-04-05T15:08:48Z</time></trkpt><trkpt lat="42.525128194388" lon="-8.450392073337637"><ele>378.6666666666667</ele><time>2026-04-05T15:08:49Z</time></trkpt><trkpt lat="42.52504092374822" lon="-8.450638121781394"><ele>377.3333333333333</ele><time>2026-04-05T15:08:50Z</time></trkpt><trkpt lat="42.5249482903479" lon="-8.450872019116508"><ele>376.0</ele><time>2026-04-05T15:08:51Z</time></trkpt><trkpt lat="42.52484245016248" lon="-8.451090010218712"><ele>376.0</ele><time>2026-04-05T15:08:52Z</time></trkpt><trkpt lat="42.5247065010559" lon="-8.451288913300795"><ele>376.0</ele><time>2026-04-05T15:08:53Z</time></trkpt><trkpt lat="42.52455982433024" lon="-8.451469709120786"><ele>376.0</ele><time>2026-04-05T15:08:54Z</time></trkpt><trkpt lat="42.52439729484676" lon="-8.451634198352126"><ele>376.66666666666663</ele><time>2026-04-05T15:08:55Z</time></trkpt><trkpt lat="42.52422307618117" lon="-8.451778020489236"><ele>377.3333333333333</ele><time>2026-04-05T15:08:56Z</time></trkpt><trkpt lat="42.52403869056874" lon="-8.451897930041914"><ele>378.0</ele><time>2026-04-05T15:08:57Z</time></trkpt><trkpt lat="42.523847183279514" lon="-8.452009657651873"><ele>377.0</ele><time>2026-04-05T15:08:58Z</time></trkpt><trkpt lat="42.52365668218407" lon="-8.452130715831602"><ele>376.0</ele><time>2026-04-05T15:08:59Z</time></trkpt><trkpt lat="42.52347219168624" lon="-8.452272526958696"><ele>375.0</ele><time>2026-04-05T15:09:00Z</time></trkpt><trkpt lat="42.52329505449917" lon="-8.452435720988793"><ele>375.0</ele><time>2026-04-05T15:09:01Z</time></trkpt><trkpt lat="42.523126417576215" lon="-8.452617560107969"><ele>375.0</ele><time>2026-04-05T15:09:02Z</time></trkpt><trkpt lat="42.52297096023512" lon="-8.452826198838675"><ele>375.0</ele><time>2026-04-05T15:09:03Z</time></trkpt><trkpt lat="42.52283488489695" lon="-8.453056479107858"><ele>377.3333333333333</ele><time>2026-04-05T15:09:04Z</time></trkpt><trkpt lat="42.52271311121493" lon="-8.45329821513909"><ele>379.66666666666663</ele><time>2026-04-05T15:09:05Z</time></trkpt><trkpt lat="42.522603891281534" lon="-8.453547952151487"><ele>382.0</ele><time>2026-04-05T15:09:06Z</time></trkpt><trkpt lat="42.52250819321294" lon="-8.45381024146778"><ele>382.0</ele><time>2026-04-05T15:09:07Z</time></trkpt><trkpt lat="42.52243007609206" lon="-8.454083031167507"><ele>382.0</ele><time>2026-04-05T15:09:08Z</time></trkpt><trkpt lat="42.522355337028806" lon="-8.454361607779164"><ele>382.0</ele><time>2026-04-05T15:09:09Z</time></trkpt><trkpt lat="42.522287091112595" lon="-8.454643688673924"><ele>379.0</ele><time>2026-04-05T15:09:10Z</time></trkpt><trkpt lat="42.52222279705257" lon="-8.454931652315722"><ele>376.0</ele><time>2026-04-05T15:09:11Z</time></trkpt><trkpt lat="42.522165799366256" lon="-8.455219830510488"><ele>373.0</ele><time>2026-04-05T15:09:12Z</time></trkpt><trkpt lat="42.522113991956545" lon="-8.455513320914257"><ele>370.0</ele><time>2026-04-05T15:09:13Z</time></trkpt><trkpt lat="42.52206758453655" lon="-8.455811678361034"><ele>367.0</ele><time>2026-04-05T15:09:14Z</time></trkpt><trkpt lat="42.52202662583766" lon="-8.456113446306583"><ele>381.5</ele><time>2026-04-05T15:09:15Z</time></trkpt><trkpt lat="42.521998077674574" lon="-8.456419205718861"><ele>396.0</ele><time>2026-04-05T15:09:16Z</time></trkpt><trkpt lat="42.521976482447336" lon="-8.456720642359393"><ele>396.0</ele><time>2026-04-05T15:09:17Z</time></trkpt><trkpt lat="42.52195803805129" lon="-8.457024153480198"><ele>396.0</ele><time>2026-04-05T15:09:18Z</time></trkpt><trkpt lat="42.5219491833409" lon="-8.457327154143343"><ele>396.0</ele><time>2026-04-05T15:09:19Z</time></trkpt><trkpt lat="42.52194386875313" lon="-8.457638395027276"><ele>394.66666666666663</ele><time>2026-04-05T15:09:20Z</time></trkpt><trkpt lat="42.52193692962015" lon="-8.457942069072258"><ele>393.3333333333333</ele><time>2026-04-05T15:09:21Z</time></trkpt><trkpt lat="42.521918215034475" lon="-8.458242925355894"><ele>392.0</ele><time>2026-04-05T15:09:22Z</time></trkpt><trkpt lat="42.5218823299651" lon="-8.458541243135668"><ele>390.0</ele><time>2026-04-05T15:09:23Z</time></trkpt><trkpt lat="42.521833295491305" lon="-8.458817244556942"><ele>388.0</ele><time>2026-04-05T15:09:24Z</time></trkpt><trkpt lat="42.5217583332647" lon="-8.459079748810286"><ele>386.0</ele><time>2026-04-05T15:09:25Z</time></trkpt><trkpt lat="42.52166500835806" lon="-8.459342214466055"><ele>386.0</ele><time>2026-04-05T15:09:26Z</time></trkpt><trkpt lat="42.52154880944075" lon="-8.459583782792471"><ele>386.0</ele><time>2026-04-05T15:09:27Z</time></trkpt><trkpt lat="42.521422005332255" lon="-8.459836196185915"><ele>386.0</ele><time>2026-04-05T15:09:28Z</time></trkpt><trkpt lat="42.521290904339246" lon="-8.46008065781013"><ele>389.5</ele><time>2026-04-05T15:09:29Z</time></trkpt><trkpt lat="42.52116022092262" lon="-8.460346727158795"><ele>393.0</ele><time>2026-04-05T15:09:30Z</time></trkpt><trkpt lat="42.52103305012382" lon="-8.46061519287279"><ele>385.5</ele><time>2026-04-05T15:09:31Z</time></trkpt><trkpt lat="42.52090401104767" lon="-8.460886069758514"><ele>378.0</ele><time>2026-04-05T15:09:32Z</time></trkpt><trkpt lat="42.52076851850299" lon="-8.461164008258164"><ele>375.0</ele><time>2026-04-05T15:09:33Z</time></trkpt><trkpt lat="42.52063447380323" lon="-8.461441893648232"><ele>372.0</ele><time>2026-04-05T15:09:34Z</time></trkpt><trkpt lat="42.52050330245251" lon="-8.461726718168126"><ele>377.0</ele><time>2026-04-05T15:09:35Z</time></trkpt><trkpt lat="42.520377667866796" lon="-8.462003749436766"><ele>382.0</ele><time>2026-04-05T15:09:36Z</time></trkpt><trkpt lat="42.52026186437716" lon="-8.462273140123909"><ele>382.0</ele><time>2026-04-05T15:09:37Z</time></trkpt><trkpt lat="42.52015325670493" lon="-8.462541483779038"><ele>382.0</ele><time>2026-04-05T15:09:38Z</time></trkpt><trkpt lat="42.520052186828" lon="-8.462835667836261"><ele>374.0</ele><time>2026-04-05T15:09:39Z</time></trkpt><trkpt lat="42.519958871165485" lon="-8.463134739234894"><ele>366.0</ele><time>2026-04-05T15:09:40Z</time></trkpt><trkpt lat="42.519879039163754" lon="-8.463444480523712"><ele>366.0</ele><time>2026-04-05T15:09:41Z</time></trkpt><trkpt lat="42.51980683785167" lon="-8.463774600182122"><ele>366.0</ele><time>2026-04-05T15:09:42Z</time></trkpt><trkpt lat="42.519746513485046" lon="-8.46410689711255"><ele>358.0</ele><time>2026-04-05T15:09:43Z</time></trkpt><trkpt lat="42.51970010507202" lon="-8.46444252346513"><ele>350.0</ele><time>2026-04-05T15:09:44Z</time></trkpt><trkpt lat="42.51967294892896" lon="-8.464794613737675"><ele>347.5</ele><time>2026-04-05T15:09:45Z</time></trkpt><trkpt lat="42.519661693009795" lon="-8.4651433101675"><ele>345.0</ele><time>2026-04-05T15:09:46Z</time></trkpt><trkpt lat="42.51965262854197" lon="-8.465494347317422"><ele>345.0</ele><time>2026-04-05T15:09:47Z</time></trkpt><trkpt lat="42.5196389512653" lon="-8.465851824372853"><ele>345.0</ele><time>2026-04-05T15:09:48Z</time></trkpt><trkpt lat="42.51962650867283" lon="-8.466198625076585"><ele>341.0</ele><time>2026-04-05T15:09:49Z</time></trkpt><trkpt lat="42.519612906232084" lon="-8.466549484750981"><ele>337.0</ele><time>2026-04-05T15:09:50Z</time></trkpt><trkpt lat="42.51959739742404" lon="-8.466898649384682"><ele>335.0</ele><time>2026-04-05T15:09:51Z</time></trkpt><trkpt lat="42.51958071039828" lon="-8.467248225660443"><ele>333.0</ele><time>2026-04-05T15:09:52Z</time></trkpt><trkpt lat="42.51956493698055" lon="-8.467594663079947"><ele>344.5</ele><time>2026-04-05T15:09:53Z</time></trkpt><trkpt lat="42.51955329680978" lon="-8.467932224295028"><ele>356.0</ele><time>2026-04-05T15:09:54Z</time></trkpt><trkpt lat="42.51954263994287" lon="-8.468249436705499"><ele>356.0</ele><time>2026-04-05T15:09:55Z</time></trkpt><trkpt lat="42.519532588598636" lon="-8.46858023752125"><ele>356.0</ele><time>2026-04-05T15:09:56Z</time></trkpt><trkpt lat="42.51952292289691" lon="-8.46891476250131"><ele>355.0</ele><time>2026-04-05T15:09:57Z</time></trkpt><trkpt lat="42.51951115187306" lon="-8.469242906365926"><ele>354.0</ele><time>2026-04-05T15:09:58Z</time></trkpt><trkpt lat="42.519499689415966" lon="-8.469556123401034"><ele>352.3333333333333</ele><time>2026-04-05T15:09:59Z</time></trkpt><trkpt lat="42.519489231500046" lon="-8.469858396081472"><ele>350.66666666666663</ele><time>2026-04-05T15:10:00Z</time></trkpt><trkpt lat="42.519478010748934" lon="-8.470148882268393"><ele>349.0</ele><time>2026-04-05T15:10:01Z</time></trkpt><trkpt lat="42.51946986969094" lon="-8.470447588874752"><ele>346.3333333333333</ele><time>2026-04-05T15:10:02Z</time></trkpt><trkpt lat="42.51944721762642" lon="-8.470737081607629"><ele>343.6666666666667</ele><time>2026-04-05T15:10:03Z</time></trkpt><trkpt lat="42.519424910266146" lon="-8.471023626648476"><ele>341.0</ele><time>2026-04-05T15:10:04Z</time></trkpt><trkpt lat="42.519381435517296" lon="-8.471301137780744"><ele>338.0</ele><time>2026-04-05T15:10:05Z</time></trkpt><trkpt lat="42.51931595384336" lon="-8.471580938059672"><ele>335.0</ele><time>2026-04-05T15:10:06Z</time></trkpt><trkpt lat="42.5192273540923" lon="-8.471854127910584"><ele>332.0</ele><time>2026-04-05T15:10:07Z</time></trkpt><trkpt lat="42.51911499503322" lon="-8.47211931838079"><ele>328.6666666666667</ele><time>2026-04-05T15:10:08Z</time></trkpt><trkpt lat="42.51900711320589" lon="-8.47237258593832"><ele>325.3333333333333</ele><time>2026-04-05T15:10:09Z</time></trkpt><trkpt lat="42.51891756452537" lon="-8.472646671474072"><ele>322.0</ele><time>2026-04-05T15:10:10Z</time></trkpt><trkpt lat="42.518856432349516" lon="-8.472934234219942"><ele>316.5</ele><time>2026-04-05T15:10:11Z</time></trkpt><trkpt lat="42.51881158179643" lon="-8.47323200685623"><ele>311.0</ele><time>2026-04-05T15:10:12Z</time></trkpt><trkpt lat="42.51878350596339" lon="-8.473544361498515"><ele>308.0</ele><time>2026-04-05T15:10:13Z</time></trkpt><trkpt lat="42.51876780001663" lon="-8.473861273812997"><ele>305.0</ele><time>2026-04-05T15:10:14Z</time></trkpt><trkpt lat="42.51877328905655" lon="-8.474183551386652"><ele>305.0</ele><time>2026-04-05T15:10:15Z</time></trkpt><trkpt lat="42.51879220612994" lon="-8.474510305233087"><ele>305.0</ele><time>2026-04-05T15:10:16Z</time></trkpt><trkpt lat="42.51881435794905" lon="-8.474842436901154"><ele>301.0</ele><time>2026-04-05T15:10:17Z</time></trkpt><trkpt lat="42.51883095828027" lon="-8.475168939536838"><ele>297.0</ele><time>2026-04-05T15:10:18Z</time></trkpt><trkpt lat="42.51884300237933" lon="-8.475490537806952"><ele>297.0</ele><time>2026-04-05T15:10:19Z</time></trkpt><trkpt lat="42.51884776336678" lon="-8.475793117251577"><ele>297.0</ele><time>2026-04-05T15:10:20Z</time></trkpt><trkpt lat="42.51884206415818" lon="-8.476081734337061"><ele>297.0</ele><time>2026-04-05T15:10:21Z</time></trkpt><trkpt lat="42.51881617059535" lon="-8.476362940790068"><ele>298.6666666666667</ele><time>2026-04-05T15:10:22Z</time></trkpt><trkpt lat="42.51875927746495" lon="-8.476627493470467"><ele>300.33333333333337</ele><time>2026-04-05T15:10:23Z</time></trkpt><trkpt lat="42.51868011826126" lon="-8.47687252555838"><ele>302.0</ele><time>2026-04-05T15:10:24Z</time></trkpt><trkpt lat="42.51858474187316" lon="-8.47709808747815"><ele>298.6666666666667</ele><time>2026-04-05T15:10:25Z</time></trkpt><trkpt lat="42.51847318792328" lon="-8.477297768920886"><ele>295.3333333333333</ele><time>2026-04-05T15:10:26Z</time></trkpt><trkpt lat="42.5183451411736" lon="-8.477474804665896"><ele>292.0</ele><time>2026-04-05T15:10:27Z</time></trkpt><trkpt lat="42.5181988440007" lon="-8.47763500594165"><ele>292.0</ele><time>2026-04-05T15:10:28Z</time></trkpt><trkpt lat="42.518034413727726" lon="-8.477770152342124"><ele>292.0</ele><time>2026-04-05T15:10:29Z</time></trkpt><trkpt lat="42.51785647742114" lon="-8.477885382912962"><ele>292.0</ele><time>2026-04-05T15:10:30Z</time></trkpt><trkpt lat="42.51767013552887" lon="-8.47798445568378"><ele>288.66666666666663</ele><time>2026-04-05T15:10:31Z</time></trkpt><trkpt lat="42.5174800155206" lon="-8.478082787121886"><ele>285.3333333333333</ele><time>2026-04-05T15:10:32Z</time></trkpt><trkpt lat="42.51729249286544" lon="-8.478186208792886"><ele>282.0</ele><time>2026-04-05T15:10:33Z</time></trkpt><trkpt lat="42.51710184432966" lon="-8.478293381229228"><ele>284.3333333333333</ele><time>2026-04-05T15:10:34Z</time></trkpt><trkpt lat="42.51691603336705" lon="-8.478403064584189"><ele>286.66666666666663</ele><time>2026-04-05T15:10:35Z</time></trkpt><trkpt lat="42.51674393063214" lon="-8.478497767938919"><ele>289.0</ele><time>2026-04-05T15:10:36Z</time></trkpt><trkpt lat="42.51658267634479" lon="-8.478597296707218"><ele>289.0</ele><time>2026-04-05T15:10:37Z</time></trkpt><trkpt lat="42.516426614990266" lon="-8.478713615491463"><ele>289.0</ele><time>2026-04-05T15:10:38Z</time></trkpt><trkpt lat="42.51625964078206" lon="-8.4788191591244"><ele>289.0</ele><time>2026-04-05T15:10:39Z</time></trkpt><trkpt lat="42.51608999020678" lon="-8.478926874129971"><ele>284.66666666666663</ele><time>2026-04-05T15:10:40Z</time></trkpt><trkpt lat="42.5159319359264" lon="-8.479027068002754"><ele>280.3333333333333</ele><time>2026-04-05T15:10:41Z</time></trkpt><trkpt lat="42.51577940197352" lon="-8.479124355194044"><ele>276.0</ele><time>2026-04-05T15:10:42Z</time></trkpt><trkpt lat="42.51562625970046" lon="-8.479218265738892"><ele>276.0</ele><time>2026-04-05T15:10:43Z</time></trkpt><trkpt lat="42.51547989385554" lon="-8.479310498871833"><ele>276.0</ele><time>2026-04-05T15:10:44Z</time></trkpt><trkpt lat="42.515335290033136" lon="-8.479402727237487"><ele>276.0</ele><time>2026-04-05T15:10:45Z</time></trkpt><trkpt lat="42.51519194391214" lon="-8.479496403005891"><ele>277.3333333333333</ele><time>2026-04-05T15:10:46Z</time></trkpt><trkpt lat="42.51504501697509" lon="-8.479593102224207"><ele>278.66666666666663</ele><time>2026-04-05T15:10:47Z</time></trkpt><trkpt lat="42.51489524120359" lon="-8.479686662725133"><ele>280.0</ele><time>2026-04-05T15:10:48Z</time></trkpt><trkpt lat="42.514742864285225" lon="-8.479781185935563"><ele>277.3333333333333</ele><time>2026-04-05T15:10:49Z</time></trkpt><trkpt lat="42.514591657933984" lon="-8.479880425008776"><ele>274.6666666666667</ele><time>2026-04-05T15:10:50Z</time></trkpt><trkpt lat="42.51443803942792" lon="-8.479987303518609"><ele>272.0</ele><time>2026-04-05T15:10:51Z</time></trkpt><trkpt lat="42.51428452049185" lon="-8.48010124072659"><ele>270.0</ele><time>2026-04-05T15:10:52Z</time></trkpt><trkpt lat="42.514135646975426" lon="-8.480231762604397"><ele>268.0</ele><time>2026-04-05T15:10:53Z</time></trkpt><trkpt lat="42.51399494543036" lon="-8.480378813042812"><ele>266.0</ele><time>2026-04-05T15:10:54Z</time></trkpt><trkpt lat="42.513870484031884" lon="-8.48053475403899"><ele>262.6666666666667</ele><time>2026-04-05T15:10:55Z</time></trkpt><trkpt lat="42.51376249572662" lon="-8.480703458941225"><ele>259.3333333333333</ele><time>2026-04-05T15:10:56Z</time></trkpt><trkpt lat="42.51366700032273" lon="-8.48088500475484"><ele>256.0</ele><time>2026-04-05T15:10:57Z</time></trkpt><trkpt lat="42.513585766562784" lon="-8.481073192349536"><ele>260.0</ele><time>2026-04-05T15:10:58Z</time></trkpt><trkpt lat="42.513519905809" lon="-8.481265622057132"><ele>264.0</ele><time>2026-04-05T15:10:59Z</time></trkpt><trkpt lat="42.51346782023661" lon="-8.481463232437141"><ele>268.0</ele><time>2026-04-05T15:11:00Z</time></trkpt><trkpt lat="42.51343025200681" lon="-8.481658360590611"><ele>268.0</ele><time>2026-04-05T15:11:01Z</time></trkpt><trkpt lat="42.513404656136764" lon="-8.481857907171875"><ele>268.0</ele><time>2026-04-05T15:11:02Z</time></trkpt><trkpt lat="42.51338681041936" lon="-8.482054478150152"><ele>268.0</ele><time>2026-04-05T15:11:03Z</time></trkpt><trkpt lat="42.51338297494843" lon="-8.482260199273645"><ele>268.0</ele><time>2026-04-05T15:11:04Z</time></trkpt><trkpt lat="42.513396197659674" lon="-8.482471482619834"><ele>264.3333333333333</ele><time>2026-04-05T15:11:05Z</time></trkpt><trkpt lat="42.51342584984426" lon="-8.482679834854334"><ele>260.6666666666667</ele><time>2026-04-05T15:11:06Z</time></trkpt><trkpt lat="42.513466556569576" lon="-8.482896004704473"><ele>257.0</ele><time>2026-04-05T15:11:07Z</time></trkpt><trkpt lat="42.51351694854128" lon="-8.483105374735159"><ele>255.33333333333334</ele><time>2026-04-05T15:11:08Z</time></trkpt><trkpt lat="42.51357811256039" lon="-8.483314217790628"><ele>253.66666666666669</ele><time>2026-04-05T15:11:09Z</time></trkpt><trkpt lat="42.51364873033948" lon="-8.483521518214204"><ele>252.0</ele><time>2026-04-05T15:11:10Z</time></trkpt><trkpt lat="42.51372710861341" lon="-8.483726372760483"><ele>252.66666666666669</ele><time>2026-04-05T15:11:11Z</time></trkpt><trkpt lat="42.5138056988943" lon="-8.483926348695682"><ele>253.33333333333334</ele><time>2026-04-05T15:11:12Z</time></trkpt><trkpt lat="42.513872688893386" lon="-8.484134327539396"><ele>254.0</ele><time>2026-04-05T15:11:13Z</time></trkpt><trkpt lat="42.513932781689014" lon="-8.484343292026697"><ele>254.0</ele><time>2026-04-05T15:11:14Z</time></trkpt><trkpt lat="42.51398057882135" lon="-8.484557099034541"><ele>254.0</ele><time>2026-04-05T15:11:15Z</time></trkpt><trkpt lat="42.514010921132595" lon="-8.484775232482338"><ele>254.0</ele><time>2026-04-05T15:11:16Z</time></trkpt><trkpt lat="42.514011530071606" lon="-8.484999083894277"><ele>256.6666666666667</ele><time>2026-04-05T15:11:17Z</time></trkpt><trkpt lat="42.51399336432061" lon="-8.485235527565305"><ele>259.3333333333333</ele><time>2026-04-05T15:11:18Z</time></trkpt><trkpt lat="42.51397291140273" lon="-8.485445561927266"><ele>262.0</ele><time>2026-04-05T15:11:19Z</time></trkpt><trkpt lat="42.51395293331356" lon="-8.485670845750871"><ele>263.0</ele><time>2026-04-05T15:11:20Z</time></trkpt><trkpt lat="42.51394033980637" lon="-8.485891777669272"><ele>264.0</ele><time>2026-04-05T15:11:21Z</time></trkpt><trkpt lat="42.51393608195447" lon="-8.4861096186895"><ele>265.0</ele><time>2026-04-05T15:11:22Z</time></trkpt><trkpt lat="42.51394917359222" lon="-8.48632684816444"><ele>266.0</ele><time>2026-04-05T15:11:23Z</time></trkpt><trkpt lat="42.51398200768204" lon="-8.486535047252131"><ele>267.0</ele><time>2026-04-05T15:11:24Z</time></trkpt><trkpt lat="42.51403605196803" lon="-8.48673415836675"><ele>268.0</ele><time>2026-04-05T15:11:25Z</time></trkpt><trkpt lat="42.514090177437595" lon="-8.486938155543093"><ele>273.66666666666663</ele><time>2026-04-05T15:11:26Z</time></trkpt><trkpt lat="42.514144585287745" lon="-8.487134118921693"><ele>279.3333333333333</ele><time>2026-04-05T15:11:27Z</time></trkpt><trkpt lat="42.51420539782913" lon="-8.487329966141955"><ele>285.0</ele><time>2026-04-05T15:11:28Z</time></trkpt><trkpt lat="42.514278482747514" lon="-8.487520067477831"><ele>285.0</ele><time>2026-04-05T15:11:29Z</time></trkpt><trkpt lat="42.51435165580686" lon="-8.487709280335206"><ele>285.0</ele><time>2026-04-05T15:11:30Z</time></trkpt><trkpt lat="42.514421753233805" lon="-8.487898245255618"><ele>285.0</ele><time>2026-04-05T15:11:31Z</time></trkpt><trkpt lat="42.514496397196716" lon="-8.488088246836005"><ele>280.6666666666667</ele><time>2026-04-05T15:11:32Z</time></trkpt><trkpt lat="42.514575744858" lon="-8.488274069835427"><ele>276.33333333333337</ele><time>2026-04-05T15:11:33Z</time></trkpt><trkpt lat="42.51465057290002" lon="-8.488457086383427"><ele>272.0</ele><time>2026-04-05T15:11:34Z</time></trkpt><trkpt lat="42.5147466674546" lon="-8.48862109492313"><ele>276.6666666666667</ele><time>2026-04-05T15:11:35Z</time></trkpt><trkpt lat="42.514856644679654" lon="-8.488771305688681"><ele>281.3333333333333</ele><time>2026-04-05T15:11:36Z</time></trkpt><trkpt lat="42.514971901769684" lon="-8.488908823262472"><ele>286.0</ele><time>2026-04-05T15:11:37Z</time></trkpt><trkpt lat="42.51509538357784" lon="-8.489039500624708"><ele>286.0</ele><time>2026-04-05T15:11:38Z</time></trkpt><trkpt lat="42.51522938270101" lon="-8.489150381669356"><ele>286.0</ele><time>2026-04-05T15:11:39Z</time></trkpt><trkpt lat="42.51536698888242" lon="-8.48924626968314"><ele>286.0</ele><time>2026-04-05T15:11:40Z</time></trkpt><trkpt lat="42.515512307389166" lon="-8.489333951941282"><ele>284.5</ele><time>2026-04-05T15:11:41Z</time></trkpt><trkpt lat="42.51565591913385" lon="-8.48940633672223"><ele>283.0</ele><time>2026-04-05T15:11:42Z</time></trkpt><trkpt lat="42.515794682517814" lon="-8.489481715923493"><ele>281.5</ele><time>2026-04-05T15:11:43Z</time></trkpt><trkpt lat="42.515919962299776" lon="-8.489583771896479"><ele>280.0</ele><time>2026-04-05T15:11:44Z</time></trkpt><trkpt lat="42.5160277886751" lon="-8.48972360639671"><ele>279.66666666666663</ele><time>2026-04-05T15:11:45Z</time></trkpt><trkpt lat="42.51611890170067" lon="-8.489886194997487"><ele>279.3333333333333</ele><time>2026-04-05T15:11:46Z</time></trkpt><trkpt lat="42.51619168904909" lon="-8.490067058979763"><ele>279.0</ele><time>2026-04-05T15:11:47Z</time></trkpt><trkpt lat="42.5162501254704" lon="-8.490253688816686"><ele>280.25</ele><time>2026-04-05T15:11:48Z</time></trkpt><trkpt lat="42.516287773032424" lon="-8.49044639360942"><ele>281.5</ele><time>2026-04-05T15:11:49Z</time></trkpt><trkpt lat="42.51630937077843" lon="-8.49064311359959"><ele>282.75</ele><time>2026-04-05T15:11:50Z</time></trkpt><trkpt lat="42.516304726788505" lon="-8.490833973268254"><ele>284.0</ele><time>2026-04-05T15:11:51Z</time></trkpt><trkpt lat="42.51627012117848" lon="-8.491023542982427"><ele>289.0</ele><time>2026-04-05T15:11:52Z</time></trkpt><trkpt lat="42.51622713051085" lon="-8.491204417033915"><ele>294.0</ele><time>2026-04-05T15:11:53Z</time></trkpt><trkpt lat="42.516183743508435" lon="-8.491379610421314"><ele>299.0</ele><time>2026-04-05T15:11:54Z</time></trkpt><trkpt lat="42.516141636558636" lon="-8.49155907551854"><ele>304.0</ele><time>2026-04-05T15:11:55Z</time></trkpt><trkpt lat="42.516114048511696" lon="-8.491739800458241"><ele>304.25</ele><time>2026-04-05T15:11:56Z</time></trkpt><trkpt lat="42.51610912284428" lon="-8.491919844877184"><ele>304.5</ele><time>2026-04-05T15:11:57Z</time></trkpt><trkpt lat="42.51612496188602" lon="-8.492103264327207"><ele>304.75</ele><time>2026-04-05T15:11:58Z</time></trkpt><trkpt lat="42.51615488375605" lon="-8.492278058144727"><ele>305.0</ele><time>2026-04-05T15:11:59Z</time></trkpt><trkpt lat="42.51620188357128" lon="-8.492442637357783"><ele>304.75</ele><time>2026-04-05T15:12:00Z</time></trkpt><trkpt lat="42.516263113719326" lon="-8.49260260613734"><ele>304.5</ele><time>2026-04-05T15:12:01Z</time></trkpt><trkpt lat="42.51633250128731" lon="-8.492755181698326"><ele>304.25</ele><time>2026-04-05T15:12:02Z</time></trkpt><trkpt lat="42.51639671960752" lon="-8.49290225259586"><ele>304.0</ele><time>2026-04-05T15:12:03Z</time></trkpt><trkpt lat="42.51645904944985" lon="-8.49305994646927"><ele>304.0</ele><time>2026-04-05T15:12:04Z</time></trkpt><trkpt lat="42.516513504076656" lon="-8.493223118536045"><ele>304.0</ele><time>2026-04-05T15:12:05Z</time></trkpt><trkpt lat="42.516576861793446" lon="-8.493565142164945"><ele>304.0</ele><time>2026-04-05T15:12:07Z</time></trkpt><trkpt lat="42.51658656071772" lon="-8.493747889463362"><ele>304.0</ele><time>2026-04-05T15:12:08Z</time></trkpt><trkpt lat="42.5165826943177" lon="-8.493934983442655"><ele>304.0</ele><time>2026-04-05T15:12:09Z</time></trkpt><trkpt lat="42.516566806608395" lon="-8.494128357490483"><ele>304.0</ele><time>2026-04-05T15:12:10Z</time></trkpt><trkpt lat="42.51653071629189" lon="-8.494315676551205"><ele>304.0</ele><time>2026-04-05T15:12:11Z</time></trkpt><trkpt lat="42.51648012017527" lon="-8.494507786762437"><ele>305.0</ele><time>2026-04-05T15:12:12Z</time></trkpt><trkpt lat="42.51641397786657" lon="-8.494697502089732"><ele>306.0</ele><time>2026-04-05T15:12:13Z</time></trkpt><trkpt lat="42.516346637207626" lon="-8.494899065869705"><ele>307.0</ele><time>2026-04-05T15:12:14Z</time></trkpt><trkpt lat="42.51628398903921" lon="-8.495101338756568"><ele>311.3333333333333</ele><time>2026-04-05T15:12:15Z</time></trkpt><trkpt lat="42.5162314993606" lon="-8.495320958842386"><ele>315.6666666666667</ele><time>2026-04-05T15:12:16Z</time></trkpt><trkpt lat="42.516189333945114" lon="-8.49554338908954"><ele>320.0</ele><time>2026-04-05T15:12:17Z</time></trkpt><trkpt lat="42.516150262300066" lon="-8.495767970229956"><ele>320.6666666666667</ele><time>2026-04-05T15:12:18Z</time></trkpt><trkpt lat="42.516117790033974" lon="-8.495997659906275"><ele>321.3333333333333</ele><time>2026-04-05T15:12:19Z</time></trkpt><trkpt lat="42.51608961434597" lon="-8.496228789969386"><ele>322.0</ele><time>2026-04-05T15:12:20Z</time></trkpt><trkpt lat="42.51605511905338" lon="-8.496463165675587"><ele>321.66666666666663</ele><time>2026-04-05T15:12:21Z</time></trkpt><trkpt lat="42.51599942948911" lon="-8.49668770752299"><ele>321.3333333333333</ele><time>2026-04-05T15:12:22Z</time></trkpt><trkpt lat="42.51592514797316" lon="-8.49690440535589"><ele>321.0</ele><time>2026-04-05T15:12:23Z</time></trkpt><trkpt lat="42.5158349145458" lon="-8.497117330383878"><ele>321.0</ele><time>2026-04-05T15:12:24Z</time></trkpt><trkpt lat="42.51573272132244" lon="-8.497318323603672"><ele>321.0</ele><time>2026-04-05T15:12:25Z</time></trkpt><trkpt lat="42.51561657043691" lon="-8.497505133937484"><ele>321.0</ele><time>2026-04-05T15:12:26Z</time></trkpt><trkpt lat="42.515484098925214" lon="-8.497664143992754"><ele>319.3333333333333</ele><time>2026-04-05T15:12:27Z</time></trkpt><trkpt lat="42.51534365896861" lon="-8.497795747066768"><ele>317.66666666666663</ele><time>2026-04-05T15:12:28Z</time></trkpt><trkpt lat="42.5151988466634" lon="-8.497926597466902"><ele>316.0</ele><time>2026-04-05T15:12:29Z</time></trkpt><trkpt lat="42.51504240058291" lon="-8.498041169161867"><ele>316.0</ele><time>2026-04-05T15:12:30Z</time></trkpt><trkpt lat="42.51487276864538" lon="-8.498126994592976"><ele>316.0</ele><time>2026-04-05T15:12:31Z</time></trkpt><trkpt lat="42.51469668018345" lon="-8.49818617292867"><ele>316.0</ele><time>2026-04-05T15:12:32Z</time></trkpt><trkpt lat="42.514518438877424" lon="-8.498225796881702"><ele>318.3333333333333</ele><time>2026-04-05T15:12:33Z</time></trkpt><trkpt lat="42.51434168133087" lon="-8.498289936512148"><ele>320.6666666666667</ele><time>2026-04-05T15:12:34Z</time></trkpt><trkpt lat="42.51415979040988" lon="-8.498303041432864"><ele>323.0</ele><time>2026-04-05T15:12:35Z</time></trkpt><trkpt lat="42.51399285718309" lon="-8.498348827743072"><ele>323.0</ele><time>2026-04-05T15:12:36Z</time></trkpt><trkpt lat="42.513832118567514" lon="-8.49840080843373"><ele>323.0</ele><time>2026-04-05T15:12:37Z</time></trkpt><trkpt lat="42.51367253204884" lon="-8.498485847082113"><ele>323.0</ele><time>2026-04-05T15:12:38Z</time></trkpt><trkpt lat="42.513507428254805" lon="-8.498572468207179"><ele>323.33333333333337</ele><time>2026-04-05T15:12:39Z</time></trkpt><trkpt lat="42.51334128583232" lon="-8.498663718576406"><ele>323.6666666666667</ele><time>2026-04-05T15:12:40Z</time></trkpt><trkpt lat="42.51318174464332" lon="-8.498806147960796"><ele>324.0</ele><time>2026-04-05T15:12:41Z</time></trkpt><trkpt lat="42.51303290205762" lon="-8.498970035582376"><ele>323.0</ele><time>2026-04-05T15:12:42Z</time></trkpt><trkpt lat="42.51289466775004" lon="-8.49916082562613"><ele>322.0</ele><time>2026-04-05T15:12:43Z</time></trkpt><trkpt lat="42.51277190045835" lon="-8.49937422775428"><ele>321.0</ele><time>2026-04-05T15:12:44Z</time></trkpt><trkpt lat="42.5126670586551" lon="-8.499608219195261"><ele>321.0</ele><time>2026-04-05T15:12:45Z</time></trkpt><trkpt lat="42.51257986546517" lon="-8.499851057012199"><ele>321.0</ele><time>2026-04-05T15:12:46Z</time></trkpt><trkpt lat="42.51250984105493" lon="-8.500108683292696"><ele>321.0</ele><time>2026-04-05T15:12:47Z</time></trkpt><trkpt lat="42.51246354265572" lon="-8.500369670575205"><ele>322.3333333333333</ele><time>2026-04-05T15:12:48Z</time></trkpt><trkpt lat="42.51243905113413" lon="-8.500630731549277"><ele>323.66666666666663</ele><time>2026-04-05T15:12:49Z</time></trkpt><trkpt lat="42.51243243564712" lon="-8.500897025422157"><ele>325.0</ele><time>2026-04-05T15:12:50Z</time></trkpt><trkpt lat="42.51244044226915" lon="-8.501154522629454"><ele>326.3333333333333</ele><time>2026-04-05T15:12:51Z</time></trkpt><trkpt lat="42.51245541732851" lon="-8.501412593254871"><ele>327.6666666666667</ele><time>2026-04-05T15:12:52Z</time></trkpt><trkpt lat="42.51246247914974" lon="-8.501659561578009"><ele>329.0</ele><time>2026-04-05T15:12:53Z</time></trkpt><trkpt lat="42.51247655997551" lon="-8.501915833410523"><ele>330.0</ele><time>2026-04-05T15:12:54Z</time></trkpt><trkpt lat="42.512492232590496" lon="-8.50217075974504"><ele>331.0</ele><time>2026-04-05T15:12:55Z</time></trkpt><trkpt lat="42.512508314824004" lon="-8.502421208534006"><ele>332.0</ele><time>2026-04-05T15:12:56Z</time></trkpt><trkpt lat="42.5125192503879" lon="-8.502655315970276"><ele>332.0</ele><time>2026-04-05T15:12:57Z</time></trkpt><trkpt lat="42.51253381241454" lon="-8.50286962887756"><ele>332.0</ele><time>2026-04-05T15:12:58Z</time></trkpt><trkpt lat="42.51254528572214" lon="-8.503069746415512"><ele>332.0</ele><time>2026-04-05T15:12:59Z</time></trkpt><trkpt lat="42.512554985526954" lon="-8.50326376384892"><ele>332.5</ele><time>2026-04-05T15:13:00Z</time></trkpt><trkpt lat="42.51255625808441" lon="-8.503448957098131"><ele>333.0</ele><time>2026-04-05T15:13:01Z</time></trkpt><trkpt lat="42.51253930050665" lon="-8.503632654494245"><ele>333.5</ele><time>2026-04-05T15:13:02Z</time></trkpt><trkpt lat="42.51249860293893" lon="-8.503810026078813"><ele>334.0</ele><time>2026-04-05T15:13:03Z</time></trkpt><trkpt lat="42.51243181457791" lon="-8.503978316654939"><ele>333.0</ele><time>2026-04-05T15:13:04Z</time></trkpt><trkpt lat="42.512358328175395" lon="-8.504142277179533"><ele>332.0</ele><time>2026-04-05T15:13:05Z</time></trkpt><trkpt lat="42.512277488238496" lon="-8.50429849748941"><ele>331.0</ele><time>2026-04-05T15:13:06Z</time></trkpt><trkpt lat="42.51218385415349" lon="-8.504446013102624"><ele>330.0</ele><time>2026-04-05T15:13:07Z</time></trkpt><trkpt lat="42.512088088880716" lon="-8.504596596815977"><ele>330.0</ele><time>2026-04-05T15:13:08Z</time></trkpt><trkpt lat="42.51201271462776" lon="-8.504759030782303"><ele>330.0</ele><time>2026-04-05T15:13:09Z</time></trkpt><trkpt lat="42.51193515055765" lon="-8.504917280552117"><ele>330.0</ele><time>2026-04-05T15:13:10Z</time></trkpt><trkpt lat="42.51187012602892" lon="-8.50508208656319"><ele>330.0</ele><time>2026-04-05T15:13:11Z</time></trkpt><trkpt lat="42.511823034372775" lon="-8.505259591028352"><ele>330.5</ele><time>2026-04-05T15:13:12Z</time></trkpt><trkpt lat="42.51177057034622" lon="-8.505445548703298"><ele>331.0</ele><time>2026-04-05T15:13:13Z</time></trkpt><trkpt lat="42.511771593666765" lon="-8.505649105370328"><ele>331.5</ele><time>2026-04-05T15:13:14Z</time></trkpt><trkpt lat="42.511770864465355" lon="-8.50583837548774"><ele>332.0</ele><time>2026-04-05T15:13:15Z</time></trkpt><trkpt lat="42.511763082077486" lon="-8.506027993184397"><ele>332.0</ele><time>2026-04-05T15:13:16Z</time></trkpt><trkpt lat="42.511773989808326" lon="-8.506212020338921"><ele>332.0</ele><time>2026-04-05T15:13:17Z</time></trkpt><trkpt lat="42.511775789839035" lon="-8.506396896948896"><ele>332.0</ele><time>2026-04-05T15:13:18Z</time></trkpt><trkpt lat="42.5117842679639" lon="-8.506583745147017"><ele>332.0</ele><time>2026-04-05T15:13:19Z</time></trkpt><trkpt lat="42.511796463029306" lon="-8.506774903852603"><ele>331.25</ele><time>2026-04-05T15:13:20Z</time></trkpt><trkpt lat="42.51180176292109" lon="-8.506967745267314"><ele>330.5</ele><time>2026-04-05T15:13:21Z</time></trkpt><trkpt lat="42.51181104613961" lon="-8.50717213823939"><ele>329.75</ele><time>2026-04-05T15:13:22Z</time></trkpt><trkpt lat="42.511815329174226" lon="-8.507376874256453"><ele>329.0</ele><time>2026-04-05T15:13:23Z</time></trkpt><trkpt lat="42.511823454932056" lon="-8.507569969268328"><ele>329.0</ele><time>2026-04-05T15:13:24Z</time></trkpt><trkpt lat="42.51183004012763" lon="-8.507746852506969"><ele>329.0</ele><time>2026-04-05T15:13:25Z</time></trkpt><trkpt lat="42.51183831073418" lon="-8.507929547243167"><ele>329.0</ele><time>2026-04-05T15:13:26Z</time></trkpt><trkpt lat="42.51185327917835" lon="-8.508118574569199"><ele>329.0</ele><time>2026-04-05T15:13:27Z</time></trkpt><trkpt lat="42.51185300358701" lon="-8.50831736270993"><ele>328.33333333333337</ele><time>2026-04-05T15:13:28Z</time></trkpt><trkpt lat="42.51185432793275" lon="-8.508524665458317"><ele>327.6666666666667</ele><time>2026-04-05T15:13:29Z</time></trkpt><trkpt lat="42.51186231074276" lon="-8.508733619381108"><ele>327.0</ele><time>2026-04-05T15:13:30Z</time></trkpt><trkpt lat="42.51186374787239" lon="-8.508941239694515"><ele>324.6666666666667</ele><time>2026-04-05T15:13:31Z</time></trkpt><trkpt lat="42.511853361609965" lon="-8.509154905836384"><ele>322.33333333333337</ele><time>2026-04-05T15:13:32Z</time></trkpt><trkpt lat="42.511828243429775" lon="-8.509369897242173"><ele>320.0</ele><time>2026-04-05T15:13:33Z</time></trkpt><trkpt lat="42.511782018561306" lon="-8.509579118388306"><ele>316.6666666666667</ele><time>2026-04-05T15:13:34Z</time></trkpt><trkpt lat="42.511714576740324" lon="-8.509779050254194"><ele>313.3333333333333</ele><time>2026-04-05T15:13:35Z</time></trkpt><trkpt lat="42.511630717974064" lon="-8.509970912725832"><ele>310.0</ele><time>2026-04-05T15:13:36Z</time></trkpt><trkpt lat="42.511538046087175" lon="-8.51015157932775"><ele>310.0</ele><time>2026-04-05T15:13:37Z</time></trkpt><trkpt lat="42.511444730209845" lon="-8.510334637261286"><ele>310.0</ele><time>2026-04-05T15:13:38Z</time></trkpt><trkpt lat="42.511355240301185" lon="-8.510514308070693"><ele>310.0</ele><time>2026-04-05T15:13:39Z</time></trkpt><trkpt lat="42.51127821835381" lon="-8.510685596560203"><ele>308.75</ele><time>2026-04-05T15:13:40Z</time></trkpt><trkpt lat="42.51118481482615" lon="-8.510839224931281"><ele>307.5</ele><time>2026-04-05T15:13:41Z</time></trkpt><trkpt lat="42.51111648182188" lon="-8.510986635867576"><ele>306.25</ele><time>2026-04-05T15:13:42Z</time></trkpt><trkpt lat="42.51105855948997" lon="-8.511141929480068"><ele>305.0</ele><time>2026-04-05T15:13:43Z</time></trkpt><trkpt lat="42.511003444344375" lon="-8.511295686157547"><ele>305.0</ele><time>2026-04-05T15:13:44Z</time></trkpt><trkpt lat="42.51095771403254" lon="-8.511440898623396"><ele>305.0</ele><time>2026-04-05T15:13:45Z</time></trkpt><trkpt lat="42.51091584898193" lon="-8.511583232892985"><ele>305.0</ele><time>2026-04-05T15:13:46Z</time></trkpt><trkpt lat="42.51087764519635" lon="-8.51171967740382"><ele>305.0</ele><time>2026-04-05T15:13:47Z</time></trkpt><trkpt lat="42.510839388702756" lon="-8.511856455256988"><ele>305.0</ele><time>2026-04-05T15:13:48Z</time></trkpt><trkpt lat="42.51082170040704" lon="-8.511994290981166"><ele>303.8</ele><time>2026-04-05T15:13:49Z</time></trkpt><trkpt lat="42.5107894151314" lon="-8.512118466644802"><ele>302.6</ele><time>2026-04-05T15:13:50Z</time></trkpt><trkpt lat="42.510757398295276" lon="-8.512241609842565"><ele>301.4</ele><time>2026-04-05T15:13:51Z</time></trkpt><trkpt lat="42.51072573356645" lon="-8.512363398752662"><ele>300.2</ele><time>2026-04-05T15:13:52Z</time></trkpt><trkpt lat="42.51068987955734" lon="-8.512501300482294"><ele>299.0</ele><time>2026-04-05T15:13:53Z</time></trkpt><trkpt lat="42.51065352107835" lon="-8.512636043817302"><ele>299.0</ele><time>2026-04-05T15:13:54Z</time></trkpt><trkpt lat="42.510614918965416" lon="-8.51276792560064"><ele>299.0</ele><time>2026-04-05T15:13:55Z</time></trkpt><trkpt lat="42.51057757576123" lon="-8.51288689008908"><ele>299.0</ele><time>2026-04-05T15:13:56Z</time></trkpt><trkpt lat="42.510520601156166" lon="-8.513001321033867"><ele>299.0</ele><time>2026-04-05T15:13:57Z</time></trkpt><trkpt lat="42.5104772167886" lon="-8.513125017557702"><ele>299.0</ele><time>2026-04-05T15:13:58Z</time></trkpt><trkpt lat="42.51044851625473" lon="-8.513239984510065"><ele>298.25</ele><time>2026-04-05T15:13:59Z</time></trkpt><trkpt lat="42.510375178960174" lon="-8.513378258913404"><ele>297.5</ele><time>2026-04-05T15:14:00Z</time></trkpt><trkpt lat="42.51031659954454" lon="-8.513506770674114"><ele>296.75</ele><time>2026-04-05T15:14:01Z</time></trkpt><trkpt lat="42.51026179505386" lon="-8.513632838097065"><ele>296.0</ele><time>2026-04-05T15:14:02Z</time></trkpt><trkpt lat="42.51019757892167" lon="-8.513757941125894"><ele>296.0</ele><time>2026-04-05T15:14:03Z</time></trkpt><trkpt lat="42.51013258569936" lon="-8.51388112941676"><ele>296.0</ele><time>2026-04-05T15:14:04Z</time></trkpt><trkpt lat="42.51006053441663" lon="-8.513995901014685"><ele>296.0</ele><time>2026-04-05T15:14:05Z</time></trkpt><trkpt lat="42.50998635172465" lon="-8.514105693147878"><ele>296.0</ele><time>2026-04-05T15:14:06Z</time></trkpt><trkpt lat="42.50990349011403" lon="-8.51421553668576"><ele>296.0</ele><time>2026-04-05T15:14:07Z</time></trkpt><trkpt lat="42.50981603017496" lon="-8.514317140230592"><ele>296.0</ele><time>2026-04-05T15:14:08Z</time></trkpt><trkpt lat="42.50972638478595" lon="-8.51441854148729"><ele>296.0</ele><time>2026-04-05T15:14:09Z</time></trkpt><trkpt lat="42.50962999482587" lon="-8.514518173857882"><ele>296.0</ele><time>2026-04-05T15:14:10Z</time></trkpt><trkpt lat="42.50953250258636" lon="-8.51460007691057"><ele>296.0</ele><time>2026-04-05T15:14:11Z</time></trkpt><trkpt lat="42.509429748535965" lon="-8.514669953082887"><ele>294.40000000000003</ele><time>2026-04-05T15:14:12Z</time></trkpt><trkpt lat="42.50932749514123" lon="-8.514723825867678"><ele>292.8</ele><time>2026-04-05T15:14:13Z</time></trkpt><trkpt lat="42.50922663570517" lon="-8.514759267079123"><ele>291.20000000000005</ele><time>2026-04-05T15:14:14Z</time></trkpt><trkpt lat="42.5091256266318" lon="-8.514784887556313"><ele>289.6</ele><time>2026-04-05T15:14:15Z</time></trkpt><trkpt lat="42.5090309121727" lon="-8.514790334930881"><ele>288.0</ele><time>2026-04-05T15:14:16Z</time></trkpt><trkpt lat="42.50893685567647" lon="-8.514778827079331"><ele>288.0</ele><time>2026-04-05T15:14:17Z</time></trkpt><trkpt lat="42.50883947893172" lon="-8.514759203385687"><ele>288.0</ele><time>2026-04-05T15:14:18Z</time></trkpt><trkpt lat="42.508739403226976" lon="-8.514730869020704"><ele>288.0</ele><time>2026-04-05T15:14:19Z</time></trkpt><trkpt lat="42.50863354478908" lon="-8.514692307569431"><ele>288.0</ele><time>2026-04-05T15:14:20Z</time></trkpt><trkpt lat="42.50852764601405" lon="-8.514644146626873"><ele>288.0</ele><time>2026-04-05T15:14:21Z</time></trkpt><trkpt lat="42.50842694681397" lon="-8.514587402124546"><ele>290.0</ele><time>2026-04-05T15:14:22Z</time></trkpt><trkpt lat="42.50832161916206" lon="-8.514524188107037"><ele>292.0</ele><time>2026-04-05T15:14:23Z</time></trkpt><trkpt lat="42.508224006461006" lon="-8.514468157410066"><ele>294.0</ele><time>2026-04-05T15:14:24Z</time></trkpt><trkpt lat="42.50811595638053" lon="-8.514404457340747"><ele>296.0</ele><time>2026-04-05T15:14:25Z</time></trkpt><trkpt lat="42.5080073663233" lon="-8.514341702094542"><ele>293.5</ele><time>2026-04-05T15:14:26Z</time></trkpt><trkpt lat="42.50789630157215" lon="-8.514295958529694"><ele>291.0</ele><time>2026-04-05T15:14:27Z</time></trkpt><trkpt lat="42.50778019664008" lon="-8.514263392172024"><ele>288.5</ele><time>2026-04-05T15:14:28Z</time></trkpt><trkpt lat="42.50763872484219" lon="-8.514238017997737"><ele>286.0</ele><time>2026-04-05T15:14:29Z</time></trkpt><trkpt lat="42.50749300003621" lon="-8.514246807286407"><ele>286.0</ele><time>2026-04-05T15:14:30Z</time></trkpt><trkpt lat="42.50733763733561" lon="-8.51428564224116"><ele>286.0</ele><time>2026-04-05T15:14:31Z</time></trkpt><trkpt lat="42.50719107789245" lon="-8.514357803730828"><ele>286.0</ele><time>2026-04-05T15:14:32Z</time></trkpt><trkpt lat="42.5070597091437" lon="-8.51445386906998"><ele>288.0</ele><time>2026-04-05T15:14:33Z</time></trkpt><trkpt lat="42.506940958991294" lon="-8.514569527798763"><ele>290.0</ele><time>2026-04-05T15:14:34Z</time></trkpt><trkpt lat="42.50684107959417" lon="-8.514717754970672"><ele>292.0</ele><time>2026-04-05T15:14:35Z</time></trkpt><trkpt lat="42.5067453811931" lon="-8.514870634131638"><ele>294.0</ele><time>2026-04-05T15:14:36Z</time></trkpt><trkpt lat="42.50664429613001" lon="-8.515023192745792"><ele>294.0</ele><time>2026-04-05T15:14:37Z</time></trkpt><trkpt lat="42.506584077095155" lon="-8.51522001104714"><ele>294.0</ele><time>2026-04-05T15:14:38Z</time></trkpt><trkpt lat="42.50654527177147" lon="-8.515423502975482"><ele>294.0</ele><time>2026-04-05T15:14:39Z</time></trkpt><trkpt lat="42.50652836347922" lon="-8.515629898399197"><ele>294.5</ele><time>2026-04-05T15:14:40Z</time></trkpt><trkpt lat="42.5065331527802" lon="-8.515836621381558"><ele>295.0</ele><time>2026-04-05T15:14:41Z</time></trkpt><trkpt lat="42.50655740894922" lon="-8.516028708741127"><ele>295.5</ele><time>2026-04-05T15:14:42Z</time></trkpt><trkpt lat="42.50660373024288" lon="-8.516218449050209"><ele>296.0</ele><time>2026-04-05T15:14:43Z</time></trkpt><trkpt lat="42.506661881036564" lon="-8.516402250741475"><ele>296.0</ele><time>2026-04-05T15:14:44Z</time></trkpt><trkpt lat="42.506717283293774" lon="-8.516570613912688"><ele>296.0</ele><time>2026-04-05T15:14:45Z</time></trkpt><trkpt lat="42.50677931947435" lon="-8.516750958946151"><ele>296.0</ele><time>2026-04-05T15:14:46Z</time></trkpt><trkpt lat="42.50683855890011" lon="-8.51693078927133"><ele>296.0</ele><time>2026-04-05T15:14:47Z</time></trkpt><trkpt lat="42.506885532323516" lon="-8.517120133091378"><ele>296.75</ele><time>2026-04-05T15:14:48Z</time></trkpt><trkpt lat="42.50691734287308" lon="-8.517319197544936"><ele>297.5</ele><time>2026-04-05T15:14:49Z</time></trkpt><trkpt lat="42.50692775464906" lon="-8.517514616448983"><ele>298.25</ele><time>2026-04-05T15:14:50Z</time></trkpt><trkpt lat="42.50691550265563" lon="-8.51771442646838"><ele>299.0</ele><time>2026-04-05T15:14:51Z</time></trkpt><trkpt lat="42.50688801491395" lon="-8.517895737856637"><ele>298.4</ele><time>2026-04-05T15:14:52Z</time></trkpt><trkpt lat="42.50686763894438" lon="-8.518067619963904"><ele>297.79999999999995</ele><time>2026-04-05T15:14:53Z</time></trkpt><trkpt lat="42.50680881233986" lon="-8.51820365871843"><ele>297.20000000000005</ele><time>2026-04-05T15:14:54Z</time></trkpt><trkpt lat="42.50675572573253" lon="-8.51831692628981"><ele>296.6</ele><time>2026-04-05T15:14:55Z</time></trkpt><trkpt lat="42.50671296654213" lon="-8.518445338314303"><ele>296.0</ele><time>2026-04-05T15:14:56Z</time></trkpt><trkpt lat="42.50665347303202" lon="-8.518558268236845"><ele>296.0</ele><time>2026-04-05T15:14:57Z</time></trkpt><trkpt lat="42.50657852383045" lon="-8.518660080171847"><ele>296.0</ele><time>2026-04-05T15:14:58Z</time></trkpt><trkpt lat="42.50651079694711" lon="-8.518770466216418"><ele>296.0</ele><time>2026-04-05T15:14:59Z</time></trkpt><trkpt lat="42.50644308037759" lon="-8.518885575966273"><ele>296.0</ele><time>2026-04-05T15:15:00Z</time></trkpt><trkpt lat="42.506371407756674" lon="-8.51899241812644"><ele>296.0</ele><time>2026-04-05T15:15:01Z</time></trkpt><trkpt lat="42.506304513134175" lon="-8.51909845752702"><ele>295.8</ele><time>2026-04-05T15:15:02Z</time></trkpt><trkpt lat="42.506236234467636" lon="-8.519200328406328"><ele>295.6</ele><time>2026-04-05T15:15:03Z</time></trkpt><trkpt lat="42.50616648977922" lon="-8.519308745504881"><ele>295.4</ele><time>2026-04-05T15:15:04Z</time></trkpt><trkpt lat="42.50609889990121" lon="-8.519425353919006"><ele>295.2</ele><time>2026-04-05T15:15:05Z</time></trkpt><trkpt lat="42.50601901507585" lon="-8.519544201479945"><ele>295.0</ele><time>2026-04-05T15:15:06Z</time></trkpt><trkpt lat="42.50594073073149" lon="-8.519667574379643"><ele>295.0</ele><time>2026-04-05T15:15:07Z</time></trkpt><trkpt lat="42.50585836710935" lon="-8.519794699723374"><ele>295.0</ele><time>2026-04-05T15:15:08Z</time></trkpt><trkpt lat="42.50577383478952" lon="-8.519924936972002"><ele>295.0</ele><time>2026-04-05T15:15:09Z</time></trkpt><trkpt lat="42.505691921596416" lon="-8.520056920354454"><ele>295.0</ele><time>2026-04-05T15:15:10Z</time></trkpt><trkpt lat="42.50560975602237" lon="-8.520190782449237"><ele>295.0</ele><time>2026-04-05T15:15:11Z</time></trkpt><trkpt lat="42.505527358955725" lon="-8.520318449617948"><ele>295.0</ele><time>2026-04-05T15:15:12Z</time></trkpt><trkpt lat="42.50544740021357" lon="-8.520430249283178"><ele>295.0</ele><time>2026-04-05T15:15:13Z</time></trkpt><trkpt lat="42.50537259310489" lon="-8.520548205312428"><ele>295.0</ele><time>2026-04-05T15:15:14Z</time></trkpt><trkpt lat="42.50529655448962" lon="-8.520672690980765"><ele>294.5</ele><time>2026-04-05T15:15:15Z</time></trkpt><trkpt lat="42.50521317804397" lon="-8.520808894448837"><ele>294.0</ele><time>2026-04-05T15:15:16Z</time></trkpt><trkpt lat="42.50511971791387" lon="-8.5209519728907"><ele>293.5</ele><time>2026-04-05T15:15:17Z</time></trkpt><trkpt lat="42.50503394722595" lon="-8.521100078243585"><ele>293.0</ele><time>2026-04-05T15:15:18Z</time></trkpt><trkpt lat="42.50495208507306" lon="-8.521261622925236"><ele>293.0</ele><time>2026-04-05T15:15:19Z</time></trkpt><trkpt lat="42.5048810403893" lon="-8.521415668414717"><ele>293.0</ele><time>2026-04-05T15:15:20Z</time></trkpt><trkpt lat="42.50482006648287" lon="-8.521565948814363"><ele>293.0</ele><time>2026-04-05T15:15:21Z</time></trkpt><trkpt lat="42.50477167188116" lon="-8.521722887351476"><ele>293.0</ele><time>2026-04-05T15:15:22Z</time></trkpt><trkpt lat="42.50473458942149" lon="-8.521879688899377"><ele>293.0</ele><time>2026-04-05T15:15:23Z</time></trkpt><trkpt lat="42.50469966263907" lon="-8.522040248672429"><ele>293.0</ele><time>2026-04-05T15:15:24Z</time></trkpt><trkpt lat="42.50466606528364" lon="-8.522189068948085"><ele>293.0</ele><time>2026-04-05T15:15:25Z</time></trkpt><trkpt lat="42.50463508954745" lon="-8.522334118685308"><ele>293.0</ele><time>2026-04-05T15:15:26Z</time></trkpt><trkpt lat="42.50460215478702" lon="-8.522480873248846"><ele>296.5</ele><time>2026-04-05T15:15:27Z</time></trkpt><trkpt lat="42.50457111839925" lon="-8.522635060823971"><ele>300.0</ele><time>2026-04-05T15:15:28Z</time></trkpt><trkpt lat="42.504540737159765" lon="-8.522781872635314"><ele>303.5</ele><time>2026-04-05T15:15:29Z</time></trkpt><trkpt lat="42.50450927306" lon="-8.522930079680746"><ele>307.0</ele><time>2026-04-05T15:15:30Z</time></trkpt><trkpt lat="42.50447342645752" lon="-8.523075546141499"><ele>307.0</ele><time>2026-04-05T15:15:31Z</time></trkpt><trkpt lat="42.504435681786454" lon="-8.52323163836994"><ele>307.0</ele><time>2026-04-05T15:15:32Z</time></trkpt><trkpt lat="42.504385543414145" lon="-8.523389214351575"><ele>307.0</ele><time>2026-04-05T15:15:33Z</time></trkpt><trkpt lat="42.50432684965934" lon="-8.523552751558112"><ele>307.0</ele><time>2026-04-05T15:15:34Z</time></trkpt><trkpt lat="42.504259954494" lon="-8.523717942627385"><ele>303.66666666666663</ele><time>2026-04-05T15:15:35Z</time></trkpt><trkpt lat="42.50417891882346" lon="-8.52388275570419"><ele>300.3333333333333</ele><time>2026-04-05T15:15:36Z</time></trkpt><trkpt lat="42.50408020607938" lon="-8.524054136324432"><ele>297.0</ele><time>2026-04-05T15:15:37Z</time></trkpt><trkpt lat="42.503976226124756" lon="-8.524213910349966"><ele>297.0</ele><time>2026-04-05T15:15:38Z</time></trkpt><trkpt lat="42.5038611471625" lon="-8.524365203912577"><ele>297.0</ele><time>2026-04-05T15:15:39Z</time></trkpt><trkpt lat="42.50374328121217" lon="-8.524501512287769"><ele>297.0</ele><time>2026-04-05T15:15:40Z</time></trkpt><trkpt lat="42.503622076081925" lon="-8.52463322750951"><ele>299.6666666666667</ele><time>2026-04-05T15:15:41Z</time></trkpt><trkpt lat="42.5034982507065" lon="-8.524755658440688"><ele>302.33333333333337</ele><time>2026-04-05T15:15:42Z</time></trkpt><trkpt lat="42.50336894993198" lon="-8.524869382496137"><ele>305.0</ele><time>2026-04-05T15:15:43Z</time></trkpt><trkpt lat="42.503241969963156" lon="-8.524984308703159"><ele>305.0</ele><time>2026-04-05T15:15:44Z</time></trkpt><trkpt lat="42.50312731500943" lon="-8.525101861427077"><ele>305.0</ele><time>2026-04-05T15:15:45Z</time></trkpt><trkpt lat="42.50301018412243" lon="-8.525225296533595"><ele>305.0</ele><time>2026-04-05T15:15:46Z</time></trkpt><trkpt lat="42.502902412367476" lon="-8.5253584061423"><ele>305.0</ele><time>2026-04-05T15:15:47Z</time></trkpt><trkpt lat="42.502795946741166" lon="-8.525496388230238"><ele>307.75</ele><time>2026-04-05T15:15:48Z</time></trkpt><trkpt lat="42.50269717212116" lon="-8.525635590008601"><ele>310.5</ele><time>2026-04-05T15:15:49Z</time></trkpt><trkpt lat="42.502603982038096" lon="-8.525781892711173"><ele>313.25</ele><time>2026-04-05T15:15:50Z</time></trkpt><trkpt lat="42.50251773167123" lon="-8.52593097878114"><ele>316.0</ele><time>2026-04-05T15:15:51Z</time></trkpt><trkpt lat="42.50243461261416" lon="-8.526082738937133"><ele>314.5</ele><time>2026-04-05T15:15:52Z</time></trkpt><trkpt lat="42.50236080435549" lon="-8.52624261610571"><ele>313.0</ele><time>2026-04-05T15:15:53Z</time></trkpt><trkpt lat="42.50229591746022" lon="-8.526406394588312"><ele>311.5</ele><time>2026-04-05T15:15:54Z</time></trkpt><trkpt lat="42.502237703047754" lon="-8.526575835049826"><ele>310.0</ele><time>2026-04-05T15:15:55Z</time></trkpt><trkpt lat="42.5021811904977" lon="-8.526749803049702"><ele>310.0</ele><time>2026-04-05T15:15:56Z</time></trkpt><trkpt lat="42.50213370227661" lon="-8.526928730719995"><ele>310.0</ele><time>2026-04-05T15:15:57Z</time></trkpt><trkpt lat="42.50209096077217" lon="-8.527110844601147"><ele>310.0</ele><time>2026-04-05T15:15:58Z</time></trkpt><trkpt lat="42.50205283050606" lon="-8.527304828595037"><ele>310.0</ele><time>2026-04-05T15:15:59Z</time></trkpt><trkpt lat="42.50202600455187" lon="-8.527498559374802"><ele>314.5</ele><time>2026-04-05T15:16:00Z</time></trkpt><trkpt lat="42.502007111743254" lon="-8.527694470141032"><ele>319.0</ele><time>2026-04-05T15:16:01Z</time></trkpt><trkpt lat="42.501993260670396" lon="-8.527898808523263"><ele>323.5</ele><time>2026-04-05T15:16:02Z</time></trkpt><trkpt lat="42.50198982938242" lon="-8.528103106057792"><ele>328.0</ele><time>2026-04-05T15:16:03Z</time></trkpt><trkpt lat="42.5019954413383" lon="-8.528305678848252"><ele>328.0</ele><time>2026-04-05T15:16:04Z</time></trkpt><trkpt lat="42.50201112127844" lon="-8.528512478478811"><ele>328.0</ele><time>2026-04-05T15:16:05Z</time></trkpt><trkpt lat="42.502040783554385" lon="-8.528715747618614"><ele>328.0</ele><time>2026-04-05T15:16:06Z</time></trkpt><trkpt lat="42.50208338878242" lon="-8.5289205426515"><ele>322.3333333333333</ele><time>2026-04-05T15:16:07Z</time></trkpt><trkpt lat="42.502144194109086" lon="-8.529120779265117"><ele>316.6666666666667</ele><time>2026-04-05T15:16:08Z</time></trkpt><trkpt lat="42.50222242680416" lon="-8.529305353967937"><ele>311.0</ele><time>2026-04-05T15:16:09Z</time></trkpt><trkpt lat="42.50231572369101" lon="-8.529480841708539"><ele>312.33333333333337</ele><time>2026-04-05T15:16:10Z</time></trkpt><trkpt lat="42.50241878564161" lon="-8.529660508138827"><ele>313.6666666666667</ele><time>2026-04-05T15:16:11Z</time></trkpt><trkpt lat="42.50252802193681" lon="-8.529822446504317"><ele>315.0</ele><time>2026-04-05T15:16:12Z</time></trkpt><trkpt lat="42.50264509351454" lon="-8.529951571960389"><ele>315.0</ele><time>2026-04-05T15:16:13Z</time></trkpt><trkpt lat="42.502779115771474" lon="-8.530065638221199"><ele>315.0</ele><time>2026-04-05T15:16:14Z</time></trkpt><trkpt lat="42.50293202131755" lon="-8.530169281199464"><ele>315.0</ele><time>2026-04-05T15:16:15Z</time></trkpt><trkpt lat="42.503096291678325" lon="-8.530259731395219"><ele>312.6666666666667</ele><time>2026-04-05T15:16:16Z</time></trkpt><trkpt lat="42.50326775588201" lon="-8.530331822006781"><ele>310.33333333333337</ele><time>2026-04-05T15:16:17Z</time></trkpt><trkpt lat="42.50343081805271" lon="-8.530381353461514"><ele>308.0</ele><time>2026-04-05T15:16:18Z</time></trkpt><trkpt lat="42.50358609066727" lon="-8.530426958762309"><ele>311.33333333333337</ele><time>2026-04-05T15:16:19Z</time></trkpt><trkpt lat="42.50373372233759" lon="-8.530478243108101"><ele>314.6666666666667</ele><time>2026-04-05T15:16:20Z</time></trkpt><trkpt lat="42.50388282586614" lon="-8.530521485066918"><ele>318.0</ele><time>2026-04-05T15:16:21Z</time></trkpt><trkpt lat="42.5040354047147" lon="-8.53056665061292"><ele>318.0</ele><time>2026-04-05T15:16:22Z</time></trkpt><trkpt lat="42.50418655958592" lon="-8.53061960066964"><ele>318.0</ele><time>2026-04-05T15:16:23Z</time></trkpt><trkpt lat="42.50433727688269" lon="-8.53067120112584"><ele>318.0</ele><time>2026-04-05T15:16:24Z</time></trkpt><trkpt lat="42.504495819086266" lon="-8.530721072393046"><ele>314.6666666666667</ele><time>2026-04-05T15:16:25Z</time></trkpt><trkpt lat="42.50465338112377" lon="-8.530781867070264"><ele>311.33333333333337</ele><time>2026-04-05T15:16:26Z</time></trkpt><trkpt lat="42.50480409791402" lon="-8.530857569124418"><ele>308.0</ele><time>2026-04-05T15:16:27Z</time></trkpt><trkpt lat="42.50495020852101" lon="-8.53096551499991"><ele>308.0</ele><time>2026-04-05T15:16:28Z</time></trkpt><trkpt lat="42.505082418330616" lon="-8.531099488742827"><ele>308.0</ele><time>2026-04-05T15:16:29Z</time></trkpt><trkpt lat="42.50521112681457" lon="-8.531256306584464"><ele>308.0</ele><time>2026-04-05T15:16:30Z</time></trkpt><trkpt lat="42.50532956664624" lon="-8.531428483310336"><ele>305.0</ele><time>2026-04-05T15:16:31Z</time></trkpt><trkpt lat="42.50543359530881" lon="-8.531612516824943"><ele>302.0</ele><time>2026-04-05T15:16:32Z</time></trkpt><trkpt lat="42.505526213680646" lon="-8.531817005458539"><ele>299.0</ele><time>2026-04-05T15:16:33Z</time></trkpt><trkpt lat="42.50560120428737" lon="-8.532029230259772"><ele>299.33333333333337</ele><time>2026-04-05T15:16:34Z</time></trkpt><trkpt lat="42.505656511146235" lon="-8.532241769862104"><ele>299.6666666666667</ele><time>2026-04-05T15:16:35Z</time></trkpt><trkpt lat="42.50569391183438" lon="-8.532467013137085"><ele>300.0</ele><time>2026-04-05T15:16:36Z</time></trkpt><trkpt lat="42.50571291140452" lon="-8.532692337948449"><ele>298.0</ele><time>2026-04-05T15:16:37Z</time></trkpt><trkpt lat="42.50571671972328" lon="-8.532923650266898"><ele>296.0</ele><time>2026-04-05T15:16:38Z</time></trkpt><trkpt lat="42.505710085955656" lon="-8.53314413872389"><ele>294.0</ele><time>2026-04-05T15:16:39Z</time></trkpt><trkpt lat="42.50568942453599" lon="-8.533376070111837"><ele>294.0</ele><time>2026-04-05T15:16:40Z</time></trkpt><trkpt lat="42.50565774555001" lon="-8.533610980604323"><ele>294.0</ele><time>2026-04-05T15:16:41Z</time></trkpt><trkpt lat="42.505622197432245" lon="-8.533842072651353"><ele>294.0</ele><time>2026-04-05T15:16:42Z</time></trkpt><trkpt lat="42.505593548854826" lon="-8.534055077040787"><ele>290.3333333333333</ele><time>2026-04-05T15:16:43Z</time></trkpt><trkpt lat="42.505565577243566" lon="-8.534266440492372"><ele>286.66666666666663</ele><time>2026-04-05T15:16:44Z</time></trkpt><trkpt lat="42.50553651854303" lon="-8.534471627493776"><ele>283.0</ele><time>2026-04-05T15:16:45Z</time></trkpt><trkpt lat="42.50550959943942" lon="-8.53467070056064"><ele>281.3333333333333</ele><time>2026-04-05T15:16:46Z</time></trkpt><trkpt lat="42.50546332921786" lon="-8.534881119454257"><ele>279.6666666666667</ele><time>2026-04-05T15:16:47Z</time></trkpt><trkpt lat="42.50541516649863" lon="-8.535078588460463"><ele>278.0</ele><time>2026-04-05T15:16:48Z</time></trkpt><trkpt lat="42.505353785647266" lon="-8.535258101358401"><ele>280.0</ele><time>2026-04-05T15:16:49Z</time></trkpt><trkpt lat="42.505270705328705" lon="-8.535420817490506"><ele>282.0</ele><time>2026-04-05T15:16:50Z</time></trkpt><trkpt lat="42.50518243179168" lon="-8.535574010564385"><ele>284.0</ele><time>2026-04-05T15:16:51Z</time></trkpt><trkpt lat="42.50508127169228" lon="-8.535724965077781"><ele>286.0</ele><time>2026-04-05T15:16:52Z</time></trkpt><trkpt lat="42.504967338214755" lon="-8.535858926563586"><ele>286.0</ele><time>2026-04-05T15:16:53Z</time></trkpt><trkpt lat="42.5048362977665" lon="-8.535985204977443"><ele>286.0</ele><time>2026-04-05T15:16:54Z</time></trkpt><trkpt lat="42.50469823028666" lon="-8.536098626893427"><ele>286.0</ele><time>2026-04-05T15:16:55Z</time></trkpt><trkpt lat="42.504553009885996" lon="-8.536187759430845"><ele>283.66666666666663</ele><time>2026-04-05T15:16:56Z</time></trkpt><trkpt lat="42.504393714065415" lon="-8.536255504060703"><ele>281.3333333333333</ele><time>2026-04-05T15:16:57Z</time></trkpt><trkpt lat="42.50423518368677" lon="-8.53630390025812"><ele>279.0</ele><time>2026-04-05T15:16:58Z</time></trkpt><trkpt lat="42.50407070138185" lon="-8.536329758425902"><ele>279.0</ele><time>2026-04-05T15:16:59Z</time></trkpt><trkpt lat="42.50391189821032" lon="-8.536336378798886"><ele>279.0</ele><time>2026-04-05T15:17:00Z</time></trkpt><trkpt lat="42.50374931598092" lon="-8.536327861783395"><ele>279.0</ele><time>2026-04-05T15:17:01Z</time></trkpt><trkpt lat="42.50358219500507" lon="-8.536313623422174"><ele>278.3333333333333</ele><time>2026-04-05T15:17:02Z</time></trkpt><trkpt lat="42.50341389689559" lon="-8.53629896059599"><ele>277.66666666666663</ele><time>2026-04-05T15:17:03Z</time></trkpt><trkpt lat="42.50324412491806" lon="-8.536302379804892"><ele>277.0</ele><time>2026-04-05T15:17:04Z</time></trkpt><trkpt lat="42.503066565446616" lon="-8.53632523266464"><ele>279.3333333333333</ele><time>2026-04-05T15:17:05Z</time></trkpt><trkpt lat="42.50289751174277" lon="-8.536374850550477"><ele>281.6666666666667</ele><time>2026-04-05T15:17:06Z</time></trkpt><trkpt lat="42.502729797749964" lon="-8.536464009243593"><ele>284.0</ele><time>2026-04-05T15:17:07Z</time></trkpt><trkpt lat="42.50256686922771" lon="-8.536574460656166"><ele>284.0</ele><time>2026-04-05T15:17:08Z</time></trkpt><trkpt lat="42.50241431351355" lon="-8.536700296820552"><ele>284.0</ele><time>2026-04-05T15:17:09Z</time></trkpt><trkpt lat="42.50226719401868" lon="-8.536846890912246"><ele>284.0</ele><time>2026-04-05T15:17:10Z</time></trkpt><trkpt lat="42.50213039865702" lon="-8.537013527090318"><ele>281.6666666666667</ele><time>2026-04-05T15:17:11Z</time></trkpt><trkpt lat="42.501995812805106" lon="-8.537178490217618"><ele>279.3333333333333</ele><time>2026-04-05T15:17:12Z</time></trkpt><trkpt lat="42.5018623516469" lon="-8.53733717573115"><ele>277.0</ele><time>2026-04-05T15:17:13Z</time></trkpt><trkpt lat="42.50173723085017" lon="-8.537482669724898"><ele>277.0</ele><time>2026-04-05T15:17:14Z</time></trkpt><trkpt lat="42.50161426426928" lon="-8.53763065288092"><ele>277.0</ele><time>2026-04-05T15:17:15Z</time></trkpt><trkpt lat="42.50149126219289" lon="-8.53777268171374"><ele>277.0</ele><time>2026-04-05T15:17:16Z</time></trkpt><trkpt lat="42.50137045224254" lon="-8.537914717389263"><ele>274.66666666666663</ele><time>2026-04-05T15:17:17Z</time></trkpt><trkpt lat="42.501245927352976" lon="-8.538067474388505"><ele>272.3333333333333</ele><time>2026-04-05T15:17:18Z</time></trkpt><trkpt lat="42.50111640911082" lon="-8.53822626254561"><ele>270.0</ele><time>2026-04-05T15:17:19Z</time></trkpt><trkpt lat="42.50098771172219" lon="-8.538400044471421"><ele>270.0</ele><time>2026-04-05T15:17:20Z</time></trkpt><trkpt lat="42.50086770369224" lon="-8.538589205217264"><ele>270.0</ele><time>2026-04-05T15:17:21Z</time></trkpt><trkpt lat="42.50076035152928" lon="-8.538799230489058"><ele>270.0</ele><time>2026-04-05T15:17:22Z</time></trkpt><trkpt lat="42.500657329605694" lon="-8.539018251324308"><ele>267.0</ele><time>2026-04-05T15:17:23Z</time></trkpt><trkpt lat="42.50054869855661" lon="-8.53923175231928"><ele>264.0</ele><time>2026-04-05T15:17:24Z</time></trkpt><trkpt lat="42.500427035521156" lon="-8.539438869962998"><ele>261.0</ele><time>2026-04-05T15:17:25Z</time></trkpt><trkpt lat="42.50029209922628" lon="-8.539624286225319"><ele>260.6666666666667</ele><time>2026-04-05T15:17:26Z</time></trkpt><trkpt lat="42.50013801844683" lon="-8.539777859479281"><ele>260.33333333333337</ele><time>2026-04-05T15:17:27Z</time></trkpt><trkpt lat="42.49996448620084" lon="-8.539907239230143"><ele>260.0</ele><time>2026-04-05T15:17:28Z</time></trkpt><trkpt lat="42.49979271187859" lon="-8.540001332060225"><ele>260.0</ele><time>2026-04-05T15:17:29Z</time></trkpt><trkpt lat="42.49961062068153" lon="-8.540073030416464"><ele>260.0</ele><time>2026-04-05T15:17:30Z</time></trkpt><trkpt lat="42.49942651102529" lon="-8.540114749727415"><ele>260.0</ele><time>2026-04-05T15:17:31Z</time></trkpt><trkpt lat="42.49924343156055" lon="-8.540128220714914"><ele>260.0</ele><time>2026-04-05T15:17:32Z</time></trkpt><trkpt lat="42.49906031263159" lon="-8.540110532960572"><ele>260.0</ele><time>2026-04-05T15:17:33Z</time></trkpt><trkpt lat="42.49887668141696" lon="-8.54007344290667"><ele>260.0</ele><time>2026-04-05T15:17:34Z</time></trkpt><trkpt lat="42.498696904098765" lon="-8.540024889475857"><ele>256.33333333333337</ele><time>2026-04-05T15:17:35Z</time></trkpt><trkpt lat="42.49851443969661" lon="-8.539970964640268"><ele>252.66666666666669</ele><time>2026-04-05T15:17:36Z</time></trkpt><trkpt lat="42.49833086561348" lon="-8.539920047998729"><ele>249.0</ele><time>2026-04-05T15:17:37Z</time></trkpt><trkpt lat="42.4981367593176" lon="-8.539879381027621"><ele>249.0</ele><time>2026-04-05T15:17:38Z</time></trkpt><trkpt lat="42.49794145778396" lon="-8.53989896071049"><ele>249.0</ele><time>2026-04-05T15:17:39Z</time></trkpt><trkpt lat="42.49775038185641" lon="-8.53993653899467"><ele>249.0</ele><time>2026-04-05T15:17:40Z</time></trkpt><trkpt lat="42.49755976716924" lon="-8.540007277930894"><ele>249.33333333333331</ele><time>2026-04-05T15:17:41Z</time></trkpt><trkpt lat="42.49737416550382" lon="-8.54010759761664"><ele>249.66666666666666</ele><time>2026-04-05T15:17:42Z</time></trkpt><trkpt lat="42.497199600750555" lon="-8.540235213036562"><ele>250.0</ele><time>2026-04-05T15:17:43Z</time></trkpt><trkpt lat="42.4970262391479" lon="-8.540371629939765"><ele>250.66666666666666</ele><time>2026-04-05T15:17:44Z</time></trkpt><trkpt lat="42.49686535728872" lon="-8.540532850841858"><ele>251.33333333333331</ele><time>2026-04-05T15:17:45Z</time></trkpt><trkpt lat="42.49670343196663" lon="-8.540679507055685"><ele>252.0</ele><time>2026-04-05T15:17:46Z</time></trkpt><trkpt lat="42.49653422514295" lon="-8.540804763837397"><ele>252.0</ele><time>2026-04-05T15:17:47Z</time></trkpt><trkpt lat="42.496354264951705" lon="-8.54090067699851"><ele>252.0</ele><time>2026-04-05T15:17:48Z</time></trkpt><trkpt lat="42.49616665258119" lon="-8.540966015232907"><ele>252.0</ele><time>2026-04-05T15:17:49Z</time></trkpt><trkpt lat="42.495982054127055" lon="-8.540993260485857"><ele>254.66666666666669</ele><time>2026-04-05T15:17:50Z</time></trkpt><trkpt lat="42.495794143205295" lon="-8.541002115953004"><ele>257.33333333333337</ele><time>2026-04-05T15:17:51Z</time></trkpt><trkpt lat="42.49561600986992" lon="-8.540975150915257"><ele>260.0</ele><time>2026-04-05T15:17:52Z</time></trkpt><trkpt lat="42.495440932589126" lon="-8.540928687916933"><ele>256.6666666666667</ele><time>2026-04-05T15:17:53Z</time></trkpt><trkpt lat="42.49527941917341" lon="-8.540869869027524"><ele>253.33333333333331</ele><time>2026-04-05T15:17:54Z</time></trkpt><trkpt lat="42.49512965221733" lon="-8.54080244761387"><ele>250.0</ele><time>2026-04-05T15:17:55Z</time></trkpt><trkpt lat="42.49498572328358" lon="-8.540737837831594"><ele>250.0</ele><time>2026-04-05T15:17:56Z</time></trkpt><trkpt lat="42.49483989877522" lon="-8.540686934323752"><ele>250.0</ele><time>2026-04-05T15:17:57Z</time></trkpt><trkpt lat="42.49468532024606" lon="-8.54064810994671"><ele>250.0</ele><time>2026-04-05T15:17:58Z</time></trkpt><trkpt lat="42.49452410378107" lon="-8.540635855835648"><ele>249.66666666666666</ele><time>2026-04-05T15:17:59Z</time></trkpt><trkpt lat="42.494352896254185" lon="-8.54064735671757"><ele>249.33333333333331</ele><time>2026-04-05T15:18:00Z</time></trkpt><trkpt lat="42.49418303601397" lon="-8.540696865083188"><ele>249.0</ele><time>2026-04-05T15:18:01Z</time></trkpt><trkpt lat="42.49400315122476" lon="-8.540769357432286"><ele>249.0</ele><time>2026-04-05T15:18:02Z</time></trkpt><trkpt lat="42.49382041128889" lon="-8.540856829476432"><ele>249.0</ele><time>2026-04-05T15:18:03Z</time></trkpt><trkpt lat="42.49363987195715" lon="-8.540952448687753"><ele>249.0</ele><time>2026-04-05T15:18:04Z</time></trkpt><trkpt lat="42.493454464202735" lon="-8.541052476316768"><ele>252.0</ele><time>2026-04-05T15:18:05Z</time></trkpt><trkpt lat="42.49327563958644" lon="-8.541158057427396"><ele>255.0</ele><time>2026-04-05T15:18:06Z</time></trkpt><trkpt lat="42.49309781275953" lon="-8.541275065168968"><ele>258.0</ele><time>2026-04-05T15:18:07Z</time></trkpt><trkpt lat="42.492926825055484" lon="-8.541405906611974"><ele>255.66666666666669</ele><time>2026-04-05T15:18:08Z</time></trkpt><trkpt lat="42.49275951088123" lon="-8.541548663857824"><ele>253.33333333333334</ele><time>2026-04-05T15:18:09Z</time></trkpt><trkpt lat="42.49260043016971" lon="-8.541699016230146"><ele>251.0</ele><time>2026-04-05T15:18:10Z</time></trkpt><trkpt lat="42.49245244478581" lon="-8.541855933392926"><ele>251.0</ele><time>2026-04-05T15:18:11Z</time></trkpt><trkpt lat="42.492311902057246" lon="-8.54202304123411"><ele>251.0</ele><time>2026-04-05T15:18:12Z</time></trkpt><trkpt lat="42.4921766471866" lon="-8.542196055993704"><ele>251.0</ele><time>2026-04-05T15:18:13Z</time></trkpt><trkpt lat="42.49204798718647" lon="-8.542378792075764"><ele>251.66666666666669</ele><time>2026-04-05T15:18:14Z</time></trkpt><trkpt lat="42.49193027248661" lon="-8.542566987677429"><ele>252.33333333333331</ele><time>2026-04-05T15:18:15Z</time></trkpt><trkpt lat="42.49181877591459" lon="-8.542763724626013"><ele>253.0</ele><time>2026-04-05T15:18:16Z</time></trkpt><trkpt lat="42.49170995133772" lon="-8.542965535441576"><ele>249.33333333333331</ele><time>2026-04-05T15:18:17Z</time></trkpt><trkpt lat="42.491604943719345" lon="-8.543165528402318"><ele>245.66666666666669</ele><time>2026-04-05T15:18:18Z</time></trkpt><trkpt lat="42.491500819157395" lon="-8.54337676446164"><ele>242.0</ele><time>2026-04-05T15:18:19Z</time></trkpt><trkpt lat="42.4914015999161" lon="-8.543584481962887"><ele>242.66666666666669</ele><time>2026-04-05T15:18:20Z</time></trkpt><trkpt lat="42.491296706444345" lon="-8.54378559047725"><ele>243.33333333333331</ele><time>2026-04-05T15:18:21Z</time></trkpt><trkpt lat="42.49118522261213" lon="-8.543981045528737"><ele>244.0</ele><time>2026-04-05T15:18:22Z</time></trkpt><trkpt lat="42.491061541177054" lon="-8.544170759687102"><ele>244.0</ele><time>2026-04-05T15:18:23Z</time></trkpt><trkpt lat="42.49092872099593" lon="-8.544348522747178"><ele>244.0</ele><time>2026-04-05T15:18:24Z</time></trkpt><trkpt lat="42.49078341546701" lon="-8.544514527118586"><ele>244.0</ele><time>2026-04-05T15:18:25Z</time></trkpt><trkpt lat="42.49062703278237" lon="-8.544664210531788"><ele>242.0</ele><time>2026-04-05T15:18:26Z</time></trkpt><trkpt lat="42.49045742723088" lon="-8.544792782738057"><ele>240.0</ele><time>2026-04-05T15:18:27Z</time></trkpt><trkpt lat="42.49027428310399" lon="-8.54488419611614"><ele>238.0</ele><time>2026-04-05T15:18:28Z</time></trkpt><trkpt lat="42.4900853877858" lon="-8.5449412484017"><ele>236.33333333333331</ele><time>2026-04-05T15:18:29Z</time></trkpt><trkpt lat="42.489890721209505" lon="-8.544966303906085"><ele>234.66666666666669</ele><time>2026-04-05T15:18:30Z</time></trkpt><trkpt lat="42.48969359536482" lon="-8.544975384175778"><ele>233.0</ele><time>2026-04-05T15:18:31Z</time></trkpt><trkpt lat="42.48950809238509" lon="-8.544950611803602"><ele>231.33333333333334</ele><time>2026-04-05T15:18:32Z</time></trkpt><trkpt lat="42.48932970767875" lon="-8.54490329865252"><ele>229.66666666666669</ele><time>2026-04-05T15:18:33Z</time></trkpt><trkpt lat="42.48915895239069" lon="-8.54483879514673"><ele>228.0</ele><time>2026-04-05T15:18:34Z</time></trkpt><trkpt lat="42.48900219316906" lon="-8.544743986503597"><ele>228.0</ele><time>2026-04-05T15:18:35Z</time></trkpt><trkpt lat="42.4888544708962" lon="-8.544629553359922"><ele>228.0</ele><time>2026-04-05T15:18:36Z</time></trkpt><trkpt lat="42.48872144892921" lon="-8.544498983667607"><ele>228.0</ele><time>2026-04-05T15:18:37Z</time></trkpt><trkpt lat="42.48859273201606" lon="-8.544344346282468"><ele>231.0</ele><time>2026-04-05T15:18:38Z</time></trkpt><trkpt lat="42.48847628479436" lon="-8.544164578547292"><ele>234.0</ele><time>2026-04-05T15:18:39Z</time></trkpt><trkpt lat="42.48837102514312" lon="-8.54396320089608"><ele>237.0</ele><time>2026-04-05T15:18:40Z</time></trkpt><trkpt lat="42.48828285796071" lon="-8.543753971270798"><ele>234.33333333333331</ele><time>2026-04-05T15:18:41Z</time></trkpt><trkpt lat="42.488216638168936" lon="-8.543545105810146"><ele>231.66666666666666</ele><time>2026-04-05T15:18:42Z</time></trkpt><trkpt lat="42.48816097018105" lon="-8.543336499065843"><ele>229.0</ele><time>2026-04-05T15:18:43Z</time></trkpt><trkpt lat="42.48810883939258" lon="-8.543138713249212"><ele>229.0</ele><time>2026-04-05T15:18:44Z</time></trkpt><trkpt lat="42.48803821565833" lon="-8.542932784373427"><ele>229.0</ele><time>2026-04-05T15:18:45Z</time></trkpt><trkpt lat="42.48795719936241" lon="-8.542727081870403"><ele>229.0</ele><time>2026-04-05T15:18:46Z</time></trkpt><trkpt lat="42.48785547387952" lon="-8.542544325078874"><ele>225.66666666666666</ele><time>2026-04-05T15:18:47Z</time></trkpt><trkpt lat="42.48775246129588" lon="-8.542378677733215"><ele>222.33333333333331</ele><time>2026-04-05T15:18:48Z</time></trkpt><trkpt lat="42.48763458948103" lon="-8.542233018285158"><ele>219.0</ele><time>2026-04-05T15:18:49Z</time></trkpt><trkpt lat="42.48750727541177" lon="-8.542114728062996"><ele>217.0</ele><time>2026-04-05T15:18:50Z</time></trkpt><trkpt lat="42.48737472721388" lon="-8.542015375917483"><ele>215.0</ele><time>2026-04-05T15:18:51Z</time></trkpt><trkpt lat="42.48723811851452" lon="-8.541935673244625"><ele>213.0</ele><time>2026-04-05T15:18:52Z</time></trkpt><trkpt lat="42.487098939794215" lon="-8.541875130856967"><ele>211.0</ele><time>2026-04-05T15:18:53Z</time></trkpt><trkpt lat="42.48696138079706" lon="-8.541839584734234"><ele>209.75</ele><time>2026-04-05T15:18:54Z</time></trkpt><trkpt lat="42.48681866174031" lon="-8.541812013227648"><ele>208.5</ele><time>2026-04-05T15:18:55Z</time></trkpt><trkpt lat="42.486667635667466" lon="-8.541798913643897"><ele>207.25</ele><time>2026-04-05T15:18:56Z</time></trkpt><trkpt lat="42.48651734717037" lon="-8.54179003262999"><ele>206.0</ele><time>2026-04-05T15:18:57Z</time></trkpt><trkpt lat="42.486368911573756" lon="-8.541776951430299"><ele>204.75</ele><time>2026-04-05T15:18:58Z</time></trkpt><trkpt lat="42.486220634840116" lon="-8.54177118135771"><ele>203.5</ele><time>2026-04-05T15:18:59Z</time></trkpt><trkpt lat="42.48607326348789" lon="-8.541762747498575"><ele>202.25</ele><time>2026-04-05T15:19:00Z</time></trkpt><trkpt lat="42.48593108226312" lon="-8.541744099230796"><ele>201.0</ele><time>2026-04-05T15:19:01Z</time></trkpt><trkpt lat="42.48579407474247" lon="-8.541740552356547"><ele>201.0</ele><time>2026-04-05T15:19:02Z</time></trkpt><trkpt lat="42.48566520466464" lon="-8.541704604839236"><ele>201.0</ele><time>2026-04-05T15:19:03Z</time></trkpt><trkpt lat="42.485542357437915" lon="-8.541661128446332"><ele>201.0</ele><time>2026-04-05T15:19:04Z</time></trkpt><trkpt lat="42.48542521670999" lon="-8.541589984190155"><ele>201.0</ele><time>2026-04-05T15:19:05Z</time></trkpt><trkpt lat="42.48529499826121" lon="-8.541529146578565"><ele>200.0</ele><time>2026-04-05T15:19:06Z</time></trkpt><trkpt lat="42.48516021153011" lon="-8.541463583984347"><ele>199.0</ele><time>2026-04-05T15:19:07Z</time></trkpt><trkpt lat="42.48502342554305" lon="-8.541396023247573"><ele>198.0</ele><time>2026-04-05T15:19:08Z</time></trkpt><trkpt lat="42.48488341945413" lon="-8.54132186917081"><ele>197.0</ele><time>2026-04-05T15:19:09Z</time></trkpt><trkpt lat="42.48473629908817" lon="-8.541242874086288"><ele>194.33333333333334</ele><time>2026-04-05T15:19:10Z</time></trkpt><trkpt lat="42.484581978817616" lon="-8.541174991140572"><ele>191.66666666666669</ele><time>2026-04-05T15:19:11Z</time></trkpt><trkpt lat="42.48441894622005" lon="-8.54112357022718"><ele>189.0</ele><time>2026-04-05T15:19:12Z</time></trkpt><trkpt lat="42.484255872098935" lon="-8.541093452467408"><ele>189.0</ele><time>2026-04-05T15:19:13Z</time></trkpt><trkpt lat="42.48409844589396" lon="-8.541074495196986"><ele>189.0</ele><time>2026-04-05T15:19:14Z</time></trkpt><trkpt lat="42.48393202941104" lon="-8.541072911644005"><ele>189.0</ele><time>2026-04-05T15:19:15Z</time></trkpt><trkpt lat="42.48375121060685" lon="-8.541095942254078"><ele>188.0</ele><time>2026-04-05T15:19:16Z</time></trkpt><trkpt lat="42.48356244972707" lon="-8.541142521240124"><ele>187.0</ele><time>2026-04-05T15:19:17Z</time></trkpt><trkpt lat="42.48336594320933" lon="-8.541205201858611"><ele>186.0</ele><time>2026-04-05T15:19:18Z</time></trkpt><trkpt lat="42.483161509835504" lon="-8.541281574211782"><ele>185.66666666666666</ele><time>2026-04-05T15:19:19Z</time></trkpt><trkpt lat="42.48295502775899" lon="-8.54136304994864"><ele>185.33333333333331</ele><time>2026-04-05T15:19:20Z</time></trkpt><trkpt lat="42.48273854306852" lon="-8.5414419739235"><ele>185.0</ele><time>2026-04-05T15:19:21Z</time></trkpt><trkpt lat="42.482516648939274" lon="-8.54152951341834"><ele>181.0</ele><time>2026-04-05T15:19:22Z</time></trkpt><trkpt lat="42.482296111474284" lon="-8.541619720987697"><ele>177.0</ele><time>2026-04-05T15:19:23Z</time></trkpt><trkpt lat="42.48206926161398" lon="-8.54170744253159"><ele>173.0</ele><time>2026-04-05T15:19:24Z</time></trkpt><trkpt lat="42.48183424584427" lon="-8.541788526481442"><ele>169.0</ele><time>2026-04-05T15:19:25Z</time></trkpt><trkpt lat="42.481598149689205" lon="-8.541875417167915"><ele>169.0</ele><time>2026-04-05T15:19:26Z</time></trkpt><trkpt lat="42.48136054679859" lon="-8.54196320623429"><ele>169.0</ele><time>2026-04-05T15:19:27Z</time></trkpt><trkpt lat="42.48112746748749" lon="-8.542061869383842"><ele>169.0</ele><time>2026-04-05T15:19:28Z</time></trkpt><trkpt lat="42.48089496102019" lon="-8.542174209011538"><ele>169.0</ele><time>2026-04-05T15:19:29Z</time></trkpt><trkpt lat="42.480657288658485" lon="-8.54228523431118"><ele>164.5</ele><time>2026-04-05T15:19:30Z</time></trkpt><trkpt lat="42.48042089738984" lon="-8.542376001384916"><ele>160.0</ele><time>2026-04-05T15:19:31Z</time></trkpt><trkpt lat="42.48017959819675" lon="-8.542473578028464"><ele>160.0</ele><time>2026-04-05T15:19:32Z</time></trkpt><trkpt lat="42.479940508348086" lon="-8.542579860213946"><ele>160.0</ele><time>2026-04-05T15:19:33Z</time></trkpt><trkpt lat="42.4797159271521" lon="-8.542687512202205"><ele>159.0</ele><time>2026-04-05T15:19:34Z</time></trkpt><trkpt lat="42.47949411417927" lon="-8.54281121923646"><ele>158.0</ele><time>2026-04-05T15:19:35Z</time></trkpt><trkpt lat="42.4792618645492" lon="-8.542933289448452"><ele>158.0</ele><time>2026-04-05T15:19:36Z</time></trkpt><trkpt lat="42.47904217102041" lon="-8.543093794193938"><ele>158.0</ele><time>2026-04-05T15:19:37Z</time></trkpt><trkpt lat="42.47882007499909" lon="-8.543260253853596"><ele>152.5</ele><time>2026-04-05T15:19:38Z</time></trkpt><trkpt lat="42.478607236403576" lon="-8.543440808044654"><ele>147.0</ele><time>2026-04-05T15:19:39Z</time></trkpt><trkpt lat="42.47839509690573" lon="-8.543639941750154"><ele>149.5</ele><time>2026-04-05T15:19:40Z</time></trkpt><trkpt lat="42.47818917789318" lon="-8.543850431808146"><ele>152.0</ele><time>2026-04-05T15:19:41Z</time></trkpt><trkpt lat="42.47800293949704" lon="-8.544074122452136"><ele>146.0</ele><time>2026-04-05T15:19:42Z</time></trkpt><trkpt lat="42.477838565826964" lon="-8.544307345601617"><ele>140.0</ele><time>2026-04-05T15:19:43Z</time></trkpt><trkpt lat="42.47769443657623" lon="-8.544561518153465"><ele>140.0</ele><time>2026-04-05T15:19:44Z</time></trkpt><trkpt lat="42.47756662592794" lon="-8.544840663902935"><ele>140.0</ele><time>2026-04-05T15:19:45Z</time></trkpt><trkpt lat="42.477460558287774" lon="-8.545132989368204"><ele>141.5</ele><time>2026-04-05T15:19:46Z</time></trkpt><trkpt lat="42.47736700814027" lon="-8.545439539565546"><ele>143.0</ele><time>2026-04-05T15:19:47Z</time></trkpt><trkpt lat="42.477294162344776" lon="-8.545765228217295"><ele>143.0</ele><time>2026-04-05T15:19:48Z</time></trkpt><trkpt lat="42.47723939525287" lon="-8.54609227348858"><ele>143.0</ele><time>2026-04-05T15:19:49Z</time></trkpt><trkpt lat="42.47719629809513" lon="-8.54642052133809"><ele>140.0</ele><time>2026-04-05T15:19:50Z</time></trkpt><trkpt lat="42.47714191456515" lon="-8.54675112995637"><ele>137.0</ele><time>2026-04-05T15:19:51Z</time></trkpt><trkpt lat="42.477064328328495" lon="-8.547074963431886"><ele>137.0</ele><time>2026-04-05T15:19:52Z</time></trkpt><trkpt lat="42.47696633147897" lon="-8.547387307795425"><ele>137.0</ele><time>2026-04-05T15:19:53Z</time></trkpt><trkpt lat="42.47684529956352" lon="-8.547691051019335"><ele>136.0</ele><time>2026-04-05T15:19:54Z</time></trkpt><trkpt lat="42.476723300616335" lon="-8.547986816349338"><ele>135.0</ele><time>2026-04-05T15:19:55Z</time></trkpt><trkpt lat="42.476605113927235" lon="-8.5482841256222"><ele>135.0</ele><time>2026-04-05T15:19:56Z</time></trkpt><trkpt lat="42.47649490259673" lon="-8.548594383594121"><ele>135.0</ele><time>2026-04-05T15:19:57Z</time></trkpt><trkpt lat="42.47639370396952" lon="-8.54891213206043"><ele>131.5</ele><time>2026-04-05T15:19:58Z</time></trkpt><trkpt lat="42.476319552509274" lon="-8.54923124872678"><ele>128.0</ele><time>2026-04-05T15:19:59Z</time></trkpt><trkpt lat="42.476270066848954" lon="-8.549569112855993"><ele>138.0</ele><time>2026-04-05T15:20:00Z</time></trkpt><trkpt lat="42.47623275558888" lon="-8.549902997602693"><ele>148.0</ele><time>2026-04-05T15:20:01Z</time></trkpt><trkpt lat="42.47619541468894" lon="-8.550232804053884"><ele>145.5</ele><time>2026-04-05T15:20:02Z</time></trkpt><trkpt lat="42.47615167448753" lon="-8.550565424937158"><ele>143.0</ele><time>2026-04-05T15:20:03Z</time></trkpt><trkpt lat="42.47610268703231" lon="-8.550889883385224"><ele>143.0</ele><time>2026-04-05T15:20:04Z</time></trkpt><trkpt lat="42.476046953104635" lon="-8.551206264787684"><ele>143.0</ele><time>2026-04-05T15:20:05Z</time></trkpt><trkpt lat="42.47598404237485" lon="-8.551520231935056"><ele>139.5</ele><time>2026-04-05T15:20:06Z</time></trkpt><trkpt lat="42.47591409768036" lon="-8.551835529561354"><ele>136.0</ele><time>2026-04-05T15:20:07Z</time></trkpt><trkpt lat="42.47585628912149" lon="-8.552148860493304"><ele>133.5</ele><time>2026-04-05T15:20:08Z</time></trkpt><trkpt lat="42.47580045622266" lon="-8.552465310720775"><ele>131.0</ele><time>2026-04-05T15:20:09Z</time></trkpt><trkpt lat="42.47573848026142" lon="-8.55275534768936"><ele>128.0</ele><time>2026-04-05T15:20:10Z</time></trkpt><trkpt lat="42.475669693640974" lon="-8.5530217641754"><ele>125.0</ele><time>2026-04-05T15:20:11Z</time></trkpt><trkpt lat="42.47557905621047" lon="-8.553270777556728"><ele>122.0</ele><time>2026-04-05T15:20:12Z</time></trkpt><trkpt lat="42.4754622575073" lon="-8.553505313519846"><ele>122.0</ele><time>2026-04-05T15:20:13Z</time></trkpt><trkpt lat="42.475318825877636" lon="-8.553714069120756"><ele>122.0</ele><time>2026-04-05T15:20:14Z</time></trkpt><trkpt lat="42.475160576920366" lon="-8.553903651177995"><ele>122.0</ele><time>2026-04-05T15:20:15Z</time></trkpt><trkpt lat="42.47499037859352" lon="-8.554060680038562"><ele>122.0</ele><time>2026-04-05T15:20:16Z</time></trkpt><trkpt lat="42.47480202693976" lon="-8.554186772937975"><ele>122.0</ele><time>2026-04-05T15:20:17Z</time></trkpt><trkpt lat="42.47460114511974" lon="-8.554287498515325"><ele>122.0</ele><time>2026-04-05T15:20:18Z</time></trkpt><trkpt lat="42.47438926918147" lon="-8.554365127351028"><ele>118.66666666666666</ele><time>2026-04-05T15:20:19Z</time></trkpt><trkpt lat="42.47418269652419" lon="-8.554448593177046"><ele>115.33333333333334</ele><time>2026-04-05T15:20:20Z</time></trkpt><trkpt lat="42.47397491647112" lon="-8.554550767506646"><ele>112.0</ele><time>2026-04-05T15:20:21Z</time></trkpt><trkpt lat="42.47377858613588" lon="-8.554661890354975"><ele>113.66666666666667</ele><time>2026-04-05T15:20:22Z</time></trkpt><trkpt lat="42.473598967899036" lon="-8.554788549273809"><ele>115.33333333333334</ele><time>2026-04-05T15:20:23Z</time></trkpt><trkpt lat="42.47342252286991" lon="-8.554931799062235"><ele>117.0</ele><time>2026-04-05T15:20:24Z</time></trkpt><trkpt lat="42.47324953630833" lon="-8.555082728401555"><ele>117.0</ele><time>2026-04-05T15:20:25Z</time></trkpt><trkpt lat="42.4730744196781" lon="-8.555216524978356"><ele>117.0</ele><time>2026-04-05T15:20:26Z</time></trkpt><trkpt lat="42.472899784385405" lon="-8.555334686714966"><ele>117.0</ele><time>2026-04-05T15:20:27Z</time></trkpt><trkpt lat="42.47272251858172" lon="-8.555432185525378"><ele>114.0</ele><time>2026-04-05T15:20:28Z</time></trkpt><trkpt lat="42.47253572880188" lon="-8.5555084257981"><ele>111.0</ele><time>2026-04-05T15:20:29Z</time></trkpt><trkpt lat="42.47233135939062" lon="-8.55557461010698"><ele>108.0</ele><time>2026-04-05T15:20:30Z</time></trkpt><trkpt lat="42.472123169991946" lon="-8.55559287096126"><ele>105.0</ele><time>2026-04-05T15:20:31Z</time></trkpt><trkpt lat="42.47191124503177" lon="-8.555605397484104"><ele>102.0</ele><time>2026-04-05T15:20:32Z</time></trkpt><trkpt lat="42.47169811134744" lon="-8.555583288219243"><ele>99.0</ele><time>2026-04-05T15:20:33Z</time></trkpt><trkpt lat="42.47148322245063" lon="-8.555546731122922"><ele>94.33333333333333</ele><time>2026-04-05T15:20:34Z</time></trkpt><trkpt lat="42.47126370742203" lon="-8.55549822185747"><ele>89.66666666666666</ele><time>2026-04-05T15:20:35Z</time></trkpt><trkpt lat="42.471045575514" lon="-8.55545117982652"><ele>85.0</ele><time>2026-04-05T15:20:36Z</time></trkpt><trkpt lat="42.4708233395368" lon="-8.555411855692709"><ele>85.0</ele><time>2026-04-05T15:20:37Z</time></trkpt><trkpt lat="42.470590481020274" lon="-8.555374670185254"><ele>85.0</ele><time>2026-04-05T15:20:38Z</time></trkpt><trkpt lat="42.4703614668789" lon="-8.555351937839037"><ele>89.5</ele><time>2026-04-05T15:20:39Z</time></trkpt><trkpt lat="42.47012829733496" lon="-8.555346712264031"><ele>94.0</ele><time>2026-04-05T15:20:40Z</time></trkpt><trkpt lat="42.46989973099585" lon="-8.555353981363863"><ele>85.0</ele><time>2026-04-05T15:20:41Z</time></trkpt><trkpt lat="42.469659724949345" lon="-8.555371925732352"><ele>76.0</ele><time>2026-04-05T15:20:42Z</time></trkpt><trkpt lat="42.469415330437734" lon="-8.555409069094805"><ele>76.0</ele><time>2026-04-05T15:20:43Z</time></trkpt><trkpt lat="42.469171644762426" lon="-8.555453085743045"><ele>76.0</ele><time>2026-04-05T15:20:44Z</time></trkpt><trkpt lat="42.46893250261623" lon="-8.55551488600005"><ele>80.0</ele><time>2026-04-05T15:20:45Z</time></trkpt><trkpt lat="42.46869543328949" lon="-8.555596444242896"><ele>84.0</ele><time>2026-04-05T15:20:46Z</time></trkpt><trkpt lat="42.46846332161117" lon="-8.555700032525111"><ele>84.0</ele><time>2026-04-05T15:20:47Z</time></trkpt><trkpt lat="42.46824237486798" lon="-8.555828974881797"><ele>84.0</ele><time>2026-04-05T15:20:48Z</time></trkpt><trkpt lat="42.468027539762666" lon="-8.555964978407774"><ele>84.0</ele><time>2026-04-05T15:20:49Z</time></trkpt><trkpt lat="42.46781896608224" lon="-8.556094802030398"><ele>84.0</ele><time>2026-04-05T15:20:50Z</time></trkpt><trkpt lat="42.46760344125068" lon="-8.556230571751557"><ele>84.0</ele><time>2026-04-05T15:20:51Z</time></trkpt><trkpt lat="42.46740131235898" lon="-8.556359083789422"><ele>84.0</ele><time>2026-04-05T15:20:52Z</time></trkpt><trkpt lat="42.46721281265899" lon="-8.556482582683902"><ele>84.0</ele><time>2026-04-05T15:20:53Z</time></trkpt><trkpt lat="42.46703938367723" lon="-8.556590605613984"><ele>84.33333333333333</ele><time>2026-04-05T15:20:54Z</time></trkpt><trkpt lat="42.4668735262796" lon="-8.556699277631676"><ele>84.66666666666666</ele><time>2026-04-05T15:20:55Z</time></trkpt><trkpt lat="42.46671844426331" lon="-8.556798295468932"><ele>85.0</ele><time>2026-04-05T15:20:56Z</time></trkpt><trkpt lat="42.46657089057854" lon="-8.556893841758475"><ele>85.0</ele><time>2026-04-05T15:20:57Z</time></trkpt><trkpt lat="42.466430008891585" lon="-8.556982923457756"><ele>85.0</ele><time>2026-04-05T15:20:58Z</time></trkpt><trkpt lat="42.4662940188384" lon="-8.557062277142007"><ele>85.0</ele><time>2026-04-05T15:20:59Z</time></trkpt><trkpt lat="42.46615374031596" lon="-8.55715058769775"><ele>84.66666666666666</ele><time>2026-04-05T15:21:00Z</time></trkpt><trkpt lat="42.46601638549045" lon="-8.557242788227962"><ele>84.33333333333333</ele><time>2026-04-05T15:21:01Z</time></trkpt><trkpt lat="42.465875234366166" lon="-8.557336086497989"><ele>84.0</ele><time>2026-04-05T15:21:02Z</time></trkpt><trkpt lat="42.46573516256049" lon="-8.557423846154174"><ele>84.0</ele><time>2026-04-05T15:21:03Z</time></trkpt><trkpt lat="42.465588687435925" lon="-8.557521452527057"><ele>84.0</ele><time>2026-04-05T15:21:04Z</time></trkpt><trkpt lat="42.4654374249293" lon="-8.5576211014855"><ele>84.0</ele><time>2026-04-05T15:21:05Z</time></trkpt><trkpt lat="42.465287272090656" lon="-8.557717036021208"><ele>84.0</ele><time>2026-04-05T15:21:06Z</time></trkpt><trkpt lat="42.465141443159716" lon="-8.557813453366673"><ele>84.0</ele><time>2026-04-05T15:21:07Z</time></trkpt><trkpt lat="42.46499226321549" lon="-8.557918594524049"><ele>84.0</ele><time>2026-04-05T15:21:08Z</time></trkpt><trkpt lat="42.46484830253533" lon="-8.558003859350473"><ele>83.33333333333333</ele><time>2026-04-05T15:21:09Z</time></trkpt><trkpt lat="42.4647064725449" lon="-8.558092987361173"><ele>82.66666666666666</ele><time>2026-04-05T15:21:10Z</time></trkpt><trkpt lat="42.46456590381189" lon="-8.558187571141627"><ele>82.0</ele><time>2026-04-05T15:21:11Z</time></trkpt><trkpt lat="42.4644225396598" lon="-8.558292992303246"><ele>82.0</ele><time>2026-04-05T15:21:12Z</time></trkpt><trkpt lat="42.464279348131946" lon="-8.558391410120045"><ele>82.0</ele><time>2026-04-05T15:21:13Z</time></trkpt><trkpt lat="42.46413271181493" lon="-8.558490009246327"><ele>82.0</ele><time>2026-04-05T15:21:14Z</time></trkpt><trkpt lat="42.46398440111167" lon="-8.558582310719379"><ele>82.0</ele><time>2026-04-05T15:21:15Z</time></trkpt><trkpt lat="42.46384191693844" lon="-8.558669779633327"><ele>82.0</ele><time>2026-04-05T15:21:16Z</time></trkpt><trkpt lat="42.46370938305842" lon="-8.55875454953486"><ele>82.0</ele><time>2026-04-05T15:21:17Z</time></trkpt><trkpt lat="42.46358307815057" lon="-8.558840189596411"><ele>82.0</ele><time>2026-04-05T15:21:18Z</time></trkpt><trkpt lat="42.46346598537105" lon="-8.55891610151296"><ele>81.5</ele><time>2026-04-05T15:21:19Z</time></trkpt><trkpt lat="42.46335368918988" lon="-8.558992254320401"><ele>81.0</ele><time>2026-04-05T15:21:20Z</time></trkpt><trkpt lat="42.46324400210837" lon="-8.559068913855016"><ele>80.5</ele><time>2026-04-05T15:21:21Z</time></trkpt><trkpt lat="42.46313553764794" lon="-8.5591502090041"><ele>80.0</ele><time>2026-04-05T15:21:22Z</time></trkpt><trkpt lat="42.46302626269548" lon="-8.559229010903794"><ele>80.25</ele><time>2026-04-05T15:21:23Z</time></trkpt><trkpt lat="42.46291347632636" lon="-8.559314284081516"><ele>80.5</ele><time>2026-04-05T15:21:24Z</time></trkpt><trkpt lat="42.46280533936885" lon="-8.55940692127885"><ele>80.75</ele><time>2026-04-05T15:21:25Z</time></trkpt><trkpt lat="42.46270059468312" lon="-8.559514841944456"><ele>81.0</ele><time>2026-04-05T15:21:26Z</time></trkpt><trkpt lat="42.46260212982862" lon="-8.559625925214503"><ele>81.0</ele><time>2026-04-05T15:21:27Z</time></trkpt><trkpt lat="42.462509078798256" lon="-8.559734813813035"><ele>81.0</ele><time>2026-04-05T15:21:28Z</time></trkpt><trkpt lat="42.46242327521575" lon="-8.559839832933177"><ele>81.0</ele><time>2026-04-05T15:21:29Z</time></trkpt><trkpt lat="42.46233243412048" lon="-8.559951524250664"><ele>81.0</ele><time>2026-04-05T15:21:30Z</time></trkpt><trkpt lat="42.46224484114184" lon="-8.560067230859243"><ele>81.0</ele><time>2026-04-05T15:21:31Z</time></trkpt><trkpt lat="42.46215819457189" lon="-8.560179943198522"><ele>81.0</ele><time>2026-04-05T15:21:32Z</time></trkpt><trkpt lat="42.462074840953186" lon="-8.56028403070455"><ele>81.0</ele><time>2026-04-05T15:21:33Z</time></trkpt><trkpt lat="42.461987806717886" lon="-8.560390193387061"><ele>81.0</ele><time>2026-04-05T15:21:34Z</time></trkpt><trkpt lat="42.46190118581674" lon="-8.560509365959414"><ele>80.25</ele><time>2026-04-05T15:21:35Z</time></trkpt><trkpt lat="42.46180763186659" lon="-8.560640667671723"><ele>79.5</ele><time>2026-04-05T15:21:36Z</time></trkpt><trkpt lat="42.46170439644953" lon="-8.560774615242172"><ele>78.75</ele><time>2026-04-05T15:21:37Z</time></trkpt><trkpt lat="42.46159714512103" lon="-8.560907873409523"><ele>78.0</ele><time>2026-04-05T15:21:38Z</time></trkpt><trkpt lat="42.46148419329129" lon="-8.561038761978493"><ele>78.0</ele><time>2026-04-05T15:21:39Z</time></trkpt><trkpt lat="42.461360328993216" lon="-8.561172985620837"><ele>78.0</ele><time>2026-04-05T15:21:40Z</time></trkpt><trkpt lat="42.46123178641565" lon="-8.561303767300876"><ele>78.0</ele><time>2026-04-05T15:21:41Z</time></trkpt><trkpt lat="42.461093818640194" lon="-8.561425862301977"><ele>75.33333333333333</ele><time>2026-04-05T15:21:42Z</time></trkpt><trkpt lat="42.46094628040379" lon="-8.561536015899437"><ele>72.66666666666666</ele><time>2026-04-05T15:21:43Z</time></trkpt><trkpt lat="42.46079949016231" lon="-8.561643297841584"><ele>70.0</ele><time>2026-04-05T15:21:44Z</time></trkpt><trkpt lat="42.460651569136296" lon="-8.56174565271839"><ele>70.0</ele><time>2026-04-05T15:21:45Z</time></trkpt><trkpt lat="42.46051060801959" lon="-8.561831908259206"><ele>70.0</ele><time>2026-04-05T15:21:46Z</time></trkpt><trkpt lat="42.46036289474382" lon="-8.561920825745755"><ele>70.0</ele><time>2026-04-05T15:21:47Z</time></trkpt><trkpt lat="42.4602123714501" lon="-8.562014075399649"><ele>69.0</ele><time>2026-04-05T15:21:48Z</time></trkpt><trkpt lat="42.4600585885559" lon="-8.562117096990523"><ele>68.0</ele><time>2026-04-05T15:21:49Z</time></trkpt><trkpt lat="42.459918383133086" lon="-8.562208052250655"><ele>67.0</ele><time>2026-04-05T15:21:50Z</time></trkpt><trkpt lat="42.4597871861536" lon="-8.562297184170525"><ele>67.0</ele><time>2026-04-05T15:21:51Z</time></trkpt><trkpt lat="42.45965810209806" lon="-8.562394129534873"><ele>67.0</ele><time>2026-04-05T15:21:52Z</time></trkpt><trkpt lat="42.45953133979077" lon="-8.562494868248399"><ele>67.0</ele><time>2026-04-05T15:21:53Z</time></trkpt><trkpt lat="42.459406785754815" lon="-8.562610572616304"><ele>67.0</ele><time>2026-04-05T15:21:54Z</time></trkpt><trkpt lat="42.45929464184262" lon="-8.562731086176873"><ele>71.33333333333333</ele><time>2026-04-05T15:21:55Z</time></trkpt><trkpt lat="42.45918288957553" lon="-8.562863885716505"><ele>75.66666666666667</ele><time>2026-04-05T15:21:56Z</time></trkpt><trkpt lat="42.459073153893044" lon="-8.563003134781484"><ele>80.0</ele><time>2026-04-05T15:21:57Z</time></trkpt><trkpt lat="42.45896483250174" lon="-8.563145009246128"><ele>80.0</ele><time>2026-04-05T15:21:58Z</time></trkpt><trkpt lat="42.45886578772136" lon="-8.563296336398864"><ele>80.0</ele><time>2026-04-05T15:21:59Z</time></trkpt><trkpt lat="42.458772859232965" lon="-8.563463727079975"><ele>80.0</ele><time>2026-04-05T15:22:00Z</time></trkpt><trkpt lat="42.45868767472172" lon="-8.563631803741622"><ele>82.33333333333334</ele><time>2026-04-05T15:22:01Z</time></trkpt><trkpt lat="42.45860892037538" lon="-8.563809724471522"><ele>84.66666666666667</ele><time>2026-04-05T15:22:02Z</time></trkpt><trkpt lat="42.45854223752279" lon="-8.564003196843515"><ele>87.0</ele><time>2026-04-05T15:22:03Z</time></trkpt><trkpt lat="42.458481828498236" lon="-8.564205127772357"><ele>87.0</ele><time>2026-04-05T15:22:04Z</time></trkpt><trkpt lat="42.45842849475048" lon="-8.564405102828196"><ele>87.0</ele><time>2026-04-05T15:22:05Z</time></trkpt><trkpt lat="42.45837411800473" lon="-8.564603332170783"><ele>87.0</ele><time>2026-04-05T15:22:06Z</time></trkpt><trkpt lat="42.458318143371535" lon="-8.564805795388619"><ele>86.66666666666667</ele><time>2026-04-05T15:22:07Z</time></trkpt><trkpt lat="42.45826011136008" lon="-8.565005443707904"><ele>86.33333333333334</ele><time>2026-04-05T15:22:08Z</time></trkpt><trkpt lat="42.45819760716942" lon="-8.565190412013042"><ele>86.0</ele><time>2026-04-05T15:22:09Z</time></trkpt><trkpt lat="42.458131363938094" lon="-8.565371277777626"><ele>86.0</ele><time>2026-04-05T15:22:10Z</time></trkpt><trkpt lat="42.45805087711256" lon="-8.565534304325567"><ele>86.0</ele><time>2026-04-05T15:22:11Z</time></trkpt><trkpt lat="42.457967364036236" lon="-8.565679923204533"><ele>86.0</ele><time>2026-04-05T15:22:12Z</time></trkpt><trkpt lat="42.457880649723045" lon="-8.565824362950366"><ele>86.0</ele><time>2026-04-05T15:22:13Z</time></trkpt><trkpt lat="42.45779217292087" lon="-8.565959090980927"><ele>86.0</ele><time>2026-04-05T15:22:14Z</time></trkpt><trkpt lat="42.45770088557229" lon="-8.566094330924598"><ele>86.0</ele><time>2026-04-05T15:22:15Z</time></trkpt><trkpt lat="42.45760685536636" lon="-8.566229023131106"><ele>86.0</ele><time>2026-04-05T15:22:16Z</time></trkpt><trkpt lat="42.457506817826314" lon="-8.5663636679313"><ele>86.0</ele><time>2026-04-05T15:22:17Z</time></trkpt><trkpt lat="42.45740287616838" lon="-8.566502329335485"><ele>86.0</ele><time>2026-04-05T15:22:18Z</time></trkpt><trkpt lat="42.45730731565745" lon="-8.56665059919151"><ele>86.0</ele><time>2026-04-05T15:22:19Z</time></trkpt><trkpt lat="42.45720436153414" lon="-8.566787681498111"><ele>86.0</ele><time>2026-04-05T15:22:20Z</time></trkpt><trkpt lat="42.45712213233378" lon="-8.566937476946208"><ele>86.0</ele><time>2026-04-05T15:22:21Z</time></trkpt><trkpt lat="42.457052241452374" lon="-8.567112707788732"><ele>87.25</ele><time>2026-04-05T15:22:22Z</time></trkpt><trkpt lat="42.4569845867879" lon="-8.567271100024303"><ele>88.5</ele><time>2026-04-05T15:22:23Z</time></trkpt><trkpt lat="42.456918822730394" lon="-8.567430248511583"><ele>89.75</ele><time>2026-04-05T15:22:24Z</time></trkpt><trkpt lat="42.456859179871564" lon="-8.567575963916996"><ele>91.0</ele><time>2026-04-05T15:22:25Z</time></trkpt><trkpt lat="42.45679981808125" lon="-8.567732429642934"><ele>91.0</ele><time>2026-04-05T15:22:26Z</time></trkpt><trkpt lat="42.456703808175206" lon="-8.567880168945127"><ele>91.0</ele><time>2026-04-05T15:22:27Z</time></trkpt><trkpt lat="42.456644319601644" lon="-8.56804166096912"><ele>91.0</ele><time>2026-04-05T15:22:28Z</time></trkpt><trkpt lat="42.456572197714436" lon="-8.56820473543293"><ele>91.0</ele><time>2026-04-05T15:22:29Z</time></trkpt><trkpt lat="42.45648398868677" lon="-8.568347322579452"><ele>91.0</ele><time>2026-04-05T15:22:30Z</time></trkpt><trkpt lat="42.45638271763377" lon="-8.56849129618887"><ele>91.0</ele><time>2026-04-05T15:22:31Z</time></trkpt><trkpt lat="42.456280541194175" lon="-8.56862606306454"><ele>91.0</ele><time>2026-04-05T15:22:32Z</time></trkpt><trkpt lat="42.45617024383789" lon="-8.568764719448366"><ele>91.0</ele><time>2026-04-05T15:22:33Z</time></trkpt><trkpt lat="42.456064422768115" lon="-8.568905214819575"><ele>88.33333333333333</ele><time>2026-04-05T15:22:34Z</time></trkpt><trkpt lat="42.45595299562999" lon="-8.569044467280676"><ele>85.66666666666667</ele><time>2026-04-05T15:22:35Z</time></trkpt><trkpt lat="42.45585308565917" lon="-8.569194968126618"><ele>83.0</ele><time>2026-04-05T15:22:36Z</time></trkpt><trkpt lat="42.455741789904486" lon="-8.56935375951472"><ele>83.0</ele><time>2026-04-05T15:22:37Z</time></trkpt><trkpt lat="42.455627177791875" lon="-8.569512538693482"><ele>83.0</ele><time>2026-04-05T15:22:38Z</time></trkpt><trkpt lat="42.45552073148996" lon="-8.56966798556721"><ele>83.0</ele><time>2026-04-05T15:22:39Z</time></trkpt><trkpt lat="42.45540875159112" lon="-8.56981293503628"><ele>81.66666666666667</ele><time>2026-04-05T15:22:40Z</time></trkpt><trkpt lat="42.4552946741806" lon="-8.56996770730948"><ele>80.33333333333333</ele><time>2026-04-05T15:22:41Z</time></trkpt><trkpt lat="42.455179270845676" lon="-8.57011595602354"><ele>79.0</ele><time>2026-04-05T15:22:42Z</time></trkpt><trkpt lat="42.45506468733581" lon="-8.570255848807852"><ele>77.5</ele><time>2026-04-05T15:22:43Z</time></trkpt><trkpt lat="42.45494979777827" lon="-8.570370633384542"><ele>76.0</ele><time>2026-04-05T15:22:44Z</time></trkpt><trkpt lat="42.45482416193398" lon="-8.570471129843904"><ele>74.5</ele><time>2026-04-05T15:22:45Z</time></trkpt><trkpt lat="42.454678000627695" lon="-8.570555255988872"><ele>73.0</ele><time>2026-04-05T15:22:46Z</time></trkpt><trkpt lat="42.45452423160941" lon="-8.570618883490361"><ele>72.33333333333333</ele><time>2026-04-05T15:22:47Z</time></trkpt><trkpt lat="42.454358056430095" lon="-8.570676049673631"><ele>71.66666666666667</ele><time>2026-04-05T15:22:48Z</time></trkpt><trkpt lat="42.45419063606101" lon="-8.57073210916718"><ele>71.0</ele><time>2026-04-05T15:22:49Z</time></trkpt><trkpt lat="42.45402395654499" lon="-8.570789940296121"><ele>71.0</ele><time>2026-04-05T15:22:50Z</time></trkpt><trkpt lat="42.45386359554742" lon="-8.57085080117339"><ele>71.0</ele><time>2026-04-05T15:22:51Z</time></trkpt><trkpt lat="42.453701007608885" lon="-8.570924691197105"><ele>71.0</ele><time>2026-04-05T15:22:52Z</time></trkpt><trkpt lat="42.45355006192834" lon="-8.570998029482608"><ele>71.66666666666667</ele><time>2026-04-05T15:22:53Z</time></trkpt><trkpt lat="42.453405897486874" lon="-8.57107239478501"><ele>72.33333333333333</ele><time>2026-04-05T15:22:54Z</time></trkpt><trkpt lat="42.453261010165896" lon="-8.5711581288534"><ele>73.0</ele><time>2026-04-05T15:22:55Z</time></trkpt><trkpt lat="42.45310659385443" lon="-8.571251276624244"><ele>73.0</ele><time>2026-04-05T15:22:56Z</time></trkpt><trkpt lat="42.452957145329556" lon="-8.571346751639568"><ele>73.0</ele><time>2026-04-05T15:22:57Z</time></trkpt><trkpt lat="42.45281316833135" lon="-8.571445976600558"><ele>73.0</ele><time>2026-04-05T15:22:58Z</time></trkpt><trkpt lat="42.452668250777776" lon="-8.571558664812384"><ele>73.0</ele><time>2026-04-05T15:22:59Z</time></trkpt><trkpt lat="42.452522774703176" lon="-8.57167225453934"><ele>73.0</ele><time>2026-04-05T15:23:00Z</time></trkpt><trkpt lat="42.45237919670648" lon="-8.571789798194143"><ele>73.0</ele><time>2026-04-05T15:23:01Z</time></trkpt><trkpt lat="42.4522412242964" lon="-8.571907646964554"><ele>70.66666666666666</ele><time>2026-04-05T15:23:02Z</time></trkpt><trkpt lat="42.452102741693004" lon="-8.57203770953287"><ele>68.33333333333333</ele><time>2026-04-05T15:23:03Z</time></trkpt><trkpt lat="42.45196887858946" lon="-8.57216693220058"><ele>66.0</ele><time>2026-04-05T15:23:04Z</time></trkpt><trkpt lat="42.45183394411258" lon="-8.57230240238758"><ele>66.0</ele><time>2026-04-05T15:23:05Z</time></trkpt><trkpt lat="42.45170416156156" lon="-8.572442246153056"><ele>66.0</ele><time>2026-04-05T15:23:06Z</time></trkpt><trkpt lat="42.451570357857186" lon="-8.572585810697326"><ele>66.0</ele><time>2026-04-05T15:23:07Z</time></trkpt><trkpt lat="42.451440282725855" lon="-8.572724543063671"><ele>67.0</ele><time>2026-04-05T15:23:08Z</time></trkpt><trkpt lat="42.451307244186815" lon="-8.572864818182744"><ele>68.0</ele><time>2026-04-05T15:23:09Z</time></trkpt><trkpt lat="42.45117025527339" lon="-8.572990506423382"><ele>69.0</ele><time>2026-04-05T15:23:10Z</time></trkpt><trkpt lat="42.451027572994555" lon="-8.573100544738892"><ele>69.0</ele><time>2026-04-05T15:23:11Z</time></trkpt><trkpt lat="42.45088025720589" lon="-8.57320260731915"><ele>69.0</ele><time>2026-04-05T15:23:12Z</time></trkpt><trkpt lat="42.45072828194663" lon="-8.573294972676653"><ele>69.0</ele><time>2026-04-05T15:23:13Z</time></trkpt><trkpt lat="42.45057308246088" lon="-8.573384067975407"><ele>75.0</ele><time>2026-04-05T15:23:14Z</time></trkpt><trkpt lat="42.45041459066457" lon="-8.573454415523258"><ele>81.0</ele><time>2026-04-05T15:23:15Z</time></trkpt><trkpt lat="42.45024735493048" lon="-8.573506368006894"><ele>87.0</ele><time>2026-04-05T15:23:16Z</time></trkpt><trkpt lat="42.45008273819301" lon="-8.573569559634656"><ele>87.0</ele><time>2026-04-05T15:23:17Z</time></trkpt><trkpt lat="42.449919270519906" lon="-8.573632885312632"><ele>87.0</ele><time>2026-04-05T15:23:18Z</time></trkpt><trkpt lat="42.44976216610654" lon="-8.573736360508391"><ele>87.0</ele><time>2026-04-05T15:23:19Z</time></trkpt><trkpt lat="42.44961845732973" lon="-8.573850331334782"><ele>81.33333333333333</ele><time>2026-04-05T15:23:20Z</time></trkpt><trkpt lat="42.44947570393289" lon="-8.57399307059903"><ele>75.66666666666666</ele><time>2026-04-05T15:23:21Z</time></trkpt><trkpt lat="42.44933649383965" lon="-8.574161599792568"><ele>70.0</ele><time>2026-04-05T15:23:22Z</time></trkpt><trkpt lat="42.44920604003424" lon="-8.574339402601025"><ele>65.66666666666666</ele><time>2026-04-05T15:23:23Z</time></trkpt><trkpt lat="42.44910449408034" lon="-8.574554849625372"><ele>61.33333333333333</ele><time>2026-04-05T15:23:24Z</time></trkpt><trkpt lat="42.449019373484845" lon="-8.574792969669636"><ele>57.0</ele><time>2026-04-05T15:23:25Z</time></trkpt><trkpt lat="42.448956522513136" lon="-8.575039133721722"><ele>57.0</ele><time>2026-04-05T15:23:26Z</time></trkpt><trkpt lat="42.44891196408118" lon="-8.575301432460524"><ele>57.0</ele><time>2026-04-05T15:23:27Z</time></trkpt><trkpt lat="42.448891294977166" lon="-8.575576046791927"><ele>57.0</ele><time>2026-04-05T15:23:28Z</time></trkpt><trkpt lat="42.4488914144447" lon="-8.575860677696147"><ele>56.0</ele><time>2026-04-05T15:23:29Z</time></trkpt><trkpt lat="42.44893056572596" lon="-8.57614899454198"><ele>55.0</ele><time>2026-04-05T15:23:30Z</time></trkpt><trkpt lat="42.44897923444728" lon="-8.576435630337036"><ele>54.0</ele><time>2026-04-05T15:23:31Z</time></trkpt><trkpt lat="42.44900923876924" lon="-8.576712374104792"><ele>54.0</ele><time>2026-04-05T15:23:32Z</time></trkpt><trkpt lat="42.44900793463286" lon="-8.576980332891567"><ele>54.0</ele><time>2026-04-05T15:23:33Z</time></trkpt><trkpt lat="42.44898535597276" lon="-8.577252769575702"><ele>54.0</ele><time>2026-04-05T15:23:34Z</time></trkpt><trkpt lat="42.44894081499594" lon="-8.577516475306103"><ele>54.33333333333333</ele><time>2026-04-05T15:23:35Z</time></trkpt><trkpt lat="42.448871538580484" lon="-8.577759107912994"><ele>54.666666666666664</ele><time>2026-04-05T15:23:36Z</time></trkpt><trkpt lat="42.448790634208436" lon="-8.577996568524028"><ele>55.0</ele><time>2026-04-05T15:23:37Z</time></trkpt><trkpt lat="42.44869525425785" lon="-8.578231833914238"><ele>55.0</ele><time>2026-04-05T15:23:38Z</time></trkpt><trkpt lat="42.44858098764363" lon="-8.57844793665983"><ele>55.0</ele><time>2026-04-05T15:23:39Z</time></trkpt><trkpt lat="42.44845398489164" lon="-8.578652140391291"><ele>55.0</ele><time>2026-04-05T15:23:40Z</time></trkpt><trkpt lat="42.44831727268676" lon="-8.578844480599068"><ele>54.666666666666664</ele><time>2026-04-05T15:23:41Z</time></trkpt><trkpt lat="42.44816129658731" lon="-8.579023419703717"><ele>54.33333333333333</ele><time>2026-04-05T15:23:42Z</time></trkpt><trkpt lat="42.44800268287284" lon="-8.579171622061784"><ele>54.0</ele><time>2026-04-05T15:23:43Z</time></trkpt><trkpt lat="42.44783812558551" lon="-8.579302323993623"><ele>54.0</ele><time>2026-04-05T15:23:44Z</time></trkpt><trkpt lat="42.447661178756164" lon="-8.579416066652733"><ele>54.0</ele><time>2026-04-05T15:23:45Z</time></trkpt><trkpt lat="42.44747550016136" lon="-8.579499053363197"><ele>54.0</ele><time>2026-04-05T15:23:46Z</time></trkpt><trkpt lat="42.44728766686037" lon="-8.579570571169135"><ele>47.666666666666664</ele><time>2026-04-05T15:23:47Z</time></trkpt><trkpt lat="42.4471047301197" lon="-8.579637331015435"><ele>41.33333333333333</ele><time>2026-04-05T15:23:48Z</time></trkpt><trkpt lat="42.446934779394546" lon="-8.57966632286373"><ele>35.0</ele><time>2026-04-05T15:23:49Z</time></trkpt><trkpt lat="42.446759855354316" lon="-8.579700295697537"><ele>35.0</ele><time>2026-04-05T15:23:50Z</time></trkpt><trkpt lat="42.44658932330702" lon="-8.579738669661054"><ele>35.0</ele><time>2026-04-05T15:23:51Z</time></trkpt><trkpt lat="42.44643060969815" lon="-8.579795694272338"><ele>35.0</ele><time>2026-04-05T15:23:52Z</time></trkpt><trkpt lat="42.44627088021841" lon="-8.57987467081294"><ele>37.0</ele><time>2026-04-05T15:23:53Z</time></trkpt><trkpt lat="42.44611818720563" lon="-8.579969481027376"><ele>39.0</ele><time>2026-04-05T15:23:54Z</time></trkpt><trkpt lat="42.4459772546472" lon="-8.580080744311115"><ele>41.0</ele><time>2026-04-05T15:23:55Z</time></trkpt><trkpt lat="42.44584963964319" lon="-8.580195616765396"><ele>41.0</ele><time>2026-04-05T15:23:56Z</time></trkpt><trkpt lat="42.44572701972459" lon="-8.580311749639868"><ele>41.0</ele><time>2026-04-05T15:23:57Z</time></trkpt><trkpt lat="42.445606737113735" lon="-8.580423085991526"><ele>41.0</ele><time>2026-04-05T15:23:58Z</time></trkpt><trkpt lat="42.44548978066184" lon="-8.580531140049601"><ele>41.0</ele><time>2026-04-05T15:23:59Z</time></trkpt><trkpt lat="42.44537352777056" lon="-8.5806411106164"><ele>39.75</ele><time>2026-04-05T15:24:00Z</time></trkpt><trkpt lat="42.44526446287565" lon="-8.5807444665239"><ele>38.5</ele><time>2026-04-05T15:24:01Z</time></trkpt><trkpt lat="42.445160412305306" lon="-8.580838929748353"><ele>37.25</ele><time>2026-04-05T15:24:02Z</time></trkpt><trkpt lat="42.44505341745077" lon="-8.5809328716795"><ele>36.0</ele><time>2026-04-05T15:24:03Z</time></trkpt><trkpt lat="42.44495975605256" lon="-8.58102082817543"><ele>36.0</ele><time>2026-04-05T15:24:04Z</time></trkpt><trkpt lat="42.44487041094386" lon="-8.58111670426828"><ele>36.0</ele><time>2026-04-05T15:24:05Z</time></trkpt><trkpt lat="42.44479116778945" lon="-8.581219460543833"><ele>36.0</ele><time>2026-04-05T15:24:06Z</time></trkpt><trkpt lat="42.44473592174553" lon="-8.581329113004779"><ele>36.0</ele><time>2026-04-05T15:24:07Z</time></trkpt><trkpt lat="42.4447158954265" lon="-8.581443391701175"><ele>36.0</ele><time>2026-04-05T15:24:08Z</time></trkpt><trkpt lat="42.444682138668405" lon="-8.581530813701736"><ele>35.0</ele><time>2026-04-05T15:24:09Z</time></trkpt><trkpt lat="42.44461597581705" lon="-8.58157474864103"><ele>34.0</ele><time>2026-04-05T15:24:10Z</time></trkpt><trkpt lat="42.444525195582294" lon="-8.581574284980741"><ele>33.0</ele><time>2026-04-05T15:24:11Z</time></trkpt><trkpt lat="42.44443665536348" lon="-8.581531011509957"><ele>32.0</ele><time>2026-04-05T15:24:12Z</time></trkpt><trkpt lat="42.44432288986401" lon="-8.58159960971202"><ele>31.0</ele><time>2026-04-05T15:24:13Z</time></trkpt><trkpt lat="42.44421909502722" lon="-8.581701235949573"><ele>31.0</ele><time>2026-04-05T15:24:14Z</time></trkpt><trkpt lat="42.44411539146915" lon="-8.581824104500482"><ele>31.0</ele><time>2026-04-05T15:24:15Z</time></trkpt><trkpt lat="42.44400969446462" lon="-8.58193503045303"><ele>31.0</ele><time>2026-04-05T15:24:16Z</time></trkpt><trkpt lat="42.44391595046287" lon="-8.582042115146763"><ele>31.0</ele><time>2026-04-05T15:24:17Z</time></trkpt><trkpt lat="42.44384165763688" lon="-8.582149446093949"><ele>31.0</ele><time>2026-04-05T15:24:18Z</time></trkpt><trkpt lat="42.44377504776574" lon="-8.582259659836154"><ele>31.0</ele><time>2026-04-05T15:24:19Z</time></trkpt><trkpt lat="42.44371030732815" lon="-8.582374562090239"><ele>31.0</ele><time>2026-04-05T15:24:20Z</time></trkpt><trkpt lat="42.443643383524574" lon="-8.582501476103806"><ele>31.0</ele><time>2026-04-05T15:24:21Z</time></trkpt><trkpt lat="42.44357855720781" lon="-8.582638589263968"><ele>31.0</ele><time>2026-04-05T15:24:22Z</time></trkpt><trkpt lat="42.44351602834537" lon="-8.582785601981707"><ele>31.25</ele><time>2026-04-05T15:24:23Z</time></trkpt><trkpt lat="42.44345461543173" lon="-8.582940510645056"><ele>31.5</ele><time>2026-04-05T15:24:24Z</time></trkpt><trkpt lat="42.44340109164999" lon="-8.583098994137108"><ele>31.75</ele><time>2026-04-05T15:24:25Z</time></trkpt><trkpt lat="42.44334988754365" lon="-8.58326495474878"><ele>32.0</ele><time>2026-04-05T15:24:26Z</time></trkpt><trkpt lat="42.44330443984326" lon="-8.5834358917854"><ele>32.0</ele><time>2026-04-05T15:24:27Z</time></trkpt><trkpt lat="42.443273876640355" lon="-8.583594929848259"><ele>32.0</ele><time>2026-04-05T15:24:28Z</time></trkpt><trkpt lat="42.44324900726495" lon="-8.583754396221149"><ele>32.0</ele><time>2026-04-05T15:24:29Z</time></trkpt><trkpt lat="42.44323851134733" lon="-8.583907765341948"><ele>32.0</ele><time>2026-04-05T15:24:30Z</time></trkpt><trkpt lat="42.44324376132235" lon="-8.584054094311544"><ele>31.999999999999996</ele><time>2026-04-05T15:24:31Z</time></trkpt><trkpt lat="42.443263330206975" lon="-8.584191965491877"><ele>32.0</ele><time>2026-04-05T15:24:32Z</time></trkpt><trkpt lat="42.44329000806794" lon="-8.584318982312476"><ele>32.0</ele><time>2026-04-05T15:24:33Z</time></trkpt><trkpt lat="42.44332005625162" lon="-8.584435932137355"><ele>32.0</ele><time>2026-04-05T15:24:34Z</time></trkpt><trkpt lat="42.4433486005043" lon="-8.584542983524669"><ele>31.999999999999996</ele><time>2026-04-05T15:24:35Z</time></trkpt><trkpt lat="42.44338813652858" lon="-8.584615588350882"><ele>32.0</ele><time>2026-04-05T15:24:36Z</time></trkpt><trkpt lat="42.44325988576576" lon="-8.58476369267911"><ele>31.6</ele><time>2026-04-05T15:24:38Z</time></trkpt><trkpt lat="42.443193834606305" lon="-8.584835008115911"><ele>31.200000000000003</ele><time>2026-04-05T15:24:39Z</time></trkpt><trkpt lat="42.44309320089986" lon="-8.58489504984377"><ele>30.8</ele><time>2026-04-05T15:24:40Z</time></trkpt><trkpt lat="42.44299951016779" lon="-8.584971429966956"><ele>30.4</ele><time>2026-04-05T15:24:41Z</time></trkpt><trkpt lat="42.44291286162425" lon="-8.585073140645397"><ele>30.0</ele><time>2026-04-05T15:24:42Z</time></trkpt><trkpt lat="42.4428375804353" lon="-8.585193558458863"><ele>31.5</ele><time>2026-04-05T15:24:43Z</time></trkpt><trkpt lat="42.44277560560807" lon="-8.585330141330335"><ele>33.0</ele><time>2026-04-05T15:24:44Z</time></trkpt><trkpt lat="42.44271641948925" lon="-8.585471880323492"><ele>34.5</ele><time>2026-04-05T15:24:45Z</time></trkpt><trkpt lat="42.442662638744636" lon="-8.58562324913669"><ele>36.0</ele><time>2026-04-05T15:24:46Z</time></trkpt><trkpt lat="42.4426103858089" lon="-8.585782893536186"><ele>33.0</ele><time>2026-04-05T15:24:47Z</time></trkpt><trkpt lat="42.4425682174608" lon="-8.58595043739824"><ele>30.0</ele><time>2026-04-05T15:24:48Z</time></trkpt><trkpt lat="42.44252750725623" lon="-8.586130237774535"><ele>27.0</ele><time>2026-04-05T15:24:49Z</time></trkpt><trkpt lat="42.44249358681741" lon="-8.586313752088405"><ele>24.0</ele><time>2026-04-05T15:24:50Z</time></trkpt><trkpt lat="42.442462083775126" lon="-8.586498352480767"><ele>23.75</ele><time>2026-04-05T15:24:51Z</time></trkpt><trkpt lat="42.44244062232554" lon="-8.586695327472635"><ele>23.5</ele><time>2026-04-05T15:24:52Z</time></trkpt><trkpt lat="42.44241797782508" lon="-8.586876078410304"><ele>23.25</ele><time>2026-04-05T15:24:53Z</time></trkpt><trkpt lat="42.442394547766874" lon="-8.587057872773066"><ele>23.0</ele><time>2026-04-05T15:24:54Z</time></trkpt><trkpt lat="42.442371957787266" lon="-8.587231590710225"><ele>25.0</ele><time>2026-04-05T15:24:55Z</time></trkpt><trkpt lat="42.44234208736959" lon="-8.587406115077734"><ele>27.0</ele><time>2026-04-05T15:24:56Z</time></trkpt><trkpt lat="42.442300354727536" lon="-8.587575801463519"><ele>29.0</ele><time>2026-04-05T15:24:57Z</time></trkpt><trkpt lat="42.442174131090475" lon="-8.587897604673909"><ele>32.0</ele><time>2026-04-05T15:24:59Z</time></trkpt><trkpt lat="42.44209705472235" lon="-8.588046076306998"><ele>35.0</ele><time>2026-04-05T15:25:00Z</time></trkpt><trkpt lat="42.442004298543345" lon="-8.588187707736742"><ele>38.0</ele><time>2026-04-05T15:25:01Z</time></trkpt><trkpt lat="42.44189615528188" lon="-8.588325942008895"><ele>41.0</ele><time>2026-04-05T15:25:02Z</time></trkpt><trkpt lat="42.441774031856205" lon="-8.588439326052514"><ele>41.0</ele><time>2026-04-05T15:25:03Z</time></trkpt><trkpt lat="42.4416422795464" lon="-8.588544183836992"><ele>41.0</ele><time>2026-04-05T15:25:04Z</time></trkpt><trkpt lat="42.441503169341594" lon="-8.588638785408678"><ele>41.0</ele><time>2026-04-05T15:25:05Z</time></trkpt><trkpt lat="42.44136157020805" lon="-8.588714501165668"><ele>44.0</ele><time>2026-04-05T15:25:06Z</time></trkpt><trkpt lat="42.44120825762856" lon="-8.588775770260998"><ele>47.0</ele><time>2026-04-05T15:25:07Z</time></trkpt><trkpt lat="42.44105254122099" lon="-8.588826726882406"><ele>50.0</ele><time>2026-04-05T15:25:08Z</time></trkpt><trkpt lat="42.4408888820115" lon="-8.588882337189553"><ele>50.0</ele><time>2026-04-05T15:25:09Z</time></trkpt><trkpt lat="42.440728033055386" lon="-8.58894423405523"><ele>50.0</ele><time>2026-04-05T15:25:10Z</time></trkpt><trkpt lat="42.44056353508786" lon="-8.589001009463455"><ele>50.0</ele><time>2026-04-05T15:25:11Z</time></trkpt><trkpt lat="42.44039664241979" lon="-8.589049656338114"><ele>50.0</ele><time>2026-04-05T15:25:12Z</time></trkpt><trkpt lat="42.440224181611825" lon="-8.589087572002535"><ele>50.0</ele><time>2026-04-05T15:25:13Z</time></trkpt><trkpt lat="42.440048666402156" lon="-8.589112085420167"><ele>50.0</ele><time>2026-04-05T15:25:14Z</time></trkpt><trkpt lat="42.43986843462052" lon="-8.589121420121943"><ele>50.0</ele><time>2026-04-05T15:25:15Z</time></trkpt><trkpt lat="42.4396875207395" lon="-8.589118092458301"><ele>50.0</ele><time>2026-04-05T15:25:16Z</time></trkpt><trkpt lat="42.4395073348967" lon="-8.58910226212949"><ele>50.0</ele><time>2026-04-05T15:25:17Z</time></trkpt><trkpt lat="42.43931972999703" lon="-8.589067782492826"><ele>51.0</ele><time>2026-04-05T15:25:18Z</time></trkpt><trkpt lat="42.43913323404168" lon="-8.58901309752874"><ele>52.0</ele><time>2026-04-05T15:25:19Z</time></trkpt><trkpt lat="42.43894795471362" lon="-8.588945661153682"><ele>53.0</ele><time>2026-04-05T15:25:20Z</time></trkpt><trkpt lat="42.43876415941365" lon="-8.58885165803854"><ele>52.66666666666667</ele><time>2026-04-05T15:25:21Z</time></trkpt><trkpt lat="42.43857707247515" lon="-8.588739777946191"><ele>52.33333333333333</ele><time>2026-04-05T15:25:22Z</time></trkpt><trkpt lat="42.43840522655844" lon="-8.58861880973875"><ele>52.0</ele><time>2026-04-05T15:25:23Z</time></trkpt><trkpt lat="42.438252910650114" lon="-8.588503968363247"><ele>52.0</ele><time>2026-04-05T15:25:24Z</time></trkpt><trkpt lat="42.43809516483828" lon="-8.588392936916998"><ele>52.0</ele><time>2026-04-05T15:25:25Z</time></trkpt><trkpt lat="42.43793206058933" lon="-8.588278025631693"><ele>52.0</ele><time>2026-04-05T15:25:26Z</time></trkpt><trkpt lat="42.43777007259495" lon="-8.588166626413848"><ele>53.0</ele><time>2026-04-05T15:25:27Z</time></trkpt><trkpt lat="42.43760817091785" lon="-8.588056536145793"><ele>54.0</ele><time>2026-04-05T15:25:28Z</time></trkpt><trkpt lat="42.437448444380244" lon="-8.587946255161087"><ele>55.0</ele><time>2026-04-05T15:25:29Z</time></trkpt><trkpt lat="42.43728861525022" lon="-8.587835733403343"><ele>59.666666666666664</ele><time>2026-04-05T15:25:30Z</time></trkpt><trkpt lat="42.43713211415465" lon="-8.587724906062672"><ele>64.33333333333333</ele><time>2026-04-05T15:25:31Z</time></trkpt><trkpt lat="42.436976649009075" lon="-8.587610516041904"><ele>69.0</ele><time>2026-04-05T15:25:32Z</time></trkpt><trkpt lat="42.436821161934276" lon="-8.587500700230077"><ele>69.0</ele><time>2026-04-05T15:25:33Z</time></trkpt><trkpt lat="42.43666007437553" lon="-8.587393929544424"><ele>69.0</ele><time>2026-04-05T15:25:34Z</time></trkpt><trkpt lat="42.43649294828033" lon="-8.587301942684713"><ele>69.0</ele><time>2026-04-05T15:25:35Z</time></trkpt><trkpt lat="42.436321574115276" lon="-8.587237460024287"><ele>70.66666666666667</ele><time>2026-04-05T15:25:36Z</time></trkpt><trkpt lat="42.43615629902587" lon="-8.587223546479127"><ele>72.33333333333334</ele><time>2026-04-05T15:25:37Z</time></trkpt><trkpt lat="42.43600809203268" lon="-8.587259775097161"><ele>74.0</ele><time>2026-04-05T15:25:38Z</time></trkpt><trkpt lat="42.435860944326144" lon="-8.587341503594399"><ele>74.0</ele><time>2026-04-05T15:25:39Z</time></trkpt><trkpt lat="42.435728761796085" lon="-8.587464905825094"><ele>74.0</ele><time>2026-04-05T15:25:40Z</time></trkpt><trkpt lat="42.435611783583724" lon="-8.587618334141116"><ele>74.0</ele><time>2026-04-05T15:25:41Z</time></trkpt><trkpt lat="42.43551023337286" lon="-8.58779583709363"><ele>74.0</ele><time>2026-04-05T15:25:42Z</time></trkpt><trkpt lat="42.435417011939705" lon="-8.58798546803936"><ele>74.0</ele><time>2026-04-05T15:25:43Z</time></trkpt><trkpt lat="42.435316365696586" lon="-8.588172715840754"><ele>74.0</ele><time>2026-04-05T15:25:44Z</time></trkpt><trkpt lat="42.43520401958693" lon="-8.588355056876003"><ele>74.0</ele><time>2026-04-05T15:25:45Z</time></trkpt><trkpt lat="42.43508518531851" lon="-8.588522445280987"><ele>74.0</ele><time>2026-04-05T15:25:46Z</time></trkpt><trkpt lat="42.43496119285492" lon="-8.588672421660197"><ele>74.0</ele><time>2026-04-05T15:25:47Z</time></trkpt><trkpt lat="42.43482793519058" lon="-8.588807478769334"><ele>75.33333333333334</ele><time>2026-04-05T15:25:48Z</time></trkpt><trkpt lat="42.43468650239866" lon="-8.588933911782853"><ele>76.66666666666667</ele><time>2026-04-05T15:25:49Z</time></trkpt><trkpt lat="42.43454014776752" lon="-8.589056577158924"><ele>78.0</ele><time>2026-04-05T15:25:50Z</time></trkpt><trkpt lat="42.43439434161362" lon="-8.589180655093479"><ele>78.0</ele><time>2026-04-05T15:25:51Z</time></trkpt><trkpt lat="42.43424721511888" lon="-8.58929950897639"><ele>78.0</ele><time>2026-04-05T15:25:52Z</time></trkpt><trkpt lat="42.43410022213382" lon="-8.589419214369581"><ele>78.0</ele><time>2026-04-05T15:25:53Z</time></trkpt><trkpt lat="42.43396561315327" lon="-8.589538521676994"><ele>78.33333333333333</ele><time>2026-04-05T15:25:54Z</time></trkpt><trkpt lat="42.43384642552383" lon="-8.5896790383695"><ele>78.66666666666666</ele><time>2026-04-05T15:25:55Z</time></trkpt><trkpt lat="42.43375184487867" lon="-8.58984762856211"><ele>79.0</ele><time>2026-04-05T15:25:56Z</time></trkpt><trkpt lat="42.433670386025504" lon="-8.59002886336994"><ele>79.0</ele><time>2026-04-05T15:25:57Z</time></trkpt><trkpt lat="42.43359517715788" lon="-8.590214756254184"><ele>79.0</ele><time>2026-04-05T15:25:58Z</time></trkpt><trkpt lat="42.433515119647865" lon="-8.590395070397127"><ele>79.0</ele><time>2026-04-05T15:25:59Z</time></trkpt><trkpt lat="42.43342407955174" lon="-8.590565082851432"><ele>80.33333333333333</ele><time>2026-04-05T15:26:00Z</time></trkpt><trkpt lat="42.433317393861294" lon="-8.590720846851926"><ele>81.66666666666667</ele><time>2026-04-05T15:26:01Z</time></trkpt><trkpt lat="42.43319611220484" lon="-8.590863852800227"><ele>83.0</ele><time>2026-04-05T15:26:02Z</time></trkpt><trkpt lat="42.433057533161715" lon="-8.59099403097954"><ele>84.0</ele><time>2026-04-05T15:26:03Z</time></trkpt><trkpt lat="42.43291104429107" lon="-8.59111210656145"><ele>85.0</ele><time>2026-04-05T15:26:04Z</time></trkpt><trkpt lat="42.432751174915765" lon="-8.591215151012555"><ele>86.0</ele><time>2026-04-05T15:26:05Z</time></trkpt><trkpt lat="42.43258332395049" lon="-8.591312258347076"><ele>86.0</ele><time>2026-04-05T15:26:06Z</time></trkpt><trkpt lat="42.432415464632896" lon="-8.591413181965228"><ele>86.0</ele><time>2026-04-05T15:26:07Z</time></trkpt><trkpt lat="42.4322500892494" lon="-8.591520795637932"><ele>86.0</ele><time>2026-04-05T15:26:08Z</time></trkpt><trkpt lat="42.4320824120867" lon="-8.591631616969243"><ele>87.0</ele><time>2026-04-05T15:26:09Z</time></trkpt><trkpt lat="42.43191839136023" lon="-8.591746206700128"><ele>88.0</ele><time>2026-04-05T15:26:10Z</time></trkpt><trkpt lat="42.43175768999024" lon="-8.591868245556695"><ele>89.0</ele><time>2026-04-05T15:26:11Z</time></trkpt><trkpt lat="42.43159910085899" lon="-8.591999906458561"><ele>90.66666666666667</ele><time>2026-04-05T15:26:12Z</time></trkpt><trkpt lat="42.43144196017467" lon="-8.592144448858873"><ele>92.33333333333333</ele><time>2026-04-05T15:26:13Z</time></trkpt><trkpt lat="42.43129438549508" lon="-8.592301229433104"><ele>94.0</ele><time>2026-04-05T15:26:14Z</time></trkpt><trkpt lat="42.431146553800204" lon="-8.592464678244143"><ele>94.0</ele><time>2026-04-05T15:26:15Z</time></trkpt><trkpt lat="42.43099152933333" lon="-8.592639229875154"><ele>94.0</ele><time>2026-04-05T15:26:16Z</time></trkpt><trkpt lat="42.43083993476856" lon="-8.592792166082164"><ele>94.0</ele><time>2026-04-05T15:26:17Z</time></trkpt><trkpt lat="42.430704003056384" lon="-8.59293742819422"><ele>97.33333333333333</ele><time>2026-04-05T15:26:18Z</time></trkpt><trkpt lat="42.4305658010373" lon="-8.593060079135322"><ele>100.66666666666666</ele><time>2026-04-05T15:26:19Z</time></trkpt><trkpt lat="42.4304224887777" lon="-8.593147139961923"><ele>104.0</ele><time>2026-04-05T15:26:20Z</time></trkpt><trkpt lat="42.43026461887068" lon="-8.593196223267029"><ele>106.33333333333333</ele><time>2026-04-05T15:26:21Z</time></trkpt><trkpt lat="42.43009871617896" lon="-8.593192288688439"><ele>108.66666666666666</ele><time>2026-04-05T15:26:22Z</time></trkpt><trkpt lat="42.429932779705524" lon="-8.593146571714598"><ele>111.0</ele><time>2026-04-05T15:26:23Z</time></trkpt><trkpt lat="42.42977586397999" lon="-8.593069074912906"><ele>112.33333333333334</ele><time>2026-04-05T15:26:24Z</time></trkpt><trkpt lat="42.42961975868214" lon="-8.59297206255339"><ele>113.66666666666667</ele><time>2026-04-05T15:26:25Z</time></trkpt><trkpt lat="42.4294651973534" lon="-8.592889789206673"><ele>115.0</ele><time>2026-04-05T15:26:26Z</time></trkpt><trkpt lat="42.429306210110035" lon="-8.592813700796016"><ele>109.66666666666667</ele><time>2026-04-05T15:26:27Z</time></trkpt><trkpt lat="42.42914720288688" lon="-8.592748191186377"><ele>104.33333333333334</ele><time>2026-04-05T15:26:28Z</time></trkpt><trkpt lat="42.428988329793576" lon="-8.592706095015174"><ele>99.0</ele><time>2026-04-05T15:26:29Z</time></trkpt><trkpt lat="42.42881709615997" lon="-8.592685181370406"><ele>100.66666666666666</ele><time>2026-04-05T15:26:30Z</time></trkpt><trkpt lat="42.42864985776" lon="-8.59270637847632"><ele>102.33333333333333</ele><time>2026-04-05T15:26:31Z</time></trkpt><trkpt lat="42.42848446978158" lon="-8.592752035422132"><ele>104.0</ele><time>2026-04-05T15:26:32Z</time></trkpt><trkpt lat="42.428306570985185" lon="-8.592802863515702"><ele>105.66666666666666</ele><time>2026-04-05T15:26:33Z</time></trkpt><trkpt lat="42.428138601867374" lon="-8.592878088748686"><ele>107.33333333333334</ele><time>2026-04-05T15:26:34Z</time></trkpt><trkpt lat="42.427954848140295" lon="-8.592976928744397"><ele>109.0</ele><time>2026-04-05T15:26:35Z</time></trkpt><trkpt lat="42.427815004331556" lon="-8.593104292108395"><ele>109.0</ele><time>2026-04-05T15:26:36Z</time></trkpt><trkpt lat="42.427680309956784" lon="-8.593265307165872"><ele>109.0</ele><time>2026-04-05T15:26:37Z</time></trkpt><trkpt lat="42.42755091342824" lon="-8.593441225479362"><ele>109.0</ele><time>2026-04-05T15:26:38Z</time></trkpt><trkpt lat="42.42743274814018" lon="-8.593628701059634"><ele>110.33333333333334</ele><time>2026-04-05T15:26:39Z</time></trkpt><trkpt lat="42.427312583853315" lon="-8.593814308901852"><ele>111.66666666666666</ele><time>2026-04-05T15:26:40Z</time></trkpt><trkpt lat="42.427192010024434" lon="-8.59400103128743"><ele>113.0</ele><time>2026-04-05T15:26:41Z</time></trkpt><trkpt lat="42.427069227822315" lon="-8.594186713171185"><ele>113.0</ele><time>2026-04-05T15:26:42Z</time></trkpt><trkpt lat="42.42693791265189" lon="-8.594369918738401"><ele>113.0</ele><time>2026-04-05T15:26:43Z</time></trkpt><trkpt lat="42.42679660429225" lon="-8.594544047888464"><ele>113.0</ele><time>2026-04-05T15:26:44Z</time></trkpt><trkpt lat="42.42664570896345" lon="-8.594706135703218"><ele>116.33333333333333</ele><time>2026-04-05T15:26:45Z</time></trkpt><trkpt lat="42.42648810687913" lon="-8.594857645818577"><ele>119.66666666666666</ele><time>2026-04-05T15:26:46Z</time></trkpt><trkpt lat="42.42633511967086" lon="-8.594999896056294"><ele>123.0</ele><time>2026-04-05T15:26:47Z</time></trkpt><trkpt lat="42.42616934929308" lon="-8.595144584770745"><ele>123.0</ele><time>2026-04-05T15:26:48Z</time></trkpt><trkpt lat="42.42600253984795" lon="-8.59528726693092"><ele>123.0</ele><time>2026-04-05T15:26:49Z</time></trkpt><trkpt lat="42.42583302754482" lon="-8.595416450624938"><ele>123.0</ele><time>2026-04-05T15:26:50Z</time></trkpt><trkpt lat="42.42567749267976" lon="-8.595589398012693"><ele>123.66666666666666</ele><time>2026-04-05T15:26:51Z</time></trkpt><trkpt lat="42.425542968564955" lon="-8.59576683258776"><ele>124.33333333333333</ele><time>2026-04-05T15:26:52Z</time></trkpt><trkpt lat="42.425415585576324" lon="-8.595963358019608"><ele>125.0</ele><time>2026-04-05T15:26:53Z</time></trkpt><trkpt lat="42.42530199881283" lon="-8.596174208576194"><ele>127.0</ele><time>2026-04-05T15:26:54Z</time></trkpt><trkpt lat="42.425198444047844" lon="-8.596391204496571"><ele>129.0</ele><time>2026-04-05T15:26:55Z</time></trkpt><trkpt lat="42.425104615715114" lon="-8.596615252966199"><ele>131.0</ele><time>2026-04-05T15:26:56Z</time></trkpt><trkpt lat="42.425011244531774" lon="-8.596839615106761"><ele>133.33333333333331</ele><time>2026-04-05T15:26:57Z</time></trkpt><trkpt lat="42.424918567493755" lon="-8.597072296127626"><ele>135.66666666666666</ele><time>2026-04-05T15:26:58Z</time></trkpt><trkpt lat="42.42482577089619" lon="-8.5973072676922"><ele>138.0</ele><time>2026-04-05T15:26:59Z</time></trkpt><trkpt lat="42.424733441390096" lon="-8.597527592237801"><ele>139.0</ele><time>2026-04-05T15:27:00Z</time></trkpt><trkpt lat="42.424643868786546" lon="-8.597749975987057"><ele>140.0</ele><time>2026-04-05T15:27:01Z</time></trkpt><trkpt lat="42.42454359790379" lon="-8.597971641880537"><ele>141.0</ele><time>2026-04-05T15:27:02Z</time></trkpt><trkpt lat="42.424436202393075" lon="-8.598185585226101"><ele>141.0</ele><time>2026-04-05T15:27:03Z</time></trkpt><trkpt lat="42.42432386173649" lon="-8.598385935980737"><ele>141.0</ele><time>2026-04-05T15:27:04Z</time></trkpt><trkpt lat="42.424202215034555" lon="-8.598577865878251"><ele>141.0</ele><time>2026-04-05T15:27:05Z</time></trkpt><trkpt lat="42.42407147744426" lon="-8.598760624057446"><ele>142.0</ele><time>2026-04-05T15:27:06Z</time></trkpt><trkpt lat="42.423936404312784" lon="-8.598928019753"><ele>143.0</ele><time>2026-04-05T15:27:07Z</time></trkpt><trkpt lat="42.42379980655262" lon="-8.599096927595733"><ele>144.0</ele><time>2026-04-05T15:27:08Z</time></trkpt><trkpt lat="42.42366245938508" lon="-8.599263347181246"><ele>144.0</ele><time>2026-04-05T15:27:09Z</time></trkpt><trkpt lat="42.423521726873005" lon="-8.599431242365378"><ele>144.0</ele><time>2026-04-05T15:27:10Z</time></trkpt><trkpt lat="42.423388605070464" lon="-8.599597913624173"><ele>144.0</ele><time>2026-04-05T15:27:11Z</time></trkpt><trkpt lat="42.42325397930548" lon="-8.599769804321395"><ele>146.0</ele><time>2026-04-05T15:27:12Z</time></trkpt><trkpt lat="42.42311969983197" lon="-8.599939042212227"><ele>148.0</ele><time>2026-04-05T15:27:13Z</time></trkpt><trkpt lat="42.42297521054886" lon="-8.600104506799138"><ele>150.0</ele><time>2026-04-05T15:27:14Z</time></trkpt><trkpt lat="42.42283112165881" lon="-8.600254779468752"><ele>153.33333333333334</ele><time>2026-04-05T15:27:15Z</time></trkpt><trkpt lat="42.4226782491952" lon="-8.600387731341119"><ele>156.66666666666669</ele><time>2026-04-05T15:27:16Z</time></trkpt><trkpt lat="42.422528689306006" lon="-8.600489546695794"><ele>160.0</ele><time>2026-04-05T15:27:17Z</time></trkpt><trkpt lat="42.42239072136644" lon="-8.600561274366065"><ele>160.0</ele><time>2026-04-05T15:27:18Z</time></trkpt><trkpt lat="42.42224780477401" lon="-8.60061445161795"><ele>160.0</ele><time>2026-04-05T15:27:19Z</time></trkpt><trkpt lat="42.422104784409186" lon="-8.600659601000501"><ele>160.0</ele><time>2026-04-05T15:27:20Z</time></trkpt><trkpt lat="42.42195351651593" lon="-8.600689174664911"><ele>160.0</ele><time>2026-04-05T15:27:21Z</time></trkpt><trkpt lat="42.42179678737801" lon="-8.600735302034463"><ele>160.0</ele><time>2026-04-05T15:27:22Z</time></trkpt><trkpt lat="42.42163204501516" lon="-8.600749196662184"><ele>160.0</ele><time>2026-04-05T15:27:23Z</time></trkpt><trkpt lat="42.42147073068425" lon="-8.60078834901646"><ele>160.0</ele><time>2026-04-05T15:27:24Z</time></trkpt><trkpt lat="42.421311088341895" lon="-8.600831763138487"><ele>160.0</ele><time>2026-04-05T15:27:25Z</time></trkpt><trkpt lat="42.42116302610749" lon="-8.600879727835807"><ele>160.0</ele><time>2026-04-05T15:27:26Z</time></trkpt><trkpt lat="42.42101714416257" lon="-8.600911974494949"><ele>160.0</ele><time>2026-04-05T15:27:27Z</time></trkpt><trkpt lat="42.42088386097509" lon="-8.60094415397619"><ele>160.0</ele><time>2026-04-05T15:27:28Z</time></trkpt><trkpt lat="42.42076228162433" lon="-8.600983613552328"><ele>160.0</ele><time>2026-04-05T15:27:29Z</time></trkpt><trkpt lat="42.420664466199945" lon="-8.60102093623099"><ele>160.0</ele><time>2026-04-05T15:27:30Z</time></trkpt><trkpt lat="42.42058255578514" lon="-8.601064823393763"><ele>160.0</ele><time>2026-04-05T15:27:31Z</time></trkpt><trkpt lat="42.420523090912916" lon="-8.601107490655808"><ele>160.0</ele><time>2026-04-05T15:27:33Z</time></trkpt><trkpt lat="42.420464940664594" lon="-8.601174497621441"><ele>160.0</ele><time>2026-04-05T15:27:41Z</time></trkpt><trkpt lat="42.42039929181793" lon="-8.601227392964939"><ele>160.0</ele><time>2026-04-05T15:27:42Z</time></trkpt><trkpt lat="42.420324800949516" lon="-8.601231167375404"><ele>160.2</ele><time>2026-04-05T15:27:43Z</time></trkpt><trkpt lat="42.42024809399522" lon="-8.60119024817721"><ele>160.4</ele><time>2026-04-05T15:27:44Z</time></trkpt><trkpt lat="42.42016510175037" lon="-8.601164732289503"><ele>160.60000000000002</ele><time>2026-04-05T15:27:45Z</time></trkpt><trkpt lat="42.420079808641155" lon="-8.60116227906302"><ele>160.8</ele><time>2026-04-05T15:27:46Z</time></trkpt><trkpt lat="42.41997371278666" lon="-8.601245528533486"><ele>161.0</ele><time>2026-04-05T15:27:47Z</time></trkpt><trkpt lat="42.41985839190365" lon="-8.601308681640113"><ele>160.0</ele><time>2026-04-05T15:27:48Z</time></trkpt><trkpt lat="42.4197281646879" lon="-8.601367456285482"><ele>159.0</ele><time>2026-04-05T15:27:49Z</time></trkpt><trkpt lat="42.41958775793365" lon="-8.601429957237555"><ele>158.0</ele><time>2026-04-05T15:27:50Z</time></trkpt><trkpt lat="42.41944152419473" lon="-8.601507686614152"><ele>157.0</ele><time>2026-04-05T15:27:51Z</time></trkpt><trkpt lat="42.41929384226503" lon="-8.601587340173232"><ele>157.0</ele><time>2026-04-05T15:27:52Z</time></trkpt><trkpt lat="42.419135022303195" lon="-8.601671800968614"><ele>157.0</ele><time>2026-04-05T15:27:53Z</time></trkpt><trkpt lat="42.41896776009871" lon="-8.601767406794014"><ele>157.0</ele><time>2026-04-05T15:27:54Z</time></trkpt><trkpt lat="42.418804976529636" lon="-8.60187640561669"><ele>155.0</ele><time>2026-04-05T15:27:55Z</time></trkpt><trkpt lat="42.41863874309881" lon="-8.602011577275116"><ele>153.0</ele><time>2026-04-05T15:27:56Z</time></trkpt><trkpt lat="42.418475769411394" lon="-8.602169057966789"><ele>151.0</ele><time>2026-04-05T15:27:57Z</time></trkpt><trkpt lat="42.418320873131805" lon="-8.602352095377793"><ele>151.0</ele><time>2026-04-05T15:27:58Z</time></trkpt><trkpt lat="42.41817627927476" lon="-8.602562699876271"><ele>151.0</ele><time>2026-04-05T15:27:59Z</time></trkpt><trkpt lat="42.41802711302552" lon="-8.602761223654324"><ele>151.0</ele><time>2026-04-05T15:28:00Z</time></trkpt><trkpt lat="42.41788092355177" lon="-8.602938701769462"><ele>149.0</ele><time>2026-04-05T15:28:01Z</time></trkpt><trkpt lat="42.417723332595834" lon="-8.603095706780817"><ele>147.0</ele><time>2026-04-05T15:28:02Z</time></trkpt><trkpt lat="42.41755234518" lon="-8.603242890291202"><ele>145.0</ele><time>2026-04-05T15:28:03Z</time></trkpt><trkpt lat="42.417370898791134" lon="-8.6033763193393"><ele>145.0</ele><time>2026-04-05T15:28:04Z</time></trkpt><trkpt lat="42.417179714270716" lon="-8.603498687364564"><ele>145.0</ele><time>2026-04-05T15:28:05Z</time></trkpt><trkpt lat="42.416976606374824" lon="-8.603615243720327"><ele>145.0</ele><time>2026-04-05T15:28:06Z</time></trkpt><trkpt lat="42.416773040766905" lon="-8.603735094449128"><ele>143.0</ele><time>2026-04-05T15:28:07Z</time></trkpt><trkpt lat="42.41657525440173" lon="-8.60387217269862"><ele>141.0</ele><time>2026-04-05T15:28:08Z</time></trkpt><trkpt lat="42.41639569419199" lon="-8.604020393803077"><ele>139.0</ele><time>2026-04-05T15:28:09Z</time></trkpt><trkpt lat="42.41623315349356" lon="-8.604203678147199"><ele>139.0</ele><time>2026-04-05T15:28:10Z</time></trkpt><trkpt lat="42.416095040065414" lon="-8.60442928165024"><ele>139.0</ele><time>2026-04-05T15:28:11Z</time></trkpt><trkpt lat="42.41599543793137" lon="-8.604697834991141"><ele>139.0</ele><time>2026-04-05T15:28:12Z</time></trkpt><trkpt lat="42.41588825978949" lon="-8.604968544598592"><ele>138.5</ele><time>2026-04-05T15:28:13Z</time></trkpt><trkpt lat="42.41581021542288" lon="-8.605261464875834"><ele>138.0</ele><time>2026-04-05T15:28:14Z</time></trkpt><trkpt lat="42.415732610314855" lon="-8.605549706337868"><ele>136.5</ele><time>2026-04-05T15:28:15Z</time></trkpt><trkpt lat="42.41564774237857" lon="-8.605837733893429"><ele>135.0</ele><time>2026-04-05T15:28:16Z</time></trkpt><trkpt lat="42.4155611554024" lon="-8.606122545214115"><ele>137.5</ele><time>2026-04-05T15:28:17Z</time></trkpt><trkpt lat="42.41547337444487" lon="-8.606403737479551"><ele>140.0</ele><time>2026-04-05T15:28:18Z</time></trkpt><trkpt lat="42.415387476864815" lon="-8.606687768068165"><ele>140.0</ele><time>2026-04-05T15:28:19Z</time></trkpt><trkpt lat="42.4153019406714" lon="-8.606974220363265"><ele>140.0</ele><time>2026-04-05T15:28:20Z</time></trkpt><trkpt lat="42.415217262646756" lon="-8.607261876495135"><ele>138.66666666666666</ele><time>2026-04-05T15:28:21Z</time></trkpt><trkpt lat="42.41513289468917" lon="-8.607541162533416"><ele>137.33333333333334</ele><time>2026-04-05T15:28:22Z</time></trkpt><trkpt lat="42.415048203267204" lon="-8.60780668108677"><ele>136.0</ele><time>2026-04-05T15:28:23Z</time></trkpt><trkpt lat="42.41496795076496" lon="-8.608062200971425"><ele>135.0</ele><time>2026-04-05T15:28:24Z</time></trkpt><trkpt lat="42.41487792185098" lon="-8.608318982069486"><ele>134.0</ele><time>2026-04-05T15:28:25Z</time></trkpt><trkpt lat="42.41477693230502" lon="-8.60857960953201"><ele>133.0</ele><time>2026-04-05T15:28:26Z</time></trkpt><trkpt lat="42.414669170876536" lon="-8.608831118399461"><ele>133.5</ele><time>2026-04-05T15:28:27Z</time></trkpt><trkpt lat="42.41454147339934" lon="-8.60909312085898"><ele>134.0</ele><time>2026-04-05T15:28:28Z</time></trkpt><trkpt lat="42.414402054436245" lon="-8.609350923867694"><ele>127.5</ele><time>2026-04-05T15:28:29Z</time></trkpt><trkpt lat="42.414249611379496" lon="-8.60960507842069"><ele>121.0</ele><time>2026-04-05T15:28:30Z</time></trkpt><trkpt lat="42.41409416471167" lon="-8.609855719989527"><ele>121.0</ele><time>2026-04-05T15:28:31Z</time></trkpt><trkpt lat="42.41393520199193" lon="-8.61010784379473"><ele>121.0</ele><time>2026-04-05T15:28:32Z</time></trkpt><trkpt lat="42.41376897685544" lon="-8.610363766011051"><ele>122.0</ele><time>2026-04-05T15:28:33Z</time></trkpt><trkpt lat="42.41360557825173" lon="-8.610624739497345"><ele>123.0</ele><time>2026-04-05T15:28:34Z</time></trkpt><trkpt lat="42.41343936582885" lon="-8.610888633642038"><ele>123.0</ele><time>2026-04-05T15:28:35Z</time></trkpt><trkpt lat="42.41328091172623" lon="-8.611157386768259"><ele>123.0</ele><time>2026-04-05T15:28:36Z</time></trkpt><trkpt lat="42.41313567381936" lon="-8.611414764726588"><ele>121.33333333333334</ele><time>2026-04-05T15:28:37Z</time></trkpt><trkpt lat="42.413025099876286" lon="-8.611687610769918"><ele>119.66666666666667</ele><time>2026-04-05T15:28:38Z</time></trkpt><trkpt lat="42.41293255977034" lon="-8.61195544491727"><ele>118.0</ele><time>2026-04-05T15:28:39Z</time></trkpt><trkpt lat="42.412858494109706" lon="-8.612235829068874"><ele>118.0</ele><time>2026-04-05T15:28:40Z</time></trkpt><trkpt lat="42.412779650673784" lon="-8.612511271376452"><ele>118.0</ele><time>2026-04-05T15:28:41Z</time></trkpt><trkpt lat="42.41270510705348" lon="-8.612784899694311"><ele>118.0</ele><time>2026-04-05T15:28:42Z</time></trkpt><trkpt lat="42.41262496601205" lon="-8.613035642645077"><ele>113.66666666666667</ele><time>2026-04-05T15:28:43Z</time></trkpt><trkpt lat="42.412520817510334" lon="-8.613282693952916"><ele>109.33333333333334</ele><time>2026-04-05T15:28:44Z</time></trkpt><trkpt lat="42.412401688089155" lon="-8.613524244696185"><ele>105.0</ele><time>2026-04-05T15:28:45Z</time></trkpt><trkpt lat="42.41226516990106" lon="-8.613744755196652"><ele>104.0</ele><time>2026-04-05T15:28:46Z</time></trkpt><trkpt lat="42.412124733730636" lon="-8.613946077797026"><ele>103.0</ele><time>2026-04-05T15:28:47Z</time></trkpt><trkpt lat="42.411994002192216" lon="-8.614133199259552"><ele>102.0</ele><time>2026-04-05T15:28:48Z</time></trkpt><trkpt lat="42.41186739179821" lon="-8.614328945800823"><ele>100.66666666666666</ele><time>2026-04-05T15:28:49Z</time></trkpt><trkpt lat="42.41174925782955" lon="-8.614508743618902"><ele>99.33333333333333</ele><time>2026-04-05T15:28:50Z</time></trkpt><trkpt lat="42.411638182664376" lon="-8.61468886812669"><ele>98.0</ele><time>2026-04-05T15:28:51Z</time></trkpt><trkpt lat="42.411529097814864" lon="-8.614860731251587"><ele>98.0</ele><time>2026-04-05T15:28:52Z</time></trkpt><trkpt lat="42.411421097258085" lon="-8.61502526666896"><ele>98.0</ele><time>2026-04-05T15:28:53Z</time></trkpt><trkpt lat="42.41131727850937" lon="-8.615184884064782"><ele>98.0</ele><time>2026-04-05T15:28:54Z</time></trkpt><trkpt lat="42.41121388614605" lon="-8.615343534978388"><ele>96.33333333333333</ele><time>2026-04-05T15:28:55Z</time></trkpt><trkpt lat="42.411100075292644" lon="-8.615517323158025"><ele>94.66666666666666</ele><time>2026-04-05T15:28:56Z</time></trkpt><trkpt lat="42.41098314146722" lon="-8.61571460659987"><ele>93.0</ele><time>2026-04-05T15:28:57Z</time></trkpt><trkpt lat="42.410881421028336" lon="-8.615915925937843"><ele>93.0</ele><time>2026-04-05T15:28:58Z</time></trkpt><trkpt lat="42.41080326234333" lon="-8.61612689979977"><ele>93.0</ele><time>2026-04-05T15:28:59Z</time></trkpt><trkpt lat="42.41075408212871" lon="-8.616350705485685"><ele>93.0</ele><time>2026-04-05T15:29:00Z</time></trkpt><trkpt lat="42.410732205033995" lon="-8.616577671987145"><ele>91.66666666666667</ele><time>2026-04-05T15:29:01Z</time></trkpt><trkpt lat="42.41074055416605" lon="-8.616802359798093"><ele>90.33333333333334</ele><time>2026-04-05T15:29:02Z</time></trkpt><trkpt lat="42.41077425808745" lon="-8.617011912556656"><ele>89.0</ele><time>2026-04-05T15:29:03Z</time></trkpt><trkpt lat="42.410836859039904" lon="-8.617234892962841"><ele>92.66666666666667</ele><time>2026-04-05T15:29:04Z</time></trkpt><trkpt lat="42.410916778876796" lon="-8.617438222443587"><ele>96.33333333333334</ele><time>2026-04-05T15:29:05Z</time></trkpt><trkpt lat="42.41102386577942" lon="-8.617628681214997"><ele>100.0</ele><time>2026-04-05T15:29:06Z</time></trkpt><trkpt lat="42.411141915216405" lon="-8.61779962109506"><ele>103.33333333333334</ele><time>2026-04-05T15:29:07Z</time></trkpt><trkpt lat="42.411268177012325" lon="-8.617940032823503"><ele>106.66666666666666</ele><time>2026-04-05T15:29:08Z</time></trkpt><trkpt lat="42.41138596429424" lon="-8.618076068793684"><ele>110.0</ele><time>2026-04-05T15:29:09Z</time></trkpt><trkpt lat="42.41149226376682" lon="-8.618215737673284"><ele>102.66666666666666</ele><time>2026-04-05T15:29:10Z</time></trkpt><trkpt lat="42.411606772202234" lon="-8.618349258111442"><ele>95.33333333333333</ele><time>2026-04-05T15:29:11Z</time></trkpt><trkpt lat="42.411727156573264" lon="-8.618475064424931"><ele>88.0</ele><time>2026-04-05T15:29:12Z</time></trkpt><trkpt lat="42.4118588776663" lon="-8.618590964699553"><ele>90.33333333333333</ele><time>2026-04-05T15:29:13Z</time></trkpt><trkpt lat="42.41200044115988" lon="-8.618675425917353"><ele>92.66666666666667</ele><time>2026-04-05T15:29:14Z</time></trkpt><trkpt lat="42.412144026787445" lon="-8.618749842073987"><ele>95.0</ele><time>2026-04-05T15:29:15Z</time></trkpt><trkpt lat="42.412294471390574" lon="-8.618816694238783"><ele>89.66666666666667</ele><time>2026-04-05T15:29:16Z</time></trkpt><trkpt lat="42.412441388800865" lon="-8.61888598716772"><ele>84.33333333333333</ele><time>2026-04-05T15:29:17Z</time></trkpt><trkpt lat="42.41258729512463" lon="-8.618956854061262"><ele>79.0</ele><time>2026-04-05T15:29:18Z</time></trkpt><trkpt lat="42.41273062881322" lon="-8.6190404842089"><ele>79.0</ele><time>2026-04-05T15:29:19Z</time></trkpt><trkpt lat="42.412869800978534" lon="-8.619133789785925"><ele>79.0</ele><time>2026-04-05T15:29:20Z</time></trkpt><trkpt lat="42.41300680473053" lon="-8.619238928039898"><ele>79.0</ele><time>2026-04-05T15:29:21Z</time></trkpt><trkpt lat="42.41313227041191" lon="-8.61935172043508"><ele>77.0</ele><time>2026-04-05T15:29:22Z</time></trkpt><trkpt lat="42.41326095152878" lon="-8.619481756761244"><ele>75.0</ele><time>2026-04-05T15:29:23Z</time></trkpt><trkpt lat="42.41337846407805" lon="-8.619625532326163"><ele>73.0</ele><time>2026-04-05T15:29:24Z</time></trkpt><trkpt lat="42.41349077402128" lon="-8.619784127155464"><ele>73.0</ele><time>2026-04-05T15:29:25Z</time></trkpt><trkpt lat="42.41360570097552" lon="-8.619956524700683"><ele>73.0</ele><time>2026-04-05T15:29:26Z</time></trkpt><trkpt lat="42.41371326702107" lon="-8.62011953418753"><ele>73.0</ele><time>2026-04-05T15:29:27Z</time></trkpt><trkpt lat="42.41381465554186" lon="-8.620281050932247"><ele>70.0</ele><time>2026-04-05T15:29:28Z</time></trkpt><trkpt lat="42.41391733926861" lon="-8.620440463388718"><ele>67.0</ele><time>2026-04-05T15:29:29Z</time></trkpt><trkpt lat="42.414017970763645" lon="-8.620599383629491"><ele>64.0</ele><time>2026-04-05T15:29:30Z</time></trkpt><trkpt lat="42.41411540819635" lon="-8.620751029550744"><ele>64.0</ele><time>2026-04-05T15:29:31Z</time></trkpt><trkpt lat="42.41421414193334" lon="-8.620903910061976"><ele>64.0</ele><time>2026-04-05T15:29:32Z</time></trkpt><trkpt lat="42.41431086032465" lon="-8.621049502741547"><ele>64.0</ele><time>2026-04-05T15:29:33Z</time></trkpt><trkpt lat="42.41439482351441" lon="-8.621173921404981"><ele>64.0</ele><time>2026-04-05T15:29:34Z</time></trkpt><trkpt lat="42.41448206461552" lon="-8.621274129176136"><ele>65.4</ele><time>2026-04-05T15:29:35Z</time></trkpt><trkpt lat="42.41458031452112" lon="-8.621346491354062"><ele>66.80000000000001</ele><time>2026-04-05T15:29:36Z</time></trkpt><trkpt lat="42.41467712693923" lon="-8.621388112744384"><ele>68.19999999999999</ele><time>2026-04-05T15:29:37Z</time></trkpt><trkpt lat="42.41477853151739" lon="-8.621407944351724"><ele>69.6</ele><time>2026-04-05T15:29:38Z</time></trkpt><trkpt lat="42.414866506358166" lon="-8.62143441748158"><ele>71.0</ele><time>2026-04-05T15:29:39Z</time></trkpt><trkpt lat="42.41494132522181" lon="-8.621501100074942"><ele>69.2</ele><time>2026-04-05T15:29:40Z</time></trkpt><trkpt lat="42.415009430315834" lon="-8.621614933061098"><ele>67.39999999999999</ele><time>2026-04-05T15:29:41Z</time></trkpt><trkpt lat="42.415057038275954" lon="-8.621746307510271"><ele>65.6</ele><time>2026-04-05T15:29:42Z</time></trkpt><trkpt lat="42.41510643734499" lon="-8.621872576509112"><ele>63.8</ele><time>2026-04-05T15:29:43Z</time></trkpt><trkpt lat="42.415181608654805" lon="-8.621981086377621"><ele>62.0</ele><time>2026-04-05T15:29:44Z</time></trkpt><trkpt lat="42.4152874382138" lon="-8.62206943079822"><ele>62.0</ele><time>2026-04-05T15:29:45Z</time></trkpt><trkpt lat="42.41540915716891" lon="-8.622166892760838"><ele>62.0</ele><time>2026-04-05T15:29:46Z</time></trkpt><trkpt lat="42.415546226827956" lon="-8.622267281373865"><ele>62.0</ele><time>2026-04-05T15:29:47Z</time></trkpt><trkpt lat="42.415693695120446" lon="-8.622377535712856"><ele>57.333333333333336</ele><time>2026-04-05T15:29:48Z</time></trkpt><trkpt lat="42.41585093473523" lon="-8.622492307739405"><ele>52.66666666666667</ele><time>2026-04-05T15:29:49Z</time></trkpt><trkpt lat="42.41601608654919" lon="-8.622605167704311"><ele>48.0</ele><time>2026-04-05T15:29:50Z</time></trkpt><trkpt lat="42.41618598517314" lon="-8.622735339727283"><ele>47.333333333333336</ele><time>2026-04-05T15:29:51Z</time></trkpt><trkpt lat="42.41634582056385" lon="-8.622864331083692"><ele>46.66666666666667</ele><time>2026-04-05T15:29:52Z</time></trkpt><trkpt lat="42.4165006345461" lon="-8.622966812121588"><ele>46.0</ele><time>2026-04-05T15:29:53Z</time></trkpt><trkpt lat="42.41664597604575" lon="-8.62308058227203"><ele>46.0</ele><time>2026-04-05T15:29:54Z</time></trkpt><trkpt lat="42.41678140136229" lon="-8.623202060799064"><ele>46.0</ele><time>2026-04-05T15:29:55Z</time></trkpt><trkpt lat="42.41690103674558" lon="-8.623341110063347"><ele>46.0</ele><time>2026-04-05T15:29:56Z</time></trkpt><trkpt lat="42.4169970317492" lon="-8.623503592314695"><ele>43.333333333333336</ele><time>2026-04-05T15:29:57Z</time></trkpt><trkpt lat="42.41707378703479" lon="-8.623693516797085"><ele>40.666666666666664</ele><time>2026-04-05T15:29:58Z</time></trkpt><trkpt lat="42.41714279482592" lon="-8.623890400050886"><ele>38.0</ele><time>2026-04-05T15:29:59Z</time></trkpt><trkpt lat="42.417209743883795" lon="-8.624088641587653"><ele>38.0</ele><time>2026-04-05T15:30:00Z</time></trkpt><trkpt lat="42.417279598819064" lon="-8.624287186618993"><ele>38.0</ele><time>2026-04-05T15:30:01Z</time></trkpt><trkpt lat="42.41736588258401" lon="-8.624475286683916"><ele>38.0</ele><time>2026-04-05T15:30:02Z</time></trkpt><trkpt lat="42.4174662930915" lon="-8.624640750973711"><ele>38.666666666666664</ele><time>2026-04-05T15:30:03Z</time></trkpt><trkpt lat="42.41758145142381" lon="-8.624794965334203"><ele>39.333333333333336</ele><time>2026-04-05T15:30:04Z</time></trkpt><trkpt lat="42.41769541308529" lon="-8.624938422279357"><ele>40.0</ele><time>2026-04-05T15:30:05Z</time></trkpt><trkpt lat="42.4178058667898" lon="-8.625079814122284"><ele>40.0</ele><time>2026-04-05T15:30:06Z</time></trkpt><trkpt lat="42.41790495292249" lon="-8.625218187237973"><ele>40.0</ele><time>2026-04-05T15:30:07Z</time></trkpt><trkpt lat="42.417991257019025" lon="-8.625361091330387"><ele>40.0</ele><time>2026-04-05T15:30:08Z</time></trkpt><trkpt lat="42.41806161797864" lon="-8.625515787425917"><ele>40.0</ele><time>2026-04-05T15:30:09Z</time></trkpt><trkpt lat="42.41812041858509" lon="-8.625676613648636"><ele>38.75</ele><time>2026-04-05T15:30:10Z</time></trkpt><trkpt lat="42.418183624008144" lon="-8.625840763866016"><ele>37.5</ele><time>2026-04-05T15:30:11Z</time></trkpt><trkpt lat="42.41825099590922" lon="-8.625976006656751"><ele>36.25</ele><time>2026-04-05T15:30:12Z</time></trkpt><trkpt lat="42.418328674086226" lon="-8.626086107238486"><ele>35.0</ele><time>2026-04-05T15:30:13Z</time></trkpt><trkpt lat="42.41838764165036" lon="-8.626187584774094"><ele>34.25</ele><time>2026-04-05T15:30:14Z</time></trkpt><trkpt lat="42.41839773968561" lon="-8.626306983112242"><ele>33.5</ele><time>2026-04-05T15:30:15Z</time></trkpt><trkpt lat="42.41836480741527" lon="-8.626444776402634"><ele>32.75</ele><time>2026-04-05T15:30:16Z</time></trkpt><trkpt lat="42.418301879823524" lon="-8.626589385099162"><ele>32.0</ele><time>2026-04-05T15:30:17Z</time></trkpt><trkpt lat="42.418233908049764" lon="-8.626749565226943"><ele>32.0</ele><time>2026-04-05T15:30:18Z</time></trkpt><trkpt lat="42.41819146452209" lon="-8.626943367694441"><ele>32.0</ele><time>2026-04-05T15:30:19Z</time></trkpt><trkpt lat="42.418176588352885" lon="-8.627160643303412"><ele>32.0</ele><time>2026-04-05T15:30:20Z</time></trkpt><trkpt lat="42.41816457644247" lon="-8.627391179554294"><ele>32.0</ele><time>2026-04-05T15:30:21Z</time></trkpt><trkpt lat="42.4181461948586" lon="-8.627624340389861"><ele>32.0</ele><time>2026-04-05T15:30:22Z</time></trkpt><trkpt lat="42.418130119297295" lon="-8.627864662199253"><ele>32.0</ele><time>2026-04-05T15:30:23Z</time></trkpt><trkpt lat="42.418109866048056" lon="-8.628106125300944"><ele>32.0</ele><time>2026-04-05T15:30:24Z</time></trkpt><trkpt lat="42.41808956044524" lon="-8.628357239020081"><ele>32.0</ele><time>2026-04-05T15:30:25Z</time></trkpt><trkpt lat="42.41806719862854" lon="-8.628600863151917"><ele>32.0</ele><time>2026-04-05T15:30:26Z</time></trkpt><trkpt lat="42.41803837651097" lon="-8.628821993415379"><ele>31.666666666666664</ele><time>2026-04-05T15:30:27Z</time></trkpt><trkpt lat="42.4179938332296" lon="-8.629047120289366"><ele>31.333333333333336</ele><time>2026-04-05T15:30:28Z</time></trkpt><trkpt lat="42.41792351546708" lon="-8.629266991888187"><ele>31.0</ele><time>2026-04-05T15:30:29Z</time></trkpt><trkpt lat="42.4178312725" lon="-8.629464437867307"><ele>31.333333333333336</ele><time>2026-04-05T15:30:30Z</time></trkpt><trkpt lat="42.41771564047016" lon="-8.629641085049334"><ele>31.666666666666664</ele><time>2026-04-05T15:30:31Z</time></trkpt><trkpt lat="42.417583571974276" lon="-8.629798749349261"><ele>32.0</ele><time>2026-04-05T15:30:32Z</time></trkpt><trkpt lat="42.41745315874944" lon="-8.629950495088604"><ele>32.0</ele><time>2026-04-05T15:30:33Z</time></trkpt><trkpt lat="42.4173381982847" lon="-8.630094975570062"><ele>32.0</ele><time>2026-04-05T15:30:34Z</time></trkpt><trkpt lat="42.41724252879862" lon="-8.630241047811188"><ele>32.0</ele><time>2026-04-05T15:30:35Z</time></trkpt><trkpt lat="42.417161423423444" lon="-8.630398616395704"><ele>32.0</ele><time>2026-04-05T15:30:36Z</time></trkpt><trkpt lat="42.417097768692756" lon="-8.630564777327326"><ele>31.25</ele><time>2026-04-05T15:30:37Z</time></trkpt><trkpt lat="42.41705334249745" lon="-8.63074684912687"><ele>30.5</ele><time>2026-04-05T15:30:38Z</time></trkpt><trkpt lat="42.417023338935735" lon="-8.630937854828794"><ele>29.75</ele><time>2026-04-05T15:30:39Z</time></trkpt><trkpt lat="42.41700386471319" lon="-8.631127259843488"><ele>29.0</ele><time>2026-04-05T15:30:40Z</time></trkpt><trkpt lat="42.41698959293011" lon="-8.631315863785135"><ele>28.25</ele><time>2026-04-05T15:30:41Z</time></trkpt><trkpt lat="42.416973382168344" lon="-8.631496047793485"><ele>27.5</ele><time>2026-04-05T15:30:42Z</time></trkpt><trkpt lat="42.41695866703502" lon="-8.631672884390817"><ele>26.75</ele><time>2026-04-05T15:30:43Z</time></trkpt><trkpt lat="42.416946887768916" lon="-8.631845821846614"><ele>26.0</ele><time>2026-04-05T15:30:44Z</time></trkpt><trkpt lat="42.41693579625219" lon="-8.63201877965426"><ele>25.4</ele><time>2026-04-05T15:30:45Z</time></trkpt><trkpt lat="42.41692244743494" lon="-8.63218558849568"><ele>24.8</ele><time>2026-04-05T15:30:46Z</time></trkpt><trkpt lat="42.4169122529075" lon="-8.6323397355534"><ele>24.2</ele><time>2026-04-05T15:30:47Z</time></trkpt><trkpt lat="42.41690283648641" lon="-8.632482826032577"><ele>23.599999999999998</ele><time>2026-04-05T15:30:48Z</time></trkpt><trkpt lat="42.41689367147744" lon="-8.63261483221485"><ele>23.0</ele><time>2026-04-05T15:30:49Z</time></trkpt><trkpt lat="42.416886525818555" lon="-8.632726915613391"><ele>22.333333333333336</ele><time>2026-04-05T15:30:50Z</time></trkpt><trkpt lat="42.4168722049779" lon="-8.632875394439038"><ele>21.666666666666668</ele><time>2026-04-05T15:30:52Z</time></trkpt><trkpt lat="42.41685770759335" lon="-8.632983482080586"><ele>21.0</ele><time>2026-04-05T15:30:54Z</time></trkpt><trkpt lat="42.41684886208186" lon="-8.633086058108557"><ele>20.333333333333332</ele><time>2026-04-05T15:30:56Z</time></trkpt><trkpt lat="42.41684281027146" lon="-8.63318707994371"><ele>19.666666666666664</ele><time>2026-04-05T15:30:59Z</time></trkpt><trkpt lat="42.416830786360784" lon="-8.63330499194524"><ele>19.0</ele><time>2026-04-05T15:31:02Z</time></trkpt><trkpt lat="42.41683337383464" lon="-8.63339861805288"><ele>19.0</ele><time>2026-04-05T15:31:04Z</time></trkpt><trkpt lat="42.41681832703364" lon="-8.633509003592478"><ele>19.0</ele><time>2026-04-05T15:31:06Z</time></trkpt><trkpt lat="42.41680184076774" lon="-8.633710240263055"><ele>19.0</ele><time>2026-04-05T15:31:08Z</time></trkpt><trkpt lat="42.416800684132" lon="-8.633842615441454"><ele>19.0</ele><time>2026-04-05T15:31:09Z</time></trkpt><trkpt lat="42.41679312294664" lon="-8.633975953428193"><ele>19.0</ele><time>2026-04-05T15:31:10Z</time></trkpt><trkpt lat="42.41677677096877" lon="-8.634102862346715"><ele>19.0</ele><time>2026-04-05T15:31:11Z</time></trkpt><trkpt lat="42.41675504729531" lon="-8.634231708097117"><ele>19.0</ele><time>2026-04-05T15:31:12Z</time></trkpt><trkpt lat="42.416738166480215" lon="-8.63436172555367"><ele>19.0</ele><time>2026-04-05T15:31:13Z</time></trkpt><trkpt lat="42.41672683495217" lon="-8.634495227243958"><ele>19.0</ele><time>2026-04-05T15:31:14Z</time></trkpt><trkpt lat="42.41671901677324" lon="-8.634630227721827"><ele>19.0</ele><time>2026-04-05T15:31:15Z</time></trkpt><trkpt lat="42.4167045855095" lon="-8.63476047924734"><ele>19.2</ele><time>2026-04-05T15:31:16Z</time></trkpt><trkpt lat="42.41668751637116" lon="-8.63489968151875"><ele>19.4</ele><time>2026-04-05T15:31:17Z</time></trkpt><trkpt lat="42.41667222110262" lon="-8.635044974200465"><ele>19.6</ele><time>2026-04-05T15:31:18Z</time></trkpt><trkpt lat="42.4166576839474" lon="-8.635187368150534"><ele>19.8</ele><time>2026-04-05T15:31:19Z</time></trkpt><trkpt lat="42.416646758271014" lon="-8.635334595034307"><ele>20.0</ele><time>2026-04-05T15:31:20Z</time></trkpt><trkpt lat="42.416636248660126" lon="-8.635495679601148"><ele>20.0</ele><time>2026-04-05T15:31:21Z</time></trkpt><trkpt lat="42.41662558546446" lon="-8.635667485483964"><ele>20.0</ele><time>2026-04-05T15:31:22Z</time></trkpt><trkpt lat="42.416615908238285" lon="-8.635840840863292"><ele>20.0</ele><time>2026-04-05T15:31:23Z</time></trkpt><trkpt lat="42.41660637236775" lon="-8.636012124636167"><ele>20.0</ele><time>2026-04-05T15:31:24Z</time></trkpt><trkpt lat="42.4166031813457" lon="-8.636198321638059"><ele>21.0</ele><time>2026-04-05T15:31:25Z</time></trkpt><trkpt lat="42.41659984965488" lon="-8.636379524373195"><ele>22.0</ele><time>2026-04-05T15:31:26Z</time></trkpt><trkpt lat="42.41659762269741" lon="-8.636551606691958"><ele>23.0</ele><time>2026-04-05T15:31:27Z</time></trkpt><trkpt lat="42.416601656391045" lon="-8.6367272547265"><ele>24.0</ele><time>2026-04-05T15:31:28Z</time></trkpt><trkpt lat="42.41657097636613" lon="-8.636908787771635"><ele>25.25</ele><time>2026-04-05T15:31:29Z</time></trkpt><trkpt lat="42.4166508818758" lon="-8.637059755002783"><ele>26.5</ele><time>2026-04-05T15:31:30Z</time></trkpt><trkpt lat="42.41671269076091" lon="-8.637181646018142"><ele>27.75</ele><time>2026-04-05T15:31:31Z</time></trkpt><trkpt lat="42.41681549111024" lon="-8.637260826445432"><ele>29.0</ele><time>2026-04-05T15:31:32Z</time></trkpt><trkpt lat="42.41691507933779" lon="-8.637325699599051"><ele>29.0</ele><time>2026-04-05T15:31:33Z</time></trkpt><trkpt lat="42.417025764629315" lon="-8.637363433198121"><ele>29.0</ele><time>2026-04-05T15:31:34Z</time></trkpt><trkpt lat="42.4171442348917" lon="-8.637389959530694"><ele>29.0</ele><time>2026-04-05T15:31:35Z</time></trkpt><trkpt lat="42.41725257788675" lon="-8.637407082463362"><ele>29.0</ele><time>2026-04-05T15:31:36Z</time></trkpt><trkpt lat="42.41736060778255" lon="-8.637428212517186"><ele>28.6</ele><time>2026-04-05T15:31:37Z</time></trkpt><trkpt lat="42.41746276713188" lon="-8.637477975356157"><ele>28.2</ele><time>2026-04-05T15:31:38Z</time></trkpt><trkpt lat="42.41754717146361" lon="-8.637559234211267"><ele>27.800000000000004</ele><time>2026-04-05T15:31:39Z</time></trkpt><trkpt lat="42.417615575624104" lon="-8.637647216189983"><ele>27.400000000000002</ele><time>2026-04-05T15:31:40Z</time></trkpt><trkpt lat="42.41767519247525" lon="-8.637729859165642"><ele>27.0</ele><time>2026-04-05T15:31:41Z</time></trkpt><trkpt lat="42.41773911424051" lon="-8.637830031072992"><ele>27.0</ele><time>2026-04-05T15:31:43Z</time></trkpt><trkpt lat="42.4177950202338" lon="-8.637876473779597"><ele>27.000000000000004</ele><time>2026-04-05T15:31:45Z</time></trkpt><trkpt lat="42.41787240342018" lon="-8.63793317824548"><ele>27.000000000000004</ele><time>2026-04-05T15:31:53Z</time></trkpt><trkpt lat="42.418004007255945" lon="-8.637947728649117"><ele>27.0</ele><time>2026-04-05T15:31:55Z</time></trkpt><trkpt lat="42.41814041256341" lon="-8.637959329313933"><ele>27.0</ele><time>2026-04-05T15:31:57Z</time></trkpt><trkpt lat="42.41822993794739" lon="-8.637968373996383"><ele>26.5</ele><time>2026-04-05T15:31:58Z</time></trkpt><trkpt lat="42.418334642797745" lon="-8.637986426885469"><ele>26.0</ele><time>2026-04-05T15:31:59Z</time></trkpt><trkpt lat="42.41845742032362" lon="-8.638009625791902"><ele>25.5</ele><time>2026-04-05T15:32:00Z</time></trkpt><trkpt lat="42.41859247410283" lon="-8.638032178867261"><ele>25.0</ele><time>2026-04-05T15:32:01Z</time></trkpt><trkpt lat="42.41872058098657" lon="-8.638054329660909"><ele>23.75</ele><time>2026-04-05T15:32:02Z</time></trkpt><trkpt lat="42.418852018609854" lon="-8.638070016397176"><ele>22.5</ele><time>2026-04-05T15:32:03Z</time></trkpt><trkpt lat="42.41897937419364" lon="-8.63808262659644"><ele>21.25</ele><time>2026-04-05T15:32:04Z</time></trkpt><trkpt lat="42.41910129778615" lon="-8.638099950819115"><ele>20.0</ele><time>2026-04-05T15:32:05Z</time></trkpt><trkpt lat="42.41921686839383" lon="-8.638119176782448"><ele>20.0</ele><time>2026-04-05T15:32:06Z</time></trkpt><trkpt lat="42.419325014990136" lon="-8.63813418804821"><ele>20.0</ele><time>2026-04-05T15:32:07Z</time></trkpt><trkpt lat="42.41943963037549" lon="-8.638152303748596"><ele>20.0</ele><time>2026-04-05T15:32:08Z</time></trkpt><trkpt lat="42.419539145014674" lon="-8.638163989534307"><ele>20.0</ele><time>2026-04-05T15:32:09Z</time></trkpt><trkpt lat="42.41962962961721" lon="-8.638176878776767"><ele>20.0</ele><time>2026-04-05T15:32:10Z</time></trkpt><trkpt lat="42.41971598285205" lon="-8.638188133073"><ele>19.666666666666668</ele><time>2026-04-05T15:32:11Z</time></trkpt><trkpt lat="42.41984101289824" lon="-8.63821330672762"><ele>19.333333333333336</ele><time>2026-04-05T15:32:13Z</time></trkpt><trkpt lat="42.41991184643819" lon="-8.638225181781074"><ele>19.0</ele><time>2026-04-05T15:32:14Z</time></trkpt><trkpt lat="42.419976407320256" lon="-8.638236748058763"><ele>18.666666666666668</ele><time>2026-04-05T15:32:15Z</time></trkpt><trkpt lat="42.420090381828395" lon="-8.638252401080042"><ele>18.333333333333332</ele><time>2026-04-05T15:32:17Z</time></trkpt><trkpt lat="42.42015333281656" lon="-8.63826046306339"><ele>18.0</ele><time>2026-04-05T15:32:18Z</time></trkpt><trkpt lat="42.42022391326712" lon="-8.638269716881883"><ele>18.0</ele><time>2026-04-05T15:32:19Z</time></trkpt><trkpt lat="42.420302464276915" lon="-8.638281815138768"><ele>18.0</ele><time>2026-04-05T15:32:20Z</time></trkpt><trkpt lat="42.42037425290584" lon="-8.638291247978511"><ele>18.0</ele><time>2026-04-05T15:32:21Z</time></trkpt><trkpt lat="42.420446235431385" lon="-8.638303031316063"><ele>18.0</ele><time>2026-04-05T15:32:22Z</time></trkpt><trkpt lat="42.42053039245228" lon="-8.638313297332637"><ele>18.0</ele><time>2026-04-05T15:32:23Z</time></trkpt><trkpt lat="42.42060870000283" lon="-8.638329001003703"><ele>18.0</ele><time>2026-04-05T15:32:24Z</time></trkpt><trkpt lat="42.42068475792094" lon="-8.638342840052914"><ele>18.4</ele><time>2026-04-05T15:32:25Z</time></trkpt><trkpt lat="42.42075612022658" lon="-8.638352954140684"><ele>18.8</ele><time>2026-04-05T15:32:26Z</time></trkpt><trkpt lat="42.420824588265184" lon="-8.638363238237229"><ele>19.2</ele><time>2026-04-05T15:32:27Z</time></trkpt><trkpt lat="42.42088862650439" lon="-8.63837133141006"><ele>19.6</ele><time>2026-04-05T15:32:28Z</time></trkpt><trkpt lat="42.42099962913619" lon="-8.638387932649668"><ele>20.0</ele><time>2026-04-05T15:32:30Z</time></trkpt><trkpt lat="42.421138436650246" lon="-8.638407097407477"><ele>20.0</ele><time>2026-04-05T15:32:32Z</time></trkpt><trkpt lat="42.421251319603" lon="-8.638429480588501"><ele>20.0</ele><time>2026-04-05T15:32:34Z</time></trkpt><trkpt lat="42.42134427451662" lon="-8.638440025178852"><ele>20.0</ele><time>2026-04-05T15:32:36Z</time></trkpt><trkpt lat="42.42144223015896" lon="-8.638446763029258"><ele>20.0</ele><time>2026-04-05T15:32:38Z</time></trkpt><trkpt lat="42.42153499975963" lon="-8.638448269749913"><ele>20.0</ele><time>2026-04-05T15:32:40Z</time></trkpt><trkpt lat="42.42163316909656" lon="-8.638433145228221"><ele>20.166666666666668</ele><time>2026-04-05T15:32:42Z</time></trkpt><trkpt lat="42.42172092200001" lon="-8.638343895894923"><ele>20.333333333333336</ele><time>2026-04-05T15:32:44Z</time></trkpt><trkpt lat="42.42178714464509" lon="-8.638199498911025"><ele>20.5</ele><time>2026-04-05T15:32:46Z</time></trkpt><trkpt lat="42.4218485994449" lon="-8.638162253967428"><ele>20.666666666666668</ele><time>2026-04-05T15:32:47Z</time></trkpt><trkpt lat="42.4219157761799" lon="-8.638157477116884"><ele>20.833333333333332</ele><time>2026-04-05T15:32:48Z</time></trkpt><trkpt lat="42.42198241873526" lon="-8.638209885229347"><ele>21.0</ele><time>2026-04-05T15:32:49Z</time></trkpt><trkpt lat="42.422033345139745" lon="-8.638292836785933"><ele>21.0</ele><time>2026-04-05T15:32:50Z</time></trkpt><trkpt lat="42.42207462026763" lon="-8.638393167538265"><ele>21.0</ele><time>2026-04-05T15:32:51Z</time></trkpt><trkpt lat="42.4220967003216" lon="-8.63848235385476"><ele>21.0</ele><time>2026-04-05T15:32:52Z</time></trkpt><trkpt lat="42.42221879451941" lon="-8.638560425071725"><ele>21.0</ele><time>2026-04-05T15:32:59Z</time></trkpt><trkpt lat="42.42228613491316" lon="-8.638601183659208"><ele>21.0</ele><time>2026-04-05T15:33:00Z</time></trkpt><trkpt lat="42.422377584026606" lon="-8.638649838516026"><ele>21.75</ele><time>2026-04-05T15:33:01Z</time></trkpt><trkpt lat="42.422479953205475" lon="-8.638697504730771"><ele>22.5</ele><time>2026-04-05T15:33:02Z</time></trkpt><trkpt lat="42.42259232531336" lon="-8.638743132014952"><ele>23.25</ele><time>2026-04-05T15:33:03Z</time></trkpt><trkpt lat="42.42270290306465" lon="-8.638791871421237"><ele>24.0</ele><time>2026-04-05T15:33:04Z</time></trkpt><trkpt lat="42.422812422063686" lon="-8.638837861753535"><ele>24.0</ele><time>2026-04-05T15:33:05Z</time></trkpt><trkpt lat="42.42294010903097" lon="-8.638892287883753"><ele>24.0</ele><time>2026-04-05T15:33:06Z</time></trkpt><trkpt lat="42.42306712737265" lon="-8.638948301161784"><ele>24.0</ele><time>2026-04-05T15:33:07Z</time></trkpt><trkpt lat="42.423183626442395" lon="-8.638996938960265"><ele>24.0</ele><time>2026-04-05T15:33:08Z</time></trkpt><trkpt lat="42.42329364608728" lon="-8.63904010762252"><ele>24.0</ele><time>2026-04-05T15:33:09Z</time></trkpt><trkpt lat="42.42337708969979" lon="-8.639082141277422"><ele>24.0</ele><time>2026-04-05T15:33:10Z</time></trkpt><trkpt lat="42.423459069755545" lon="-8.639122190952522"><ele>24.0</ele><time>2026-04-05T15:33:11Z</time></trkpt><trkpt lat="42.42360685541516" lon="-8.639181439229702"><ele>24.0</ele><time>2026-04-05T15:33:13Z</time></trkpt><trkpt lat="42.42371042376324" lon="-8.639221936732135"><ele>24.0</ele><time>2026-04-05T15:33:14Z</time></trkpt><trkpt lat="42.42382183707246" lon="-8.639268749828029"><ele>24.0</ele><time>2026-04-05T15:33:15Z</time></trkpt><trkpt lat="42.42393820242421" lon="-8.63932693631008"><ele>24.0</ele><time>2026-04-05T15:33:16Z</time></trkpt><trkpt lat="42.42403452850065" lon="-8.639358221636039"><ele>24.0</ele><time>2026-04-05T15:33:17Z</time></trkpt><trkpt lat="42.42412909797167" lon="-8.639405962163007"><ele>24.0</ele><time>2026-04-05T15:33:18Z</time></trkpt><trkpt lat="42.424194094791154" lon="-8.639476055424712"><ele>24.0</ele><time>2026-04-05T15:33:19Z</time></trkpt><trkpt lat="42.424228992621686" lon="-8.639575975111889"><ele>24.2</ele><time>2026-04-05T15:33:20Z</time></trkpt><trkpt lat="42.424237363727954" lon="-8.639688226487383"><ele>24.4</ele><time>2026-04-05T15:33:21Z</time></trkpt><trkpt lat="42.42423027390831" lon="-8.639817750847474"><ele>24.6</ele><time>2026-04-05T15:33:22Z</time></trkpt><trkpt lat="42.42423952870513" lon="-8.639939862666495"><ele>24.8</ele><time>2026-04-05T15:33:23Z</time></trkpt><trkpt lat="42.424266108169" lon="-8.640057683303654"><ele>25.0</ele><time>2026-04-05T15:33:24Z</time></trkpt><trkpt lat="42.42431090846315" lon="-8.640204142560044"><ele>24.75</ele><time>2026-04-05T15:33:25Z</time></trkpt><trkpt lat="42.42435734255741" lon="-8.640366684140346"><ele>24.5</ele><time>2026-04-05T15:33:26Z</time></trkpt><trkpt lat="42.42439759547523" lon="-8.640542098424907"><ele>24.25</ele><time>2026-04-05T15:33:27Z</time></trkpt><trkpt lat="42.42444697578941" lon="-8.640711151807638"><ele>24.0</ele><time>2026-04-05T15:33:28Z</time></trkpt><trkpt lat="42.424491920185524" lon="-8.640863175109358"><ele>24.0</ele><time>2026-04-05T15:33:29Z</time></trkpt><trkpt lat="42.42453374965038" lon="-8.641006473313722"><ele>24.0</ele><time>2026-04-05T15:33:30Z</time></trkpt><trkpt lat="42.424565922172235" lon="-8.641142640943047"><ele>24.0</ele><time>2026-04-05T15:33:31Z</time></trkpt><trkpt lat="42.42460368808335" lon="-8.64128071120555"><ele>24.0</ele><time>2026-04-05T15:33:32Z</time></trkpt><trkpt lat="42.42465406205955" lon="-8.64141108823416"><ele>24.0</ele><time>2026-04-05T15:33:33Z</time></trkpt><trkpt lat="42.42469289089575" lon="-8.641568614095426"><ele>23.0</ele><time>2026-04-05T15:33:34Z</time></trkpt><trkpt lat="42.4247369062647" lon="-8.641728304837383"><ele>22.0</ele><time>2026-04-05T15:33:35Z</time></trkpt><trkpt lat="42.42477826089639" lon="-8.64186022695659"><ele>21.0</ele><time>2026-04-05T15:33:36Z</time></trkpt><trkpt lat="42.42482135174895" lon="-8.641974686613386"><ele>20.0</ele><time>2026-04-05T15:33:37Z</time></trkpt><trkpt lat="42.42485785624406" lon="-8.642108989749365"><ele>19.0</ele><time>2026-04-05T15:33:39Z</time></trkpt><trkpt lat="42.424899908169934" lon="-8.642224302034691"><ele>19.0</ele><time>2026-04-05T15:34:08Z</time></trkpt><trkpt lat="42.42492380427773" lon="-8.642310370403827"><ele>19.0</ele><time>2026-04-05T15:34:10Z</time></trkpt><trkpt lat="42.42495528680275" lon="-8.642430771736539"><ele>19.0</ele><time>2026-04-05T15:34:12Z</time></trkpt><trkpt lat="42.42499601252524" lon="-8.642579339445705"><ele>19.0</ele><time>2026-04-05T15:34:14Z</time></trkpt><trkpt lat="42.425038525955" lon="-8.642728258702457"><ele>19.0</ele><time>2026-04-05T15:34:16Z</time></trkpt><trkpt lat="42.42507729971458" lon="-8.642877514584558"><ele>19.2</ele><time>2026-04-05T15:34:18Z</time></trkpt><trkpt lat="42.4251112117561" lon="-8.642985621097829"><ele>19.4</ele><time>2026-04-05T15:34:20Z</time></trkpt><trkpt lat="42.42513976323178" lon="-8.643126722846327"><ele>19.6</ele><time>2026-04-05T15:34:22Z</time></trkpt><trkpt lat="42.42517416865146" lon="-8.64326863011265"><ele>19.8</ele><time>2026-04-05T15:34:24.001Z</time></trkpt><trkpt lat="42.42521343286562" lon="-8.643402957828465"><ele>20.0</ele><time>2026-04-05T15:34:26Z</time></trkpt><trkpt lat="42.42524636505072" lon="-8.64352041680362"><ele>20.0</ele><time>2026-04-05T15:34:28Z</time></trkpt><trkpt lat="42.42527304372445" lon="-8.643601403642919"><ele>20.0</ele><time>2026-04-05T15:34:29Z</time></trkpt><trkpt lat="42.42530393330279" lon="-8.643676679456966"><ele>20.0</ele><time>2026-04-05T15:34:30Z</time></trkpt><trkpt lat="42.425364998549796" lon="-8.643790434291528"><ele>20.0</ele><time>2026-04-05T15:34:32Z</time></trkpt><trkpt lat="42.4254470124314" lon="-8.643850961723539"><ele>20.0</ele><time>2026-04-05T15:34:34Z</time></trkpt><trkpt lat="42.42554452669834" lon="-8.643904646454528"><ele>20.0</ele><time>2026-04-05T15:34:36Z</time></trkpt><trkpt lat="42.42559337541458" lon="-8.643960167611727"><ele>19.833333333333336</ele><time>2026-04-05T15:34:37Z</time></trkpt><trkpt lat="42.42561796750174" lon="-8.644049395583886"><ele>19.666666666666668</ele><time>2026-04-05T15:34:38Z</time></trkpt><trkpt lat="42.425626961229696" lon="-8.644161245243417"><ele>19.5</ele><time>2026-04-05T15:34:39Z</time></trkpt><trkpt lat="42.42559502937879" lon="-8.64426298368506"><ele>19.333333333333332</ele><time>2026-04-05T15:34:40Z</time></trkpt><trkpt lat="42.425537849294024" lon="-8.64436391257751"><ele>19.166666666666664</ele><time>2026-04-05T15:34:41Z</time></trkpt><trkpt lat="42.42553138591006" lon="-8.644471092361886"><ele>19.0</ele><time>2026-04-05T15:34:42Z</time></trkpt><trkpt lat="42.42555258818561" lon="-8.644579820068685"><ele>19.0</ele><time>2026-04-05T15:34:43Z</time></trkpt><trkpt lat="42.425599752080785" lon="-8.64471501370788"><ele>19.0</ele><time>2026-04-05T15:34:44Z</time></trkpt><trkpt lat="42.425655119848926" lon="-8.644861954473436"><ele>19.0</ele><time>2026-04-05T15:34:45Z</time></trkpt><trkpt lat="42.425693830973856" lon="-8.645034562459127"><ele>19.0</ele><time>2026-04-05T15:34:46Z</time></trkpt><trkpt lat="42.425732637482426" lon="-8.645214684478843"><ele>19.0</ele><time>2026-04-05T15:34:47Z</time></trkpt><trkpt lat="42.42577055365275" lon="-8.645399290001343"><ele>19.0</ele><time>2026-04-05T15:34:48Z</time></trkpt><trkpt lat="42.425786910540815" lon="-8.645564552575527"><ele>19.0</ele><time>2026-04-05T15:34:49Z</time></trkpt><trkpt lat="42.42580421986523" lon="-8.645718920564885"><ele>19.0</ele><time>2026-04-05T15:34:50Z</time></trkpt><trkpt lat="42.425817938830114" lon="-8.645876137899073"><ele>19.0</ele><time>2026-04-05T15:34:51Z</time></trkpt><trkpt lat="42.4258270645979" lon="-8.646049130785983"><ele>19.0</ele><time>2026-04-05T15:34:52Z</time></trkpt><trkpt lat="42.42584014649185" lon="-8.64619899836854"><ele>19.0</ele><time>2026-04-05T15:34:53Z</time></trkpt><trkpt lat="42.425848708686544" lon="-8.646325544934205"><ele>19.0</ele><time>2026-04-05T15:34:54Z</time></trkpt><trkpt lat="42.425848734830474" lon="-8.646468857625408"><ele>19.0</ele><time>2026-04-05T15:34:55Z</time></trkpt><trkpt lat="42.42584132499098" lon="-8.646632042963022"><ele>19.0</ele><time>2026-04-05T15:34:56Z</time></trkpt><trkpt lat="42.425816178991745" lon="-8.646779828083075"><ele>19.0</ele><time>2026-04-05T15:34:57Z</time></trkpt><trkpt lat="42.425794452213246" lon="-8.646895376530757"><ele>19.0</ele><time>2026-04-05T15:34:58Z</time></trkpt><trkpt lat="42.425788122809024" lon="-8.64700882123058"><ele>19.0</ele><time>2026-04-05T15:35:00Z</time></trkpt><trkpt lat="42.425834623731426" lon="-8.647095465606684"><ele>19.0</ele><time>2026-04-05T15:35:02Z</time></trkpt><trkpt lat="42.42587699727007" lon="-8.647158882116143"><ele>19.0</ele><time>2026-04-05T15:35:03Z</time></trkpt><trkpt lat="42.42589922998544" lon="-8.64732222106393"><ele>19.0</ele><time>2026-04-05T15:35:05Z</time></trkpt><trkpt lat="42.42590224755902" lon="-8.647408016636122"><ele>19.0</ele><time>2026-04-05T15:35:06Z</time></trkpt><trkpt lat="42.42592365647011" lon="-8.647531676751637"><ele>19.0</ele><time>2026-04-05T15:35:08Z</time></trkpt><trkpt lat="42.42593642419112" lon="-8.64762205684732"><ele>19.0</ele><time>2026-04-05T15:35:09Z</time></trkpt><trkpt lat="42.42594306065855" lon="-8.647752514409255"><ele>19.0</ele><time>2026-04-05T15:35:10Z</time></trkpt><trkpt lat="42.4259486216008" lon="-8.647870647874159"><ele>19.0</ele><time>2026-04-05T15:35:11Z</time></trkpt><trkpt lat="42.42595121597761" lon="-8.647983734352497"><ele>19.0</ele><time>2026-04-05T15:35:12Z</time></trkpt><trkpt lat="42.425955899806375" lon="-8.648092199288438"><ele>19.0</ele><time>2026-04-05T15:35:13Z</time></trkpt><trkpt lat="42.42596698334337" lon="-8.648211926675751"><ele>19.0</ele><time>2026-04-05T15:35:14Z</time></trkpt><trkpt lat="42.42596894358018" lon="-8.648340647269347"><ele>19.0</ele><time>2026-04-05T15:35:15Z</time></trkpt><trkpt lat="42.425986152847436" lon="-8.648465720467316"><ele>19.0</ele><time>2026-04-05T15:35:16Z</time></trkpt><trkpt lat="42.425996240210765" lon="-8.648581855909914"><ele>19.0</ele><time>2026-04-05T15:35:17Z</time></trkpt><trkpt lat="42.426000265408746" lon="-8.648694235666335"><ele>18.5</ele><time>2026-04-05T15:35:18Z</time></trkpt><trkpt lat="42.426011628364726" lon="-8.648791296408202"><ele>18.0</ele><time>2026-04-05T15:35:19Z</time></trkpt><trkpt lat="42.42601979716712" lon="-8.648886965444186"><ele>17.5</ele><time>2026-04-05T15:35:20Z</time></trkpt><trkpt lat="42.42602346612508" lon="-8.648980970322148"><ele>17.0</ele><time>2026-04-05T15:35:21Z</time></trkpt><trkpt lat="42.426029261438664" lon="-8.649083557047188"><ele>16.5</ele><time>2026-04-05T15:35:22Z</time></trkpt><trkpt lat="42.42604067735605" lon="-8.649205319346086"><ele>16.0</ele><time>2026-04-05T15:35:23Z</time></trkpt><trkpt lat="42.42605079087312" lon="-8.649337944216452"><ele>15.8</ele><time>2026-04-05T15:35:24Z</time></trkpt><trkpt lat="42.426061512711904" lon="-8.649475903430297"><ele>15.600000000000001</ele><time>2026-04-05T15:35:25Z</time></trkpt><trkpt lat="42.426074900769095" lon="-8.649607881177594"><ele>15.4</ele><time>2026-04-05T15:35:26Z</time></trkpt><trkpt lat="42.426095141634946" lon="-8.64973175317742"><ele>15.2</ele><time>2026-04-05T15:35:27Z</time></trkpt><trkpt lat="42.426116294303654" lon="-8.64985544172177"><ele>15.0</ele><time>2026-04-05T15:35:28Z</time></trkpt><trkpt lat="42.426143431326004" lon="-8.649938141391338"><ele>15.0</ele><time>2026-04-05T15:35:29Z</time></trkpt><trkpt lat="42.42617404258184" lon="-8.650047097324498"><ele>15.0</ele><time>2026-04-05T15:35:31Z</time></trkpt><trkpt lat="42.426202944714156" lon="-8.650125779892711"><ele>15.0</ele><time>2026-04-05T15:35:39Z</time></trkpt><trkpt lat="42.426235497319986" lon="-8.650202396151341"><ele>15.0</ele><time>2026-04-05T15:35:41Z</time></trkpt><trkpt lat="42.42631374715214" lon="-8.650282986389449"><ele>15.0</ele><time>2026-04-05T15:35:43Z</time></trkpt><trkpt lat="42.42638991091807" lon="-8.650392854984387"><ele>15.0</ele><time>2026-04-05T15:35:45Z</time></trkpt><trkpt lat="42.42638908256653" lon="-8.650479071208133"><ele>16.0</ele><time>2026-04-05T15:35:46Z</time></trkpt><trkpt lat="42.42634012482381" lon="-8.650563694847712"><ele>17.0</ele><time>2026-04-05T15:35:57.001Z</time></trkpt><trkpt lat="42.426357420497055" lon="-8.650658809276688"><ele>18.0</ele><time>2026-04-05T15:35:59.001Z</time></trkpt><trkpt lat="42.426413193274335" lon="-8.650798233899838"><ele>19.0</ele><time>2026-04-05T15:36:01.001Z</time></trkpt><trkpt lat="42.42645188915929" lon="-8.65088308939247"><ele>20.0</ele><time>2026-04-05T15:36:02.001Z</time></trkpt><trkpt lat="42.42649545480754" lon="-8.650977146333652"><ele>21.0</ele><time>2026-04-05T15:36:03.001Z</time></trkpt><trkpt lat="42.42655451749201" lon="-8.651070825616028"><ele>19.166666666666668</ele><time>2026-04-05T15:36:04.001Z</time></trkpt><trkpt lat="42.42657872654059" lon="-8.651179770695716"><ele>17.333333333333332</ele><time>2026-04-05T15:36:05.001Z</time></trkpt><trkpt lat="42.42661251277149" lon="-8.651278363162401"><ele>15.5</ele><time>2026-04-05T15:36:06.001Z</time></trkpt><trkpt lat="42.42666145806047" lon="-8.651377399159758"><ele>13.666666666666668</ele><time>2026-04-05T15:36:07.001Z</time></trkpt><trkpt lat="42.42670328898856" lon="-8.651489116430348"><ele>11.833333333333334</ele><time>2026-04-05T15:36:08.001Z</time></trkpt><trkpt lat="42.42673084698806" lon="-8.65159519374377"><ele>10.0</ele><time>2026-04-05T15:36:09.001Z</time></trkpt><trkpt lat="42.42676093906564" lon="-8.65169772576837"><ele>10.0</ele><time>2026-04-05T15:36:10.001Z</time></trkpt><trkpt lat="42.42680144704997" lon="-8.651792149519359"><ele>10.0</ele><time>2026-04-05T15:36:11.001Z</time></trkpt><trkpt lat="42.42683852151494" lon="-8.651864806723568"><ele>10.0</ele><time>2026-04-05T15:36:12.001Z</time></trkpt><trkpt lat="42.426873544025426" lon="-8.651944468730498"><ele>10.0</ele><time>2026-04-05T15:36:13.001Z</time></trkpt><trkpt lat="42.42690343584044" lon="-8.652025839446562"><ele>10.0</ele><time>2026-04-05T15:36:14.001Z</time></trkpt><trkpt lat="42.426956733089156" lon="-8.652124434179596"><ele>10.0</ele><time>2026-04-05T15:36:16.001Z</time></trkpt><trkpt lat="42.427029530482876" lon="-8.652203324122484"><ele>9.4</ele><time>2026-04-05T15:36:20.001Z</time></trkpt><trkpt lat="42.42711121388834" lon="-8.652201019657019"><ele>8.8</ele><time>2026-04-05T15:36:21.001Z</time></trkpt><trkpt lat="42.427193214960376" lon="-8.652140409380994"><ele>8.2</ele><time>2026-04-05T15:36:22.001Z</time></trkpt><trkpt lat="42.42726986237647" lon="-8.65206681563511"><ele>7.6</ele><time>2026-04-05T15:36:23.001Z</time></trkpt><trkpt lat="42.427350940249255" lon="-8.651994613801657"><ele>7.0</ele><time>2026-04-05T15:36:24.001Z</time></trkpt><trkpt lat="42.42744428033758" lon="-8.651937955900854"><ele>7.0</ele><time>2026-04-05T15:36:25.001Z</time></trkpt><trkpt lat="42.42753922834547" lon="-8.651864013398189"><ele>6.999999999999999</ele><time>2026-04-05T15:36:26.001Z</time></trkpt><trkpt lat="42.42763374984106" lon="-8.651810950217454"><ele>6.999999999999999</ele><time>2026-04-05T15:36:27.001Z</time></trkpt><trkpt lat="42.427723987034966" lon="-8.651746632949319"><ele>7.0</ele><time>2026-04-05T15:36:28.001Z</time></trkpt><trkpt lat="42.42781197384513" lon="-8.651699229638668"><ele>7.0</ele><time>2026-04-05T15:36:29.001Z</time></trkpt><trkpt lat="42.42789877198399" lon="-8.651650770354047"><ele>7.0</ele><time>2026-04-05T15:36:30.001Z</time></trkpt><trkpt lat="42.42797494597117" lon="-8.651640131005136"><ele>6.999999999999999</ele><time>2026-04-05T15:36:31.001Z</time></trkpt><trkpt lat="42.4280549675769" lon="-8.65165580094642"><ele>6.999999999999999</ele><time>2026-04-05T15:36:32.001Z</time></trkpt><trkpt lat="42.428139743528064" lon="-8.651684891027331"><ele>7.0</ele><time>2026-04-05T15:36:33.001Z</time></trkpt><trkpt lat="42.428262397543094" lon="-8.651732909665911"><ele>7.0</ele><time>2026-04-05T15:36:34.001Z</time></trkpt><trkpt lat="42.42838191200193" lon="-8.651776469425899"><ele>7.0</ele><time>2026-04-05T15:36:35.001Z</time></trkpt><trkpt lat="42.42848722743116" lon="-8.651814443564431"><ele>6.999999999999999</ele><time>2026-04-05T15:36:36.001Z</time></trkpt><trkpt lat="42.42857178336167" lon="-8.651841850284084"><ele>6.999999999999999</ele><time>2026-04-05T15:36:37.001Z</time></trkpt><trkpt lat="42.42867420385119" lon="-8.651876011477661"><ele>7.0</ele><time>2026-04-05T15:36:39Z</time></trkpt><trkpt lat="42.42877394844861" lon="-8.651898951273619"><ele>7.0</ele><time>2026-04-05T15:36:41Z</time></trkpt><trkpt lat="42.42887868177814" lon="-8.651910411720955"><ele>6.6</ele><time>2026-04-05T15:36:43Z</time></trkpt><trkpt lat="42.42893480099345" lon="-8.651950746531547"><ele>6.199999999999999</ele><time>2026-04-05T15:36:44Z</time></trkpt><trkpt lat="42.42898792428304" lon="-8.652026092112235"><ele>5.8</ele><time>2026-04-05T15:36:45Z</time></trkpt><trkpt lat="42.429003764318935" lon="-8.652185210391115"><ele>5.4</ele><time>2026-04-05T15:36:46Z</time></trkpt><trkpt lat="42.429008135461245" lon="-8.652327236636449"><ele>5.0</ele><time>2026-04-05T15:36:47Z</time></trkpt><trkpt lat="42.42900521992872" lon="-8.652494056927221"><ele>5.0</ele><time>2026-04-05T15:36:49Z</time></trkpt><trkpt lat="42.42901391897312" lon="-8.6526108286713"><ele>5.0</ele><time>2026-04-05T15:36:50Z</time></trkpt><trkpt lat="42.42902157466952" lon="-8.652768069310579"><ele>5.0</ele><time>2026-04-05T15:36:51Z</time></trkpt><trkpt lat="42.42903157876895" lon="-8.652931241160656"><ele>5.0</ele><time>2026-04-05T15:36:52Z</time></trkpt><trkpt lat="42.42904594397064" lon="-8.653115090210646"><ele>4.5</ele><time>2026-04-05T15:36:53Z</time></trkpt><trkpt lat="42.429063004527336" lon="-8.653308436569798"><ele>4.0</ele><time>2026-04-05T15:36:54Z</time></trkpt><trkpt lat="42.42910217175936" lon="-8.653492301383702"><ele>3.5</ele><time>2026-04-05T15:36:55Z</time></trkpt><trkpt lat="42.42917397918795" lon="-8.653648502459761"><ele>3.0</ele><time>2026-04-05T15:36:56Z</time></trkpt><trkpt lat="42.429268978474184" lon="-8.65378489740942"><ele>2.75</ele><time>2026-04-05T15:36:57Z</time></trkpt><trkpt lat="42.42938818395781" lon="-8.653877661745637"><ele>2.5</ele><time>2026-04-05T15:36:58Z</time></trkpt><trkpt lat="42.429521462912184" lon="-8.653931062303826"><ele>2.25</ele><time>2026-04-05T15:36:59Z</time></trkpt><trkpt lat="42.42965956247222" lon="-8.653943743518672"><ele>2.0</ele><time>2026-04-05T15:37:00Z</time></trkpt><trkpt lat="42.429782720868296" lon="-8.653945248134354"><ele>2.0</ele><time>2026-04-05T15:37:01Z</time></trkpt><trkpt lat="42.42989073809421" lon="-8.653911773532572"><ele>2.0</ele><time>2026-04-05T15:37:02Z</time></trkpt><trkpt lat="42.429979309354366" lon="-8.653869554936582"><ele>2.0</ele><time>2026-04-05T15:37:03Z</time></trkpt><trkpt lat="42.430045737958494" lon="-8.653832708069459"><ele>2.0</ele><time>2026-04-05T15:37:04Z</time></trkpt><trkpt lat="42.43014801953607" lon="-8.653780991461145"><ele>2.0</ele><time>2026-04-05T15:37:06Z</time></trkpt><trkpt lat="42.43024083642994" lon="-8.653744161362676"><ele>2.0</ele><time>2026-04-05T15:37:07Z</time></trkpt><trkpt lat="42.43035479059318" lon="-8.653696759253645"><ele>2.0</ele><time>2026-04-05T15:37:08Z</time></trkpt><trkpt lat="42.43047663523315" lon="-8.653632660830388"><ele>2.0</ele><time>2026-04-05T15:37:09Z</time></trkpt><trkpt lat="42.43061244020192" lon="-8.653577337480165"><ele>2.0</ele><time>2026-04-05T15:37:10Z</time></trkpt><trkpt lat="42.43075465555364" lon="-8.653504048832625"><ele>4.0</ele><time>2026-04-05T15:37:11Z</time></trkpt><trkpt lat="42.43090063934811" lon="-8.653442371473414"><ele>6.0</ele><time>2026-04-05T15:37:12Z</time></trkpt><trkpt lat="42.43103890783978" lon="-8.653378980578713"><ele>8.0</ele><time>2026-04-05T15:37:13Z</time></trkpt><trkpt lat="42.43116711607982" lon="-8.653323040845963"><ele>10.0</ele><time>2026-04-05T15:37:14Z</time></trkpt><trkpt lat="42.43128317697271" lon="-8.653271196302276"><ele>8.833333333333334</ele><time>2026-04-05T15:37:15Z</time></trkpt><trkpt lat="42.43138389149499" lon="-8.653223277856792"><ele>7.666666666666667</ele><time>2026-04-05T15:37:16Z</time></trkpt><trkpt lat="42.43147500128857" lon="-8.653182492675102"><ele>6.5</ele><time>2026-04-05T15:37:17Z</time></trkpt><trkpt lat="42.431555058074224" lon="-8.653141304202855"><ele>5.333333333333334</ele><time>2026-04-05T15:37:18Z</time></trkpt><trkpt lat="42.431627668021136" lon="-8.653111962878363"><ele>4.166666666666667</ele><time>2026-04-05T15:37:19Z</time></trkpt><trkpt lat="42.431703962132204" lon="-8.653072889987355"><ele>3.0</ele><time>2026-04-05T15:37:20Z</time></trkpt><trkpt lat="42.431804063557294" lon="-8.653030710534836"><ele>3.0</ele><time>2026-04-05T15:37:21Z</time></trkpt><trkpt lat="42.431919064882536" lon="-8.652977435200102"><ele>3.0</ele><time>2026-04-05T15:37:22Z</time></trkpt><trkpt lat="42.43204147535497" lon="-8.652919112490414"><ele>3.0</ele><time>2026-04-05T15:37:23Z</time></trkpt><trkpt lat="42.43216957385182" lon="-8.652856584566589"><ele>3.0</ele><time>2026-04-05T15:37:24Z</time></trkpt><trkpt lat="42.432296889973195" lon="-8.652788355237139"><ele>4.5</ele><time>2026-04-05T15:37:25Z</time></trkpt><trkpt lat="42.43241336671221" lon="-8.652704455933236"><ele>6.0</ele><time>2026-04-05T15:37:26Z</time></trkpt><trkpt lat="42.4325098328546" lon="-8.652611434167289"><ele>7.5</ele><time>2026-04-05T15:37:27Z</time></trkpt><trkpt lat="42.432575127202924" lon="-8.65250754028049"><ele>9.0</ele><time>2026-04-05T15:37:28Z</time></trkpt><trkpt lat="42.43264676889252" lon="-8.65241145812745"><ele>9.0</ele><time>2026-04-05T15:37:29Z</time></trkpt><trkpt lat="42.43270665253295" lon="-8.652327974465333"><ele>9.0</ele><time>2026-04-05T15:37:30Z</time></trkpt><trkpt lat="42.432766526763906" lon="-8.652259929842373"><ele>9.0</ele><time>2026-04-05T15:37:31Z</time></trkpt><trkpt lat="42.432837762231195" lon="-8.65216042384721"><ele>9.0</ele><time>2026-04-05T15:37:33Z</time></trkpt><trkpt lat="42.432915102463355" lon="-8.652040527309492"><ele>9.0</ele><time>2026-04-05T15:37:35Z</time></trkpt><trkpt lat="42.43297864637754" lon="-8.651946472791977"><ele>8.8</ele><time>2026-04-05T15:37:36Z</time></trkpt><trkpt lat="42.433032235127264" lon="-8.65186052469821"><ele>8.600000000000001</ele><time>2026-04-05T15:37:37Z</time></trkpt><trkpt lat="42.43309089966487" lon="-8.651791358362193"><ele>8.4</ele><time>2026-04-05T15:37:38Z</time></trkpt><trkpt lat="42.433176098335046" lon="-8.65174381139173"><ele>8.200000000000001</ele><time>2026-04-05T15:37:39Z</time></trkpt><trkpt lat="42.43327305865141" lon="-8.651666516579988"><ele>8.0</ele><time>2026-04-05T15:37:40Z</time></trkpt><trkpt lat="42.433367224663435" lon="-8.65154397033509"><ele>8.0</ele><time>2026-04-05T15:37:41Z</time></trkpt><trkpt lat="42.43345005763535" lon="-8.651416954145086"><ele>8.0</ele><time>2026-04-05T15:37:42Z</time></trkpt><trkpt lat="42.433533236759395" lon="-8.651299877105865"><ele>8.0</ele><time>2026-04-05T15:37:43Z</time></trkpt><trkpt lat="42.43361859045736" lon="-8.651203945551515"><ele>8.0</ele><time>2026-04-05T15:37:44Z</time></trkpt><trkpt lat="42.43369052574791" lon="-8.65111530998112"><ele>8.75</ele><time>2026-04-05T15:37:45Z</time></trkpt><trkpt lat="42.43374683249104" lon="-8.651029226140171"><ele>9.5</ele><time>2026-04-05T15:37:46Z</time></trkpt><trkpt lat="42.433835311827686" lon="-8.650908139840293"><ele>10.25</ele><time>2026-04-05T15:37:47Z</time></trkpt><trkpt lat="42.43394712367163" lon="-8.650770667948622"><ele>11.0</ele><time>2026-04-05T15:37:48Z</time></trkpt><trkpt lat="42.43406019024948" lon="-8.65062124341845"><ele>9.5</ele><time>2026-04-05T15:37:49Z</time></trkpt><trkpt lat="42.43416696173273" lon="-8.650475875079831"><ele>8.0</ele><time>2026-04-05T15:37:50Z</time></trkpt><trkpt lat="42.43425918993973" lon="-8.650339239411784"><ele>6.5</ele><time>2026-04-05T15:37:51Z</time></trkpt><trkpt lat="42.43434620690621" lon="-8.650203992001908"><ele>5.0</ele><time>2026-04-05T15:37:52Z</time></trkpt><trkpt lat="42.43444930426204" lon="-8.650047545887329"><ele>5.0</ele><time>2026-04-05T15:37:53Z</time></trkpt><trkpt lat="42.434566959225016" lon="-8.649896314718642"><ele>5.0</ele><time>2026-04-05T15:37:54Z</time></trkpt><trkpt lat="42.43468692875827" lon="-8.649771380276466"><ele>5.0</ele><time>2026-04-05T15:37:55Z</time></trkpt><trkpt lat="42.43477452475275" lon="-8.649656123028095"><ele>5.0</ele><time>2026-04-05T15:37:56Z</time></trkpt><trkpt lat="42.434844505417004" lon="-8.649557897943163"><ele>5.5</ele><time>2026-04-05T15:37:57Z</time></trkpt><trkpt lat="42.434935222804704" lon="-8.649427345776683"><ele>6.0</ele><time>2026-04-05T15:37:59Z</time></trkpt><trkpt lat="42.43499521065578" lon="-8.6493280319099"><ele>6.5</ele><time>2026-04-05T15:38:00Z</time></trkpt><trkpt lat="42.43507897114094" lon="-8.649213270825081"><ele>7.0</ele><time>2026-04-05T15:38:01Z</time></trkpt><trkpt lat="42.43517854272609" lon="-8.649086058980243"><ele>7.0</ele><time>2026-04-05T15:38:02Z</time></trkpt><trkpt lat="42.435280198994214" lon="-8.648942112924919"><ele>7.0</ele><time>2026-04-05T15:38:03Z</time></trkpt><trkpt lat="42.43538084531503" lon="-8.648798114206201"><ele>7.0</ele><time>2026-04-05T15:38:04Z</time></trkpt><trkpt lat="42.43547324427702" lon="-8.648667351797577"><ele>7.0</ele><time>2026-04-05T15:38:05Z</time></trkpt><trkpt lat="42.435557099212446" lon="-8.648547864832988"><ele>6.166666666666667</ele><time>2026-04-05T15:38:06Z</time></trkpt><trkpt lat="42.43560316500196" lon="-8.648447590091017"><ele>5.333333333333334</ele><time>2026-04-05T15:38:07Z</time></trkpt><trkpt lat="42.43567546079353" lon="-8.648346254377419"><ele>4.5</ele><time>2026-04-05T15:38:09Z</time></trkpt><trkpt lat="42.43571774851858" lon="-8.648274595124601"><ele>3.666666666666667</ele><time>2026-04-05T15:38:10Z</time></trkpt><trkpt lat="42.43575378475676" lon="-8.64819624159407"><ele>2.833333333333333</ele><time>2026-04-05T15:38:11Z</time></trkpt><trkpt lat="42.43577199876357" lon="-8.648112397228681"><ele>2.0</ele><time>2026-04-05T15:38:12Z</time></trkpt><trkpt lat="42.43577637054822" lon="-8.648027083394622"><ele>1.9999999999999998</ele><time>2026-04-05T15:38:13Z</time></trkpt><trkpt lat="42.4357909643101" lon="-8.647932132296019"><ele>2.0</ele><time>2026-04-05T15:38:14Z</time></trkpt><trkpt lat="42.435834695689735" lon="-8.64786703199106"><ele>2.0</ele><time>2026-04-05T15:38:15Z</time></trkpt><trkpt lat="42.43595447831527" lon="-8.647874129211779"><ele>2.0</ele><time>2026-04-05T15:38:17Z</time></trkpt><trkpt lat="42.43600258873264" lon="-8.647938621270495"><ele>1.9999999999999998</ele><time>2026-04-05T15:38:18Z</time></trkpt><trkpt lat="42.43608973705216" lon="-8.648054370599224"><ele>2.0</ele><time>2026-04-05T15:38:20Z</time></trkpt><trkpt lat="42.43616887535207" lon="-8.64810213783645"><ele>2.0</ele><time>2026-04-05T15:38:21Z</time></trkpt><trkpt lat="42.43626789930186" lon="-8.648144656396894"><ele>2.0</ele><time>2026-04-05T15:38:22Z</time></trkpt><trkpt lat="42.436373985930125" lon="-8.64818006874625"><ele>2.0</ele><time>2026-04-05T15:38:23Z</time></trkpt><trkpt lat="42.43649705284624" lon="-8.648217649327833"><ele>2.0</ele><time>2026-04-05T15:38:24Z</time></trkpt><trkpt lat="42.43662905337626" lon="-8.648269385037871"><ele>2.5</ele><time>2026-04-05T15:38:25Z</time></trkpt><trkpt lat="42.43676707038038" lon="-8.648325441450599"><ele>3.0</ele><time>2026-04-05T15:38:26Z</time></trkpt><trkpt lat="42.43689288045885" lon="-8.648373158340029"><ele>3.5</ele><time>2026-04-05T15:38:27Z</time></trkpt><trkpt lat="42.43700022833119" lon="-8.648404494726634"><ele>4.0</ele><time>2026-04-05T15:38:28Z</time></trkpt><trkpt lat="42.43709988337931" lon="-8.648409590641606"><ele>3.833333333333333</ele><time>2026-04-05T15:38:29Z</time></trkpt><trkpt lat="42.43718452983724" lon="-8.648375594046632"><ele>3.6666666666666665</ele><time>2026-04-05T15:38:30Z</time></trkpt><trkpt lat="42.437251489137225" lon="-8.64835617599111"><ele>3.5</ele><time>2026-04-05T15:38:31Z</time></trkpt><trkpt lat="42.437313302268606" lon="-8.648406146142978"><ele>3.333333333333333</ele><time>2026-04-05T15:38:32Z</time></trkpt><trkpt lat="42.43733100369297" lon="-8.648517462981347"><ele>3.1666666666666665</ele><time>2026-04-05T15:38:33Z</time></trkpt><trkpt lat="42.43733084714728" lon="-8.648656787249932"><ele>3.0</ele><time>2026-04-05T15:38:34Z</time></trkpt><trkpt lat="42.437324032000355" lon="-8.648822481227773"><ele>3.25</ele><time>2026-04-05T15:38:35Z</time></trkpt><trkpt lat="42.437334419345014" lon="-8.648986990374508"><ele>3.5</ele><time>2026-04-05T15:38:36Z</time></trkpt><trkpt lat="42.43736577158968" lon="-8.649163931540153"><ele>3.75</ele><time>2026-04-05T15:38:37Z</time></trkpt><trkpt lat="42.43740219491886" lon="-8.64933648354842"><ele>4.0</ele><time>2026-04-05T15:38:38Z</time></trkpt><trkpt lat="42.437439893465" lon="-8.64951260003687"><ele>4.0</ele><time>2026-04-05T15:38:39Z</time></trkpt><trkpt lat="42.437474420828664" lon="-8.649697764774412"><ele>4.0</ele><time>2026-04-05T15:38:40Z</time></trkpt><trkpt lat="42.43750575457627" lon="-8.649875645060716"><ele>4.0</ele><time>2026-04-05T15:38:41Z</time></trkpt><trkpt lat="42.43752862869139" lon="-8.650047437724806"><ele>4.0</ele><time>2026-04-05T15:38:42Z</time></trkpt><trkpt lat="42.43754767684468" lon="-8.65020114853454"><ele>3.8000000000000003</ele><time>2026-04-05T15:38:43Z</time></trkpt><trkpt lat="42.43757470895269" lon="-8.650341863135699"><ele>3.6000000000000005</ele><time>2026-04-05T15:38:44Z</time></trkpt><trkpt lat="42.43757736591806" lon="-8.650496275889987"><ele>3.4</ele><time>2026-04-05T15:38:45Z</time></trkpt><trkpt lat="42.437580226062124" lon="-8.65063600742879"><ele>3.2</ele><time>2026-04-05T15:38:46Z</time></trkpt><trkpt lat="42.43757857956621" lon="-8.650770788162127"><ele>3.0</ele><time>2026-04-05T15:38:47Z</time></trkpt><trkpt lat="42.43757402245387" lon="-8.650878296140375"><ele>3.0</ele><time>2026-04-05T15:38:48Z</time></trkpt><trkpt lat="42.437563168028426" lon="-8.651042259779572"><ele>3.0</ele><time>2026-04-05T15:38:49Z</time></trkpt><trkpt lat="42.43754618343284" lon="-8.651191543406235"><ele>3.0</ele><time>2026-04-05T15:38:50Z</time></trkpt><trkpt lat="42.43752677696959" lon="-8.651325838661242"><ele>3.0</ele><time>2026-04-05T15:38:51Z</time></trkpt><trkpt lat="42.43750257240833" lon="-8.651457330287283"><ele>3.0</ele><time>2026-04-05T15:38:52Z</time></trkpt><trkpt lat="42.43747732715161" lon="-8.651581551513894"><ele>3.3333333333333335</ele><time>2026-04-05T15:38:53Z</time></trkpt><trkpt lat="42.43744834847885" lon="-8.651699582965728"><ele>3.666666666666667</ele><time>2026-04-05T15:38:54Z</time></trkpt><trkpt lat="42.43742460156081" lon="-8.651817254103861"><ele>4.0</ele><time>2026-04-05T15:38:55Z</time></trkpt><trkpt lat="42.43743468277004" lon="-8.651923835314715"><ele>4.333333333333334</ele><time>2026-04-05T15:38:56Z</time></trkpt><trkpt lat="42.43746250970894" lon="-8.652023766064833"><ele>4.666666666666667</ele><time>2026-04-05T15:38:57Z</time></trkpt><trkpt lat="42.43751057866941" lon="-8.652115063538908"><ele>5.0</ele><time>2026-04-05T15:38:58Z</time></trkpt><trkpt lat="42.43756789455118" lon="-8.652208449954442"><ele>5.2</ele><time>2026-04-05T15:38:59Z</time></trkpt><trkpt lat="42.43768760519384" lon="-8.652222278490411"><ele>5.4</ele><time>2026-04-05T15:39:00Z</time></trkpt><trkpt lat="42.437789568790414" lon="-8.652278970288712"><ele>5.6</ele><time>2026-04-05T15:39:01Z</time></trkpt><trkpt lat="42.43786274235838" lon="-8.652355327975071"><ele>5.8</ele><time>2026-04-05T15:39:02Z</time></trkpt><trkpt lat="42.43790786283722" lon="-8.652450309089014"><ele>6.0</ele><time>2026-04-05T15:39:03Z</time></trkpt><trkpt lat="42.43791531178899" lon="-8.652561892118264"><ele>6.0</ele><time>2026-04-05T15:39:04Z</time></trkpt><trkpt lat="42.43788494998422" lon="-8.652678224595858"><ele>6.0</ele><time>2026-04-05T15:39:05Z</time></trkpt><trkpt lat="42.43782366316897" lon="-8.65277223249427"><ele>6.0</ele><time>2026-04-05T15:39:06Z</time></trkpt><trkpt lat="42.43772885333143" lon="-8.652849591502292"><ele>6.0</ele><time>2026-04-05T15:39:07Z</time></trkpt><trkpt lat="42.437620191160796" lon="-8.652903761110759"><ele>6.0</ele><time>2026-04-05T15:39:08Z</time></trkpt><trkpt lat="42.43750083983534" lon="-8.652957773108142"><ele>7.0</ele><time>2026-04-05T15:39:09Z</time></trkpt><trkpt lat="42.43737361642336" lon="-8.65300474120251"><ele>8.0</ele><time>2026-04-05T15:39:10Z</time></trkpt><trkpt lat="42.43724530383891" lon="-8.653050328507044"><ele>9.0</ele><time>2026-04-05T15:39:11Z</time></trkpt><trkpt lat="42.437106851347245" lon="-8.653095706321293"><ele>10.0</ele><time>2026-04-05T15:39:12Z</time></trkpt><trkpt lat="42.43695604090033" lon="-8.653148607105688"><ele>10.0</ele><time>2026-04-05T15:39:13Z</time></trkpt><trkpt lat="42.43680430570806" lon="-8.653216010070027"><ele>10.0</ele><time>2026-04-05T15:39:14Z</time></trkpt><trkpt lat="42.43665687068775" lon="-8.653289846311425"><ele>10.0</ele><time>2026-04-05T15:39:15Z</time></trkpt><trkpt lat="42.43650415184943" lon="-8.653370775892304"><ele>10.0</ele><time>2026-04-05T15:39:16Z</time></trkpt><trkpt lat="42.43634957024547" lon="-8.653459296433237"><ele>10.0</ele><time>2026-04-05T15:39:17Z</time></trkpt><trkpt lat="42.436188357059756" lon="-8.653558334558735"><ele>10.0</ele><time>2026-04-05T15:39:18Z</time></trkpt><trkpt lat="42.43602754014137" lon="-8.653647508955387"><ele>12.333333333333334</ele><time>2026-04-05T15:39:19Z</time></trkpt><trkpt lat="42.43586243056338" lon="-8.653742820689374"><ele>14.666666666666668</ele><time>2026-04-05T15:39:20Z</time></trkpt><trkpt lat="42.43570061349503" lon="-8.65384781257673"><ele>17.0</ele><time>2026-04-05T15:39:21Z</time></trkpt><trkpt lat="42.43553898563445" lon="-8.653954716305448"><ele>17.0</ele><time>2026-04-05T15:39:22Z</time></trkpt><trkpt lat="42.435370630405615" lon="-8.654060547858288"><ele>17.0</ele><time>2026-04-05T15:39:23Z</time></trkpt><trkpt lat="42.43520533935988" lon="-8.654164177138645"><ele>17.0</ele><time>2026-04-05T15:39:24Z</time></trkpt><trkpt lat="42.435033358599036" lon="-8.654268701263218"><ele>17.0</ele><time>2026-04-05T15:39:25Z</time></trkpt><trkpt lat="42.434863880024885" lon="-8.654353684076646"><ele>17.0</ele><time>2026-04-05T15:39:26Z</time></trkpt><trkpt lat="42.434711660855704" lon="-8.654398722376664"><ele>17.0</ele><time>2026-04-05T15:39:27Z</time></trkpt><trkpt lat="42.434580674404444" lon="-8.654425783132242"><ele>16.666666666666668</ele><time>2026-04-05T15:39:28Z</time></trkpt><trkpt lat="42.43447717467872" lon="-8.654443840451533"><ele>16.333333333333336</ele><time>2026-04-05T15:39:29Z</time></trkpt><trkpt lat="42.43439803378015" lon="-8.654460382114756"><ele>16.0</ele><time>2026-04-05T15:39:30Z</time></trkpt><trkpt lat="42.43433243009854" lon="-8.654476736154118"><ele>15.666666666666668</ele><time>2026-04-05T15:39:32Z</time></trkpt><trkpt lat="42.43423565596199" lon="-8.654500803979232"><ele>15.333333333333334</ele><time>2026-04-05T15:39:40Z</time></trkpt><trkpt lat="42.434154393426546" lon="-8.654537116194128"><ele>15.0</ele><time>2026-04-05T15:39:42Z</time></trkpt><trkpt lat="42.4340667068203" lon="-8.654582046282647"><ele>15.0</ele><time>2026-04-05T15:39:44Z</time></trkpt><trkpt lat="42.43400519035895" lon="-8.654626011205963"><ele>15.0</ele><time>2026-04-05T15:39:46Z</time></trkpt><trkpt lat="42.43393554203768" lon="-8.654683604357773"><ele>15.0</ele><time>2026-04-05T15:39:48Z</time></trkpt><trkpt lat="42.43386355608727" lon="-8.654755876974694"><ele>15.0</ele><time>2026-04-05T15:39:50Z</time></trkpt><trkpt lat="42.43379024710013" lon="-8.654830834275211"><ele>15.0</ele><time>2026-04-05T15:39:52Z</time></trkpt><trkpt lat="42.43374493740051" lon="-8.654897618264325"><ele>15.0</ele><time>2026-04-05T15:39:54Z</time></trkpt><trkpt lat="42.43365213227011" lon="-8.655001998577438"><ele>15.0</ele><time>2026-04-05T15:39:56Z</time></trkpt><trkpt lat="42.43358719263034" lon="-8.655117753961141"><ele>15.0</ele><time>2026-04-05T15:39:58Z</time></trkpt><trkpt lat="42.433499249143196" lon="-8.655237252210483"><ele>15.0</ele><time>2026-04-05T15:40:00Z</time></trkpt><trkpt lat="42.433454200820435" lon="-8.655304709043678"><ele>15.0</ele><time>2026-04-05T15:40:01Z</time></trkpt><trkpt lat="42.43340541652451" lon="-8.65536956701278"><ele>15.0</ele><time>2026-04-05T15:40:02Z</time></trkpt><trkpt lat="42.43335634615285" lon="-8.655440009589189"><ele>15.0</ele><time>2026-04-05T15:40:03Z</time></trkpt><trkpt lat="42.43330967422701" lon="-8.655518602876217"><ele>15.833333333333334</ele><time>2026-04-05T15:40:04Z</time></trkpt><trkpt lat="42.43326709367628" lon="-8.655600276191151"><ele>16.666666666666668</ele><time>2026-04-05T15:40:05Z</time></trkpt><trkpt lat="42.43323145611069" lon="-8.655691676618044"><ele>17.5</ele><time>2026-04-05T15:40:06Z</time></trkpt><trkpt lat="42.433196358356476" lon="-8.65578968073986"><ele>18.333333333333336</ele><time>2026-04-05T15:40:07Z</time></trkpt><trkpt lat="42.43318554233939" lon="-8.655897830043603"><ele>19.166666666666668</ele><time>2026-04-05T15:40:08Z</time></trkpt><trkpt lat="42.433195811401575" lon="-8.65600219491574"><ele>20.0</ele><time>2026-04-05T15:40:09Z</time></trkpt><trkpt lat="42.433225620263016" lon="-8.656092476495047"><ele>19.428571428571427</ele><time>2026-04-05T15:40:10Z</time></trkpt><trkpt lat="42.43326819439083" lon="-8.656173601126936"><ele>18.857142857142858</ele><time>2026-04-05T15:40:11Z</time></trkpt><trkpt lat="42.43332010916143" lon="-8.656252734952226"><ele>18.285714285714285</ele><time>2026-04-05T15:40:12Z</time></trkpt><trkpt lat="42.43337619618607" lon="-8.656310913973664"><ele>17.714285714285715</ele><time>2026-04-05T15:40:13Z</time></trkpt><trkpt lat="42.43343194303237" lon="-8.656374223224315"><ele>17.142857142857142</ele><time>2026-04-05T15:40:14Z</time></trkpt><trkpt lat="42.43348213255122" lon="-8.656441092973568"><ele>16.57142857142857</ele><time>2026-04-05T15:40:15Z</time></trkpt><trkpt lat="42.43353408544965" lon="-8.656511089178546"><ele>16.0</ele><time>2026-04-05T15:40:16Z</time></trkpt><trkpt lat="42.4335927200789" lon="-8.656579598220155"><ele>15.999999999999998</ele><time>2026-04-05T15:40:17Z</time></trkpt><trkpt lat="42.43365280252701" lon="-8.65664530017207"><ele>16.0</ele><time>2026-04-05T15:40:18Z</time></trkpt><trkpt lat="42.43370931490265" lon="-8.656708684631122"><ele>16.0</ele><time>2026-04-05T15:40:19Z</time></trkpt><trkpt lat="42.43376536201882" lon="-8.65677375668611"><ele>16.0</ele><time>2026-04-05T15:40:20Z</time></trkpt><trkpt lat="42.43382905423689" lon="-8.656836824284902"><ele>15.999999999999998</ele><time>2026-04-05T15:40:21Z</time></trkpt><trkpt lat="42.43388911835714" lon="-8.656908483890826"><ele>16.0</ele><time>2026-04-05T15:40:22Z</time></trkpt><trkpt lat="42.43394916444121" lon="-8.656982718275472"><ele>16.833333333333332</ele><time>2026-04-05T15:40:23Z</time></trkpt><trkpt lat="42.434013559977224" lon="-8.657050711705894"><ele>17.666666666666664</ele><time>2026-04-05T15:40:24Z</time></trkpt><trkpt lat="42.43407620917292" lon="-8.657123310202694"><ele>18.5</ele><time>2026-04-05T15:40:25Z</time></trkpt><trkpt lat="42.43412882457386" lon="-8.657183977047104"><ele>19.333333333333332</ele><time>2026-04-05T15:40:26Z</time></trkpt><trkpt lat="42.434225737053495" lon="-8.657274962478597"><ele>20.166666666666668</ele><time>2026-04-05T15:40:28Z</time></trkpt><trkpt lat="42.43428441333362" lon="-8.657342612541122"><ele>21.0</ele><time>2026-04-05T15:40:29Z</time></trkpt><trkpt lat="42.43433422668713" lon="-8.657414917246136"><ele>21.0</ele><time>2026-04-05T15:40:30Z</time></trkpt><trkpt lat="42.43436956473513" lon="-8.65750902924889"><ele>21.0</ele><time>2026-04-05T15:40:31Z</time></trkpt><trkpt lat="42.43435068631198" lon="-8.657602628520712"><ele>21.0</ele><time>2026-04-05T15:40:32Z</time></trkpt><trkpt lat="42.43429107568539" lon="-8.657681132790666"><ele>21.0</ele><time>2026-04-05T15:40:33Z</time></trkpt><trkpt lat="42.4342032106665" lon="-8.657753273034242"><ele>21.0</ele><time>2026-04-05T15:40:34Z</time></trkpt><trkpt lat="42.43412312558075" lon="-8.657854294772907"><ele>21.0</ele><time>2026-04-05T15:40:35Z</time></trkpt><trkpt lat="42.43407497373915" lon="-8.657966268954585"><ele>20.166666666666668</ele><time>2026-04-05T15:40:36Z</time></trkpt><trkpt lat="42.434047937780456" lon="-8.658063363982206"><ele>19.333333333333332</ele><time>2026-04-05T15:40:37Z</time></trkpt><trkpt lat="42.43401115225171" lon="-8.658137039473374"><ele>18.5</ele><time>2026-04-05T15:40:38Z</time></trkpt><trkpt lat="42.433957212636194" lon="-8.658268551995167"><ele>17.666666666666664</ele><time>2026-04-05T15:40:40Z</time></trkpt><trkpt lat="42.43393135464161" lon="-8.658365066189763"><ele>16.833333333333332</ele><time>2026-04-05T15:40:43Z</time></trkpt><trkpt lat="42.43388655459717" lon="-8.658452759576543"><ele>16.0</ele><time>2026-04-05T15:41:04Z</time></trkpt><trkpt lat="42.43384469276262" lon="-8.658569999678646"><ele>16.333333333333332</ele><time>2026-04-05T15:41:06Z</time></trkpt><trkpt lat="42.433791227526534" lon="-8.658705432868048"><ele>16.666666666666664</ele><time>2026-04-05T15:41:08Z</time></trkpt><trkpt lat="42.43376450847642" lon="-8.658793766570025"><ele>17.0</ele><time>2026-04-05T15:41:09Z</time></trkpt><trkpt lat="42.433747108574686" lon="-8.658902822375639"><ele>17.333333333333332</ele><time>2026-04-05T15:41:10Z</time></trkpt><trkpt lat="42.43371167046689" lon="-8.659007153536344"><ele>17.666666666666668</ele><time>2026-04-05T15:41:11Z</time></trkpt><trkpt lat="42.433679370461235" lon="-8.659108135563274"><ele>18.0</ele><time>2026-04-05T15:41:12Z</time></trkpt><trkpt lat="42.43365330914843" lon="-8.659198645275152"><ele>18.0</ele><time>2026-04-05T15:41:13Z</time></trkpt><trkpt lat="42.433628565769034" lon="-8.659284372782258"><ele>18.0</ele><time>2026-04-05T15:41:14Z</time></trkpt><trkpt lat="42.4336023270453" lon="-8.659374150940472"><ele>18.0</ele><time>2026-04-05T15:41:15Z</time></trkpt><trkpt lat="42.433564950583815" lon="-8.659457644077955"><ele>18.0</ele><time>2026-04-05T15:41:16Z</time></trkpt><trkpt lat="42.433538610475125" lon="-8.659542520092044"><ele>18.0</ele><time>2026-04-05T15:41:17Z</time></trkpt><trkpt lat="42.43351686684728" lon="-8.659627241523937"><ele>18.0</ele><time>2026-04-05T15:41:18Z</time></trkpt><trkpt lat="42.433471199692455" lon="-8.65977834883132"><ele>19.0</ele><time>2026-04-05T15:41:20Z</time></trkpt><trkpt lat="42.43342875016905" lon="-8.659928004064918"><ele>20.0</ele><time>2026-04-05T15:41:22Z</time></trkpt><trkpt lat="42.43340332338869" lon="-8.660016271716419"><ele>21.0</ele><time>2026-04-05T15:41:23Z</time></trkpt><trkpt lat="42.43337645148792" lon="-8.66010193425936"><ele>22.0</ele><time>2026-04-05T15:41:24Z</time></trkpt><trkpt lat="42.433332324184356" lon="-8.660249776694814"><ele>23.0</ele><time>2026-04-05T15:41:26Z</time></trkpt><trkpt lat="42.433279086654174" lon="-8.660405685449625"><ele>24.166666666666668</ele><time>2026-04-05T15:41:28Z</time></trkpt><trkpt lat="42.43326499415533" lon="-8.660508768482645"><ele>25.333333333333336</ele><time>2026-04-05T15:41:29Z</time></trkpt><trkpt lat="42.43323436182305" lon="-8.660617678499035"><ele>26.5</ele><time>2026-04-05T15:41:30Z</time></trkpt><trkpt lat="42.43320342716383" lon="-8.660723385070574"><ele>27.666666666666668</ele><time>2026-04-05T15:41:31Z</time></trkpt><trkpt lat="42.433173707148576" lon="-8.660814106205256"><ele>28.833333333333332</ele><time>2026-04-05T15:41:32Z</time></trkpt><trkpt lat="42.433141384562674" lon="-8.660906877479743"><ele>30.0</ele><time>2026-04-05T15:41:33Z</time></trkpt><trkpt lat="42.43310529174574" lon="-8.66100597890031"><ele>30.0</ele><time>2026-04-05T15:41:34Z</time></trkpt><trkpt lat="42.433055886137716" lon="-8.6611036201809"><ele>30.0</ele><time>2026-04-05T15:41:35Z</time></trkpt><trkpt lat="42.43300726328826" lon="-8.661183047661048"><ele>30.0</ele><time>2026-04-05T15:41:36Z</time></trkpt><trkpt lat="42.43294823019235" lon="-8.66124531284707"><ele>30.0</ele><time>2026-04-05T15:41:37Z</time></trkpt><trkpt lat="42.43289826242104" lon="-8.661315562976917"><ele>30.0</ele><time>2026-04-05T15:41:38Z</time></trkpt><trkpt lat="42.43284583185723" lon="-8.661382511896612"><ele>30.0</ele><time>2026-04-05T15:41:39Z</time></trkpt><trkpt lat="42.432789030659876" lon="-8.661449329326738"><ele>29.666666666666668</ele><time>2026-04-05T15:41:40Z</time></trkpt><trkpt lat="42.43272699862465" lon="-8.661524790000525"><ele>29.333333333333336</ele><time>2026-04-05T15:41:41Z</time></trkpt><trkpt lat="42.43266355723973" lon="-8.661600906104212"><ele>29.0</ele><time>2026-04-05T15:41:42Z</time></trkpt><trkpt lat="42.432600151079555" lon="-8.661685401516662"><ele>28.666666666666668</ele><time>2026-04-05T15:41:43Z</time></trkpt><trkpt lat="42.432537213689955" lon="-8.661766507665495"><ele>28.333333333333336</ele><time>2026-04-05T15:41:44Z</time></trkpt><trkpt lat="42.43247694235754" lon="-8.661847106928645"><ele>28.0</ele><time>2026-04-05T15:41:45Z</time></trkpt><trkpt lat="42.432418388928305" lon="-8.661925892295534"><ele>29.166666666666668</ele><time>2026-04-05T15:41:46Z</time></trkpt><trkpt lat="42.43236649090267" lon="-8.662013004694376"><ele>30.333333333333336</ele><time>2026-04-05T15:41:47Z</time></trkpt><trkpt lat="42.43233442177523" lon="-8.662119509096566"><ele>31.5</ele><time>2026-04-05T15:41:48Z</time></trkpt><trkpt lat="42.43229299672926" lon="-8.662220503167287"><ele>32.666666666666664</ele><time>2026-04-05T15:41:49Z</time></trkpt><trkpt lat="42.432251358207324" lon="-8.66232585735399"><ele>33.83333333333333</ele><time>2026-04-05T15:41:50Z</time></trkpt><trkpt lat="42.43220873661507" lon="-8.662432691610988"><ele>35.0</ele><time>2026-04-05T15:41:51Z</time></trkpt><trkpt lat="42.43216467547193" lon="-8.662543134163107"><ele>35.4</ele><time>2026-04-05T15:41:52Z</time></trkpt><trkpt lat="42.432125779519495" lon="-8.66264062970351"><ele>35.8</ele><time>2026-04-05T15:41:53Z</time></trkpt><trkpt lat="42.43208953524919" lon="-8.662728938645024"><ele>36.2</ele><time>2026-04-05T15:41:54Z</time></trkpt><trkpt lat="42.43203153644599" lon="-8.662858580597828"><ele>36.6</ele><time>2026-04-05T15:41:56Z</time></trkpt><trkpt lat="42.43195960367572" lon="-8.662954911740927"><ele>37.0</ele><time>2026-04-05T15:41:58Z</time></trkpt><trkpt lat="42.43192203452097" lon="-8.663091063031379"><ele>37.0</ele><time>2026-04-05T15:42:00Z</time></trkpt><trkpt lat="42.431909014337755" lon="-8.663201373493221"><ele>37.0</ele><time>2026-04-05T15:42:01Z</time></trkpt><trkpt lat="42.43187051587528" lon="-8.663314739621924"><ele>37.0</ele><time>2026-04-05T15:42:02Z</time></trkpt><trkpt lat="42.431801610944696" lon="-8.663408099690695"><ele>37.0</ele><time>2026-04-05T15:42:03Z</time></trkpt><trkpt lat="42.431752476392234" lon="-8.663503582423786"><ele>37.0</ele><time>2026-04-05T15:42:04Z</time></trkpt><trkpt lat="42.43172244687" lon="-8.663593288664222"><ele>37.0</ele><time>2026-04-05T15:42:05Z</time></trkpt><trkpt lat="42.43169029519919" lon="-8.66369284458986"><ele>37.66666666666667</ele><time>2026-04-05T15:42:06Z</time></trkpt><trkpt lat="42.43165751111729" lon="-8.663789512961907"><ele>38.333333333333336</ele><time>2026-04-05T15:42:07Z</time></trkpt><trkpt lat="42.431624762231735" lon="-8.663885644496624"><ele>39.0</ele><time>2026-04-05T15:42:08Z</time></trkpt><trkpt lat="42.43158969802633" lon="-8.663987749602065"><ele>39.666666666666664</ele><time>2026-04-05T15:42:09Z</time></trkpt><trkpt lat="42.43155524368563" lon="-8.664093222548724"><ele>40.33333333333333</ele><time>2026-04-05T15:42:10Z</time></trkpt><trkpt lat="42.43152256794674" lon="-8.664197991944471"><ele>41.0</ele><time>2026-04-05T15:42:11Z</time></trkpt><trkpt lat="42.43149546714166" lon="-8.664310455650513"><ele>41.0</ele><time>2026-04-05T15:42:12Z</time></trkpt><trkpt lat="42.43147394907113" lon="-8.664428837464024"><ele>41.0</ele><time>2026-04-05T15:42:13Z</time></trkpt><trkpt lat="42.43145569317873" lon="-8.664550257471927"><ele>41.0</ele><time>2026-04-05T15:42:14Z</time></trkpt><trkpt lat="42.431448000902236" lon="-8.664680155608009"><ele>41.0</ele><time>2026-04-05T15:42:15Z</time></trkpt><trkpt lat="42.43144904319028" lon="-8.66481419007157"><ele>41.0</ele><time>2026-04-05T15:42:16Z</time></trkpt><trkpt lat="42.43146148797738" lon="-8.66493882649051"><ele>42.0</ele><time>2026-04-05T15:42:17Z</time></trkpt><trkpt lat="42.43147990960501" lon="-8.665041428614522"><ele>43.0</ele><time>2026-04-05T15:42:18Z</time></trkpt><trkpt lat="42.43150398442481" lon="-8.665148816271113"><ele>44.0</ele><time>2026-04-05T15:42:19Z</time></trkpt><trkpt lat="42.43153851438825" lon="-8.665253517698876"><ele>45.0</ele><time>2026-04-05T15:42:20Z</time></trkpt><trkpt lat="42.43157805264061" lon="-8.665347101182247"><ele>46.0</ele><time>2026-04-05T15:42:21Z</time></trkpt><trkpt lat="42.43162323730507" lon="-8.66542830102852"><ele>47.0</ele><time>2026-04-05T15:42:22Z</time></trkpt><trkpt lat="42.43166231882734" lon="-8.66550177663025"><ele>47.42857142857143</ele><time>2026-04-05T15:42:23Z</time></trkpt><trkpt lat="42.43170965244492" lon="-8.665579058438718"><ele>47.857142857142854</ele><time>2026-04-05T15:42:24Z</time></trkpt><trkpt lat="42.43175841601757" lon="-8.66566099826059"><ele>48.28571428571429</ele><time>2026-04-05T15:42:25Z</time></trkpt><trkpt lat="42.43180413809046" lon="-8.665733563853092"><ele>48.714285714285715</ele><time>2026-04-05T15:42:26Z</time></trkpt><trkpt lat="42.431846080513886" lon="-8.66580173641036"><ele>49.142857142857146</ele><time>2026-04-05T15:42:27Z</time></trkpt><trkpt lat="42.43189113671934" lon="-8.665881718481087"><ele>49.57142857142858</ele><time>2026-04-05T15:42:28Z</time></trkpt><trkpt lat="42.43194303548161" lon="-8.665969911493711"><ele>50.0</ele><time>2026-04-05T15:42:29Z</time></trkpt><trkpt lat="42.431997499833216" lon="-8.666065167412844"><ele>49.66666666666667</ele><time>2026-04-05T15:42:30Z</time></trkpt><trkpt lat="42.4320487230975" lon="-8.666152126426425"><ele>49.333333333333336</ele><time>2026-04-05T15:42:31Z</time></trkpt><trkpt lat="42.43210061740428" lon="-8.666235531665063"><ele>49.0</ele><time>2026-04-05T15:42:32Z</time></trkpt><trkpt lat="42.43214905584333" lon="-8.666320579617205"><ele>48.66666666666667</ele><time>2026-04-05T15:42:33Z</time></trkpt><trkpt lat="42.43219789769783" lon="-8.666407007365692"><ele>48.333333333333336</ele><time>2026-04-05T15:42:34Z</time></trkpt><trkpt lat="42.43224725543235" lon="-8.66649074645976"><ele>48.0</ele><time>2026-04-05T15:42:35Z</time></trkpt><trkpt lat="42.43229216980205" lon="-8.666570995868025"><ele>48.4</ele><time>2026-04-05T15:42:36Z</time></trkpt><trkpt lat="42.43235285185415" lon="-8.666642566127845"><ele>48.8</ele><time>2026-04-05T15:42:37Z</time></trkpt><trkpt lat="42.43240595791807" lon="-8.666730450964858"><ele>49.2</ele><time>2026-04-05T15:42:38Z</time></trkpt><trkpt lat="42.432473632602836" lon="-8.666842901677555"><ele>49.6</ele><time>2026-04-05T15:42:39Z</time></trkpt><trkpt lat="42.43254708116569" lon="-8.666965996962782"><ele>50.0</ele><time>2026-04-05T15:42:40Z</time></trkpt><trkpt lat="42.43262424647087" lon="-8.667108468589502"><ele>50.0</ele><time>2026-04-05T15:42:41Z</time></trkpt><trkpt lat="42.432718002211146" lon="-8.667248234940985"><ele>50.0</ele><time>2026-04-05T15:42:42Z</time></trkpt><trkpt lat="42.43280793007373" lon="-8.66740206882804"><ele>50.0</ele><time>2026-04-05T15:42:43Z</time></trkpt><trkpt lat="42.43291228089056" lon="-8.667561350783068"><ele>50.0</ele><time>2026-04-05T15:42:44Z</time></trkpt><trkpt lat="42.43301245326065" lon="-8.667725573375309"><ele>51.0</ele><time>2026-04-05T15:42:45Z</time></trkpt><trkpt lat="42.43310646993942" lon="-8.667881200711475"><ele>52.0</ele><time>2026-04-05T15:42:46Z</time></trkpt><trkpt lat="42.43318893959498" lon="-8.668026428718136"><ele>53.0</ele><time>2026-04-05T15:42:47Z</time></trkpt><trkpt lat="42.43327525535254" lon="-8.6681750907768"><ele>54.0</ele><time>2026-04-05T15:42:48Z</time></trkpt><trkpt lat="42.43336008607077" lon="-8.668320451614708"><ele>54.0</ele><time>2026-04-05T15:42:49Z</time></trkpt><trkpt lat="42.4334475378849" lon="-8.668464925327424"><ele>54.0</ele><time>2026-04-05T15:42:50.001Z</time></trkpt><trkpt lat="42.43354850096988" lon="-8.668610974688114"><ele>54.0</ele><time>2026-04-05T15:42:51.001Z</time></trkpt><trkpt lat="42.43365274999206" lon="-8.66875251305757"><ele>54.0</ele><time>2026-04-05T15:42:52.001Z</time></trkpt><trkpt lat="42.43376470002658" lon="-8.668890856594276"><ele>54.0</ele><time>2026-04-05T15:42:53.001Z</time></trkpt><trkpt lat="42.4338759258461" lon="-8.669027217961098"><ele>54.0</ele><time>2026-04-05T15:42:54.001Z</time></trkpt><trkpt lat="42.433987836974275" lon="-8.6691651641987"><ele>54.0</ele><time>2026-04-05T15:42:55.001Z</time></trkpt><trkpt lat="42.4340997585349" lon="-8.669305958996567"><ele>53.33333333333333</ele><time>2026-04-05T15:42:56.001Z</time></trkpt><trkpt lat="42.43421379085854" lon="-8.669449146751896"><ele>52.666666666666664</ele><time>2026-04-05T15:42:57.001Z</time></trkpt><trkpt lat="42.434324999758644" lon="-8.669587750363434"><ele>52.0</ele><time>2026-04-05T15:42:58.001Z</time></trkpt><trkpt lat="42.43442968903576" lon="-8.669733355779831"><ele>52.0</ele><time>2026-04-05T15:42:59.001Z</time></trkpt><trkpt lat="42.43453544435075" lon="-8.669891769260014"><ele>52.0</ele><time>2026-04-05T15:43:00.001Z</time></trkpt><trkpt lat="42.43463334790257" lon="-8.670064634179512"><ele>52.0</ele><time>2026-04-05T15:43:01.001Z</time></trkpt><trkpt lat="42.43472827583168" lon="-8.670250340651267"><ele>54.33333333333333</ele><time>2026-04-05T15:43:02.001Z</time></trkpt><trkpt lat="42.43481687297467" lon="-8.670441732228248"><ele>56.66666666666667</ele><time>2026-04-05T15:43:03.001Z</time></trkpt><trkpt lat="42.43489776510008" lon="-8.670642019357363"><ele>59.0</ele><time>2026-04-05T15:43:04.001Z</time></trkpt><trkpt lat="42.43497379645123" lon="-8.670846431925385"><ele>59.0</ele><time>2026-04-05T15:43:05.001Z</time></trkpt><trkpt lat="42.43504830228291" lon="-8.671046652750348"><ele>59.0</ele><time>2026-04-05T15:43:06.001Z</time></trkpt><trkpt lat="42.43511701883221" lon="-8.671259808827479"><ele>59.0</ele><time>2026-04-05T15:43:07.001Z</time></trkpt><trkpt lat="42.43518059890619" lon="-8.671469752075936"><ele>58.333333333333336</ele><time>2026-04-05T15:43:08.001Z</time></trkpt><trkpt lat="42.43524602016252" lon="-8.671680879203093"><ele>57.66666666666667</ele><time>2026-04-05T15:43:09.001Z</time></trkpt><trkpt lat="42.43531254057365" lon="-8.671891834077755"><ele>57.0</ele><time>2026-04-05T15:43:10.001Z</time></trkpt><trkpt lat="42.435379633964615" lon="-8.672103854928652"><ele>56.0</ele><time>2026-04-05T15:43:11.001Z</time></trkpt><trkpt lat="42.435443662030586" lon="-8.67230984891762"><ele>55.0</ele><time>2026-04-05T15:43:12.001Z</time></trkpt><trkpt lat="42.43551040201297" lon="-8.67251433740472"><ele>54.0</ele><time>2026-04-05T15:43:13.001Z</time></trkpt><trkpt lat="42.43557553505823" lon="-8.672717711327419"><ele>58.66666666666667</ele><time>2026-04-05T15:43:14.001Z</time></trkpt><trkpt lat="42.43564849627426" lon="-8.672920159085614"><ele>63.333333333333336</ele><time>2026-04-05T15:43:15.001Z</time></trkpt><trkpt lat="42.43572568795754" lon="-8.673110521013827"><ele>68.0</ele><time>2026-04-05T15:43:16.001Z</time></trkpt><trkpt lat="42.435811105842944" lon="-8.673279124695641"><ele>68.0</ele><time>2026-04-05T15:43:17.001Z</time></trkpt><trkpt lat="42.43591347772423" lon="-8.67342994279924"><ele>68.0</ele><time>2026-04-05T15:43:18.001Z</time></trkpt><trkpt lat="42.43602575660827" lon="-8.673559485626186"><ele>68.0</ele><time>2026-04-05T15:43:19.001Z</time></trkpt><trkpt lat="42.43614054501408" lon="-8.673678880140985"><ele>68.0</ele><time>2026-04-05T15:43:20.001Z</time></trkpt><trkpt lat="42.43625907877474" lon="-8.673788673735006"><ele>70.0</ele><time>2026-04-05T15:43:21.001Z</time></trkpt><trkpt lat="42.436375101829505" lon="-8.673898140204718"><ele>72.0</ele><time>2026-04-05T15:43:22.001Z</time></trkpt><trkpt lat="42.4364874661812" lon="-8.674016402378014"><ele>74.0</ele><time>2026-04-05T15:43:23.001Z</time></trkpt><trkpt lat="42.43660249657968" lon="-8.674142585234856"><ele>76.0</ele><time>2026-04-05T15:43:24.001Z</time></trkpt><trkpt lat="42.436717332524964" lon="-8.674262755595924"><ele>76.0</ele><time>2026-04-05T15:43:25.001Z</time></trkpt><trkpt lat="42.43683116038145" lon="-8.674374280556377"><ele>76.0</ele><time>2026-04-05T15:43:26.001Z</time></trkpt><trkpt lat="42.436946516837146" lon="-8.674498100631135"><ele>76.0</ele><time>2026-04-05T15:43:27.001Z</time></trkpt><trkpt lat="42.437062522505485" lon="-8.674612733746718"><ele>76.0</ele><time>2026-04-05T15:43:28.001Z</time></trkpt><trkpt lat="42.43716945853329" lon="-8.674729776119037"><ele>75.5</ele><time>2026-04-05T15:43:29.001Z</time></trkpt><trkpt lat="42.43728462498696" lon="-8.674842545683095"><ele>75.0</ele><time>2026-04-05T15:43:30.001Z</time></trkpt><trkpt lat="42.43740078441417" lon="-8.67494898631488"><ele>74.5</ele><time>2026-04-05T15:43:31.001Z</time></trkpt><trkpt lat="42.43752127758406" lon="-8.675043154595542"><ele>74.0</ele><time>2026-04-05T15:43:32.001Z</time></trkpt><trkpt lat="42.437644885483785" lon="-8.675129330949947"><ele>74.0</ele><time>2026-04-05T15:43:33.001Z</time></trkpt><trkpt lat="42.437772499630185" lon="-8.67520588192695"><ele>74.0</ele><time>2026-04-05T15:43:34.001Z</time></trkpt><trkpt lat="42.43790028033414" lon="-8.675275425942967"><ele>74.0</ele><time>2026-04-05T15:43:35.001Z</time></trkpt><trkpt lat="42.438026467268664" lon="-8.675341605923201"><ele>74.0</ele><time>2026-04-05T15:43:36.001Z</time></trkpt><trkpt lat="42.43814672141093" lon="-8.675399091150092"><ele>73.0</ele><time>2026-04-05T15:43:37.001Z</time></trkpt><trkpt lat="42.43826445450584" lon="-8.67544698739835"><ele>72.0</ele><time>2026-04-05T15:43:38.001Z</time></trkpt><trkpt lat="42.438359601376256" lon="-8.67548639247328"><ele>71.0</ele><time>2026-04-05T15:43:39.001Z</time></trkpt><trkpt lat="42.43843368894366" lon="-8.675516531002721"><ele>70.0</ele><time>2026-04-05T15:43:40.001Z</time></trkpt><trkpt lat="42.438511403840295" lon="-8.675547213074715"><ele>69.0</ele><time>2026-04-05T15:43:41.001Z</time></trkpt><trkpt lat="42.43859594671836" lon="-8.675586797017052"><ele>69.0</ele><time>2026-04-05T15:43:42.001Z</time></trkpt><trkpt lat="42.43868784373882" lon="-8.675622910180934"><ele>69.0</ele><time>2026-04-05T15:43:43.001Z</time></trkpt><trkpt lat="42.43879061437944" lon="-8.675665581850444"><ele>69.0</ele><time>2026-04-05T15:43:44.001Z</time></trkpt><trkpt lat="42.438900382573365" lon="-8.675709104737766"><ele>69.0</ele><time>2026-04-05T15:43:45.001Z</time></trkpt><trkpt lat="42.43901667919823" lon="-8.675756534604334"><ele>69.0</ele><time>2026-04-05T15:43:46.001Z</time></trkpt><trkpt lat="42.439138265799066" lon="-8.675808893973926"><ele>67.5</ele><time>2026-04-05T15:43:47.001Z</time></trkpt><trkpt lat="42.439260690805234" lon="-8.675857246001172"><ele>66.0</ele><time>2026-04-05T15:43:48.001Z</time></trkpt><trkpt lat="42.43937807610431" lon="-8.675908984704938"><ele>64.5</ele><time>2026-04-05T15:43:49.001Z</time></trkpt><trkpt lat="42.43949475711758" lon="-8.675960730449862"><ele>63.0</ele><time>2026-04-05T15:43:50.001Z</time></trkpt><trkpt lat="42.43961401434896" lon="-8.676021787747967"><ele>61.75</ele><time>2026-04-05T15:43:51.001Z</time></trkpt><trkpt lat="42.439730766288335" lon="-8.67609575662217"><ele>60.5</ele><time>2026-04-05T15:43:52.001Z</time></trkpt><trkpt lat="42.43984336208893" lon="-8.676183999888957"><ele>59.25</ele><time>2026-04-05T15:43:53.001Z</time></trkpt><trkpt lat="42.43994986309269" lon="-8.676282699793648"><ele>58.0</ele><time>2026-04-05T15:43:54Z</time></trkpt><trkpt lat="42.44005369069361" lon="-8.67639676472689"><ele>58.0</ele><time>2026-04-05T15:43:55Z</time></trkpt><trkpt lat="42.44015143251494" lon="-8.676526074412564"><ele>58.0</ele><time>2026-04-05T15:43:56Z</time></trkpt><trkpt lat="42.440240357812456" lon="-8.676676188971859"><ele>58.0</ele><time>2026-04-05T15:43:57Z</time></trkpt><trkpt lat="42.44032763626836" lon="-8.676827560076594"><ele>58.0</ele><time>2026-04-05T15:43:58Z</time></trkpt><trkpt lat="42.44041732671402" lon="-8.676975019967175"><ele>55.0</ele><time>2026-04-05T15:43:59Z</time></trkpt><trkpt lat="42.44049750164192" lon="-8.677107026609326"><ele>52.0</ele><time>2026-04-05T15:44:00Z</time></trkpt><trkpt lat="42.4405729709053" lon="-8.677237935932553"><ele>49.0</ele><time>2026-04-05T15:44:01Z</time></trkpt><trkpt lat="42.44064606905487" lon="-8.677367706262867"><ele>46.0</ele><time>2026-04-05T15:44:02Z</time></trkpt><trkpt lat="42.440724151017015" lon="-8.67750033522838"><ele>46.0</ele><time>2026-04-05T15:44:03Z</time></trkpt><trkpt lat="42.440805196174985" lon="-8.677640462840973"><ele>46.0</ele><time>2026-04-05T15:44:04Z</time></trkpt><trkpt lat="42.44089296878158" lon="-8.677791407499946"><ele>46.0</ele><time>2026-04-05T15:44:05Z</time></trkpt><trkpt lat="42.44098661499229" lon="-8.677965323219047"><ele>46.0</ele><time>2026-04-05T15:44:06Z</time></trkpt><trkpt lat="42.441082337621445" lon="-8.678149072094387"><ele>45.0</ele><time>2026-04-05T15:44:07Z</time></trkpt><trkpt lat="42.441189178808514" lon="-8.67834029676355"><ele>44.0</ele><time>2026-04-05T15:44:08Z</time></trkpt><trkpt lat="42.44130681547726" lon="-8.678540956726371"><ele>43.0</ele><time>2026-04-05T15:44:09Z</time></trkpt><trkpt lat="42.441425255105756" lon="-8.678746109724894"><ele>41.66666666666667</ele><time>2026-04-05T15:44:10Z</time></trkpt><trkpt lat="42.441532354152294" lon="-8.678939927680057"><ele>40.333333333333336</ele><time>2026-04-05T15:44:11Z</time></trkpt><trkpt lat="42.44163894140548" lon="-8.67911568752465"><ele>39.0</ele><time>2026-04-05T15:44:12Z</time></trkpt><trkpt lat="42.44173145427172" lon="-8.679282853768635"><ele>39.0</ele><time>2026-04-05T15:44:13Z</time></trkpt><trkpt lat="42.44181374412218" lon="-8.679432476299182"><ele>39.0</ele><time>2026-04-05T15:44:14Z</time></trkpt><trkpt lat="42.44188951183817" lon="-8.679562216849153"><ele>39.0</ele><time>2026-04-05T15:44:15Z</time></trkpt><trkpt lat="42.441953919477655" lon="-8.679681874041796"><ele>39.0</ele><time>2026-04-05T15:44:16Z</time></trkpt><trkpt lat="42.44202647634398" lon="-8.679805142767172"><ele>38.6</ele><time>2026-04-05T15:44:17Z</time></trkpt><trkpt lat="42.44209368547145" lon="-8.679919750240334"><ele>38.2</ele><time>2026-04-05T15:44:18Z</time></trkpt><trkpt lat="42.4421564278927" lon="-8.68002700456287"><ele>37.800000000000004</ele><time>2026-04-05T15:44:19Z</time></trkpt><trkpt lat="42.44221673912418" lon="-8.680132433777343"><ele>37.4</ele><time>2026-04-05T15:44:20Z</time></trkpt><trkpt lat="42.4422782316093" lon="-8.680236747075709"><ele>37.0</ele><time>2026-04-05T15:44:21Z</time></trkpt><trkpt lat="42.442338627382405" lon="-8.680338291227736"><ele>36.2</ele><time>2026-04-05T15:44:22Z</time></trkpt><trkpt lat="42.44239847660739" lon="-8.680442499761172"><ele>35.400000000000006</ele><time>2026-04-05T15:44:23Z</time></trkpt><trkpt lat="42.44245647187619" lon="-8.680543458262495"><ele>34.599999999999994</ele><time>2026-04-05T15:44:24Z</time></trkpt><trkpt lat="42.442513166156296" lon="-8.680637667756917"><ele>33.8</ele><time>2026-04-05T15:44:25Z</time></trkpt><trkpt lat="42.44256884386606" lon="-8.680731336272034"><ele>33.0</ele><time>2026-04-05T15:44:26Z</time></trkpt><trkpt lat="42.44262519287043" lon="-8.680830219138013"><ele>33.0</ele><time>2026-04-05T15:44:27Z</time></trkpt><trkpt lat="42.442680282612606" lon="-8.680923837623498"><ele>33.0</ele><time>2026-04-05T15:44:28Z</time></trkpt><trkpt lat="42.442733558214044" lon="-8.681016514360982"><ele>33.0</ele><time>2026-04-05T15:44:29Z</time></trkpt><trkpt lat="42.44278170777156" lon="-8.681118720865193"><ele>33.0</ele><time>2026-04-05T15:44:30Z</time></trkpt><trkpt lat="42.44282509139603" lon="-8.68122974071499"><ele>33.0</ele><time>2026-04-05T15:44:31Z</time></trkpt><trkpt lat="42.44285212783804" lon="-8.681352271283245"><ele>32.6</ele><time>2026-04-05T15:44:32Z</time></trkpt><trkpt lat="42.44286698672765" lon="-8.681485346907662"><ele>32.199999999999996</ele><time>2026-04-05T15:44:33Z</time></trkpt><trkpt lat="42.44288175909925" lon="-8.68161203797687"><ele>31.8</ele><time>2026-04-05T15:44:34Z</time></trkpt><trkpt lat="42.44290099095061" lon="-8.681746401115312"><ele>31.4</ele><time>2026-04-05T15:44:35Z</time></trkpt><trkpt lat="42.44292135544926" lon="-8.681885714959"><ele>31.0</ele><time>2026-04-05T15:44:36Z</time></trkpt><trkpt lat="42.44293785284466" lon="-8.682023320832208"><ele>30.4</ele><time>2026-04-05T15:44:37Z</time></trkpt><trkpt lat="42.442955657922056" lon="-8.682153172866993"><ele>29.8</ele><time>2026-04-05T15:44:38Z</time></trkpt><trkpt lat="42.44297490975689" lon="-8.682277831864267"><ele>29.199999999999996</ele><time>2026-04-05T15:44:39Z</time></trkpt><trkpt lat="42.44299039901823" lon="-8.682420705574692"><ele>28.599999999999998</ele><time>2026-04-05T15:44:40Z</time></trkpt><trkpt lat="42.44300620019737" lon="-8.682566198999915"><ele>28.0</ele><time>2026-04-05T15:44:41Z</time></trkpt><trkpt lat="42.44302868810191" lon="-8.68271343223227"><ele>27.25</ele><time>2026-04-05T15:44:42Z</time></trkpt><trkpt lat="42.44305150626355" lon="-8.682859722123615"><ele>26.5</ele><time>2026-04-05T15:44:43Z</time></trkpt><trkpt lat="42.44306789062956" lon="-8.683016002586045"><ele>25.75</ele><time>2026-04-05T15:44:44Z</time></trkpt><trkpt lat="42.443085682733624" lon="-8.683174372284185"><ele>25.0</ele><time>2026-04-05T15:44:45Z</time></trkpt><trkpt lat="42.443105427667525" lon="-8.683315303048996"><ele>25.0</ele><time>2026-04-05T15:44:46Z</time></trkpt><trkpt lat="42.443127758244366" lon="-8.68345644606778"><ele>25.0</ele><time>2026-04-05T15:44:47Z</time></trkpt><trkpt lat="42.44314674677546" lon="-8.683595651039415"><ele>25.0</ele><time>2026-04-05T15:44:48Z</time></trkpt><trkpt lat="42.44316550330045" lon="-8.683731712815222"><ele>25.0</ele><time>2026-04-05T15:44:49Z</time></trkpt><trkpt lat="42.443184658865945" lon="-8.683889682827218"><ele>25.0</ele><time>2026-04-05T15:44:50Z</time></trkpt><trkpt lat="42.44321791244802" lon="-8.684057489274018"><ele>25.25</ele><time>2026-04-05T15:44:51Z</time></trkpt><trkpt lat="42.443242379632125" lon="-8.684241770476701"><ele>25.5</ele><time>2026-04-05T15:44:52Z</time></trkpt><trkpt lat="42.44325012378167" lon="-8.684442586434379"><ele>25.75</ele><time>2026-04-05T15:44:53Z</time></trkpt><trkpt lat="42.44323332761993" lon="-8.684648509130142"><ele>26.0</ele><time>2026-04-05T15:44:54Z</time></trkpt><trkpt lat="42.44318817157144" lon="-8.684854777935072"><ele>27.0</ele><time>2026-04-05T15:44:55Z</time></trkpt><trkpt lat="42.44311569695825" lon="-8.685057130110952"><ele>28.0</ele><time>2026-04-05T15:44:56.001Z</time></trkpt><trkpt lat="42.44302071424044" lon="-8.685253662435885"><ele>29.0</ele><time>2026-04-05T15:44:57.001Z</time></trkpt><trkpt lat="42.442914335213324" lon="-8.685452614714913"><ele>27.0</ele><time>2026-04-05T15:44:58.001Z</time></trkpt><trkpt lat="42.44281090777871" lon="-8.685651481740733"><ele>25.0</ele><time>2026-04-05T15:44:59.001Z</time></trkpt><trkpt lat="42.44272038145711" lon="-8.685845351996464"><ele>23.0</ele><time>2026-04-05T15:45:00.001Z</time></trkpt><trkpt lat="42.44264024594418" lon="-8.686042302096293"><ele>21.0</ele><time>2026-04-05T15:45:01.001Z</time></trkpt><trkpt lat="42.44257572882695" lon="-8.686254017721062"><ele>19.0</ele><time>2026-04-05T15:45:02.001Z</time></trkpt><trkpt lat="42.442547729503" lon="-8.686499427908188"><ele>17.0</ele><time>2026-04-05T15:45:03.001Z</time></trkpt><trkpt lat="42.442563899178694" lon="-8.686753140490287"><ele>15.333333333333334</ele><time>2026-04-05T15:45:04.001Z</time></trkpt><trkpt lat="42.44259300255127" lon="-8.687010711741753"><ele>13.666666666666668</ele><time>2026-04-05T15:45:05.001Z</time></trkpt><trkpt lat="42.44261882021773" lon="-8.687239907853552"><ele>12.0</ele><time>2026-04-05T15:45:06.001Z</time></trkpt><trkpt lat="42.44264030247913" lon="-8.687436420616068"><ele>12.0</ele><time>2026-04-05T15:45:07.001Z</time></trkpt><trkpt lat="42.442661866351465" lon="-8.68759184391485"><ele>12.0</ele><time>2026-04-05T15:45:08.001Z</time></trkpt><trkpt lat="42.44268293557951" lon="-8.68772820373895"><ele>12.0</ele><time>2026-04-05T15:45:09.001Z</time></trkpt><trkpt lat="42.44271034703796" lon="-8.687874469639349"><ele>12.0</ele><time>2026-04-05T15:45:10.001Z</time></trkpt><trkpt lat="42.44273502841044" lon="-8.688008804901964"><ele>12.0</ele><time>2026-04-05T15:45:11.001Z</time></trkpt><trkpt lat="42.44277408624055" lon="-8.688106344648588"><ele>12.25</ele><time>2026-04-05T15:45:12.001Z</time></trkpt><trkpt lat="42.44273528837697" lon="-8.688242894629763"><ele>12.5</ele><time>2026-04-05T15:45:13.001Z</time></trkpt><trkpt lat="42.44269214176233" lon="-8.688403343799354"><ele>12.75</ele><time>2026-04-05T15:45:14.001Z</time></trkpt><trkpt lat="42.44266679058158" lon="-8.688582551437"><ele>13.0</ele><time>2026-04-05T15:45:15.001Z</time></trkpt><trkpt lat="42.442621304628105" lon="-8.688742679067069"><ele>13.0</ele><time>2026-04-05T15:45:16.001Z</time></trkpt><trkpt lat="42.44256376655273" lon="-8.68889285507115"><ele>13.0</ele><time>2026-04-05T15:45:17.001Z</time></trkpt><trkpt lat="42.4425035902012" lon="-8.689040271164242"><ele>13.0</ele><time>2026-04-05T15:45:18.001Z</time></trkpt><trkpt lat="42.442430185835995" lon="-8.689198344182053"><ele>13.0</ele><time>2026-04-05T15:45:19.001Z</time></trkpt><trkpt lat="42.44236113119639" lon="-8.689368526989568"><ele>13.0</ele><time>2026-04-05T15:45:20.001Z</time></trkpt><trkpt lat="42.44229379343295" lon="-8.689541820447976"><ele>13.0</ele><time>2026-04-05T15:45:21.001Z</time></trkpt><trkpt lat="42.44222395840535" lon="-8.689715587697972"><ele>13.0</ele><time>2026-04-05T15:45:22.001Z</time></trkpt><trkpt lat="42.44215428094325" lon="-8.689891276065174"><ele>13.0</ele><time>2026-04-05T15:45:23.001Z</time></trkpt><trkpt lat="42.44208283526134" lon="-8.690065764036078"><ele>13.0</ele><time>2026-04-05T15:45:24.001Z</time></trkpt><trkpt lat="42.44201360527024" lon="-8.69023401037277"><ele>13.0</ele><time>2026-04-05T15:45:25.001Z</time></trkpt><trkpt lat="42.44194251101448" lon="-8.690398887822191"><ele>13.0</ele><time>2026-04-05T15:45:26.001Z</time></trkpt><trkpt lat="42.44187650074414" lon="-8.690570594871126"><ele>13.0</ele><time>2026-04-05T15:45:27.001Z</time></trkpt><trkpt lat="42.44180592720837" lon="-8.69073474852287"><ele>13.0</ele><time>2026-04-05T15:45:28.001Z</time></trkpt><trkpt lat="42.44173110496311" lon="-8.69089393955323"><ele>13.0</ele><time>2026-04-05T15:45:29.001Z</time></trkpt><trkpt lat="42.441653973939026" lon="-8.691048067436595"><ele>13.0</ele><time>2026-04-05T15:45:30.001Z</time></trkpt><trkpt lat="42.44156688438223" lon="-8.691200465197044"><ele>13.0</ele><time>2026-04-05T15:45:31.001Z</time></trkpt><trkpt lat="42.441470255672925" lon="-8.691340179296986"><ele>13.5</ele><time>2026-04-05T15:45:32.001Z</time></trkpt><trkpt lat="42.44136194138896" lon="-8.691479170722657"><ele>14.0</ele><time>2026-04-05T15:45:33.001Z</time></trkpt><trkpt lat="42.44124961046159" lon="-8.691611670758697"><ele>14.5</ele><time>2026-04-05T15:45:34Z</time></trkpt><trkpt lat="42.441146103240506" lon="-8.691729177987497"><ele>15.0</ele><time>2026-04-05T15:45:35Z</time></trkpt><trkpt lat="42.44104297114669" lon="-8.69186046250428"><ele>13.5</ele><time>2026-04-05T15:45:36Z</time></trkpt><trkpt lat="42.44094852108707" lon="-8.691974735961576"><ele>12.0</ele><time>2026-04-05T15:45:37Z</time></trkpt><trkpt lat="42.440853838641665" lon="-8.6920889878471"><ele>10.5</ele><time>2026-04-05T15:45:38Z</time></trkpt><trkpt lat="42.44076849894005" lon="-8.692194456787252"><ele>9.0</ele><time>2026-04-05T15:45:39Z</time></trkpt><trkpt lat="42.440689221026034" lon="-8.692299843631428"><ele>9.0</ele><time>2026-04-05T15:45:40Z</time></trkpt><trkpt lat="42.44062384155415" lon="-8.692404226993427"><ele>9.0</ele><time>2026-04-05T15:45:41Z</time></trkpt><trkpt lat="42.44058176451442" lon="-8.692518311076112"><ele>9.0</ele><time>2026-04-05T15:45:42Z</time></trkpt><trkpt lat="42.44052608878894" lon="-8.692595139075483"><ele>9.0</ele><time>2026-04-05T15:45:43Z</time></trkpt><trkpt lat="42.44045027930466" lon="-8.692704764369772"><ele>9.0</ele><time>2026-04-05T15:45:44Z</time></trkpt><trkpt lat="42.44033934867338" lon="-8.692762471581545"><ele>8.25</ele><time>2026-04-05T15:45:45Z</time></trkpt><trkpt lat="42.44022573855661" lon="-8.692849593435568"><ele>7.5</ele><time>2026-04-05T15:45:46Z</time></trkpt><trkpt lat="42.44011965126755" lon="-8.692976585514181"><ele>6.75</ele><time>2026-04-05T15:45:47Z</time></trkpt><trkpt lat="42.44000940479097" lon="-8.693120098529548"><ele>6.0</ele><time>2026-04-05T15:45:48Z</time></trkpt><trkpt lat="42.439894626754715" lon="-8.693266707713692"><ele>6.0</ele><time>2026-04-05T15:45:49Z</time></trkpt><trkpt lat="42.43977031554403" lon="-8.69341460574281"><ele>6.0</ele><time>2026-04-05T15:45:50Z</time></trkpt><trkpt lat="42.4396450412532" lon="-8.693572355777478"><ele>6.0</ele><time>2026-04-05T15:45:51Z</time></trkpt><trkpt lat="42.43951349579627" lon="-8.693732438141527"><ele>6.666666666666666</ele><time>2026-04-05T15:45:52Z</time></trkpt><trkpt lat="42.43937948302244" lon="-8.693893658800622"><ele>7.333333333333333</ele><time>2026-04-05T15:45:53Z</time></trkpt><trkpt lat="42.43924446025801" lon="-8.694057374019525"><ele>8.0</ele><time>2026-04-05T15:45:54Z</time></trkpt><trkpt lat="42.43910743510928" lon="-8.694223950433026"><ele>8.0</ele><time>2026-04-05T15:45:55Z</time></trkpt><trkpt lat="42.438969234903844" lon="-8.694392659460133"><ele>8.0</ele><time>2026-04-05T15:45:56Z</time></trkpt><trkpt lat="42.438830255071366" lon="-8.69456647559601"><ele>8.0</ele><time>2026-04-05T15:45:57Z</time></trkpt><trkpt lat="42.438688735991185" lon="-8.694741673211546"><ele>8.666666666666666</ele><time>2026-04-05T15:45:58Z</time></trkpt><trkpt lat="42.43854345111189" lon="-8.694917876844698"><ele>9.333333333333334</ele><time>2026-04-05T15:45:59Z</time></trkpt><trkpt lat="42.43839763236065" lon="-8.695095411342328"><ele>10.0</ele><time>2026-04-05T15:46:00Z</time></trkpt><trkpt lat="42.43825086039498" lon="-8.69528082269153"><ele>10.0</ele><time>2026-04-05T15:46:01Z</time></trkpt><trkpt lat="42.43810019188028" lon="-8.69547131479976"><ele>10.0</ele><time>2026-04-05T15:46:02Z</time></trkpt><trkpt lat="42.43794703583476" lon="-8.69566109884655"><ele>10.0</ele><time>2026-04-05T15:46:03Z</time></trkpt><trkpt lat="42.437792830687954" lon="-8.695845691414306"><ele>10.0</ele><time>2026-04-05T15:46:04Z</time></trkpt><trkpt lat="42.43763786599528" lon="-8.696035007220846"><ele>10.0</ele><time>2026-04-05T15:46:05Z</time></trkpt><trkpt lat="42.43748350172943" lon="-8.696225790412155"><ele>10.0</ele><time>2026-04-05T15:46:06Z</time></trkpt><trkpt lat="42.4373298992547" lon="-8.696417687086814"><ele>9.333333333333334</ele><time>2026-04-05T15:46:07Z</time></trkpt><trkpt lat="42.437182485762655" lon="-8.696588188844675"><ele>8.666666666666666</ele><time>2026-04-05T15:46:08Z</time></trkpt><trkpt lat="42.43704433019201" lon="-8.69674700687817"><ele>8.0</ele><time>2026-04-05T15:46:09Z</time></trkpt><trkpt lat="42.43691537811717" lon="-8.696900640701386"><ele>9.333333333333332</ele><time>2026-04-05T15:46:10Z</time></trkpt><trkpt lat="42.43679158189984" lon="-8.697049361098614"><ele>10.666666666666666</ele><time>2026-04-05T15:46:11Z</time></trkpt><trkpt lat="42.436677400131394" lon="-8.697192071091576"><ele>12.0</ele><time>2026-04-05T15:46:12Z</time></trkpt><trkpt lat="42.43657079579841" lon="-8.697327841546473"><ele>12.0</ele><time>2026-04-05T15:46:13Z</time></trkpt><trkpt lat="42.43646966778245" lon="-8.697462902606556"><ele>12.0</ele><time>2026-04-05T15:46:14Z</time></trkpt><trkpt lat="42.43637671583187" lon="-8.697587930885144"><ele>12.0</ele><time>2026-04-05T15:46:15Z</time></trkpt><trkpt lat="42.43628652685096" lon="-8.697720436463566"><ele>12.0</ele><time>2026-04-05T15:46:16Z</time></trkpt><trkpt lat="42.43620778519806" lon="-8.697859992794454"><ele>10.25</ele><time>2026-04-05T15:46:17Z</time></trkpt><trkpt lat="42.43614471729249" lon="-8.698007296504823"><ele>8.5</ele><time>2026-04-05T15:46:18Z</time></trkpt><trkpt lat="42.43609177302433" lon="-8.69814818968598"><ele>6.75</ele><time>2026-04-05T15:46:19Z</time></trkpt><trkpt lat="42.43604797655313" lon="-8.698287994702337"><ele>5.0</ele><time>2026-04-05T15:46:20Z</time></trkpt><trkpt lat="42.436013849490884" lon="-8.69842374246709"><ele>5.0</ele><time>2026-04-05T15:46:21Z</time></trkpt><trkpt lat="42.43597924091989" lon="-8.69855904441521"><ele>5.0</ele><time>2026-04-05T15:46:22Z</time></trkpt><trkpt lat="42.43595083134138" lon="-8.698683069984403"><ele>5.0</ele><time>2026-04-05T15:46:23Z</time></trkpt><trkpt lat="42.435929707931415" lon="-8.698781087664957"><ele>5.0</ele><time>2026-04-05T15:46:24Z</time></trkpt><trkpt lat="42.435919624207266" lon="-8.698869710323239"><ele>5.0</ele><time>2026-04-05T15:46:25Z</time></trkpt><trkpt lat="42.43590671920556" lon="-8.69897126314808"><ele>5.0</ele><time>2026-04-05T15:46:26Z</time></trkpt><trkpt lat="42.4358871258161" lon="-8.699080561941718"><ele>5.666666666666667</ele><time>2026-04-05T15:46:27Z</time></trkpt><trkpt lat="42.435861799460554" lon="-8.699190651771705"><ele>6.333333333333334</ele><time>2026-04-05T15:46:28Z</time></trkpt><trkpt lat="42.435839181181684" lon="-8.69930379896296"><ele>7.0</ele><time>2026-04-05T15:46:29Z</time></trkpt><trkpt lat="42.43581977002287" lon="-8.69941521935518"><ele>7.666666666666667</ele><time>2026-04-05T15:46:30Z</time></trkpt><trkpt lat="42.43580381236262" lon="-8.699519327827907"><ele>8.333333333333334</ele><time>2026-04-05T15:46:31Z</time></trkpt><trkpt lat="42.43578870096901" lon="-8.69961744194355"><ele>9.0</ele><time>2026-04-05T15:46:32Z</time></trkpt><trkpt lat="42.4357725770095" lon="-8.69972537166984"><ele>9.2</ele><time>2026-04-05T15:46:33Z</time></trkpt><trkpt lat="42.435753552978625" lon="-8.699845352039484"><ele>9.4</ele><time>2026-04-05T15:46:34Z</time></trkpt><trkpt lat="42.435734886382605" lon="-8.699968397940337"><ele>9.6</ele><time>2026-04-05T15:46:35Z</time></trkpt><trkpt lat="42.43571395805764" lon="-8.700090290887585"><ele>9.8</ele><time>2026-04-05T15:46:36Z</time></trkpt><trkpt lat="42.435695937824924" lon="-8.700213582364185"><ele>10.0</ele><time>2026-04-05T15:46:37Z</time></trkpt><trkpt lat="42.43567361549969" lon="-8.70034221863422"><ele>10.25</ele><time>2026-04-05T15:46:38Z</time></trkpt><trkpt lat="42.43564798671204" lon="-8.700477786058215"><ele>10.5</ele><time>2026-04-05T15:46:39Z</time></trkpt><trkpt lat="42.43562469664062" lon="-8.700616376666401"><ele>10.75</ele><time>2026-04-05T15:46:40Z</time></trkpt><trkpt lat="42.43559816625992" lon="-8.700771003959517"><ele>11.0</ele><time>2026-04-05T15:46:41Z</time></trkpt><trkpt lat="42.435567580951336" lon="-8.70094557209063"><ele>11.5</ele><time>2026-04-05T15:46:42Z</time></trkpt><trkpt lat="42.43553836924843" lon="-8.701122095420137"><ele>12.0</ele><time>2026-04-05T15:46:43Z</time></trkpt><trkpt lat="42.43551418129327" lon="-8.701282988366938"><ele>12.5</ele><time>2026-04-05T15:46:44Z</time></trkpt><trkpt lat="42.43549159427931" lon="-8.701427948856729"><ele>13.0</ele><time>2026-04-05T15:46:45Z</time></trkpt><trkpt lat="42.43546993413303" lon="-8.701560487353811"><ele>11.6</ele><time>2026-04-05T15:46:46Z</time></trkpt><trkpt lat="42.43544771227781" lon="-8.701683583782167"><ele>10.200000000000001</ele><time>2026-04-05T15:46:47Z</time></trkpt><trkpt lat="42.435428418806964" lon="-8.701809011792662"><ele>8.8</ele><time>2026-04-05T15:46:48Z</time></trkpt><trkpt lat="42.43541066806365" lon="-8.701938161787977"><ele>7.4</ele><time>2026-04-05T15:46:49Z</time></trkpt><trkpt lat="42.43539185179053" lon="-8.702062446606204"><ele>6.0</ele><time>2026-04-05T15:46:50Z</time></trkpt><trkpt lat="42.435371903313076" lon="-8.70218804833962"><ele>6.0</ele><time>2026-04-05T15:46:51Z</time></trkpt><trkpt lat="42.43535381756297" lon="-8.702305642879525"><ele>6.0</ele><time>2026-04-05T15:46:52Z</time></trkpt><trkpt lat="42.4353347906045" lon="-8.702422345592703"><ele>6.0</ele><time>2026-04-05T15:46:53Z</time></trkpt><trkpt lat="42.43532356048259" lon="-8.702533393460033"><ele>6.0</ele><time>2026-04-05T15:46:54Z</time></trkpt><trkpt lat="42.43531678303267" lon="-8.702639183666587"><ele>6.0</ele><time>2026-04-05T15:46:55Z</time></trkpt><trkpt lat="42.43531652888203" lon="-8.702740649934617"><ele>6.0</ele><time>2026-04-05T15:46:56Z</time></trkpt><trkpt lat="42.43532543810679" lon="-8.702834513482381"><ele>6.0</ele><time>2026-04-05T15:46:57Z</time></trkpt><trkpt lat="42.43533144574701" lon="-8.702934315051102"><ele>6.0</ele><time>2026-04-05T15:46:58Z</time></trkpt><trkpt lat="42.43532330960028" lon="-8.703037108844532"><ele>6.0</ele><time>2026-04-05T15:46:59Z</time></trkpt><trkpt lat="42.43528826697643" lon="-8.703137666695484"><ele>6.0</ele><time>2026-04-05T15:47:00Z</time></trkpt><trkpt lat="42.43522756750444" lon="-8.703232220640762"><ele>6.0</ele><time>2026-04-05T15:47:01Z</time></trkpt><trkpt lat="42.43517219510531" lon="-8.703335677756588"><ele>6.0</ele><time>2026-04-05T15:47:02.001Z</time></trkpt><trkpt lat="42.43514773723633" lon="-8.70344745239634"><ele>6.0</ele><time>2026-04-05T15:47:03.001Z</time></trkpt><trkpt lat="42.43513141112537" lon="-8.703550928851778"><ele>6.0</ele><time>2026-04-05T15:47:04.001Z</time></trkpt><trkpt lat="42.435114554771744" lon="-8.7036623029966"><ele>6.0</ele><time>2026-04-05T15:47:05.001Z</time></trkpt><trkpt lat="42.43509366206535" lon="-8.703782903690517"><ele>6.0</ele><time>2026-04-05T15:47:06.001Z</time></trkpt><trkpt lat="42.43507131485435" lon="-8.7039050534046"><ele>6.0</ele><time>2026-04-05T15:47:07.001Z</time></trkpt><trkpt lat="42.43504905405198" lon="-8.704033007788482"><ele>6.0</ele><time>2026-04-05T15:47:08.001Z</time></trkpt><trkpt lat="42.43502618262344" lon="-8.704169957575049"><ele>6.6</ele><time>2026-04-05T15:47:09.001Z</time></trkpt><trkpt lat="42.43500228314575" lon="-8.704313068545588"><ele>7.199999999999999</ele><time>2026-04-05T15:47:10.001Z</time></trkpt><trkpt lat="42.43497806063908" lon="-8.704453264516973"><ele>7.800000000000001</ele><time>2026-04-05T15:47:11.001Z</time></trkpt><trkpt lat="42.434954598917855" lon="-8.704591834991527"><ele>8.4</ele><time>2026-04-05T15:47:12.001Z</time></trkpt><trkpt lat="42.43493225845367" lon="-8.70471901943934"><ele>9.0</ele><time>2026-04-05T15:47:13.001Z</time></trkpt><trkpt lat="42.43491234260229" lon="-8.704845216170426"><ele>9.5</ele><time>2026-04-05T15:47:14.001Z</time></trkpt><trkpt lat="42.43489082761977" lon="-8.704969162774427"><ele>10.0</ele><time>2026-04-05T15:47:15.001Z</time></trkpt><trkpt lat="42.434862298480375" lon="-8.705087650573487"><ele>10.5</ele><time>2026-04-05T15:47:16.001Z</time></trkpt><trkpt lat="42.43482937414034" lon="-8.705190269447503"><ele>11.0</ele><time>2026-04-05T15:47:17.001Z</time></trkpt><trkpt lat="42.434787639146386" lon="-8.705286387974775"><ele>11.5</ele><time>2026-04-05T15:47:18.001Z</time></trkpt><trkpt lat="42.434743857878104" lon="-8.705378431602979"><ele>12.0</ele><time>2026-04-05T15:47:19.001Z</time></trkpt><trkpt lat="42.43470209331426" lon="-8.705462781128125"><ele>12.142857142857142</ele><time>2026-04-05T15:47:20.001Z</time></trkpt><trkpt lat="42.43465855555564" lon="-8.705534200865536"><ele>12.285714285714285</ele><time>2026-04-05T15:47:21.001Z</time></trkpt><trkpt lat="42.434610883267794" lon="-8.70560231368501"><ele>12.428571428571427</ele><time>2026-04-05T15:47:22.001Z</time></trkpt><trkpt lat="42.4345597104725" lon="-8.705671642139215"><ele>12.571428571428571</ele><time>2026-04-05T15:47:23.001Z</time></trkpt><trkpt lat="42.43450027113716" lon="-8.705741209034452"><ele>12.714285714285715</ele><time>2026-04-05T15:47:24.001Z</time></trkpt><trkpt lat="42.434436514375854" lon="-8.705798746030306"><ele>12.857142857142856</ele><time>2026-04-05T15:47:25.001Z</time></trkpt><trkpt lat="42.434373238304126" lon="-8.70584521205278"><ele>13.0</ele><time>2026-04-05T15:47:26.001Z</time></trkpt><trkpt lat="42.43429998864362" lon="-8.70589123506395"><ele>12.999999999999998</ele><time>2026-04-05T15:47:27.001Z</time></trkpt><trkpt lat="42.43421776543369" lon="-8.705948967321472"><ele>13.0</ele><time>2026-04-05T15:47:28Z</time></trkpt><trkpt lat="42.434139906600635" lon="-8.706000243898188"><ele>13.0</ele><time>2026-04-05T15:47:29Z</time></trkpt><trkpt lat="42.434071765779315" lon="-8.706044717399447"><ele>13.0</ele><time>2026-04-05T15:47:30Z</time></trkpt><trkpt lat="42.43400078513986" lon="-8.70609115406554"><ele>12.999999999999998</ele><time>2026-04-05T15:47:31Z</time></trkpt><trkpt lat="42.433922296765" lon="-8.706139055756484"><ele>13.0</ele><time>2026-04-05T15:47:32Z</time></trkpt><trkpt lat="42.43384221146863" lon="-8.706196111808937"><ele>13.600000000000001</ele><time>2026-04-05T15:47:33Z</time></trkpt><trkpt lat="42.43375711333873" lon="-8.706253024418569"><ele>14.200000000000001</ele><time>2026-04-05T15:47:34Z</time></trkpt><trkpt lat="42.43367101755512" lon="-8.706308461066323"><ele>14.8</ele><time>2026-04-05T15:47:35Z</time></trkpt><trkpt lat="42.43358387227605" lon="-8.706366233811877"><ele>15.4</ele><time>2026-04-05T15:47:36Z</time></trkpt><trkpt lat="42.43349908031786" lon="-8.706423929996324"><ele>16.0</ele><time>2026-04-05T15:47:37Z</time></trkpt><trkpt lat="42.433416321555924" lon="-8.706480204221624"><ele>16.0</ele><time>2026-04-05T15:47:38Z</time></trkpt><trkpt lat="42.43333181723068" lon="-8.706536853703412"><ele>16.0</ele><time>2026-04-05T15:47:39Z</time></trkpt><trkpt lat="42.43324861127387" lon="-8.706595926390303"><ele>16.0</ele><time>2026-04-05T15:47:40Z</time></trkpt><trkpt lat="42.43316282872474" lon="-8.706656080048727"><ele>16.0</ele><time>2026-04-05T15:47:41Z</time></trkpt><trkpt lat="42.433073122925265" lon="-8.706718606272556"><ele>16.0</ele><time>2026-04-05T15:47:42Z</time></trkpt><trkpt lat="42.43297477009286" lon="-8.706777108872984"><ele>16.0</ele><time>2026-04-05T15:47:43Z</time></trkpt><trkpt lat="42.43287602675825" lon="-8.706840362037694"><ele>16.0</ele><time>2026-04-05T15:47:44Z</time></trkpt><trkpt lat="42.43278034103964" lon="-8.706902329146653"><ele>16.0</ele><time>2026-04-05T15:47:45Z</time></trkpt><trkpt lat="42.43268756214355" lon="-8.706963135965061"><ele>16.0</ele><time>2026-04-05T15:47:46Z</time></trkpt><trkpt lat="42.43259291269022" lon="-8.707029852649969"><ele>16.0</ele><time>2026-04-05T15:47:47Z</time></trkpt><trkpt lat="42.432502691167144" lon="-8.707090292107155"><ele>15.999999999999998</ele><time>2026-04-05T15:47:48Z</time></trkpt><trkpt lat="42.432426367015836" lon="-8.707149020964174"><ele>16.0</ele><time>2026-04-05T15:47:49Z</time></trkpt><trkpt lat="42.43235341769736" lon="-8.70719642173597"><ele>16.0</ele><time>2026-04-05T15:47:50Z</time></trkpt><trkpt lat="42.432288938163936" lon="-8.707245719322616"><ele>16.0</ele><time>2026-04-05T15:47:51Z</time></trkpt><trkpt lat="42.43221836637948" lon="-8.707305174324587"><ele>15.999999999999998</ele><time>2026-04-05T15:47:52Z</time></trkpt><trkpt lat="42.43213074653829" lon="-8.707385098191066"><ele>16.0</ele><time>2026-04-05T15:47:53Z</time></trkpt><trkpt lat="42.4320296594437" lon="-8.707465514308673"><ele>16.25</ele><time>2026-04-05T15:47:54Z</time></trkpt><trkpt lat="42.43190680749588" lon="-8.707537933019147"><ele>16.5</ele><time>2026-04-05T15:47:55Z</time></trkpt><trkpt lat="42.43177960952438" lon="-8.707593482706146"><ele>16.75</ele><time>2026-04-05T15:47:56Z</time></trkpt><trkpt lat="42.43164937042134" lon="-8.707626165726989"><ele>17.0</ele><time>2026-04-05T15:47:57Z</time></trkpt><trkpt lat="42.43151424204401" lon="-8.707627620483121"><ele>17.0</ele><time>2026-04-05T15:47:58Z</time></trkpt><trkpt lat="42.43137542933768" lon="-8.707590204724232"><ele>17.0</ele><time>2026-04-05T15:47:59Z</time></trkpt><trkpt lat="42.43124056152265" lon="-8.707509051188637"><ele>17.0</ele><time>2026-04-05T15:48:00Z</time></trkpt><trkpt lat="42.4311197418195" lon="-8.707403789219983"><ele>17.0</ele><time>2026-04-05T15:48:01Z</time></trkpt><trkpt lat="42.431027114259905" lon="-8.707285687779432"><ele>16.25</ele><time>2026-04-05T15:48:02Z</time></trkpt><trkpt lat="42.43093110053155" lon="-8.707184051907877"><ele>15.5</ele><time>2026-04-05T15:48:03Z</time></trkpt><trkpt lat="42.43085109052541" lon="-8.707075513443854"><ele>14.75</ele><time>2026-04-05T15:48:04Z</time></trkpt><trkpt lat="42.4307736815509" lon="-8.706967604420667"><ele>14.0</ele><time>2026-04-05T15:48:05Z</time></trkpt><trkpt lat="42.43069076783766" lon="-8.706852294651187"><ele>14.0</ele><time>2026-04-05T15:48:06Z</time></trkpt><trkpt lat="42.430608329236776" lon="-8.706738133376446"><ele>13.999999999999998</ele><time>2026-04-05T15:48:07Z</time></trkpt><trkpt lat="42.430531615721435" lon="-8.706635545290306"><ele>13.999999999999998</ele><time>2026-04-05T15:48:08Z</time></trkpt><trkpt lat="42.43045206546706" lon="-8.706542922226452"><ele>14.0</ele><time>2026-04-05T15:48:09Z</time></trkpt><trkpt lat="42.4303742079189" lon="-8.706449710964083"><ele>14.0</ele><time>2026-04-05T15:48:10Z</time></trkpt><trkpt lat="42.4302726052872" lon="-8.706404825005157"><ele>15.75</ele><time>2026-04-05T15:48:11Z</time></trkpt><trkpt lat="42.430158642090284" lon="-8.706393570017271"><ele>17.5</ele><time>2026-04-05T15:48:12Z</time></trkpt><trkpt lat="42.43003959642726" lon="-8.706428942820233"><ele>19.25</ele><time>2026-04-05T15:48:13Z</time></trkpt><trkpt lat="42.42992824876465" lon="-8.706491047134106"><ele>21.0</ele><time>2026-04-05T15:48:14Z</time></trkpt><trkpt lat="42.42981479031646" lon="-8.706578108666234"><ele>21.0</ele><time>2026-04-05T15:48:15Z</time></trkpt><trkpt lat="42.42970116702951" lon="-8.706668315511989"><ele>21.0</ele><time>2026-04-05T15:48:16Z</time></trkpt><trkpt lat="42.42959102233129" lon="-8.706759218032174"><ele>21.0</ele><time>2026-04-05T15:48:17Z</time></trkpt><trkpt lat="42.4294885722648" lon="-8.706849833054"><ele>21.0</ele><time>2026-04-05T15:48:18Z</time></trkpt><trkpt lat="42.4293875156256" lon="-8.706938872453728"><ele>21.25</ele><time>2026-04-05T15:48:19Z</time></trkpt><trkpt lat="42.429285146209686" lon="-8.70702882913948"><ele>21.5</ele><time>2026-04-05T15:48:20Z</time></trkpt><trkpt lat="42.42918154892363" lon="-8.707118595045893"><ele>21.75</ele><time>2026-04-05T15:48:21Z</time></trkpt><trkpt lat="42.429071022980786" lon="-8.707208722843177"><ele>22.0</ele><time>2026-04-05T15:48:22Z</time></trkpt><trkpt lat="42.428965264501755" lon="-8.707300902181586"><ele>22.0</ele><time>2026-04-05T15:48:23Z</time></trkpt><trkpt lat="42.42885895044076" lon="-8.707391144610884"><ele>22.0</ele><time>2026-04-05T15:48:24Z</time></trkpt><trkpt lat="42.42875652949614" lon="-8.707483231404897"><ele>22.0</ele><time>2026-04-05T15:48:25Z</time></trkpt><trkpt lat="42.42865943810736" lon="-8.707575357578039"><ele>22.0</ele><time>2026-04-05T15:48:26Z</time></trkpt><trkpt lat="42.428555441920615" lon="-8.707668916621163"><ele>20.75</ele><time>2026-04-05T15:48:27Z</time></trkpt><trkpt lat="42.42845145194422" lon="-8.707763799790627"><ele>19.5</ele><time>2026-04-05T15:48:28Z</time></trkpt><trkpt lat="42.42834868237074" lon="-8.707850565898616"><ele>18.25</ele><time>2026-04-05T15:48:29Z</time></trkpt><trkpt lat="42.428249497134054" lon="-8.707928857880592"><ele>17.0</ele><time>2026-04-05T15:48:30Z</time></trkpt><trkpt lat="42.42814555790427" lon="-8.707993073207515"><ele>17.0</ele><time>2026-04-05T15:48:31Z</time></trkpt><trkpt lat="42.42803486283968" lon="-8.7080602102333"><ele>17.0</ele><time>2026-04-05T15:48:32Z</time></trkpt><trkpt lat="42.42793167927386" lon="-8.708124678456953"><ele>17.0</ele><time>2026-04-05T15:48:33Z</time></trkpt><trkpt lat="42.42781166435068" lon="-8.708191039239743"><ele>17.0</ele><time>2026-04-05T15:48:34Z</time></trkpt><trkpt lat="42.42767674592679" lon="-8.708261642711213"><ele>15.333333333333334</ele><time>2026-04-05T15:48:35Z</time></trkpt><trkpt lat="42.4275294535833" lon="-8.70832725748047"><ele>13.666666666666668</ele><time>2026-04-05T15:48:36Z</time></trkpt><trkpt lat="42.42737115188476" lon="-8.708389659881616"><ele>12.0</ele><time>2026-04-05T15:48:37Z</time></trkpt><trkpt lat="42.427208752937204" lon="-8.708453379954223"><ele>11.333333333333334</ele><time>2026-04-05T15:48:38Z</time></trkpt><trkpt lat="42.427051617362835" lon="-8.708553420596111"><ele>10.666666666666668</ele><time>2026-04-05T15:48:39Z</time></trkpt><trkpt lat="42.42688535008682" lon="-8.70862515284492"><ele>10.0</ele><time>2026-04-05T15:48:40Z</time></trkpt><trkpt lat="42.42674453884813" lon="-8.708714987579466"><ele>10.0</ele><time>2026-04-05T15:48:41Z</time></trkpt><trkpt lat="42.42661669804342" lon="-8.708804801346764"><ele>10.0</ele><time>2026-04-05T15:48:42Z</time></trkpt><trkpt lat="42.426498519219365" lon="-8.70889381649118"><ele>10.0</ele><time>2026-04-05T15:48:43Z</time></trkpt><trkpt lat="42.42638871037987" lon="-8.708982656110406"><ele>10.0</ele><time>2026-04-05T15:48:44Z</time></trkpt><trkpt lat="42.426284375130756" lon="-8.709069862575378"><ele>10.0</ele><time>2026-04-05T15:48:45Z</time></trkpt><trkpt lat="42.426179681679926" lon="-8.709157853356615"><ele>10.0</ele><time>2026-04-05T15:48:46Z</time></trkpt><trkpt lat="42.42607403436791" lon="-8.709247267618952"><ele>10.0</ele><time>2026-04-05T15:48:47Z</time></trkpt><trkpt lat="42.42596630828615" lon="-8.709341882744138"><ele>10.0</ele><time>2026-04-05T15:48:48Z</time></trkpt><trkpt lat="42.42585757140343" lon="-8.709435723032621"><ele>10.5</ele><time>2026-04-05T15:48:49Z</time></trkpt><trkpt lat="42.425750582937454" lon="-8.70952973184319"><ele>11.0</ele><time>2026-04-05T15:48:50Z</time></trkpt><trkpt lat="42.42564466782359" lon="-8.709629641951809"><ele>11.5</ele><time>2026-04-05T15:48:51Z</time></trkpt><trkpt lat="42.425537050630616" lon="-8.709724431885265"><ele>12.0</ele><time>2026-04-05T15:48:52Z</time></trkpt><trkpt lat="42.42542586192455" lon="-8.709824497661328"><ele>12.0</ele><time>2026-04-05T15:48:53Z</time></trkpt><trkpt lat="42.42531114912231" lon="-8.70992699059977"><ele>12.0</ele><time>2026-04-05T15:48:54Z</time></trkpt><trkpt lat="42.42520005940227" lon="-8.710033735696054"><ele>12.0</ele><time>2026-04-05T15:48:55Z</time></trkpt><trkpt lat="42.42509286377528" lon="-8.71013411094301"><ele>12.0</ele><time>2026-04-05T15:48:56Z</time></trkpt><trkpt lat="42.424987013428186" lon="-8.710232039742083"><ele>10.75</ele><time>2026-04-05T15:48:57Z</time></trkpt><trkpt lat="42.42489042393881" lon="-8.710335485443007"><ele>9.5</ele><time>2026-04-05T15:48:58Z</time></trkpt><trkpt lat="42.42479811252713" lon="-8.710445818679815"><ele>8.25</ele><time>2026-04-05T15:48:59Z</time></trkpt><trkpt lat="42.42470788824737" lon="-8.710566801058423"><ele>7.0</ele><time>2026-04-05T15:49:00Z</time></trkpt><trkpt lat="42.42461856684104" lon="-8.710710838397976"><ele>7.0</ele><time>2026-04-05T15:49:01Z</time></trkpt><trkpt lat="42.42453238824411" lon="-8.710862240694158"><ele>7.0</ele><time>2026-04-05T15:49:02Z</time></trkpt><trkpt lat="42.42445928251569" lon="-8.710998425359675"><ele>7.0</ele><time>2026-04-05T15:49:03Z</time></trkpt><trkpt lat="42.42438943586701" lon="-8.71113798642621"><ele>7.0</ele><time>2026-04-05T15:49:04Z</time></trkpt><trkpt lat="42.42431988366747" lon="-8.711280256438782"><ele>10.0</ele><time>2026-04-05T15:49:05Z</time></trkpt><trkpt lat="42.42424691475779" lon="-8.711416726849638"><ele>13.0</ele><time>2026-04-05T15:49:06Z</time></trkpt><trkpt lat="42.424168007772046" lon="-8.71155556608717"><ele>16.0</ele><time>2026-04-05T15:49:07Z</time></trkpt><trkpt lat="42.424087725379685" lon="-8.711691009092108"><ele>19.0</ele><time>2026-04-05T15:49:08.001Z</time></trkpt><trkpt lat="42.42400640388776" lon="-8.71182958609375"><ele>17.5</ele><time>2026-04-05T15:49:09.001Z</time></trkpt><trkpt lat="42.423919574211766" lon="-8.711968924622848"><ele>16.0</ele><time>2026-04-05T15:49:10.001Z</time></trkpt><trkpt lat="42.42382830626882" lon="-8.712116884728907"><ele>14.5</ele><time>2026-04-05T15:49:11.001Z</time></trkpt><trkpt lat="42.42373284153452" lon="-8.712279584693139"><ele>13.0</ele><time>2026-04-05T15:49:12.001Z</time></trkpt><trkpt lat="42.42363513233445" lon="-8.712445901944806"><ele>13.0</ele><time>2026-04-05T15:49:13.001Z</time></trkpt><trkpt lat="42.42354138507217" lon="-8.712606338773696"><ele>13.0</ele><time>2026-04-05T15:49:14.001Z</time></trkpt><trkpt lat="42.42345159802637" lon="-8.712767297935509"><ele>13.0</ele><time>2026-04-05T15:49:15.001Z</time></trkpt><trkpt lat="42.42336339696381" lon="-8.712928745224952"><ele>13.0</ele><time>2026-04-05T15:49:16.001Z</time></trkpt><trkpt lat="42.42326974107188" lon="-8.713093477551604"><ele>12.75</ele><time>2026-04-05T15:49:17.001Z</time></trkpt><trkpt lat="42.42317894425247" lon="-8.713258699728161"><ele>12.5</ele><time>2026-04-05T15:49:18.001Z</time></trkpt><trkpt lat="42.42309486003178" lon="-8.713413338898638"><ele>12.25</ele><time>2026-04-05T15:49:19.001Z</time></trkpt><trkpt lat="42.42301403112931" lon="-8.713574435323101"><ele>12.0</ele><time>2026-04-05T15:49:20.001Z</time></trkpt><trkpt lat="42.42293894893135" lon="-8.713749348513684"><ele>12.0</ele><time>2026-04-05T15:49:21.001Z</time></trkpt><trkpt lat="42.422872596957696" lon="-8.713928213761674"><ele>12.0</ele><time>2026-04-05T15:49:22.001Z</time></trkpt><trkpt lat="42.42281930875095" lon="-8.714117133637181"><ele>12.0</ele><time>2026-04-05T15:49:23.001Z</time></trkpt><trkpt lat="42.42278003563211" lon="-8.714309331076223"><ele>12.0</ele><time>2026-04-05T15:49:24Z</time></trkpt><trkpt lat="42.42275266640686" lon="-8.714517257309378"><ele>12.333333333333332</ele><time>2026-04-05T15:49:25Z</time></trkpt><trkpt lat="42.422741131509596" lon="-8.714726767233756"><ele>12.666666666666666</ele><time>2026-04-05T15:49:26Z</time></trkpt><trkpt lat="42.42273095859894" lon="-8.714939638912082"><ele>13.0</ele><time>2026-04-05T15:49:27Z</time></trkpt><trkpt lat="42.42271744066716" lon="-8.715149699177426"><ele>12.666666666666666</ele><time>2026-04-05T15:49:28Z</time></trkpt><trkpt lat="42.42270779998355" lon="-8.715362281948922"><ele>12.333333333333332</ele><time>2026-04-05T15:49:29Z</time></trkpt><trkpt lat="42.42270044561162" lon="-8.715571840070892"><ele>12.0</ele><time>2026-04-05T15:49:30Z</time></trkpt><trkpt lat="42.42269182950257" lon="-8.715776088621853"><ele>12.0</ele><time>2026-04-05T15:49:31Z</time></trkpt><trkpt lat="42.422685323856584" lon="-8.71596686824648"><ele>12.0</ele><time>2026-04-05T15:49:32Z</time></trkpt><trkpt lat="42.42268544138723" lon="-8.716153101593598"><ele>12.0</ele><time>2026-04-05T15:49:33Z</time></trkpt><trkpt lat="42.42269861037855" lon="-8.716332816800827"><ele>12.0</ele><time>2026-04-05T15:49:34Z</time></trkpt><trkpt lat="42.422740926478326" lon="-8.716513044343897"><ele>11.0</ele><time>2026-04-05T15:49:35Z</time></trkpt><trkpt lat="42.42281575360372" lon="-8.71670041519838"><ele>10.0</ele><time>2026-04-05T15:49:36Z</time></trkpt><trkpt lat="42.42290131337225" lon="-8.716887456672062"><ele>9.0</ele><time>2026-04-05T15:49:37Z</time></trkpt><trkpt lat="42.422978898744944" lon="-8.717062290786734"><ele>10.75</ele><time>2026-04-05T15:49:38Z</time></trkpt><trkpt lat="42.42305435383198" lon="-8.717225966390284"><ele>12.5</ele><time>2026-04-05T15:49:39Z</time></trkpt><trkpt lat="42.42312736371658" lon="-8.717383699852515"><ele>14.25</ele><time>2026-04-05T15:49:40Z</time></trkpt><trkpt lat="42.42320141467874" lon="-8.717547131971271"><ele>16.0</ele><time>2026-04-05T15:49:41Z</time></trkpt><trkpt lat="42.42328121726182" lon="-8.717715297214953"><ele>14.0</ele><time>2026-04-05T15:49:42Z</time></trkpt><trkpt lat="42.4233584196345" lon="-8.71787568986595"><ele>12.0</ele><time>2026-04-05T15:49:43Z</time></trkpt><trkpt lat="42.42343517580334" lon="-8.718032941833409"><ele>10.0</ele><time>2026-04-05T15:49:44Z</time></trkpt><trkpt lat="42.423513071749305" lon="-8.718193162314803"><ele>8.0</ele><time>2026-04-05T15:49:45Z</time></trkpt><trkpt lat="42.4235920777296" lon="-8.71836014149875"><ele>8.0</ele><time>2026-04-05T15:49:46Z</time></trkpt><trkpt lat="42.423663898582575" lon="-8.718521431183746"><ele>8.0</ele><time>2026-04-05T15:49:47Z</time></trkpt><trkpt lat="42.42373469889327" lon="-8.718674499554197"><ele>8.0</ele><time>2026-04-05T15:49:48Z</time></trkpt><trkpt lat="42.423807854175244" lon="-8.718829415067521"><ele>8.0</ele><time>2026-04-05T15:49:49Z</time></trkpt><trkpt lat="42.423878923898656" lon="-8.718979655713758"><ele>10.2</ele><time>2026-04-05T15:49:50Z</time></trkpt><trkpt lat="42.42393878569488" lon="-8.719114139803748"><ele>12.4</ele><time>2026-04-05T15:49:51Z</time></trkpt><trkpt lat="42.423997349078725" lon="-8.719242075855613"><ele>14.599999999999998</ele><time>2026-04-05T15:49:52Z</time></trkpt><trkpt lat="42.42405347718237" lon="-8.71937159673107"><ele>16.8</ele><time>2026-04-05T15:49:53Z</time></trkpt><trkpt lat="42.42410080610923" lon="-8.719506411272274"><ele>19.0</ele><time>2026-04-05T15:49:54Z</time></trkpt><trkpt lat="42.42412275907834" lon="-8.719662582402004"><ele>20.0</ele><time>2026-04-05T15:49:55Z</time></trkpt><trkpt lat="42.42411141037906" lon="-8.719816094629392"><ele>21.0</ele><time>2026-04-05T15:49:56Z</time></trkpt><trkpt lat="42.42407055013143" lon="-8.719971821042256"><ele>22.0</ele><time>2026-04-05T15:49:57Z</time></trkpt><trkpt lat="42.42400862048955" lon="-8.720118042973427"><ele>23.0</ele><time>2026-04-05T15:49:58Z</time></trkpt><trkpt lat="42.42392768738209" lon="-8.720251291883706"><ele>21.75</ele><time>2026-04-05T15:49:59Z</time></trkpt><trkpt lat="42.42382963389126" lon="-8.720373481266021"><ele>20.5</ele><time>2026-04-05T15:50:00Z</time></trkpt><trkpt lat="42.42371807153833" lon="-8.720499354005591"><ele>19.25</ele><time>2026-04-05T15:50:01Z</time></trkpt><trkpt lat="42.423605415997514" lon="-8.720631497284794"><ele>18.0</ele><time>2026-04-05T15:50:02Z</time></trkpt><trkpt lat="42.423486971165865" lon="-8.720782254458117"><ele>18.0</ele><time>2026-04-05T15:50:03Z</time></trkpt><trkpt lat="42.42336648770268" lon="-8.72093574923423"><ele>18.0</ele><time>2026-04-05T15:50:04Z</time></trkpt><trkpt lat="42.423243019491544" lon="-8.72109816456412"><ele>18.0</ele><time>2026-04-05T15:50:05Z</time></trkpt><trkpt lat="42.42311602710475" lon="-8.721265420191264"><ele>18.0</ele><time>2026-04-05T15:50:06Z</time></trkpt><trkpt lat="42.422987144092986" lon="-8.721429693745446"><ele>18.0</ele><time>2026-04-05T15:50:07Z</time></trkpt><trkpt lat="42.422865496704745" lon="-8.721571759510486"><ele>18.0</ele><time>2026-04-05T15:50:08Z</time></trkpt><trkpt lat="42.42275093635583" lon="-8.72171302831536"><ele>18.0</ele><time>2026-04-05T15:50:09Z</time></trkpt><trkpt lat="42.422634260618246" lon="-8.72185330984395"><ele>18.0</ele><time>2026-04-05T15:50:10Z</time></trkpt><trkpt lat="42.4225203417873" lon="-8.721984850495604"><ele>18.0</ele><time>2026-04-05T15:50:11Z</time></trkpt><trkpt lat="42.42240986986965" lon="-8.722117870977758"><ele>18.25</ele><time>2026-04-05T15:50:12Z</time></trkpt><trkpt lat="42.42230297376429" lon="-8.722248261168364"><ele>18.5</ele><time>2026-04-05T15:50:13Z</time></trkpt><trkpt lat="42.422199268372346" lon="-8.722377606923507"><ele>18.75</ele><time>2026-04-05T15:50:14Z</time></trkpt><trkpt lat="42.42209735109966" lon="-8.722500571050917"><ele>19.0</ele><time>2026-04-05T15:50:15Z</time></trkpt><trkpt lat="42.421998314058854" lon="-8.722620095742123"><ele>18.25</ele><time>2026-04-05T15:50:16Z</time></trkpt><trkpt lat="42.421906737285326" lon="-8.722730329576558"><ele>17.5</ele><time>2026-04-05T15:50:17Z</time></trkpt><trkpt lat="42.421819312609074" lon="-8.72284171029601"><ele>16.75</ele><time>2026-04-05T15:50:18Z</time></trkpt><trkpt lat="42.42172144505154" lon="-8.722964825384773"><ele>16.0</ele><time>2026-04-05T15:50:19Z</time></trkpt><trkpt lat="42.421622502866114" lon="-8.723080040325717"><ele>16.0</ele><time>2026-04-05T15:50:20Z</time></trkpt><trkpt lat="42.42152341262686" lon="-8.723201163172579"><ele>16.0</ele><time>2026-04-05T15:50:21Z</time></trkpt><trkpt lat="42.421425638893034" lon="-8.723322084966764"><ele>16.0</ele><time>2026-04-05T15:50:22Z</time></trkpt><trkpt lat="42.421334738433146" lon="-8.72344591013219"><ele>16.0</ele><time>2026-04-05T15:50:23Z</time></trkpt><trkpt lat="42.421248797116434" lon="-8.723569453040444"><ele>14.75</ele><time>2026-04-05T15:50:24Z</time></trkpt><trkpt lat="42.421171746297325" lon="-8.723694779454915"><ele>13.5</ele><time>2026-04-05T15:50:25Z</time></trkpt><trkpt lat="42.42109900071095" lon="-8.723826824195912"><ele>12.25</ele><time>2026-04-05T15:50:26Z</time></trkpt><trkpt lat="42.421028149966205" lon="-8.723959679068926"><ele>11.0</ele><time>2026-04-05T15:50:27Z</time></trkpt><trkpt lat="42.42095775877987" lon="-8.724088094866204"><ele>11.0</ele><time>2026-04-05T15:50:28Z</time></trkpt><trkpt lat="42.420886827658116" lon="-8.724221582014255"><ele>11.0</ele><time>2026-04-05T15:50:29Z</time></trkpt><trkpt lat="42.420815925712375" lon="-8.724343866639513"><ele>11.0</ele><time>2026-04-05T15:50:30Z</time></trkpt><trkpt lat="42.42074419084057" lon="-8.724481632766643"><ele>11.0</ele><time>2026-04-05T15:50:31Z</time></trkpt><trkpt lat="42.42067216117824" lon="-8.724614831308692"><ele>12.5</ele><time>2026-04-05T15:50:32Z</time></trkpt><trkpt lat="42.42059688115575" lon="-8.72474632840759"><ele>14.0</ele><time>2026-04-05T15:50:33Z</time></trkpt><trkpt lat="42.42052062185468" lon="-8.724880456505979"><ele>15.5</ele><time>2026-04-05T15:50:34Z</time></trkpt><trkpt lat="42.42044755340907" lon="-8.725015729634144"><ele>17.0</ele><time>2026-04-05T15:50:35Z</time></trkpt><trkpt lat="42.42037304538866" lon="-8.725152172961085"><ele>18.0</ele><time>2026-04-05T15:50:36Z</time></trkpt><trkpt lat="42.420297861890276" lon="-8.725286316819162"><ele>19.0</ele><time>2026-04-05T15:50:37Z</time></trkpt><trkpt lat="42.420220118338925" lon="-8.725421641990572"><ele>20.0</ele><time>2026-04-05T15:50:38Z</time></trkpt><trkpt lat="42.420146008487876" lon="-8.725558752205288"><ele>21.0</ele><time>2026-04-05T15:50:39Z</time></trkpt><trkpt lat="42.420073965786095" lon="-8.725689477658191"><ele>21.0</ele><time>2026-04-05T15:50:40Z</time></trkpt><trkpt lat="42.42000204764342" lon="-8.72582178998655"><ele>21.0</ele><time>2026-04-05T15:50:41Z</time></trkpt><trkpt lat="42.419933987539764" lon="-8.725949836188285"><ele>21.0</ele><time>2026-04-05T15:50:42Z</time></trkpt><trkpt lat="42.41986897854825" lon="-8.726066386741659"><ele>21.0</ele><time>2026-04-05T15:50:43Z</time></trkpt><trkpt lat="42.41980796032456" lon="-8.726175251528854"><ele>21.0</ele><time>2026-04-05T15:50:44Z</time></trkpt><trkpt lat="42.41974225825623" lon="-8.726289287600835"><ele>22.0</ele><time>2026-04-05T15:50:45Z</time></trkpt><trkpt lat="42.41967713800658" lon="-8.726406389007039"><ele>23.0</ele><time>2026-04-05T15:50:46Z</time></trkpt><trkpt lat="42.41961078931353" lon="-8.726527017033396"><ele>24.0</ele><time>2026-04-05T15:50:47Z</time></trkpt><trkpt lat="42.419544823015556" lon="-8.726654015206615"><ele>25.0</ele><time>2026-04-05T15:50:48Z</time></trkpt><trkpt lat="42.41948158805972" lon="-8.726774105299691"><ele>26.0</ele><time>2026-04-05T15:50:49Z</time></trkpt><trkpt lat="42.41942148235704" lon="-8.7268850386419"><ele>24.6</ele><time>2026-04-05T15:50:50Z</time></trkpt><trkpt lat="42.41936307150988" lon="-8.72700193112399"><ele>23.200000000000003</ele><time>2026-04-05T15:50:50.999Z</time></trkpt><trkpt lat="42.4193009739719" lon="-8.727122986906238"><ele>21.799999999999997</ele><time>2026-04-05T15:50:51.999Z</time></trkpt><trkpt lat="42.419233002319515" lon="-8.727247156214743"><ele>20.4</ele><time>2026-04-05T15:50:52.999Z</time></trkpt><trkpt lat="42.419161940808785" lon="-8.72737765225988"><ele>19.0</ele><time>2026-04-05T15:50:53.999Z</time></trkpt><trkpt lat="42.419087612567" lon="-8.727508515897755"><ele>19.0</ele><time>2026-04-05T15:50:54.999Z</time></trkpt><trkpt lat="42.41901340234507" lon="-8.727637890552623"><ele>19.0</ele><time>2026-04-05T15:50:55.999Z</time></trkpt><trkpt lat="42.41894292034045" lon="-8.727764986910731"><ele>19.0</ele><time>2026-04-05T15:50:56.999Z</time></trkpt><trkpt lat="42.41887440292003" lon="-8.727887934384459"><ele>19.0</ele><time>2026-04-05T15:50:57.999Z</time></trkpt><trkpt lat="42.41880560041396" lon="-8.728004834438023"><ele>17.5</ele><time>2026-04-05T15:50:58.999Z</time></trkpt><trkpt lat="42.418739086073714" lon="-8.728127691422092"><ele>16.0</ele><time>2026-04-05T15:50:59.999Z</time></trkpt><trkpt lat="42.418672450695865" lon="-8.728250512534652"><ele>14.5</ele><time>2026-04-05T15:51:00.999Z</time></trkpt><trkpt lat="42.418607929458304" lon="-8.728375895224362"><ele>13.0</ele><time>2026-04-05T15:51:01.999Z</time></trkpt><trkpt lat="42.418540883470186" lon="-8.728500890831311"><ele>14.5</ele><time>2026-04-05T15:51:02.999Z</time></trkpt><trkpt lat="42.418470610896605" lon="-8.728623176308636"><ele>16.0</ele><time>2026-04-05T15:51:03.999Z</time></trkpt><trkpt lat="42.418403956410884" lon="-8.728744220584618"><ele>17.5</ele><time>2026-04-05T15:51:04.999Z</time></trkpt><trkpt lat="42.41834009384298" lon="-8.72887055705411"><ele>19.0</ele><time>2026-04-05T15:51:05.999Z</time></trkpt><trkpt lat="42.418283300832165" lon="-8.72900590382408"><ele>19.0</ele><time>2026-04-05T15:51:06.999Z</time></trkpt><trkpt lat="42.418237230413474" lon="-8.729145687681726"><ele>19.0</ele><time>2026-04-05T15:51:07.999Z</time></trkpt><trkpt lat="42.4182057777874" lon="-8.729291040501716"><ele>19.0</ele><time>2026-04-05T15:51:08.999Z</time></trkpt><trkpt lat="42.41818866534706" lon="-8.72944360847326"><ele>19.0</ele><time>2026-04-05T15:51:09.999Z</time></trkpt><trkpt lat="42.41817936201516" lon="-8.729595965257452"><ele>19.0</ele><time>2026-04-05T15:51:10.999Z</time></trkpt><trkpt lat="42.41817581727551" lon="-8.729745339796027"><ele>19.0</ele><time>2026-04-05T15:51:11.999Z</time></trkpt><trkpt lat="42.41817477790133" lon="-8.729887276238687"><ele>19.0</ele><time>2026-04-05T15:51:12.999Z</time></trkpt><trkpt lat="42.41817456762169" lon="-8.730026401938055"><ele>19.0</ele><time>2026-04-05T15:51:14Z</time></trkpt><trkpt lat="42.41816967407123" lon="-8.730166287747497"><ele>19.0</ele><time>2026-04-05T15:51:15Z</time></trkpt><trkpt lat="42.418164994074424" lon="-8.730298220201146"><ele>19.0</ele><time>2026-04-05T15:51:16Z</time></trkpt><trkpt lat="42.41816123860127" lon="-8.730422452598235"><ele>19.0</ele><time>2026-04-05T15:51:17Z</time></trkpt><trkpt lat="42.41815747967096" lon="-8.7305571654549"><ele>19.0</ele><time>2026-04-05T15:51:18Z</time></trkpt><trkpt lat="42.41815470317775" lon="-8.730718864052006"><ele>19.0</ele><time>2026-04-05T15:51:19Z</time></trkpt><trkpt lat="42.41815878315329" lon="-8.730896004203663"><ele>19.0</ele><time>2026-04-05T15:51:20Z</time></trkpt><trkpt lat="42.41815432362303" lon="-8.731083967299057"><ele>19.5</ele><time>2026-04-05T15:51:21Z</time></trkpt><trkpt lat="42.41814107767596" lon="-8.731274880056363"><ele>20.0</ele><time>2026-04-05T15:51:22Z</time></trkpt><trkpt lat="42.41811985212879" lon="-8.731469928277308"><ele>20.5</ele><time>2026-04-05T15:51:23Z</time></trkpt><trkpt lat="42.41808100101253" lon="-8.731654872880977"><ele>21.0</ele><time>2026-04-05T15:51:24Z</time></trkpt><trkpt lat="42.41803154887168" lon="-8.731835925174456"><ele>21.5</ele><time>2026-04-05T15:51:25Z</time></trkpt><trkpt lat="42.41797241982021" lon="-8.732020183710185"><ele>22.0</ele><time>2026-04-05T15:51:26Z</time></trkpt><trkpt lat="42.41790411259337" lon="-8.73220054341654"><ele>22.5</ele><time>2026-04-05T15:51:27Z</time></trkpt><trkpt lat="42.417831932831916" lon="-8.732370531968145"><ele>23.0</ele><time>2026-04-05T15:51:28Z</time></trkpt><trkpt lat="42.417764929633826" lon="-8.73253135455793"><ele>23.0</ele><time>2026-04-05T15:51:29Z</time></trkpt><trkpt lat="42.41770118815692" lon="-8.732694861483447"><ele>23.0</ele><time>2026-04-05T15:51:30Z</time></trkpt><trkpt lat="42.41764124714364" lon="-8.73284140262476"><ele>23.0</ele><time>2026-04-05T15:51:31Z</time></trkpt><trkpt lat="42.41758649771769" lon="-8.732983669233123"><ele>23.0</ele><time>2026-04-05T15:51:32Z</time></trkpt><trkpt lat="42.417528915385645" lon="-8.733120705396198"><ele>23.799999999999997</ele><time>2026-04-05T15:51:33Z</time></trkpt><trkpt lat="42.4174756848976" lon="-8.733258220790695"><ele>24.6</ele><time>2026-04-05T15:51:34Z</time></trkpt><trkpt lat="42.41742614330005" lon="-8.733394698897909"><ele>25.400000000000002</ele><time>2026-04-05T15:51:35Z</time></trkpt><trkpt lat="42.417380147771354" lon="-8.733525323056922"><ele>26.200000000000003</ele><time>2026-04-05T15:51:36Z</time></trkpt><trkpt lat="42.417341923761434" lon="-8.733649016351864"><ele>27.0</ele><time>2026-04-05T15:51:37Z</time></trkpt><trkpt lat="42.41731204341025" lon="-8.73376362611909"><ele>27.400000000000002</ele><time>2026-04-05T15:51:38Z</time></trkpt><trkpt lat="42.4172925633977" lon="-8.733883242019207"><ele>27.800000000000004</ele><time>2026-04-05T15:51:39Z</time></trkpt><trkpt lat="42.41726460899085" lon="-8.73399248190142"><ele>28.2</ele><time>2026-04-05T15:51:40Z</time></trkpt><trkpt lat="42.41720113903558" lon="-8.734085891163136"><ele>28.6</ele><time>2026-04-05T15:51:41Z</time></trkpt><trkpt lat="42.41711582619233" lon="-8.734181623452889"><ele>29.0</ele><time>2026-04-05T15:51:42Z</time></trkpt><trkpt lat="42.417049218116496" lon="-8.734295156968383"><ele>28.4</ele><time>2026-04-05T15:51:43Z</time></trkpt><trkpt lat="42.41700413612942" lon="-8.734416864547997"><ele>27.799999999999997</ele><time>2026-04-05T15:51:44Z</time></trkpt><trkpt lat="42.41695816987844" lon="-8.734543420297424"><ele>27.200000000000003</ele><time>2026-04-05T15:51:45Z</time></trkpt><trkpt lat="42.41690529906236" lon="-8.734675208240645"><ele>26.6</ele><time>2026-04-05T15:51:46Z</time></trkpt><trkpt lat="42.416854243456626" lon="-8.734803949731019"><ele>26.0</ele><time>2026-04-05T15:51:47Z</time></trkpt><trkpt lat="42.41680261175343" lon="-8.73493947106078"><ele>26.0</ele><time>2026-04-05T15:51:48Z</time></trkpt><trkpt lat="42.4167510522538" lon="-8.735071560465004"><ele>26.0</ele><time>2026-04-05T15:51:49Z</time></trkpt><trkpt lat="42.41669833314153" lon="-8.735202811797869"><ele>26.0</ele><time>2026-04-05T15:51:50Z</time></trkpt><trkpt lat="42.41664505914677" lon="-8.735339034705333"><ele>26.0</ele><time>2026-04-05T15:51:51Z</time></trkpt><trkpt lat="42.416588578862125" lon="-8.735477707136502"><ele>26.0</ele><time>2026-04-05T15:51:52Z</time></trkpt><trkpt lat="42.416531032334944" lon="-8.735621455653886"><ele>26.0</ele><time>2026-04-05T15:51:53Z</time></trkpt><trkpt lat="42.4164705091836" lon="-8.73577296292852"><ele>26.0</ele><time>2026-04-05T15:51:54Z</time></trkpt><trkpt lat="42.41641013368808" lon="-8.73592459477882"><ele>26.0</ele><time>2026-04-05T15:51:55Z</time></trkpt><trkpt lat="42.41635232657187" lon="-8.73607364548186"><ele>23.5</ele><time>2026-04-05T15:51:56Z</time></trkpt><trkpt lat="42.41629362852835" lon="-8.736228822758784"><ele>21.0</ele><time>2026-04-05T15:51:57Z</time></trkpt><trkpt lat="42.41622504420358" lon="-8.736398647598344"><ele>18.5</ele><time>2026-04-05T15:51:58Z</time></trkpt><trkpt lat="42.41614756165559" lon="-8.736584582816052"><ele>16.0</ele><time>2026-04-05T15:51:59Z</time></trkpt><trkpt lat="42.41606533322897" lon="-8.73678065342321"><ele>15.333333333333332</ele><time>2026-04-05T15:52:00Z</time></trkpt><trkpt lat="42.41597965232309" lon="-8.736984573653087"><ele>14.666666666666668</ele><time>2026-04-05T15:52:01Z</time></trkpt><trkpt lat="42.415894558506494" lon="-8.737211957330587"><ele>14.0</ele><time>2026-04-05T15:52:02Z</time></trkpt><trkpt lat="42.415803784005476" lon="-8.73744842947838"><ele>14.0</ele><time>2026-04-05T15:52:03Z</time></trkpt><trkpt lat="42.41571126576109" lon="-8.737692636562775"><ele>14.0</ele><time>2026-04-05T15:52:04Z</time></trkpt><trkpt lat="42.415616358830654" lon="-8.737930027506009"><ele>14.0</ele><time>2026-04-05T15:52:05Z</time></trkpt><trkpt lat="42.41552551001027" lon="-8.738152347563197"><ele>12.666666666666668</ele><time>2026-04-05T15:52:06Z</time></trkpt><trkpt lat="42.41544004826083" lon="-8.738366813524049"><ele>11.333333333333334</ele><time>2026-04-05T15:52:07Z</time></trkpt><trkpt lat="42.41535849849248" lon="-8.7385767877646"><ele>10.0</ele><time>2026-04-05T15:52:08Z</time></trkpt><trkpt lat="42.415276858687655" lon="-8.738774736166294"><ele>10.0</ele><time>2026-04-05T15:52:09Z</time></trkpt><trkpt lat="42.41519863800289" lon="-8.738963743414349"><ele>10.0</ele><time>2026-04-05T15:52:10Z</time></trkpt><trkpt lat="42.41512531837604" lon="-8.739147743146258"><ele>10.0</ele><time>2026-04-05T15:52:11Z</time></trkpt><trkpt lat="42.41505842678969" lon="-8.739324996134545"><ele>10.25</ele><time>2026-04-05T15:52:12Z</time></trkpt><trkpt lat="42.414993065744994" lon="-8.739487792368521"><ele>10.5</ele><time>2026-04-05T15:52:13Z</time></trkpt><trkpt lat="42.41493158764108" lon="-8.739654330112131"><ele>10.75</ele><time>2026-04-05T15:52:14Z</time></trkpt><trkpt lat="42.414871767363145" lon="-8.739815689208788"><ele>11.0</ele><time>2026-04-05T15:52:15Z</time></trkpt><trkpt lat="42.41481148380058" lon="-8.739966194245232"><ele>11.0</ele><time>2026-04-05T15:52:16Z</time></trkpt><trkpt lat="42.41474770149589" lon="-8.740111054930932"><ele>11.0</ele><time>2026-04-05T15:52:17Z</time></trkpt><trkpt lat="42.414687758985096" lon="-8.740248152798063"><ele>11.0</ele><time>2026-04-05T15:52:18Z</time></trkpt><trkpt lat="42.414632449013396" lon="-8.740385486391475"><ele>11.0</ele><time>2026-04-05T15:52:19Z</time></trkpt><trkpt lat="42.41457554902738" lon="-8.740521747873114"><ele>10.5</ele><time>2026-04-05T15:52:20Z</time></trkpt><trkpt lat="42.414521165276945" lon="-8.74065897738616"><ele>10.0</ele><time>2026-04-05T15:52:21Z</time></trkpt><trkpt lat="42.41446391137734" lon="-8.74079773208208"><ele>9.5</ele><time>2026-04-05T15:52:22Z</time></trkpt><trkpt lat="42.414405001410394" lon="-8.740939711810412"><ele>9.0</ele><time>2026-04-05T15:52:23Z</time></trkpt><trkpt lat="42.41434971551546" lon="-8.741079262828986"><ele>9.0</ele><time>2026-04-05T15:52:24Z</time></trkpt><trkpt lat="42.41429662157514" lon="-8.741213933878784"><ele>9.0</ele><time>2026-04-05T15:52:25Z</time></trkpt><trkpt lat="42.414238766080835" lon="-8.7413536082601"><ele>9.0</ele><time>2026-04-05T15:52:26Z</time></trkpt><trkpt lat="42.414178749548675" lon="-8.741491668690974"><ele>9.0</ele><time>2026-04-05T15:52:27Z</time></trkpt><trkpt lat="42.4141050512279" lon="-8.741625645474494"><ele>9.0</ele><time>2026-04-05T15:52:28Z</time></trkpt><trkpt lat="42.414019729848846" lon="-8.741752573778491"><ele>9.0</ele><time>2026-04-05T15:52:29Z</time></trkpt><trkpt lat="42.41392523766567" lon="-8.741867509992968"><ele>9.0</ele><time>2026-04-05T15:52:30Z</time></trkpt><trkpt lat="42.41382229399559" lon="-8.74196946228885"><ele>9.0</ele><time>2026-04-05T15:52:31Z</time></trkpt><trkpt lat="42.41371447483079" lon="-8.742051169556907"><ele>10.0</ele><time>2026-04-05T15:52:32Z</time></trkpt><trkpt lat="42.41360547816322" lon="-8.742128741377675"><ele>11.0</ele><time>2026-04-05T15:52:33Z</time></trkpt><trkpt lat="42.413493256510606" lon="-8.742208499028415"><ele>12.0</ele><time>2026-04-05T15:52:34Z</time></trkpt><trkpt lat="42.413380815776144" lon="-8.742288341202817"><ele>13.0</ele><time>2026-04-05T15:52:35Z</time></trkpt><trkpt lat="42.41325986135598" lon="-8.742361496264449"><ele>13.0</ele><time>2026-04-05T15:52:36Z</time></trkpt><trkpt lat="42.41314867888082" lon="-8.742430338125148"><ele>13.0</ele><time>2026-04-05T15:52:37Z</time></trkpt><trkpt lat="42.413037741734534" lon="-8.742499413035416"><ele>13.0</ele><time>2026-04-05T15:52:38Z</time></trkpt><trkpt lat="42.41293055610564" lon="-8.742570850525544"><ele>13.0</ele><time>2026-04-05T15:52:39Z</time></trkpt><trkpt lat="42.41282858060011" lon="-8.742634866487618"><ele>11.8</ele><time>2026-04-05T15:52:40Z</time></trkpt><trkpt lat="42.41272917861739" lon="-8.742696615645741"><ele>10.600000000000001</ele><time>2026-04-05T15:52:41Z</time></trkpt><trkpt lat="42.412631767358405" lon="-8.742762457277998"><ele>9.399999999999999</ele><time>2026-04-05T15:52:42Z</time></trkpt><trkpt lat="42.41252990611807" lon="-8.742824242653768"><ele>8.2</ele><time>2026-04-05T15:52:42.999Z</time></trkpt><trkpt lat="42.41242481812475" lon="-8.742883826069013"><ele>7.0</ele><time>2026-04-05T15:52:43.999Z</time></trkpt><trkpt lat="42.41231753170667" lon="-8.742946523516695"><ele>8.399999999999999</ele><time>2026-04-05T15:52:44.999Z</time></trkpt><trkpt lat="42.41221018236146" lon="-8.743019185558259"><ele>9.799999999999999</ele><time>2026-04-05T15:52:45.999Z</time></trkpt><trkpt lat="42.41211460955419" lon="-8.74307755178227"><ele>11.2</ele><time>2026-04-05T15:52:46.999Z</time></trkpt><trkpt lat="42.4120266060524" lon="-8.743156059915261"><ele>12.6</ele><time>2026-04-05T15:52:47.999Z</time></trkpt><trkpt lat="42.411935397631936" lon="-8.743222275052105"><ele>14.0</ele><time>2026-04-05T15:52:48.999Z</time></trkpt><trkpt lat="42.411835443446975" lon="-8.74329310360398"><ele>14.0</ele><time>2026-04-05T15:52:49.999Z</time></trkpt><trkpt lat="42.41173214230503" lon="-8.743366311710245"><ele>14.0</ele><time>2026-04-05T15:52:50.999Z</time></trkpt><trkpt lat="42.41162991625586" lon="-8.74343328538514"><ele>14.0</ele><time>2026-04-05T15:52:51.999Z</time></trkpt><trkpt lat="42.4115261535174" lon="-8.743512824289098"><ele>14.0</ele><time>2026-04-05T15:52:52.999Z</time></trkpt><trkpt lat="42.411413966715195" lon="-8.743585547107434"><ele>14.75</ele><time>2026-04-05T15:52:53.999Z</time></trkpt><trkpt lat="42.41130401405678" lon="-8.743647235706948"><ele>15.5</ele><time>2026-04-05T15:52:54.999Z</time></trkpt><trkpt lat="42.4111980520629" lon="-8.743715807178317"><ele>16.25</ele><time>2026-04-05T15:52:55.999Z</time></trkpt><trkpt lat="42.411094948700914" lon="-8.743786603542667"><ele>17.0</ele><time>2026-04-05T15:52:56.999Z</time></trkpt><trkpt lat="42.41098847073849" lon="-8.74385566135795"><ele>17.0</ele><time>2026-04-05T15:52:57.999Z</time></trkpt><trkpt lat="42.41088102248592" lon="-8.743923250471482"><ele>17.0</ele><time>2026-04-05T15:52:58.999Z</time></trkpt><trkpt lat="42.410769298972674" lon="-8.743993877824607"><ele>17.0</ele><time>2026-04-05T15:52:59.999Z</time></trkpt><trkpt lat="42.410658755877" lon="-8.744075047949911"><ele>17.0</ele><time>2026-04-05T15:53:00.999Z</time></trkpt><trkpt lat="42.41054872913383" lon="-8.744157398707818"><ele>16.5</ele><time>2026-04-05T15:53:01.999Z</time></trkpt><trkpt lat="42.4104358881571" lon="-8.744241219420035"><ele>16.0</ele><time>2026-04-05T15:53:02.999Z</time></trkpt><trkpt lat="42.41032503262291" lon="-8.744306356751153"><ele>15.5</ele><time>2026-04-05T15:53:03.999Z</time></trkpt><trkpt lat="42.41021784453488" lon="-8.744383042706193"><ele>15.0</ele><time>2026-04-05T15:53:04.999Z</time></trkpt><trkpt lat="42.410101029829775" lon="-8.74446806993158"><ele>15.0</ele><time>2026-04-05T15:53:05.999Z</time></trkpt><trkpt lat="42.40998356359131" lon="-8.74455562188598"><ele>15.0</ele><time>2026-04-05T15:53:06.999Z</time></trkpt><trkpt lat="42.40986699166765" lon="-8.744646193393475"><ele>15.0</ele><time>2026-04-05T15:53:07.999Z</time></trkpt><trkpt lat="42.40975542726164" lon="-8.744735770084448"><ele>15.0</ele><time>2026-04-05T15:53:08.999Z</time></trkpt><trkpt lat="42.40965415410925" lon="-8.744821086483858"><ele>13.75</ele><time>2026-04-05T15:53:09.999Z</time></trkpt><trkpt lat="42.40954713926859" lon="-8.744905519623122"><ele>12.5</ele><time>2026-04-05T15:53:10.999Z</time></trkpt><trkpt lat="42.40943662615384" lon="-8.744995565019845"><ele>11.25</ele><time>2026-04-05T15:53:11.999Z</time></trkpt><trkpt lat="42.4093239480308" lon="-8.745086475233062"><ele>10.0</ele><time>2026-04-05T15:53:12.999Z</time></trkpt><trkpt lat="42.40920158975575" lon="-8.745178653914914"><ele>11.666666666666668</ele><time>2026-04-05T15:53:13.999Z</time></trkpt><trkpt lat="42.40907224616288" lon="-8.745277325256366"><ele>13.333333333333334</ele><time>2026-04-05T15:53:14.999Z</time></trkpt><trkpt lat="42.408940526274236" lon="-8.745389799005801"><ele>15.0</ele><time>2026-04-05T15:53:15.999Z</time></trkpt><trkpt lat="42.40879878583924" lon="-8.745504713218782"><ele>15.0</ele><time>2026-04-05T15:53:16.999Z</time></trkpt><trkpt lat="42.40865646957254" lon="-8.745617296168533"><ele>15.0</ele><time>2026-04-05T15:53:17.999Z</time></trkpt><trkpt lat="42.40851039446328" lon="-8.74573925190962"><ele>15.0</ele><time>2026-04-05T15:53:18.999Z</time></trkpt><trkpt lat="42.40835763623014" lon="-8.74586479043925"><ele>15.0</ele><time>2026-04-05T15:53:20Z</time></trkpt><trkpt lat="42.40820552164205" lon="-8.745999058326026"><ele>15.0</ele><time>2026-04-05T15:53:21Z</time></trkpt><trkpt lat="42.408052455711896" lon="-8.746134924597815"><ele>15.0</ele><time>2026-04-05T15:53:22Z</time></trkpt><trkpt lat="42.40790158589025" lon="-8.746265568189688"><ele>16.0</ele><time>2026-04-05T15:53:23Z</time></trkpt><trkpt lat="42.40775836510421" lon="-8.746379782083626"><ele>17.0</ele><time>2026-04-05T15:53:24Z</time></trkpt><trkpt lat="42.40762469679273" lon="-8.746489172175364"><ele>18.0</ele><time>2026-04-05T15:53:25Z</time></trkpt><trkpt lat="42.40749055635006" lon="-8.746597241408464"><ele>18.0</ele><time>2026-04-05T15:53:26Z</time></trkpt><trkpt lat="42.4073524254909" lon="-8.746693569749146"><ele>18.0</ele><time>2026-04-05T15:53:27Z</time></trkpt><trkpt lat="42.407195238850186" lon="-8.746768396602432"><ele>18.0</ele><time>2026-04-05T15:53:28Z</time></trkpt><trkpt lat="42.40702710964277" lon="-8.746799401401717"><ele>16.666666666666668</ele><time>2026-04-05T15:53:29Z</time></trkpt><trkpt lat="42.40685353028032" lon="-8.74679194709485"><ele>15.333333333333334</ele><time>2026-04-05T15:53:30Z</time></trkpt><trkpt lat="42.406696037105775" lon="-8.746774813900963"><ele>14.0</ele><time>2026-04-05T15:53:31Z</time></trkpt><trkpt lat="42.40654919744705" lon="-8.7467761392559"><ele>14.0</ele><time>2026-04-05T15:53:32Z</time></trkpt><trkpt lat="42.40641034309761" lon="-8.746801291840002"><ele>14.0</ele><time>2026-04-05T15:53:33Z</time></trkpt><trkpt lat="42.40627360678905" lon="-8.746872090594977"><ele>14.0</ele><time>2026-04-05T15:53:34Z</time></trkpt><trkpt lat="42.40614530061506" lon="-8.746988006436734"><ele>14.0</ele><time>2026-04-05T15:53:35Z</time></trkpt><trkpt lat="42.40602406544757" lon="-8.747124390379005"><ele>15.666666666666668</ele><time>2026-04-05T15:53:36Z</time></trkpt><trkpt lat="42.40589693152154" lon="-8.747265269602737"><ele>17.333333333333332</ele><time>2026-04-05T15:53:37Z</time></trkpt><trkpt lat="42.40576683384479" lon="-8.747408289255146"><ele>19.0</ele><time>2026-04-05T15:53:38Z</time></trkpt><trkpt lat="42.40563286630448" lon="-8.747554896324939"><ele>19.0</ele><time>2026-04-05T15:53:39Z</time></trkpt><trkpt lat="42.40551013182488" lon="-8.747694436882917"><ele>19.0</ele><time>2026-04-05T15:53:40Z</time></trkpt><trkpt lat="42.40539165745162" lon="-8.747850084005949"><ele>19.0</ele><time>2026-04-05T15:53:41Z</time></trkpt><trkpt lat="42.40528457049136" lon="-8.748031184164324"><ele>19.666666666666664</ele><time>2026-04-05T15:53:42Z</time></trkpt><trkpt lat="42.40518910212724" lon="-8.748233955121949"><ele>20.333333333333332</ele><time>2026-04-05T15:53:43Z</time></trkpt><trkpt lat="42.40510058282292" lon="-8.74844525175395"><ele>21.0</ele><time>2026-04-05T15:53:44Z</time></trkpt><trkpt lat="42.40501009420196" lon="-8.748657582854964"><ele>21.0</ele><time>2026-04-05T15:53:45Z</time></trkpt><trkpt lat="42.40492075988914" lon="-8.748881035869308"><ele>21.0</ele><time>2026-04-05T15:53:46Z</time></trkpt><trkpt lat="42.40483208051848" lon="-8.749108077498711"><ele>21.0</ele><time>2026-04-05T15:53:47Z</time></trkpt><trkpt lat="42.404746828479645" lon="-8.749332188070872"><ele>19.666666666666668</ele><time>2026-04-05T15:53:48Z</time></trkpt><trkpt lat="42.404664708993245" lon="-8.749542228652638"><ele>18.333333333333336</ele><time>2026-04-05T15:53:49Z</time></trkpt><trkpt lat="42.40458942518592" lon="-8.749726983925878"><ele>17.0</ele><time>2026-04-05T15:53:50Z</time></trkpt><trkpt lat="42.40451623038383" lon="-8.74991442388796"><ele>17.0</ele><time>2026-04-05T15:53:51Z</time></trkpt><trkpt lat="42.40444034052617" lon="-8.750108255819788"><ele>17.0</ele><time>2026-04-05T15:53:52Z</time></trkpt><trkpt lat="42.40436579491077" lon="-8.75030497855854"><ele>17.0</ele><time>2026-04-05T15:53:53Z</time></trkpt><trkpt lat="42.40429691776176" lon="-8.750480771375953"><ele>17.75</ele><time>2026-04-05T15:53:54Z</time></trkpt><trkpt lat="42.40423276139177" lon="-8.750651563982904"><ele>18.5</ele><time>2026-04-05T15:53:55Z</time></trkpt><trkpt lat="42.40416743601048" lon="-8.750823520602964"><ele>19.25</ele><time>2026-04-05T15:53:56Z</time></trkpt><trkpt lat="42.404101471977945" lon="-8.7509835338339"><ele>20.0</ele><time>2026-04-05T15:53:57Z</time></trkpt><trkpt lat="42.40406564040682" lon="-8.751143559851693"><ele>21.25</ele><time>2026-04-05T15:53:58Z</time></trkpt><trkpt lat="42.404002726021076" lon="-8.751297848230946"><ele>22.5</ele><time>2026-04-05T15:53:59Z</time></trkpt><trkpt lat="42.403936874561765" lon="-8.751447570698584"><ele>23.75</ele><time>2026-04-05T15:54:00Z</time></trkpt><trkpt lat="42.403885670009615" lon="-8.751589457847443"><ele>25.0</ele><time>2026-04-05T15:54:01Z</time></trkpt><trkpt lat="42.40384613675224" lon="-8.75174509635959"><ele>25.75</ele><time>2026-04-05T15:54:02Z</time></trkpt><trkpt lat="42.40382801131799" lon="-8.751916163162422"><ele>26.5</ele><time>2026-04-05T15:54:03Z</time></trkpt><trkpt lat="42.40383620098015" lon="-8.75209525111917"><ele>27.25</ele><time>2026-04-05T15:54:04Z</time></trkpt><trkpt lat="42.40386821157538" lon="-8.75228083773029"><ele>28.0</ele><time>2026-04-05T15:54:05Z</time></trkpt><trkpt lat="42.40391848567677" lon="-8.752456701198927"><ele>28.0</ele><time>2026-04-05T15:54:06Z</time></trkpt><trkpt lat="42.403982318130154" lon="-8.752615923504646"><ele>28.0</ele><time>2026-04-05T15:54:07Z</time></trkpt><trkpt lat="42.40407169739201" lon="-8.75273974164749"><ele>28.0</ele><time>2026-04-05T15:54:08Z</time></trkpt><trkpt lat="42.40416817560307" lon="-8.75285644140815"><ele>28.0</ele><time>2026-04-05T15:54:09Z</time></trkpt><trkpt lat="42.4042723974606" lon="-8.752937790212144"><ele>30.0</ele><time>2026-04-05T15:54:10Z</time></trkpt><trkpt lat="42.40436486184741" lon="-8.753035053374068"><ele>32.0</ele><time>2026-04-05T15:54:11Z</time></trkpt><trkpt lat="42.40446588666169" lon="-8.753135634648384"><ele>34.0</ele><time>2026-04-05T15:54:12Z</time></trkpt><trkpt lat="42.40457148836511" lon="-8.753224854064925"><ele>36.0</ele><time>2026-04-05T15:54:13Z</time></trkpt><trkpt lat="42.40467972888264" lon="-8.753309188461476"><ele>36.0</ele><time>2026-04-05T15:54:14Z</time></trkpt><trkpt lat="42.404780998133" lon="-8.753391354013582"><ele>36.0</ele><time>2026-04-05T15:54:15Z</time></trkpt><trkpt lat="42.40488064359967" lon="-8.753479039390374"><ele>36.0</ele><time>2026-04-05T15:54:16Z</time></trkpt><trkpt lat="42.404981616191705" lon="-8.7535666608718"><ele>36.0</ele><time>2026-04-05T15:54:17Z</time></trkpt><trkpt lat="42.40507683029904" lon="-8.753644527791906"><ele>34.0</ele><time>2026-04-05T15:54:18Z</time></trkpt><trkpt lat="42.40517376411037" lon="-8.753727563941592"><ele>32.0</ele><time>2026-04-05T15:54:19Z</time></trkpt><trkpt lat="42.40527226119128" lon="-8.753810906932783"><ele>30.0</ele><time>2026-04-05T15:54:20Z</time></trkpt><trkpt lat="42.40536671932015" lon="-8.753890507181989"><ele>28.0</ele><time>2026-04-05T15:54:21Z</time></trkpt><trkpt lat="42.40546349576992" lon="-8.75397119293289"><ele>30.2</ele><time>2026-04-05T15:54:22Z</time></trkpt><trkpt lat="42.40555911294518" lon="-8.754051184637154"><ele>32.4</ele><time>2026-04-05T15:54:23Z</time></trkpt><trkpt lat="42.40565039444361" lon="-8.754133618470089"><ele>34.599999999999994</ele><time>2026-04-05T15:54:24Z</time></trkpt><trkpt lat="42.405726419413924" lon="-8.754222680843293"><ele>36.8</ele><time>2026-04-05T15:54:25Z</time></trkpt><trkpt lat="42.4057910091958" lon="-8.754328825059588"><ele>39.0</ele><time>2026-04-05T15:54:26Z</time></trkpt><trkpt lat="42.40584076204456" lon="-8.75446056072286"><ele>39.2</ele><time>2026-04-05T15:54:27Z</time></trkpt><trkpt lat="42.4058735875758" lon="-8.754600572960552"><ele>39.4</ele><time>2026-04-05T15:54:28Z</time></trkpt><trkpt lat="42.405880969934685" lon="-8.754745180011543"><ele>39.6</ele><time>2026-04-05T15:54:28.999Z</time></trkpt><trkpt lat="42.405861812824305" lon="-8.75488577988985"><ele>39.8</ele><time>2026-04-05T15:54:29.999Z</time></trkpt><trkpt lat="42.40582311147291" lon="-8.755028084006932"><ele>40.0</ele><time>2026-04-05T15:54:30.999Z</time></trkpt><trkpt lat="42.40577372278231" lon="-8.755149973997279"><ele>40.4</ele><time>2026-04-05T15:54:31.999Z</time></trkpt><trkpt lat="42.40571095189668" lon="-8.755256957322501"><ele>40.8</ele><time>2026-04-05T15:54:32.999Z</time></trkpt><trkpt lat="42.40563832336817" lon="-8.755352657941653"><ele>41.2</ele><time>2026-04-05T15:54:33.999Z</time></trkpt><trkpt lat="42.405559835762695" lon="-8.755451219635159"><ele>41.6</ele><time>2026-04-05T15:54:34.999Z</time></trkpt><trkpt lat="42.4054754489368" lon="-8.755569235258676"><ele>42.0</ele><time>2026-04-05T15:54:35.999Z</time></trkpt><trkpt lat="42.405377747120006" lon="-8.755676939359681"><ele>42.0</ele><time>2026-04-05T15:54:36.999Z</time></trkpt><trkpt lat="42.40526472892938" lon="-8.755760427805225"><ele>42.0</ele><time>2026-04-05T15:54:37.999Z</time></trkpt><trkpt lat="42.40516657278713" lon="-8.755842020351581"><ele>42.0</ele><time>2026-04-05T15:54:38.999Z</time></trkpt><trkpt lat="42.40507062210237" lon="-8.755934388137671"><ele>42.0</ele><time>2026-04-05T15:54:39.999Z</time></trkpt><trkpt lat="42.40497797546982" lon="-8.756035932437833"><ele>42.5</ele><time>2026-04-05T15:54:40.999Z</time></trkpt><trkpt lat="42.404886143204315" lon="-8.756136383988897"><ele>43.0</ele><time>2026-04-05T15:54:41.999Z</time></trkpt><trkpt lat="42.4047922720526" lon="-8.756237485159824"><ele>43.5</ele><time>2026-04-05T15:54:42.999Z</time></trkpt><trkpt lat="42.404709135698" lon="-8.756336949712006"><ele>44.0</ele><time>2026-04-05T15:54:43.999Z</time></trkpt><trkpt lat="42.40461677296917" lon="-8.756441829649887"><ele>44.0</ele><time>2026-04-05T15:54:44.999Z</time></trkpt><trkpt lat="42.4045238845366" lon="-8.756556518737751"><ele>44.0</ele><time>2026-04-05T15:54:45.999Z</time></trkpt><trkpt lat="42.404428163248944" lon="-8.756675384626897"><ele>44.0</ele><time>2026-04-05T15:54:46.999Z</time></trkpt><trkpt lat="42.40433273001139" lon="-8.75681066375394"><ele>44.0</ele><time>2026-04-05T15:54:47.999Z</time></trkpt><trkpt lat="42.40423312554497" lon="-8.756958262512374"><ele>48.0</ele><time>2026-04-05T15:54:48.999Z</time></trkpt><trkpt lat="42.40413457377311" lon="-8.757113028465941"><ele>52.0</ele><time>2026-04-05T15:54:49.999Z</time></trkpt><trkpt lat="42.404046623322216" lon="-8.757280578633448"><ele>56.0</ele><time>2026-04-05T15:54:50.999Z</time></trkpt><trkpt lat="42.40395806728179" lon="-8.757460975302088"><ele>56.0</ele><time>2026-04-05T15:54:51.999Z</time></trkpt><trkpt lat="42.40386945036275" lon="-8.757647569083282"><ele>56.0</ele><time>2026-04-05T15:54:52.999Z</time></trkpt><trkpt lat="42.40378122422412" lon="-8.757833689757204"><ele>56.0</ele><time>2026-04-05T15:54:53.999Z</time></trkpt><trkpt lat="42.40369146126972" lon="-8.758027384603588"><ele>55.333333333333336</ele><time>2026-04-05T15:54:54.999Z</time></trkpt><trkpt lat="42.40359907738967" lon="-8.758216926441408"><ele>54.66666666666667</ele><time>2026-04-05T15:54:55.999Z</time></trkpt><trkpt lat="42.403503608018084" lon="-8.758405964014381"><ele>54.0</ele><time>2026-04-05T15:54:56.999Z</time></trkpt><trkpt lat="42.40340739958902" lon="-8.758597679302696"><ele>59.66666666666667</ele><time>2026-04-05T15:54:57.999Z</time></trkpt><trkpt lat="42.40330959633476" lon="-8.75879157190933"><ele>65.33333333333334</ele><time>2026-04-05T15:54:58.999Z</time></trkpt><trkpt lat="42.40320842116918" lon="-8.758989363021398"><ele>71.0</ele><time>2026-04-05T15:54:59.999Z</time></trkpt><trkpt lat="42.403102025904055" lon="-8.75918133257935"><ele>69.0</ele><time>2026-04-05T15:55:00.999Z</time></trkpt><trkpt lat="42.40298820125458" lon="-8.759368795017124"><ele>67.0</ele><time>2026-04-05T15:55:01.999Z</time></trkpt><trkpt lat="42.402864913911664" lon="-8.759542766681667"><ele>65.0</ele><time>2026-04-05T15:55:02.999Z</time></trkpt><trkpt lat="42.40273797857928" lon="-8.759698703103735"><ele>65.0</ele><time>2026-04-05T15:55:03.999Z</time></trkpt><trkpt lat="42.402618107454025" lon="-8.75983175570651"><ele>65.0</ele><time>2026-04-05T15:55:04.999Z</time></trkpt><trkpt lat="42.40250541716444" lon="-8.759959036956827"><ele>65.0</ele><time>2026-04-05T15:55:05.999Z</time></trkpt><trkpt lat="42.402397726929486" lon="-8.76007720926293"><ele>65.0</ele><time>2026-04-05T15:55:06.999Z</time></trkpt><trkpt lat="42.402291905979304" lon="-8.760186046640978"><ele>66.0</ele><time>2026-04-05T15:55:07.999Z</time></trkpt><trkpt lat="42.4021853647396" lon="-8.760322274768582"><ele>67.0</ele><time>2026-04-05T15:55:08.999Z</time></trkpt><trkpt lat="42.4020691639986" lon="-8.760454021637967"><ele>68.0</ele><time>2026-04-05T15:55:09.999Z</time></trkpt><trkpt lat="42.40195230426558" lon="-8.760586209115248"><ele>68.0</ele><time>2026-04-05T15:55:10.999Z</time></trkpt><trkpt lat="42.401823769316515" lon="-8.760716645684376"><ele>68.0</ele><time>2026-04-05T15:55:11.999Z</time></trkpt><trkpt lat="42.40170391649999" lon="-8.760869388949063"><ele>68.0</ele><time>2026-04-05T15:55:12.999Z</time></trkpt><trkpt lat="42.401572150399566" lon="-8.761012808109873"><ele>68.66666666666667</ele><time>2026-04-05T15:55:13.999Z</time></trkpt><trkpt lat="42.40143079199619" lon="-8.76114670336924"><ele>69.33333333333333</ele><time>2026-04-05T15:55:14.999Z</time></trkpt><trkpt lat="42.40127478110048" lon="-8.761261881394814"><ele>70.0</ele><time>2026-04-05T15:55:15.999Z</time></trkpt><trkpt lat="42.401109849934464" lon="-8.76135419470645"><ele>70.0</ele><time>2026-04-05T15:55:16.999Z</time></trkpt><trkpt lat="42.40093758894063" lon="-8.761437536641727"><ele>70.0</ele><time>2026-04-05T15:55:17.999Z</time></trkpt><trkpt lat="42.400758414776426" lon="-8.761519316601865"><ele>70.0</ele><time>2026-04-05T15:55:18.999Z</time></trkpt><trkpt lat="42.40057533387772" lon="-8.76159410557358"><ele>68.0</ele><time>2026-04-05T15:55:19.999Z</time></trkpt><trkpt lat="42.40038504329754" lon="-8.76166637592885"><ele>66.0</ele><time>2026-04-05T15:55:20.999Z</time></trkpt><trkpt lat="42.40019996137009" lon="-8.7617315546114"><ele>64.0</ele><time>2026-04-05T15:55:21.999Z</time></trkpt><trkpt lat="42.400029513916095" lon="-8.761790608190346"><ele>64.66666666666666</ele><time>2026-04-05T15:55:22.999Z</time></trkpt><trkpt lat="42.399856895129155" lon="-8.761872333735194"><ele>65.33333333333333</ele><time>2026-04-05T15:55:23.999Z</time></trkpt><trkpt lat="42.39969834881603" lon="-8.761966100731613"><ele>66.0</ele><time>2026-04-05T15:55:24.999Z</time></trkpt><trkpt lat="42.39955663846706" lon="-8.762097778354073"><ele>66.0</ele><time>2026-04-05T15:55:26Z</time></trkpt><trkpt lat="42.39943577803568" lon="-8.762278492496884"><ele>66.0</ele><time>2026-04-05T15:55:27Z</time></trkpt><trkpt lat="42.399322650178284" lon="-8.76248484987109"><ele>66.0</ele><time>2026-04-05T15:55:28Z</time></trkpt><trkpt lat="42.39920836011268" lon="-8.762682930534025"><ele>69.33333333333333</ele><time>2026-04-05T15:55:29Z</time></trkpt><trkpt lat="42.39910073497155" lon="-8.76285732964187"><ele>72.66666666666666</ele><time>2026-04-05T15:55:30Z</time></trkpt><trkpt lat="42.398999176629275" lon="-8.76301473385894"><ele>76.0</ele><time>2026-04-05T15:55:31Z</time></trkpt><trkpt lat="42.39891136688796" lon="-8.763153955597907"><ele>73.5</ele><time>2026-04-05T15:55:32Z</time></trkpt><trkpt lat="42.39883028727963" lon="-8.763288750636407"><ele>71.0</ele><time>2026-04-05T15:55:33Z</time></trkpt><trkpt lat="42.39875798968983" lon="-8.76341271830777"><ele>68.5</ele><time>2026-04-05T15:55:34Z</time></trkpt><trkpt lat="42.39867842813599" lon="-8.763538930600054"><ele>66.0</ele><time>2026-04-05T15:55:35Z</time></trkpt><trkpt lat="42.398600665223924" lon="-8.763667835368324"><ele>66.0</ele><time>2026-04-05T15:55:36Z</time></trkpt><trkpt lat="42.398531713638974" lon="-8.763795144149274"><ele>66.0</ele><time>2026-04-05T15:55:37Z</time></trkpt><trkpt lat="42.39846621435722" lon="-8.763918642713115"><ele>66.0</ele><time>2026-04-05T15:55:38Z</time></trkpt><trkpt lat="42.398402715844426" lon="-8.764041439104018"><ele>66.0</ele><time>2026-04-05T15:55:39Z</time></trkpt><trkpt lat="42.3983445428963" lon="-8.76416673651235"><ele>66.0</ele><time>2026-04-05T15:55:40Z</time></trkpt><trkpt lat="42.39828768923854" lon="-8.764293558180196"><ele>65.8</ele><time>2026-04-05T15:55:41Z</time></trkpt><trkpt lat="42.39823360423344" lon="-8.764413930209814"><ele>65.6</ele><time>2026-04-05T15:55:42Z</time></trkpt><trkpt lat="42.39818544943517" lon="-8.764537039205502"><ele>65.4</ele><time>2026-04-05T15:55:43Z</time></trkpt><trkpt lat="42.39814344387813" lon="-8.764659179817292"><ele>65.2</ele><time>2026-04-05T15:55:44Z</time></trkpt><trkpt lat="42.39811477484124" lon="-8.764787276384103"><ele>65.0</ele><time>2026-04-05T15:55:45Z</time></trkpt><trkpt lat="42.39807004019148" lon="-8.764905055884109"><ele>62.0</ele><time>2026-04-05T15:55:46Z</time></trkpt><trkpt lat="42.3979756616815" lon="-8.764991809993202"><ele>59.0</ele><time>2026-04-05T15:55:47Z</time></trkpt><trkpt lat="42.397889176235665" lon="-8.765139220195213"><ele>56.0</ele><time>2026-04-05T15:55:48Z</time></trkpt><trkpt lat="42.39779989030886" lon="-8.765297587507847"><ele>53.0</ele><time>2026-04-05T15:55:49Z</time></trkpt><trkpt lat="42.39771137556848" lon="-8.765480059224412"><ele>53.0</ele><time>2026-04-05T15:55:50Z</time></trkpt><trkpt lat="42.397619197274565" lon="-8.765673538576545"><ele>53.0</ele><time>2026-04-05T15:55:51Z</time></trkpt><trkpt lat="42.39754133044223" lon="-8.765858090053023"><ele>53.0</ele><time>2026-04-05T15:55:52Z</time></trkpt><trkpt lat="42.39747452757477" lon="-8.766061437962165"><ele>52.333333333333336</ele><time>2026-04-05T15:55:53Z</time></trkpt><trkpt lat="42.39742558520993" lon="-8.766271040877054"><ele>51.66666666666667</ele><time>2026-04-05T15:55:54Z</time></trkpt><trkpt lat="42.39741738424259" lon="-8.76649181593004"><ele>51.0</ele><time>2026-04-05T15:55:55Z</time></trkpt><trkpt lat="42.3974435164222" lon="-8.766725369740154"><ele>48.666666666666664</ele><time>2026-04-05T15:55:56Z</time></trkpt><trkpt lat="42.397508789516564" lon="-8.766960482723368"><ele>46.33333333333333</ele><time>2026-04-05T15:55:57Z</time></trkpt><trkpt lat="42.397596553735674" lon="-8.767186419223822"><ele>44.0</ele><time>2026-04-05T15:55:58Z</time></trkpt><trkpt lat="42.39769302495132" lon="-8.767420494434079"><ele>44.0</ele><time>2026-04-05T15:55:59Z</time></trkpt><trkpt lat="42.39778896664126" lon="-8.767660844665128"><ele>44.0</ele><time>2026-04-05T15:56:00Z</time></trkpt><trkpt lat="42.39788297553039" lon="-8.767911250387849"><ele>44.0</ele><time>2026-04-05T15:56:01Z</time></trkpt><trkpt lat="42.397972412673774" lon="-8.768148611508554"><ele>45.666666666666664</ele><time>2026-04-05T15:56:02Z</time></trkpt><trkpt lat="42.39805639027842" lon="-8.768363773357981"><ele>47.33333333333333</ele><time>2026-04-05T15:56:03Z</time></trkpt><trkpt lat="42.39813753756583" lon="-8.768569313223255"><ele>49.0</ele><time>2026-04-05T15:56:04Z</time></trkpt><trkpt lat="42.39821355079399" lon="-8.768768679601418"><ele>49.0</ele><time>2026-04-05T15:56:05Z</time></trkpt><trkpt lat="42.39828531675866" lon="-8.768955391258835"><ele>49.0</ele><time>2026-04-05T15:56:06Z</time></trkpt><trkpt lat="42.39835125707405" lon="-8.769127061143895"><ele>49.0</ele><time>2026-04-05T15:56:07Z</time></trkpt><trkpt lat="42.39841231679462" lon="-8.76928319917838"><ele>49.0</ele><time>2026-04-05T15:56:08Z</time></trkpt><trkpt lat="42.39846820788142" lon="-8.769437478574426"><ele>49.25</ele><time>2026-04-05T15:56:09Z</time></trkpt><trkpt lat="42.39852728426182" lon="-8.76958502868296"><ele>49.5</ele><time>2026-04-05T15:56:10Z</time></trkpt><trkpt lat="42.398594985609854" lon="-8.769744610601526"><ele>49.75</ele><time>2026-04-05T15:56:11Z</time></trkpt><trkpt lat="42.39867696691905" lon="-8.769915434763279"><ele>50.0</ele><time>2026-04-05T15:56:12Z</time></trkpt><trkpt lat="42.39876885274588" lon="-8.7700956434834"><ele>48.0</ele><time>2026-04-05T15:56:13Z</time></trkpt><trkpt lat="42.39886850065839" lon="-8.770286035306444"><ele>46.0</ele><time>2026-04-05T15:56:14Z</time></trkpt><trkpt lat="42.39897426946581" lon="-8.770479999056558"><ele>44.0</ele><time>2026-04-05T15:56:15Z</time></trkpt><trkpt lat="42.3990794352387" lon="-8.770667487480154"><ele>44.0</ele><time>2026-04-05T15:56:16Z</time></trkpt><trkpt lat="42.399180612150886" lon="-8.770840637690952"><ele>44.0</ele><time>2026-04-05T15:56:17Z</time></trkpt><trkpt lat="42.3992822179498" lon="-8.771009362152775"><ele>44.0</ele><time>2026-04-05T15:56:18Z</time></trkpt><trkpt lat="42.399373512334286" lon="-8.771175803598236"><ele>44.0</ele><time>2026-04-05T15:56:19Z</time></trkpt><trkpt lat="42.399457811269265" lon="-8.77133933760347"><ele>44.0</ele><time>2026-04-05T15:56:20Z</time></trkpt><trkpt lat="42.39952865726625" lon="-8.77150517163108"><ele>44.0</ele><time>2026-04-05T15:56:21Z</time></trkpt><trkpt lat="42.399575427806916" lon="-8.771679944032913"><ele>44.0</ele><time>2026-04-05T15:56:22Z</time></trkpt><trkpt lat="42.39959360328131" lon="-8.771861845856318"><ele>42.25</ele><time>2026-04-05T15:56:23Z</time></trkpt><trkpt lat="42.39957868564215" lon="-8.77203813360641"><ele>40.5</ele><time>2026-04-05T15:56:24Z</time></trkpt><trkpt lat="42.39952943399803" lon="-8.772215318698404"><ele>38.75</ele><time>2026-04-05T15:56:25Z</time></trkpt><trkpt lat="42.399448769428375" lon="-8.772377093531514"><ele>37.0</ele><time>2026-04-05T15:56:26Z</time></trkpt><trkpt lat="42.399353389277266" lon="-8.772522726408004"><ele>37.0</ele><time>2026-04-05T15:56:27Z</time></trkpt><trkpt lat="42.39925231513423" lon="-8.772672697492226"><ele>37.0</ele><time>2026-04-05T15:56:28Z</time></trkpt><trkpt lat="42.39914727454883" lon="-8.772838506438852"><ele>37.0</ele><time>2026-04-05T15:56:28.999Z</time></trkpt><trkpt lat="42.39903225668437" lon="-8.773015033898384"><ele>39.333333333333336</ele><time>2026-04-05T15:56:29.999Z</time></trkpt><trkpt lat="42.39891436862103" lon="-8.773207814054455"><ele>41.666666666666664</ele><time>2026-04-05T15:56:30.999Z</time></trkpt><trkpt lat="42.39879857554076" lon="-8.773418062458237"><ele>44.0</ele><time>2026-04-05T15:56:31.999Z</time></trkpt><trkpt lat="42.39868447361601" lon="-8.773610846894512"><ele>38.0</ele><time>2026-04-05T15:56:32.999Z</time></trkpt><trkpt lat="42.39855808232525" lon="-8.773783214899122"><ele>32.0</ele><time>2026-04-05T15:56:33.999Z</time></trkpt><trkpt lat="42.39840219859186" lon="-8.773938586984114"><ele>26.0</ele><time>2026-04-05T15:56:34.999Z</time></trkpt><trkpt lat="42.398220007376786" lon="-8.77404911382727"><ele>26.0</ele><time>2026-04-05T15:56:35.999Z</time></trkpt><trkpt lat="42.39802115575113" lon="-8.774130571844484"><ele>26.0</ele><time>2026-04-05T15:56:36.999Z</time></trkpt><trkpt lat="42.39781448183527" lon="-8.774213775921442"><ele>26.0</ele><time>2026-04-05T15:56:37.999Z</time></trkpt><trkpt lat="42.39762107866263" lon="-8.774293356724309"><ele>21.0</ele><time>2026-04-05T15:56:38.999Z</time></trkpt><trkpt lat="42.39743697150152" lon="-8.774372361219399"><ele>16.0</ele><time>2026-04-05T15:56:39.999Z</time></trkpt><trkpt lat="42.39725940773463" lon="-8.774444711369807"><ele>11.0</ele><time>2026-04-05T15:56:40.999Z</time></trkpt><trkpt lat="42.39708649465328" lon="-8.774518173815249"><ele>11.0</ele><time>2026-04-05T15:56:41.999Z</time></trkpt><trkpt lat="42.39692238120192" lon="-8.77459658581546"><ele>11.0</ele><time>2026-04-05T15:56:42.999Z</time></trkpt><trkpt lat="42.396771773217765" lon="-8.77467183574585"><ele>11.0</ele><time>2026-04-05T15:56:43.999Z</time></trkpt><trkpt lat="42.39664150976059" lon="-8.774735980900255"><ele>11.0</ele><time>2026-04-05T15:56:44.999Z</time></trkpt><trkpt lat="42.39652162673582" lon="-8.7748279595919"><ele>11.0</ele><time>2026-04-05T15:56:45.999Z</time></trkpt><trkpt lat="42.39641733944266" lon="-8.774957363647589"><ele>11.0</ele><time>2026-04-05T15:56:46.999Z</time></trkpt><trkpt lat="42.3963243336649" lon="-8.77512564086614"><ele>11.0</ele><time>2026-04-05T15:56:47.999Z</time></trkpt><trkpt lat="42.396253451265174" lon="-8.775333185360067"><ele>10.333333333333332</ele><time>2026-04-05T15:56:48.999Z</time></trkpt><trkpt lat="42.396213015056546" lon="-8.775563466072786"><ele>9.666666666666666</ele><time>2026-04-05T15:56:49.999Z</time></trkpt><trkpt lat="42.39620249996289" lon="-8.775813902406961"><ele>9.0</ele><time>2026-04-05T15:56:50.999Z</time></trkpt><trkpt lat="42.39621524332951" lon="-8.776069811364897"><ele>9.0</ele><time>2026-04-05T15:56:51.999Z</time></trkpt><trkpt lat="42.39623415770863" lon="-8.776330267733886"><ele>9.0</ele><time>2026-04-05T15:56:52.999Z</time></trkpt><trkpt lat="42.39624696079282" lon="-8.776596520496392"><ele>9.0</ele><time>2026-04-05T15:56:53.999Z</time></trkpt><trkpt lat="42.396256463445084" lon="-8.776867715400872"><ele>10.333333333333332</ele><time>2026-04-05T15:56:54.999Z</time></trkpt><trkpt lat="42.396269408716485" lon="-8.77714088458255"><ele>11.666666666666666</ele><time>2026-04-05T15:56:55.999Z</time></trkpt><trkpt lat="42.396286147292734" lon="-8.77741588471746"><ele>13.0</ele><time>2026-04-05T15:56:56.999Z</time></trkpt><trkpt lat="42.396303354254314" lon="-8.77769078485317"><ele>13.666666666666666</ele><time>2026-04-05T15:56:57.999Z</time></trkpt><trkpt lat="42.39631499033779" lon="-8.777947138758984"><ele>14.333333333333332</ele><time>2026-04-05T15:56:58.999Z</time></trkpt><trkpt lat="42.39632515679178" lon="-8.778189398493204"><ele>15.0</ele><time>2026-04-05T15:56:59.999Z</time></trkpt><trkpt lat="42.396337203354136" lon="-8.778430366020615"><ele>17.666666666666668</ele><time>2026-04-05T15:57:00.999Z</time></trkpt><trkpt lat="42.396347306738825" lon="-8.778670932430103"><ele>20.333333333333336</ele><time>2026-04-05T15:57:01.999Z</time></trkpt><trkpt lat="42.39635705044703" lon="-8.778915329285304"><ele>23.0</ele><time>2026-04-05T15:57:02.999Z</time></trkpt><trkpt lat="42.396364581181025" lon="-8.779156596491072"><ele>22.0</ele><time>2026-04-05T15:57:03.999Z</time></trkpt><trkpt lat="42.39636979438643" lon="-8.779377932526172"><ele>21.0</ele><time>2026-04-05T15:57:04.999Z</time></trkpt><trkpt lat="42.39637791691958" lon="-8.779586403914829"><ele>20.0</ele><time>2026-04-05T15:57:05.999Z</time></trkpt><trkpt lat="42.3963868991387" lon="-8.779788216381998"><ele>20.0</ele><time>2026-04-05T15:57:06.999Z</time></trkpt><trkpt lat="42.39639798853854" lon="-8.779989541580953"><ele>20.0</ele><time>2026-04-05T15:57:07.999Z</time></trkpt><trkpt lat="42.39641005182461" lon="-8.780191033294464"><ele>20.0</ele><time>2026-04-05T15:57:08.999Z</time></trkpt><trkpt lat="42.39641674608355" lon="-8.780380651008334"><ele>20.0</ele><time>2026-04-05T15:57:09.999Z</time></trkpt><trkpt lat="42.39642306153899" lon="-8.780574290960184"><ele>18.666666666666668</ele><time>2026-04-05T15:57:10.999Z</time></trkpt><trkpt lat="42.39643157964827" lon="-8.780778504324276"><ele>17.333333333333332</ele><time>2026-04-05T15:57:11.999Z</time></trkpt><trkpt lat="42.396445098943275" lon="-8.780987348253339"><ele>16.0</ele><time>2026-04-05T15:57:12.999Z</time></trkpt><trkpt lat="42.3964575902452" lon="-8.781197351246599"><ele>16.0</ele><time>2026-04-05T15:57:13.999Z</time></trkpt><trkpt lat="42.39646463306254" lon="-8.78140386722075"><ele>16.0</ele><time>2026-04-05T15:57:14.999Z</time></trkpt><trkpt lat="42.3964694491594" lon="-8.781597563168214"><ele>16.0</ele><time>2026-04-05T15:57:15.999Z</time></trkpt><trkpt lat="42.396480037914195" lon="-8.781789246203955"><ele>16.0</ele><time>2026-04-05T15:57:16.999Z</time></trkpt><trkpt lat="42.39649413433588" lon="-8.781974642586562"><ele>15.5</ele><time>2026-04-05T15:57:17.999Z</time></trkpt><trkpt lat="42.39652319525067" lon="-8.782161737549691"><ele>15.0</ele><time>2026-04-05T15:57:18.999Z</time></trkpt><trkpt lat="42.39656320290192" lon="-8.782339302491883"><ele>14.5</ele><time>2026-04-05T15:57:19.999Z</time></trkpt><trkpt lat="42.396611945424034" lon="-8.782512433268808"><ele>14.0</ele><time>2026-04-05T15:57:20.999Z</time></trkpt><trkpt lat="42.39666753739809" lon="-8.78268560921351"><ele>14.0</ele><time>2026-04-05T15:57:21.999Z</time></trkpt><trkpt lat="42.39673000276383" lon="-8.782847219094387"><ele>13.999999999999998</ele><time>2026-04-05T15:57:22.999Z</time></trkpt><trkpt lat="42.39678538166399" lon="-8.782976813274578"><ele>13.999999999999998</ele><time>2026-04-05T15:57:23.999Z</time></trkpt><trkpt lat="42.396824797163035" lon="-8.783069704108346"><ele>14.0</ele><time>2026-04-05T15:57:24.999Z</time></trkpt><trkpt lat="42.396855196522175" lon="-8.783146916083906"><ele>14.0</ele><time>2026-04-05T15:57:25.999Z</time></trkpt><trkpt lat="42.396897936019094" lon="-8.7832601339933"><ele>14.0</ele><time>2026-04-05T15:57:27.999Z</time></trkpt><trkpt lat="42.396947268746075" lon="-8.7833784580139"><ele>13.999999999999998</ele><time>2026-04-05T15:57:29.999Z</time></trkpt><trkpt lat="42.39698574409027" lon="-8.783476717679482"><ele>13.999999999999998</ele><time>2026-04-05T15:57:30.999Z</time></trkpt><trkpt lat="42.39703356096438" lon="-8.783593625988606"><ele>14.0</ele><time>2026-04-05T15:57:32Z</time></trkpt><trkpt lat="42.3970898066984" lon="-8.783735390859079"><ele>14.0</ele><time>2026-04-05T15:57:33Z</time></trkpt><trkpt lat="42.39714760348948" lon="-8.783882366455908"><ele>14.5</ele><time>2026-04-05T15:57:34Z</time></trkpt><trkpt lat="42.39721082430122" lon="-8.78403384689988"><ele>15.0</ele><time>2026-04-05T15:57:35Z</time></trkpt><trkpt lat="42.3972779525903" lon="-8.78419001655629"><ele>15.5</ele><time>2026-04-05T15:57:36Z</time></trkpt><trkpt lat="42.39734862166101" lon="-8.784355633262264"><ele>16.0</ele><time>2026-04-05T15:57:37Z</time></trkpt><trkpt lat="42.397422999119456" lon="-8.784539770806122"><ele>14.666666666666666</ele><time>2026-04-05T15:57:38Z</time></trkpt><trkpt lat="42.39749658416776" lon="-8.78472630749939"><ele>13.333333333333332</ele><time>2026-04-05T15:57:39Z</time></trkpt><trkpt lat="42.397572820930385" lon="-8.784917644525668"><ele>12.0</ele><time>2026-04-05T15:57:40Z</time></trkpt><trkpt lat="42.39765042576097" lon="-8.785111055181114"><ele>11.5</ele><time>2026-04-05T15:57:41Z</time></trkpt><trkpt lat="42.39772049272378" lon="-8.785289003418287"><ele>11.0</ele><time>2026-04-05T15:57:42Z</time></trkpt><trkpt lat="42.397789013630394" lon="-8.785458894254754"><ele>10.5</ele><time>2026-04-05T15:57:43Z</time></trkpt><trkpt lat="42.39785985507436" lon="-8.785622016991582"><ele>10.0</ele><time>2026-04-05T15:57:44Z</time></trkpt><trkpt lat="42.39793072373768" lon="-8.785788934266776"><ele>10.75</ele><time>2026-04-05T15:57:45Z</time></trkpt><trkpt lat="42.39800301897963" lon="-8.785956354106773"><ele>11.5</ele><time>2026-04-05T15:57:46Z</time></trkpt><trkpt lat="42.39807071560939" lon="-8.78611746488383"><ele>12.25</ele><time>2026-04-05T15:57:47Z</time></trkpt><trkpt lat="42.398139820833364" lon="-8.786285244845423"><ele>13.0</ele><time>2026-04-05T15:57:48Z</time></trkpt><trkpt lat="42.398206214262096" lon="-8.786452287794262"><ele>13.0</ele><time>2026-04-05T15:57:49Z</time></trkpt><trkpt lat="42.39827326568666" lon="-8.786624423979905"><ele>13.0</ele><time>2026-04-05T15:57:50Z</time></trkpt><trkpt lat="42.398339047258915" lon="-8.786782207915412"><ele>13.0</ele><time>2026-04-05T15:57:51Z</time></trkpt><trkpt lat="42.398401184929696" lon="-8.786932515265255"><ele>13.0</ele><time>2026-04-05T15:57:52Z</time></trkpt><trkpt lat="42.39846338307006" lon="-8.787081188602317"><ele>13.0</ele><time>2026-04-05T15:57:53Z</time></trkpt><trkpt lat="42.39852227552056" lon="-8.787218298931032"><ele>13.0</ele><time>2026-04-05T15:57:54Z</time></trkpt><trkpt lat="42.398580140512856" lon="-8.787361689625184"><ele>13.0</ele><time>2026-04-05T15:57:55Z</time></trkpt><trkpt lat="42.3986384806718" lon="-8.787500512414166"><ele>13.0</ele><time>2026-04-05T15:57:56Z</time></trkpt><trkpt lat="42.39869044814988" lon="-8.78764230172603"><ele>13.25</ele><time>2026-04-05T15:57:57Z</time></trkpt><trkpt lat="42.39873061586824" lon="-8.787790415364478"><ele>13.5</ele><time>2026-04-05T15:57:58Z</time></trkpt><trkpt lat="42.398755641463" lon="-8.787939835056642"><ele>13.75</ele><time>2026-04-05T15:57:59Z</time></trkpt><trkpt lat="42.39876527897046" lon="-8.78809171542933"><ele>14.0</ele><time>2026-04-05T15:58:00Z</time></trkpt><trkpt lat="42.39875968887133" lon="-8.788251070509169"><ele>14.0</ele><time>2026-04-05T15:58:01Z</time></trkpt><trkpt lat="42.3987427734519" lon="-8.788389640990976"><ele>13.999999999999998</ele><time>2026-04-05T15:58:02Z</time></trkpt><trkpt lat="42.39871145421469" lon="-8.788535847964427"><ele>13.999999999999998</ele><time>2026-04-05T15:58:03Z</time></trkpt><trkpt lat="42.398677259363666" lon="-8.788677543164283"><ele>14.0</ele><time>2026-04-05T15:58:04Z</time></trkpt><trkpt lat="42.398643281294476" lon="-8.78882383577007"><ele>14.0</ele><time>2026-04-05T15:58:05Z</time></trkpt><trkpt lat="42.39861505244761" lon="-8.788964051553712"><ele>13.6</ele><time>2026-04-05T15:58:06Z</time></trkpt><trkpt lat="42.39858407157293" lon="-8.7891070456562"><ele>13.2</ele><time>2026-04-05T15:58:07Z</time></trkpt><trkpt lat="42.39855214913526" lon="-8.789248212536258"><ele>12.799999999999999</ele><time>2026-04-05T15:58:08Z</time></trkpt><trkpt lat="42.398519651111364" lon="-8.789391048499665"><ele>12.399999999999999</ele><time>2026-04-05T15:58:09Z</time></trkpt><trkpt lat="42.39848262004153" lon="-8.78953428701325"><ele>12.0</ele><time>2026-04-05T15:58:10Z</time></trkpt><trkpt lat="42.39843667441392" lon="-8.7897011830411"><ele>13.5</ele><time>2026-04-05T15:58:11Z</time></trkpt><trkpt lat="42.39839233523523" lon="-8.789870562077452"><ele>15.0</ele><time>2026-04-05T15:58:12Z</time></trkpt><trkpt lat="42.39834882084795" lon="-8.790048763628109"><ele>16.5</ele><time>2026-04-05T15:58:13Z</time></trkpt><trkpt lat="42.398309023319044" lon="-8.790208715375858"><ele>18.0</ele><time>2026-04-05T15:58:14Z</time></trkpt><trkpt lat="42.398271061311675" lon="-8.790361356032673"><ele>19.0</ele><time>2026-04-05T15:58:15Z</time></trkpt><trkpt lat="42.39823903311422" lon="-8.790501858724102"><ele>20.0</ele><time>2026-04-05T15:58:16Z</time></trkpt><trkpt lat="42.398206878916916" lon="-8.790639656889232"><ele>21.0</ele><time>2026-04-05T15:58:17Z</time></trkpt><trkpt lat="42.39817357639898" lon="-8.790787491062076"><ele>22.0</ele><time>2026-04-05T15:58:18Z</time></trkpt><trkpt lat="42.39813879304538" lon="-8.790931516140116"><ele>23.0</ele><time>2026-04-05T15:58:19Z</time></trkpt><trkpt lat="42.39811101146444" lon="-8.79107507713835"><ele>23.75</ele><time>2026-04-05T15:58:20Z</time></trkpt><trkpt lat="42.39807801412742" lon="-8.791229142373114"><ele>24.5</ele><time>2026-04-05T15:58:21Z</time></trkpt><trkpt lat="42.3980534318717" lon="-8.791379838454235"><ele>25.25</ele><time>2026-04-05T15:58:22Z</time></trkpt><trkpt lat="42.39803865458637" lon="-8.791541630465037"><ele>26.0</ele><time>2026-04-05T15:58:23Z</time></trkpt><trkpt lat="42.398030576948145" lon="-8.7917051621306"><ele>25.75</ele><time>2026-04-05T15:58:24Z</time></trkpt><trkpt lat="42.39802627277364" lon="-8.791857795122311"><ele>25.5</ele><time>2026-04-05T15:58:25Z</time></trkpt><trkpt lat="42.398039202956014" lon="-8.792015284064695"><ele>25.25</ele><time>2026-04-05T15:58:26Z</time></trkpt><trkpt lat="42.39805322705727" lon="-8.792172007877527"><ele>25.0</ele><time>2026-04-05T15:58:27Z</time></trkpt><trkpt lat="42.398079737688235" lon="-8.792329372379877"><ele>25.0</ele><time>2026-04-05T15:58:28Z</time></trkpt><trkpt lat="42.39810762508421" lon="-8.79248998184466"><ele>25.0</ele><time>2026-04-05T15:58:29Z</time></trkpt><trkpt lat="42.39814500613077" lon="-8.792651295334156"><ele>25.0</ele><time>2026-04-05T15:58:30Z</time></trkpt><trkpt lat="42.398189980636694" lon="-8.792798970342297"><ele>25.0</ele><time>2026-04-05T15:58:31Z</time></trkpt><trkpt lat="42.398243468174186" lon="-8.79294874929597"><ele>24.2</ele><time>2026-04-05T15:58:32Z</time></trkpt><trkpt lat="42.39829899917833" lon="-8.793086806092646"><ele>23.4</ele><time>2026-04-05T15:58:33Z</time></trkpt><trkpt lat="42.39835940644609" lon="-8.793217963587606"><ele>22.6</ele><time>2026-04-05T15:58:34Z</time></trkpt><trkpt lat="42.39842313261645" lon="-8.793335919648616"><ele>21.8</ele><time>2026-04-05T15:58:35Z</time></trkpt><trkpt lat="42.39848259474302" lon="-8.793456562085236"><ele>21.0</ele><time>2026-04-05T15:58:36Z</time></trkpt><trkpt lat="42.398542707867584" lon="-8.793566340486526"><ele>22.0</ele><time>2026-04-05T15:58:37Z</time></trkpt><trkpt lat="42.39860546372445" lon="-8.79367830116929"><ele>23.0</ele><time>2026-04-05T15:58:38Z</time></trkpt><trkpt lat="42.39866649503366" lon="-8.793787663447443"><ele>24.0</ele><time>2026-04-05T15:58:39Z</time></trkpt><trkpt lat="42.39873079421966" lon="-8.793903319810042"><ele>25.0</ele><time>2026-04-05T15:58:40Z</time></trkpt><trkpt lat="42.39879249557048" lon="-8.79401863653569"><ele>26.0</ele><time>2026-04-05T15:58:41Z</time></trkpt><trkpt lat="42.39884453706266" lon="-8.794139756905546"><ele>26.0</ele><time>2026-04-05T15:58:42Z</time></trkpt><trkpt lat="42.398888280244485" lon="-8.794272962058109"><ele>26.0</ele><time>2026-04-05T15:58:42.999Z</time></trkpt><trkpt lat="42.398931609940014" lon="-8.794397151511966"><ele>26.0</ele><time>2026-04-05T15:58:43.999Z</time></trkpt><trkpt lat="42.39898291331156" lon="-8.794525822034778"><ele>26.0</ele><time>2026-04-05T15:58:44.999Z</time></trkpt><trkpt lat="42.39903568203601" lon="-8.7946438532476"><ele>26.0</ele><time>2026-04-05T15:58:45.999Z</time></trkpt><trkpt lat="42.399087077092176" lon="-8.794765203087803"><ele>24.400000000000002</ele><time>2026-04-05T15:58:46.999Z</time></trkpt><trkpt lat="42.39913639814799" lon="-8.794883309678365"><ele>22.8</ele><time>2026-04-05T15:58:47.999Z</time></trkpt><trkpt lat="42.39918561925193" lon="-8.795006123511802"><ele>21.200000000000003</ele><time>2026-04-05T15:58:48.999Z</time></trkpt><trkpt lat="42.39923566645075" lon="-8.795122495382795"><ele>19.6</ele><time>2026-04-05T15:58:49.999Z</time></trkpt><trkpt lat="42.39928221515062" lon="-8.795230939113166"><ele>18.0</ele><time>2026-04-05T15:58:50.999Z</time></trkpt><trkpt lat="42.39933206844887" lon="-8.795344864744823"><ele>16.2</ele><time>2026-04-05T15:58:51.999Z</time></trkpt><trkpt lat="42.3993827831293" lon="-8.795462356314113"><ele>14.4</ele><time>2026-04-05T15:58:52.999Z</time></trkpt><trkpt lat="42.399429991761416" lon="-8.795581954018477"><ele>12.600000000000001</ele><time>2026-04-05T15:58:53.999Z</time></trkpt><trkpt lat="42.3994758921005" lon="-8.79571322867417"><ele>10.8</ele><time>2026-04-05T15:58:54.999Z</time></trkpt><trkpt lat="42.39952441243601" lon="-8.795846892265812"><ele>9.0</ele><time>2026-04-05T15:58:55.999Z</time></trkpt><trkpt lat="42.399574253282964" lon="-8.795974062860628"><ele>7.8</ele><time>2026-04-05T15:58:56.999Z</time></trkpt><trkpt lat="42.399621421795835" lon="-8.796093627227137"><ele>6.6000000000000005</ele><time>2026-04-05T15:58:57.999Z</time></trkpt><trkpt lat="42.39967100734784" lon="-8.796213775712696"><ele>5.4</ele><time>2026-04-05T15:58:58.999Z</time></trkpt><trkpt lat="42.399717831396586" lon="-8.796330486087308"><ele>4.2</ele><time>2026-04-05T15:58:59.999Z</time></trkpt><trkpt lat="42.39976884869274" lon="-8.796451066450238"><ele>3.0</ele><time>2026-04-05T15:59:00.999Z</time></trkpt><trkpt lat="42.39981365259065" lon="-8.796569193249715"><ele>4.25</ele><time>2026-04-05T15:59:01.999Z</time></trkpt><trkpt lat="42.399868618655255" lon="-8.796703788444692"><ele>5.5</ele><time>2026-04-05T15:59:02.999Z</time></trkpt><trkpt lat="42.39992477291083" lon="-8.796844851806428"><ele>6.75</ele><time>2026-04-05T15:59:03.999Z</time></trkpt><trkpt lat="42.399984179205624" lon="-8.796983189168062"><ele>8.0</ele><time>2026-04-05T15:59:04.999Z</time></trkpt><trkpt lat="42.400039192939985" lon="-8.797123845711175"><ele>8.0</ele><time>2026-04-05T15:59:05.999Z</time></trkpt><trkpt lat="42.40009506517404" lon="-8.797258480689086"><ele>8.0</ele><time>2026-04-05T15:59:06.999Z</time></trkpt><trkpt lat="42.400149133664236" lon="-8.797392314963671"><ele>8.0</ele><time>2026-04-05T15:59:07.999Z</time></trkpt><trkpt lat="42.40019835065577" lon="-8.797521751051196"><ele>8.0</ele><time>2026-04-05T15:59:08.999Z</time></trkpt><trkpt lat="42.40024711115932" lon="-8.797646993542093"><ele>8.0</ele><time>2026-04-05T15:59:09.999Z</time></trkpt><trkpt lat="42.4002954476064" lon="-8.797773595893693"><ele>7.25</ele><time>2026-04-05T15:59:10.999Z</time></trkpt><trkpt lat="42.40034259664643" lon="-8.797892851682727"><ele>6.5</ele><time>2026-04-05T15:59:11.999Z</time></trkpt><trkpt lat="42.400402333697244" lon="-8.79804029412656"><ele>5.75</ele><time>2026-04-05T15:59:12.999Z</time></trkpt><trkpt lat="42.40046409233007" lon="-8.798179448675384"><ele>5.0</ele><time>2026-04-05T15:59:13.999Z</time></trkpt><trkpt lat="42.40051470065022" lon="-8.798322015076748"><ele>6.666666666666667</ele><time>2026-04-05T15:59:14.999Z</time></trkpt><trkpt lat="42.400559256483405" lon="-8.798435565191532"><ele>8.333333333333334</ele><time>2026-04-05T15:59:15.999Z</time></trkpt><trkpt lat="42.400602195389624" lon="-8.798555125709417"><ele>10.0</ele><time>2026-04-05T15:59:16.999Z</time></trkpt><trkpt lat="42.40064721060841" lon="-8.798658180983203"><ele>11.666666666666666</ele><time>2026-04-05T15:59:17.999Z</time></trkpt><trkpt lat="42.400689571086346" lon="-8.798757133924315"><ele>13.333333333333334</ele><time>2026-04-05T15:59:18.999Z</time></trkpt><trkpt lat="42.400725357043015" lon="-8.798850460218564"><ele>15.0</ele><time>2026-04-05T15:59:19.999Z</time></trkpt><trkpt lat="42.4007641513414" lon="-8.798945097466142"><ele>15.6</ele><time>2026-04-05T15:59:20.999Z</time></trkpt><trkpt lat="42.400810699958825" lon="-8.799057271147468"><ele>16.2</ele><time>2026-04-05T15:59:21.999Z</time></trkpt><trkpt lat="42.400845472364395" lon="-8.799181889494745"><ele>16.8</ele><time>2026-04-05T15:59:22.999Z</time></trkpt><trkpt lat="42.40089745312277" lon="-8.799301507737777"><ele>17.4</ele><time>2026-04-05T15:59:23.999Z</time></trkpt><trkpt lat="42.40095135263229" lon="-8.799416902440745"><ele>18.0</ele><time>2026-04-05T15:59:24.999Z</time></trkpt><trkpt lat="42.40101252865194" lon="-8.799541990579007"><ele>18.0</ele><time>2026-04-05T15:59:25.999Z</time></trkpt><trkpt lat="42.40105296233224" lon="-8.799661211020341"><ele>18.0</ele><time>2026-04-05T15:59:26.999Z</time></trkpt><trkpt lat="42.40110725087999" lon="-8.79978705689855"><ele>18.0</ele><time>2026-04-05T15:59:27.999Z</time></trkpt><trkpt lat="42.401159661152136" lon="-8.799915012130567"><ele>18.0</ele><time>2026-04-05T15:59:28.999Z</time></trkpt><trkpt lat="42.401204274029745" lon="-8.800035576614759"><ele>18.0</ele><time>2026-04-05T15:59:29.999Z</time></trkpt><trkpt lat="42.40125098846158" lon="-8.800149080305626"><ele>17.833333333333332</ele><time>2026-04-05T15:59:30.999Z</time></trkpt><trkpt lat="42.4012994175757" lon="-8.80026295002087"><ele>17.666666666666668</ele><time>2026-04-05T15:59:31.999Z</time></trkpt><trkpt lat="42.4013442354909" lon="-8.800381500578258"><ele>17.5</ele><time>2026-04-05T15:59:32.999Z</time></trkpt><trkpt lat="42.401378123748366" lon="-8.800492305351435"><ele>17.333333333333336</ele><time>2026-04-05T15:59:33.999Z</time></trkpt><trkpt lat="42.40142049663528" lon="-8.800583316517338"><ele>17.166666666666668</ele><time>2026-04-05T15:59:34.999Z</time></trkpt><trkpt lat="42.40145963169508" lon="-8.800680840306969"><ele>17.0</ele><time>2026-04-05T15:59:35.999Z</time></trkpt><trkpt lat="42.40148962490543" lon="-8.80077654759901"><ele>17.0</ele><time>2026-04-05T15:59:36.999Z</time></trkpt><trkpt lat="42.40151718707684" lon="-8.80087054752958"><ele>17.0</ele><time>2026-04-05T15:59:38Z</time></trkpt><trkpt lat="42.40154225559982" lon="-8.800955830559209"><ele>17.0</ele><time>2026-04-05T15:59:39Z</time></trkpt><trkpt lat="42.40158925365891" lon="-8.801110002958357"><ele>17.0</ele><time>2026-04-05T15:59:41Z</time></trkpt><trkpt lat="42.401619902443386" lon="-8.80118555813854"><ele>17.0</ele><time>2026-04-05T15:59:42Z</time></trkpt><trkpt lat="42.4016814497362" lon="-8.801318195211786"><ele>17.0</ele><time>2026-04-05T15:59:44Z</time></trkpt><trkpt lat="42.40170346507891" lon="-8.801429308430102"><ele>17.0</ele><time>2026-04-05T15:59:46Z</time></trkpt><trkpt lat="42.40173009878573" lon="-8.801523553862385"><ele>17.0</ele><time>2026-04-05T15:59:54Z</time></trkpt><trkpt lat="42.40175184232902" lon="-8.801619292854102"><ele>17.0</ele><time>2026-04-05T15:59:56Z</time></trkpt><trkpt lat="42.401779192805435" lon="-8.801738767508692"><ele>17.0</ele><time>2026-04-05T15:59:58Z</time></trkpt><trkpt lat="42.401795720642355" lon="-8.801871790477998"><ele>17.0</ele><time>2026-04-05T16:00:00Z</time></trkpt><trkpt lat="42.40180554299615" lon="-8.801967881959342"><ele>17.0</ele><time>2026-04-05T16:00:02Z</time></trkpt><trkpt lat="42.401807191990606" lon="-8.802150090949203"><ele>17.0</ele><time>2026-04-05T16:00:04Z</time></trkpt><trkpt lat="42.40180543524694" lon="-8.802247341904483"><ele>17.0</ele><time>2026-04-05T16:00:05Z</time></trkpt><trkpt lat="42.4018169741005" lon="-8.802333005074496"><ele>17.0</ele><time>2026-04-05T16:00:06Z</time></trkpt><trkpt lat="42.40179311753187" lon="-8.802489693419037"><ele>17.0</ele><time>2026-04-05T16:00:08Z</time></trkpt><trkpt lat="42.4017877294801" lon="-8.80258679128064"><ele>17.0</ele><time>2026-04-05T16:00:09Z</time></trkpt><trkpt lat="42.40179251114355" lon="-8.802686270107792"><ele>17.0</ele><time>2026-04-05T16:00:10Z</time></trkpt><trkpt lat="42.40178180518499" lon="-8.802775914485375"><ele>17.6</ele><time>2026-04-05T16:00:11Z</time></trkpt><trkpt lat="42.401773496630234" lon="-8.802923875292548"><ele>18.2</ele><time>2026-04-05T16:00:13Z</time></trkpt><trkpt lat="42.40176627182098" lon="-8.803084183275445"><ele>18.8</ele><time>2026-04-05T16:00:15Z</time></trkpt><trkpt lat="42.401753332030154" lon="-8.803223743998652"><ele>19.4</ele><time>2026-04-05T16:00:17Z</time></trkpt><trkpt lat="42.40174158091031" lon="-8.803373435068668"><ele>20.0</ele><time>2026-04-05T16:00:19Z</time></trkpt><trkpt lat="42.40173739453808" lon="-8.803462814004718"><ele>20.333333333333336</ele><time>2026-04-05T16:00:20Z</time></trkpt><trkpt lat="42.40172387803298" lon="-8.80356496488403"><ele>20.666666666666668</ele><time>2026-04-05T16:00:21Z</time></trkpt><trkpt lat="42.40171200325603" lon="-8.80366677782101"><ele>21.0</ele><time>2026-04-05T16:00:22Z</time></trkpt><trkpt lat="42.40170657009385" lon="-8.803754095702237"><ele>21.333333333333332</ele><time>2026-04-05T16:00:23Z</time></trkpt><trkpt lat="42.40168366747707" lon="-8.803877876940339"><ele>21.666666666666664</ele><time>2026-04-05T16:00:31Z</time></trkpt><trkpt lat="42.40167963921912" lon="-8.80399172355925"><ele>22.0</ele><time>2026-04-05T16:00:59.999Z</time></trkpt><trkpt lat="42.401668962044155" lon="-8.804119171792983"><ele>22.0</ele><time>2026-04-05T16:01:01.999Z</time></trkpt><trkpt lat="42.401676402427995" lon="-8.804245416056267"><ele>22.0</ele><time>2026-04-05T16:01:03.999Z</time></trkpt><trkpt lat="42.40166643989338" lon="-8.804385771521867"><ele>22.0</ele><time>2026-04-05T16:01:05.999Z</time></trkpt><trkpt lat="42.40165679128326" lon="-8.804521704251323"><ele>22.0</ele><time>2026-04-05T16:01:07.999Z</time></trkpt><trkpt lat="42.40163978790429" lon="-8.804643233929195"><ele>22.0</ele><time>2026-04-05T16:01:09.999Z</time></trkpt><trkpt lat="42.401626915456426" lon="-8.80478119650743"><ele>22.333333333333332</ele><time>2026-04-05T16:01:11.999Z</time></trkpt><trkpt lat="42.401630103415854" lon="-8.804960646087931"><ele>22.666666666666664</ele><time>2026-04-05T16:01:13.999Z</time></trkpt><trkpt lat="42.401623706918016" lon="-8.80506886510888"><ele>23.0</ele><time>2026-04-05T16:01:14.999Z</time></trkpt><trkpt lat="42.40161462937334" lon="-8.805170313596696"><ele>23.333333333333332</ele><time>2026-04-05T16:01:15.999Z</time></trkpt><trkpt lat="42.40160837283431" lon="-8.80526196381555"><ele>23.666666666666668</ele><time>2026-04-05T16:01:16.999Z</time></trkpt><trkpt lat="42.401602300486644" lon="-8.805356137150797"><ele>24.0</ele><time>2026-04-05T16:01:17.999Z</time></trkpt><trkpt lat="42.40159653944987" lon="-8.805445482678378"><ele>24.0</ele><time>2026-04-05T16:01:18.999Z</time></trkpt><trkpt lat="42.40159085142112" lon="-8.805533695882012"><ele>24.0</ele><time>2026-04-05T16:01:19.999Z</time></trkpt><trkpt lat="42.40158469989916" lon="-8.80562909708018"><ele>24.0</ele><time>2026-04-05T16:01:20.999Z</time></trkpt><trkpt lat="42.4015782627823" lon="-8.805728927496771"><ele>24.0</ele><time>2026-04-05T16:01:21.999Z</time></trkpt><trkpt lat="42.401566050242984" lon="-8.805821196143022"><ele>24.0</ele><time>2026-04-05T16:01:23.999Z</time></trkpt><trkpt lat="42.401553221523706" lon="-8.805972565163373"><ele>24.0</ele><time>2026-04-05T16:01:26.999Z</time></trkpt><trkpt lat="42.40154805093072" lon="-8.806149990949834"><ele>24.833333333333332</ele><time>2026-04-05T16:01:28.999Z</time></trkpt><trkpt lat="42.401539311756586" lon="-8.80625252827937"><ele>25.666666666666664</ele><time>2026-04-05T16:01:29.999Z</time></trkpt><trkpt lat="42.40152217813427" lon="-8.806355978965952"><ele>26.5</ele><time>2026-04-05T16:01:30.999Z</time></trkpt><trkpt lat="42.4015189177222" lon="-8.806459203078633"><ele>27.333333333333332</ele><time>2026-04-05T16:01:31.999Z</time></trkpt><trkpt lat="42.40151213335294" lon="-8.806547734989966"><ele>28.166666666666664</ele><time>2026-04-05T16:01:32.999Z</time></trkpt><trkpt lat="42.401515238011264" lon="-8.806700549479753"><ele>29.0</ele><time>2026-04-05T16:01:34.999Z</time></trkpt><trkpt lat="42.40150082125687" lon="-8.806855094269139"><ele>29.499999999999996</ele><time>2026-04-05T16:01:36.999Z</time></trkpt><trkpt lat="42.40148665779297" lon="-8.807015925673547"><ele>30.0</ele><time>2026-04-05T16:01:38.999Z</time></trkpt><trkpt lat="42.401489601425695" lon="-8.807113583868627"><ele>30.5</ele><time>2026-04-05T16:01:39.999Z</time></trkpt><trkpt lat="42.40149843668984" lon="-8.807218479863579"><ele>31.0</ele><time>2026-04-05T16:01:40.999Z</time></trkpt><trkpt lat="42.401514243108444" lon="-8.807323384871484"><ele>31.499999999999996</ele><time>2026-04-05T16:01:41.999Z</time></trkpt><trkpt lat="42.40154069161512" lon="-8.807428818226766"><ele>32.0</ele><time>2026-04-05T16:01:42.999Z</time></trkpt><trkpt lat="42.40157810419281" lon="-8.807536501508327"><ele>31.999999999999996</ele><time>2026-04-05T16:01:44Z</time></trkpt><trkpt lat="42.40162572094585" lon="-8.80764383508936"><ele>32.0</ele><time>2026-04-05T16:01:45Z</time></trkpt><trkpt lat="42.40168059131725" lon="-8.807741760709714"><ele>32.0</ele><time>2026-04-05T16:01:46Z</time></trkpt><trkpt lat="42.40173258588099" lon="-8.807821717274082"><ele>32.0</ele><time>2026-04-05T16:01:47Z</time></trkpt><trkpt lat="42.40178747802041" lon="-8.807885169785047"><ele>31.999999999999996</ele><time>2026-04-05T16:01:48Z</time></trkpt><trkpt lat="42.40184710382568" lon="-8.807947802387792"><ele>32.0</ele><time>2026-04-05T16:01:49Z</time></trkpt><trkpt lat="42.401912615227964" lon="-8.807998771388736"><ele>32.4</ele><time>2026-04-05T16:01:50Z</time></trkpt><trkpt lat="42.401971765057866" lon="-8.808041674390926"><ele>32.800000000000004</ele><time>2026-04-05T16:01:51Z</time></trkpt><trkpt lat="42.402033975348644" lon="-8.808083770153365"><ele>33.2</ele><time>2026-04-05T16:01:53Z</time></trkpt><trkpt lat="42.40210272752223" lon="-8.80814169431906"><ele>33.6</ele><time>2026-04-05T16:01:55Z</time></trkpt><trkpt lat="42.40219327737404" lon="-8.808224927052684"><ele>34.0</ele><time>2026-04-05T16:01:57Z</time></trkpt><trkpt lat="42.402303972386214" lon="-8.808311778740178"><ele>34.0</ele><time>2026-04-05T16:01:59Z</time></trkpt><trkpt lat="42.40235863892796" lon="-8.808360471425521"><ele>34.0</ele><time>2026-04-05T16:02:00Z</time></trkpt><trkpt lat="42.40242213761134" lon="-8.80840614413887"><ele>34.0</ele><time>2026-04-05T16:02:01Z</time></trkpt><trkpt lat="42.40249664582585" lon="-8.808462514035085"><ele>34.0</ele><time>2026-04-05T16:02:02Z</time></trkpt><trkpt lat="42.402572756972525" lon="-8.808499273223031"><ele>34.0</ele><time>2026-04-05T16:02:03Z</time></trkpt><trkpt lat="42.40263022081001" lon="-8.808540535913233"><ele>34.0</ele><time>2026-04-05T16:02:04Z</time></trkpt><trkpt lat="42.402734645462694" lon="-8.808615519621538"><ele>34.833333333333336</ele><time>2026-04-05T16:02:06Z</time></trkpt><trkpt lat="42.40279192970466" lon="-8.808655050122258"><ele>35.66666666666667</ele><time>2026-04-05T16:02:07Z</time></trkpt><trkpt lat="42.402848183034315" lon="-8.80870519893521"><ele>36.5</ele><time>2026-04-05T16:02:08Z</time></trkpt><trkpt lat="42.40292099806658" lon="-8.808713012270488"><ele>37.333333333333336</ele><time>2026-04-05T16:02:09Z</time></trkpt><trkpt lat="42.40302938028866" lon="-8.808729770242092"><ele>38.166666666666664</ele><time>2026-04-05T16:02:11Z</time></trkpt><trkpt lat="42.40306965155268" lon="-8.808845016072102"><ele>39.0</ele><time>2026-04-05T16:02:13Z</time></trkpt><trkpt lat="42.403042511212504" lon="-8.808928171923231"><ele>36.8</ele><time>2026-04-05T16:02:14Z</time></trkpt><trkpt lat="42.40299679405519" lon="-8.809005381547761"><ele>34.599999999999994</ele><time>2026-04-05T16:02:15Z</time></trkpt><trkpt lat="42.40296454885719" lon="-8.80908097287053"><ele>32.4</ele><time>2026-04-05T16:02:16Z</time></trkpt><trkpt lat="42.402923746702825" lon="-8.809244022512276"><ele>30.2</ele><time>2026-04-05T16:02:18Z</time></trkpt><trkpt lat="42.40290401345651" lon="-8.809328490212652"><ele>28.0</ele><time>2026-04-05T16:02:19Z</time></trkpt><trkpt lat="42.402858862122045" lon="-8.809487655728528"><ele>27.799999999999997</ele><time>2026-04-05T16:02:21Z</time></trkpt><trkpt lat="42.40283508305683" lon="-8.809566654662236"><ele>27.599999999999998</ele><time>2026-04-05T16:02:22Z</time></trkpt><trkpt lat="42.40280910577146" lon="-8.809648787517013"><ele>27.400000000000002</ele><time>2026-04-05T16:02:23Z</time></trkpt><trkpt lat="42.40277897242664" lon="-8.809787383118438"><ele>27.200000000000003</ele><time>2026-04-05T16:02:25Z</time></trkpt><trkpt lat="42.402649632462555" lon="-8.809806964942945"><ele>27.0</ele><time>2026-04-05T16:02:27Z</time></trkpt><trkpt lat="42.402546894233765" lon="-8.80977263541937"><ele>27.0</ele><time>2026-04-05T16:02:29Z</time></trkpt><trkpt lat="42.40244171218822" lon="-8.80973617047473"><ele>27.000000000000004</ele><time>2026-04-05T16:02:31Z</time></trkpt><trkpt lat="42.40233723634787" lon="-8.809727685714735"><ele>27.000000000000004</ele><time>2026-04-05T16:02:33Z</time></trkpt><trkpt lat="42.40226092464514" lon="-8.809714304194918"><ele>27.0</ele><time>2026-04-05T16:02:35Z</time></trkpt><trkpt lat="42.40219603136357" lon="-8.809706858336874"><ele>27.0</ele><time>2026-04-05T16:02:37Z</time></trkpt><trkpt lat="42.402092628298774" lon="-8.80970263269034"><ele>25.0</ele><time>2026-04-05T16:02:40Z</time></trkpt><trkpt lat="42.40200370164163" lon="-8.809718155304758"><ele>23.000000000000004</ele><time>2026-04-05T16:02:42Z</time></trkpt><trkpt lat="42.40190020520305" lon="-8.809737840978428"><ele>21.0</ele><time>2026-04-05T16:02:44Z</time></trkpt><trkpt lat="42.40177260926839" lon="-8.809765568560097"><ele>19.0</ele><time>2026-04-05T16:02:46Z</time></trkpt><trkpt lat="42.401667677439434" lon="-8.809794157077274"><ele>17.0</ele><time>2026-04-05T16:02:47.999Z</time></trkpt><trkpt lat="42.40156194464439" lon="-8.80981050088564"><ele>17.0</ele><time>2026-04-05T16:02:49.999Z</time></trkpt><trkpt lat="42.401484596955136" lon="-8.809834621040093"><ele>17.0</ele><time>2026-04-05T16:02:51.999Z</time></trkpt><trkpt lat="42.40141848887463" lon="-8.809857724451247"><ele>17.0</ele><time>2026-04-05T16:02:53.999Z</time></trkpt><trkpt lat="42.40133865782359" lon="-8.809886169438629"><ele>17.0</ele><time>2026-04-05T16:02:56.999Z</time></trkpt><trkpt lat="42.401257473234224" lon="-8.80989436909517"><ele>17.0</ele><time>2026-04-05T16:03:05.999Z</time></trkpt><trkpt lat="42.40118957519248" lon="-8.809884026075418"><ele>17.0</ele><time>2026-04-05T16:03:08.999Z</time></trkpt><trkpt lat="42.40108323647285" lon="-8.809766852161939"><ele>15.8</ele><time>2026-04-05T16:03:11.999Z</time></trkpt><trkpt lat="42.401061037503744" lon="-8.809607391172852"><ele>14.6</ele><time>2026-04-05T16:03:13.999Z</time></trkpt><trkpt lat="42.401037309368085" lon="-8.809441520805496"><ele>13.4</ele><time>2026-04-05T16:03:15.999Z</time></trkpt><trkpt lat="42.401012866508914" lon="-8.809331534798673"><ele>12.200000000000001</ele><time>2026-04-05T16:03:17.999Z</time></trkpt><trkpt lat="42.40098051478897" lon="-8.809253450351585"><ele>11.0</ele><time>2026-04-05T16:03:19.999Z</time></trkpt><trkpt lat="42.4009342342605" lon="-8.80917128384884"><ele>11.0</ele><time>2026-04-05T16:03:21.999Z</time></trkpt><trkpt lat="42.400880172714324" lon="-8.80908231787588"><ele>11.0</ele><time>2026-04-05T16:03:23.999Z</time></trkpt><trkpt lat="42.40083680278145" lon="-8.808980778771483"><ele>11.0</ele><time>2026-04-05T16:03:25.999Z</time></trkpt><trkpt lat="42.40077727659108" lon="-8.808896894690296"><ele>11.0</ele><time>2026-04-05T16:03:27.999Z</time></trkpt><trkpt lat="42.40069424849235" lon="-8.808754811262803"><ele>11.0</ele><time>2026-04-05T16:03:30.999Z</time></trkpt><trkpt lat="42.40064821979673" lon="-8.808649031143105"><ele>11.0</ele><time>2026-04-05T16:03:32.999Z</time></trkpt><trkpt lat="42.40059049958052" lon="-8.80857056207941"><ele>11.0</ele><time>2026-04-05T16:03:34.999Z</time></trkpt><trkpt lat="42.40054332886231" lon="-8.808460433362276"><ele>11.0</ele><time>2026-04-05T16:03:36.999Z</time></trkpt><trkpt lat="42.40050517875759" lon="-8.808355575055813"><ele>11.0</ele><time>2026-04-05T16:03:38.999Z</time></trkpt><trkpt lat="42.400485096024816" lon="-8.808243251089023"><ele>11.0</ele><time>2026-04-05T16:03:40.999Z</time></trkpt><trkpt lat="42.40043532371768" lon="-8.808138386127373"><ele>11.0</ele><time>2026-04-05T16:03:42.999Z</time></trkpt><trkpt lat="42.40040298186609" lon="-8.808030391336457"><ele>10.666666666666666</ele><time>2026-04-05T16:03:44.999Z</time></trkpt><trkpt lat="42.400369645969555" lon="-8.80791907687163"><ele>10.333333333333332</ele><time>2026-04-05T16:03:46.999Z</time></trkpt><trkpt lat="42.40033750142156" lon="-8.807811739091168"><ele>10.0</ele><time>2026-04-05T16:03:48.999Z</time></trkpt><trkpt lat="42.400326886078524" lon="-8.807702348782469"><ele>9.666666666666666</ele><time>2026-04-05T16:03:51Z</time></trkpt><trkpt lat="42.40027770505608" lon="-8.807615564393604"><ele>9.333333333333334</ele><time>2026-04-05T16:03:53Z</time></trkpt><trkpt lat="42.40020191788414" lon="-8.807532952484491"><ele>9.0</ele><time>2026-04-05T16:03:55Z</time></trkpt><trkpt lat="42.40011541127338" lon="-8.807456539875087"><ele>9.0</ele><time>2026-04-05T16:03:57Z</time></trkpt><trkpt lat="42.40000773822125" lon="-8.807412141926317"><ele>9.0</ele><time>2026-04-05T16:03:59Z</time></trkpt><trkpt lat="42.39990010074745" lon="-8.807379192451862"><ele>9.0</ele><time>2026-04-05T16:04:01Z</time></trkpt><trkpt lat="42.399819304421136" lon="-8.80738309040071"><ele>9.0</ele><time>2026-04-05T16:04:03Z</time></trkpt><trkpt lat="42.39975706810993" lon="-8.807396107439962"><ele>9.0</ele><time>2026-04-05T16:04:06Z</time></trkpt><trkpt lat="42.39973258085256" lon="-8.807186117819178"><ele>9.0</ele><time>2026-04-05T16:04:12Z</time></trkpt><trkpt lat="42.39967060397629" lon="-8.807108707141884"><ele>9.0</ele><time>2026-04-05T16:04:14Z</time></trkpt><trkpt lat="42.39960290498424" lon="-8.807028261218033"><ele>9.0</ele><time>2026-04-05T16:04:16Z</time></trkpt><trkpt lat="42.399547093166966" lon="-8.80697487641381"><ele>9.0</ele><time>2026-04-05T16:04:18Z</time></trkpt><trkpt lat="42.39948476003442" lon="-8.806917813400647"><ele>9.0</ele><time>2026-04-05T16:04:22Z</time></trkpt><trkpt lat="42.399399248057634" lon="-8.806954876612972"><ele>9.0</ele><time>2026-04-05T16:04:24Z</time></trkpt><trkpt lat="42.399189010105324" lon="-8.80722894267597"><ele>5.5</ele><time>2026-04-05T16:04:27Z</time></trkpt><trkpt lat="42.39934123699776" lon="-8.806941604350117"><ele>2.0</ele><time>2026-04-05T16:04:46Z</time></trkpt><trkpt lat="42.39950636913015" lon="-8.807080975989363"><ele>2.0</ele><time>2026-04-05T16:05:42.02Z</time></trkpt><trkpt lat="42.3992946856958" lon="-8.807085963248037"><ele>2.0</ele><time>2026-04-05T16:06:00Z</time></trkpt><trkpt lat="42.399319422440186" lon="-8.806989222160187"><ele>2.0</ele><time>2026-04-05T16:06:01Z</time></trkpt><trkpt lat="42.39937853493413" lon="-8.80692650720155"><ele>2.0</ele><time>2026-04-05T16:06:22Z</time></trkpt><trkpt lat="42.39945511337614" lon="-8.806705148898814"><ele>2.0</ele><time>2026-04-05T16:06:36Z</time></trkpt><trkpt lat="42.39940489317154" lon="-8.807033282139262"><ele>2.0</ele><time>2026-04-05T16:07:15.999Z</time></trkpt><trkpt lat="42.39947313446796" lon="-8.806707998745894"><ele>2.0</ele><time>2026-04-05T16:07:17.999Z</time></trkpt><trkpt lat="42.39951122667185" lon="-8.807025649828516"><ele>2.0</ele><time>2026-04-05T16:07:31.413Z</time></trkpt><trkpt lat="42.399308270328255" lon="-8.807205359401934"><ele>1.9999999999999998</ele><time>2026-04-05T16:07:49.43Z</time></trkpt><trkpt lat="42.39932720035862" lon="-8.807085590891692"><ele>2.0</ele><time>2026-04-05T16:12:17.904Z</time></trkpt><trkpt lat="42.39930334856191" lon="-8.806941424668935"><ele>2.0</ele><time>2026-04-05T16:14:39.665Z</time></trkpt><trkpt lat="42.39930603950404" lon="-8.806811154976378"><ele>2.0</ele><time>2026-04-05T16:14:42.016Z</time></trkpt><trkpt lat="42.399356936312536" lon="-8.806869763026924"><ele>1.9999999999999998</ele><time>2026-04-05T16:14:44.996Z</time></trkpt><trkpt lat="42.39927084585668" lon="-8.806854290877514"><ele>2.0</ele><time>2026-04-05T16:14:49.906Z</time></trkpt><trkpt lat="42.399276534552186" lon="-8.806953086543409"><ele>2.0</ele><time>2026-04-05T16:14:56Z</time></trkpt><trkpt lat="42.3992493064399" lon="-8.807044259669745"><ele>1.9999999999999998</ele><time>2026-04-05T16:15:35Z</time></trkpt><trkpt lat="42.39931191881781" lon="-8.806977101550572"><ele>2.0</ele><time>2026-04-05T16:15:43Z</time></trkpt><trkpt lat="42.39927399969866" lon="-8.807053052617787"><ele>2.0</ele><time>2026-04-05T16:16:31.999Z</time></trkpt><trkpt lat="42.39924619073824" lon="-8.80697333543126"><ele>1.9999999999999998</ele><time>2026-04-05T16:16:47.999Z</time></trkpt><trkpt lat="42.3992191017658" lon="-8.807086892100834"><ele>2.0</ele><time>2026-04-05T16:17:02Z</time></trkpt><trkpt lat="42.399281880376435" lon="-8.807046644960193"><ele>2.0</ele><time>2026-04-05T16:17:24Z</time></trkpt><trkpt lat="42.39924079801368" lon="-8.806976121269518"><ele>2.0</ele><time>2026-04-05T16:17:35Z</time></trkpt><trkpt lat="42.39920415506438" lon="-8.80689932147332"><ele>2.0</ele><time>2026-04-05T16:17:41Z</time></trkpt><trkpt lat="42.39925171308241" lon="-8.806821809302159"><ele>7.0</ele><time>2026-04-05T16:18:06.999Z</time></trkpt><trkpt lat="42.39930118405621" lon="-8.806894295393294"><ele>2.0</ele><time>2026-04-05T16:18:11.999Z</time></trkpt><trkpt lat="42.39933483140259" lon="-8.806968126620465"><ele>2.0</ele><time>2026-04-05T16:18:16.999Z</time></trkpt><trkpt lat="42.39938890883427" lon="-8.806912421440117"><ele>2.0</ele><time>2026-04-05T16:18:34.999Z</time></trkpt></trkseg><trkseg><trkpt lat="42.39927256351035" lon="-8.806956792560392"><ele>2.0</ele><time>2026-04-05T16:56:44Z</time></trkpt><trkpt lat="42.39934794255075" lon="-8.806969130309316"><ele>2.0</ele><time>2026-04-05T16:56:49Z</time></trkpt><trkpt lat="42.39941850048788" lon="-8.807020010163987"><ele>2.0</ele><time>2026-04-05T16:56:54Z</time></trkpt><trkpt lat="42.39966807057382" lon="-8.807030041903309"><ele>2.0</ele><time>2026-04-05T16:57:05.999Z</time></trkpt><trkpt lat="42.399731072227794" lon="-8.807073501090168"><ele>3.4000000000000004</ele><time>2026-04-05T16:57:08.999Z</time></trkpt><trkpt lat="42.39979704949548" lon="-8.807114341688573"><ele>4.800000000000001</ele><time>2026-04-05T16:57:10.999Z</time></trkpt><trkpt lat="42.399789149250175" lon="-8.807219224572915"><ele>6.2</ele><time>2026-04-05T16:57:13.999Z</time></trkpt><trkpt lat="42.399763853851155" lon="-8.807302688927109"><ele>7.6000000000000005</ele><time>2026-04-05T16:57:16.999Z</time></trkpt><trkpt lat="42.399864512718494" lon="-8.807365734358797"><ele>9.0</ele><time>2026-04-05T16:58:45Z</time></trkpt><trkpt lat="42.40001014731991" lon="-8.807368975098997"><ele>9.000000000000002</ele><time>2026-04-05T16:58:49Z</time></trkpt><trkpt lat="42.400078215582106" lon="-8.807389214459407"><ele>9.0</ele><time>2026-04-05T16:58:51Z</time></trkpt><trkpt lat="42.40015602321787" lon="-8.80740563842541"><ele>9.0</ele><time>2026-04-05T16:58:54Z</time></trkpt><trkpt lat="42.40022594768729" lon="-8.807418474409545"><ele>9.0</ele><time>2026-04-05T17:00:38Z</time></trkpt><trkpt lat="42.40027448934808" lon="-8.807362089946444"><ele>9.0</ele><time>2026-04-05T17:00:41Z</time></trkpt><trkpt lat="42.40028513227783" lon="-8.807271458720832"><ele>9.000000000000002</ele><time>2026-04-05T17:00:46.999Z</time></trkpt><trkpt lat="42.40025936726693" lon="-8.80716800218553"><ele>9.0</ele><time>2026-04-05T17:00:49.999Z</time></trkpt><trkpt lat="42.400262771551446" lon="-8.80706384591978"><ele>9.0</ele><time>2026-04-05T17:00:51.999Z</time></trkpt><trkpt lat="42.400232466957874" lon="-8.806959429366632"><ele>9.0</ele><time>2026-04-05T17:00:54.999Z</time></trkpt><trkpt lat="42.400242201067876" lon="-8.806834696142722"><ele>9.0</ele><time>2026-04-05T17:00:57.999Z</time></trkpt><trkpt lat="42.40022700467969" lon="-8.806735774882924"><ele>9.0</ele><time>2026-04-05T17:00:59.999Z</time></trkpt><trkpt lat="42.4002108004927" lon="-8.806592908764502"><ele>9.0</ele><time>2026-04-05T17:01:01.999Z</time></trkpt><trkpt lat="42.40020942372856" lon="-8.806477410752475"><ele>9.0</ele><time>2026-04-05T17:01:03.999Z</time></trkpt><trkpt lat="42.40020681820534" lon="-8.806391520367734"><ele>8.833333333333334</ele><time>2026-04-05T17:01:08.999Z</time></trkpt><trkpt lat="42.40019273561714" lon="-8.806298407147452"><ele>8.666666666666666</ele><time>2026-04-05T17:01:12.999Z</time></trkpt><trkpt lat="42.40019138674702" lon="-8.806195005989393"><ele>8.5</ele><time>2026-04-05T17:01:15.999Z</time></trkpt><trkpt lat="42.40017874647835" lon="-8.806107468120171"><ele>8.333333333333332</ele><time>2026-04-05T17:01:17.999Z</time></trkpt><trkpt lat="42.40017557458803" lon="-8.80599443249231"><ele>8.166666666666666</ele><time>2026-04-05T17:01:20.999Z</time></trkpt><trkpt lat="42.400190830277914" lon="-8.805901118293495"><ele>8.0</ele><time>2026-04-05T17:01:22.999Z</time></trkpt><trkpt lat="42.40019230466139" lon="-8.805778844859505"><ele>8.0</ele><time>2026-04-05T17:01:24.999Z</time></trkpt><trkpt lat="42.40020251298254" lon="-8.805650836457312"><ele>8.0</ele><time>2026-04-05T17:01:26.999Z</time></trkpt><trkpt lat="42.40021168249589" lon="-8.805509663463662"><ele>8.0</ele><time>2026-04-05T17:01:28.999Z</time></trkpt><trkpt lat="42.400209725772285" lon="-8.805377676157644"><ele>8.0</ele><time>2026-04-05T17:01:30.999Z</time></trkpt><trkpt lat="42.40022562868581" lon="-8.80525172811811"><ele>8.0</ele><time>2026-04-05T17:01:32.999Z</time></trkpt><trkpt lat="42.40023696875986" lon="-8.805133138059954"><ele>7.2</ele><time>2026-04-05T17:01:34.999Z</time></trkpt><trkpt lat="42.40030729976537" lon="-8.805062556812077"><ele>6.4</ele><time>2026-04-05T17:01:36.999Z</time></trkpt><trkpt lat="42.40039832325967" lon="-8.805098118194882"><ele>5.6000000000000005</ele><time>2026-04-05T17:01:39.999Z</time></trkpt><trkpt lat="42.4005053818519" lon="-8.805108277457197"><ele>4.800000000000001</ele><time>2026-04-05T17:01:41.999Z</time></trkpt><trkpt lat="42.40060809676937" lon="-8.805116307900596"><ele>4.0</ele><time>2026-04-05T17:01:42.999Z</time></trkpt><trkpt lat="42.40071795464693" lon="-8.80513716998247"><ele>6.0</ele><time>2026-04-05T17:01:43.999Z</time></trkpt><trkpt lat="42.40083098808585" lon="-8.805148754150443"><ele>8.0</ele><time>2026-04-05T17:01:44.999Z</time></trkpt><trkpt lat="42.40094539212124" lon="-8.80517784605882"><ele>9.999999999999998</ele><time>2026-04-05T17:01:45.999Z</time></trkpt><trkpt lat="42.40103975653217" lon="-8.80520385818002"><ele>12.0</ele><time>2026-04-05T17:01:47Z</time></trkpt><trkpt lat="42.4011254422072" lon="-8.805196818378661"><ele>14.0</ele><time>2026-04-05T17:01:48Z</time></trkpt><trkpt lat="42.40120928005814" lon="-8.805168522602921"><ele>14.0</ele><time>2026-04-05T17:01:49Z</time></trkpt><trkpt lat="42.401267973567094" lon="-8.80513426160249"><ele>14.0</ele><time>2026-04-05T17:01:50Z</time></trkpt><trkpt lat="42.40132715842032" lon="-8.80509613387027"><ele>14.0</ele><time>2026-04-05T17:02:01Z</time></trkpt><trkpt lat="42.401388106283676" lon="-8.805047936777425"><ele>14.0</ele><time>2026-04-05T17:02:05Z</time></trkpt><trkpt lat="42.40145289265872" lon="-8.805001856256043"><ele>14.0</ele><time>2026-04-05T17:02:07Z</time></trkpt><trkpt lat="42.40153149059895" lon="-8.804957703714457"><ele>14.0</ele><time>2026-04-05T17:02:10Z</time></trkpt><trkpt lat="42.40158356838383" lon="-8.804890084024036"><ele>14.0</ele><time>2026-04-05T17:02:14Z</time></trkpt><trkpt lat="42.40163296395485" lon="-8.804815042329482"><ele>15.6</ele><time>2026-04-05T17:02:19Z</time></trkpt><trkpt lat="42.40161857770801" lon="-8.804698178582687"><ele>17.2</ele><time>2026-04-05T17:02:20Z</time></trkpt><trkpt lat="42.40163318887529" lon="-8.804562301321385"><ele>18.8</ele><time>2026-04-05T17:02:22Z</time></trkpt><trkpt lat="42.40162817410838" lon="-8.804420621215607"><ele>20.400000000000002</ele><time>2026-04-05T17:02:24Z</time></trkpt><trkpt lat="42.401641969667196" lon="-8.80425910205384"><ele>22.0</ele><time>2026-04-05T17:02:26Z</time></trkpt><trkpt lat="42.40164834749889" lon="-8.804169249000891"><ele>22.0</ele><time>2026-04-05T17:02:27Z</time></trkpt><trkpt lat="42.40165906869599" lon="-8.803998282136666"><ele>22.0</ele><time>2026-04-05T17:02:29Z</time></trkpt><trkpt lat="42.401664378845474" lon="-8.803911660297713"><ele>22.0</ele><time>2026-04-05T17:02:30Z</time></trkpt><trkpt lat="42.40166964498904" lon="-8.803825756323873"><ele>22.0</ele><time>2026-04-05T17:02:31Z</time></trkpt><trkpt lat="42.40168196429634" lon="-8.803673931938615"><ele>22.0</ele><time>2026-04-05T17:02:33Z</time></trkpt><trkpt lat="42.40169668320044" lon="-8.803539744190008"><ele>21.6</ele><time>2026-04-05T17:02:35Z</time></trkpt><trkpt lat="42.401713073425775" lon="-8.803409032549272"><ele>21.200000000000003</ele><time>2026-04-05T17:02:37Z</time></trkpt><trkpt lat="42.40172706847919" lon="-8.803262676802225"><ele>20.8</ele><time>2026-04-05T17:02:39Z</time></trkpt><trkpt lat="42.40173570635212" lon="-8.8031098723633"><ele>20.4</ele><time>2026-04-05T17:02:41Z</time></trkpt><trkpt lat="42.401745947825475" lon="-8.80294753902126"><ele>20.0</ele><time>2026-04-05T17:02:43Z</time></trkpt><trkpt lat="42.40175700495217" lon="-8.802778874875125"><ele>20.0</ele><time>2026-04-05T17:02:45Z</time></trkpt><trkpt lat="42.4017629620887" lon="-8.802688005384848"><ele>20.0</ele><time>2026-04-05T17:02:46Z</time></trkpt><trkpt lat="42.40176893689433" lon="-8.802596866361755"><ele>20.0</ele><time>2026-04-05T17:02:47Z</time></trkpt><trkpt lat="42.40177504778141" lon="-8.802503651565422"><ele>20.0</ele><time>2026-04-05T17:02:48Z</time></trkpt><trkpt lat="42.40177988933445" lon="-8.80240863289439"><ele>20.0</ele><time>2026-04-05T17:02:49Z</time></trkpt><trkpt lat="42.40178413539764" lon="-8.80232191887073"><ele>20.0</ele><time>2026-04-05T17:02:50Z</time></trkpt><trkpt lat="42.40178647250265" lon="-8.802167483367878"><ele>19.5</ele><time>2026-04-05T17:02:52Z</time></trkpt><trkpt lat="42.401783437259475" lon="-8.802009564304683"><ele>19.0</ele><time>2026-04-05T17:02:54Z</time></trkpt><trkpt lat="42.40177181110712" lon="-8.801863719984999"><ele>18.5</ele><time>2026-04-05T17:02:56Z</time></trkpt><trkpt lat="42.401756719216415" lon="-8.801764529050596"><ele>18.0</ele><time>2026-04-05T17:02:57Z</time></trkpt><trkpt lat="42.40175621053617" lon="-8.801662981320865"><ele>17.5</ele><time>2026-04-05T17:02:58Z</time></trkpt><trkpt lat="42.40173373573536" lon="-8.80158058142034"><ele>17.0</ele><time>2026-04-05T17:02:59Z</time></trkpt><trkpt lat="42.401690852088414" lon="-8.801461044234998"><ele>17.0</ele><time>2026-04-05T17:03:01Z</time></trkpt><trkpt lat="42.401584050323486" lon="-8.801386012156945"><ele>17.0</ele><time>2026-04-05T17:03:03Z</time></trkpt><trkpt lat="42.40154357784797" lon="-8.801320386997613"><ele>17.0</ele><time>2026-04-05T17:03:04Z</time></trkpt><trkpt lat="42.40152697301082" lon="-8.801231750586753"><ele>17.0</ele><time>2026-04-05T17:03:05Z</time></trkpt><trkpt lat="42.401535061012474" lon="-8.801040291770544"><ele>17.0</ele><time>2026-04-05T17:03:07Z</time></trkpt><trkpt lat="42.40150976041799" lon="-8.800938475561868"><ele>16.999999999999996</ele><time>2026-04-05T17:03:08Z</time></trkpt><trkpt lat="42.40149063949336" lon="-8.800834111984894"><ele>17.0</ele><time>2026-04-05T17:03:09Z</time></trkpt><trkpt lat="42.40146397808607" lon="-8.80074642989893"><ele>17.0</ele><time>2026-04-05T17:03:10Z</time></trkpt><trkpt lat="42.40143344001595" lon="-8.80065923461521"><ele>17.0</ele><time>2026-04-05T17:03:11Z</time></trkpt><trkpt lat="42.401378171510956" lon="-8.800594478811917"><ele>17.0</ele><time>2026-04-05T17:03:12Z</time></trkpt><trkpt lat="42.40135881728101" lon="-8.800506386507564"><ele>16.999999999999996</ele><time>2026-04-05T17:03:13Z</time></trkpt><trkpt lat="42.40131461929234" lon="-8.800430544318004"><ele>17.0</ele><time>2026-04-05T17:03:14Z</time></trkpt><trkpt lat="42.401280085595936" lon="-8.800353528129667"><ele>17.166666666666668</ele><time>2026-04-05T17:03:15Z</time></trkpt><trkpt lat="42.401249774499874" lon="-8.800277686601147"><ele>17.333333333333336</ele><time>2026-04-05T17:03:16Z</time></trkpt><trkpt lat="42.40121313603699" lon="-8.800186013386423"><ele>17.5</ele><time>2026-04-05T17:03:17Z</time></trkpt><trkpt lat="42.40117851356299" lon="-8.800099384110398"><ele>17.666666666666668</ele><time>2026-04-05T17:03:18Z</time></trkpt><trkpt lat="42.401142096044204" lon="-8.800007160055655"><ele>17.833333333333332</ele><time>2026-04-05T17:03:19Z</time></trkpt><trkpt lat="42.40110332547346" lon="-8.799910371954368"><ele>18.0</ele><time>2026-04-05T17:03:20Z</time></trkpt><trkpt lat="42.40106381223891" lon="-8.799812418819036"><ele>18.0</ele><time>2026-04-05T17:03:21Z</time></trkpt><trkpt lat="42.40102363373156" lon="-8.799712959699027"><ele>18.0</ele><time>2026-04-05T17:03:22Z</time></trkpt><trkpt lat="42.40098478036814" lon="-8.799615531892071"><ele>18.0</ele><time>2026-04-05T17:03:23Z</time></trkpt><trkpt lat="42.40094548476949" lon="-8.79951686688268"><ele>18.0</ele><time>2026-04-05T17:03:24Z</time></trkpt><trkpt lat="42.40090662157591" lon="-8.799419287590837"><ele>18.0</ele><time>2026-04-05T17:03:25Z</time></trkpt><trkpt lat="42.40086758917427" lon="-8.799321283475901"><ele>18.0</ele><time>2026-04-05T17:03:26Z</time></trkpt><trkpt lat="42.40082875466909" lon="-8.799223775994212"><ele>18.5</ele><time>2026-04-05T17:03:27Z</time></trkpt><trkpt lat="42.40079018004978" lon="-8.799126475199497"><ele>19.0</ele><time>2026-04-05T17:03:28Z</time></trkpt><trkpt lat="42.40075103946339" lon="-8.799027764472099"><ele>19.5</ele><time>2026-04-05T17:03:29Z</time></trkpt><trkpt lat="42.40071389301562" lon="-8.798934654580782"><ele>20.0</ele><time>2026-04-05T17:03:30Z</time></trkpt><trkpt lat="42.40067788952137" lon="-8.79884440947281"><ele>20.5</ele><time>2026-04-05T17:03:31Z</time></trkpt><trkpt lat="42.40064012299806" lon="-8.798749745254293"><ele>21.0</ele><time>2026-04-05T17:03:32Z</time></trkpt><trkpt lat="42.40060164183027" lon="-8.7986532897586"><ele>21.0</ele><time>2026-04-05T17:03:33Z</time></trkpt><trkpt lat="42.40056295554787" lon="-8.798556320138376"><ele>21.0</ele><time>2026-04-05T17:03:34Z</time></trkpt><trkpt lat="42.40052336597808" lon="-8.798457086345998"><ele>21.0</ele><time>2026-04-05T17:03:35Z</time></trkpt><trkpt lat="42.40048482385731" lon="-8.798360478088751"><ele>21.0</ele><time>2026-04-05T17:03:36Z</time></trkpt><trkpt lat="42.40044560092876" lon="-8.798262163300272"><ele>21.0</ele><time>2026-04-05T17:03:37Z</time></trkpt><trkpt lat="42.40040497211609" lon="-8.798160324569086"><ele>21.0</ele><time>2026-04-05T17:03:38Z</time></trkpt><trkpt lat="42.40036477366095" lon="-8.798059564597628"><ele>18.400000000000002</ele><time>2026-04-05T17:03:39Z</time></trkpt><trkpt lat="42.400326127484156" lon="-8.797962695518992"><ele>15.8</ele><time>2026-04-05T17:03:40Z</time></trkpt><trkpt lat="42.40028759583282" lon="-8.797866113470262"><ele>13.200000000000001</ele><time>2026-04-05T17:03:41Z</time></trkpt><trkpt lat="42.400245548578305" lon="-8.797760719336818"><ele>10.600000000000001</ele><time>2026-04-05T17:03:42Z</time></trkpt><trkpt lat="42.400198412373044" lon="-8.79764256791893"><ele>8.0</ele><time>2026-04-05T17:03:43Z</time></trkpt><trkpt lat="42.40014897535502" lon="-8.79752242758158"><ele>8.0</ele><time>2026-04-05T17:03:44Z</time></trkpt><trkpt lat="42.40009904900175" lon="-8.797398666952784"><ele>8.0</ele><time>2026-04-05T17:03:45Z</time></trkpt><trkpt lat="42.400048888770634" lon="-8.797274150176689"><ele>8.0</ele><time>2026-04-05T17:03:46Z</time></trkpt><trkpt lat="42.39999975230529" lon="-8.797152174765815"><ele>8.0</ele><time>2026-04-05T17:03:47Z</time></trkpt><trkpt lat="42.39995033598871" lon="-8.797029504624952"><ele>8.0</ele><time>2026-04-05T17:03:48Z</time></trkpt><trkpt lat="42.39990414746779" lon="-8.796914847118773"><ele>9.4</ele><time>2026-04-05T17:03:49Z</time></trkpt><trkpt lat="42.399859995703316" lon="-8.796805245673438"><ele>10.8</ele><time>2026-04-05T17:03:50Z</time></trkpt><trkpt lat="42.3998147014745" lon="-8.796692808101719"><ele>12.2</ele><time>2026-04-05T17:03:51Z</time></trkpt><trkpt lat="42.399768508791176" lon="-8.79657786677647"><ele>13.6</ele><time>2026-04-05T17:03:52Z</time></trkpt><trkpt lat="42.39972194332948" lon="-8.796461902858146"><ele>15.0</ele><time>2026-04-05T17:03:53Z</time></trkpt><trkpt lat="42.399677573558655" lon="-8.796351406870178"><ele>13.8</ele><time>2026-04-05T17:03:54Z</time></trkpt><trkpt lat="42.39963266969197" lon="-8.796239580388637"><ele>12.6</ele><time>2026-04-05T17:03:55Z</time></trkpt><trkpt lat="42.39958406918857" lon="-8.79611829833109"><ele>11.4</ele><time>2026-04-05T17:03:56Z</time></trkpt><trkpt lat="42.39953583236684" lon="-8.795997964789052"><ele>10.2</ele><time>2026-04-05T17:03:57Z</time></trkpt><trkpt lat="42.399486156359025" lon="-8.795874040920156"><ele>9.0</ele><time>2026-04-05T17:03:58Z</time></trkpt><trkpt lat="42.39943763692355" lon="-8.795753002344252"><ele>9.0</ele><time>2026-04-05T17:03:59Z</time></trkpt><trkpt lat="42.39938867743238" lon="-8.795630865946622"><ele>9.0</ele><time>2026-04-05T17:04:00Z</time></trkpt><trkpt lat="42.399338585654455" lon="-8.79550590489641"><ele>9.0</ele><time>2026-04-05T17:04:01Z</time></trkpt><trkpt lat="42.39929161708745" lon="-8.795388735218221"><ele>9.0</ele><time>2026-04-05T17:04:02Z</time></trkpt><trkpt lat="42.399246960075914" lon="-8.79527733195598"><ele>9.0</ele><time>2026-04-05T17:04:03Z</time></trkpt><trkpt lat="42.399204046452255" lon="-8.79516999522715"><ele>10.5</ele><time>2026-04-05T17:04:04Z</time></trkpt><trkpt lat="42.399163445040415" lon="-8.795068085286164"><ele>12.0</ele><time>2026-04-05T17:04:05Z</time></trkpt><trkpt lat="42.399123732229164" lon="-8.794968405791831"><ele>13.5</ele><time>2026-04-05T17:04:06Z</time></trkpt><trkpt lat="42.39908540869372" lon="-8.794872799375447"><ele>15.0</ele><time>2026-04-05T17:04:07Z</time></trkpt><trkpt lat="42.39904586561777" lon="-8.794774956668236"><ele>16.5</ele><time>2026-04-05T17:04:08Z</time></trkpt><trkpt lat="42.399014730580255" lon="-8.794659500346262"><ele>18.0</ele><time>2026-04-05T17:04:09Z</time></trkpt><trkpt lat="42.398967452170496" lon="-8.79455549367224"><ele>18.0</ele><time>2026-04-05T17:04:10Z</time></trkpt><trkpt lat="42.398920719570704" lon="-8.7944480050004"><ele>18.0</ele><time>2026-04-05T17:04:11Z</time></trkpt><trkpt lat="42.398879803637314" lon="-8.79433525900632"><ele>18.0</ele><time>2026-04-05T17:04:12Z</time></trkpt><trkpt lat="42.3988365522633" lon="-8.794225421342144"><ele>18.0</ele><time>2026-04-05T17:04:13Z</time></trkpt><trkpt lat="42.398788752966205" lon="-8.79412493670487"><ele>18.0</ele><time>2026-04-05T17:04:14Z</time></trkpt><trkpt lat="42.398748078975245" lon="-8.794031391961035"><ele>18.0</ele><time>2026-04-05T17:04:15Z</time></trkpt><trkpt lat="42.398698574752444" lon="-8.793941848549778"><ele>18.5</ele><time>2026-04-05T17:04:16Z</time></trkpt><trkpt lat="42.39865233702665" lon="-8.793855479071581"><ele>19.0</ele><time>2026-04-05T17:04:17Z</time></trkpt><trkpt lat="42.39862314203823" lon="-8.7937659464198"><ele>19.5</ele><time>2026-04-05T17:04:18Z</time></trkpt><trkpt lat="42.39857534947763" lon="-8.793707694494248"><ele>20.0</ele><time>2026-04-05T17:04:19Z</time></trkpt><trkpt lat="42.39849912289219" lon="-8.79361529522413"><ele>20.5</ele><time>2026-04-05T17:04:21Z</time></trkpt><trkpt lat="42.3984471605847" lon="-8.793533586437798"><ele>21.0</ele><time>2026-04-05T17:04:23Z</time></trkpt><trkpt lat="42.398394181827925" lon="-8.793450475507825"><ele>21.0</ele><time>2026-04-05T17:04:26Z</time></trkpt><trkpt lat="42.39837764667216" lon="-8.793332761680063"><ele>21.0</ele><time>2026-04-05T17:06:52Z</time></trkpt><trkpt lat="42.3983181099222" lon="-8.79318527864441"><ele>21.0</ele><time>2026-04-05T17:06:54Z</time></trkpt><trkpt lat="42.39828395494897" lon="-8.79309174638036"><ele>21.0</ele><time>2026-04-05T17:06:55Z</time></trkpt><trkpt lat="42.39820280310234" lon="-8.792998325747194"><ele>21.0</ele><time>2026-04-05T17:06:56Z</time></trkpt><trkpt lat="42.39816800381316" lon="-8.792905328824597"><ele>21.0</ele><time>2026-04-05T17:06:57Z</time></trkpt><trkpt lat="42.39813756621021" lon="-8.792814618772033"><ele>21.0</ele><time>2026-04-05T17:06:58Z</time></trkpt><trkpt lat="42.39810782474595" lon="-8.79272004807143"><ele>21.0</ele><time>2026-04-05T17:06:59Z</time></trkpt><trkpt lat="42.398080860766704" lon="-8.792622182810883"><ele>21.0</ele><time>2026-04-05T17:07:00Z</time></trkpt><trkpt lat="42.3980448584385" lon="-8.792466454533043"><ele>21.0</ele><time>2026-04-05T17:07:02Z</time></trkpt><trkpt lat="42.3980220895337" lon="-8.792344199500276"><ele>21.0</ele><time>2026-04-05T17:07:04Z</time></trkpt><trkpt lat="42.397998529101805" lon="-8.792182663624414"><ele>21.666666666666668</ele><time>2026-04-05T17:07:06Z</time></trkpt><trkpt lat="42.398004937557474" lon="-8.792094992875956"><ele>22.333333333333336</ele><time>2026-04-05T17:07:07Z</time></trkpt><trkpt lat="42.39798046783289" lon="-8.792006494490954"><ele>23.0</ele><time>2026-04-05T17:07:08Z</time></trkpt><trkpt lat="42.39797633280861" lon="-8.791903940656947"><ele>23.666666666666668</ele><time>2026-04-05T17:07:09Z</time></trkpt><trkpt lat="42.397973540910755" lon="-8.791770642982673"><ele>24.333333333333336</ele><time>2026-04-05T17:07:10Z</time></trkpt><trkpt lat="42.39797482248914" lon="-8.791622875965354"><ele>25.0</ele><time>2026-04-05T17:07:11Z</time></trkpt><trkpt lat="42.39798792687587" lon="-8.791469801200796"><ele>25.2</ele><time>2026-04-05T17:07:12Z</time></trkpt><trkpt lat="42.3980084097535" lon="-8.791298966428823"><ele>25.4</ele><time>2026-04-05T17:07:13Z</time></trkpt><trkpt lat="42.39803697145402" lon="-8.791160345213749"><ele>25.6</ele><time>2026-04-05T17:07:14Z</time></trkpt><trkpt lat="42.39806834084204" lon="-8.79102023809805"><ele>25.8</ele><time>2026-04-05T17:07:15Z</time></trkpt><trkpt lat="42.39809932166974" lon="-8.79088862122335"><ele>26.0</ele><time>2026-04-05T17:07:16Z</time></trkpt><trkpt lat="42.398128297540936" lon="-8.790768622592799"><ele>25.499999999999996</ele><time>2026-04-05T17:07:17Z</time></trkpt><trkpt lat="42.39815497007813" lon="-8.790658162780005"><ele>25.0</ele><time>2026-04-05T17:07:18Z</time></trkpt><trkpt lat="42.39818318128199" lon="-8.790538763997022"><ele>24.5</ele><time>2026-04-05T17:07:19Z</time></trkpt><trkpt lat="42.398204980876066" lon="-8.790445799525774"><ele>24.0</ele><time>2026-04-05T17:07:20Z</time></trkpt><trkpt lat="42.39823136846575" lon="-8.790333269237886"><ele>23.5</ele><time>2026-04-05T17:07:21Z</time></trkpt><trkpt lat="42.39825840205686" lon="-8.790217984146617"><ele>23.0</ele><time>2026-04-05T17:07:22Z</time></trkpt><trkpt lat="42.39828525705966" lon="-8.79010346068061"><ele>22.0</ele><time>2026-04-05T17:07:23Z</time></trkpt><trkpt lat="42.39831208363678" lon="-8.789989058418271"><ele>21.0</ele><time>2026-04-05T17:07:24Z</time></trkpt><trkpt lat="42.39834196763839" lon="-8.789871867990799"><ele>20.0</ele><time>2026-04-05T17:07:25Z</time></trkpt><trkpt lat="42.398373371770475" lon="-8.789749449752716"><ele>19.0</ele><time>2026-04-05T17:07:26Z</time></trkpt><trkpt lat="42.39840269608645" lon="-8.789635138966638"><ele>18.0</ele><time>2026-04-05T17:07:27Z</time></trkpt><trkpt lat="42.39843106526851" lon="-8.789524444064387"><ele>18.0</ele><time>2026-04-05T17:07:28Z</time></trkpt><trkpt lat="42.398454266410326" lon="-8.789432453741648"><ele>18.0</ele><time>2026-04-05T17:07:29Z</time></trkpt><trkpt lat="42.39847706601742" lon="-8.789342992211857"><ele>18.0</ele><time>2026-04-05T17:07:30Z</time></trkpt><trkpt lat="42.398516033269246" lon="-8.78919076140928"><ele>18.0</ele><time>2026-04-05T17:07:32Z</time></trkpt><trkpt lat="42.39854475202581" lon="-8.789072001294372"><ele>18.0</ele><time>2026-04-05T17:07:34Z</time></trkpt><trkpt lat="42.398577592326525" lon="-8.788996001612775"><ele>18.0</ele><time>2026-04-05T17:07:36Z</time></trkpt><trkpt lat="42.39859354103214" lon="-8.78884723313353"><ele>17.333333333333332</ele><time>2026-04-05T17:07:38Z</time></trkpt><trkpt lat="42.398614153739395" lon="-8.788749998136655"><ele>16.666666666666668</ele><time>2026-04-05T17:07:39Z</time></trkpt><trkpt lat="42.398636441693014" lon="-8.788648889158795"><ele>16.0</ele><time>2026-04-05T17:07:40Z</time></trkpt><trkpt lat="42.39866167649434" lon="-8.78853441125277"><ele>15.333333333333334</ele><time>2026-04-05T17:07:41Z</time></trkpt><trkpt lat="42.398687780644174" lon="-8.788415990350803"><ele>14.666666666666668</ele><time>2026-04-05T17:07:42Z</time></trkpt><trkpt lat="42.39871034473057" lon="-8.78828296359148"><ele>14.0</ele><time>2026-04-05T17:07:43Z</time></trkpt><trkpt lat="42.39872018485802" lon="-8.788144253704418"><ele>14.0</ele><time>2026-04-05T17:07:44Z</time></trkpt><trkpt lat="42.398718899785344" lon="-8.788001914727792"><ele>13.999999999999998</ele><time>2026-04-05T17:07:45Z</time></trkpt><trkpt lat="42.39870149290427" lon="-8.787862324616711"><ele>13.999999999999998</ele><time>2026-04-05T17:07:46Z</time></trkpt><trkpt lat="42.398672542182545" lon="-8.787722209676513"><ele>14.0</ele><time>2026-04-05T17:07:47Z</time></trkpt><trkpt lat="42.39862284607608" lon="-8.787585743680935"><ele>14.0</ele><time>2026-04-05T17:07:48Z</time></trkpt><trkpt lat="42.39857052806367" lon="-8.787449122563775"><ele>13.75</ele><time>2026-04-05T17:07:49Z</time></trkpt><trkpt lat="42.3985176711922" lon="-8.78731535533733"><ele>13.5</ele><time>2026-04-05T17:07:50Z</time></trkpt><trkpt lat="42.39846144505331" lon="-8.787174814411818"><ele>13.25</ele><time>2026-04-05T17:07:51Z</time></trkpt><trkpt lat="42.39840478654247" lon="-8.787033197151281"><ele>13.0</ele><time>2026-04-05T17:07:52Z</time></trkpt><trkpt lat="42.398346102709624" lon="-8.786888459338533"><ele>13.0</ele><time>2026-04-05T17:07:53Z</time></trkpt><trkpt lat="42.39829994061425" lon="-8.786735656328782"><ele>13.0</ele><time>2026-04-05T17:07:54Z</time></trkpt><trkpt lat="42.39823627762302" lon="-8.786606734785822"><ele>13.0</ele><time>2026-04-05T17:07:55Z</time></trkpt><trkpt lat="42.398185223208294" lon="-8.786476399679078"><ele>13.0</ele><time>2026-04-05T17:07:56Z</time></trkpt><trkpt lat="42.39813100714839" lon="-8.786331769016424"><ele>13.0</ele><time>2026-04-05T17:07:57Z</time></trkpt><trkpt lat="42.39808248400325" lon="-8.786207100933797"><ele>13.0</ele><time>2026-04-05T17:07:58Z</time></trkpt><trkpt lat="42.39802206858179" lon="-8.786081976729836"><ele>13.0</ele><time>2026-04-05T17:07:59Z</time></trkpt><trkpt lat="42.397970068481634" lon="-8.785956306265312"><ele>13.0</ele><time>2026-04-05T17:08:00Z</time></trkpt><trkpt lat="42.397907655891636" lon="-8.785834432801085"><ele>13.0</ele><time>2026-04-05T17:08:01Z</time></trkpt><trkpt lat="42.39786190223767" lon="-8.785700523180568"><ele>12.75</ele><time>2026-04-05T17:08:02Z</time></trkpt><trkpt lat="42.39780742151218" lon="-8.785557539034615"><ele>12.5</ele><time>2026-04-05T17:08:03Z</time></trkpt><trkpt lat="42.3977515305809" lon="-8.785436745826201"><ele>12.25</ele><time>2026-04-05T17:08:04Z</time></trkpt><trkpt lat="42.39769841807682" lon="-8.785295819290736"><ele>12.0</ele><time>2026-04-05T17:08:05Z</time></trkpt><trkpt lat="42.39763180888813" lon="-8.785167426963904"><ele>12.0</ele><time>2026-04-05T17:08:06Z</time></trkpt><trkpt lat="42.39757573731985" lon="-8.785031132348381"><ele>12.0</ele><time>2026-04-05T17:08:07Z</time></trkpt><trkpt lat="42.39751845386841" lon="-8.784891892070165"><ele>12.0</ele><time>2026-04-05T17:08:08Z</time></trkpt><trkpt lat="42.397459934067264" lon="-8.784749646554971"><ele>12.0</ele><time>2026-04-05T17:08:09Z</time></trkpt><trkpt lat="42.397397925874294" lon="-8.784598921746335"><ele>12.0</ele><time>2026-04-05T17:08:10Z</time></trkpt><trkpt lat="42.3973449922282" lon="-8.784470254691783"><ele>12.0</ele><time>2026-04-05T17:08:11Z</time></trkpt><trkpt lat="42.39728473111589" lon="-8.784323776135981"><ele>12.0</ele><time>2026-04-05T17:08:12Z</time></trkpt><trkpt lat="42.39723028386093" lon="-8.784191135268642"><ele>12.0</ele><time>2026-04-05T17:08:13Z</time></trkpt><trkpt lat="42.39717091351347" lon="-8.784045491558258"><ele>12.5</ele><time>2026-04-05T17:08:14Z</time></trkpt><trkpt lat="42.39711554587616" lon="-8.78390966652455"><ele>13.0</ele><time>2026-04-05T17:08:15Z</time></trkpt><trkpt lat="42.39705528293437" lon="-8.78376183296825"><ele>13.5</ele><time>2026-04-05T17:08:16Z</time></trkpt><trkpt lat="42.396993128373474" lon="-8.783609359079936"><ele>14.0</ele><time>2026-04-05T17:08:17Z</time></trkpt><trkpt lat="42.396932962171164" lon="-8.783461762523082"><ele>14.0</ele><time>2026-04-05T17:08:18Z</time></trkpt><trkpt lat="42.39687070123101" lon="-8.783309500519087"><ele>14.0</ele><time>2026-04-05T17:08:19Z</time></trkpt><trkpt lat="42.39680909399304" lon="-8.783159064077923"><ele>14.0</ele><time>2026-04-05T17:08:20Z</time></trkpt><trkpt lat="42.39674630614838" lon="-8.783005747462171"><ele>14.0</ele><time>2026-04-05T17:08:21Z</time></trkpt><trkpt lat="42.39668388476201" lon="-8.782855385509855"><ele>14.0</ele><time>2026-04-05T17:08:22Z</time></trkpt><trkpt lat="42.396625753113106" lon="-8.782704303408684"><ele>14.0</ele><time>2026-04-05T17:08:23Z</time></trkpt><trkpt lat="42.39657453748111" lon="-8.782557615687617"><ele>14.0</ele><time>2026-04-05T17:08:24Z</time></trkpt><trkpt lat="42.39653135567201" lon="-8.782404982844916"><ele>14.0</ele><time>2026-04-05T17:08:25Z</time></trkpt><trkpt lat="42.39649837506998" lon="-8.78225671479907"><ele>14.0</ele><time>2026-04-05T17:08:26Z</time></trkpt><trkpt lat="42.39646985030681" lon="-8.782104227570416"><ele>14.0</ele><time>2026-04-05T17:08:27Z</time></trkpt><trkpt lat="42.39644851292809" lon="-8.781950846139882"><ele>14.0</ele><time>2026-04-05T17:08:28Z</time></trkpt><trkpt lat="42.39643341564712" lon="-8.781802986058404"><ele>14.0</ele><time>2026-04-05T17:08:29Z</time></trkpt><trkpt lat="42.3964230470142" lon="-8.781651216723507"><ele>14.399999999999999</ele><time>2026-04-05T17:08:30Z</time></trkpt><trkpt lat="42.39641591356041" lon="-8.781504203769387"><ele>14.799999999999999</ele><time>2026-04-05T17:08:31Z</time></trkpt><trkpt lat="42.39640887623932" lon="-8.781359172097453"><ele>15.200000000000001</ele><time>2026-04-05T17:08:32Z</time></trkpt><trkpt lat="42.39640166906389" lon="-8.781211772981914"><ele>15.600000000000001</ele><time>2026-04-05T17:08:33Z</time></trkpt><trkpt lat="42.39639490525337" lon="-8.781073029648736"><ele>16.0</ele><time>2026-04-05T17:08:34Z</time></trkpt><trkpt lat="42.39638836377801" lon="-8.78092027555106"><ele>16.0</ele><time>2026-04-05T17:08:35Z</time></trkpt><trkpt lat="42.396382462916144" lon="-8.780778209312272"><ele>16.0</ele><time>2026-04-05T17:08:36Z</time></trkpt><trkpt lat="42.39637623100321" lon="-8.78062817245796"><ele>16.0</ele><time>2026-04-05T17:08:37Z</time></trkpt><trkpt lat="42.3963699985741" lon="-8.780478123346578"><ele>16.0</ele><time>2026-04-05T17:08:38Z</time></trkpt><trkpt lat="42.3963637552072" lon="-8.780327809563016"><ele>16.0</ele><time>2026-04-05T17:08:39Z</time></trkpt><trkpt lat="42.39635802712371" lon="-8.780182705414077"><ele>16.8</ele><time>2026-04-05T17:08:40Z</time></trkpt><trkpt lat="42.396351568435406" lon="-8.780035411997275"><ele>17.6</ele><time>2026-04-05T17:08:41Z</time></trkpt><trkpt lat="42.396344941972536" lon="-8.779884292541158"><ele>18.4</ele><time>2026-04-05T17:08:42Z</time></trkpt><trkpt lat="42.396338872982845" lon="-8.779745886500079"><ele>19.2</ele><time>2026-04-05T17:08:43Z</time></trkpt><trkpt lat="42.39633209367976" lon="-8.779591281347063"><ele>20.0</ele><time>2026-04-05T17:08:44Z</time></trkpt><trkpt lat="42.39632534143059" lon="-8.779443781531597"><ele>18.8</ele><time>2026-04-05T17:08:45Z</time></trkpt><trkpt lat="42.39631857851422" lon="-8.779295970514617"><ele>17.6</ele><time>2026-04-05T17:08:46Z</time></trkpt><trkpt lat="42.3963119613938" lon="-8.779151345956722"><ele>16.4</ele><time>2026-04-05T17:08:47Z</time></trkpt><trkpt lat="42.3963048064756" lon="-8.77899496712114"><ele>15.2</ele><time>2026-04-05T17:08:48Z</time></trkpt><trkpt lat="42.39629811939546" lon="-8.778842099482976"><ele>14.0</ele><time>2026-04-05T17:08:49Z</time></trkpt><trkpt lat="42.3962918534199" lon="-8.778698425036596"><ele>14.0</ele><time>2026-04-05T17:08:50Z</time></trkpt><trkpt lat="42.396285540416905" lon="-8.77855367246618"><ele>13.999999999999998</ele><time>2026-04-05T17:08:51Z</time></trkpt><trkpt lat="42.39627949498035" lon="-8.778415054941028"><ele>13.999999999999998</ele><time>2026-04-05T17:08:52Z</time></trkpt><trkpt lat="42.396285109731366" lon="-8.778275511436542"><ele>14.0</ele><time>2026-04-05T17:08:53Z</time></trkpt><trkpt lat="42.39628371960203" lon="-8.778143395815816"><ele>14.0</ele><time>2026-04-05T17:08:54Z</time></trkpt><trkpt lat="42.396269842092934" lon="-8.778000920452358"><ele>14.2</ele><time>2026-04-05T17:08:55Z</time></trkpt><trkpt lat="42.39626319143827" lon="-8.777866413787295"><ele>14.399999999999999</ele><time>2026-04-05T17:08:56Z</time></trkpt><trkpt lat="42.396257651357786" lon="-8.777725280713275"><ele>14.6</ele><time>2026-04-05T17:08:57Z</time></trkpt><trkpt lat="42.396250605368884" lon="-8.77758533134757"><ele>14.8</ele><time>2026-04-05T17:08:58Z</time></trkpt><trkpt lat="42.39624787912005" lon="-8.777449116244787"><ele>15.0</ele><time>2026-04-05T17:08:58.999Z</time></trkpt><trkpt lat="42.396242454013375" lon="-8.777308960054732"><ele>14.6</ele><time>2026-04-05T17:08:59.999Z</time></trkpt><trkpt lat="42.39623726905912" lon="-8.777168042155537"><ele>14.2</ele><time>2026-04-05T17:09:00.999Z</time></trkpt><trkpt lat="42.39623187957975" lon="-8.777020698121257"><ele>13.8</ele><time>2026-04-05T17:09:01.999Z</time></trkpt><trkpt lat="42.396226592221346" lon="-8.776867858934818"><ele>13.4</ele><time>2026-04-05T17:09:02.999Z</time></trkpt><trkpt lat="42.39620449981773" lon="-8.776718211964146"><ele>13.0</ele><time>2026-04-05T17:09:03.999Z</time></trkpt><trkpt lat="42.39619711000949" lon="-8.77655346247362"><ele>12.0</ele><time>2026-04-05T17:09:04.999Z</time></trkpt><trkpt lat="42.39618918814878" lon="-8.776391388010257"><ele>11.0</ele><time>2026-04-05T17:09:05.999Z</time></trkpt><trkpt lat="42.396181153378286" lon="-8.776227003500349"><ele>10.0</ele><time>2026-04-05T17:09:06.999Z</time></trkpt><trkpt lat="42.396172700410666" lon="-8.776054073716415"><ele>9.0</ele><time>2026-04-05T17:09:07.999Z</time></trkpt><trkpt lat="42.396166953890855" lon="-8.77589310834907"><ele>8.8</ele><time>2026-04-05T17:09:08.999Z</time></trkpt><trkpt lat="42.3961639165769" lon="-8.775729687800832"><ele>8.600000000000001</ele><time>2026-04-05T17:09:10Z</time></trkpt><trkpt lat="42.396166822092766" lon="-8.77558203913165"><ele>8.4</ele><time>2026-04-05T17:09:11Z</time></trkpt><trkpt lat="42.39617833235897" lon="-8.77545011793042"><ele>8.200000000000001</ele><time>2026-04-05T17:09:12Z</time></trkpt><trkpt lat="42.3962074599225" lon="-8.775333203681736"><ele>8.0</ele><time>2026-04-05T17:09:13Z</time></trkpt><trkpt lat="42.3962187228524" lon="-8.775213556089074"><ele>8.5</ele><time>2026-04-05T17:09:14Z</time></trkpt><trkpt lat="42.396229142565126" lon="-8.775098543546449"><ele>9.0</ele><time>2026-04-05T17:09:15Z</time></trkpt><trkpt lat="42.396231270318744" lon="-8.774993334677816"><ele>9.5</ele><time>2026-04-05T17:09:16Z</time></trkpt><trkpt lat="42.39625011900414" lon="-8.77490431854278"><ele>10.0</ele><time>2026-04-05T17:09:17Z</time></trkpt><trkpt lat="42.39631780343932" lon="-8.774819144319698"><ele>10.5</ele><time>2026-04-05T17:09:18Z</time></trkpt><trkpt lat="42.39642132572422" lon="-8.774770267295521"><ele>11.0</ele><time>2026-04-05T17:09:19Z</time></trkpt><trkpt lat="42.3965412082292" lon="-8.77473272821826"><ele>11.0</ele><time>2026-04-05T17:09:20Z</time></trkpt><trkpt lat="42.39665971508368" lon="-8.774691689426781"><ele>11.0</ele><time>2026-04-05T17:09:21Z</time></trkpt><trkpt lat="42.39677003582843" lon="-8.774633619828908"><ele>11.0</ele><time>2026-04-05T17:09:22Z</time></trkpt><trkpt lat="42.396860459207446" lon="-8.77458676872174"><ele>11.0</ele><time>2026-04-05T17:09:23Z</time></trkpt><trkpt lat="42.3969594907636" lon="-8.774545233088556"><ele>11.0</ele><time>2026-04-05T17:09:24Z</time></trkpt><trkpt lat="42.39705237208998" lon="-8.774509264619477"><ele>11.0</ele><time>2026-04-05T17:09:25Z</time></trkpt><trkpt lat="42.39713519080977" lon="-8.77447072250426"><ele>11.0</ele><time>2026-04-05T17:09:26Z</time></trkpt><trkpt lat="42.39722215001197" lon="-8.77443260550677"><ele>11.0</ele><time>2026-04-05T17:09:27Z</time></trkpt><trkpt lat="42.39731861911414" lon="-8.774394986276807"><ele>11.0</ele><time>2026-04-05T17:09:28Z</time></trkpt><trkpt lat="42.39741051951118" lon="-8.774354504657627"><ele>11.0</ele><time>2026-04-05T17:09:29Z</time></trkpt><trkpt lat="42.39750425285679" lon="-8.77431503545896"><ele>14.200000000000001</ele><time>2026-04-05T17:09:30Z</time></trkpt><trkpt lat="42.39759907796148" lon="-8.774271218100456"><ele>17.400000000000002</ele><time>2026-04-05T17:09:31Z</time></trkpt><trkpt lat="42.397690351772944" lon="-8.774232295025506"><ele>20.6</ele><time>2026-04-05T17:09:32Z</time></trkpt><trkpt lat="42.39778292228307" lon="-8.774191766017449"><ele>23.8</ele><time>2026-04-05T17:09:33Z</time></trkpt><trkpt lat="42.397880030546816" lon="-8.774146377320386"><ele>27.0</ele><time>2026-04-05T17:09:34Z</time></trkpt><trkpt lat="42.397979387976044" lon="-8.77410568918245"><ele>26.75</ele><time>2026-04-05T17:09:35Z</time></trkpt><trkpt lat="42.398082342426136" lon="-8.774056106102897"><ele>26.5</ele><time>2026-04-05T17:09:36Z</time></trkpt><trkpt lat="42.39819193201761" lon="-8.774010914945174"><ele>26.25</ele><time>2026-04-05T17:09:37Z</time></trkpt><trkpt lat="42.39829783989796" lon="-8.77395869203185"><ele>26.0</ele><time>2026-04-05T17:09:38Z</time></trkpt><trkpt lat="42.39840873909615" lon="-8.773892149540327"><ele>26.0</ele><time>2026-04-05T17:09:39Z</time></trkpt><trkpt lat="42.39850528275107" lon="-8.773785830925206"><ele>26.0</ele><time>2026-04-05T17:09:40Z</time></trkpt><trkpt lat="42.39860342023733" lon="-8.773701358677748"><ele>26.0</ele><time>2026-04-05T17:09:41Z</time></trkpt><trkpt lat="42.39868539369081" lon="-8.773575442876444"><ele>26.0</ele><time>2026-04-05T17:09:42Z</time></trkpt><trkpt lat="42.39876275432173" lon="-8.773447346166888"><ele>26.75</ele><time>2026-04-05T17:09:43Z</time></trkpt><trkpt lat="42.398835530978005" lon="-8.773319400113724"><ele>27.5</ele><time>2026-04-05T17:09:44Z</time></trkpt><trkpt lat="42.39891143807697" lon="-8.773197434334447"><ele>28.25</ele><time>2026-04-05T17:09:45Z</time></trkpt><trkpt lat="42.39898040971512" lon="-8.773077376164474"><ele>29.0</ele><time>2026-04-05T17:09:46Z</time></trkpt><trkpt lat="42.39905534947426" lon="-8.77295408592134"><ele>29.0</ele><time>2026-04-05T17:09:47Z</time></trkpt><trkpt lat="42.399135251912234" lon="-8.77282578924984"><ele>29.0</ele><time>2026-04-05T17:09:48Z</time></trkpt><trkpt lat="42.399206577823946" lon="-8.772691648881569"><ele>29.0</ele><time>2026-04-05T17:09:49Z</time></trkpt><trkpt lat="42.39928736029034" lon="-8.772559420167575"><ele>29.0</ele><time>2026-04-05T17:09:50Z</time></trkpt><trkpt lat="42.39936709096474" lon="-8.77243006308377"><ele>31.0</ele><time>2026-04-05T17:09:51Z</time></trkpt><trkpt lat="42.3994393370166" lon="-8.772297642736346"><ele>33.0</ele><time>2026-04-05T17:09:52Z</time></trkpt><trkpt lat="42.39949856568878" lon="-8.772145882075758"><ele>35.0</ele><time>2026-04-05T17:09:53Z</time></trkpt><trkpt lat="42.39952954988935" lon="-8.77200187218032"><ele>37.0</ele><time>2026-04-05T17:09:54Z</time></trkpt><trkpt lat="42.39953707959832" lon="-8.771841064375215"><ele>38.400000000000006</ele><time>2026-04-05T17:09:55Z</time></trkpt><trkpt lat="42.39951988237577" lon="-8.771686577564362"><ele>39.800000000000004</ele><time>2026-04-05T17:09:56Z</time></trkpt><trkpt lat="42.39948672406383" lon="-8.771539753201939"><ele>41.2</ele><time>2026-04-05T17:09:57Z</time></trkpt><trkpt lat="42.39943500572382" lon="-8.771417196896296"><ele>42.6</ele><time>2026-04-05T17:09:58Z</time></trkpt><trkpt lat="42.39936933716836" lon="-8.771289366249535"><ele>44.0</ele><time>2026-04-05T17:09:59Z</time></trkpt><trkpt lat="42.39929757471232" lon="-8.771176811959235"><ele>44.0</ele><time>2026-04-05T17:10:00Z</time></trkpt><trkpt lat="42.399231113466115" lon="-8.771058946786152"><ele>44.0</ele><time>2026-04-05T17:10:01Z</time></trkpt><trkpt lat="42.399161823437225" lon="-8.770932284920319"><ele>44.0</ele><time>2026-04-05T17:10:02Z</time></trkpt><trkpt lat="42.39909151408203" lon="-8.770808002265262"><ele>44.0</ele><time>2026-04-05T17:10:03Z</time></trkpt><trkpt lat="42.39902588074893" lon="-8.7706776634636"><ele>44.0</ele><time>2026-04-05T17:10:04Z</time></trkpt><trkpt lat="42.39895183117219" lon="-8.770550913422081"><ele>44.0</ele><time>2026-04-05T17:10:05Z</time></trkpt><trkpt lat="42.39887650724207" lon="-8.77042250482943"><ele>44.0</ele><time>2026-04-05T17:10:06Z</time></trkpt><trkpt lat="42.398803534777706" lon="-8.770297091817849"><ele>44.0</ele><time>2026-04-05T17:10:07Z</time></trkpt><trkpt lat="42.39873203834492" lon="-8.77017022483653"><ele>45.5</ele><time>2026-04-05T17:10:08Z</time></trkpt><trkpt lat="42.398663884241046" lon="-8.770042340368953"><ele>47.0</ele><time>2026-04-05T17:10:09Z</time></trkpt><trkpt lat="42.398599439492685" lon="-8.769911365159492"><ele>48.5</ele><time>2026-04-05T17:10:10Z</time></trkpt><trkpt lat="42.398535726272016" lon="-8.769774126763528"><ele>50.0</ele><time>2026-04-05T17:10:11Z</time></trkpt><trkpt lat="42.398477619754686" lon="-8.76963899862128"><ele>50.0</ele><time>2026-04-05T17:10:12Z</time></trkpt><trkpt lat="42.398417995493865" lon="-8.7695001705253"><ele>50.0</ele><time>2026-04-05T17:10:13Z</time></trkpt><trkpt lat="42.39836312895895" lon="-8.76935995995736"><ele>50.0</ele><time>2026-04-05T17:10:14Z</time></trkpt><trkpt lat="42.39830936806753" lon="-8.769221473147597"><ele>50.0</ele><time>2026-04-05T17:10:15Z</time></trkpt><trkpt lat="42.39825738195953" lon="-8.769082023964904"><ele>49.75</ele><time>2026-04-05T17:10:16Z</time></trkpt><trkpt lat="42.39820391237533" lon="-8.768939328184192"><ele>49.5</ele><time>2026-04-05T17:10:17Z</time></trkpt><trkpt lat="42.39814908804869" lon="-8.768796227928014"><ele>49.25</ele><time>2026-04-05T17:10:18Z</time></trkpt><trkpt lat="42.398093498837774" lon="-8.768648560296727"><ele>49.0</ele><time>2026-04-05T17:10:19Z</time></trkpt><trkpt lat="42.39803695598877" lon="-8.768500281486535"><ele>46.75</ele><time>2026-04-05T17:10:20Z</time></trkpt><trkpt lat="42.39797744796565" lon="-8.768345682105064"><ele>44.5</ele><time>2026-04-05T17:10:21Z</time></trkpt><trkpt lat="42.39791907638088" lon="-8.768187743256842"><ele>42.25</ele><time>2026-04-05T17:10:22Z</time></trkpt><trkpt lat="42.39785622838546" lon="-8.768025665238518"><ele>40.0</ele><time>2026-04-05T17:10:23Z</time></trkpt><trkpt lat="42.397794406784" lon="-8.767859252095946"><ele>40.0</ele><time>2026-04-05T17:10:24Z</time></trkpt><trkpt lat="42.39773818789238" lon="-8.767698711853408"><ele>40.0</ele><time>2026-04-05T17:10:25Z</time></trkpt><trkpt lat="42.397673583817614" lon="-8.767538572748323"><ele>40.0</ele><time>2026-04-05T17:10:26Z</time></trkpt><trkpt lat="42.397610114165474" lon="-8.767372068308811"><ele>40.0</ele><time>2026-04-05T17:10:27Z</time></trkpt><trkpt lat="42.39754650812019" lon="-8.767202782012381"><ele>41.0</ele><time>2026-04-05T17:10:28Z</time></trkpt><trkpt lat="42.397484531214936" lon="-8.767037042676488"><ele>42.0</ele><time>2026-04-05T17:10:29Z</time></trkpt><trkpt lat="42.39743485020444" lon="-8.76687723613764"><ele>43.0</ele><time>2026-04-05T17:10:30Z</time></trkpt><trkpt lat="42.39740061368365" lon="-8.766728618882928"><ele>44.0</ele><time>2026-04-05T17:10:31Z</time></trkpt><trkpt lat="42.39737707216239" lon="-8.766579347680837"><ele>45.400000000000006</ele><time>2026-04-05T17:10:32Z</time></trkpt><trkpt lat="42.39737073774724" lon="-8.766432427135193"><ele>46.8</ele><time>2026-04-05T17:10:33Z</time></trkpt><trkpt lat="42.39737747644646" lon="-8.766288206628316"><ele>48.2</ele><time>2026-04-05T17:10:34Z</time></trkpt><trkpt lat="42.39740308079136" lon="-8.766147942240687"><ele>49.599999999999994</ele><time>2026-04-05T17:10:35Z</time></trkpt><trkpt lat="42.39742387689455" lon="-8.766000090854806"><ele>51.0</ele><time>2026-04-05T17:10:36Z</time></trkpt><trkpt lat="42.39747132733197" lon="-8.765871199406508"><ele>51.4</ele><time>2026-04-05T17:10:37Z</time></trkpt><trkpt lat="42.39752750968882" lon="-8.765748856712428"><ele>51.8</ele><time>2026-04-05T17:10:38Z</time></trkpt><trkpt lat="42.39759694185015" lon="-8.76564129899791"><ele>52.199999999999996</ele><time>2026-04-05T17:10:39Z</time></trkpt><trkpt lat="42.39765295984287" lon="-8.765526206265204"><ele>52.599999999999994</ele><time>2026-04-05T17:10:40Z</time></trkpt><trkpt lat="42.39769986192859" lon="-8.76542091260466"><ele>53.0</ele><time>2026-04-05T17:10:41Z</time></trkpt><trkpt lat="42.397744767265635" lon="-8.765323043516767"><ele>53.00000000000001</ele><time>2026-04-05T17:10:42Z</time></trkpt><trkpt lat="42.397785802107244" lon="-8.76523011608225"><ele>53.0</ele><time>2026-04-05T17:10:43Z</time></trkpt><trkpt lat="42.397824179429506" lon="-8.765132957134984"><ele>53.0</ele><time>2026-04-05T17:10:44Z</time></trkpt><trkpt lat="42.39785913198809" lon="-8.765031222010355"><ele>53.0</ele><time>2026-04-05T17:10:45Z</time></trkpt><trkpt lat="42.397880967059905" lon="-8.764930581181273"><ele>53.00000000000001</ele><time>2026-04-05T17:10:46Z</time></trkpt><trkpt lat="42.39787909478277" lon="-8.764828712759563"><ele>53.0</ele><time>2026-04-05T17:10:47Z</time></trkpt><trkpt lat="42.39788369978791" lon="-8.76472532588897"><ele>53.00000000000001</ele><time>2026-04-05T17:10:48Z</time></trkpt><trkpt lat="42.39791981965707" lon="-8.764620579062722"><ele>53.0</ele><time>2026-04-05T17:10:49Z</time></trkpt><trkpt lat="42.39799301832065" lon="-8.764597970208298"><ele>53.0</ele><time>2026-04-05T17:10:50Z</time></trkpt><trkpt lat="42.39808245324796" lon="-8.764555893067012"><ele>53.0</ele><time>2026-04-05T17:10:51Z</time></trkpt><trkpt lat="42.3981575765768" lon="-8.764475075368697"><ele>53.00000000000001</ele><time>2026-04-05T17:10:52Z</time></trkpt><trkpt lat="42.39820638565513" lon="-8.764388862370762"><ele>53.0</ele><time>2026-04-05T17:10:53Z</time></trkpt><trkpt lat="42.398257005869205" lon="-8.764325484990698"><ele>55.16666666666667</ele><time>2026-04-05T17:10:54Z</time></trkpt><trkpt lat="42.398283332584505" lon="-8.764225290911824"><ele>57.333333333333336</ele><time>2026-04-05T17:10:55Z</time></trkpt><trkpt lat="42.39832157072515" lon="-8.7641449623068"><ele>59.5</ele><time>2026-04-05T17:10:56Z</time></trkpt><trkpt lat="42.39836479657068" lon="-8.76406228178453"><ele>61.66666666666667</ele><time>2026-04-05T17:10:57Z</time></trkpt><trkpt lat="42.398407540705556" lon="-8.763971607564185"><ele>63.833333333333336</ele><time>2026-04-05T17:10:58Z</time></trkpt><trkpt lat="42.39844764975753" lon="-8.763878269917903"><ele>66.0</ele><time>2026-04-05T17:10:59Z</time></trkpt><trkpt lat="42.39849335650675" lon="-8.76378311311112"><ele>66.0</ele><time>2026-04-05T17:11:00Z</time></trkpt><trkpt lat="42.39854387556727" lon="-8.763682934503974"><ele>66.0</ele><time>2026-04-05T17:11:01Z</time></trkpt><trkpt lat="42.398599200618825" lon="-8.76358770995659"><ele>66.0</ele><time>2026-04-05T17:11:02Z</time></trkpt><trkpt lat="42.39865282067126" lon="-8.763490931370436"><ele>66.0</ele><time>2026-04-05T17:11:03Z</time></trkpt><trkpt lat="42.39871014513492" lon="-8.76339234309147"><ele>66.0</ele><time>2026-04-05T17:11:04Z</time></trkpt><trkpt lat="42.39877245289623" lon="-8.763290863912955"><ele>66.0</ele><time>2026-04-05T17:11:04.999Z</time></trkpt><trkpt lat="42.39883084440092" lon="-8.763196640427289"><ele>66.0</ele><time>2026-04-05T17:11:05.999Z</time></trkpt><trkpt lat="42.39888925750635" lon="-8.763102610090037"><ele>66.0</ele><time>2026-04-05T17:11:06.999Z</time></trkpt><trkpt lat="42.39894236124042" lon="-8.76300375248553"><ele>66.0</ele><time>2026-04-05T17:11:07.999Z</time></trkpt><trkpt lat="42.3990093777693" lon="-8.762912399229547"><ele>66.0</ele><time>2026-04-05T17:11:08.999Z</time></trkpt><trkpt lat="42.399071250960596" lon="-8.762806115824674"><ele>66.0</ele><time>2026-04-05T17:11:09.999Z</time></trkpt><trkpt lat="42.39913432551104" lon="-8.762703261546338"><ele>66.0</ele><time>2026-04-05T17:11:10.999Z</time></trkpt><trkpt lat="42.3992011084932" lon="-8.76259406480917"><ele>66.0</ele><time>2026-04-05T17:11:12Z</time></trkpt><trkpt lat="42.39926532550088" lon="-8.762483106579904"><ele>66.0</ele><time>2026-04-05T17:11:13Z</time></trkpt><trkpt lat="42.399331650214116" lon="-8.762370117025384"><ele>66.0</ele><time>2026-04-05T17:11:14Z</time></trkpt><trkpt lat="42.39939185142193" lon="-8.76226895455968"><ele>66.0</ele><time>2026-04-05T17:11:15Z</time></trkpt><trkpt lat="42.39944224295881" lon="-8.762177564821398"><ele>66.0</ele><time>2026-04-05T17:11:16Z</time></trkpt><trkpt lat="42.39948458050207" lon="-8.762095995636288"><ele>66.0</ele><time>2026-04-05T17:11:17Z</time></trkpt><trkpt lat="42.399528879030065" lon="-8.762006280319142"><ele>66.0</ele><time>2026-04-05T17:11:19Z</time></trkpt><trkpt lat="42.399586091028674" lon="-8.761946232175964"><ele>66.0</ele><time>2026-04-05T17:11:21Z</time></trkpt><trkpt lat="42.399895666206625" lon="-8.761781165384466"><ele>65.5</ele><time>2026-04-05T17:13:30Z</time></trkpt><trkpt lat="42.39998275418058" lon="-8.761755349122696"><ele>65.0</ele><time>2026-04-05T17:13:31Z</time></trkpt><trkpt lat="42.40009025208875" lon="-8.761738082402163"><ele>64.5</ele><time>2026-04-05T17:13:32Z</time></trkpt><trkpt lat="42.40020919358856" lon="-8.761677543254423"><ele>64.0</ele><time>2026-04-05T17:13:33Z</time></trkpt><trkpt lat="42.40033438338648" lon="-8.761627070953269"><ele>64.0</ele><time>2026-04-05T17:13:34Z</time></trkpt><trkpt lat="42.40045266069153" lon="-8.76157938546996"><ele>64.0</ele><time>2026-04-05T17:13:35Z</time></trkpt><trkpt lat="42.40056491954242" lon="-8.761534126455588"><ele>64.0</ele><time>2026-04-05T17:13:36Z</time></trkpt><trkpt lat="42.40067038776255" lon="-8.761491089541922"><ele>64.0</ele><time>2026-04-05T17:13:37Z</time></trkpt><trkpt lat="42.40077512897775" lon="-8.761447211888454"><ele>65.2</ele><time>2026-04-05T17:13:38Z</time></trkpt><trkpt lat="42.400878710083546" lon="-8.76140382023985"><ele>66.4</ele><time>2026-04-05T17:13:39Z</time></trkpt><trkpt lat="42.400995036626604" lon="-8.761377995841913"><ele>67.6</ele><time>2026-04-05T17:13:40Z</time></trkpt><trkpt lat="42.40109615502316" lon="-8.761329179216196"><ele>68.8</ele><time>2026-04-05T17:13:41Z</time></trkpt><trkpt lat="42.401183203891286" lon="-8.761278353684647"><ele>70.0</ele><time>2026-04-05T17:13:42Z</time></trkpt><trkpt lat="42.401277918279916" lon="-8.761222152932865"><ele>69.6</ele><time>2026-04-05T17:13:43Z</time></trkpt><trkpt lat="42.40135462509429" lon="-8.761147905418552"><ele>69.2</ele><time>2026-04-05T17:13:44Z</time></trkpt><trkpt lat="42.40142620856757" lon="-8.761089296815"><ele>68.8</ele><time>2026-04-05T17:13:45Z</time></trkpt><trkpt lat="42.40150311588572" lon="-8.76102009135892"><ele>68.4</ele><time>2026-04-05T17:13:46Z</time></trkpt><trkpt lat="42.40158053844987" lon="-8.760957446994082"><ele>68.0</ele><time>2026-04-05T17:13:47Z</time></trkpt><trkpt lat="42.40165595310397" lon="-8.760862098259533"><ele>68.0</ele><time>2026-04-05T17:13:48Z</time></trkpt><trkpt lat="42.401733559058194" lon="-8.760774506871712"><ele>68.0</ele><time>2026-04-05T17:13:49Z</time></trkpt><trkpt lat="42.40181047953322" lon="-8.760687689812986"><ele>68.0</ele><time>2026-04-05T17:13:50Z</time></trkpt><trkpt lat="42.40190302176809" lon="-8.760583240638425"><ele>68.0</ele><time>2026-04-05T17:13:51Z</time></trkpt><trkpt lat="42.401981448104706" lon="-8.760494723635123"><ele>68.0</ele><time>2026-04-05T17:13:52Z</time></trkpt><trkpt lat="42.402062197720504" lon="-8.760403218254213"><ele>68.0</ele><time>2026-04-05T17:13:53Z</time></trkpt><trkpt lat="42.40214506729263" lon="-8.760309261902476"><ele>68.0</ele><time>2026-04-05T17:13:54Z</time></trkpt><trkpt lat="42.40223092431556" lon="-8.760211918714484"><ele>68.0</ele><time>2026-04-05T17:13:55Z</time></trkpt><trkpt lat="42.40231501937675" lon="-8.760114609473987"><ele>68.0</ele><time>2026-04-05T17:13:56Z</time></trkpt><trkpt lat="42.40240063158607" lon="-8.76001425028455"><ele>68.0</ele><time>2026-04-05T17:13:57Z</time></trkpt><trkpt lat="42.40248998238081" lon="-8.75990982640021"><ele>67.25</ele><time>2026-04-05T17:13:58Z</time></trkpt><trkpt lat="42.4025812203429" lon="-8.759803198556206"><ele>66.5</ele><time>2026-04-05T17:13:59Z</time></trkpt><trkpt lat="42.40267019107395" lon="-8.759699220432806"><ele>65.75</ele><time>2026-04-05T17:14:00Z</time></trkpt><trkpt lat="42.40273963871095" lon="-8.759617557191346"><ele>65.0</ele><time>2026-04-05T17:14:01Z</time></trkpt><trkpt lat="42.402846251076966" lon="-8.759519598596954"><ele>65.0</ele><time>2026-04-05T17:14:02Z</time></trkpt><trkpt lat="42.402914892629916" lon="-8.75939814859803"><ele>65.0</ele><time>2026-04-05T17:14:03Z</time></trkpt><trkpt lat="42.40299605174065" lon="-8.759272047476296"><ele>65.0</ele><time>2026-04-05T17:14:04Z</time></trkpt><trkpt lat="42.403071747889875" lon="-8.75913845193501"><ele>65.0</ele><time>2026-04-05T17:14:05Z</time></trkpt><trkpt lat="42.403131598824906" lon="-8.759023966311666"><ele>66.2</ele><time>2026-04-05T17:14:06Z</time></trkpt><trkpt lat="42.40319602428779" lon="-8.758900326180056"><ele>67.4</ele><time>2026-04-05T17:14:07Z</time></trkpt><trkpt lat="42.40325703482496" lon="-8.758781977215444"><ele>68.6</ele><time>2026-04-05T17:14:08Z</time></trkpt><trkpt lat="42.40333592824634" lon="-8.758666302955882"><ele>69.8</ele><time>2026-04-05T17:14:09Z</time></trkpt><trkpt lat="42.403384409149034" lon="-8.758527467855597"><ele>71.0</ele><time>2026-04-05T17:14:10Z</time></trkpt><trkpt lat="42.40345836180036" lon="-8.75840373141896"><ele>66.75</ele><time>2026-04-05T17:14:11Z</time></trkpt><trkpt lat="42.40352302352678" lon="-8.758273456850624"><ele>62.5</ele><time>2026-04-05T17:14:12Z</time></trkpt><trkpt lat="42.40359014644887" lon="-8.7581434837183"><ele>58.25</ele><time>2026-04-05T17:14:13Z</time></trkpt><trkpt lat="42.40366180564995" lon="-8.758014057582404"><ele>54.0</ele><time>2026-04-05T17:14:14Z</time></trkpt><trkpt lat="42.40373688509743" lon="-8.757872986640901"><ele>54.0</ele><time>2026-04-05T17:14:15Z</time></trkpt><trkpt lat="42.40380263421395" lon="-8.757734061404376"><ele>54.0</ele><time>2026-04-05T17:14:16Z</time></trkpt><trkpt lat="42.403859507118675" lon="-8.75758015374084"><ele>54.0</ele><time>2026-04-05T17:14:17Z</time></trkpt><trkpt lat="42.40393595744239" lon="-8.757430652191372"><ele>54.0</ele><time>2026-04-05T17:14:18Z</time></trkpt><trkpt lat="42.404008742574064" lon="-8.757288318110914"><ele>54.5</ele><time>2026-04-05T17:14:19Z</time></trkpt><trkpt lat="42.404083499627035" lon="-8.757142127627068"><ele>55.0</ele><time>2026-04-05T17:14:20Z</time></trkpt><trkpt lat="42.404164805962175" lon="-8.757008042525932"><ele>55.5</ele><time>2026-04-05T17:14:21Z</time></trkpt><trkpt lat="42.40424742874637" lon="-8.756873298735472"><ele>56.0</ele><time>2026-04-05T17:14:22Z</time></trkpt><trkpt lat="42.40433344161471" lon="-8.756744500742762"><ele>55.25</ele><time>2026-04-05T17:14:23Z</time></trkpt><trkpt lat="42.40442089418416" lon="-8.756623120793488"><ele>54.5</ele><time>2026-04-05T17:14:24Z</time></trkpt><trkpt lat="42.404510307337254" lon="-8.75651070606376"><ele>53.75</ele><time>2026-04-05T17:14:25Z</time></trkpt><trkpt lat="42.404595228646514" lon="-8.756408854124352"><ele>53.0</ele><time>2026-04-05T17:14:26Z</time></trkpt><trkpt lat="42.40469157466954" lon="-8.756321659982042"><ele>53.0</ele><time>2026-04-05T17:14:27Z</time></trkpt><trkpt lat="42.40476396990673" lon="-8.756213625397594"><ele>53.0</ele><time>2026-04-05T17:14:28Z</time></trkpt><trkpt lat="42.40485483751755" lon="-8.756138981069927"><ele>53.0</ele><time>2026-04-05T17:14:29Z</time></trkpt><trkpt lat="42.40493704793008" lon="-8.75604635252023"><ele>53.0</ele><time>2026-04-05T17:14:30Z</time></trkpt><trkpt lat="42.40501766239448" lon="-8.755953379659084"><ele>53.0</ele><time>2026-04-05T17:14:31Z</time></trkpt><trkpt lat="42.405097167351435" lon="-8.75586722693215"><ele>51.16666666666667</ele><time>2026-04-05T17:14:32Z</time></trkpt><trkpt lat="42.40517280059444" lon="-8.755785043655512"><ele>49.333333333333336</ele><time>2026-04-05T17:14:33Z</time></trkpt><trkpt lat="42.40523563885334" lon="-8.755691143183995"><ele>47.5</ele><time>2026-04-05T17:14:34Z</time></trkpt><trkpt lat="42.405281142223494" lon="-8.755603300094386"><ele>45.66666666666667</ele><time>2026-04-05T17:14:35Z</time></trkpt><trkpt lat="42.405316161133754" lon="-8.755507637675791"><ele>43.833333333333336</ele><time>2026-04-05T17:14:36Z</time></trkpt><trkpt lat="42.40533747332307" lon="-8.755411939290731"><ele>42.0</ele><time>2026-04-05T17:14:37Z</time></trkpt><trkpt lat="42.40538691659456" lon="-8.755347884517501"><ele>42.0</ele><time>2026-04-05T17:14:38Z</time></trkpt><trkpt lat="42.40546277475673" lon="-8.755348407482035"><ele>42.0</ele><time>2026-04-05T17:14:39Z</time></trkpt><trkpt lat="42.40554527492287" lon="-8.755339882584128"><ele>42.0</ele><time>2026-04-05T17:14:40Z</time></trkpt><trkpt lat="42.405630665953325" lon="-8.755294356782542"><ele>42.0</ele><time>2026-04-05T17:14:41Z</time></trkpt><trkpt lat="42.4057098596801" lon="-8.75524532426305"><ele>42.0</ele><time>2026-04-05T17:14:42Z</time></trkpt><trkpt lat="42.405767964506985" lon="-8.755123400721077"><ele>42.0</ele><time>2026-04-05T17:14:43Z</time></trkpt><trkpt lat="42.40581256186139" lon="-8.755016548547466"><ele>41.666666666666664</ele><time>2026-04-05T17:14:44Z</time></trkpt><trkpt lat="42.40582570911765" lon="-8.754899019104068"><ele>41.333333333333336</ele><time>2026-04-05T17:14:45Z</time></trkpt><trkpt lat="42.405834070232004" lon="-8.754786633723432"><ele>41.0</ele><time>2026-04-05T17:14:46Z</time></trkpt><trkpt lat="42.40582948804588" lon="-8.754675366719338"><ele>40.66666666666667</ele><time>2026-04-05T17:14:47Z</time></trkpt><trkpt lat="42.40582203159066" lon="-8.754567338984023"><ele>40.333333333333336</ele><time>2026-04-05T17:14:48Z</time></trkpt><trkpt lat="42.405796420261446" lon="-8.754468763729625"><ele>40.0</ele><time>2026-04-05T17:14:49Z</time></trkpt><trkpt lat="42.40575657897178" lon="-8.754360319793978"><ele>39.8</ele><time>2026-04-05T17:14:50Z</time></trkpt><trkpt lat="42.4056983901991" lon="-8.754256582726175"><ele>39.6</ele><time>2026-04-05T17:14:51Z</time></trkpt><trkpt lat="42.4056333298088" lon="-8.754170304573329"><ele>39.4</ele><time>2026-04-05T17:14:52Z</time></trkpt><trkpt lat="42.405556208527386" lon="-8.7540963920182"><ele>39.2</ele><time>2026-04-05T17:14:53Z</time></trkpt><trkpt lat="42.40548100004656" lon="-8.754011239522306"><ele>39.0</ele><time>2026-04-05T17:14:54Z</time></trkpt><trkpt lat="42.40539456148708" lon="-8.753947852365645"><ele>36.8</ele><time>2026-04-05T17:14:55Z</time></trkpt><trkpt lat="42.40530988064846" lon="-8.753876921931866"><ele>34.599999999999994</ele><time>2026-04-05T17:14:56Z</time></trkpt><trkpt lat="42.405223827078764" lon="-8.753801118644052"><ele>32.4</ele><time>2026-04-05T17:14:57Z</time></trkpt><trkpt lat="42.4051374052699" lon="-8.753727176618245"><ele>30.2</ele><time>2026-04-05T17:14:58Z</time></trkpt><trkpt lat="42.40505189130249" lon="-8.753656687892363"><ele>28.0</ele><time>2026-04-05T17:14:59Z</time></trkpt><trkpt lat="42.4049625991998" lon="-8.753584249777594"><ele>29.599999999999998</ele><time>2026-04-05T17:15:00Z</time></trkpt><trkpt lat="42.40487625913224" lon="-8.753506919456763"><ele>31.199999999999996</ele><time>2026-04-05T17:15:01Z</time></trkpt><trkpt lat="42.40478697275277" lon="-8.753428585379147"><ele>32.8</ele><time>2026-04-05T17:15:02Z</time></trkpt><trkpt lat="42.40469682039021" lon="-8.753355104216945"><ele>34.4</ele><time>2026-04-05T17:15:03Z</time></trkpt><trkpt lat="42.40460768568919" lon="-8.753277709870199"><ele>36.0</ele><time>2026-04-05T17:15:04Z</time></trkpt><trkpt lat="42.40451930973145" lon="-8.753205677051712"><ele>32.2</ele><time>2026-04-05T17:15:05Z</time></trkpt><trkpt lat="42.404422553174506" lon="-8.753134674427494"><ele>28.400000000000002</ele><time>2026-04-05T17:15:06Z</time></trkpt><trkpt lat="42.40433232637975" lon="-8.753055550219022"><ele>24.6</ele><time>2026-04-05T17:15:07Z</time></trkpt><trkpt lat="42.404248209444305" lon="-8.752979742114372"><ele>20.8</ele><time>2026-04-05T17:15:08Z</time></trkpt><trkpt lat="42.40416548686454" lon="-8.752909941745742"><ele>17.0</ele><time>2026-04-05T17:15:09Z</time></trkpt><trkpt lat="42.4041004791472" lon="-8.752840471947524"><ele>17.0</ele><time>2026-04-05T17:15:10Z</time></trkpt><trkpt lat="42.40402499248238" lon="-8.752747410172903"><ele>17.0</ele><time>2026-04-05T17:15:11Z</time></trkpt><trkpt lat="42.403964879487845" lon="-8.752648143566196"><ele>17.0</ele><time>2026-04-05T17:15:12Z</time></trkpt><trkpt lat="42.403915102285296" lon="-8.752543381071334"><ele>17.0</ele><time>2026-04-05T17:15:13Z</time></trkpt><trkpt lat="42.40387623357585" lon="-8.75242283141195"><ele>17.0</ele><time>2026-04-05T17:15:14Z</time></trkpt><trkpt lat="42.40383782920126" lon="-8.752293617289263"><ele>15.8</ele><time>2026-04-05T17:15:15Z</time></trkpt><trkpt lat="42.40381440754869" lon="-8.752172497916842"><ele>14.6</ele><time>2026-04-05T17:15:16Z</time></trkpt><trkpt lat="42.403801729306004" lon="-8.752034304142414"><ele>13.4</ele><time>2026-04-05T17:15:17Z</time></trkpt><trkpt lat="42.40379506031648" lon="-8.751904790727139"><ele>12.200000000000001</ele><time>2026-04-05T17:15:18Z</time></trkpt><trkpt lat="42.40377819699885" lon="-8.751772027929988"><ele>11.0</ele><time>2026-04-05T17:15:19Z</time></trkpt><trkpt lat="42.40381292701567" lon="-8.751640577386013"><ele>12.8</ele><time>2026-04-05T17:15:20Z</time></trkpt><trkpt lat="42.403840001931485" lon="-8.751511018706324"><ele>14.600000000000001</ele><time>2026-04-05T17:15:21Z</time></trkpt><trkpt lat="42.403888782509775" lon="-8.751386345203828"><ele>16.4</ele><time>2026-04-05T17:15:22Z</time></trkpt><trkpt lat="42.40394565039911" lon="-8.751256975687102"><ele>18.2</ele><time>2026-04-05T17:15:23Z</time></trkpt><trkpt lat="42.403996881827155" lon="-8.751132941205455"><ele>20.0</ele><time>2026-04-05T17:15:24Z</time></trkpt><trkpt lat="42.4040523543897" lon="-8.750997655410218"><ele>20.0</ele><time>2026-04-05T17:15:25Z</time></trkpt><trkpt lat="42.40410516415936" lon="-8.750860784505495"><ele>20.0</ele><time>2026-04-05T17:15:26Z</time></trkpt><trkpt lat="42.40415710091876" lon="-8.750721510248683"><ele>20.0</ele><time>2026-04-05T17:15:27Z</time></trkpt><trkpt lat="42.404209583255344" lon="-8.75058239560941"><ele>20.0</ele><time>2026-04-05T17:15:28Z</time></trkpt><trkpt lat="42.404265224641506" lon="-8.750442429709143"><ele>20.0</ele><time>2026-04-05T17:15:29Z</time></trkpt><trkpt lat="42.40432413875165" lon="-8.75030211375793"><ele>20.0</ele><time>2026-04-05T17:15:30Z</time></trkpt><trkpt lat="42.40438059058194" lon="-8.75015725933563"><ele>20.0</ele><time>2026-04-05T17:15:31Z</time></trkpt><trkpt lat="42.40443448540134" lon="-8.75001798475155"><ele>20.0</ele><time>2026-04-05T17:15:32Z</time></trkpt><trkpt lat="42.40449461547918" lon="-8.749870376269655"><ele>20.25</ele><time>2026-04-05T17:15:33Z</time></trkpt><trkpt lat="42.40455187626781" lon="-8.749717166854447"><ele>20.5</ele><time>2026-04-05T17:15:34Z</time></trkpt><trkpt lat="42.40460902698127" lon="-8.74957186714453"><ele>20.75</ele><time>2026-04-05T17:15:35Z</time></trkpt><trkpt lat="42.404669840057586" lon="-8.749420503008636"><ele>21.0</ele><time>2026-04-05T17:15:36Z</time></trkpt><trkpt lat="42.404725420586175" lon="-8.74926614945799"><ele>21.0</ele><time>2026-04-05T17:15:37Z</time></trkpt><trkpt lat="42.404789169959834" lon="-8.749113868448093"><ele>21.0</ele><time>2026-04-05T17:15:38Z</time></trkpt><trkpt lat="42.40484748802388" lon="-8.7489670614839"><ele>21.0</ele><time>2026-04-05T17:15:39Z</time></trkpt><trkpt lat="42.40490492182438" lon="-8.748814388089786"><ele>21.0</ele><time>2026-04-05T17:15:40Z</time></trkpt><trkpt lat="42.40496671630063" lon="-8.748666080592415"><ele>19.0</ele><time>2026-04-05T17:15:41Z</time></trkpt><trkpt lat="42.40502344174039" lon="-8.748520051122785"><ele>17.0</ele><time>2026-04-05T17:15:42Z</time></trkpt><trkpt lat="42.40508008884555" lon="-8.748372379548014"><ele>15.0</ele><time>2026-04-05T17:15:43Z</time></trkpt><trkpt lat="42.40513932551744" lon="-8.748225375221063"><ele>13.0</ele><time>2026-04-05T17:15:44Z</time></trkpt><trkpt lat="42.40520180249575" lon="-8.748083002873287"><ele>13.0</ele><time>2026-04-05T17:15:45Z</time></trkpt><trkpt lat="42.40526790396937" lon="-8.747946976883982"><ele>13.0</ele><time>2026-04-05T17:15:46Z</time></trkpt><trkpt lat="42.405343662179575" lon="-8.747823361536458"><ele>13.0</ele><time>2026-04-05T17:15:47Z</time></trkpt><trkpt lat="42.40543123626313" lon="-8.747720214859516"><ele>13.0</ele><time>2026-04-05T17:15:48Z</time></trkpt><trkpt lat="42.405512872639264" lon="-8.74762238957843"><ele>14.2</ele><time>2026-04-05T17:15:49Z</time></trkpt><trkpt lat="42.40560020385283" lon="-8.747525348651955"><ele>15.4</ele><time>2026-04-05T17:15:50Z</time></trkpt><trkpt lat="42.40568669500166" lon="-8.747432992711156"><ele>16.599999999999998</ele><time>2026-04-05T17:15:51Z</time></trkpt><trkpt lat="42.40576928149012" lon="-8.747336061651225"><ele>17.8</ele><time>2026-04-05T17:15:52Z</time></trkpt><trkpt lat="42.405852878402044" lon="-8.747244311149494"><ele>19.0</ele><time>2026-04-05T17:15:53Z</time></trkpt><trkpt lat="42.40593567522621" lon="-8.747150959450282"><ele>19.0</ele><time>2026-04-05T17:15:54Z</time></trkpt><trkpt lat="42.4060194637367" lon="-8.747056728480631"><ele>19.0</ele><time>2026-04-05T17:15:55Z</time></trkpt><trkpt lat="42.406110318008224" lon="-8.746966330353565"><ele>19.0</ele><time>2026-04-05T17:15:56Z</time></trkpt><trkpt lat="42.40618854838286" lon="-8.746864087293822"><ele>19.0</ele><time>2026-04-05T17:15:57Z</time></trkpt><trkpt lat="42.40629153387261" lon="-8.7468110997222"><ele>19.0</ele><time>2026-04-05T17:15:58Z</time></trkpt><trkpt lat="42.40639314567008" lon="-8.746765271975406"><ele>18.0</ele><time>2026-04-05T17:15:59Z</time></trkpt><trkpt lat="42.406498578798285" lon="-8.746748459967826"><ele>17.0</ele><time>2026-04-05T17:16:00Z</time></trkpt><trkpt lat="42.40660750979885" lon="-8.74673805656386"><ele>15.999999999999998</ele><time>2026-04-05T17:16:01Z</time></trkpt><trkpt lat="42.40671987394691" lon="-8.74673957473625"><ele>15.0</ele><time>2026-04-05T17:16:02Z</time></trkpt><trkpt lat="42.40683619264296" lon="-8.746751892157418"><ele>14.0</ele><time>2026-04-05T17:16:03Z</time></trkpt><trkpt lat="42.40695645336552" lon="-8.746758867214323"><ele>14.0</ele><time>2026-04-05T17:16:04Z</time></trkpt><trkpt lat="42.40707770974934" lon="-8.74675218939802"><ele>14.0</ele><time>2026-04-05T17:16:05Z</time></trkpt><trkpt lat="42.40720208154578" lon="-8.74671757345892"><ele>14.0</ele><time>2026-04-05T17:16:06Z</time></trkpt><trkpt lat="42.407316526577794" lon="-8.746664913862759"><ele>14.0</ele><time>2026-04-05T17:16:07Z</time></trkpt><trkpt lat="42.40743042730592" lon="-8.746580249778765"><ele>15.0</ele><time>2026-04-05T17:16:08Z</time></trkpt><trkpt lat="42.407539100012976" lon="-8.746490439159308"><ele>16.0</ele><time>2026-04-05T17:16:09Z</time></trkpt><trkpt lat="42.407644263705166" lon="-8.746405535508366"><ele>17.0</ele><time>2026-04-05T17:16:10Z</time></trkpt><trkpt lat="42.407752905899436" lon="-8.746309900305612"><ele>18.0</ele><time>2026-04-05T17:16:11Z</time></trkpt><trkpt lat="42.40786267140262" lon="-8.746221992172256"><ele>18.0</ele><time>2026-04-05T17:16:12Z</time></trkpt><trkpt lat="42.40797387087942" lon="-8.746131537593605"><ele>18.0</ele><time>2026-04-05T17:16:13Z</time></trkpt><trkpt lat="42.40808340281107" lon="-8.746035024856676"><ele>18.0</ele><time>2026-04-05T17:16:14Z</time></trkpt><trkpt lat="42.40819502926946" lon="-8.74594349528616"><ele>18.0</ele><time>2026-04-05T17:16:15Z</time></trkpt><trkpt lat="42.408305134775574" lon="-8.745852664917182"><ele>17.25</ele><time>2026-04-05T17:16:16Z</time></trkpt><trkpt lat="42.40841615784459" lon="-8.745760177870636"><ele>16.5</ele><time>2026-04-05T17:16:17Z</time></trkpt><trkpt lat="42.40852561228644" lon="-8.745669441671069"><ele>15.75</ele><time>2026-04-05T17:16:18Z</time></trkpt><trkpt lat="42.408634550179904" lon="-8.745577532018524"><ele>15.0</ele><time>2026-04-05T17:16:19Z</time></trkpt><trkpt lat="42.408743607548644" lon="-8.74548494124654"><ele>15.5</ele><time>2026-04-05T17:16:20Z</time></trkpt><trkpt lat="42.40885035607449" lon="-8.745393265365717"><ele>16.0</ele><time>2026-04-05T17:16:21Z</time></trkpt><trkpt lat="42.4089596047655" lon="-8.745300907828915"><ele>16.5</ele><time>2026-04-05T17:16:22Z</time></trkpt><trkpt lat="42.40906877172267" lon="-8.745210245139463"><ele>17.0</ele><time>2026-04-05T17:16:23Z</time></trkpt><trkpt lat="42.4091837245991" lon="-8.745119093085542"><ele>15.25</ele><time>2026-04-05T17:16:24Z</time></trkpt><trkpt lat="42.409296954494486" lon="-8.745030249059248"><ele>13.5</ele><time>2026-04-05T17:16:25Z</time></trkpt><trkpt lat="42.4094092238101" lon="-8.744940965565922"><ele>11.75</ele><time>2026-04-05T17:16:26Z</time></trkpt><trkpt lat="42.409523309754945" lon="-8.744854055052889"><ele>10.0</ele><time>2026-04-05T17:16:27Z</time></trkpt><trkpt lat="42.40963947676818" lon="-8.744764668256156"><ele>11.25</ele><time>2026-04-05T17:16:28Z</time></trkpt><trkpt lat="42.40975392579281" lon="-8.744672016855652"><ele>12.5</ele><time>2026-04-05T17:16:29Z</time></trkpt><trkpt lat="42.409867071690535" lon="-8.744580253539244"><ele>13.75</ele><time>2026-04-05T17:16:30Z</time></trkpt><trkpt lat="42.409983160581156" lon="-8.744485178427762"><ele>15.0</ele><time>2026-04-05T17:16:31Z</time></trkpt><trkpt lat="42.41009939002426" lon="-8.744395051045245"><ele>15.5</ele><time>2026-04-05T17:16:32Z</time></trkpt><trkpt lat="42.41021669261899" lon="-8.744307536511746"><ele>16.0</ele><time>2026-04-05T17:16:33Z</time></trkpt><trkpt lat="42.41033336627167" lon="-8.744230185097782"><ele>16.5</ele><time>2026-04-05T17:16:34Z</time></trkpt><trkpt lat="42.41044149108833" lon="-8.744158727746271"><ele>17.0</ele><time>2026-04-05T17:16:35Z</time></trkpt><trkpt lat="42.410537308288674" lon="-8.7440702560455"><ele>17.0</ele><time>2026-04-05T17:16:36Z</time></trkpt><trkpt lat="42.410631263371" lon="-8.744005143924637"><ele>17.0</ele><time>2026-04-05T17:16:37Z</time></trkpt><trkpt lat="42.410720317207875" lon="-8.743948935507015"><ele>17.0</ele><time>2026-04-05T17:16:38Z</time></trkpt><trkpt lat="42.41081225861799" lon="-8.743914197768405"><ele>17.0</ele><time>2026-04-05T17:16:39Z</time></trkpt><trkpt lat="42.41089802330423" lon="-8.743858737360801"><ele>17.0</ele><time>2026-04-05T17:16:40Z</time></trkpt><trkpt lat="42.410984978884095" lon="-8.743804872406775"><ele>17.0</ele><time>2026-04-05T17:16:41Z</time></trkpt><trkpt lat="42.411076039734596" lon="-8.743741577018278"><ele>17.0</ele><time>2026-04-05T17:16:42Z</time></trkpt><trkpt lat="42.411172206890036" lon="-8.743678457964084"><ele>17.0</ele><time>2026-04-05T17:16:43Z</time></trkpt><trkpt lat="42.41127285171473" lon="-8.743611746119"><ele>17.0</ele><time>2026-04-05T17:16:44Z</time></trkpt><trkpt lat="42.411377152901544" lon="-8.743544876948354"><ele>17.0</ele><time>2026-04-05T17:16:45Z</time></trkpt><trkpt lat="42.4114813939692" lon="-8.74347773622135"><ele>16.4</ele><time>2026-04-05T17:16:46Z</time></trkpt><trkpt lat="42.41158005164557" lon="-8.743410330060295"><ele>15.799999999999999</ele><time>2026-04-05T17:16:47Z</time></trkpt><trkpt lat="42.41168188897704" lon="-8.743347058565423"><ele>15.2</ele><time>2026-04-05T17:16:48Z</time></trkpt><trkpt lat="42.4117793515422" lon="-8.743286086612338"><ele>14.6</ele><time>2026-04-05T17:16:49Z</time></trkpt><trkpt lat="42.41187105739961" lon="-8.743225302206776"><ele>14.0</ele><time>2026-04-05T17:16:50Z</time></trkpt><trkpt lat="42.411959773124" lon="-8.74317191345851"><ele>14.0</ele><time>2026-04-05T17:16:51Z</time></trkpt><trkpt lat="42.412049443960385" lon="-8.743116175757658"><ele>13.999999999999998</ele><time>2026-04-05T17:16:52Z</time></trkpt><trkpt lat="42.412139746419065" lon="-8.743055037533619"><ele>13.999999999999998</ele><time>2026-04-05T17:16:53Z</time></trkpt><trkpt lat="42.41223007616331" lon="-8.742991421523863"><ele>14.0</ele><time>2026-04-05T17:16:54Z</time></trkpt><trkpt lat="42.41232315970038" lon="-8.74292755757579"><ele>14.0</ele><time>2026-04-05T17:16:55Z</time></trkpt><trkpt lat="42.41241750384763" lon="-8.742865249166522"><ele>12.6</ele><time>2026-04-05T17:16:56Z</time></trkpt><trkpt lat="42.41251212880606" lon="-8.74280302415477"><ele>11.2</ele><time>2026-04-05T17:16:57Z</time></trkpt><trkpt lat="42.41260852192689" lon="-8.742742644853173"><ele>9.799999999999999</ele><time>2026-04-05T17:16:58Z</time></trkpt><trkpt lat="42.41270261800786" lon="-8.742681394200304"><ele>8.399999999999999</ele><time>2026-04-05T17:16:59Z</time></trkpt><trkpt lat="42.41280130264352" lon="-8.742623363323137"><ele>7.0</ele><time>2026-04-05T17:17:00Z</time></trkpt><trkpt lat="42.41290030945774" lon="-8.742559751158577"><ele>8.5</ele><time>2026-04-05T17:17:01Z</time></trkpt><trkpt lat="42.413001177927285" lon="-8.742493215946341"><ele>10.0</ele><time>2026-04-05T17:17:02Z</time></trkpt><trkpt lat="42.41310699903475" lon="-8.742421905813991"><ele>11.5</ele><time>2026-04-05T17:17:03Z</time></trkpt><trkpt lat="42.41321395991364" lon="-8.742355592483"><ele>13.0</ele><time>2026-04-05T17:17:04Z</time></trkpt><trkpt lat="42.413324345619436" lon="-8.742282659128053"><ele>13.0</ele><time>2026-04-05T17:17:05Z</time></trkpt><trkpt lat="42.41343763434749" lon="-8.742208432703361"><ele>13.0</ele><time>2026-04-05T17:17:06Z</time></trkpt><trkpt lat="42.413554793114116" lon="-8.742130076777132"><ele>13.0</ele><time>2026-04-05T17:17:07Z</time></trkpt><trkpt lat="42.41366907203093" lon="-8.742053300744413"><ele>13.0</ele><time>2026-04-05T17:17:08Z</time></trkpt><trkpt lat="42.413778464618076" lon="-8.741969387351478"><ele>12.0</ele><time>2026-04-05T17:17:09Z</time></trkpt><trkpt lat="42.41388439691883" lon="-8.74187120539105"><ele>11.0</ele><time>2026-04-05T17:17:10Z</time></trkpt><trkpt lat="42.41398206391678" lon="-8.741761613420598"><ele>10.0</ele><time>2026-04-05T17:17:11Z</time></trkpt><trkpt lat="42.41406870525694" lon="-8.741633947223884"><ele>9.0</ele><time>2026-04-05T17:17:12Z</time></trkpt><trkpt lat="42.41414465997766" lon="-8.741497589562695"><ele>9.0</ele><time>2026-04-05T17:17:13Z</time></trkpt><trkpt lat="42.414212606928906" lon="-8.741358566963148"><ele>9.0</ele><time>2026-04-05T17:17:14Z</time></trkpt><trkpt lat="42.414268481715965" lon="-8.741223709436222"><ele>9.0</ele><time>2026-04-05T17:17:15Z</time></trkpt><trkpt lat="42.41431704683597" lon="-8.741093095172632"><ele>9.0</ele><time>2026-04-05T17:17:16Z</time></trkpt><trkpt lat="42.41436754120893" lon="-8.740967394321837"><ele>8.8</ele><time>2026-04-05T17:17:17Z</time></trkpt><trkpt lat="42.41442454508731" lon="-8.740825006085982"><ele>8.600000000000001</ele><time>2026-04-05T17:17:18Z</time></trkpt><trkpt lat="42.41447826269203" lon="-8.74069750269431"><ele>8.4</ele><time>2026-04-05T17:17:19Z</time></trkpt><trkpt lat="42.414513891366965" lon="-8.740567716068096"><ele>8.200000000000001</ele><time>2026-04-05T17:17:20Z</time></trkpt><trkpt lat="42.414555610761305" lon="-8.740462336485319"><ele>8.0</ele><time>2026-04-05T17:17:21Z</time></trkpt><trkpt lat="42.41459119594588" lon="-8.74037245161767"><ele>7.999999999999999</ele><time>2026-04-05T17:17:22Z</time></trkpt><trkpt lat="42.414627347979675" lon="-8.740281134736858"><ele>8.0</ele><time>2026-04-05T17:17:23Z</time></trkpt><trkpt lat="42.41467591835564" lon="-8.740200206478741"><ele>8.0</ele><time>2026-04-05T17:17:24Z</time></trkpt><trkpt lat="42.41471014419971" lon="-8.740098991592463"><ele>8.0</ele><time>2026-04-05T17:17:25Z</time></trkpt><trkpt lat="42.414751997823934" lon="-8.739984866032827"><ele>7.999999999999999</ele><time>2026-04-05T17:17:26Z</time></trkpt><trkpt lat="42.41480223100858" lon="-8.739863845398473"><ele>8.0</ele><time>2026-04-05T17:17:27Z</time></trkpt><trkpt lat="42.41485695351678" lon="-8.739740418423224"><ele>8.5</ele><time>2026-04-05T17:17:28Z</time></trkpt><trkpt lat="42.41490912247554" lon="-8.739607430287649"><ele>9.0</ele><time>2026-04-05T17:17:29Z</time></trkpt><trkpt lat="42.41496046495789" lon="-8.739469418685697"><ele>9.5</ele><time>2026-04-05T17:17:30Z</time></trkpt><trkpt lat="42.41501725165608" lon="-8.739329998419187"><ele>10.0</ele><time>2026-04-05T17:17:31Z</time></trkpt><trkpt lat="42.4150777178223" lon="-8.739190468588754"><ele>10.0</ele><time>2026-04-05T17:17:32Z</time></trkpt><trkpt lat="42.41513072548485" lon="-8.739038964330188"><ele>10.0</ele><time>2026-04-05T17:17:33Z</time></trkpt><trkpt lat="42.415185884936484" lon="-8.738893521486297"><ele>10.0</ele><time>2026-04-05T17:17:34Z</time></trkpt><trkpt lat="42.41524274897793" lon="-8.738747838879009"><ele>10.0</ele><time>2026-04-05T17:17:35Z</time></trkpt><trkpt lat="42.415303347837074" lon="-8.73860201363981"><ele>10.0</ele><time>2026-04-05T17:17:36Z</time></trkpt><trkpt lat="42.41536674003001" lon="-8.738449271619631"><ele>10.0</ele><time>2026-04-05T17:17:37Z</time></trkpt><trkpt lat="42.415428799567536" lon="-8.738290198857468"><ele>10.0</ele><time>2026-04-05T17:17:38Z</time></trkpt><trkpt lat="42.415493982912714" lon="-8.738125586049607"><ele>10.0</ele><time>2026-04-05T17:17:39Z</time></trkpt><trkpt lat="42.41556023557289" lon="-8.737961365067838"><ele>11.0</ele><time>2026-04-05T17:17:40Z</time></trkpt><trkpt lat="42.41563634763301" lon="-8.737797537466191"><ele>12.0</ele><time>2026-04-05T17:17:41Z</time></trkpt><trkpt lat="42.41570385719203" lon="-8.737624956609697"><ele>13.0</ele><time>2026-04-05T17:17:42Z</time></trkpt><trkpt lat="42.41576794678539" lon="-8.73746324560358"><ele>14.0</ele><time>2026-04-05T17:17:43Z</time></trkpt><trkpt lat="42.41583040122741" lon="-8.737298544765533"><ele>14.0</ele><time>2026-04-05T17:17:44Z</time></trkpt><trkpt lat="42.41589329057899" lon="-8.737136114425326"><ele>14.0</ele><time>2026-04-05T17:17:45Z</time></trkpt><trkpt lat="42.4159563059024" lon="-8.736978745046228"><ele>14.0</ele><time>2026-04-05T17:17:46Z</time></trkpt><trkpt lat="42.41601923853438" lon="-8.736820682834281"><ele>14.0</ele><time>2026-04-05T17:17:47Z</time></trkpt><trkpt lat="42.41608045624593" lon="-8.736669276915524"><ele>14.5</ele><time>2026-04-05T17:17:48Z</time></trkpt><trkpt lat="42.41614041673458" lon="-8.736522876121569"><ele>15.0</ele><time>2026-04-05T17:17:49Z</time></trkpt><trkpt lat="42.41619978913341" lon="-8.73637869202363"><ele>15.5</ele><time>2026-04-05T17:17:50Z</time></trkpt><trkpt lat="42.41625763528263" lon="-8.736230287210782"><ele>16.0</ele><time>2026-04-05T17:17:51Z</time></trkpt><trkpt lat="42.41631688095613" lon="-8.736072895818067"><ele>18.5</ele><time>2026-04-05T17:17:52Z</time></trkpt><trkpt lat="42.41637999478252" lon="-8.735916632507259"><ele>21.0</ele><time>2026-04-05T17:17:53Z</time></trkpt><trkpt lat="42.4164446056591" lon="-8.735764073193028"><ele>23.5</ele><time>2026-04-05T17:17:54Z</time></trkpt><trkpt lat="42.41650748784896" lon="-8.735610157569235"><ele>26.0</ele><time>2026-04-05T17:17:55Z</time></trkpt><trkpt lat="42.41655213607165" lon="-8.735474592812448"><ele>26.0</ele><time>2026-04-05T17:17:56Z</time></trkpt><trkpt lat="42.41660244454524" lon="-8.735349957997423"><ele>26.0</ele><time>2026-04-05T17:17:57Z</time></trkpt><trkpt lat="42.41665221621192" lon="-8.73523014675194"><ele>26.0</ele><time>2026-04-05T17:17:58Z</time></trkpt><trkpt lat="42.416702516004996" lon="-8.735110787995717"><ele>26.0</ele><time>2026-04-05T17:17:59Z</time></trkpt><trkpt lat="42.41675095735678" lon="-8.73499066736202"><ele>26.0</ele><time>2026-04-05T17:18:00Z</time></trkpt><trkpt lat="42.41679370371636" lon="-8.734877120183697"><ele>25.999999999999996</ele><time>2026-04-05T17:18:01Z</time></trkpt><trkpt lat="42.41683778433781" lon="-8.734765007549372"><ele>26.0</ele><time>2026-04-05T17:18:02Z</time></trkpt><trkpt lat="42.41687710663603" lon="-8.73466273154449"><ele>26.0</ele><time>2026-04-05T17:18:03Z</time></trkpt><trkpt lat="42.416913295539494" lon="-8.734567421741504"><ele>26.0</ele><time>2026-04-05T17:18:04Z</time></trkpt><trkpt lat="42.416947819380574" lon="-8.734477025387642"><ele>25.999999999999996</ele><time>2026-04-05T17:18:05Z</time></trkpt><trkpt lat="42.41697962557681" lon="-8.734394167011141"><ele>26.0</ele><time>2026-04-05T17:18:06Z</time></trkpt><trkpt lat="42.41700966911563" lon="-8.734318341917108"><ele>25.666666666666664</ele><time>2026-04-05T17:18:07Z</time></trkpt><trkpt lat="42.41705379700157" lon="-8.734187552360742"><ele>25.333333333333332</ele><time>2026-04-05T17:18:09Z</time></trkpt><trkpt lat="42.41709160280294" lon="-8.734055623330155"><ele>25.0</ele><time>2026-04-05T17:18:11Z</time></trkpt><trkpt lat="42.41710581406943" lon="-8.733971238258281"><ele>24.666666666666664</ele><time>2026-04-05T17:18:12Z</time></trkpt><trkpt lat="42.417114929900656" lon="-8.733872755355494"><ele>24.333333333333332</ele><time>2026-04-05T17:18:13Z</time></trkpt><trkpt lat="42.4171453255153" lon="-8.733779003259178"><ele>24.0</ele><time>2026-04-05T17:18:14Z</time></trkpt><trkpt lat="42.41720925093758" lon="-8.73370364262142"><ele>24.5</ele><time>2026-04-05T17:18:15Z</time></trkpt><trkpt lat="42.417264815348574" lon="-8.733636305734585"><ele>25.0</ele><time>2026-04-05T17:18:16Z</time></trkpt><trkpt lat="42.417318711874366" lon="-8.733517172397073"><ele>25.5</ele><time>2026-04-05T17:18:18Z</time></trkpt><trkpt lat="42.41735495746242" lon="-8.733424009116888"><ele>26.0</ele><time>2026-04-05T17:18:22Z</time></trkpt><trkpt lat="42.4174169161694" lon="-8.733371956863138"><ele>26.5</ele><time>2026-04-05T17:18:24Z</time></trkpt><trkpt lat="42.41744514365983" lon="-8.733295009525905"><ele>27.0</ele><time>2026-04-05T17:18:26Z</time></trkpt><trkpt lat="42.41747991949594" lon="-8.733181847799372"><ele>27.0</ele><time>2026-04-05T17:18:28Z</time></trkpt><trkpt lat="42.41754426508687" lon="-8.73302388318215"><ele>27.000000000000004</ele><time>2026-04-05T17:18:30Z</time></trkpt><trkpt lat="42.417572145564726" lon="-8.732924961616337"><ele>27.000000000000004</ele><time>2026-04-05T17:18:31Z</time></trkpt><trkpt lat="42.41761141602527" lon="-8.732827200760298"><ele>27.0</ele><time>2026-04-05T17:18:32Z</time></trkpt><trkpt lat="42.417655077131194" lon="-8.73271850979269"><ele>27.0</ele><time>2026-04-05T17:18:33Z</time></trkpt><trkpt lat="42.41769943327799" lon="-8.732608088699704"><ele>26.200000000000003</ele><time>2026-04-05T17:18:34Z</time></trkpt><trkpt lat="42.41774492059585" lon="-8.732494485137309"><ele>25.400000000000002</ele><time>2026-04-05T17:18:35Z</time></trkpt><trkpt lat="42.41779280935767" lon="-8.732374686294179"><ele>24.6</ele><time>2026-04-05T17:18:36Z</time></trkpt><trkpt lat="42.41784284304667" lon="-8.732249521695687"><ele>23.799999999999997</ele><time>2026-04-05T17:18:37Z</time></trkpt><trkpt lat="42.41789494174381" lon="-8.732114862959532"><ele>23.0</ele><time>2026-04-05T17:18:38Z</time></trkpt><trkpt lat="42.41794208290558" lon="-8.731981682353657"><ele>22.5</ele><time>2026-04-05T17:18:39Z</time></trkpt><trkpt lat="42.41798556676439" lon="-8.731843519823826"><ele>22.0</ele><time>2026-04-05T17:18:40Z</time></trkpt><trkpt lat="42.41802561467293" lon="-8.731696652202977"><ele>21.5</ele><time>2026-04-05T17:18:41Z</time></trkpt><trkpt lat="42.418082448300574" lon="-8.731556072475552"><ele>21.0</ele><time>2026-04-05T17:18:42Z</time></trkpt><trkpt lat="42.4181057081624" lon="-8.731397729148547"><ele>21.0</ele><time>2026-04-05T17:18:43Z</time></trkpt><trkpt lat="42.418121539890464" lon="-8.731237591387872"><ele>21.0</ele><time>2026-04-05T17:18:44Z</time></trkpt><trkpt lat="42.4181318686324" lon="-8.73106975390222"><ele>21.0</ele><time>2026-04-05T17:18:45Z</time></trkpt><trkpt lat="42.418103506819016" lon="-8.730902963249676"><ele>21.0</ele><time>2026-04-05T17:18:46Z</time></trkpt><trkpt lat="42.41810752790633" lon="-8.730735699530115"><ele>20.75</ele><time>2026-04-05T17:18:47Z</time></trkpt><trkpt lat="42.41811143345017" lon="-8.730570996376786"><ele>20.5</ele><time>2026-04-05T17:18:48Z</time></trkpt><trkpt lat="42.418114924484854" lon="-8.730408991877525"><ele>20.25</ele><time>2026-04-05T17:18:49Z</time></trkpt><trkpt lat="42.418119950904426" lon="-8.730247997834972"><ele>20.0</ele><time>2026-04-05T17:18:50Z</time></trkpt><trkpt lat="42.41812325097985" lon="-8.730091904187615"><ele>20.0</ele><time>2026-04-05T17:18:51Z</time></trkpt><trkpt lat="42.41812823489583" lon="-8.72992191853489"><ele>20.0</ele><time>2026-04-05T17:18:52Z</time></trkpt><trkpt lat="42.41813181493932" lon="-8.72975942910552"><ele>20.0</ele><time>2026-04-05T17:18:53Z</time></trkpt><trkpt lat="42.41813549694683" lon="-8.7295991251567"><ele>20.0</ele><time>2026-04-05T17:18:54Z</time></trkpt><trkpt lat="42.41814319043628" lon="-8.729439802668242"><ele>19.75</ele><time>2026-04-05T17:18:55Z</time></trkpt><trkpt lat="42.41817914232795" lon="-8.729279370684738"><ele>19.5</ele><time>2026-04-05T17:18:56Z</time></trkpt><trkpt lat="42.41820805317913" lon="-8.72911634126654"><ele>19.25</ele><time>2026-04-05T17:18:57Z</time></trkpt><trkpt lat="42.41825859742938" lon="-8.728972334524821"><ele>19.0</ele><time>2026-04-05T17:18:58Z</time></trkpt><trkpt lat="42.41832460406908" lon="-8.728835686478787"><ele>19.0</ele><time>2026-04-05T17:18:59Z</time></trkpt><trkpt lat="42.41838612940186" lon="-8.728702931359107"><ele>19.0</ele><time>2026-04-05T17:19:00Z</time></trkpt><trkpt lat="42.41845942308135" lon="-8.728562478346504"><ele>19.0</ele><time>2026-04-05T17:19:01Z</time></trkpt><trkpt lat="42.41853077505622" lon="-8.728431060117929"><ele>19.0</ele><time>2026-04-05T17:19:02Z</time></trkpt><trkpt lat="42.41860308569918" lon="-8.728298972762236"><ele>17.5</ele><time>2026-04-05T17:19:03Z</time></trkpt><trkpt lat="42.418673171284475" lon="-8.728170949762026"><ele>16.0</ele><time>2026-04-05T17:19:04Z</time></trkpt><trkpt lat="42.41874129373102" lon="-8.72804446814346"><ele>14.5</ele><time>2026-04-05T17:19:05Z</time></trkpt><trkpt lat="42.41880954172903" lon="-8.72791746580667"><ele>13.0</ele><time>2026-04-05T17:19:06Z</time></trkpt><trkpt lat="42.418884760317454" lon="-8.727777491840994"><ele>14.5</ele><time>2026-04-05T17:19:07Z</time></trkpt><trkpt lat="42.41897051846943" lon="-8.727645532332227"><ele>16.0</ele><time>2026-04-05T17:19:08Z</time></trkpt><trkpt lat="42.41903989046204" lon="-8.72749665514979"><ele>17.5</ele><time>2026-04-05T17:19:09Z</time></trkpt><trkpt lat="42.41912462537055" lon="-8.727350843477366"><ele>19.0</ele><time>2026-04-05T17:19:10Z</time></trkpt><trkpt lat="42.41920810886959" lon="-8.727207189963087"><ele>19.0</ele><time>2026-04-05T17:19:11Z</time></trkpt><trkpt lat="42.41930103004055" lon="-8.727051539261943"><ele>19.0</ele><time>2026-04-05T17:19:12Z</time></trkpt><trkpt lat="42.4193798117716" lon="-8.726877139075862"><ele>19.0</ele><time>2026-04-05T17:19:13Z</time></trkpt><trkpt lat="42.41947132126208" lon="-8.726712366724026"><ele>17.75</ele><time>2026-04-05T17:19:14Z</time></trkpt><trkpt lat="42.419563351129064" lon="-8.72654576224526"><ele>16.5</ele><time>2026-04-05T17:19:15Z</time></trkpt><trkpt lat="42.41965170494423" lon="-8.72638448184471"><ele>15.25</ele><time>2026-04-05T17:19:16Z</time></trkpt><trkpt lat="42.41973739460802" lon="-8.726228064655036"><ele>14.0</ele><time>2026-04-05T17:19:17Z</time></trkpt><trkpt lat="42.41981951792464" lon="-8.726078157337941"><ele>15.75</ele><time>2026-04-05T17:19:18Z</time></trkpt><trkpt lat="42.41989934508436" lon="-8.725932439933683"><ele>17.5</ele><time>2026-04-05T17:19:19Z</time></trkpt><trkpt lat="42.41997988402694" lon="-8.725786442943786"><ele>19.25</ele><time>2026-04-05T17:19:20Z</time></trkpt><trkpt lat="42.420064210674674" lon="-8.725633352789199"><ele>21.0</ele><time>2026-04-05T17:19:21Z</time></trkpt><trkpt lat="42.420147183883216" lon="-8.725481376361397"><ele>21.0</ele><time>2026-04-05T17:19:22Z</time></trkpt><trkpt lat="42.42023080802579" lon="-8.725328831789803"><ele>21.0</ele><time>2026-04-05T17:19:23Z</time></trkpt><trkpt lat="42.420313835958616" lon="-8.725177302859025"><ele>21.0</ele><time>2026-04-05T17:19:24Z</time></trkpt><trkpt lat="42.420396117153395" lon="-8.72503978529503"><ele>21.0</ele><time>2026-04-05T17:19:25Z</time></trkpt><trkpt lat="42.42047685998151" lon="-8.724892669339757"><ele>20.75</ele><time>2026-04-05T17:19:26Z</time></trkpt><trkpt lat="42.42056298684978" lon="-8.724740954361593"><ele>20.5</ele><time>2026-04-05T17:19:27Z</time></trkpt><trkpt lat="42.42065022971383" lon="-8.724583073354832"><ele>20.25</ele><time>2026-04-05T17:19:28Z</time></trkpt><trkpt lat="42.42073682317168" lon="-8.724425356242255"><ele>20.0</ele><time>2026-04-05T17:19:29Z</time></trkpt><trkpt lat="42.42082365802008" lon="-8.724268210568175"><ele>17.75</ele><time>2026-04-05T17:19:30Z</time></trkpt><trkpt lat="42.42091173646881" lon="-8.724107972047818"><ele>15.5</ele><time>2026-04-05T17:19:31Z</time></trkpt><trkpt lat="42.42100295562013" lon="-8.723945771923619"><ele>13.25</ele><time>2026-04-05T17:19:32Z</time></trkpt><trkpt lat="42.421093463664356" lon="-8.723787295675383"><ele>11.0</ele><time>2026-04-05T17:19:33Z</time></trkpt><trkpt lat="42.42118042185874" lon="-8.723633907910179"><ele>9.75</ele><time>2026-04-05T17:19:34Z</time></trkpt><trkpt lat="42.42126852246674" lon="-8.723491643158283"><ele>8.5</ele><time>2026-04-05T17:19:35Z</time></trkpt><trkpt lat="42.421360903271264" lon="-8.723352495604345"><ele>7.25</ele><time>2026-04-05T17:19:36Z</time></trkpt><trkpt lat="42.42145505900782" lon="-8.723224173817815"><ele>6.0</ele><time>2026-04-05T17:19:37Z</time></trkpt><trkpt lat="42.42155551369426" lon="-8.723097714660348"><ele>7.0</ele><time>2026-04-05T17:19:38Z</time></trkpt><trkpt lat="42.42165708588514" lon="-8.722972837467395"><ele>8.0</ele><time>2026-04-05T17:19:39Z</time></trkpt><trkpt lat="42.42175676994343" lon="-8.722850070855477"><ele>9.0</ele><time>2026-04-05T17:19:40Z</time></trkpt><trkpt lat="42.42185724568725" lon="-8.722730688563711"><ele>10.0</ele><time>2026-04-05T17:19:41Z</time></trkpt><trkpt lat="42.42195818951165" lon="-8.722615183738156"><ele>10.0</ele><time>2026-04-05T17:19:42Z</time></trkpt><trkpt lat="42.4220516109297" lon="-8.722471934668745"><ele>10.0</ele><time>2026-04-05T17:19:43Z</time></trkpt><trkpt lat="42.4221592942201" lon="-8.72234037927909"><ele>10.0</ele><time>2026-04-05T17:19:44Z</time></trkpt><trkpt lat="42.422272575271904" lon="-8.722230326390092"><ele>10.0</ele><time>2026-04-05T17:19:45Z</time></trkpt><trkpt lat="42.42237158574392" lon="-8.722099131680862"><ele>12.0</ele><time>2026-04-05T17:19:46Z</time></trkpt><trkpt lat="42.42247418535848" lon="-8.72197726747055"><ele>14.0</ele><time>2026-04-05T17:19:47Z</time></trkpt><trkpt lat="42.422581284809304" lon="-8.721851934912179"><ele>16.0</ele><time>2026-04-05T17:19:48Z</time></trkpt><trkpt lat="42.422676173536125" lon="-8.721708530341909"><ele>18.0</ele><time>2026-04-05T17:19:49Z</time></trkpt><trkpt lat="42.42278078247513" lon="-8.721579969319121"><ele>18.0</ele><time>2026-04-05T17:19:50Z</time></trkpt><trkpt lat="42.42288460299977" lon="-8.721452377245962"><ele>18.0</ele><time>2026-04-05T17:19:51Z</time></trkpt><trkpt lat="42.42299161861203" lon="-8.72134626804232"><ele>18.0</ele><time>2026-04-05T17:19:52Z</time></trkpt><trkpt lat="42.4230839719863" lon="-8.721230297776852"><ele>18.0</ele><time>2026-04-05T17:19:53Z</time></trkpt><trkpt lat="42.42317189874427" lon="-8.721117529840871"><ele>18.0</ele><time>2026-04-05T17:19:54Z</time></trkpt><trkpt lat="42.423261171206825" lon="-8.721003663579374"><ele>18.0</ele><time>2026-04-05T17:19:55Z</time></trkpt><trkpt lat="42.42335227119681" lon="-8.720892769401933"><ele>18.0</ele><time>2026-04-05T17:19:56Z</time></trkpt><trkpt lat="42.423443767305464" lon="-8.720782956817244"><ele>18.0</ele><time>2026-04-05T17:19:57Z</time></trkpt><trkpt lat="42.42353388529787" lon="-8.720664828440002"><ele>18.0</ele><time>2026-04-05T17:19:58Z</time></trkpt><trkpt lat="42.42362240755286" lon="-8.72055435481548"><ele>18.0</ele><time>2026-04-05T17:19:59Z</time></trkpt><trkpt lat="42.42370906813929" lon="-8.720449773517675"><ele>18.0</ele><time>2026-04-05T17:20:00Z</time></trkpt><trkpt lat="42.42379079214721" lon="-8.720349232694158"><ele>18.0</ele><time>2026-04-05T17:20:01Z</time></trkpt><trkpt lat="42.423859000650204" lon="-8.720253168686062"><ele>18.0</ele><time>2026-04-05T17:20:02Z</time></trkpt><trkpt lat="42.423936597196054" lon="-8.72014405540664"><ele>19.0</ele><time>2026-04-05T17:20:03Z</time></trkpt><trkpt lat="42.42399142391165" lon="-8.720032679995274"><ele>20.0</ele><time>2026-04-05T17:20:04Z</time></trkpt><trkpt lat="42.424032275836765" lon="-8.719918013165916"><ele>21.0</ele><time>2026-04-05T17:20:05Z</time></trkpt><trkpt lat="42.424060390857655" lon="-8.719795539918676"><ele>22.0</ele><time>2026-04-05T17:20:06Z</time></trkpt><trkpt lat="42.42406843271066" lon="-8.719657440938795"><ele>23.0</ele><time>2026-04-05T17:20:07Z</time></trkpt><trkpt lat="42.424048674314236" lon="-8.71951668100428"><ele>22.2</ele><time>2026-04-05T17:20:08Z</time></trkpt><trkpt lat="42.42400340848874" lon="-8.719388535270776"><ele>21.4</ele><time>2026-04-05T17:20:09Z</time></trkpt><trkpt lat="42.42395029299291" lon="-8.71926975833911"><ele>20.599999999999998</ele><time>2026-04-05T17:20:10Z</time></trkpt><trkpt lat="42.423896650769905" lon="-8.719147904028814"><ele>19.799999999999997</ele><time>2026-04-05T17:20:11Z</time></trkpt><trkpt lat="42.42384072308851" lon="-8.719022615284224"><ele>19.0</ele><time>2026-04-05T17:20:12Z</time></trkpt><trkpt lat="42.4237880874315" lon="-8.718884256747431"><ele>16.25</ele><time>2026-04-05T17:20:13Z</time></trkpt><trkpt lat="42.42372463029665" lon="-8.718747977300053"><ele>13.5</ele><time>2026-04-05T17:20:14Z</time></trkpt><trkpt lat="42.4236592708478" lon="-8.718610920720083"><ele>10.75</ele><time>2026-04-05T17:20:15Z</time></trkpt><trkpt lat="42.42359778317324" lon="-8.718470224396011"><ele>8.0</ele><time>2026-04-05T17:20:16Z</time></trkpt><trkpt lat="42.42353367358365" lon="-8.718336827038746"><ele>8.0</ele><time>2026-04-05T17:20:17Z</time></trkpt><trkpt lat="42.42346674583595" lon="-8.718194358054754"><ele>8.0</ele><time>2026-04-05T17:20:18Z</time></trkpt><trkpt lat="42.423405710310504" lon="-8.718051664518745"><ele>8.0</ele><time>2026-04-05T17:20:19Z</time></trkpt><trkpt lat="42.42334326804146" lon="-8.71792029580772"><ele>8.0</ele><time>2026-04-05T17:20:20Z</time></trkpt><trkpt lat="42.42327512211656" lon="-8.71780598900289"><ele>9.600000000000001</ele><time>2026-04-05T17:20:21Z</time></trkpt><trkpt lat="42.42322989786148" lon="-8.717677189842856"><ele>11.200000000000001</ele><time>2026-04-05T17:20:22Z</time></trkpt><trkpt lat="42.42317351348303" lon="-8.717561602318318"><ele>12.8</ele><time>2026-04-05T17:20:23Z</time></trkpt><trkpt lat="42.42311722652952" lon="-8.717445029748422"><ele>14.4</ele><time>2026-04-05T17:20:24Z</time></trkpt><trkpt lat="42.42306099777994" lon="-8.717329143171103"><ele>16.0</ele><time>2026-04-05T17:20:25Z</time></trkpt><trkpt lat="42.42300393548521" lon="-8.717210679773633"><ele>14.600000000000001</ele><time>2026-04-05T17:20:26Z</time></trkpt><trkpt lat="42.422944996569555" lon="-8.717089327035882"><ele>13.200000000000001</ele><time>2026-04-05T17:20:27Z</time></trkpt><trkpt lat="42.422886533207645" lon="-8.716964587186297"><ele>11.8</ele><time>2026-04-05T17:20:28Z</time></trkpt><trkpt lat="42.42283239530116" lon="-8.71683926256723"><ele>10.4</ele><time>2026-04-05T17:20:29Z</time></trkpt><trkpt lat="42.42277109372898" lon="-8.716712237602824"><ele>9.0</ele><time>2026-04-05T17:20:30Z</time></trkpt><trkpt lat="42.42272253999637" lon="-8.716577326056358"><ele>9.0</ele><time>2026-04-05T17:20:31Z</time></trkpt><trkpt lat="42.42267572486759" lon="-8.7164313340227"><ele>9.0</ele><time>2026-04-05T17:20:32Z</time></trkpt><trkpt lat="42.422633149024435" lon="-8.716274052376269"><ele>9.0</ele><time>2026-04-05T17:20:33Z</time></trkpt><trkpt lat="42.422631353091745" lon="-8.716095672197392"><ele>9.0</ele><time>2026-04-05T17:20:34Z</time></trkpt><trkpt lat="42.42263720979702" lon="-8.715903894726763"><ele>9.75</ele><time>2026-04-05T17:20:35Z</time></trkpt><trkpt lat="42.42264377775338" lon="-8.715738995693185"><ele>10.5</ele><time>2026-04-05T17:20:36Z</time></trkpt><trkpt lat="42.42266251195404" lon="-8.715566275533147"><ele>11.25</ele><time>2026-04-05T17:20:37Z</time></trkpt><trkpt lat="42.42265934039444" lon="-8.715386188557634"><ele>12.0</ele><time>2026-04-05T17:20:38Z</time></trkpt><trkpt lat="42.42266745217572" lon="-8.715209085708931"><ele>12.25</ele><time>2026-04-05T17:20:39Z</time></trkpt><trkpt lat="42.422675525719136" lon="-8.715032817613475"><ele>12.5</ele><time>2026-04-05T17:20:40Z</time></trkpt><trkpt lat="42.422683488010165" lon="-8.714858978450726"><ele>12.75</ele><time>2026-04-05T17:20:41Z</time></trkpt><trkpt lat="42.422694230934084" lon="-8.714683851951385"><ele>13.0</ele><time>2026-04-05T17:20:42Z</time></trkpt><trkpt lat="42.42270650458626" lon="-8.71451015431486"><ele>12.75</ele><time>2026-04-05T17:20:43Z</time></trkpt><trkpt lat="42.42272375139861" lon="-8.714341078895105"><ele>12.5</ele><time>2026-04-05T17:20:44Z</time></trkpt><trkpt lat="42.422752003093" lon="-8.71417263389929"><ele>12.25</ele><time>2026-04-05T17:20:45Z</time></trkpt><trkpt lat="42.4227921424585" lon="-8.71401478255164"><ele>12.0</ele><time>2026-04-05T17:20:46Z</time></trkpt><trkpt lat="42.4228384642902" lon="-8.71386263618765"><ele>12.0</ele><time>2026-04-05T17:20:47Z</time></trkpt><trkpt lat="42.42289179511807" lon="-8.713722710716425"><ele>12.0</ele><time>2026-04-05T17:20:48Z</time></trkpt><trkpt lat="42.42295028067236" lon="-8.713589351781241"><ele>12.0</ele><time>2026-04-05T17:20:49Z</time></trkpt><trkpt lat="42.42302729873007" lon="-8.713473163624936"><ele>12.0</ele><time>2026-04-05T17:20:50Z</time></trkpt><trkpt lat="42.423092830644826" lon="-8.713355863061265"><ele>13.399999999999999</ele><time>2026-04-05T17:20:51Z</time></trkpt><trkpt lat="42.4231567093966" lon="-8.713236441909954"><ele>14.799999999999999</ele><time>2026-04-05T17:20:52Z</time></trkpt><trkpt lat="42.42322044610479" lon="-8.713119396846722"><ele>16.2</ele><time>2026-04-05T17:20:53Z</time></trkpt><trkpt lat="42.423287367530094" lon="-8.71299452588751"><ele>17.599999999999998</ele><time>2026-04-05T17:20:54Z</time></trkpt><trkpt lat="42.423353353955996" lon="-8.71287019158384"><ele>19.0</ele><time>2026-04-05T17:20:55Z</time></trkpt><trkpt lat="42.42342640543281" lon="-8.712743835013056"><ele>17.5</ele><time>2026-04-05T17:20:56Z</time></trkpt><trkpt lat="42.42350246681305" lon="-8.712612541790033"><ele>16.0</ele><time>2026-04-05T17:20:57Z</time></trkpt><trkpt lat="42.42357916994362" lon="-8.712478251554073"><ele>14.5</ele><time>2026-04-05T17:20:58Z</time></trkpt><trkpt lat="42.423657455676796" lon="-8.712344335969865"><ele>13.0</ele><time>2026-04-05T17:20:59Z</time></trkpt><trkpt lat="42.42373663891212" lon="-8.712207423277547"><ele>14.5</ele><time>2026-04-05T17:21:00Z</time></trkpt><trkpt lat="42.42381440034136" lon="-8.712067045799428"><ele>16.0</ele><time>2026-04-05T17:21:01Z</time></trkpt><trkpt lat="42.423896837795894" lon="-8.711923666092698"><ele>17.5</ele><time>2026-04-05T17:21:02Z</time></trkpt><trkpt lat="42.42397149363139" lon="-8.711789907185684"><ele>19.0</ele><time>2026-04-05T17:21:03Z</time></trkpt><trkpt lat="42.42404586369458" lon="-8.711661461804898"><ele>19.0</ele><time>2026-04-05T17:21:04Z</time></trkpt><trkpt lat="42.4241162533557" lon="-8.71153771583654"><ele>19.0</ele><time>2026-04-05T17:21:05Z</time></trkpt><trkpt lat="42.42418631080239" lon="-8.711419757169358"><ele>19.0</ele><time>2026-04-05T17:21:06Z</time></trkpt><trkpt lat="42.42425396834125" lon="-8.71130222372533"><ele>19.0</ele><time>2026-04-05T17:21:07Z</time></trkpt><trkpt lat="42.424319237114545" lon="-8.71118219685561"><ele>19.0</ele><time>2026-04-05T17:21:08Z</time></trkpt><trkpt lat="42.424385325418626" lon="-8.711063559488212"><ele>19.6</ele><time>2026-04-05T17:21:09Z</time></trkpt><trkpt lat="42.42445137196921" lon="-8.710943376365707"><ele>20.2</ele><time>2026-04-05T17:21:10Z</time></trkpt><trkpt lat="42.42451977642523" lon="-8.710821524867198"><ele>20.8</ele><time>2026-04-05T17:21:11Z</time></trkpt><trkpt lat="42.424588950448396" lon="-8.710702704060232"><ele>21.400000000000002</ele><time>2026-04-05T17:21:12Z</time></trkpt><trkpt lat="42.42466014091394" lon="-8.710587685924617"><ele>22.0</ele><time>2026-04-05T17:21:13Z</time></trkpt><trkpt lat="42.42473399880554" lon="-8.710482869659414"><ele>22.0</ele><time>2026-04-05T17:21:14Z</time></trkpt><trkpt lat="42.42479946080405" lon="-8.710368601745376"><ele>22.0</ele><time>2026-04-05T17:21:15Z</time></trkpt><trkpt lat="42.42488495830576" lon="-8.71026901369771"><ele>22.0</ele><time>2026-04-05T17:21:16Z</time></trkpt><trkpt lat="42.42497360418623" lon="-8.710177138675707"><ele>22.0</ele><time>2026-04-05T17:21:17Z</time></trkpt><trkpt lat="42.42507607617201" lon="-8.710109407948144"><ele>22.0</ele><time>2026-04-05T17:21:18Z</time></trkpt><trkpt lat="42.42516933165882" lon="-8.710023751234"><ele>21.75</ele><time>2026-04-05T17:21:19Z</time></trkpt><trkpt lat="42.42526515298443" lon="-8.709937379632523"><ele>21.5</ele><time>2026-04-05T17:21:20Z</time></trkpt><trkpt lat="42.42536188624349" lon="-8.709850895106229"><ele>21.25</ele><time>2026-04-05T17:21:21Z</time></trkpt><trkpt lat="42.425457345810486" lon="-8.709765472643058"><ele>21.0</ele><time>2026-04-05T17:21:22Z</time></trkpt><trkpt lat="42.425552528359" lon="-8.709682984111447"><ele>21.0</ele><time>2026-04-05T17:21:23Z</time></trkpt><trkpt lat="42.425647202901665" lon="-8.709601824554333"><ele>21.0</ele><time>2026-04-05T17:21:24Z</time></trkpt><trkpt lat="42.42573432679006" lon="-8.709499562857546"><ele>21.0</ele><time>2026-04-05T17:21:25Z</time></trkpt><trkpt lat="42.42582621177137" lon="-8.709418824593579"><ele>21.0</ele><time>2026-04-05T17:21:26Z</time></trkpt><trkpt lat="42.425915892175574" lon="-8.709340446561843"><ele>21.0</ele><time>2026-04-05T17:21:27Z</time></trkpt><trkpt lat="42.4260100265797" lon="-8.709258175703447"><ele>21.8</ele><time>2026-04-05T17:21:28Z</time></trkpt><trkpt lat="42.42610459783091" lon="-8.709175852449606"><ele>22.6</ele><time>2026-04-05T17:21:29Z</time></trkpt><trkpt lat="42.42619328202544" lon="-8.709099643329731"><ele>23.4</ele><time>2026-04-05T17:21:30Z</time></trkpt><trkpt lat="42.426281184690275" lon="-8.709025065874307"><ele>24.2</ele><time>2026-04-05T17:21:31Z</time></trkpt><trkpt lat="42.42637055362525" lon="-8.708949817822592"><ele>25.0</ele><time>2026-04-05T17:21:32Z</time></trkpt><trkpt lat="42.42646151745235" lon="-8.708876506654665"><ele>25.0</ele><time>2026-04-05T17:21:33Z</time></trkpt><trkpt lat="42.426554253833814" lon="-8.708804809475277"><ele>25.0</ele><time>2026-04-05T17:21:34Z</time></trkpt><trkpt lat="42.42664483841403" lon="-8.708740032674406"><ele>25.0</ele><time>2026-04-05T17:21:35Z</time></trkpt><trkpt lat="42.426740174564436" lon="-8.70870204067847"><ele>25.0</ele><time>2026-04-05T17:21:36Z</time></trkpt><trkpt lat="42.42682685805919" lon="-8.70864678461871"><ele>25.0</ele><time>2026-04-05T17:21:37Z</time></trkpt><trkpt lat="42.42691514779567" lon="-8.708594692249912"><ele>22.833333333333336</ele><time>2026-04-05T17:21:38Z</time></trkpt><trkpt lat="42.426999999195004" lon="-8.708539992392302"><ele>20.666666666666668</ele><time>2026-04-05T17:21:39Z</time></trkpt><trkpt lat="42.42708905022517" lon="-8.708500979665557"><ele>18.5</ele><time>2026-04-05T17:21:40Z</time></trkpt><trkpt lat="42.42717310238027" lon="-8.708460637352546"><ele>16.333333333333336</ele><time>2026-04-05T17:21:41Z</time></trkpt><trkpt lat="42.42724901178671" lon="-8.70841703902917"><ele>14.166666666666668</ele><time>2026-04-05T17:21:42Z</time></trkpt><trkpt lat="42.4273244083394" lon="-8.70837750571795"><ele>12.0</ele><time>2026-04-05T17:21:43Z</time></trkpt><trkpt lat="42.42740562649638" lon="-8.708337331428668"><ele>12.0</ele><time>2026-04-05T17:21:44Z</time></trkpt><trkpt lat="42.427491466642046" lon="-8.708301571903892"><ele>12.0</ele><time>2026-04-05T17:21:45Z</time></trkpt><trkpt lat="42.42758603489168" lon="-8.708258989109781"><ele>12.0</ele><time>2026-04-05T17:21:46Z</time></trkpt><trkpt lat="42.427683480127975" lon="-8.708212047380616"><ele>12.0</ele><time>2026-04-05T17:21:47Z</time></trkpt><trkpt lat="42.4277869604516" lon="-8.708162973235659"><ele>12.0</ele><time>2026-04-05T17:21:48Z</time></trkpt><trkpt lat="42.42789019727549" lon="-8.708104382134891"><ele>13.0</ele><time>2026-04-05T17:21:49Z</time></trkpt><trkpt lat="42.427985000684764" lon="-8.708046161971446"><ele>14.0</ele><time>2026-04-05T17:21:50Z</time></trkpt><trkpt lat="42.42807203462823" lon="-8.70799512223962"><ele>15.0</ele><time>2026-04-05T17:21:51Z</time></trkpt><trkpt lat="42.42814188177769" lon="-8.707922018893555"><ele>16.0</ele><time>2026-04-05T17:21:52Z</time></trkpt><trkpt lat="42.428224584590446" lon="-8.707861346286812"><ele>17.0</ele><time>2026-04-05T17:21:53Z</time></trkpt><trkpt lat="42.42830176003588" lon="-8.707795277956203"><ele>15.2</ele><time>2026-04-05T17:21:54Z</time></trkpt><trkpt lat="42.42838022394799" lon="-8.707729238904484"><ele>13.399999999999999</ele><time>2026-04-05T17:21:55Z</time></trkpt><trkpt lat="42.428468185065434" lon="-8.707655523085705"><ele>11.600000000000001</ele><time>2026-04-05T17:21:56Z</time></trkpt><trkpt lat="42.42855990146082" lon="-8.707578319547052"><ele>9.8</ele><time>2026-04-05T17:21:57Z</time></trkpt><trkpt lat="42.428653310417104" lon="-8.707497270999944"><ele>8.0</ele><time>2026-04-05T17:21:58Z</time></trkpt><trkpt lat="42.42874655203043" lon="-8.70741706743206"><ele>10.8</ele><time>2026-04-05T17:21:59Z</time></trkpt><trkpt lat="42.42883269140784" lon="-8.707343843896362"><ele>13.600000000000001</ele><time>2026-04-05T17:22:00Z</time></trkpt><trkpt lat="42.4289139128573" lon="-8.707275432872358"><ele>16.400000000000002</ele><time>2026-04-05T17:22:01Z</time></trkpt><trkpt lat="42.428996026535565" lon="-8.707206270343269"><ele>19.200000000000003</ele><time>2026-04-05T17:22:02Z</time></trkpt><trkpt lat="42.42907998944794" lon="-8.707135550222546"><ele>22.0</ele><time>2026-04-05T17:22:03Z</time></trkpt><trkpt lat="42.42916014881392" lon="-8.707068033796935"><ele>22.0</ele><time>2026-04-05T17:22:04Z</time></trkpt><trkpt lat="42.42923925958948" lon="-8.707000911026805"><ele>22.0</ele><time>2026-04-05T17:22:05Z</time></trkpt><trkpt lat="42.42931845439668" lon="-8.706933140628749"><ele>22.0</ele><time>2026-04-05T17:22:06Z</time></trkpt><trkpt lat="42.429401253381826" lon="-8.70686325282258"><ele>22.0</ele><time>2026-04-05T17:22:07Z</time></trkpt><trkpt lat="42.42948510241648" lon="-8.706792478735384"><ele>22.0</ele><time>2026-04-05T17:22:08Z</time></trkpt><trkpt lat="42.429567428500086" lon="-8.706722990124872"><ele>21.833333333333332</ele><time>2026-04-05T17:22:09Z</time></trkpt><trkpt lat="42.429648811643446" lon="-8.70665429740286"><ele>21.666666666666664</ele><time>2026-04-05T17:22:10Z</time></trkpt><trkpt lat="42.42972408942558" lon="-8.70659075800823"><ele>21.5</ele><time>2026-04-05T17:22:11Z</time></trkpt><trkpt lat="42.42979804110497" lon="-8.706529369558323"><ele>21.333333333333332</ele><time>2026-04-05T17:22:12Z</time></trkpt><trkpt lat="42.42986894936069" lon="-8.706473038077576"><ele>21.166666666666668</ele><time>2026-04-05T17:22:13Z</time></trkpt><trkpt lat="42.42994236255056" lon="-8.706423932751102"><ele>21.0</ele><time>2026-04-05T17:22:14Z</time></trkpt><trkpt lat="42.430015983909136" lon="-8.706380256685476"><ele>21.0</ele><time>2026-04-05T17:22:15Z</time></trkpt><trkpt lat="42.43009743088757" lon="-8.706349557256203"><ele>21.0</ele><time>2026-04-05T17:22:16Z</time></trkpt><trkpt lat="42.43018401578995" lon="-8.706342884819184"><ele>21.0</ele><time>2026-04-05T17:22:17Z</time></trkpt><trkpt lat="42.430258436436134" lon="-8.70637866180449"><ele>21.0</ele><time>2026-04-05T17:22:18Z</time></trkpt><trkpt lat="42.430328947565904" lon="-8.70640002000811"><ele>21.0</ele><time>2026-04-05T17:22:19Z</time></trkpt><trkpt lat="42.43039738473813" lon="-8.706438352502536"><ele>21.0</ele><time>2026-04-05T17:22:20Z</time></trkpt><trkpt lat="42.430461843855944" lon="-8.70649340952184"><ele>21.833333333333332</ele><time>2026-04-05T17:22:21Z</time></trkpt><trkpt lat="42.430526589527375" lon="-8.706559245184073"><ele>22.666666666666664</ele><time>2026-04-05T17:22:22Z</time></trkpt><trkpt lat="42.430589993515" lon="-8.706637549868109"><ele>23.5</ele><time>2026-04-05T17:22:23Z</time></trkpt><trkpt lat="42.43065580080993" lon="-8.706721220311001"><ele>24.333333333333332</ele><time>2026-04-05T17:22:24Z</time></trkpt><trkpt lat="42.43071694759903" lon="-8.706807211961609"><ele>25.166666666666664</ele><time>2026-04-05T17:22:25Z</time></trkpt><trkpt lat="42.430775810535636" lon="-8.7068948650675"><ele>26.0</ele><time>2026-04-05T17:22:26Z</time></trkpt><trkpt lat="42.43083333322847" lon="-8.70697349892628"><ele>25.999999999999996</ele><time>2026-04-05T17:22:27Z</time></trkpt><trkpt lat="42.43089215818188" lon="-8.707049185947115"><ele>26.0</ele><time>2026-04-05T17:22:28Z</time></trkpt><trkpt lat="42.4309459686522" lon="-8.707122334108414"><ele>26.0</ele><time>2026-04-05T17:22:29Z</time></trkpt><trkpt lat="42.430993949901556" lon="-8.707195168770355"><ele>26.0</ele><time>2026-04-05T17:22:30Z</time></trkpt><trkpt lat="42.43103869616343" lon="-8.70725671685412"><ele>25.999999999999996</ele><time>2026-04-05T17:22:31Z</time></trkpt><trkpt lat="42.43112603696402" lon="-8.707366476489554"><ele>26.0</ele><time>2026-04-05T17:22:33Z</time></trkpt><trkpt lat="42.43119871272837" lon="-8.707439490623518"><ele>25.999999999999996</ele><time>2026-04-05T17:22:35Z</time></trkpt><trkpt lat="42.43125772102699" lon="-8.70748281040653"><ele>26.0</ele><time>2026-04-05T17:22:42Z</time></trkpt><trkpt lat="42.4313352817728" lon="-8.707531139956552"><ele>26.0</ele><time>2026-04-05T17:22:45Z</time></trkpt><trkpt lat="42.43139857693276" lon="-8.707566924392118"><ele>26.0</ele><time>2026-04-05T17:22:47Z</time></trkpt><trkpt lat="42.43147484688496" lon="-8.707589309671645"><ele>25.999999999999996</ele><time>2026-04-05T17:22:50Z</time></trkpt><trkpt lat="42.43153807371234" lon="-8.707596689092306"><ele>26.0</ele><time>2026-04-05T17:23:05Z</time></trkpt><trkpt lat="42.43162639704156" lon="-8.70759184849669"><ele>24.2</ele><time>2026-04-05T17:23:07Z</time></trkpt><trkpt lat="42.43175622595778" lon="-8.707563167292133"><ele>22.400000000000002</ele><time>2026-04-05T17:23:09Z</time></trkpt><trkpt lat="42.43181642184323" lon="-8.707527853787365"><ele>20.6</ele><time>2026-04-05T17:23:10Z</time></trkpt><trkpt lat="42.431915314213605" lon="-8.707477548012529"><ele>18.8</ele><time>2026-04-05T17:23:12Z</time></trkpt><trkpt lat="42.43198474362532" lon="-8.707407943408326"><ele>17.0</ele><time>2026-04-05T17:23:14Z</time></trkpt><trkpt lat="42.432088128348" lon="-8.707340032669402"><ele>16.833333333333336</ele><time>2026-04-05T17:23:16Z</time></trkpt><trkpt lat="42.43214819224145" lon="-8.70730026369919"><ele>16.666666666666668</ele><time>2026-04-05T17:23:17Z</time></trkpt><trkpt lat="42.43220780024292" lon="-8.70726037310188"><ele>16.5</ele><time>2026-04-05T17:23:18Z</time></trkpt><trkpt lat="42.43230615502502" lon="-8.7071939432969"><ele>16.333333333333332</ele><time>2026-04-05T17:23:20Z</time></trkpt><trkpt lat="42.43236913375153" lon="-8.70715084232858"><ele>16.166666666666664</ele><time>2026-04-05T17:23:22Z</time></trkpt><trkpt lat="42.43244367014029" lon="-8.70709956993554"><ele>16.0</ele><time>2026-04-05T17:23:38Z</time></trkpt><trkpt lat="42.43251804247261" lon="-8.7070483264327"><ele>16.0</ele><time>2026-04-05T17:23:40Z</time></trkpt><trkpt lat="42.43259358181763" lon="-8.706996278857359"><ele>16.0</ele><time>2026-04-05T17:23:42Z</time></trkpt><trkpt lat="42.43267973591738" lon="-8.706936917551252"><ele>16.0</ele><time>2026-04-05T17:23:44Z</time></trkpt><trkpt lat="42.43276771968372" lon="-8.706876295599693"><ele>16.0</ele><time>2026-04-05T17:23:46Z</time></trkpt><trkpt lat="42.432875473818605" lon="-8.706802051553868"><ele>16.0</ele><time>2026-04-05T17:23:48Z</time></trkpt><trkpt lat="42.43293727422216" lon="-8.706759470270315"><ele>15.999999999999998</ele><time>2026-04-05T17:23:49Z</time></trkpt><trkpt lat="42.43300564968033" lon="-8.706712358705852"><ele>16.0</ele><time>2026-04-05T17:23:50Z</time></trkpt><trkpt lat="42.433064773295996" lon="-8.706671864949543"><ele>16.0</ele><time>2026-04-05T17:23:51Z</time></trkpt><trkpt lat="42.43317823332369" lon="-8.706594541276782"><ele>16.0</ele><time>2026-04-05T17:23:53Z</time></trkpt><trkpt lat="42.43323920352035" lon="-8.706552990962653"><ele>15.999999999999998</ele><time>2026-04-05T17:23:54Z</time></trkpt><trkpt lat="42.43330614861489" lon="-8.706508987819255"><ele>16.0</ele><time>2026-04-05T17:23:55Z</time></trkpt><trkpt lat="42.43337956111088" lon="-8.706460163977788"><ele>15.999999999999998</ele><time>2026-04-05T17:23:56Z</time></trkpt><trkpt lat="42.43345956974452" lon="-8.70640695499375"><ele>16.0</ele><time>2026-04-05T17:23:57Z</time></trkpt><trkpt lat="42.433542818117935" lon="-8.706351591424816"><ele>16.0</ele><time>2026-04-05T17:23:58Z</time></trkpt><trkpt lat="42.43362686539423" lon="-8.706295696561467"><ele>16.0</ele><time>2026-04-05T17:23:59Z</time></trkpt><trkpt lat="42.43369161649883" lon="-8.70625263450441"><ele>15.999999999999998</ele><time>2026-04-05T17:24:00Z</time></trkpt><trkpt lat="42.43375440069379" lon="-8.706210364159224"><ele>16.0</ele><time>2026-04-05T17:24:03Z</time></trkpt><trkpt lat="42.43384812256112" lon="-8.70614715081113"><ele>15.4</ele><time>2026-04-05T17:24:06.001Z</time></trkpt><trkpt lat="42.43395291600295" lon="-8.706076419057915"><ele>14.8</ele><time>2026-04-05T17:24:08.001Z</time></trkpt><trkpt lat="42.43401711316245" lon="-8.706032844127826"><ele>14.200000000000001</ele><time>2026-04-05T17:24:09.001Z</time></trkpt><trkpt lat="42.434089972321686" lon="-8.70598169074984"><ele>13.600000000000001</ele><time>2026-04-05T17:24:10.001Z</time></trkpt><trkpt lat="42.434171509621144" lon="-8.705924707874725"><ele>13.0</ele><time>2026-04-05T17:24:11.001Z</time></trkpt><trkpt lat="42.43425709177421" lon="-8.705864898249692"><ele>13.0</ele><time>2026-04-05T17:24:12.001Z</time></trkpt><trkpt lat="42.43434730597604" lon="-8.705800327583619"><ele>13.0</ele><time>2026-04-05T17:24:13.001Z</time></trkpt><trkpt lat="42.434434371832126" lon="-8.705730739572143"><ele>13.0</ele><time>2026-04-05T17:24:14.001Z</time></trkpt><trkpt lat="42.434520032214046" lon="-8.705644352368001"><ele>13.0</ele><time>2026-04-05T17:24:15Z</time></trkpt><trkpt lat="42.43459799051544" lon="-8.705539296189864"><ele>13.0</ele><time>2026-04-05T17:24:16Z</time></trkpt><trkpt lat="42.434671049380064" lon="-8.705416284882801"><ele>12.75</ele><time>2026-04-05T17:24:17Z</time></trkpt><trkpt lat="42.43474175139562" lon="-8.705281272491796"><ele>12.5</ele><time>2026-04-05T17:24:18Z</time></trkpt><trkpt lat="42.43480145122008" lon="-8.705138973218046"><ele>12.25</ele><time>2026-04-05T17:24:19Z</time></trkpt><trkpt lat="42.43484597228033" lon="-8.704985522018461"><ele>12.0</ele><time>2026-04-05T17:24:20Z</time></trkpt><trkpt lat="42.434878991560815" lon="-8.704823917535796"><ele>12.0</ele><time>2026-04-05T17:24:21Z</time></trkpt><trkpt lat="42.43490746798377" lon="-8.704667419383254"><ele>12.0</ele><time>2026-04-05T17:24:22Z</time></trkpt><trkpt lat="42.43493560840151" lon="-8.704527041918498"><ele>12.0</ele><time>2026-04-05T17:24:23Z</time></trkpt><trkpt lat="42.434959786851785" lon="-8.704381231045573"><ele>12.0</ele><time>2026-04-05T17:24:24Z</time></trkpt><trkpt lat="42.43497868184611" lon="-8.704245143225654"><ele>12.0</ele><time>2026-04-05T17:24:25Z</time></trkpt><trkpt lat="42.435001965775285" lon="-8.704105713275974"><ele>11.4</ele><time>2026-04-05T17:24:26Z</time></trkpt><trkpt lat="42.43502552604277" lon="-8.703971782919423"><ele>10.799999999999999</ele><time>2026-04-05T17:24:27Z</time></trkpt><trkpt lat="42.43504566985156" lon="-8.703847629391513"><ele>10.2</ele><time>2026-04-05T17:24:28Z</time></trkpt><trkpt lat="42.435062511890536" lon="-8.70372507199378"><ele>9.6</ele><time>2026-04-05T17:24:29Z</time></trkpt><trkpt lat="42.435078428906415" lon="-8.703599247028414"><ele>9.0</ele><time>2026-04-05T17:24:30Z</time></trkpt><trkpt lat="42.4350953431848" lon="-8.703478234824598"><ele>8.5</ele><time>2026-04-05T17:24:31Z</time></trkpt><trkpt lat="42.435109330759296" lon="-8.703363783045367"><ele>8.0</ele><time>2026-04-05T17:24:32Z</time></trkpt><trkpt lat="42.43511698569417" lon="-8.70325636897639"><ele>7.5</ele><time>2026-04-05T17:24:33Z</time></trkpt><trkpt lat="42.435115589496284" lon="-8.70315160335102"><ele>7.0</ele><time>2026-04-05T17:24:34Z</time></trkpt><trkpt lat="42.43510743349811" lon="-8.703047906265844"><ele>6.5</ele><time>2026-04-05T17:24:35Z</time></trkpt><trkpt lat="42.43513493150283" lon="-8.702926734482446"><ele>6.0</ele><time>2026-04-05T17:24:36Z</time></trkpt><trkpt lat="42.4351904708521" lon="-8.702804728004569"><ele>6.0</ele><time>2026-04-05T17:24:37Z</time></trkpt><trkpt lat="42.435243436911506" lon="-8.702672817913497"><ele>6.0</ele><time>2026-04-05T17:24:38Z</time></trkpt><trkpt lat="42.43528505135131" lon="-8.702520696955785"><ele>6.0</ele><time>2026-04-05T17:24:39Z</time></trkpt><trkpt lat="42.43530989693982" lon="-8.702366948437048"><ele>6.0</ele><time>2026-04-05T17:24:40Z</time></trkpt><trkpt lat="42.43533198655902" lon="-8.702213215971256"><ele>6.0</ele><time>2026-04-05T17:24:41Z</time></trkpt><trkpt lat="42.43535699582477" lon="-8.702038964210335"><ele>6.0</ele><time>2026-04-05T17:24:42Z</time></trkpt><trkpt lat="42.43538203853904" lon="-8.701863405131023"><ele>6.0</ele><time>2026-04-05T17:24:43Z</time></trkpt><trkpt lat="42.43540894559803" lon="-8.70168874612056"><ele>6.0</ele><time>2026-04-05T17:24:44Z</time></trkpt><trkpt lat="42.435438623894065" lon="-8.701508086966822"><ele>5.5</ele><time>2026-04-05T17:24:45Z</time></trkpt><trkpt lat="42.43546888112824" lon="-8.701325962333401"><ele>5.0</ele><time>2026-04-05T17:24:46Z</time></trkpt><trkpt lat="42.435498797538365" lon="-8.701143094961802"><ele>4.5</ele><time>2026-04-05T17:24:47Z</time></trkpt><trkpt lat="42.43553257583909" lon="-8.700960660567503"><ele>4.0</ele><time>2026-04-05T17:24:48Z</time></trkpt><trkpt lat="42.43556413662947" lon="-8.700782596301277"><ele>5.5</ele><time>2026-04-05T17:24:49Z</time></trkpt><trkpt lat="42.4355864967473" lon="-8.70060132151364"><ele>7.0</ele><time>2026-04-05T17:24:50Z</time></trkpt><trkpt lat="42.4356257662554" lon="-8.700428767721844"><ele>8.5</ele><time>2026-04-05T17:24:51Z</time></trkpt><trkpt lat="42.435655527937755" lon="-8.700249052918279"><ele>10.0</ele><time>2026-04-05T17:24:52Z</time></trkpt><trkpt lat="42.435686277948484" lon="-8.7000670129729"><ele>10.0</ele><time>2026-04-05T17:24:53Z</time></trkpt><trkpt lat="42.435717222775686" lon="-8.699888093865585"><ele>10.0</ele><time>2026-04-05T17:24:54Z</time></trkpt><trkpt lat="42.43574699320487" lon="-8.699715617237736"><ele>10.0</ele><time>2026-04-05T17:24:55Z</time></trkpt><trkpt lat="42.435775310762665" lon="-8.699546049481098"><ele>10.0</ele><time>2026-04-05T17:24:56Z</time></trkpt><trkpt lat="42.43579859289075" lon="-8.699375309609321"><ele>9.75</ele><time>2026-04-05T17:24:57Z</time></trkpt><trkpt lat="42.435820553838255" lon="-8.69920469010543"><ele>9.5</ele><time>2026-04-05T17:24:58Z</time></trkpt><trkpt lat="42.43584502081868" lon="-8.699034417890834"><ele>9.25</ele><time>2026-04-05T17:24:59Z</time></trkpt><trkpt lat="42.43587181323802" lon="-8.698864271783878"><ele>9.0</ele><time>2026-04-05T17:25:00Z</time></trkpt><trkpt lat="42.43590244165823" lon="-8.698696870292883"><ele>8.0</ele><time>2026-04-05T17:25:01Z</time></trkpt><trkpt lat="42.43593788907584" lon="-8.698527487002346"><ele>7.0</ele><time>2026-04-05T17:25:02Z</time></trkpt><trkpt lat="42.435978797427026" lon="-8.69835809562694"><ele>6.0</ele><time>2026-04-05T17:25:03Z</time></trkpt><trkpt lat="42.43602874434959" lon="-8.698189970251695"><ele>5.0</ele><time>2026-04-05T17:25:04Z</time></trkpt><trkpt lat="42.43609087861427" lon="-8.698028440110493"><ele>5.0</ele><time>2026-04-05T17:25:05Z</time></trkpt><trkpt lat="42.436163646414094" lon="-8.69787372391459"><ele>5.0</ele><time>2026-04-05T17:25:06Z</time></trkpt><trkpt lat="42.43624605418051" lon="-8.697726120804735"><ele>5.0</ele><time>2026-04-05T17:25:07Z</time></trkpt><trkpt lat="42.43632503110555" lon="-8.697574975620137"><ele>5.0</ele><time>2026-04-05T17:25:08Z</time></trkpt><trkpt lat="42.43642657659089" lon="-8.697446806976835"><ele>6.75</ele><time>2026-04-05T17:25:09Z</time></trkpt><trkpt lat="42.43653066893841" lon="-8.69731969872036"><ele>8.5</ele><time>2026-04-05T17:25:10Z</time></trkpt><trkpt lat="42.436635350994194" lon="-8.697192292240052"><ele>10.25</ele><time>2026-04-05T17:25:11Z</time></trkpt><trkpt lat="42.4367405104659" lon="-8.69708995729308"><ele>12.0</ele><time>2026-04-05T17:25:12Z</time></trkpt><trkpt lat="42.43682079489369" lon="-8.69695334035476"><ele>12.75</ele><time>2026-04-05T17:25:13Z</time></trkpt><trkpt lat="42.43691480136762" lon="-8.696835428692081"><ele>13.5</ele><time>2026-04-05T17:25:14Z</time></trkpt><trkpt lat="42.43701009369302" lon="-8.69671700871557"><ele>14.25</ele><time>2026-04-05T17:25:15Z</time></trkpt><trkpt lat="42.43710298206591" lon="-8.696603861120128"><ele>15.0</ele><time>2026-04-05T17:25:16Z</time></trkpt><trkpt lat="42.43719342498467" lon="-8.696493148623942"><ele>15.0</ele><time>2026-04-05T17:25:17Z</time></trkpt><trkpt lat="42.437281701129386" lon="-8.69638517271866"><ele>15.0</ele><time>2026-04-05T17:25:18Z</time></trkpt><trkpt lat="42.437363588138716" lon="-8.696281516205373"><ele>15.0</ele><time>2026-04-05T17:25:19Z</time></trkpt><trkpt lat="42.43745255496064" lon="-8.69617276591872"><ele>15.0</ele><time>2026-04-05T17:25:20Z</time></trkpt><trkpt lat="42.43753897783178" lon="-8.696063713414869"><ele>14.0</ele><time>2026-04-05T17:25:21Z</time></trkpt><trkpt lat="42.43761347126879" lon="-8.695948832865303"><ele>13.0</ele><time>2026-04-05T17:25:22Z</time></trkpt><trkpt lat="42.437656586057194" lon="-8.69584713503494"><ele>12.0</ele><time>2026-04-05T17:25:23Z</time></trkpt><trkpt lat="42.43769093280182" lon="-8.69565750658444"><ele>11.0</ele><time>2026-04-05T17:25:25Z</time></trkpt><trkpt lat="42.4377099351812" lon="-8.695534115081383"><ele>10.0</ele><time>2026-04-05T17:25:26Z</time></trkpt><trkpt lat="42.43773422471737" lon="-8.695418305235414"><ele>10.0</ele><time>2026-04-05T17:25:27Z</time></trkpt><trkpt lat="42.43777277765482" lon="-8.695295144393954"><ele>10.0</ele><time>2026-04-05T17:25:28Z</time></trkpt><trkpt lat="42.437811584970184" lon="-8.695170770643355"><ele>10.0</ele><time>2026-04-05T17:25:29Z</time></trkpt><trkpt lat="42.43784743899578" lon="-8.695052930357136"><ele>10.0</ele><time>2026-04-05T17:25:30Z</time></trkpt><trkpt lat="42.43787964352094" lon="-8.694947653651719"><ele>10.0</ele><time>2026-04-05T17:25:31Z</time></trkpt><trkpt lat="42.43791038896441" lon="-8.694843397373685"><ele>10.0</ele><time>2026-04-05T17:25:32Z</time></trkpt><trkpt lat="42.43793874966552" lon="-8.694747405713732"><ele>10.0</ele><time>2026-04-05T17:25:33Z</time></trkpt><trkpt lat="42.43796425624874" lon="-8.694657210023257"><ele>10.0</ele><time>2026-04-05T17:25:34Z</time></trkpt><trkpt lat="42.43801307872388" lon="-8.694513362945395"><ele>10.0</ele><time>2026-04-05T17:25:36Z</time></trkpt><trkpt lat="42.437961884132385" lon="-8.694402540509817"><ele>10.0</ele><time>2026-04-05T17:25:38Z</time></trkpt><trkpt lat="42.43793851663474" lon="-8.694237997568756"><ele>9.166666666666668</ele><time>2026-04-05T17:25:40Z</time></trkpt><trkpt lat="42.43799142709176" lon="-8.694166138813017"><ele>8.333333333333334</ele><time>2026-04-05T17:25:41Z</time></trkpt><trkpt lat="42.438013156215696" lon="-8.69406305177806"><ele>7.5</ele><time>2026-04-05T17:25:42Z</time></trkpt><trkpt lat="42.43804823269092" lon="-8.693963766478289"><ele>6.666666666666667</ele><time>2026-04-05T17:25:43Z</time></trkpt><trkpt lat="42.43808191928325" lon="-8.693859365680877"><ele>5.833333333333334</ele><time>2026-04-05T17:25:44Z</time></trkpt><trkpt lat="42.438130066663646" lon="-8.69376056396293"><ele>5.0</ele><time>2026-04-05T17:25:45Z</time></trkpt><trkpt lat="42.43815816756202" lon="-8.693651147533792"><ele>4.833333333333334</ele><time>2026-04-05T17:25:46Z</time></trkpt><trkpt lat="42.43816347740986" lon="-8.69354604550661"><ele>4.666666666666667</ele><time>2026-04-05T17:25:47Z</time></trkpt><trkpt lat="42.43817947231599" lon="-8.693450154336173"><ele>4.5</ele><time>2026-04-05T17:25:48Z</time></trkpt><trkpt lat="42.43819062660575" lon="-8.693361354915265"><ele>4.333333333333333</ele><time>2026-04-05T17:25:49Z</time></trkpt><trkpt lat="42.43820107605171" lon="-8.693204649492177"><ele>4.166666666666666</ele><time>2026-04-05T17:25:51Z</time></trkpt><trkpt lat="42.438202888787764" lon="-8.693085552284389"><ele>4.0</ele><time>2026-04-05T17:25:53Z</time></trkpt><trkpt lat="42.438218906248615" lon="-8.692955896428884"><ele>4.0</ele><time>2026-04-05T17:25:55Z</time></trkpt><trkpt lat="42.43824386249973" lon="-8.692807951731858"><ele>4.0</ele><time>2026-04-05T17:25:57Z</time></trkpt><trkpt lat="42.43831788220404" lon="-8.692690235044331"><ele>4.0</ele><time>2026-04-05T17:25:59Z</time></trkpt><trkpt lat="42.43838913718253" lon="-8.692576962483292"><ele>4.0</ele><time>2026-04-05T17:26:01Z</time></trkpt><trkpt lat="42.4384651818717" lon="-8.692459116924411"><ele>4.0</ele><time>2026-04-05T17:26:03Z</time></trkpt><trkpt lat="42.43854890149104" lon="-8.692326217089407"><ele>4.0</ele><time>2026-04-05T17:26:05Z</time></trkpt><trkpt lat="42.43859487623767" lon="-8.692256971752055"><ele>4.0</ele><time>2026-04-05T17:26:06Z</time></trkpt><trkpt lat="42.438633440560665" lon="-8.692181268635506"><ele>4.0</ele><time>2026-04-05T17:26:07Z</time></trkpt><trkpt lat="42.438711693236336" lon="-8.692055746136619"><ele>4.0</ele><time>2026-04-05T17:26:09Z</time></trkpt><trkpt lat="42.43877652013228" lon="-8.691969399966013"><ele>4.0</ele><time>2026-04-05T17:26:11.001Z</time></trkpt><trkpt lat="42.438810741463186" lon="-8.691885699287784"><ele>4.0</ele><time>2026-04-05T17:26:15.001Z</time></trkpt><trkpt lat="42.43871501441118" lon="-8.691822318749725"><ele>4.0</ele><time>2026-04-05T17:26:18Z</time></trkpt><trkpt lat="42.43865392056559" lon="-8.691749163883062"><ele>4.0</ele><time>2026-04-05T17:26:20Z</time></trkpt><trkpt lat="42.43858435626918" lon="-8.691666039990633"><ele>4.0</ele><time>2026-04-05T17:26:22Z</time></trkpt><trkpt lat="42.43851937605774" lon="-8.691564053769765"><ele>2.0</ele><time>2026-04-05T17:26:24Z</time></trkpt><trkpt lat="42.43845021231459" lon="-8.691476960030396"><ele>2.0</ele><time>2026-04-05T17:26:26Z</time></trkpt><trkpt lat="42.43839629411636" lon="-8.691413075387567"><ele>2.0</ele><time>2026-04-05T17:26:28Z</time></trkpt><trkpt lat="42.438342605136135" lon="-8.691356636589559"><ele>2.0</ele><time>2026-04-05T17:26:30Z</time></trkpt><trkpt lat="42.43826669063287" lon="-8.691302616252523"><ele>2.0</ele><time>2026-04-05T17:26:33Z</time></trkpt></trkseg><trkseg><trkpt lat="42.438922645563665" lon="-8.692044820644606"><ele>4.0</ele><time>2026-04-05T17:38:23.174Z</time></trkpt><trkpt lat="42.43902226448286" lon="-8.692073235296357"><ele>4.0</ele><time>2026-04-05T17:38:26.998Z</time></trkpt><trkpt lat="42.43896869293396" lon="-8.692128002849088"><ele>4.0</ele><time>2026-04-05T17:39:51.999Z</time></trkpt><trkpt lat="42.43903784058363" lon="-8.692197762423016"><ele>4.0</ele><time>2026-04-05T17:39:54.999Z</time></trkpt><trkpt lat="42.439168126736355" lon="-8.692223983099653"><ele>4.0</ele><time>2026-04-05T17:39:56.999Z</time></trkpt><trkpt lat="42.43924131081745" lon="-8.692211146090854"><ele>3.9999999999999996</ele><time>2026-04-05T17:39:57.999Z</time></trkpt><trkpt lat="42.439307112157955" lon="-8.692136116990246"><ele>4.0</ele><time>2026-04-05T17:39:58.999Z</time></trkpt><trkpt lat="42.43936593438483" lon="-8.692098137937785"><ele>4.0</ele><time>2026-04-05T17:39:59.999Z</time></trkpt><trkpt lat="42.43946087584936" lon="-8.692024837177682"><ele>4.0</ele><time>2026-04-05T17:40:01.999Z</time></trkpt><trkpt lat="42.439536961585304" lon="-8.692132461133244"><ele>3.9999999999999996</ele><time>2026-04-05T17:40:03.999Z</time></trkpt><trkpt lat="42.43958765902256" lon="-8.692202082855097"><ele>4.0</ele><time>2026-04-05T17:40:04.999Z</time></trkpt><trkpt lat="42.43964412737433" lon="-8.692248976995929"><ele>3.6</ele><time>2026-04-05T17:40:05.999Z</time></trkpt><trkpt lat="42.43971535240218" lon="-8.692374792179073"><ele>3.2</ele><time>2026-04-05T17:40:07.999Z</time></trkpt><trkpt lat="42.43976959417064" lon="-8.692444406128388"><ele>2.8000000000000003</ele><time>2026-04-05T17:40:09.999Z</time></trkpt><trkpt lat="42.4398755319341" lon="-8.692346317321867"><ele>2.4000000000000004</ele><time>2026-04-05T17:40:11.999Z</time></trkpt><trkpt lat="42.43991803982083" lon="-8.69226970069878"><ele>2.0</ele><time>2026-04-05T17:40:12.999Z</time></trkpt><trkpt lat="42.439976370753655" lon="-8.69220053401078"><ele>2.0</ele><time>2026-04-05T17:40:13.999Z</time></trkpt><trkpt lat="42.4400154208824" lon="-8.692126060441382"><ele>2.0</ele><time>2026-04-05T17:40:14.999Z</time></trkpt><trkpt lat="42.44007830653616" lon="-8.692020911117845"><ele>2.0</ele><time>2026-04-05T17:40:16.999Z</time></trkpt><trkpt lat="42.44018027177701" lon="-8.692064267908494"><ele>2.0</ele><time>2026-04-05T17:40:19.999Z</time></trkpt><trkpt lat="42.44028666353432" lon="-8.692179183333238"><ele>2.0</ele><time>2026-04-05T17:40:21.999Z</time></trkpt><trkpt lat="42.440343253052" lon="-8.692259522512261"><ele>2.0</ele><time>2026-04-05T17:40:22.999Z</time></trkpt><trkpt lat="42.440410303188486" lon="-8.692307065274987"><ele>2.0</ele><time>2026-04-05T17:40:23.999Z</time></trkpt><trkpt lat="42.440477787249705" lon="-8.692374359966948"><ele>2.0</ele><time>2026-04-05T17:40:25.999Z</time></trkpt><trkpt lat="42.44059466447782" lon="-8.692328267120518"><ele>2.0</ele><time>2026-04-05T17:40:28.999Z</time></trkpt><trkpt lat="42.44066523185318" lon="-8.692251668143744"><ele>2.0</ele><time>2026-04-05T17:40:29.999Z</time></trkpt><trkpt lat="42.440740824780484" lon="-8.692171180125678"><ele>3.0</ele><time>2026-04-05T17:40:30.999Z</time></trkpt><trkpt lat="42.44082349756468" lon="-8.692072403854565"><ele>4.0</ele><time>2026-04-05T17:40:31.999Z</time></trkpt><trkpt lat="42.44090895197531" lon="-8.691966857591968"><ele>5.0</ele><time>2026-04-05T17:40:32.999Z</time></trkpt><trkpt lat="42.44099503017604" lon="-8.691854252068435"><ele>6.0</ele><time>2026-04-05T17:40:33.999Z</time></trkpt><trkpt lat="42.441085798225494" lon="-8.691740385622332"><ele>6.0</ele><time>2026-04-05T17:40:34.999Z</time></trkpt><trkpt lat="42.44118346168627" lon="-8.691621315273505"><ele>6.0</ele><time>2026-04-05T17:40:35.999Z</time></trkpt><trkpt lat="42.44128251108274" lon="-8.691502570312645"><ele>6.0</ele><time>2026-04-05T17:40:36.999Z</time></trkpt><trkpt lat="42.441378744232445" lon="-8.691385131189758"><ele>6.0</ele><time>2026-04-05T17:40:37.999Z</time></trkpt><trkpt lat="42.44147076273277" lon="-8.691257381068848"><ele>7.75</ele><time>2026-04-05T17:40:38.999Z</time></trkpt><trkpt lat="42.441561602980116" lon="-8.69111958493673"><ele>9.5</ele><time>2026-04-05T17:40:40Z</time></trkpt><trkpt lat="42.441643535356064" lon="-8.690965319882336"><ele>11.25</ele><time>2026-04-05T17:40:41Z</time></trkpt><trkpt lat="42.44171603563735" lon="-8.690805362947582"><ele>13.0</ele><time>2026-04-05T17:40:42Z</time></trkpt><trkpt lat="42.44178121462225" lon="-8.69064409910817"><ele>13.0</ele><time>2026-04-05T17:40:43Z</time></trkpt><trkpt lat="42.4418503246691" lon="-8.690471348691403"><ele>13.0</ele><time>2026-04-05T17:40:44Z</time></trkpt><trkpt lat="42.44192086438763" lon="-8.690294824131918"><ele>13.0</ele><time>2026-04-05T17:40:45Z</time></trkpt><trkpt lat="42.44199385845609" lon="-8.690114023072244"><ele>13.0</ele><time>2026-04-05T17:40:46Z</time></trkpt><trkpt lat="42.442068620453306" lon="-8.68993133169217"><ele>13.0</ele><time>2026-04-05T17:40:47Z</time></trkpt><trkpt lat="42.44213614065436" lon="-8.68976612873063"><ele>13.0</ele><time>2026-04-05T17:40:48Z</time></trkpt><trkpt lat="42.44220220346413" lon="-8.689604718561"><ele>13.0</ele><time>2026-04-05T17:40:49Z</time></trkpt><trkpt lat="42.44226396924631" lon="-8.689450759699577"><ele>13.0</ele><time>2026-04-05T17:40:50Z</time></trkpt><trkpt lat="42.44232610906373" lon="-8.689308287302199"><ele>13.0</ele><time>2026-04-05T17:40:51Z</time></trkpt><trkpt lat="42.44238392850597" lon="-8.689171608374554"><ele>13.0</ele><time>2026-04-05T17:40:52Z</time></trkpt><trkpt lat="42.442438617347676" lon="-8.689032352829374"><ele>13.0</ele><time>2026-04-05T17:40:53Z</time></trkpt><trkpt lat="42.44249077174308" lon="-8.688899118067132"><ele>13.0</ele><time>2026-04-05T17:40:54Z</time></trkpt><trkpt lat="42.44254352578242" lon="-8.688769501036319"><ele>13.0</ele><time>2026-04-05T17:40:55Z</time></trkpt><trkpt lat="42.44258499694469" lon="-8.688646491529683"><ele>13.0</ele><time>2026-04-05T17:40:56Z</time></trkpt><trkpt lat="42.44261703714325" lon="-8.688518705699806"><ele>13.0</ele><time>2026-04-05T17:40:57Z</time></trkpt><trkpt lat="42.44263180041398" lon="-8.688387431081482"><ele>13.0</ele><time>2026-04-05T17:40:58Z</time></trkpt><trkpt lat="42.442623868899574" lon="-8.688268697807068"><ele>13.0</ele><time>2026-04-05T17:40:59Z</time></trkpt><trkpt lat="42.44260169381767" lon="-8.68814172965991"><ele>12.75</ele><time>2026-04-05T17:41:00Z</time></trkpt><trkpt lat="42.44258457308237" lon="-8.687994187273572"><ele>12.5</ele><time>2026-04-05T17:41:01Z</time></trkpt><trkpt lat="42.44258517039242" lon="-8.687828812710467"><ele>12.25</ele><time>2026-04-05T17:41:02Z</time></trkpt><trkpt lat="42.44259212508501" lon="-8.687638421105822"><ele>12.0</ele><time>2026-04-05T17:41:03Z</time></trkpt><trkpt lat="42.44259268360893" lon="-8.687448714053954"><ele>12.0</ele><time>2026-04-05T17:41:04Z</time></trkpt><trkpt lat="42.44258049823017" lon="-8.687266862528498"><ele>12.0</ele><time>2026-04-05T17:41:05Z</time></trkpt><trkpt lat="42.44255954180446" lon="-8.68709583670121"><ele>12.0</ele><time>2026-04-05T17:41:06Z</time></trkpt><trkpt lat="42.44254163591812" lon="-8.686930701103615"><ele>12.0</ele><time>2026-04-05T17:41:07Z</time></trkpt><trkpt lat="42.44252495500677" lon="-8.686759637175243"><ele>13.25</ele><time>2026-04-05T17:41:08Z</time></trkpt><trkpt lat="42.442514041947184" lon="-8.686589712604276"><ele>14.5</ele><time>2026-04-05T17:41:09Z</time></trkpt><trkpt lat="42.44251144568603" lon="-8.686410631195619"><ele>15.75</ele><time>2026-04-05T17:41:10Z</time></trkpt><trkpt lat="42.44253442004308" lon="-8.68624292496588"><ele>17.0</ele><time>2026-04-05T17:41:11Z</time></trkpt><trkpt lat="42.44258360970728" lon="-8.68607217545199"><ele>18.5</ele><time>2026-04-05T17:41:11.999Z</time></trkpt><trkpt lat="42.44265244650651" lon="-8.685911555919024"><ele>20.0</ele><time>2026-04-05T17:41:12.999Z</time></trkpt><trkpt lat="42.44272952933777" lon="-8.68575690712648"><ele>21.5</ele><time>2026-04-05T17:41:13.999Z</time></trkpt><trkpt lat="42.442811368295125" lon="-8.685602609639071"><ele>23.0</ele><time>2026-04-05T17:41:14.999Z</time></trkpt><trkpt lat="42.44288949682053" lon="-8.685447018163217"><ele>24.0</ele><time>2026-04-05T17:41:15.999Z</time></trkpt><trkpt lat="42.4429647896851" lon="-8.685289513284873"><ele>25.0</ele><time>2026-04-05T17:41:16.999Z</time></trkpt><trkpt lat="42.443036886437056" lon="-8.68513997124518"><ele>26.0</ele><time>2026-04-05T17:41:17.999Z</time></trkpt><trkpt lat="42.44309848126696" lon="-8.684999111617884"><ele>27.0</ele><time>2026-04-05T17:41:18.999Z</time></trkpt><trkpt lat="42.44314665750975" lon="-8.684855473017565"><ele>26.833333333333332</ele><time>2026-04-05T17:41:19.999Z</time></trkpt><trkpt lat="42.44317805457164" lon="-8.684704100129892"><ele>26.666666666666664</ele><time>2026-04-05T17:41:20.999Z</time></trkpt><trkpt lat="42.44319525838955" lon="-8.684581027714348"><ele>26.5</ele><time>2026-04-05T17:41:21.999Z</time></trkpt><trkpt lat="42.443208472199274" lon="-8.684475996647198"><ele>26.333333333333332</ele><time>2026-04-05T17:41:23.999Z</time></trkpt><trkpt lat="42.443209161795885" lon="-8.684379674975434"><ele>26.166666666666664</ele><time>2026-04-05T17:41:26.999Z</time></trkpt><trkpt lat="42.44320621870638" lon="-8.684274057270546"><ele>26.0</ele><time>2026-04-05T17:41:28.999Z</time></trkpt><trkpt lat="42.44319273028449" lon="-8.684171720461276"><ele>26.0</ele><time>2026-04-05T17:41:29.999Z</time></trkpt><trkpt lat="42.44317924015094" lon="-8.684026050242013"><ele>26.0</ele><time>2026-04-05T17:41:30.999Z</time></trkpt><trkpt lat="42.44315497414084" lon="-8.683863514365754"><ele>26.0</ele><time>2026-04-05T17:41:31.999Z</time></trkpt><trkpt lat="42.44313170285196" lon="-8.6836874875281"><ele>26.0</ele><time>2026-04-05T17:41:32.999Z</time></trkpt><trkpt lat="42.44311273496943" lon="-8.683519878651483"><ele>25.75</ele><time>2026-04-05T17:41:33.999Z</time></trkpt><trkpt lat="42.44308980840226" lon="-8.68333307193951"><ele>25.5</ele><time>2026-04-05T17:41:34.999Z</time></trkpt><trkpt lat="42.4430578519819" lon="-8.683141825997609"><ele>25.25</ele><time>2026-04-05T17:41:35.999Z</time></trkpt><trkpt lat="42.443027227887306" lon="-8.682929386523192"><ele>25.0</ele><time>2026-04-05T17:41:36.999Z</time></trkpt><trkpt lat="42.44300330827017" lon="-8.682709347618136"><ele>26.0</ele><time>2026-04-05T17:41:37.999Z</time></trkpt><trkpt lat="42.44296691939887" lon="-8.682488144964324"><ele>27.0</ele><time>2026-04-05T17:41:38.999Z</time></trkpt><trkpt lat="42.44293875097751" lon="-8.682266148919618"><ele>28.0</ele><time>2026-04-05T17:41:39.999Z</time></trkpt><trkpt lat="42.44290714468573" lon="-8.682039155208951"><ele>28.75</ele><time>2026-04-05T17:41:40.999Z</time></trkpt><trkpt lat="42.44287314157096" lon="-8.681838978379002"><ele>29.5</ele><time>2026-04-05T17:41:41.999Z</time></trkpt><trkpt lat="42.4428431342047" lon="-8.681659823708927"><ele>30.25</ele><time>2026-04-05T17:41:42.999Z</time></trkpt><trkpt lat="42.442813654831696" lon="-8.681489713466533"><ele>31.0</ele><time>2026-04-05T17:41:43.999Z</time></trkpt><trkpt lat="42.44278718944714" lon="-8.681315373436316"><ele>31.0</ele><time>2026-04-05T17:41:44.999Z</time></trkpt><trkpt lat="42.442756210360955" lon="-8.681150072684355"><ele>31.0</ele><time>2026-04-05T17:41:45.999Z</time></trkpt><trkpt lat="42.442705005694194" lon="-8.68101500285643"><ele>31.0</ele><time>2026-04-05T17:41:46.999Z</time></trkpt><trkpt lat="42.442637554976834" lon="-8.68089001601928"><ele>31.0</ele><time>2026-04-05T17:41:47.999Z</time></trkpt><trkpt lat="42.442567771542244" lon="-8.680781786115102"><ele>31.4</ele><time>2026-04-05T17:41:48.999Z</time></trkpt><trkpt lat="42.44250478860831" lon="-8.680671676879362"><ele>31.8</ele><time>2026-04-05T17:41:49.999Z</time></trkpt><trkpt lat="42.44243491999221" lon="-8.680563903809063"><ele>32.199999999999996</ele><time>2026-04-05T17:41:50.999Z</time></trkpt><trkpt lat="42.4423719931378" lon="-8.680458699932275"><ele>32.6</ele><time>2026-04-05T17:41:51.999Z</time></trkpt><trkpt lat="42.44230886397235" lon="-8.680344822075023"><ele>33.0</ele><time>2026-04-05T17:41:52.999Z</time></trkpt><trkpt lat="42.44224044893653" lon="-8.680220023384505"><ele>33.5</ele><time>2026-04-05T17:41:53.999Z</time></trkpt><trkpt lat="42.44216782425379" lon="-8.68009305550946"><ele>34.0</ele><time>2026-04-05T17:41:54.999Z</time></trkpt><trkpt lat="42.44209172065043" lon="-8.679958832314645"><ele>34.5</ele><time>2026-04-05T17:41:55.999Z</time></trkpt><trkpt lat="42.442014791952914" lon="-8.679819365516186"><ele>35.0</ele><time>2026-04-05T17:41:56.999Z</time></trkpt><trkpt lat="42.4419406418921" lon="-8.679686128535465"><ele>35.5</ele><time>2026-04-05T17:41:57.999Z</time></trkpt><trkpt lat="42.44186077272547" lon="-8.679555767001123"><ele>36.0</ele><time>2026-04-05T17:41:58.999Z</time></trkpt><trkpt lat="42.4417870238729" lon="-8.679411090537302"><ele>36.5</ele><time>2026-04-05T17:41:59.999Z</time></trkpt><trkpt lat="42.4417000448134" lon="-8.679278412593517"><ele>37.0</ele><time>2026-04-05T17:42:00.999Z</time></trkpt><trkpt lat="42.44160869907976" lon="-8.679124820917304"><ele>37.5</ele><time>2026-04-05T17:42:01.999Z</time></trkpt><trkpt lat="42.441520085273034" lon="-8.678972210834377"><ele>38.0</ele><time>2026-04-05T17:42:02.999Z</time></trkpt><trkpt lat="42.44142779187395" lon="-8.678816755305832"><ele>38.5</ele><time>2026-04-05T17:42:03.999Z</time></trkpt><trkpt lat="42.44133509344398" lon="-8.678661868997269"><ele>39.0</ele><time>2026-04-05T17:42:04.999Z</time></trkpt><trkpt lat="42.44125259843968" lon="-8.678510800967857"><ele>40.333333333333336</ele><time>2026-04-05T17:42:05.999Z</time></trkpt><trkpt lat="42.44116151908565" lon="-8.678349156916827"><ele>41.66666666666667</ele><time>2026-04-05T17:42:06.999Z</time></trkpt><trkpt lat="42.441067589391345" lon="-8.678186209395385"><ele>43.0</ele><time>2026-04-05T17:42:07.999Z</time></trkpt><trkpt lat="42.44097636380744" lon="-8.678024793501077"><ele>43.0</ele><time>2026-04-05T17:42:08.999Z</time></trkpt><trkpt lat="42.44088372252906" lon="-8.677867199569919"><ele>43.0</ele><time>2026-04-05T17:42:09.999Z</time></trkpt><trkpt lat="42.44079605445061" lon="-8.677705377985665"><ele>43.0</ele><time>2026-04-05T17:42:10.999Z</time></trkpt><trkpt lat="42.440705590920565" lon="-8.677547875111527"><ele>43.0</ele><time>2026-04-05T17:42:11.999Z</time></trkpt><trkpt lat="42.44061355996274" lon="-8.6773926629486"><ele>43.75</ele><time>2026-04-05T17:42:12.999Z</time></trkpt><trkpt lat="42.44052431693489" lon="-8.67723792348654"><ele>44.5</ele><time>2026-04-05T17:42:13.999Z</time></trkpt><trkpt lat="42.44043196748027" lon="-8.67708385419603"><ele>45.25</ele><time>2026-04-05T17:42:15Z</time></trkpt><trkpt lat="42.44033275395873" lon="-8.67692855557049"><ele>46.0</ele><time>2026-04-05T17:42:15.999Z</time></trkpt><trkpt lat="42.44023734887275" lon="-8.67677154721363"><ele>49.0</ele><time>2026-04-05T17:42:16.999Z</time></trkpt><trkpt lat="42.440135788066186" lon="-8.676627384886704"><ele>52.0</ele><time>2026-04-05T17:42:17.999Z</time></trkpt><trkpt lat="42.44002898758926" lon="-8.676481450930485"><ele>55.0</ele><time>2026-04-05T17:42:18.999Z</time></trkpt><trkpt lat="42.43991487203741" lon="-8.676350229048323"><ele>58.0</ele><time>2026-04-05T17:42:19.999Z</time></trkpt><trkpt lat="42.43979846162597" lon="-8.676234420104981"><ele>58.0</ele><time>2026-04-05T17:42:20.999Z</time></trkpt><trkpt lat="42.43968101103164" lon="-8.676137376040446"><ele>58.0</ele><time>2026-04-05T17:42:21.999Z</time></trkpt><trkpt lat="42.439557114593846" lon="-8.67604498543828"><ele>58.0</ele><time>2026-04-05T17:42:22.999Z</time></trkpt><trkpt lat="42.43943744607284" lon="-8.675980645863156"><ele>58.0</ele><time>2026-04-05T17:42:23.999Z</time></trkpt><trkpt lat="42.43931936467992" lon="-8.675920786289195"><ele>59.25</ele><time>2026-04-05T17:42:24.999Z</time></trkpt><trkpt lat="42.43919690617934" lon="-8.67585946344518"><ele>60.5</ele><time>2026-04-05T17:42:25.999Z</time></trkpt><trkpt lat="42.43908168372365" lon="-8.675813796809026"><ele>61.75</ele><time>2026-04-05T17:42:26.999Z</time></trkpt><trkpt lat="42.43896485515046" lon="-8.675766628958428"><ele>63.0</ele><time>2026-04-05T17:42:27.999Z</time></trkpt><trkpt lat="42.43884529711888" lon="-8.675712825771514"><ele>64.5</ele><time>2026-04-05T17:42:28.999Z</time></trkpt><trkpt lat="42.43872364646577" lon="-8.675664659421715"><ele>66.0</ele><time>2026-04-05T17:42:29.999Z</time></trkpt><trkpt lat="42.438593306690066" lon="-8.675609588882129"><ele>67.5</ele><time>2026-04-05T17:42:30.999Z</time></trkpt><trkpt lat="42.4384632588094" lon="-8.6755625318541"><ele>69.0</ele><time>2026-04-05T17:42:31.999Z</time></trkpt><trkpt lat="42.43832744783782" lon="-8.67550290117261"><ele>69.0</ele><time>2026-04-05T17:42:32.999Z</time></trkpt><trkpt lat="42.43819408778782" lon="-8.675447697925716"><ele>69.0</ele><time>2026-04-05T17:42:33.999Z</time></trkpt><trkpt lat="42.43805983700244" lon="-8.675392391858992"><ele>69.0</ele><time>2026-04-05T17:42:34.999Z</time></trkpt><trkpt lat="42.43792263976237" lon="-8.675333200710764"><ele>69.0</ele><time>2026-04-05T17:42:35.999Z</time></trkpt><trkpt lat="42.43778533768844" lon="-8.675272281818179"><ele>70.25</ele><time>2026-04-05T17:42:36.999Z</time></trkpt><trkpt lat="42.4376495617897" lon="-8.675199766463974"><ele>71.5</ele><time>2026-04-05T17:42:37.999Z</time></trkpt><trkpt lat="42.437514213754724" lon="-8.675114754405207"><ele>72.75</ele><time>2026-04-05T17:42:38.999Z</time></trkpt><trkpt lat="42.43738861779303" lon="-8.675016639598098"><ele>74.0</ele><time>2026-04-05T17:42:39.999Z</time></trkpt><trkpt lat="42.43728600779712" lon="-8.67491219583421"><ele>74.0</ele><time>2026-04-05T17:42:40.999Z</time></trkpt><trkpt lat="42.437186951729196" lon="-8.67481049206441"><ele>74.0</ele><time>2026-04-05T17:42:41.999Z</time></trkpt><trkpt lat="42.437085685236404" lon="-8.674705392137506"><ele>74.0</ele><time>2026-04-05T17:42:42.999Z</time></trkpt><trkpt lat="42.43698248269835" lon="-8.674597347295007"><ele>74.0</ele><time>2026-04-05T17:42:43.999Z</time></trkpt><trkpt lat="42.43688191374358" lon="-8.67449005023658"><ele>74.5</ele><time>2026-04-05T17:42:44.999Z</time></trkpt><trkpt lat="42.436790972830124" lon="-8.674390710022733"><ele>75.0</ele><time>2026-04-05T17:42:45.999Z</time></trkpt><trkpt lat="42.436703715779466" lon="-8.674299898615931"><ele>75.5</ele><time>2026-04-05T17:42:46.999Z</time></trkpt><trkpt lat="42.43661358396122" lon="-8.674207933613964"><ele>76.0</ele><time>2026-04-05T17:42:47.999Z</time></trkpt><trkpt lat="42.436521743445496" lon="-8.674113229583943"><ele>76.0</ele><time>2026-04-05T17:42:48.999Z</time></trkpt><trkpt lat="42.4364278340324" lon="-8.674015862235724"><ele>76.0</ele><time>2026-04-05T17:42:49.999Z</time></trkpt><trkpt lat="42.43633641187996" lon="-8.67391731157336"><ele>76.0</ele><time>2026-04-05T17:42:50.999Z</time></trkpt><trkpt lat="42.43624006901221" lon="-8.673820284327766"><ele>76.0</ele><time>2026-04-05T17:42:51.999Z</time></trkpt><trkpt lat="42.43614286800393" lon="-8.673724929492339"><ele>74.0</ele><time>2026-04-05T17:42:52.999Z</time></trkpt><trkpt lat="42.43603998107673" lon="-8.67362183931167"><ele>72.0</ele><time>2026-04-05T17:42:54Z</time></trkpt><trkpt lat="42.43593948039125" lon="-8.673514903513158"><ele>70.0</ele><time>2026-04-05T17:42:55Z</time></trkpt><trkpt lat="42.435840128742946" lon="-8.673400052777621"><ele>68.0</ele><time>2026-04-05T17:42:56Z</time></trkpt><trkpt lat="42.43574992128948" lon="-8.673275538044544"><ele>68.0</ele><time>2026-04-05T17:42:57Z</time></trkpt><trkpt lat="42.43567275382384" lon="-8.673135144217625"><ele>68.0</ele><time>2026-04-05T17:42:58Z</time></trkpt><trkpt lat="42.4356049081299" lon="-8.672965738296817"><ele>68.0</ele><time>2026-04-05T17:42:59Z</time></trkpt><trkpt lat="42.43554660028198" lon="-8.67278216608131"><ele>68.0</ele><time>2026-04-05T17:43:00Z</time></trkpt><trkpt lat="42.43549123646054" lon="-8.672604343442686"><ele>63.333333333333336</ele><time>2026-04-05T17:43:01Z</time></trkpt><trkpt lat="42.43543954358037" lon="-8.672416065549745"><ele>58.66666666666667</ele><time>2026-04-05T17:43:02Z</time></trkpt><trkpt lat="42.435376015385486" lon="-8.672226135047733"><ele>54.0</ele><time>2026-04-05T17:43:03Z</time></trkpt><trkpt lat="42.43531513846726" lon="-8.672029055298994"><ele>55.0</ele><time>2026-04-05T17:43:04Z</time></trkpt><trkpt lat="42.43525061624547" lon="-8.671832978655615"><ele>56.0</ele><time>2026-04-05T17:43:05Z</time></trkpt><trkpt lat="42.43518962561024" lon="-8.671642351219258"><ele>57.0</ele><time>2026-04-05T17:43:06Z</time></trkpt><trkpt lat="42.43512863504211" lon="-8.671458992019497"><ele>57.0</ele><time>2026-04-05T17:43:07Z</time></trkpt><trkpt lat="42.4350684032955" lon="-8.671278948055209"><ele>57.0</ele><time>2026-04-05T17:43:08Z</time></trkpt><trkpt lat="42.43501267307281" lon="-8.67110397629138"><ele>57.0</ele><time>2026-04-05T17:43:09Z</time></trkpt><trkpt lat="42.43495932535975" lon="-8.670928158121152"><ele>57.0</ele><time>2026-04-05T17:43:10Z</time></trkpt><trkpt lat="42.434895977577966" lon="-8.670749589092557"><ele>57.66666666666667</ele><time>2026-04-05T17:43:11Z</time></trkpt><trkpt lat="42.43482287335483" lon="-8.67056124064122"><ele>58.333333333333336</ele><time>2026-04-05T17:43:12Z</time></trkpt><trkpt lat="42.43474234783065" lon="-8.670381750149712"><ele>59.0</ele><time>2026-04-05T17:43:13Z</time></trkpt><trkpt lat="42.43464351847798" lon="-8.67021747241709"><ele>57.25</ele><time>2026-04-05T17:43:14Z</time></trkpt><trkpt lat="42.43455605306025" lon="-8.670055201628408"><ele>55.5</ele><time>2026-04-05T17:43:15Z</time></trkpt><trkpt lat="42.43447211059468" lon="-8.66990853820753"><ele>53.75</ele><time>2026-04-05T17:43:16Z</time></trkpt><trkpt lat="42.43438498998665" lon="-8.669760049402788"><ele>52.0</ele><time>2026-04-05T17:43:17Z</time></trkpt><trkpt lat="42.43429433556921" lon="-8.669628223862707"><ele>52.0</ele><time>2026-04-05T17:43:18Z</time></trkpt><trkpt lat="42.43420104223877" lon="-8.66951235759502"><ele>52.0</ele><time>2026-04-05T17:43:19Z</time></trkpt><trkpt lat="42.434103495239945" lon="-8.669389087828531"><ele>52.0</ele><time>2026-04-05T17:43:20Z</time></trkpt><trkpt lat="42.434010217649494" lon="-8.669270469151417"><ele>52.0</ele><time>2026-04-05T17:43:21Z</time></trkpt><trkpt lat="42.43392356147857" lon="-8.669158299145398"><ele>51.75</ele><time>2026-04-05T17:43:22Z</time></trkpt><trkpt lat="42.43383613340352" lon="-8.669043544168872"><ele>51.5</ele><time>2026-04-05T17:43:23Z</time></trkpt><trkpt lat="42.43374694281111" lon="-8.668932104567698"><ele>51.25</ele><time>2026-04-05T17:43:24Z</time></trkpt><trkpt lat="42.43365624302906" lon="-8.66882645916241"><ele>51.0</ele><time>2026-04-05T17:43:25Z</time></trkpt><trkpt lat="42.433575728370386" lon="-8.668713477659464"><ele>51.599999999999994</ele><time>2026-04-05T17:43:26Z</time></trkpt><trkpt lat="42.4334983996716" lon="-8.668603789877114"><ele>52.2</ele><time>2026-04-05T17:43:27Z</time></trkpt><trkpt lat="42.433416074556085" lon="-8.668490865988728"><ele>52.800000000000004</ele><time>2026-04-05T17:43:28Z</time></trkpt><trkpt lat="42.433364924118685" lon="-8.668382392184816"><ele>53.400000000000006</ele><time>2026-04-05T17:43:28.999Z</time></trkpt><trkpt lat="42.433287914209835" lon="-8.668266886876976"><ele>54.0</ele><time>2026-04-05T17:43:29.999Z</time></trkpt><trkpt lat="42.433216796966356" lon="-8.668145427860892"><ele>54.0</ele><time>2026-04-05T17:43:30.999Z</time></trkpt><trkpt lat="42.43314796192309" lon="-8.668031101108843"><ele>54.00000000000001</ele><time>2026-04-05T17:43:31.999Z</time></trkpt><trkpt lat="42.43308883097258" lon="-8.66791473634882"><ele>54.00000000000001</ele><time>2026-04-05T17:43:32.999Z</time></trkpt><trkpt lat="42.433019462351695" lon="-8.667807744424849"><ele>54.0</ele><time>2026-04-05T17:43:33.999Z</time></trkpt><trkpt lat="42.43295143844585" lon="-8.66769137619907"><ele>54.0</ele><time>2026-04-05T17:43:34.999Z</time></trkpt><trkpt lat="42.43288797636755" lon="-8.667578903190826"><ele>53.2</ele><time>2026-04-05T17:43:35.999Z</time></trkpt><trkpt lat="42.432803935887215" lon="-8.667468148616283"><ele>52.400000000000006</ele><time>2026-04-05T17:43:36.999Z</time></trkpt><trkpt lat="42.43275102167001" lon="-8.667347943194217"><ele>51.6</ele><time>2026-04-05T17:43:37.999Z</time></trkpt><trkpt lat="42.43267288664528" lon="-8.66724851870063"><ele>50.8</ele><time>2026-04-05T17:43:38.999Z</time></trkpt><trkpt lat="42.432638861412705" lon="-8.667158278118281"><ele>50.0</ele><time>2026-04-05T17:43:39.999Z</time></trkpt><trkpt lat="42.432570474341865" lon="-8.667058001627812"><ele>50.0</ele><time>2026-04-05T17:43:40.999Z</time></trkpt><trkpt lat="42.43250725360149" lon="-8.666951585686803"><ele>50.0</ele><time>2026-04-05T17:43:41.999Z</time></trkpt><trkpt lat="42.432451377415916" lon="-8.666851368966986"><ele>50.0</ele><time>2026-04-05T17:43:42.999Z</time></trkpt><trkpt lat="42.43238260403019" lon="-8.66676293840738"><ele>50.0</ele><time>2026-04-05T17:43:43.999Z</time></trkpt><trkpt lat="42.43232624360687" lon="-8.666669667831545"><ele>50.0</ele><time>2026-04-05T17:43:44.999Z</time></trkpt><trkpt lat="42.43227361806153" lon="-8.666554987857449"><ele>50.0</ele><time>2026-04-05T17:43:45.999Z</time></trkpt><trkpt lat="42.43220220239163" lon="-8.666445411592244"><ele>50.0</ele><time>2026-04-05T17:43:46.999Z</time></trkpt><trkpt lat="42.432130945639216" lon="-8.66632631259893"><ele>50.0</ele><time>2026-04-05T17:43:47.999Z</time></trkpt><trkpt lat="42.432059785312966" lon="-8.666209740045812"><ele>50.0</ele><time>2026-04-05T17:43:48.999Z</time></trkpt><trkpt lat="42.43198696792575" lon="-8.666092756214567"><ele>50.0</ele><time>2026-04-05T17:43:49.999Z</time></trkpt><trkpt lat="42.43191477280954" lon="-8.665981462977374"><ele>50.0</ele><time>2026-04-05T17:43:50.999Z</time></trkpt><trkpt lat="42.43185365732595" lon="-8.665874022136915"><ele>50.0</ele><time>2026-04-05T17:43:51.999Z</time></trkpt><trkpt lat="42.43179457346028" lon="-8.665780376143852"><ele>50.0</ele><time>2026-04-05T17:43:52.999Z</time></trkpt><trkpt lat="42.43172967200108" lon="-8.6656712654351"><ele>50.0</ele><time>2026-04-05T17:43:53.999Z</time></trkpt><trkpt lat="42.43167022187755" lon="-8.665559880172843"><ele>50.0</ele><time>2026-04-05T17:43:54.999Z</time></trkpt><trkpt lat="42.43160807061899" lon="-8.665460933413675"><ele>50.0</ele><time>2026-04-05T17:43:55.999Z</time></trkpt><trkpt lat="42.43155186422526" lon="-8.665334473407416"><ele>50.0</ele><time>2026-04-05T17:43:56.999Z</time></trkpt><trkpt lat="42.431495390213676" lon="-8.665210303557256"><ele>50.0</ele><time>2026-04-05T17:43:57.999Z</time></trkpt><trkpt lat="42.43145437209452" lon="-8.665079343333506"><ele>50.0</ele><time>2026-04-05T17:43:58.999Z</time></trkpt><trkpt lat="42.431431370373154" lon="-8.664923033016477"><ele>50.0</ele><time>2026-04-05T17:43:59.999Z</time></trkpt><trkpt lat="42.43142617699666" lon="-8.664765139396877"><ele>49.25</ele><time>2026-04-05T17:44:00.999Z</time></trkpt><trkpt lat="42.43143342922708" lon="-8.664602807426105"><ele>48.5</ele><time>2026-04-05T17:44:01.999Z</time></trkpt><trkpt lat="42.43144691253208" lon="-8.664456379947396"><ele>47.75</ele><time>2026-04-05T17:44:02.999Z</time></trkpt><trkpt lat="42.43147505849086" lon="-8.66430912256022"><ele>47.0</ele><time>2026-04-05T17:44:03.999Z</time></trkpt><trkpt lat="42.43151202447631" lon="-8.664169475603364"><ele>45.8</ele><time>2026-04-05T17:44:04.999Z</time></trkpt><trkpt lat="42.43155008374839" lon="-8.664039438634434"><ele>44.6</ele><time>2026-04-05T17:44:05.999Z</time></trkpt><trkpt lat="42.431598316017634" lon="-8.663911858916604"><ele>43.4</ele><time>2026-04-05T17:44:06.999Z</time></trkpt><trkpt lat="42.43164907484529" lon="-8.663786103745728"><ele>42.199999999999996</ele><time>2026-04-05T17:44:07.999Z</time></trkpt><trkpt lat="42.43168328373035" lon="-8.663666874246696"><ele>41.0</ele><time>2026-04-05T17:44:08.999Z</time></trkpt><trkpt lat="42.431718829324204" lon="-8.663577436929526"><ele>40.33333333333333</ele><time>2026-04-05T17:44:09.999Z</time></trkpt><trkpt lat="42.43174200355599" lon="-8.66348821430233"><ele>39.666666666666664</ele><time>2026-04-05T17:44:10.999Z</time></trkpt><trkpt lat="42.431743346020426" lon="-8.663393114498142"><ele>39.0</ele><time>2026-04-05T17:44:11.999Z</time></trkpt><trkpt lat="42.43171713666347" lon="-8.663306998007549"><ele>38.333333333333336</ele><time>2026-04-05T17:44:12.999Z</time></trkpt><trkpt lat="42.43165844995824" lon="-8.663233939311286"><ele>37.66666666666667</ele><time>2026-04-05T17:44:13.999Z</time></trkpt><trkpt lat="42.43157649482363" lon="-8.663195406305224"><ele>37.0</ele><time>2026-04-05T17:44:14.999Z</time></trkpt><trkpt lat="42.43146410465238" lon="-8.663194652387098"><ele>37.0</ele><time>2026-04-05T17:44:15.999Z</time></trkpt><trkpt lat="42.43133746783475" lon="-8.663224747408293"><ele>37.0</ele><time>2026-04-05T17:44:16.999Z</time></trkpt><trkpt lat="42.43120497259231" lon="-8.663256338309107"><ele>37.0</ele><time>2026-04-05T17:44:17.999Z</time></trkpt><trkpt lat="42.43106731801662" lon="-8.663277428958"><ele>37.0</ele><time>2026-04-05T17:44:18.999Z</time></trkpt><trkpt lat="42.43093969289106" lon="-8.663293736856494"><ele>36.2</ele><time>2026-04-05T17:44:19.999Z</time></trkpt><trkpt lat="42.43083015262502" lon="-8.663320354029109"><ele>35.400000000000006</ele><time>2026-04-05T17:44:20.999Z</time></trkpt><trkpt lat="42.43073693311112" lon="-8.66336150983961"><ele>34.599999999999994</ele><time>2026-04-05T17:44:21.999Z</time></trkpt><trkpt lat="42.430652511590914" lon="-8.663419611953383"><ele>33.8</ele><time>2026-04-05T17:44:22.999Z</time></trkpt><trkpt lat="42.43054542712463" lon="-8.663368925346045"><ele>33.0</ele><time>2026-04-05T17:44:24.999Z</time></trkpt><trkpt lat="42.43053210026038" lon="-8.663277989452306"><ele>33.0</ele><time>2026-04-05T17:44:25.999Z</time></trkpt><trkpt lat="42.43055317248438" lon="-8.663170101177736"><ele>33.0</ele><time>2026-04-05T17:44:26.999Z</time></trkpt><trkpt lat="42.430596370603205" lon="-8.663049615742777"><ele>33.0</ele><time>2026-04-05T17:44:27.999Z</time></trkpt><trkpt lat="42.430637337195684" lon="-8.662908792137198"><ele>33.0</ele><time>2026-04-05T17:44:28.999Z</time></trkpt><trkpt lat="42.43065817240541" lon="-8.662727708433888"><ele>33.0</ele><time>2026-04-05T17:44:29.999Z</time></trkpt><trkpt lat="42.430655058719836" lon="-8.662532462737515"><ele>30.666666666666664</ele><time>2026-04-05T17:44:30.999Z</time></trkpt><trkpt lat="42.430645602019844" lon="-8.662316071565055"><ele>28.333333333333332</ele><time>2026-04-05T17:44:31.999Z</time></trkpt><trkpt lat="42.4306436246218" lon="-8.662082136805708"><ele>26.0</ele><time>2026-04-05T17:44:32.999Z</time></trkpt><trkpt lat="42.4306441622345" lon="-8.661830060850422"><ele>24.333333333333332</ele><time>2026-04-05T17:44:33.999Z</time></trkpt><trkpt lat="42.43064926387052" lon="-8.661564131520215"><ele>22.666666666666664</ele><time>2026-04-05T17:44:34.999Z</time></trkpt><trkpt lat="42.43065944137895" lon="-8.66128698282769"><ele>21.0</ele><time>2026-04-05T17:44:35.999Z</time></trkpt><trkpt lat="42.430677283816976" lon="-8.66101426194447"><ele>19.666666666666668</ele><time>2026-04-05T17:44:36.999Z</time></trkpt><trkpt lat="42.43070438642309" lon="-8.660759050632175"><ele>18.333333333333336</ele><time>2026-04-05T17:44:37.999Z</time></trkpt><trkpt lat="42.430737230041174" lon="-8.660512841485739"><ele>17.0</ele><time>2026-04-05T17:44:38.999Z</time></trkpt><trkpt lat="42.430771062242094" lon="-8.660260857470952"><ele>16.333333333333336</ele><time>2026-04-05T17:44:39.999Z</time></trkpt><trkpt lat="42.4308220554732" lon="-8.660023451884461"><ele>15.666666666666668</ele><time>2026-04-05T17:44:40.999Z</time></trkpt><trkpt lat="42.43088825662459" lon="-8.659785844061098"><ele>15.0</ele><time>2026-04-05T17:44:41.999Z</time></trkpt><trkpt lat="42.43095322942199" lon="-8.659548497661273"><ele>13.666666666666666</ele><time>2026-04-05T17:44:42.999Z</time></trkpt><trkpt lat="42.431021205258375" lon="-8.659302252692319"><ele>12.333333333333332</ele><time>2026-04-05T17:44:43.999Z</time></trkpt><trkpt lat="42.431096836507244" lon="-8.659060779298109"><ele>11.0</ele><time>2026-04-05T17:44:44.999Z</time></trkpt><trkpt lat="42.431176656615" lon="-8.658816677652418"><ele>10.333333333333332</ele><time>2026-04-05T17:44:46Z</time></trkpt><trkpt lat="42.43124899785535" lon="-8.658581012142045"><ele>9.666666666666666</ele><time>2026-04-05T17:44:47Z</time></trkpt><trkpt lat="42.43131773808596" lon="-8.658349723652249"><ele>9.0</ele><time>2026-04-05T17:44:48Z</time></trkpt><trkpt lat="42.43139917808249" lon="-8.658132897784029"><ele>9.0</ele><time>2026-04-05T17:44:49Z</time></trkpt><trkpt lat="42.431464487949285" lon="-8.657920351536859"><ele>9.0</ele><time>2026-04-05T17:44:50Z</time></trkpt><trkpt lat="42.43153064227621" lon="-8.657710565203041"><ele>9.0</ele><time>2026-04-05T17:44:51Z</time></trkpt><trkpt lat="42.43159402339529" lon="-8.657502789741"><ele>8.0</ele><time>2026-04-05T17:44:52Z</time></trkpt><trkpt lat="42.431653775945804" lon="-8.657305298192409"><ele>7.0</ele><time>2026-04-05T17:44:53Z</time></trkpt><trkpt lat="42.431706951886106" lon="-8.657112610169067"><ele>6.0</ele><time>2026-04-05T17:44:54Z</time></trkpt><trkpt lat="42.43175601459267" lon="-8.656921618081455"><ele>5.5</ele><time>2026-04-05T17:44:55Z</time></trkpt><trkpt lat="42.43179837381629" lon="-8.65673662317126"><ele>5.0</ele><time>2026-04-05T17:44:56Z</time></trkpt><trkpt lat="42.43180488741134" lon="-8.656558504891008"><ele>4.5</ele><time>2026-04-05T17:44:57Z</time></trkpt><trkpt lat="42.43177895943356" lon="-8.656385542588264"><ele>4.0</ele><time>2026-04-05T17:44:58Z</time></trkpt><trkpt lat="42.43172192250039" lon="-8.656238101102353"><ele>4.0</ele><time>2026-04-05T17:44:59Z</time></trkpt><trkpt lat="42.431623203999656" lon="-8.656123692110896"><ele>4.0</ele><time>2026-04-05T17:45:00Z</time></trkpt><trkpt lat="42.43150018915252" lon="-8.65605522391521"><ele>4.0</ele><time>2026-04-05T17:45:01Z</time></trkpt><trkpt lat="42.431358328784675" lon="-8.656026170271032"><ele>4.0</ele><time>2026-04-05T17:45:02Z</time></trkpt><trkpt lat="42.43121105228437" lon="-8.656051963917156"><ele>4.0</ele><time>2026-04-05T17:45:03Z</time></trkpt><trkpt lat="42.431066984434416" lon="-8.6561134744652"><ele>4.0</ele><time>2026-04-05T17:45:04Z</time></trkpt><trkpt lat="42.43091469647185" lon="-8.656179351029364"><ele>4.0</ele><time>2026-04-05T17:45:05Z</time></trkpt><trkpt lat="42.43075424517254" lon="-8.65623677250642"><ele>4.0</ele><time>2026-04-05T17:45:06Z</time></trkpt><trkpt lat="42.4305923100811" lon="-8.656293254009189"><ele>4.0</ele><time>2026-04-05T17:45:07Z</time></trkpt><trkpt lat="42.43042492544801" lon="-8.656341331664342"><ele>4.0</ele><time>2026-04-05T17:45:08Z</time></trkpt><trkpt lat="42.430249026806926" lon="-8.656380950289746"><ele>6.666666666666666</ele><time>2026-04-05T17:45:09Z</time></trkpt><trkpt lat="42.43007175141814" lon="-8.656411510288931"><ele>9.333333333333334</ele><time>2026-04-05T17:45:10Z</time></trkpt><trkpt lat="42.42988828114043" lon="-8.656426964090098"><ele>12.0</ele><time>2026-04-05T17:45:11Z</time></trkpt><trkpt lat="42.429696720977205" lon="-8.656432458290364"><ele>13.333333333333332</ele><time>2026-04-05T17:45:12Z</time></trkpt><trkpt lat="42.429502321266945" lon="-8.656431505291476"><ele>14.666666666666666</ele><time>2026-04-05T17:45:13Z</time></trkpt><trkpt lat="42.42930728303574" lon="-8.656426442803511"><ele>16.0</ele><time>2026-04-05T17:45:14Z</time></trkpt><trkpt lat="42.42911412765766" lon="-8.656407261299664"><ele>16.0</ele><time>2026-04-05T17:45:15Z</time></trkpt><trkpt lat="42.42891115600353" lon="-8.656369061876662"><ele>16.0</ele><time>2026-04-05T17:45:16Z</time></trkpt><trkpt lat="42.42870509749745" lon="-8.656324320761858"><ele>16.0</ele><time>2026-04-05T17:45:17Z</time></trkpt><trkpt lat="42.42849574202601" lon="-8.6562673195005"><ele>14.333333333333332</ele><time>2026-04-05T17:45:18Z</time></trkpt><trkpt lat="42.428286596187704" lon="-8.65619786091315"><ele>12.666666666666666</ele><time>2026-04-05T17:45:19Z</time></trkpt><trkpt lat="42.428083547184706" lon="-8.65610935242878"><ele>11.0</ele><time>2026-04-05T17:45:20Z</time></trkpt><trkpt lat="42.42788725398303" lon="-8.656011209579047"><ele>9.666666666666666</ele><time>2026-04-05T17:45:21Z</time></trkpt><trkpt lat="42.427680067739274" lon="-8.655886253241503"><ele>8.333333333333334</ele><time>2026-04-05T17:45:22Z</time></trkpt><trkpt lat="42.42748101957108" lon="-8.655752416154623"><ele>7.0</ele><time>2026-04-05T17:45:22.999Z</time></trkpt><trkpt lat="42.42728796998691" lon="-8.655602016693477"><ele>4.5</ele><time>2026-04-05T17:45:23.999Z</time></trkpt><trkpt lat="42.427100139978826" lon="-8.65544130519401"><ele>2.0</ele><time>2026-04-05T17:45:24.999Z</time></trkpt><trkpt lat="42.42691145710451" lon="-8.655267184522685"><ele>1.0</ele><time>2026-04-05T17:45:25.999Z</time></trkpt><trkpt lat="42.426731011436004" lon="-8.655077414888437"><ele>0.0</ele><time>2026-04-05T17:45:26.999Z</time></trkpt><trkpt lat="42.426556406327855" lon="-8.654878336484893"><ele>0.0</ele><time>2026-04-05T17:45:27.999Z</time></trkpt><trkpt lat="42.426382125569255" lon="-8.654666924806714"><ele>0.0</ele><time>2026-04-05T17:45:28.999Z</time></trkpt><trkpt lat="42.42621237962755" lon="-8.65445719428993"><ele>0.0</ele><time>2026-04-05T17:45:29.999Z</time></trkpt><trkpt lat="42.426041635779114" lon="-8.654240749986306"><ele>0.0</ele><time>2026-04-05T17:45:30.999Z</time></trkpt><trkpt lat="42.42588424499218" lon="-8.65404303275567"><ele>0.0</ele><time>2026-04-05T17:45:31.999Z</time></trkpt><trkpt lat="42.42573514411405" lon="-8.653857391344163"><ele>0.0</ele><time>2026-04-05T17:45:32.999Z</time></trkpt><trkpt lat="42.4255895894777" lon="-8.653675577376884"><ele>0.0</ele><time>2026-04-05T17:45:33.999Z</time></trkpt><trkpt lat="42.425441498738664" lon="-8.653498298054606"><ele>0.0</ele><time>2026-04-05T17:45:34.999Z</time></trkpt><trkpt lat="42.42528658810473" lon="-8.65331233168975"><ele>2.0</ele><time>2026-04-05T17:45:35.999Z</time></trkpt><trkpt lat="42.42513244789999" lon="-8.653123436874132"><ele>4.0</ele><time>2026-04-05T17:45:36.999Z</time></trkpt><trkpt lat="42.42497936256372" lon="-8.652932272322056"><ele>6.0</ele><time>2026-04-05T17:45:37.999Z</time></trkpt><trkpt lat="42.42482390766174" lon="-8.652741083101617"><ele>6.333333333333334</ele><time>2026-04-05T17:45:38.999Z</time></trkpt><trkpt lat="42.424669109620005" lon="-8.65255174915771"><ele>6.666666666666667</ele><time>2026-04-05T17:45:39.999Z</time></trkpt><trkpt lat="42.4245096482132" lon="-8.652362344459887"><ele>7.0</ele><time>2026-04-05T17:45:40.999Z</time></trkpt><trkpt lat="42.42434802341706" lon="-8.652170342335188"><ele>7.0</ele><time>2026-04-05T17:45:41.999Z</time></trkpt><trkpt lat="42.424184420087094" lon="-8.651977039075103"><ele>7.0</ele><time>2026-04-05T17:45:42.999Z</time></trkpt><trkpt lat="42.42400669840577" lon="-8.651787105185264"><ele>7.0</ele><time>2026-04-05T17:45:43.999Z</time></trkpt><trkpt lat="42.42382398902447" lon="-8.651611576993853"><ele>9.0</ele><time>2026-04-05T17:45:44.999Z</time></trkpt><trkpt lat="42.42364456941857" lon="-8.651460483973768"><ele>11.0</ele><time>2026-04-05T17:45:45.999Z</time></trkpt><trkpt lat="42.42347008853446" lon="-8.651327052272636"><ele>13.0</ele><time>2026-04-05T17:45:46.999Z</time></trkpt><trkpt lat="42.423292806119264" lon="-8.651205032128232"><ele>13.666666666666666</ele><time>2026-04-05T17:45:47.999Z</time></trkpt><trkpt lat="42.423112082628606" lon="-8.651098056826827"><ele>14.333333333333332</ele><time>2026-04-05T17:45:48.999Z</time></trkpt><trkpt lat="42.422927982613764" lon="-8.65099374660691"><ele>15.0</ele><time>2026-04-05T17:45:49.999Z</time></trkpt><trkpt lat="42.42273558779313" lon="-8.650905076328472"><ele>15.0</ele><time>2026-04-05T17:45:50.999Z</time></trkpt><trkpt lat="42.42253717762657" lon="-8.650831693895057"><ele>15.0</ele><time>2026-04-05T17:45:51.999Z</time></trkpt><trkpt lat="42.422329273523765" lon="-8.650771226721895"><ele>15.0</ele><time>2026-04-05T17:45:52.999Z</time></trkpt><trkpt lat="42.422123257175926" lon="-8.650720755359739"><ele>16.0</ele><time>2026-04-05T17:45:53.999Z</time></trkpt><trkpt lat="42.42191652980747" lon="-8.650682816474816"><ele>17.0</ele><time>2026-04-05T17:45:54.999Z</time></trkpt><trkpt lat="42.421712270638835" lon="-8.650654942019438"><ele>18.0</ele><time>2026-04-05T17:45:55.999Z</time></trkpt><trkpt lat="42.421502740456624" lon="-8.650634457272965"><ele>18.333333333333332</ele><time>2026-04-05T17:45:56.999Z</time></trkpt><trkpt lat="42.421290131253194" lon="-8.650629602519514"><ele>18.666666666666664</ele><time>2026-04-05T17:45:57.999Z</time></trkpt><trkpt lat="42.42108006668486" lon="-8.650627576663371"><ele>19.0</ele><time>2026-04-05T17:45:58.999Z</time></trkpt><trkpt lat="42.420865722519714" lon="-8.650631580150275"><ele>19.0</ele><time>2026-04-05T17:45:59.999Z</time></trkpt><trkpt lat="42.420648120117924" lon="-8.650645375960814"><ele>19.0</ele><time>2026-04-05T17:46:00.999Z</time></trkpt><trkpt lat="42.42043265165032" lon="-8.65066506659473"><ele>19.0</ele><time>2026-04-05T17:46:01.999Z</time></trkpt><trkpt lat="42.420212561415255" lon="-8.650695571724691"><ele>20.0</ele><time>2026-04-05T17:46:02.999Z</time></trkpt><trkpt lat="42.419988191679344" lon="-8.650741718948453"><ele>21.0</ele><time>2026-04-05T17:46:03.999Z</time></trkpt><trkpt lat="42.41976813344805" lon="-8.650795337765492"><ele>22.0</ele><time>2026-04-05T17:46:04.999Z</time></trkpt><trkpt lat="42.419544506889025" lon="-8.650855235590388"><ele>23.0</ele><time>2026-04-05T17:46:05.999Z</time></trkpt><trkpt lat="42.41932688771628" lon="-8.650921910663639"><ele>23.0</ele><time>2026-04-05T17:46:06.999Z</time></trkpt><trkpt lat="42.41910355355837" lon="-8.65099521524813"><ele>23.0</ele><time>2026-04-05T17:46:07.999Z</time></trkpt><trkpt lat="42.41887888847001" lon="-8.651075196124548"><ele>24.0</ele><time>2026-04-05T17:46:08.999Z</time></trkpt><trkpt lat="42.418658490151984" lon="-8.651161230199046"><ele>25.0</ele><time>2026-04-05T17:46:09.999Z</time></trkpt><trkpt lat="42.4184367404555" lon="-8.651252739482226"><ele>25.0</ele><time>2026-04-05T17:46:10.999Z</time></trkpt><trkpt lat="42.41822078295977" lon="-8.65135120698702"><ele>25.0</ele><time>2026-04-05T17:46:11.999Z</time></trkpt><trkpt lat="42.4180021297713" lon="-8.65145771070768"><ele>26.5</ele><time>2026-04-05T17:46:12.999Z</time></trkpt><trkpt lat="42.417786648747224" lon="-8.65156905970072"><ele>28.0</ele><time>2026-04-05T17:46:13.999Z</time></trkpt><trkpt lat="42.417569497609655" lon="-8.651690713049321"><ele>28.0</ele><time>2026-04-05T17:46:14.999Z</time></trkpt><trkpt lat="42.417358083233964" lon="-8.651816233045944"><ele>28.0</ele><time>2026-04-05T17:46:15.999Z</time></trkpt><trkpt lat="42.417147389130704" lon="-8.651946365912764"><ele>28.5</ele><time>2026-04-05T17:46:16.999Z</time></trkpt><trkpt lat="42.41693295202955" lon="-8.652078341833489"><ele>29.0</ele><time>2026-04-05T17:46:17.999Z</time></trkpt><trkpt lat="42.416721468027504" lon="-8.652213426712724"><ele>29.0</ele><time>2026-04-05T17:46:18.999Z</time></trkpt><trkpt lat="42.416511013594665" lon="-8.6523470472705"><ele>29.0</ele><time>2026-04-05T17:46:19.999Z</time></trkpt><trkpt lat="42.41630138523354" lon="-8.652484557943907"><ele>33.5</ele><time>2026-04-05T17:46:20.999Z</time></trkpt><trkpt lat="42.416088938097225" lon="-8.652622197455743"><ele>38.0</ele><time>2026-04-05T17:46:21.999Z</time></trkpt><trkpt lat="42.41587467410581" lon="-8.652752797666443"><ele>36.5</ele><time>2026-04-05T17:46:22.999Z</time></trkpt><trkpt lat="42.41566055674701" lon="-8.652881999284357"><ele>35.0</ele><time>2026-04-05T17:46:23.999Z</time></trkpt><trkpt lat="42.41543979680157" lon="-8.653011192620804"><ele>35.0</ele><time>2026-04-05T17:46:24.999Z</time></trkpt><trkpt lat="42.41523275885197" lon="-8.653128458591373"><ele>35.0</ele><time>2026-04-05T17:46:25.999Z</time></trkpt><trkpt lat="42.41503559086938" lon="-8.65323425509588"><ele>35.0</ele><time>2026-04-05T17:46:26.999Z</time></trkpt><trkpt lat="42.41485055293337" lon="-8.65332828758613"><ele>35.0</ele><time>2026-04-05T17:46:27.999Z</time></trkpt><trkpt lat="42.41466829927369" lon="-8.653416006791353"><ele>35.0</ele><time>2026-04-05T17:46:28.999Z</time></trkpt><trkpt lat="42.41448324395023" lon="-8.653499969632135"><ele>35.0</ele><time>2026-04-05T17:46:29.999Z</time></trkpt><trkpt lat="42.41429911573047" lon="-8.653570886682312"><ele>36.0</ele><time>2026-04-05T17:46:30.999Z</time></trkpt><trkpt lat="42.414117916347166" lon="-8.653636627760584"><ele>37.0</ele><time>2026-04-05T17:46:31.999Z</time></trkpt><trkpt lat="42.41394392832824" lon="-8.653701153270159"><ele>38.0</ele><time>2026-04-05T17:46:32.999Z</time></trkpt><trkpt lat="42.41377302827507" lon="-8.653765604540352"><ele>38.666666666666664</ele><time>2026-04-05T17:46:33.999Z</time></trkpt><trkpt lat="42.413591704422345" lon="-8.653825726579841"><ele>39.333333333333336</ele><time>2026-04-05T17:46:34.999Z</time></trkpt><trkpt lat="42.413415039439315" lon="-8.65387837881915"><ele>40.0</ele><time>2026-04-05T17:46:35.999Z</time></trkpt><trkpt lat="42.413255720708364" lon="-8.653918068918323"><ele>40.0</ele><time>2026-04-05T17:46:36.999Z</time></trkpt><trkpt lat="42.41310078667903" lon="-8.653943683406412"><ele>40.0</ele><time>2026-04-05T17:46:37.999Z</time></trkpt><trkpt lat="42.412955502609" lon="-8.65398272409741"><ele>40.0</ele><time>2026-04-05T17:46:38.999Z</time></trkpt><trkpt lat="42.41282386305297" lon="-8.654041205959972"><ele>40.0</ele><time>2026-04-05T17:46:39.999Z</time></trkpt><trkpt lat="42.41271289993701" lon="-8.654126574398166"><ele>40.5</ele><time>2026-04-05T17:46:40.999Z</time></trkpt><trkpt lat="42.41262700660543" lon="-8.654250014612218"><ele>41.0</ele><time>2026-04-05T17:46:41.999Z</time></trkpt><trkpt lat="42.412579198563904" lon="-8.654400684340162"><ele>41.5</ele><time>2026-04-05T17:46:42.999Z</time></trkpt><trkpt lat="42.412573292361415" lon="-8.654568146806417"><ele>42.0</ele><time>2026-04-05T17:46:43.999Z</time></trkpt><trkpt lat="42.41260792809322" lon="-8.654734919805097"><ele>42.0</ele><time>2026-04-05T17:46:44.999Z</time></trkpt><trkpt lat="42.41267958866044" lon="-8.654871860104096"><ele>42.0</ele><time>2026-04-05T17:46:45.999Z</time></trkpt><trkpt lat="42.41277826336667" lon="-8.654971737584052"><ele>42.0</ele><time>2026-04-05T17:46:46.999Z</time></trkpt><trkpt lat="42.41289486844074" lon="-8.655027448594748"><ele>42.0</ele><time>2026-04-05T17:46:47.999Z</time></trkpt><trkpt lat="42.41302216288117" lon="-8.655032726912486"><ele>41.0</ele><time>2026-04-05T17:46:48.999Z</time></trkpt><trkpt lat="42.41314322585563" lon="-8.654979558946605"><ele>40.0</ele><time>2026-04-05T17:46:49.999Z</time></trkpt><trkpt lat="42.41324616893224" lon="-8.654865073100435"><ele>39.0</ele><time>2026-04-05T17:46:50.999Z</time></trkpt><trkpt lat="42.41332210740534" lon="-8.65469232990146"><ele>38.0</ele><time>2026-04-05T17:46:51.999Z</time></trkpt><trkpt lat="42.41337323310399" lon="-8.654499463372154"><ele>38.5</ele><time>2026-04-05T17:46:52.999Z</time></trkpt><trkpt lat="42.413408823910395" lon="-8.654316639722607"><ele>39.0</ele><time>2026-04-05T17:46:53.999Z</time></trkpt><trkpt lat="42.41345104288914" lon="-8.65412201406963"><ele>39.5</ele><time>2026-04-05T17:46:55Z</time></trkpt><trkpt lat="42.41350443767592" lon="-8.65392703867075"><ele>40.0</ele><time>2026-04-05T17:46:56Z</time></trkpt><trkpt lat="42.41356329904159" lon="-8.653724162040414"><ele>42.0</ele><time>2026-04-05T17:46:57Z</time></trkpt><trkpt lat="42.41362576819574" lon="-8.653516881672083"><ele>44.0</ele><time>2026-04-05T17:46:58Z</time></trkpt><trkpt lat="42.413692717879" lon="-8.653306027560587"><ele>46.0</ele><time>2026-04-05T17:46:59Z</time></trkpt><trkpt lat="42.413763175669324" lon="-8.653092331631836"><ele>46.333333333333336</ele><time>2026-04-05T17:47:00Z</time></trkpt><trkpt lat="42.413838131453055" lon="-8.652879280448781"><ele>46.666666666666664</ele><time>2026-04-05T17:47:01Z</time></trkpt><trkpt lat="42.413918049431736" lon="-8.652660710434766"><ele>47.0</ele><time>2026-04-05T17:47:02Z</time></trkpt><trkpt lat="42.41399960785361" lon="-8.652436450311479"><ele>47.0</ele><time>2026-04-05T17:47:03Z</time></trkpt><trkpt lat="42.41408446536379" lon="-8.65220819121651"><ele>47.0</ele><time>2026-04-05T17:47:04Z</time></trkpt><trkpt lat="42.41417071479559" lon="-8.651975602223692"><ele>47.0</ele><time>2026-04-05T17:47:05Z</time></trkpt><trkpt lat="42.41426097144189" lon="-8.651742097036248"><ele>48.0</ele><time>2026-04-05T17:47:06Z</time></trkpt><trkpt lat="42.41435486997684" lon="-8.651503135726212"><ele>49.0</ele><time>2026-04-05T17:47:07Z</time></trkpt><trkpt lat="42.41444634157598" lon="-8.651255914165475"><ele>50.0</ele><time>2026-04-05T17:47:08Z</time></trkpt><trkpt lat="42.41453646478759" lon="-8.651003844604634"><ele>51.66666666666667</ele><time>2026-04-05T17:47:09Z</time></trkpt><trkpt lat="42.414625526625024" lon="-8.650746557247292"><ele>53.33333333333333</ele><time>2026-04-05T17:47:10Z</time></trkpt><trkpt lat="42.41470802531277" lon="-8.650479357036538"><ele>55.0</ele><time>2026-04-05T17:47:11Z</time></trkpt><trkpt lat="42.41478129027133" lon="-8.650197481322689"><ele>55.0</ele><time>2026-04-05T17:47:12Z</time></trkpt><trkpt lat="42.41485248041591" lon="-8.64992341479252"><ele>55.0</ele><time>2026-04-05T17:47:13Z</time></trkpt><trkpt lat="42.414910762861844" lon="-8.64966553325617"><ele>55.0</ele><time>2026-04-05T17:47:14Z</time></trkpt><trkpt lat="42.414969750710306" lon="-8.64939557176715"><ele>55.0</ele><time>2026-04-05T17:47:15Z</time></trkpt><trkpt lat="42.415029677495085" lon="-8.64912279003915"><ele>55.0</ele><time>2026-04-05T17:47:16Z</time></trkpt><trkpt lat="42.41508943215378" lon="-8.64884173640565"><ele>55.0</ele><time>2026-04-05T17:47:17Z</time></trkpt><trkpt lat="42.415154109160845" lon="-8.648562676649693"><ele>55.0</ele><time>2026-04-05T17:47:18Z</time></trkpt><trkpt lat="42.41522055970965" lon="-8.648289692551627"><ele>55.0</ele><time>2026-04-05T17:47:19Z</time></trkpt><trkpt lat="42.415293778982864" lon="-8.648021701975212"><ele>55.0</ele><time>2026-04-05T17:47:20Z</time></trkpt><trkpt lat="42.415378732722985" lon="-8.647770217433747"><ele>55.666666666666664</ele><time>2026-04-05T17:47:21Z</time></trkpt><trkpt lat="42.41548184246574" lon="-8.647529453306735"><ele>56.33333333333333</ele><time>2026-04-05T17:47:22Z</time></trkpt><trkpt lat="42.41560775988767" lon="-8.647282685615687"><ele>57.0</ele><time>2026-04-05T17:47:23Z</time></trkpt><trkpt lat="42.41574022890468" lon="-8.647034910622633"><ele>59.0</ele><time>2026-04-05T17:47:24Z</time></trkpt><trkpt lat="42.41587339946803" lon="-8.646783904787682"><ele>61.0</ele><time>2026-04-05T17:47:25Z</time></trkpt><trkpt lat="42.41601015553239" lon="-8.64652415147489"><ele>61.0</ele><time>2026-04-05T17:47:26Z</time></trkpt><trkpt lat="42.41613844860671" lon="-8.646256186539047"><ele>61.0</ele><time>2026-04-05T17:47:27Z</time></trkpt><trkpt lat="42.416255838975786" lon="-8.645980467895525"><ele>53.5</ele><time>2026-04-05T17:47:28Z</time></trkpt><trkpt lat="42.41635292823303" lon="-8.645686227137595"><ele>46.0</ele><time>2026-04-05T17:47:29Z</time></trkpt><trkpt lat="42.41642553846713" lon="-8.64538386870836"><ele>45.5</ele><time>2026-04-05T17:47:30Z</time></trkpt><trkpt lat="42.416472204841305" lon="-8.645072033242798"><ele>45.0</ele><time>2026-04-05T17:47:31Z</time></trkpt><trkpt lat="42.416493268225764" lon="-8.64475332538078"><ele>48.5</ele><time>2026-04-05T17:47:32Z</time></trkpt><trkpt lat="42.416474498126576" lon="-8.644428940306305"><ele>52.0</ele><time>2026-04-05T17:47:33Z</time></trkpt><trkpt lat="42.41644375001772" lon="-8.644107767806934"><ele>52.0</ele><time>2026-04-05T17:47:34Z</time></trkpt><trkpt lat="42.41640255430605" lon="-8.643787929742436"><ele>52.0</ele><time>2026-04-05T17:47:35Z</time></trkpt><trkpt lat="42.41636618503302" lon="-8.643461881026145"><ele>60.5</ele><time>2026-04-05T17:47:36Z</time></trkpt><trkpt lat="42.416319719814226" lon="-8.643145212364356"><ele>69.0</ele><time>2026-04-05T17:47:37Z</time></trkpt><trkpt lat="42.41629010300066" lon="-8.64281314094717"><ele>70.5</ele><time>2026-04-05T17:47:38Z</time></trkpt><trkpt lat="42.416288813995614" lon="-8.64248716536096"><ele>72.0</ele><time>2026-04-05T17:47:39Z</time></trkpt><trkpt lat="42.41630399165487" lon="-8.64215747012515"><ele>64.5</ele><time>2026-04-05T17:47:40Z</time></trkpt><trkpt lat="42.41633960183293" lon="-8.641822118605436"><ele>57.0</ele><time>2026-04-05T17:47:41Z</time></trkpt><trkpt lat="42.41636659618861" lon="-8.641492106802882"><ele>57.0</ele><time>2026-04-05T17:47:42Z</time></trkpt><trkpt lat="42.416387060758396" lon="-8.64115533573944"><ele>57.0</ele><time>2026-04-05T17:47:43Z</time></trkpt><trkpt lat="42.41640155940182" lon="-8.640817643149054"><ele>55.0</ele><time>2026-04-05T17:47:44Z</time></trkpt><trkpt lat="42.41641563592106" lon="-8.640475853351962"><ele>53.0</ele><time>2026-04-05T17:47:45Z</time></trkpt><trkpt lat="42.41642373061916" lon="-8.640138776099846"><ele>49.0</ele><time>2026-04-05T17:47:46Z</time></trkpt><trkpt lat="42.41643995258547" lon="-8.639790087911305"><ele>45.0</ele><time>2026-04-05T17:47:47Z</time></trkpt><trkpt lat="42.41646022789944" lon="-8.639440537626951"><ele>40.0</ele><time>2026-04-05T17:47:48Z</time></trkpt><trkpt lat="42.416476390301405" lon="-8.639090019220033"><ele>35.0</ele><time>2026-04-05T17:47:49Z</time></trkpt><trkpt lat="42.416484616596826" lon="-8.638744032895566"><ele>32.0</ele><time>2026-04-05T17:47:50Z</time></trkpt><trkpt lat="42.416487589911256" lon="-8.63841315491284"><ele>29.0</ele><time>2026-04-05T17:47:51Z</time></trkpt><trkpt lat="42.416493002227284" lon="-8.63810735821324"><ele>29.0</ele><time>2026-04-05T17:47:52Z</time></trkpt><trkpt lat="42.41649695961153" lon="-8.637810423695027"><ele>29.0</ele><time>2026-04-05T17:47:53Z</time></trkpt><trkpt lat="42.416498755198205" lon="-8.637533557909437"><ele>29.0</ele><time>2026-04-05T17:47:54Z</time></trkpt><trkpt lat="42.41650782796069" lon="-8.637262400507842"><ele>29.0</ele><time>2026-04-05T17:47:55Z</time></trkpt><trkpt lat="42.416511939469565" lon="-8.636999759138327"><ele>29.0</ele><time>2026-04-05T17:47:56Z</time></trkpt><trkpt lat="42.41651738315769" lon="-8.636744280648369"><ele>29.0</ele><time>2026-04-05T17:47:57Z</time></trkpt><trkpt lat="42.41652810121927" lon="-8.636490610794208"><ele>27.333333333333332</ele><time>2026-04-05T17:47:58Z</time></trkpt><trkpt lat="42.41651924770025" lon="-8.636251598567227"><ele>25.666666666666664</ele><time>2026-04-05T17:47:59Z</time></trkpt><trkpt lat="42.41654423693282" lon="-8.636020209236523"><ele>24.0</ele><time>2026-04-05T17:48:00Z</time></trkpt><trkpt lat="42.416555543564954" lon="-8.635785501717288"><ele>22.666666666666668</ele><time>2026-04-05T17:48:01Z</time></trkpt><trkpt lat="42.416571107238134" lon="-8.635563420165658"><ele>21.333333333333336</ele><time>2026-04-05T17:48:02Z</time></trkpt><trkpt lat="42.41658621541088" lon="-8.635341697709338"><ele>20.0</ele><time>2026-04-05T17:48:03Z</time></trkpt><trkpt lat="42.41659702191096" lon="-8.635123480652366"><ele>20.0</ele><time>2026-04-05T17:48:04Z</time></trkpt><trkpt lat="42.416610053864595" lon="-8.634912671160363"><ele>20.0</ele><time>2026-04-05T17:48:05Z</time></trkpt><trkpt lat="42.4166258648616" lon="-8.634718796562568"><ele>20.0</ele><time>2026-04-05T17:48:06Z</time></trkpt><trkpt lat="42.41664419999727" lon="-8.634536937414952"><ele>20.0</ele><time>2026-04-05T17:48:07Z</time></trkpt><trkpt lat="42.416656326885594" lon="-8.634370302505754"><ele>19.8</ele><time>2026-04-05T17:48:08Z</time></trkpt><trkpt lat="42.416653052308355" lon="-8.634219269802083"><ele>19.6</ele><time>2026-04-05T17:48:09Z</time></trkpt><trkpt lat="42.416626930673154" lon="-8.634064344116537"><ele>19.4</ele><time>2026-04-05T17:48:10Z</time></trkpt><trkpt lat="42.4165876146789" lon="-8.633952940259661"><ele>19.2</ele><time>2026-04-05T17:48:11Z</time></trkpt><trkpt lat="42.416535006219796" lon="-8.633835945992749"><ele>19.0</ele><time>2026-04-05T17:48:12Z</time></trkpt><trkpt lat="42.4165103142985" lon="-8.63373456163311"><ele>19.0</ele><time>2026-04-05T17:48:13Z</time></trkpt><trkpt lat="42.41653209588278" lon="-8.633646839409636"><ele>19.0</ele><time>2026-04-05T17:48:14Z</time></trkpt><trkpt lat="42.41659549311016" lon="-8.633567715783952"><ele>19.0</ele><time>2026-04-05T17:48:15Z</time></trkpt><trkpt lat="42.41668182843547" lon="-8.633500078224921"><ele>19.0</ele><time>2026-04-05T17:48:16Z</time></trkpt><trkpt lat="42.41675099272375" lon="-8.633416819704578"><ele>19.0</ele><time>2026-04-05T17:48:17Z</time></trkpt><trkpt lat="42.41678820493172" lon="-8.633279312274054"><ele>19.0</ele><time>2026-04-05T17:48:18Z</time></trkpt><trkpt lat="42.41679874107929" lon="-8.633109852522875"><ele>19.0</ele><time>2026-04-05T17:48:19Z</time></trkpt><trkpt lat="42.41680140619385" lon="-8.632932736218779"><ele>19.0</ele><time>2026-04-05T17:48:20Z</time></trkpt><trkpt lat="42.41681708200241" lon="-8.632751267414402"><ele>19.0</ele><time>2026-04-05T17:48:21Z</time></trkpt><trkpt lat="42.416831638330784" lon="-8.632558674208383"><ele>20.0</ele><time>2026-04-05T17:48:22Z</time></trkpt><trkpt lat="42.41684369628511" lon="-8.632362932989668"><ele>21.0</ele><time>2026-04-05T17:48:23Z</time></trkpt><trkpt lat="42.416855308249914" lon="-8.632162285986192"><ele>22.0</ele><time>2026-04-05T17:48:24Z</time></trkpt><trkpt lat="42.416871594160746" lon="-8.631967916014977"><ele>23.0</ele><time>2026-04-05T17:48:25Z</time></trkpt><trkpt lat="42.41688611001935" lon="-8.631756724879146"><ele>24.0</ele><time>2026-04-05T17:48:25.999Z</time></trkpt><trkpt lat="42.41690452537391" lon="-8.631545906841389"><ele>25.0</ele><time>2026-04-05T17:48:26.999Z</time></trkpt><trkpt lat="42.416923441495776" lon="-8.631328806492178"><ele>26.0</ele><time>2026-04-05T17:48:27.999Z</time></trkpt><trkpt lat="42.416945076820795" lon="-8.63110806804895"><ele>27.0</ele><time>2026-04-05T17:48:28.999Z</time></trkpt><trkpt lat="42.41697019962323" lon="-8.630882428034061"><ele>28.0</ele><time>2026-04-05T17:48:29.999Z</time></trkpt><trkpt lat="42.41700675640207" lon="-8.630648029893342"><ele>29.0</ele><time>2026-04-05T17:48:30.999Z</time></trkpt><trkpt lat="42.417065339139995" lon="-8.63043239749975"><ele>28.666666666666664</ele><time>2026-04-05T17:48:31.999Z</time></trkpt><trkpt lat="42.41714959223647" lon="-8.630216084978736"><ele>28.333333333333336</ele><time>2026-04-05T17:48:32.999Z</time></trkpt><trkpt lat="42.41720561416626" lon="-8.629988631245945"><ele>28.0</ele><time>2026-04-05T17:48:33.999Z</time></trkpt><trkpt lat="42.41738853359313" lon="-8.629848312892873"><ele>29.333333333333336</ele><time>2026-04-05T17:48:34.999Z</time></trkpt><trkpt lat="42.41753821878532" lon="-8.629695687431031"><ele>30.666666666666664</ele><time>2026-04-05T17:48:35.999Z</time></trkpt><trkpt lat="42.41768011850467" lon="-8.629526252986956"><ele>32.0</ele><time>2026-04-05T17:48:36.999Z</time></trkpt><trkpt lat="42.417799781640845" lon="-8.629325189267023"><ele>32.0</ele><time>2026-04-05T17:48:37.999Z</time></trkpt><trkpt lat="42.41789614193931" lon="-8.62910646609938"><ele>32.0</ele><time>2026-04-05T17:48:38.999Z</time></trkpt><trkpt lat="42.41795814514171" lon="-8.628878087302116"><ele>32.0</ele><time>2026-04-05T17:48:39.999Z</time></trkpt><trkpt lat="42.417995389447356" lon="-8.62863049917173"><ele>32.0</ele><time>2026-04-05T17:48:40.999Z</time></trkpt><trkpt lat="42.41801523934893" lon="-8.628370248926146"><ele>32.0</ele><time>2026-04-05T17:48:41.999Z</time></trkpt><trkpt lat="42.41802696309013" lon="-8.62809713751899"><ele>32.0</ele><time>2026-04-05T17:48:42.999Z</time></trkpt><trkpt lat="42.41804689814512" lon="-8.627843330194077"><ele>31.666666666666664</ele><time>2026-04-05T17:48:43.999Z</time></trkpt><trkpt lat="42.41806950527669" lon="-8.627600524671132"><ele>31.333333333333336</ele><time>2026-04-05T17:48:44.999Z</time></trkpt><trkpt lat="42.4180925075607" lon="-8.627375621004749"><ele>31.0</ele><time>2026-04-05T17:48:45.999Z</time></trkpt><trkpt lat="42.41810690373682" lon="-8.627161214193729"><ele>31.25</ele><time>2026-04-05T17:48:46.999Z</time></trkpt><trkpt lat="42.418123307325956" lon="-8.626953990502797"><ele>31.5</ele><time>2026-04-05T17:48:47.999Z</time></trkpt><trkpt lat="42.41813466240058" lon="-8.626761343064308"><ele>31.75</ele><time>2026-04-05T17:48:48.999Z</time></trkpt><trkpt lat="42.41812503326311" lon="-8.626578328041395"><ele>32.0</ele><time>2026-04-05T17:48:49.999Z</time></trkpt><trkpt lat="42.41808399817144" lon="-8.626402662050225"><ele>32.0</ele><time>2026-04-05T17:48:50.999Z</time></trkpt><trkpt lat="42.41804897980207" lon="-8.626226134961795"><ele>32.0</ele><time>2026-04-05T17:48:51.999Z</time></trkpt><trkpt lat="42.418046416038784" lon="-8.626018744398493"><ele>32.0</ele><time>2026-04-05T17:48:52.999Z</time></trkpt><trkpt lat="42.41805078893412" lon="-8.625806181802998"><ele>32.0</ele><time>2026-04-05T17:48:53.999Z</time></trkpt><trkpt lat="42.41802243941494" lon="-8.625591342543697"><ele>33.666666666666664</ele><time>2026-04-05T17:48:54.999Z</time></trkpt><trkpt lat="42.417953818764154" lon="-8.625387207567321"><ele>35.333333333333336</ele><time>2026-04-05T17:48:55.999Z</time></trkpt><trkpt lat="42.41784018227577" lon="-8.62520560199067"><ele>37.0</ele><time>2026-04-05T17:48:56.999Z</time></trkpt><trkpt lat="42.417704890986386" lon="-8.625051185822345"><ele>38.0</ele><time>2026-04-05T17:48:58Z</time></trkpt><trkpt lat="42.417566479859" lon="-8.624895918197877"><ele>39.0</ele><time>2026-04-05T17:48:59Z</time></trkpt><trkpt lat="42.417436074698514" lon="-8.624724798675784"><ele>40.0</ele><time>2026-04-05T17:49:00Z</time></trkpt><trkpt lat="42.4173207225571" lon="-8.62453296026571"><ele>39.333333333333336</ele><time>2026-04-05T17:49:01Z</time></trkpt><trkpt lat="42.41723129377659" lon="-8.624311828276813"><ele>38.666666666666664</ele><time>2026-04-05T17:49:02Z</time></trkpt><trkpt lat="42.41715775704625" lon="-8.624075640098305"><ele>38.0</ele><time>2026-04-05T17:49:03Z</time></trkpt><trkpt lat="42.4170846074229" lon="-8.623846407331452"><ele>40.666666666666664</ele><time>2026-04-05T17:49:04Z</time></trkpt><trkpt lat="42.41700002675647" lon="-8.623620405775668"><ele>43.333333333333336</ele><time>2026-04-05T17:49:05Z</time></trkpt><trkpt lat="42.41689719723109" lon="-8.623410433731957"><ele>46.0</ele><time>2026-04-05T17:49:06Z</time></trkpt><trkpt lat="42.41676924003365" lon="-8.623223735770376"><ele>46.0</ele><time>2026-04-05T17:49:07Z</time></trkpt><trkpt lat="42.416616280507554" lon="-8.623072895050955"><ele>46.0</ele><time>2026-04-05T17:49:08Z</time></trkpt><trkpt lat="42.416447726620625" lon="-8.62294838066974"><ele>46.0</ele><time>2026-04-05T17:49:09Z</time></trkpt><trkpt lat="42.416272176419064" lon="-8.622843252367407"><ele>46.66666666666667</ele><time>2026-04-05T17:49:10Z</time></trkpt><trkpt lat="42.416099518374196" lon="-8.622737505158222"><ele>47.333333333333336</ele><time>2026-04-05T17:49:11Z</time></trkpt><trkpt lat="42.4159286769403" lon="-8.622634853141841"><ele>48.0</ele><time>2026-04-05T17:49:12Z</time></trkpt><trkpt lat="42.41575596009743" lon="-8.622528168474483"><ele>48.0</ele><time>2026-04-05T17:49:13Z</time></trkpt><trkpt lat="42.41560590566184" lon="-8.62242540509148"><ele>48.0</ele><time>2026-04-05T17:49:14Z</time></trkpt><trkpt lat="42.41546906250542" lon="-8.622324875786575"><ele>48.0</ele><time>2026-04-05T17:49:15Z</time></trkpt><trkpt lat="42.41534648810311" lon="-8.62223760060075"><ele>51.5</ele><time>2026-04-05T17:49:16Z</time></trkpt><trkpt lat="42.4152258345993" lon="-8.622155537723469"><ele>55.0</ele><time>2026-04-05T17:49:17Z</time></trkpt><trkpt lat="42.41510977811536" lon="-8.622077060863415"><ele>58.5</ele><time>2026-04-05T17:49:18Z</time></trkpt><trkpt lat="42.4149808387409" lon="-8.622011268371288"><ele>62.0</ele><time>2026-04-05T17:49:19Z</time></trkpt><trkpt lat="42.41487223669787" lon="-8.622003080187355"><ele>62.0</ele><time>2026-04-05T17:49:20Z</time></trkpt><trkpt lat="42.41476412678562" lon="-8.622012469002637"><ele>62.0</ele><time>2026-04-05T17:49:21Z</time></trkpt><trkpt lat="42.41467854441565" lon="-8.621978387950954"><ele>62.0</ele><time>2026-04-05T17:49:22Z</time></trkpt><trkpt lat="42.41461048849106" lon="-8.621868445208655"><ele>62.0</ele><time>2026-04-05T17:49:23Z</time></trkpt><trkpt lat="42.414559933114546" lon="-8.621713576816965"><ele>62.0</ele><time>2026-04-05T17:49:24Z</time></trkpt><trkpt lat="42.414526333040776" lon="-8.621533360333551"><ele>62.5</ele><time>2026-04-05T17:49:25Z</time></trkpt><trkpt lat="42.4144807950193" lon="-8.621359578167596"><ele>63.0</ele><time>2026-04-05T17:49:26Z</time></trkpt><trkpt lat="42.41439901129077" lon="-8.621204451149628"><ele>63.5</ele><time>2026-04-05T17:49:27Z</time></trkpt><trkpt lat="42.414295463894724" lon="-8.621068185798329"><ele>64.0</ele><time>2026-04-05T17:49:28Z</time></trkpt><trkpt lat="42.41419019735874" lon="-8.620926633783982"><ele>64.0</ele><time>2026-04-05T17:49:29Z</time></trkpt><trkpt lat="42.41408702523394" lon="-8.620779136165838"><ele>64.0</ele><time>2026-04-05T17:49:30Z</time></trkpt><trkpt lat="42.41398108949956" lon="-8.620621923160833"><ele>64.0</ele><time>2026-04-05T17:49:31Z</time></trkpt><trkpt lat="42.413877296108545" lon="-8.62046555721661"><ele>67.0</ele><time>2026-04-05T17:49:32Z</time></trkpt><trkpt lat="42.413771511234415" lon="-8.620303244560459"><ele>70.0</ele><time>2026-04-05T17:49:33Z</time></trkpt><trkpt lat="42.41366601988082" lon="-8.620134643041464"><ele>73.0</ele><time>2026-04-05T17:49:34Z</time></trkpt><trkpt lat="42.41356051374204" lon="-8.619967136593514"><ele>73.0</ele><time>2026-04-05T17:49:35Z</time></trkpt><trkpt lat="42.413452056550646" lon="-8.619797315526327"><ele>73.0</ele><time>2026-04-05T17:49:36Z</time></trkpt><trkpt lat="42.41333784689222" lon="-8.61963072118912"><ele>73.0</ele><time>2026-04-05T17:49:37Z</time></trkpt><trkpt lat="42.41321438174416" lon="-8.619472145352253"><ele>72.66666666666666</ele><time>2026-04-05T17:49:38Z</time></trkpt><trkpt lat="42.41307971564492" lon="-8.619331780509693"><ele>72.33333333333333</ele><time>2026-04-05T17:49:39Z</time></trkpt><trkpt lat="42.41292954225609" lon="-8.619211839255765"><ele>72.0</ele><time>2026-04-05T17:49:40Z</time></trkpt><trkpt lat="42.412772316646446" lon="-8.619110923711636"><ele>74.33333333333333</ele><time>2026-04-05T17:49:41Z</time></trkpt><trkpt lat="42.41260801969255" lon="-8.619023564355674"><ele>76.66666666666666</ele><time>2026-04-05T17:49:42Z</time></trkpt><trkpt lat="42.41244036418953" lon="-8.61894205111992"><ele>79.0</ele><time>2026-04-05T17:49:43Z</time></trkpt><trkpt lat="42.412272404920486" lon="-8.618860542974549"><ele>82.0</ele><time>2026-04-05T17:49:44Z</time></trkpt><trkpt lat="42.412103381145386" lon="-8.618777667077502"><ele>85.0</ele><time>2026-04-05T17:49:45Z</time></trkpt><trkpt lat="42.411932568127796" lon="-8.618677394396707"><ele>88.0</ele><time>2026-04-05T17:49:46Z</time></trkpt><trkpt lat="42.411763923559825" lon="-8.61855823659358"><ele>88.0</ele><time>2026-04-05T17:49:47Z</time></trkpt><trkpt lat="42.411606248965334" lon="-8.618420317201135"><ele>88.0</ele><time>2026-04-05T17:49:48Z</time></trkpt><trkpt lat="42.41145652779104" lon="-8.618250202917205"><ele>88.0</ele><time>2026-04-05T17:49:49Z</time></trkpt><trkpt lat="42.411312009486686" lon="-8.618068677398654"><ele>92.0</ele><time>2026-04-05T17:49:50Z</time></trkpt><trkpt lat="42.411169550090854" lon="-8.61788410028378"><ele>96.0</ele><time>2026-04-05T17:49:51Z</time></trkpt><trkpt lat="42.411032746978684" lon="-8.617685612402722"><ele>100.0</ele><time>2026-04-05T17:49:52Z</time></trkpt><trkpt lat="42.410913928304815" lon="-8.617491601480276"><ele>100.0</ele><time>2026-04-05T17:49:53Z</time></trkpt><trkpt lat="42.41081301667197" lon="-8.617301290355478"><ele>100.0</ele><time>2026-04-05T17:49:54Z</time></trkpt><trkpt lat="42.410752313686444" lon="-8.617094409041464"><ele>100.0</ele><time>2026-04-05T17:49:55Z</time></trkpt><trkpt lat="42.41072320252261" lon="-8.616887785993123"><ele>97.25</ele><time>2026-04-05T17:49:56Z</time></trkpt><trkpt lat="42.41070964296638" lon="-8.616694913240602"><ele>94.5</ele><time>2026-04-05T17:49:57Z</time></trkpt><trkpt lat="42.41071628758785" lon="-8.616514030751896"><ele>91.75</ele><time>2026-04-05T17:49:58Z</time></trkpt><trkpt lat="42.41073383060718" lon="-8.616338320054519"><ele>89.0</ele><time>2026-04-05T17:49:59Z</time></trkpt><trkpt lat="42.41077165935206" lon="-8.616183171951748"><ele>90.0</ele><time>2026-04-05T17:50:00Z</time></trkpt><trkpt lat="42.410818893427184" lon="-8.61603292078709"><ele>91.0</ele><time>2026-04-05T17:50:01Z</time></trkpt><trkpt lat="42.41087980866651" lon="-8.61588765173735"><ele>92.0</ele><time>2026-04-05T17:50:02Z</time></trkpt><trkpt lat="42.410946607478415" lon="-8.615743288941147"><ele>93.0</ele><time>2026-04-05T17:50:03Z</time></trkpt><trkpt lat="42.41101851365523" lon="-8.615607449008214"><ele>93.0</ele><time>2026-04-05T17:50:04Z</time></trkpt><trkpt lat="42.41109333723869" lon="-8.615485033057903"><ele>93.0</ele><time>2026-04-05T17:50:05Z</time></trkpt><trkpt lat="42.41117849539916" lon="-8.61535730638056"><ele>93.0</ele><time>2026-04-05T17:50:06Z</time></trkpt><trkpt lat="42.41126085840205" lon="-8.615233818320405"><ele>93.0</ele><time>2026-04-05T17:50:07Z</time></trkpt><trkpt lat="42.41133872069732" lon="-8.61511556608844"><ele>94.0</ele><time>2026-04-05T17:50:08Z</time></trkpt><trkpt lat="42.411416426246355" lon="-8.614996983013825"><ele>95.0</ele><time>2026-04-05T17:50:09Z</time></trkpt><trkpt lat="42.411490259981846" lon="-8.614883553497238"><ele>96.0</ele><time>2026-04-05T17:50:10Z</time></trkpt><trkpt lat="42.41156154511934" lon="-8.614774937803737"><ele>97.0</ele><time>2026-04-05T17:50:11Z</time></trkpt><trkpt lat="42.41163004759099" lon="-8.614662760924569"><ele>98.0</ele><time>2026-04-05T17:50:12Z</time></trkpt><trkpt lat="42.411697699831905" lon="-8.614547039311836"><ele>99.0</ele><time>2026-04-05T17:50:13Z</time></trkpt><trkpt lat="42.41177838042725" lon="-8.614426531869874"><ele>100.0</ele><time>2026-04-05T17:50:14Z</time></trkpt><trkpt lat="42.411863580566624" lon="-8.614295566760859"><ele>101.0</ele><time>2026-04-05T17:50:15Z</time></trkpt><trkpt lat="42.41195850711743" lon="-8.614148806012304"><ele>102.0</ele><time>2026-04-05T17:50:16Z</time></trkpt><trkpt lat="42.412049854254896" lon="-8.614009479419542"><ele>102.0</ele><time>2026-04-05T17:50:17Z</time></trkpt><trkpt lat="42.41214266648706" lon="-8.613852470856795"><ele>102.0</ele><time>2026-04-05T17:50:18Z</time></trkpt><trkpt lat="42.4122311931234" lon="-8.61370239847508"><ele>102.0</ele><time>2026-04-05T17:50:19Z</time></trkpt><trkpt lat="42.412328604828545" lon="-8.613547375348881"><ele>102.0</ele><time>2026-04-05T17:50:20Z</time></trkpt><trkpt lat="42.41241496770603" lon="-8.613375558808167"><ele>103.0</ele><time>2026-04-05T17:50:21Z</time></trkpt><trkpt lat="42.412496119458424" lon="-8.613191865042353"><ele>104.0</ele><time>2026-04-05T17:50:22Z</time></trkpt><trkpt lat="42.41256862338677" lon="-8.613003166231323"><ele>105.0</ele><time>2026-04-05T17:50:23Z</time></trkpt><trkpt lat="42.41264156052971" lon="-8.612808782524638"><ele>109.33333333333334</ele><time>2026-04-05T17:50:24Z</time></trkpt><trkpt lat="42.41270706232624" lon="-8.61260487634714"><ele>113.66666666666667</ele><time>2026-04-05T17:50:25Z</time></trkpt><trkpt lat="42.41276745305421" lon="-8.612393798916315"><ele>118.0</ele><time>2026-04-05T17:50:26Z</time></trkpt><trkpt lat="42.412843072888855" lon="-8.612172322800912"><ele>115.33333333333334</ele><time>2026-04-05T17:50:27Z</time></trkpt><trkpt lat="42.41290652366511" lon="-8.611955711598283"><ele>112.66666666666666</ele><time>2026-04-05T17:50:28Z</time></trkpt><trkpt lat="42.41297532563097" lon="-8.611731066536278"><ele>110.0</ele><time>2026-04-05T17:50:29Z</time></trkpt><trkpt lat="42.41305035027379" lon="-8.611514880254099"><ele>110.0</ele><time>2026-04-05T17:50:30Z</time></trkpt><trkpt lat="42.413147805453285" lon="-8.61130385678519"><ele>110.0</ele><time>2026-04-05T17:50:31Z</time></trkpt><trkpt lat="42.41325236819557" lon="-8.611099237586954"><ele>110.0</ele><time>2026-04-05T17:50:32Z</time></trkpt><trkpt lat="42.41336845731585" lon="-8.61089540312455"><ele>114.33333333333333</ele><time>2026-04-05T17:50:33Z</time></trkpt><trkpt lat="42.41348973094894" lon="-8.61070434933102"><ele>118.66666666666666</ele><time>2026-04-05T17:50:34Z</time></trkpt><trkpt lat="42.4136159977906" lon="-8.61051224751554"><ele>123.0</ele><time>2026-04-05T17:50:35Z</time></trkpt><trkpt lat="42.413741220700956" lon="-8.610324786713281"><ele>122.33333333333334</ele><time>2026-04-05T17:50:36Z</time></trkpt><trkpt lat="42.413854346510654" lon="-8.610106816547718"><ele>121.66666666666667</ele><time>2026-04-05T17:50:37Z</time></trkpt><trkpt lat="42.41399477470583" lon="-8.609923124471425"><ele>121.0</ele><time>2026-04-05T17:50:38Z</time></trkpt><trkpt lat="42.414117072325034" lon="-8.609720713410866"><ele>121.0</ele><time>2026-04-05T17:50:39Z</time></trkpt><trkpt lat="42.41423919461392" lon="-8.609516326616054"><ele>121.0</ele><time>2026-04-05T17:50:39.999Z</time></trkpt><trkpt lat="42.4143600149677" lon="-8.609307933099695"><ele>121.0</ele><time>2026-04-05T17:50:40.999Z</time></trkpt><trkpt lat="42.41447936237043" lon="-8.609095904539952"><ele>125.0</ele><time>2026-04-05T17:50:41.999Z</time></trkpt><trkpt lat="42.41458834941827" lon="-8.608875357060164"><ele>129.0</ele><time>2026-04-05T17:50:42.999Z</time></trkpt><trkpt lat="42.414696056192675" lon="-8.608646914433017"><ele>133.0</ele><time>2026-04-05T17:50:43.999Z</time></trkpt><trkpt lat="42.414790094273805" lon="-8.608423448578678"><ele>133.0</ele><time>2026-04-05T17:50:44.999Z</time></trkpt><trkpt lat="42.41486935480156" lon="-8.608222045969113"><ele>133.0</ele><time>2026-04-05T17:50:45.999Z</time></trkpt><trkpt lat="42.41493770118448" lon="-8.608032717606456"><ele>133.0</ele><time>2026-04-05T17:50:46.999Z</time></trkpt><trkpt lat="42.41500371329103" lon="-8.607848574267736"><ele>134.0</ele><time>2026-04-05T17:50:47.999Z</time></trkpt><trkpt lat="42.41507059618838" lon="-8.60765613978009"><ele>135.0</ele><time>2026-04-05T17:50:48.999Z</time></trkpt><trkpt lat="42.41511418507017" lon="-8.607456625418699"><ele>136.0</ele><time>2026-04-05T17:50:49.999Z</time></trkpt><trkpt lat="42.41518642665439" lon="-8.607275169761909"><ele>136.0</ele><time>2026-04-05T17:50:50.999Z</time></trkpt><trkpt lat="42.41524127058436" lon="-8.607084732281802"><ele>136.0</ele><time>2026-04-05T17:50:51.999Z</time></trkpt><trkpt lat="42.41529558753596" lon="-8.606900672401432"><ele>136.0</ele><time>2026-04-05T17:50:52.999Z</time></trkpt><trkpt lat="42.4153472192454" lon="-8.606720317151504"><ele>136.0</ele><time>2026-04-05T17:50:53.999Z</time></trkpt><trkpt lat="42.41539998009584" lon="-8.606543803866497"><ele>136.25</ele><time>2026-04-05T17:50:54.999Z</time></trkpt><trkpt lat="42.415454861577345" lon="-8.606367996621636"><ele>136.5</ele><time>2026-04-05T17:50:55.999Z</time></trkpt><trkpt lat="42.41550973605689" lon="-8.606187580796725"><ele>136.75</ele><time>2026-04-05T17:50:56.999Z</time></trkpt><trkpt lat="42.41556764652073" lon="-8.606002247782419"><ele>137.0</ele><time>2026-04-05T17:50:57.999Z</time></trkpt><trkpt lat="42.41562553617691" lon="-8.605817173708786"><ele>137.33333333333331</ele><time>2026-04-05T17:50:58.999Z</time></trkpt><trkpt lat="42.41567637793762" lon="-8.605616571387575"><ele>137.66666666666666</ele><time>2026-04-05T17:50:59.999Z</time></trkpt><trkpt lat="42.4157363166451" lon="-8.605415236767666"><ele>138.0</ele><time>2026-04-05T17:51:00.999Z</time></trkpt><trkpt lat="42.41579990977539" lon="-8.60521038882665"><ele>138.0</ele><time>2026-04-05T17:51:01.999Z</time></trkpt><trkpt lat="42.415866016045435" lon="-8.605006889601523"><ele>138.0</ele><time>2026-04-05T17:51:02.999Z</time></trkpt><trkpt lat="42.4159303215272" lon="-8.604804550938125"><ele>138.0</ele><time>2026-04-05T17:51:04Z</time></trkpt><trkpt lat="42.41599453531695" lon="-8.604614598263762"><ele>138.33333333333334</ele><time>2026-04-05T17:51:05Z</time></trkpt><trkpt lat="42.41607279681012" lon="-8.604426486737193"><ele>138.66666666666669</ele><time>2026-04-05T17:51:06Z</time></trkpt><trkpt lat="42.41617028830908" lon="-8.604256364238752"><ele>139.0</ele><time>2026-04-05T17:51:07Z</time></trkpt><trkpt lat="42.416284455554994" lon="-8.604098117471574"><ele>138.0</ele><time>2026-04-05T17:51:08Z</time></trkpt><trkpt lat="42.41641680602896" lon="-8.603965204247562"><ele>137.0</ele><time>2026-04-05T17:51:09Z</time></trkpt><trkpt lat="42.41656010170143" lon="-8.60384716698475"><ele>136.0</ele><time>2026-04-05T17:51:10Z</time></trkpt><trkpt lat="42.41670424892265" lon="-8.60374474457401"><ele>138.0</ele><time>2026-04-05T17:51:11Z</time></trkpt><trkpt lat="42.41685587586658" lon="-8.603660751415823"><ele>140.0</ele><time>2026-04-05T17:51:12Z</time></trkpt><trkpt lat="42.4170027765223" lon="-8.60358338307082"><ele>142.0</ele><time>2026-04-05T17:51:13Z</time></trkpt><trkpt lat="42.41713462763833" lon="-8.603509965106403"><ele>142.75</ele><time>2026-04-05T17:51:14Z</time></trkpt><trkpt lat="42.41725264079723" lon="-8.603435304519111"><ele>143.5</ele><time>2026-04-05T17:51:15Z</time></trkpt><trkpt lat="42.41737413218311" lon="-8.603351459724836"><ele>144.25</ele><time>2026-04-05T17:51:16Z</time></trkpt><trkpt lat="42.41749403277333" lon="-8.60326356743862"><ele>145.0</ele><time>2026-04-05T17:51:17Z</time></trkpt><trkpt lat="42.417613969791205" lon="-8.603167312994763"><ele>145.0</ele><time>2026-04-05T17:51:18Z</time></trkpt><trkpt lat="42.41773188073544" lon="-8.603049319777927"><ele>145.0</ele><time>2026-04-05T17:51:19Z</time></trkpt><trkpt lat="42.417844762062614" lon="-8.602928206185414"><ele>145.0</ele><time>2026-04-05T17:51:20Z</time></trkpt><trkpt lat="42.41795582041753" lon="-8.602794257889382"><ele>145.0</ele><time>2026-04-05T17:51:21Z</time></trkpt><trkpt lat="42.41806981092671" lon="-8.6026478768574"><ele>147.0</ele><time>2026-04-05T17:51:22Z</time></trkpt><trkpt lat="42.418187095636725" lon="-8.602504933551018"><ele>149.0</ele><time>2026-04-05T17:51:23Z</time></trkpt><trkpt lat="42.41830585590648" lon="-8.602354958676388"><ele>151.0</ele><time>2026-04-05T17:51:24Z</time></trkpt><trkpt lat="42.41842503146488" lon="-8.602214053294922"><ele>151.0</ele><time>2026-04-05T17:51:25Z</time></trkpt><trkpt lat="42.418543458264445" lon="-8.602075871374721"><ele>151.0</ele><time>2026-04-05T17:51:26Z</time></trkpt><trkpt lat="42.418653854838" lon="-8.60196831706474"><ele>151.0</ele><time>2026-04-05T17:51:27Z</time></trkpt><trkpt lat="42.41875862211608" lon="-8.60187111986476"><ele>151.0</ele><time>2026-04-05T17:51:28Z</time></trkpt><trkpt lat="42.41886431099003" lon="-8.601791758118631"><ele>152.5</ele><time>2026-04-05T17:51:29Z</time></trkpt><trkpt lat="42.41897138485047" lon="-8.601720367621423"><ele>154.0</ele><time>2026-04-05T17:51:30Z</time></trkpt><trkpt lat="42.41908113329442" lon="-8.601651790458558"><ele>155.5</ele><time>2026-04-05T17:51:31Z</time></trkpt><trkpt lat="42.41919567533863" lon="-8.60159860087578"><ele>157.0</ele><time>2026-04-05T17:51:32Z</time></trkpt><trkpt lat="42.419303769858615" lon="-8.60153780257465"><ele>157.0</ele><time>2026-04-05T17:51:33Z</time></trkpt><trkpt lat="42.41941207403788" lon="-8.60148387798502"><ele>157.0</ele><time>2026-04-05T17:51:34Z</time></trkpt><trkpt lat="42.419503284673674" lon="-8.601441134427263"><ele>157.0</ele><time>2026-04-05T17:51:35Z</time></trkpt><trkpt lat="42.41959661162225" lon="-8.601391299074402"><ele>157.0</ele><time>2026-04-05T17:51:36Z</time></trkpt><trkpt lat="42.41967677420524" lon="-8.601347506448196"><ele>157.0</ele><time>2026-04-05T17:51:37Z</time></trkpt><trkpt lat="42.41975677295793" lon="-8.601307975096049"><ele>157.0</ele><time>2026-04-05T17:51:38Z</time></trkpt><trkpt lat="42.419831192116334" lon="-8.601266958015557"><ele>157.0</ele><time>2026-04-05T17:51:39Z</time></trkpt><trkpt lat="42.41990035301138" lon="-8.601233645480413"><ele>157.0</ele><time>2026-04-05T17:51:40Z</time></trkpt><trkpt lat="42.42001414920116" lon="-8.601179735580038"><ele>157.0</ele><time>2026-04-05T17:51:42Z</time></trkpt><trkpt lat="42.42012323464465" lon="-8.601125612546493"><ele>157.0</ele><time>2026-04-05T17:51:44Z</time></trkpt><trkpt lat="42.42021158856504" lon="-8.6010699838562"><ele>157.75</ele><time>2026-04-05T17:51:46Z</time></trkpt><trkpt lat="42.4203359405458" lon="-8.601002813226252"><ele>158.5</ele><time>2026-04-05T17:51:48Z</time></trkpt><trkpt lat="42.42043844717164" lon="-8.600979890204929"><ele>159.25</ele><time>2026-04-05T17:51:49Z</time></trkpt><trkpt lat="42.42055846425209" lon="-8.600965055546691"><ele>160.0</ele><time>2026-04-05T17:51:50Z</time></trkpt><trkpt lat="42.42068455726233" lon="-8.6009386430545"><ele>160.0</ele><time>2026-04-05T17:51:51Z</time></trkpt><trkpt lat="42.42081968052677" lon="-8.600904985295127"><ele>160.0</ele><time>2026-04-05T17:51:52Z</time></trkpt><trkpt lat="42.420962107681696" lon="-8.600872872442727"><ele>160.0</ele><time>2026-04-05T17:51:53Z</time></trkpt><trkpt lat="42.421114174805446" lon="-8.600838416194023"><ele>160.0</ele><time>2026-04-05T17:51:54Z</time></trkpt><trkpt lat="42.421270131773746" lon="-8.600803943136498"><ele>159.75</ele><time>2026-04-05T17:51:55Z</time></trkpt><trkpt lat="42.421415709488265" lon="-8.600773346794483"><ele>159.5</ele><time>2026-04-05T17:51:56Z</time></trkpt><trkpt lat="42.42155728501414" lon="-8.600742258321517"><ele>159.25</ele><time>2026-04-05T17:51:57Z</time></trkpt><trkpt lat="42.42169995211244" lon="-8.600710629788301"><ele>159.0</ele><time>2026-04-05T17:51:58Z</time></trkpt><trkpt lat="42.421836069627666" lon="-8.60067956538185"><ele>159.0</ele><time>2026-04-05T17:51:59Z</time></trkpt><trkpt lat="42.42197329701624" lon="-8.600644209320574"><ele>159.0</ele><time>2026-04-05T17:52:00Z</time></trkpt><trkpt lat="42.42210747631353" lon="-8.600606959688953"><ele>159.0</ele><time>2026-04-05T17:52:01Z</time></trkpt><trkpt lat="42.42223759713362" lon="-8.600567312630515"><ele>159.0</ele><time>2026-04-05T17:52:02Z</time></trkpt><trkpt lat="42.422364478352286" lon="-8.600511690607464"><ele>159.25</ele><time>2026-04-05T17:52:03Z</time></trkpt><trkpt lat="42.42248952814896" lon="-8.600441242504195"><ele>159.5</ele><time>2026-04-05T17:52:04Z</time></trkpt><trkpt lat="42.42261454455956" lon="-8.60035535528585"><ele>159.75</ele><time>2026-04-05T17:52:05Z</time></trkpt><trkpt lat="42.42273936910261" lon="-8.600248042597837"><ele>160.0</ele><time>2026-04-05T17:52:06Z</time></trkpt><trkpt lat="42.422871657897616" lon="-8.600123819837219"><ele>158.0</ele><time>2026-04-05T17:52:07Z</time></trkpt><trkpt lat="42.423008252510385" lon="-8.599982035492927"><ele>156.0</ele><time>2026-04-05T17:52:08Z</time></trkpt><trkpt lat="42.42314736168082" lon="-8.599815334175588"><ele>154.0</ele><time>2026-04-05T17:52:09Z</time></trkpt><trkpt lat="42.4232914533552" lon="-8.599641303767067"><ele>150.66666666666669</ele><time>2026-04-05T17:52:10Z</time></trkpt><trkpt lat="42.42344354456789" lon="-8.599454925847487"><ele>147.33333333333334</ele><time>2026-04-05T17:52:11Z</time></trkpt><trkpt lat="42.42359852969298" lon="-8.5992625993382"><ele>144.0</ele><time>2026-04-05T17:52:12Z</time></trkpt><trkpt lat="42.42375761245318" lon="-8.599059163204421"><ele>143.0</ele><time>2026-04-05T17:52:13Z</time></trkpt><trkpt lat="42.42391831108724" lon="-8.59884680674806"><ele>142.0</ele><time>2026-04-05T17:52:14Z</time></trkpt><trkpt lat="42.4240654689527" lon="-8.598637918976662"><ele>141.0</ele><time>2026-04-05T17:52:15Z</time></trkpt><trkpt lat="42.42420498483383" lon="-8.598426195405025"><ele>141.0</ele><time>2026-04-05T17:52:16Z</time></trkpt><trkpt lat="42.424340853125535" lon="-8.598198784172162"><ele>141.0</ele><time>2026-04-05T17:52:17Z</time></trkpt><trkpt lat="42.424469941698064" lon="-8.597954357397152"><ele>141.0</ele><time>2026-04-05T17:52:18Z</time></trkpt><trkpt lat="42.424588746189734" lon="-8.597691534801955"><ele>139.5</ele><time>2026-04-05T17:52:19Z</time></trkpt><trkpt lat="42.42470382883214" lon="-8.59742598161501"><ele>138.0</ele><time>2026-04-05T17:52:20Z</time></trkpt><trkpt lat="42.424818895890624" lon="-8.597153677759485"><ele>134.5</ele><time>2026-04-05T17:52:21Z</time></trkpt><trkpt lat="42.42493485153728" lon="-8.596879072417755"><ele>131.0</ele><time>2026-04-05T17:52:22Z</time></trkpt><trkpt lat="42.425050611196646" lon="-8.596605050808495"><ele>131.0</ele><time>2026-04-05T17:52:23Z</time></trkpt><trkpt lat="42.42516923257009" lon="-8.596342469395458"><ele>131.0</ele><time>2026-04-05T17:52:24Z</time></trkpt><trkpt lat="42.425292273529806" lon="-8.596096264204787"><ele>131.0</ele><time>2026-04-05T17:52:25Z</time></trkpt><trkpt lat="42.42542636686965" lon="-8.595856923023288"><ele>131.0</ele><time>2026-04-05T17:52:26Z</time></trkpt><trkpt lat="42.42557900824064" lon="-8.595633336586326"><ele>131.0</ele><time>2026-04-05T17:52:27Z</time></trkpt><trkpt lat="42.425747121085536" lon="-8.59542815031699"><ele>127.0</ele><time>2026-04-05T17:52:28Z</time></trkpt><trkpt lat="42.425934859168294" lon="-8.595249299844316"><ele>123.0</ele><time>2026-04-05T17:52:29Z</time></trkpt><trkpt lat="42.426127536968224" lon="-8.595083571059636"><ele>124.0</ele><time>2026-04-05T17:52:30Z</time></trkpt><trkpt lat="42.42632011455784" lon="-8.594920813636552"><ele>125.0</ele><time>2026-04-05T17:52:31Z</time></trkpt><trkpt lat="42.42651287469599" lon="-8.59475253185525"><ele>125.0</ele><time>2026-04-05T17:52:32Z</time></trkpt><trkpt lat="42.42669967378139" lon="-8.594577169266646"><ele>125.0</ele><time>2026-04-05T17:52:33Z</time></trkpt><trkpt lat="42.42688227778543" lon="-8.594384836202362"><ele>124.0</ele><time>2026-04-05T17:52:34Z</time></trkpt><trkpt lat="42.42704848863752" lon="-8.594162966109245"><ele>123.0</ele><time>2026-04-05T17:52:35Z</time></trkpt><trkpt lat="42.42720216048339" lon="-8.593928245032588"><ele>123.0</ele><time>2026-04-05T17:52:36Z</time></trkpt><trkpt lat="42.42734721965902" lon="-8.593695178126177"><ele>123.0</ele><time>2026-04-05T17:52:37Z</time></trkpt><trkpt lat="42.42748687496514" lon="-8.593475745835857"><ele>123.0</ele><time>2026-04-05T17:52:38Z</time></trkpt><trkpt lat="42.427625645077526" lon="-8.593272385103006"><ele>118.33333333333334</ele><time>2026-04-05T17:52:39Z</time></trkpt><trkpt lat="42.42777081085056" lon="-8.593089802548826"><ele>113.66666666666667</ele><time>2026-04-05T17:52:40Z</time></trkpt><trkpt lat="42.427929149551495" lon="-8.592941188459664"><ele>109.0</ele><time>2026-04-05T17:52:41Z</time></trkpt><trkpt lat="42.428104915558706" lon="-8.592836808627577"><ele>107.33333333333334</ele><time>2026-04-05T17:52:42Z</time></trkpt><trkpt lat="42.42829396846639" lon="-8.592774465115646"><ele>105.66666666666666</ele><time>2026-04-05T17:52:43Z</time></trkpt><trkpt lat="42.42847847960099" lon="-8.592727183920752"><ele>104.0</ele><time>2026-04-05T17:52:44Z</time></trkpt><trkpt lat="42.42866579752089" lon="-8.592688980396153"><ele>102.33333333333333</ele><time>2026-04-05T17:52:45Z</time></trkpt><trkpt lat="42.42884103133632" lon="-8.592666392595447"><ele>100.66666666666666</ele><time>2026-04-05T17:52:46Z</time></trkpt><trkpt lat="42.42901632212042" lon="-8.59267223194685"><ele>99.0</ele><time>2026-04-05T17:52:47Z</time></trkpt><trkpt lat="42.429194530130886" lon="-8.592726764911694"><ele>99.0</ele><time>2026-04-05T17:52:48Z</time></trkpt><trkpt lat="42.429372125007475" lon="-8.592810663171845"><ele>99.0</ele><time>2026-04-05T17:52:49Z</time></trkpt><trkpt lat="42.429550997607336" lon="-8.592908328583954"><ele>99.0</ele><time>2026-04-05T17:52:50Z</time></trkpt><trkpt lat="42.42973573597408" lon="-8.593000727299527"><ele>103.0</ele><time>2026-04-05T17:52:51Z</time></trkpt><trkpt lat="42.42991560192257" lon="-8.59307799769954"><ele>107.0</ele><time>2026-04-05T17:52:52Z</time></trkpt><trkpt lat="42.430087451531286" lon="-8.593128898520174"><ele>111.0</ele><time>2026-04-05T17:52:53Z</time></trkpt><trkpt lat="42.4302619963414" lon="-8.593145680756846"><ele>111.0</ele><time>2026-04-05T17:52:54Z</time></trkpt><trkpt lat="42.43042191139587" lon="-8.593100810339484"><ele>111.0</ele><time>2026-04-05T17:52:55Z</time></trkpt><trkpt lat="42.43058086654909" lon="-8.593005082948643"><ele>111.0</ele><time>2026-04-05T17:52:55.999Z</time></trkpt><trkpt lat="42.430723746974955" lon="-8.59286463717753"><ele>105.33333333333333</ele><time>2026-04-05T17:52:56.999Z</time></trkpt><trkpt lat="42.43085767866931" lon="-8.592713477488584"><ele>99.66666666666666</ele><time>2026-04-05T17:52:57.999Z</time></trkpt><trkpt lat="42.430997579757864" lon="-8.592549910845634"><ele>94.0</ele><time>2026-04-05T17:52:58.999Z</time></trkpt><trkpt lat="42.43114352600653" lon="-8.592387539427646"><ele>94.0</ele><time>2026-04-05T17:52:59.999Z</time></trkpt><trkpt lat="42.431300397430164" lon="-8.59222571227371"><ele>94.0</ele><time>2026-04-05T17:53:00.999Z</time></trkpt><trkpt lat="42.431463110640664" lon="-8.592066545023131"><ele>94.0</ele><time>2026-04-05T17:53:01.999Z</time></trkpt><trkpt lat="42.431637945945035" lon="-8.591909345592242"><ele>92.33333333333333</ele><time>2026-04-05T17:53:02.999Z</time></trkpt><trkpt lat="42.43182312873275" lon="-8.591754891658736"><ele>90.66666666666667</ele><time>2026-04-05T17:53:03.999Z</time></trkpt><trkpt lat="42.432022717867866" lon="-8.591612671688754"><ele>89.0</ele><time>2026-04-05T17:53:04.999Z</time></trkpt><trkpt lat="42.432230405205395" lon="-8.59147787097569"><ele>87.5</ele><time>2026-04-05T17:53:05.999Z</time></trkpt><trkpt lat="42.43244370612542" lon="-8.591339886403674"><ele>86.0</ele><time>2026-04-05T17:53:06.999Z</time></trkpt><trkpt lat="42.43264385087818" lon="-8.591210563274917"><ele>85.0</ele><time>2026-04-05T17:53:07.999Z</time></trkpt><trkpt lat="42.432831841102626" lon="-8.591082752929452"><ele>84.0</ele><time>2026-04-05T17:53:08.999Z</time></trkpt><trkpt lat="42.43301484923866" lon="-8.590948574643106"><ele>83.0</ele><time>2026-04-05T17:53:10Z</time></trkpt><trkpt lat="42.433184085708" lon="-8.590797619158863"><ele>83.0</ele><time>2026-04-05T17:53:11Z</time></trkpt><trkpt lat="42.43332580872717" lon="-8.590622466672018"><ele>83.0</ele><time>2026-04-05T17:53:12Z</time></trkpt><trkpt lat="42.433446289484316" lon="-8.59041302805832"><ele>83.0</ele><time>2026-04-05T17:53:13Z</time></trkpt><trkpt lat="42.433550377130175" lon="-8.590182299337487"><ele>81.66666666666667</ele><time>2026-04-05T17:53:14Z</time></trkpt><trkpt lat="42.43364206123679" lon="-8.589953843036662"><ele>80.33333333333333</ele><time>2026-04-05T17:53:15Z</time></trkpt><trkpt lat="42.43374409831482" lon="-8.58975541166392"><ele>79.0</ele><time>2026-04-05T17:53:16Z</time></trkpt><trkpt lat="42.43385805671006" lon="-8.589577513717314"><ele>78.66666666666666</ele><time>2026-04-05T17:53:17Z</time></trkpt><trkpt lat="42.43399615841569" lon="-8.589418974121857"><ele>78.33333333333333</ele><time>2026-04-05T17:53:18Z</time></trkpt><trkpt lat="42.43414412663692" lon="-8.58927880166497"><ele>78.0</ele><time>2026-04-05T17:53:19Z</time></trkpt><trkpt lat="42.43430897299972" lon="-8.589152897817144"><ele>78.0</ele><time>2026-04-05T17:53:20Z</time></trkpt><trkpt lat="42.43448199832731" lon="-8.5890319535355"><ele>78.0</ele><time>2026-04-05T17:53:21Z</time></trkpt><trkpt lat="42.43466133943715" lon="-8.588901864336062"><ele>78.0</ele><time>2026-04-05T17:53:22Z</time></trkpt><trkpt lat="42.434834591670864" lon="-8.588749428923707"><ele>76.66666666666667</ele><time>2026-04-05T17:53:23Z</time></trkpt><trkpt lat="42.434997098536186" lon="-8.58857691503667"><ele>75.33333333333334</ele><time>2026-04-05T17:53:24Z</time></trkpt><trkpt lat="42.43514642740275" lon="-8.588381317714576"><ele>74.0</ele><time>2026-04-05T17:53:25Z</time></trkpt><trkpt lat="42.43526966942326" lon="-8.588177912790728"><ele>74.0</ele><time>2026-04-05T17:53:26Z</time></trkpt><trkpt lat="42.435377172097844" lon="-8.58797462603781"><ele>74.0</ele><time>2026-04-05T17:53:27Z</time></trkpt><trkpt lat="42.435480457379576" lon="-8.587775799371498"><ele>74.0</ele><time>2026-04-05T17:53:28Z</time></trkpt><trkpt lat="42.43558878326789" lon="-8.587588550532102"><ele>74.0</ele><time>2026-04-05T17:53:29Z</time></trkpt><trkpt lat="42.435705435126685" lon="-8.587422469252573"><ele>74.0</ele><time>2026-04-05T17:53:30Z</time></trkpt><trkpt lat="42.43585066407749" lon="-8.587283712397138"><ele>74.0</ele><time>2026-04-05T17:53:31Z</time></trkpt><trkpt lat="42.43601189671724" lon="-8.587198778007963"><ele>74.0</ele><time>2026-04-05T17:53:32Z</time></trkpt><trkpt lat="42.43617845867991" lon="-8.587161430424468"><ele>74.0</ele><time>2026-04-05T17:53:33Z</time></trkpt><trkpt lat="42.436341789577284" lon="-8.587166739136855"><ele>74.0</ele><time>2026-04-05T17:53:34Z</time></trkpt><trkpt lat="42.43649767371973" lon="-8.587221246134613"><ele>72.33333333333334</ele><time>2026-04-05T17:53:35Z</time></trkpt><trkpt lat="42.436658791073604" lon="-8.587322632071448"><ele>70.66666666666667</ele><time>2026-04-05T17:53:36Z</time></trkpt><trkpt lat="42.43682013806241" lon="-8.587437212502122"><ele>69.0</ele><time>2026-04-05T17:53:37Z</time></trkpt><trkpt lat="42.43698198688788" lon="-8.58755802846563"><ele>65.0</ele><time>2026-04-05T17:53:38Z</time></trkpt><trkpt lat="42.43715654180499" lon="-8.587685883094085"><ele>61.0</ele><time>2026-04-05T17:53:39Z</time></trkpt><trkpt lat="42.43731893800589" lon="-8.5878068435881"><ele>57.0</ele><time>2026-04-05T17:53:40Z</time></trkpt><trkpt lat="42.43747770512151" lon="-8.587918888947742"><ele>57.0</ele><time>2026-04-05T17:53:41Z</time></trkpt><trkpt lat="42.437641954117886" lon="-8.58803755833519"><ele>57.0</ele><time>2026-04-05T17:53:42Z</time></trkpt><trkpt lat="42.43779570769006" lon="-8.588153184918955"><ele>57.0</ele><time>2026-04-05T17:53:43Z</time></trkpt><trkpt lat="42.43795346305448" lon="-8.588271826245956"><ele>55.33333333333333</ele><time>2026-04-05T17:53:44Z</time></trkpt><trkpt lat="42.438112544045794" lon="-8.588386137794513"><ele>53.666666666666664</ele><time>2026-04-05T17:53:45Z</time></trkpt><trkpt lat="42.43827085183392" lon="-8.5884931851453"><ele>52.0</ele><time>2026-04-05T17:53:46Z</time></trkpt><trkpt lat="42.43842377298898" lon="-8.588597816450422"><ele>52.33333333333333</ele><time>2026-04-05T17:53:47Z</time></trkpt><trkpt lat="42.438573955635356" lon="-8.58869228196375"><ele>52.66666666666667</ele><time>2026-04-05T17:53:48Z</time></trkpt><trkpt lat="42.43871679532425" lon="-8.588784983352344"><ele>53.0</ele><time>2026-04-05T17:53:49Z</time></trkpt><trkpt lat="42.438857329595635" lon="-8.588865594605492"><ele>53.0</ele><time>2026-04-05T17:53:50Z</time></trkpt><trkpt lat="42.43899555246799" lon="-8.588927889101397"><ele>53.0</ele><time>2026-04-05T17:53:51Z</time></trkpt><trkpt lat="42.43913173121642" lon="-8.588975608714355"><ele>53.0</ele><time>2026-04-05T17:53:52Z</time></trkpt><trkpt lat="42.43926469840694" lon="-8.589019783206298"><ele>53.0</ele><time>2026-04-05T17:53:53Z</time></trkpt><trkpt lat="42.43939587273086" lon="-8.589053734928278"><ele>53.0</ele><time>2026-04-05T17:53:54Z</time></trkpt><trkpt lat="42.43952156679371" lon="-8.589079813284533"><ele>53.0</ele><time>2026-04-05T17:53:55Z</time></trkpt><trkpt lat="42.439645520209496" lon="-8.589090552758426"><ele>53.0</ele><time>2026-04-05T17:53:56Z</time></trkpt><trkpt lat="42.43976973624527" lon="-8.589092043926371"><ele>53.0</ele><time>2026-04-05T17:53:57Z</time></trkpt><trkpt lat="42.439884433126856" lon="-8.589093058264384"><ele>52.25</ele><time>2026-04-05T17:53:58Z</time></trkpt><trkpt lat="42.43999986369541" lon="-8.589082436936003"><ele>51.5</ele><time>2026-04-05T17:53:59Z</time></trkpt><trkpt lat="42.440112658007735" lon="-8.589063558292569"><ele>50.75</ele><time>2026-04-05T17:54:00Z</time></trkpt><trkpt lat="42.44022636286163" lon="-8.589041745566488"><ele>50.0</ele><time>2026-04-05T17:54:01Z</time></trkpt><trkpt lat="42.44034185075087" lon="-8.589018108252155"><ele>50.0</ele><time>2026-04-05T17:54:02Z</time></trkpt><trkpt lat="42.44046268220635" lon="-8.58898440465251"><ele>50.0</ele><time>2026-04-05T17:54:03Z</time></trkpt><trkpt lat="42.44058500888269" lon="-8.58894774526817"><ele>50.0</ele><time>2026-04-05T17:54:04Z</time></trkpt><trkpt lat="42.44071510162095" lon="-8.58890662978257"><ele>50.0</ele><time>2026-04-05T17:54:05Z</time></trkpt><trkpt lat="42.44085003169998" lon="-8.58886057420282"><ele>50.0</ele><time>2026-04-05T17:54:06Z</time></trkpt><trkpt lat="42.440988069457035" lon="-8.588810936987775"><ele>50.0</ele><time>2026-04-05T17:54:07Z</time></trkpt><trkpt lat="42.441125367341776" lon="-8.588756278001506"><ele>50.0</ele><time>2026-04-05T17:54:08Z</time></trkpt><trkpt lat="42.441263508261294" lon="-8.588694730190713"><ele>50.0</ele><time>2026-04-05T17:54:09Z</time></trkpt><trkpt lat="42.44139919386999" lon="-8.588627152489446"><ele>47.0</ele><time>2026-04-05T17:54:10Z</time></trkpt><trkpt lat="42.44153429862743" lon="-8.588547791457987"><ele>44.0</ele><time>2026-04-05T17:54:11Z</time></trkpt><trkpt lat="42.441666740468435" lon="-8.588443477267578"><ele>41.0</ele><time>2026-04-05T17:54:12Z</time></trkpt><trkpt lat="42.441792885841615" lon="-8.588323252410714"><ele>41.0</ele><time>2026-04-05T17:54:13Z</time></trkpt><trkpt lat="42.441914497025415" lon="-8.588182926992038"><ele>41.0</ele><time>2026-04-05T17:54:14Z</time></trkpt><trkpt lat="42.442028112835665" lon="-8.588038458677653"><ele>41.0</ele><time>2026-04-05T17:54:15Z</time></trkpt><trkpt lat="42.44212968860589" lon="-8.587866562403308"><ele>37.0</ele><time>2026-04-05T17:54:16Z</time></trkpt><trkpt lat="42.44221016762405" lon="-8.587666826608324"><ele>33.0</ele><time>2026-04-05T17:54:17Z</time></trkpt><trkpt lat="42.44227475229985" lon="-8.587444313059047"><ele>29.0</ele><time>2026-04-05T17:54:18Z</time></trkpt><trkpt lat="42.44232311039275" lon="-8.587211163395063"><ele>27.0</ele><time>2026-04-05T17:54:19Z</time></trkpt><trkpt lat="42.442362063527284" lon="-8.586969514176557"><ele>25.0</ele><time>2026-04-05T17:54:20Z</time></trkpt><trkpt lat="42.442393600508545" lon="-8.586734200163928"><ele>23.0</ele><time>2026-04-05T17:54:21Z</time></trkpt><trkpt lat="42.44242591810927" lon="-8.586487073074824"><ele>23.0</ele><time>2026-04-05T17:54:22Z</time></trkpt><trkpt lat="42.44246123682643" lon="-8.586257615724003"><ele>23.0</ele><time>2026-04-05T17:54:23Z</time></trkpt><trkpt lat="42.44250531277314" lon="-8.586032888704652"><ele>23.0</ele><time>2026-04-05T17:54:24Z</time></trkpt><trkpt lat="42.44256096601164" lon="-8.58582545980308"><ele>23.333333333333336</ele><time>2026-04-05T17:54:25Z</time></trkpt><trkpt lat="42.44262245517979" lon="-8.585630049165582"><ele>23.666666666666668</ele><time>2026-04-05T17:54:26Z</time></trkpt><trkpt lat="42.44269934452086" lon="-8.585452377259388"><ele>24.0</ele><time>2026-04-05T17:54:27Z</time></trkpt><trkpt lat="42.44277507122829" lon="-8.585278584414807"><ele>25.5</ele><time>2026-04-05T17:54:28Z</time></trkpt><trkpt lat="42.44285112705185" lon="-8.585118062172013"><ele>27.0</ele><time>2026-04-05T17:54:29Z</time></trkpt><trkpt lat="42.44293268173778" lon="-8.584979425430976"><ele>28.5</ele><time>2026-04-05T17:54:30Z</time></trkpt><trkpt lat="42.443016333509014" lon="-8.58486236355279"><ele>30.0</ele><time>2026-04-05T17:54:31Z</time></trkpt><trkpt lat="42.44308015190328" lon="-8.584769563150129"><ele>30.0</ele><time>2026-04-05T17:54:32Z</time></trkpt><trkpt lat="42.44314157763085" lon="-8.584684049946569"><ele>30.0</ele><time>2026-04-05T17:54:33Z</time></trkpt><trkpt lat="42.44318280671982" lon="-8.584597862262987"><ele>30.0</ele><time>2026-04-05T17:54:34Z</time></trkpt><trkpt lat="42.44320884407888" lon="-8.584510749147158"><ele>30.0</ele><time>2026-04-05T17:54:35Z</time></trkpt><trkpt lat="42.443225793353974" lon="-8.584398052103223"><ele>30.0</ele><time>2026-04-05T17:54:36Z</time></trkpt><trkpt lat="42.44322324787333" lon="-8.584263586498471"><ele>30.0</ele><time>2026-04-05T17:54:37Z</time></trkpt><trkpt lat="42.44323422088934" lon="-8.584121556619408"><ele>30.5</ele><time>2026-04-05T17:54:38Z</time></trkpt><trkpt lat="42.443185282617335" lon="-8.583952445047682"><ele>31.0</ele><time>2026-04-05T17:54:39Z</time></trkpt><trkpt lat="42.443189806801925" lon="-8.583776708669575"><ele>31.5</ele><time>2026-04-05T17:54:40Z</time></trkpt><trkpt lat="42.44321966161173" lon="-8.58359169895607"><ele>32.0</ele><time>2026-04-05T17:54:41Z</time></trkpt><trkpt lat="42.44327215280899" lon="-8.583398143228052"><ele>32.0</ele><time>2026-04-05T17:54:42Z</time></trkpt><trkpt lat="42.443333097893635" lon="-8.583201991890387"><ele>32.0</ele><time>2026-04-05T17:54:43Z</time></trkpt><trkpt lat="42.44340066189976" lon="-8.58301126688893"><ele>32.0</ele><time>2026-04-05T17:54:44Z</time></trkpt><trkpt lat="42.443475960363976" lon="-8.58282104569995"><ele>31.666666666666664</ele><time>2026-04-05T17:54:45Z</time></trkpt><trkpt lat="42.44355303348682" lon="-8.582611664311969"><ele>31.333333333333336</ele><time>2026-04-05T17:54:46Z</time></trkpt><trkpt lat="42.44364726252384" lon="-8.582429537965925"><ele>31.0</ele><time>2026-04-05T17:54:47Z</time></trkpt><trkpt lat="42.44374525685262" lon="-8.582267204117247"><ele>31.0</ele><time>2026-04-05T17:54:48Z</time></trkpt><trkpt lat="42.443838519813646" lon="-8.582120786370346"><ele>31.0</ele><time>2026-04-05T17:54:49Z</time></trkpt><trkpt lat="42.44393527400276" lon="-8.58198729334699"><ele>31.0</ele><time>2026-04-05T17:54:50Z</time></trkpt><trkpt lat="42.44403017841391" lon="-8.58186486854202"><ele>31.0</ele><time>2026-04-05T17:54:51Z</time></trkpt><trkpt lat="42.44412496539625" lon="-8.581756860692883"><ele>31.0</ele><time>2026-04-05T17:54:52Z</time></trkpt><trkpt lat="42.444214993205236" lon="-8.581656862453302"><ele>31.0</ele><time>2026-04-05T17:54:53Z</time></trkpt><trkpt lat="42.44430461312038" lon="-8.581552324955444"><ele>31.0</ele><time>2026-04-05T17:54:54Z</time></trkpt><trkpt lat="42.44436695073448" lon="-8.581464185571905"><ele>31.0</ele><time>2026-04-05T17:54:55Z</time></trkpt><trkpt lat="42.44442087612785" lon="-8.581364605721108"><ele>31.0</ele><time>2026-04-05T17:54:56Z</time></trkpt><trkpt lat="42.44445286851441" lon="-8.581274230106013"><ele>31.0</ele><time>2026-04-05T17:54:57Z</time></trkpt><trkpt lat="42.44449482324088" lon="-8.581202548522901"><ele>31.0</ele><time>2026-04-05T17:54:58Z</time></trkpt><trkpt lat="42.4445646338569" lon="-8.581162410620644"><ele>31.0</ele><time>2026-04-05T17:54:59Z</time></trkpt><trkpt lat="42.44464995718331" lon="-8.581160753713077"><ele>31.0</ele><time>2026-04-05T17:54:59.999Z</time></trkpt><trkpt lat="42.444750342827476" lon="-8.581185429677276"><ele>31.0</ele><time>2026-04-05T17:55:00.999Z</time></trkpt><trkpt lat="42.44485523700154" lon="-8.581071657599809"><ele>32.25</ele><time>2026-04-05T17:55:01.999Z</time></trkpt><trkpt lat="42.44495232449907" lon="-8.580964594106783"><ele>33.5</ele><time>2026-04-05T17:55:02.999Z</time></trkpt><trkpt lat="42.44505638385776" lon="-8.580856507514284"><ele>34.75</ele><time>2026-04-05T17:55:03.999Z</time></trkpt><trkpt lat="42.44517612173326" lon="-8.580750036724337"><ele>36.0</ele><time>2026-04-05T17:55:04.999Z</time></trkpt><trkpt lat="42.44530109554245" lon="-8.580635418592959"><ele>36.0</ele><time>2026-04-05T17:55:05.999Z</time></trkpt><trkpt lat="42.445429055563736" lon="-8.580509581303646"><ele>36.0</ele><time>2026-04-05T17:55:06.999Z</time></trkpt><trkpt lat="42.44556322572749" lon="-8.580382670445715"><ele>36.0</ele><time>2026-04-05T17:55:07.999Z</time></trkpt><trkpt lat="42.445700614204334" lon="-8.580256610905378"><ele>37.666666666666664</ele><time>2026-04-05T17:55:08.999Z</time></trkpt><trkpt lat="42.44584025996978" lon="-8.580132822984012"><ele>39.33333333333333</ele><time>2026-04-05T17:55:09.999Z</time></trkpt><trkpt lat="42.44598258503721" lon="-8.58000895886232"><ele>41.0</ele><time>2026-04-05T17:55:10.999Z</time></trkpt><trkpt lat="42.446131693550456" lon="-8.579885578749366"><ele>41.0</ele><time>2026-04-05T17:55:11.999Z</time></trkpt><trkpt lat="42.446288991317516" lon="-8.57977257144043"><ele>41.0</ele><time>2026-04-05T17:55:12.999Z</time></trkpt><trkpt lat="42.446453291230135" lon="-8.579694460707216"><ele>41.0</ele><time>2026-04-05T17:55:13.999Z</time></trkpt><trkpt lat="42.44663162807584" lon="-8.579639991867234"><ele>39.0</ele><time>2026-04-05T17:55:14.999Z</time></trkpt><trkpt lat="42.44681306898222" lon="-8.579590979151627"><ele>37.0</ele><time>2026-04-05T17:55:16Z</time></trkpt><trkpt lat="42.446983245037714" lon="-8.579554780639588"><ele>35.0</ele><time>2026-04-05T17:55:17Z</time></trkpt><trkpt lat="42.44714337087394" lon="-8.57952075339667"><ele>41.33333333333333</ele><time>2026-04-05T17:55:18Z</time></trkpt><trkpt lat="42.447306906099946" lon="-8.579479062426268"><ele>47.666666666666664</ele><time>2026-04-05T17:55:19Z</time></trkpt><trkpt lat="42.447462789459884" lon="-8.579422175157502"><ele>54.0</ele><time>2026-04-05T17:55:20Z</time></trkpt><trkpt lat="42.44761184033" lon="-8.579345870847915"><ele>54.0</ele><time>2026-04-05T17:55:21Z</time></trkpt><trkpt lat="42.447751988736584" lon="-8.579256741934643"><ele>54.0</ele><time>2026-04-05T17:55:22Z</time></trkpt><trkpt lat="42.44788919686214" lon="-8.579154391088021"><ele>54.0</ele><time>2026-04-05T17:55:23Z</time></trkpt><trkpt lat="42.44802647691499" lon="-8.579036223385382"><ele>54.33333333333333</ele><time>2026-04-05T17:55:24Z</time></trkpt><trkpt lat="42.44815659294951" lon="-8.578905591736"><ele>54.666666666666664</ele><time>2026-04-05T17:55:25Z</time></trkpt><trkpt lat="42.448280493184924" lon="-8.57875894593224"><ele>55.0</ele><time>2026-04-05T17:55:26Z</time></trkpt><trkpt lat="42.44839700188583" lon="-8.57859654439638"><ele>55.0</ele><time>2026-04-05T17:55:27Z</time></trkpt><trkpt lat="42.44850420640555" lon="-8.578421474823722"><ele>55.0</ele><time>2026-04-05T17:55:28Z</time></trkpt><trkpt lat="42.448599952048546" lon="-8.578234770392331"><ele>55.0</ele><time>2026-04-05T17:55:29Z</time></trkpt><trkpt lat="42.44868914212068" lon="-8.5780391414986"><ele>52.666666666666664</ele><time>2026-04-05T17:55:30Z</time></trkpt><trkpt lat="42.44876456267436" lon="-8.577833224920536"><ele>50.33333333333333</ele><time>2026-04-05T17:55:31Z</time></trkpt><trkpt lat="42.448832125626225" lon="-8.577617876283933"><ele>48.0</ele><time>2026-04-05T17:55:32Z</time></trkpt><trkpt lat="42.44888561269771" lon="-8.577396544670496"><ele>48.0</ele><time>2026-04-05T17:55:33Z</time></trkpt><trkpt lat="42.448919790731416" lon="-8.577165097661004"><ele>48.0</ele><time>2026-04-05T17:55:34Z</time></trkpt><trkpt lat="42.44894123838551" lon="-8.576925858635484"><ele>48.0</ele><time>2026-04-05T17:55:35Z</time></trkpt><trkpt lat="42.44895241228945" lon="-8.576688581142825"><ele>50.0</ele><time>2026-04-05T17:55:36Z</time></trkpt><trkpt lat="42.44893971121371" lon="-8.576442128013838"><ele>52.0</ele><time>2026-04-05T17:55:37Z</time></trkpt><trkpt lat="42.44891234977507" lon="-8.576196153161606"><ele>54.0</ele><time>2026-04-05T17:55:38Z</time></trkpt><trkpt lat="42.4488760534724" lon="-8.575957373405867"><ele>54.0</ele><time>2026-04-05T17:55:39Z</time></trkpt><trkpt lat="42.448846759785305" lon="-8.575734086870442"><ele>54.0</ele><time>2026-04-05T17:55:40Z</time></trkpt><trkpt lat="42.448842216050515" lon="-8.575519435960018"><ele>54.0</ele><time>2026-04-05T17:55:41Z</time></trkpt><trkpt lat="42.44885402931015" lon="-8.575312430244908"><ele>55.0</ele><time>2026-04-05T17:55:42Z</time></trkpt><trkpt lat="42.44888492401366" lon="-8.575104107732756"><ele>56.0</ele><time>2026-04-05T17:55:43Z</time></trkpt><trkpt lat="42.44892725410896" lon="-8.574896734222861"><ele>57.0</ele><time>2026-04-05T17:55:44Z</time></trkpt><trkpt lat="42.44898406612537" lon="-8.574697062721642"><ele>61.33333333333333</ele><time>2026-04-05T17:55:45Z</time></trkpt><trkpt lat="42.44905194749562" lon="-8.574496423913027"><ele>65.66666666666666</ele><time>2026-04-05T17:55:46Z</time></trkpt><trkpt lat="42.449142225823394" lon="-8.574308067560633"><ele>70.0</ele><time>2026-04-05T17:55:47Z</time></trkpt><trkpt lat="42.44924372818801" lon="-8.5741393565438"><ele>70.0</ele><time>2026-04-05T17:55:48Z</time></trkpt><trkpt lat="42.449356625712355" lon="-8.573974814693894"><ele>70.0</ele><time>2026-04-05T17:55:49Z</time></trkpt><trkpt lat="42.44947914625532" lon="-8.573830408272691"><ele>70.0</ele><time>2026-04-05T17:55:50Z</time></trkpt><trkpt lat="42.44961585905123" lon="-8.573699932981675"><ele>75.66666666666666</ele><time>2026-04-05T17:55:51Z</time></trkpt><trkpt lat="42.449759934495695" lon="-8.573593935142368"><ele>81.33333333333333</ele><time>2026-04-05T17:55:52Z</time></trkpt><trkpt lat="42.449914314907595" lon="-8.57350858938565"><ele>87.0</ele><time>2026-04-05T17:55:53Z</time></trkpt><trkpt lat="42.45006958478021" lon="-8.57344070456029"><ele>87.0</ele><time>2026-04-05T17:55:54Z</time></trkpt><trkpt lat="42.45023026857255" lon="-8.573388555969744"><ele>87.0</ele><time>2026-04-05T17:55:55Z</time></trkpt><trkpt lat="42.45039234226676" lon="-8.573343880325895"><ele>87.0</ele><time>2026-04-05T17:55:56Z</time></trkpt><trkpt lat="42.45055691006219" lon="-8.573280650153107"><ele>81.0</ele><time>2026-04-05T17:55:57Z</time></trkpt><trkpt lat="42.45072165934581" lon="-8.573199891175221"><ele>75.0</ele><time>2026-04-05T17:55:58Z</time></trkpt><trkpt lat="42.450884966812865" lon="-8.573105806300148"><ele>69.0</ele><time>2026-04-05T17:55:59Z</time></trkpt><trkpt lat="42.45104710460049" lon="-8.572992533734212"><ele>69.0</ele><time>2026-04-05T17:56:00Z</time></trkpt><trkpt lat="42.45120345318859" lon="-8.572857328808217"><ele>69.0</ele><time>2026-04-05T17:56:01Z</time></trkpt><trkpt lat="42.451351882133444" lon="-8.57269829951276"><ele>69.0</ele><time>2026-04-05T17:56:02Z</time></trkpt><trkpt lat="42.45149895365225" lon="-8.572538404955809"><ele>68.0</ele><time>2026-04-05T17:56:03Z</time></trkpt><trkpt lat="42.451656373407715" lon="-8.572358905992138"><ele>67.0</ele><time>2026-04-05T17:56:04Z</time></trkpt><trkpt lat="42.451806056879064" lon="-8.572198848207442"><ele>66.0</ele><time>2026-04-05T17:56:05Z</time></trkpt><trkpt lat="42.451964043016034" lon="-8.572030897904085"><ele>68.33333333333333</ele><time>2026-04-05T17:56:06Z</time></trkpt><trkpt lat="42.45212829485022" lon="-8.57187277650195"><ele>70.66666666666666</ele><time>2026-04-05T17:56:07Z</time></trkpt><trkpt lat="42.45230082114405" lon="-8.571720800275497"><ele>73.0</ele><time>2026-04-05T17:56:08Z</time></trkpt><trkpt lat="42.4524767514191" lon="-8.571569259218153"><ele>73.0</ele><time>2026-04-05T17:56:09Z</time></trkpt><trkpt lat="42.45266410456959" lon="-8.571432540488548"><ele>73.0</ele><time>2026-04-05T17:56:10Z</time></trkpt><trkpt lat="42.452850216433426" lon="-8.571300823962073"><ele>73.0</ele><time>2026-04-05T17:56:11Z</time></trkpt><trkpt lat="42.45305062343167" lon="-8.571171291941514"><ele>73.0</ele><time>2026-04-05T17:56:12Z</time></trkpt><trkpt lat="42.45324864492972" lon="-8.571050290123297"><ele>73.0</ele><time>2026-04-05T17:56:13Z</time></trkpt><trkpt lat="42.453451065312926" lon="-8.570939579368977"><ele>73.0</ele><time>2026-04-05T17:56:14Z</time></trkpt><trkpt lat="42.45365407750925" lon="-8.570830918121958"><ele>72.33333333333333</ele><time>2026-04-05T17:56:15Z</time></trkpt><trkpt lat="42.45385859593048" lon="-8.570739351857336"><ele>71.66666666666667</ele><time>2026-04-05T17:56:16Z</time></trkpt><trkpt lat="42.45406759524477" lon="-8.570656035646666"><ele>71.0</ele><time>2026-04-05T17:56:17Z</time></trkpt><trkpt lat="42.454283330567144" lon="-8.57058715668906"><ele>71.0</ele><time>2026-04-05T17:56:18Z</time></trkpt><trkpt lat="42.45449239728929" lon="-8.570522646525236"><ele>71.0</ele><time>2026-04-05T17:56:19Z</time></trkpt><trkpt lat="42.45469921505672" lon="-8.570439995874029"><ele>71.0</ele><time>2026-04-05T17:56:20Z</time></trkpt><trkpt lat="42.4548947835283" lon="-8.570315802136536"><ele>73.66666666666667</ele><time>2026-04-05T17:56:21Z</time></trkpt><trkpt lat="42.45507180934195" lon="-8.57014751585586"><ele>76.33333333333333</ele><time>2026-04-05T17:56:22Z</time></trkpt><trkpt lat="42.45522876724339" lon="-8.56994300474198"><ele>79.0</ele><time>2026-04-05T17:56:23Z</time></trkpt><trkpt lat="42.455374673362556" lon="-8.569728889366633"><ele>80.33333333333333</ele><time>2026-04-05T17:56:24Z</time></trkpt><trkpt lat="42.455521462126256" lon="-8.56951580582933"><ele>81.66666666666667</ele><time>2026-04-05T17:56:25Z</time></trkpt><trkpt lat="42.4556721744072" lon="-8.569310134012989"><ele>83.0</ele><time>2026-04-05T17:56:26Z</time></trkpt><trkpt lat="42.45582425066302" lon="-8.569103131993907"><ele>83.0</ele><time>2026-04-05T17:56:27Z</time></trkpt><trkpt lat="42.45597938949488" lon="-8.568901979535863"><ele>83.0</ele><time>2026-04-05T17:56:28Z</time></trkpt><trkpt lat="42.45613202661317" lon="-8.568697201232185"><ele>83.0</ele><time>2026-04-05T17:56:29Z</time></trkpt><trkpt lat="42.456284627629955" lon="-8.568488030686694"><ele>85.66666666666667</ele><time>2026-04-05T17:56:30Z</time></trkpt><trkpt lat="42.456429005898556" lon="-8.56827051803862"><ele>88.33333333333333</ele><time>2026-04-05T17:56:31Z</time></trkpt><trkpt lat="42.45657064018948" lon="-8.568043492462333"><ele>91.0</ele><time>2026-04-05T17:56:32Z</time></trkpt><trkpt lat="42.45670268716768" lon="-8.56779657570994"><ele>91.0</ele><time>2026-04-05T17:56:33Z</time></trkpt><trkpt lat="42.45681908786219" lon="-8.56754320171613"><ele>91.0</ele><time>2026-04-05T17:56:34Z</time></trkpt><trkpt lat="42.456917488785315" lon="-8.567301494866241"><ele>91.0</ele><time>2026-04-05T17:56:35Z</time></trkpt><trkpt lat="42.457011888181874" lon="-8.567070883716644"><ele>92.66666666666666</ele><time>2026-04-05T17:56:36Z</time></trkpt><trkpt lat="42.45711834558917" lon="-8.56683637633868"><ele>94.33333333333333</ele><time>2026-04-05T17:56:37Z</time></trkpt><trkpt lat="42.4572520740695" lon="-8.566613558320707"><ele>96.0</ele><time>2026-04-05T17:56:38Z</time></trkpt><trkpt lat="42.45740252549814" lon="-8.566406550213683"><ele>96.33333333333334</ele><time>2026-04-05T17:56:39Z</time></trkpt><trkpt lat="42.45754278406573" lon="-8.566218951943418"><ele>96.66666666666667</ele><time>2026-04-05T17:56:40Z</time></trkpt><trkpt lat="42.4576782708119" lon="-8.566043159441115"><ele>97.0</ele><time>2026-04-05T17:56:41Z</time></trkpt><trkpt lat="42.457807078115806" lon="-8.565869639197787"><ele>97.0</ele><time>2026-04-05T17:56:42Z</time></trkpt><trkpt lat="42.457927146030784" lon="-8.565693841362602"><ele>97.0</ele><time>2026-04-05T17:56:43Z</time></trkpt><trkpt lat="42.45803567839444" lon="-8.565512470247361"><ele>97.0</ele><time>2026-04-05T17:56:44Z</time></trkpt><trkpt lat="42.45812384126821" lon="-8.565316260225638"><ele>94.33333333333334</ele><time>2026-04-05T17:56:45Z</time></trkpt><trkpt lat="42.45819226752405" lon="-8.565115617436287"><ele>91.66666666666667</ele><time>2026-04-05T17:56:46Z</time></trkpt><trkpt lat="42.45825024925153" lon="-8.564919705699948"><ele>89.0</ele><time>2026-04-05T17:56:47Z</time></trkpt><trkpt lat="42.458308589138575" lon="-8.564723047487487"><ele>89.0</ele><time>2026-04-05T17:56:48Z</time></trkpt><trkpt lat="42.45836410875999" lon="-8.564537129390398"><ele>89.0</ele><time>2026-04-05T17:56:49Z</time></trkpt><trkpt lat="42.45841280388326" lon="-8.564353136034002"><ele>89.0</ele><time>2026-04-05T17:56:50Z</time></trkpt><trkpt lat="42.45846965107933" lon="-8.564165269264155"><ele>89.0</ele><time>2026-04-05T17:56:51Z</time></trkpt><trkpt lat="42.45853352205466" lon="-8.563967626653966"><ele>88.33333333333334</ele><time>2026-04-05T17:56:52Z</time></trkpt><trkpt lat="42.4586109567592" lon="-8.563768391161043"><ele>87.66666666666667</ele><time>2026-04-05T17:56:53Z</time></trkpt><trkpt lat="42.4586991787736" lon="-8.563564787628382"><ele>87.0</ele><time>2026-04-05T17:56:54Z</time></trkpt><trkpt lat="42.45879223665187" lon="-8.563373178524909"><ele>87.33333333333333</ele><time>2026-04-05T17:56:55Z</time></trkpt><trkpt lat="42.458901232072954" lon="-8.56317942274102"><ele>87.66666666666666</ele><time>2026-04-05T17:56:56Z</time></trkpt><trkpt lat="42.45902496842479" lon="-8.562999245264661"><ele>88.0</ele><time>2026-04-05T17:56:57Z</time></trkpt><trkpt lat="42.459143555135135" lon="-8.562797317830325"><ele>88.0</ele><time>2026-04-05T17:56:58Z</time></trkpt><trkpt lat="42.45928526421102" lon="-8.562615401889342"><ele>88.0</ele><time>2026-04-05T17:56:59Z</time></trkpt><trkpt lat="42.45944307637509" lon="-8.562454693465405"><ele>88.0</ele><time>2026-04-05T17:57:00Z</time></trkpt><trkpt lat="42.45961738661529" lon="-8.56232313388835"><ele>81.33333333333333</ele><time>2026-04-05T17:57:01Z</time></trkpt><trkpt lat="42.4598081205128" lon="-8.56221657515475"><ele>74.66666666666667</ele><time>2026-04-05T17:57:02Z</time></trkpt><trkpt lat="42.45999526904951" lon="-8.562092117569884"><ele>68.0</ele><time>2026-04-05T17:57:03Z</time></trkpt><trkpt lat="42.460190489506594" lon="-8.561970958506695"><ele>68.0</ele><time>2026-04-05T17:57:04Z</time></trkpt><trkpt lat="42.46040130892907" lon="-8.561845160657171"><ele>68.0</ele><time>2026-04-05T17:57:05Z</time></trkpt><trkpt lat="42.460603877548415" lon="-8.561726585290744"><ele>68.66666666666667</ele><time>2026-04-05T17:57:06Z</time></trkpt><trkpt lat="42.460804570844346" lon="-8.561596007486068"><ele>69.33333333333333</ele><time>2026-04-05T17:57:07Z</time></trkpt><trkpt lat="42.46099808937261" lon="-8.56145041637926"><ele>70.0</ele><time>2026-04-05T17:57:08Z</time></trkpt><trkpt lat="42.46118274307372" lon="-8.561292303047844"><ele>72.66666666666666</ele><time>2026-04-05T17:57:09Z</time></trkpt><trkpt lat="42.46136138310374" lon="-8.561125108991801"><ele>75.33333333333333</ele><time>2026-04-05T17:57:10Z</time></trkpt><trkpt lat="42.46151481923905" lon="-8.560927220196376"><ele>78.0</ele><time>2026-04-05T17:57:11Z</time></trkpt><trkpt lat="42.461665356386945" lon="-8.560764565987428"><ele>78.0</ele><time>2026-04-05T17:57:12Z</time></trkpt><trkpt lat="42.46179469430176" lon="-8.560588292829605"><ele>78.0</ele><time>2026-04-05T17:57:13Z</time></trkpt><trkpt lat="42.46191824112323" lon="-8.560430689709598"><ele>78.0</ele><time>2026-04-05T17:57:13.999Z</time></trkpt><trkpt lat="42.462037386740505" lon="-8.560273141251413"><ele>79.0</ele><time>2026-04-05T17:57:14.999Z</time></trkpt><trkpt lat="42.46215697267855" lon="-8.560116763337266"><ele>80.0</ele><time>2026-04-05T17:57:15.999Z</time></trkpt><trkpt lat="42.462277873787336" lon="-8.55997167110575"><ele>81.0</ele><time>2026-04-05T17:57:16.999Z</time></trkpt><trkpt lat="42.462396904158744" lon="-8.559827372714343"><ele>81.0</ele><time>2026-04-05T17:57:17.999Z</time></trkpt><trkpt lat="42.462512637791974" lon="-8.55968860762319"><ele>81.0</ele><time>2026-04-05T17:57:18.999Z</time></trkpt><trkpt lat="42.46262742976996" lon="-8.559557269068108"><ele>81.0</ele><time>2026-04-05T17:57:19.999Z</time></trkpt><trkpt lat="42.46274443886468" lon="-8.559421133490451"><ele>81.33333333333333</ele><time>2026-04-05T17:57:20.999Z</time></trkpt><trkpt lat="42.462866164843064" lon="-8.55929858015814"><ele>81.66666666666666</ele><time>2026-04-05T17:57:22Z</time></trkpt><trkpt lat="42.46298901333939" lon="-8.55917744924976"><ele>82.0</ele><time>2026-04-05T17:57:23Z</time></trkpt><trkpt lat="42.46312100312594" lon="-8.559074781929965"><ele>81.33333333333333</ele><time>2026-04-05T17:57:24Z</time></trkpt><trkpt lat="42.46326267811684" lon="-8.558977787154674"><ele>80.66666666666667</ele><time>2026-04-05T17:57:25Z</time></trkpt><trkpt lat="42.46341023319974" lon="-8.558876587363624"><ele>80.0</ele><time>2026-04-05T17:57:26Z</time></trkpt><trkpt lat="42.46355868851416" lon="-8.558775500254159"><ele>80.33333333333334</ele><time>2026-04-05T17:57:27Z</time></trkpt><trkpt lat="42.46370794413578" lon="-8.558672998136183"><ele>80.66666666666667</ele><time>2026-04-05T17:57:28Z</time></trkpt><trkpt lat="42.46386049881884" lon="-8.558570783720892"><ele>81.0</ele><time>2026-04-05T17:57:29Z</time></trkpt><trkpt lat="42.46400983637324" lon="-8.558476860122815"><ele>81.33333333333333</ele><time>2026-04-05T17:57:30Z</time></trkpt><trkpt lat="42.464155851456205" lon="-8.558387282021094"><ele>81.66666666666666</ele><time>2026-04-05T17:57:31Z</time></trkpt><trkpt lat="42.46430054344572" lon="-8.558305117699513"><ele>82.0</ele><time>2026-04-05T17:57:32Z</time></trkpt><trkpt lat="42.46444447036999" lon="-8.558220488811799"><ele>82.0</ele><time>2026-04-05T17:57:33Z</time></trkpt><trkpt lat="42.4645925588527" lon="-8.558128017250448"><ele>82.0</ele><time>2026-04-05T17:57:34Z</time></trkpt><trkpt lat="42.46474009605684" lon="-8.558030705111209"><ele>82.0</ele><time>2026-04-05T17:57:35Z</time></trkpt><trkpt lat="42.464893306866294" lon="-8.557933798823095"><ele>82.66666666666666</ele><time>2026-04-05T17:57:36Z</time></trkpt><trkpt lat="42.4650551069722" lon="-8.557830447597803"><ele>83.33333333333333</ele><time>2026-04-05T17:57:37Z</time></trkpt><trkpt lat="42.46522367765664" lon="-8.557730906935035"><ele>84.0</ele><time>2026-04-05T17:57:38Z</time></trkpt><trkpt lat="42.46538757238248" lon="-8.55760404842516"><ele>84.0</ele><time>2026-04-05T17:57:39Z</time></trkpt><trkpt lat="42.465559084311124" lon="-8.55749558164561"><ele>84.0</ele><time>2026-04-05T17:57:40Z</time></trkpt><trkpt lat="42.46574382573515" lon="-8.557398235117851"><ele>84.0</ele><time>2026-04-05T17:57:41Z</time></trkpt><trkpt lat="42.46592464587951" lon="-8.557269130431944"><ele>84.0</ele><time>2026-04-05T17:57:42Z</time></trkpt><trkpt lat="42.4661081017912" lon="-8.557136285350815"><ele>84.0</ele><time>2026-04-05T17:57:43Z</time></trkpt><trkpt lat="42.46629232685645" lon="-8.557001154188196"><ele>84.0</ele><time>2026-04-05T17:57:44Z</time></trkpt><trkpt lat="42.466487172469705" lon="-8.556874079054799"><ele>84.33333333333333</ele><time>2026-04-05T17:57:45Z</time></trkpt><trkpt lat="42.46668603456931" lon="-8.556747364555367"><ele>84.66666666666666</ele><time>2026-04-05T17:57:46Z</time></trkpt><trkpt lat="42.46688265661871" lon="-8.556619982366596"><ele>85.0</ele><time>2026-04-05T17:57:47Z</time></trkpt><trkpt lat="42.46709232782556" lon="-8.556495448413953"><ele>84.5</ele><time>2026-04-05T17:57:48Z</time></trkpt><trkpt lat="42.46729585993034" lon="-8.556360631173323"><ele>84.0</ele><time>2026-04-05T17:57:49Z</time></trkpt><trkpt lat="42.467501382359714" lon="-8.556222038249452"><ele>86.0</ele><time>2026-04-05T17:57:50Z</time></trkpt><trkpt lat="42.467711257031745" lon="-8.556092939185334"><ele>88.0</ele><time>2026-04-05T17:57:51Z</time></trkpt><trkpt lat="42.467920040449684" lon="-8.555958859902974"><ele>86.0</ele><time>2026-04-05T17:57:52Z</time></trkpt><trkpt lat="42.468136114545835" lon="-8.555827268256458"><ele>84.0</ele><time>2026-04-05T17:57:53Z</time></trkpt><trkpt lat="42.46835364682932" lon="-8.555700687008247"><ele>84.0</ele><time>2026-04-05T17:57:54Z</time></trkpt><trkpt lat="42.468571219479294" lon="-8.555597647893249"><ele>84.0</ele><time>2026-04-05T17:57:55Z</time></trkpt><trkpt lat="42.46879783706935" lon="-8.555497264805977"><ele>84.5</ele><time>2026-04-05T17:57:56Z</time></trkpt><trkpt lat="42.46903235282674" lon="-8.555414396079952"><ele>85.0</ele><time>2026-04-05T17:57:57Z</time></trkpt><trkpt lat="42.46926627261191" lon="-8.555358948521835"><ele>85.0</ele><time>2026-04-05T17:57:58Z</time></trkpt><trkpt lat="42.46949716298221" lon="-8.555320790015408"><ele>85.0</ele><time>2026-04-05T17:57:59Z</time></trkpt><trkpt lat="42.46972982443344" lon="-8.555293857391984"><ele>89.5</ele><time>2026-04-05T17:58:00Z</time></trkpt><trkpt lat="42.4699555088316" lon="-8.555291819306696"><ele>94.0</ele><time>2026-04-05T17:58:01Z</time></trkpt><trkpt lat="42.470180970538536" lon="-8.555289710659144"><ele>94.0</ele><time>2026-04-05T17:58:02Z</time></trkpt><trkpt lat="42.470402650378446" lon="-8.555301656456963"><ele>94.0</ele><time>2026-04-05T17:58:03Z</time></trkpt><trkpt lat="42.4706257049873" lon="-8.555322631217514"><ele>94.0</ele><time>2026-04-05T17:58:04Z</time></trkpt><trkpt lat="42.4708473709637" lon="-8.555350264472931"><ele>95.66666666666666</ele><time>2026-04-05T17:58:05Z</time></trkpt><trkpt lat="42.47105284579363" lon="-8.555379757207689"><ele>97.33333333333333</ele><time>2026-04-05T17:58:06Z</time></trkpt><trkpt lat="42.471259387758984" lon="-8.555419750567507"><ele>99.0</ele><time>2026-04-05T17:58:07Z</time></trkpt><trkpt lat="42.47147521126509" lon="-8.555472466618166"><ele>99.0</ele><time>2026-04-05T17:58:08Z</time></trkpt><trkpt lat="42.471686757182255" lon="-8.55551770794167"><ele>99.0</ele><time>2026-04-05T17:58:09Z</time></trkpt><trkpt lat="42.471891861147036" lon="-8.555519343297611"><ele>99.0</ele><time>2026-04-05T17:58:10Z</time></trkpt><trkpt lat="42.472100867896444" lon="-8.555521158944442"><ele>102.0</ele><time>2026-04-05T17:58:11Z</time></trkpt><trkpt lat="42.47230351344156" lon="-8.555491965448478"><ele>105.0</ele><time>2026-04-05T17:58:12Z</time></trkpt><trkpt lat="42.47250871872656" lon="-8.555431502911127"><ele>108.0</ele><time>2026-04-05T17:58:13Z</time></trkpt><trkpt lat="42.47270826093092" lon="-8.55535723715241"><ele>110.33333333333334</ele><time>2026-04-05T17:58:14Z</time></trkpt><trkpt lat="42.472897404111436" lon="-8.555251962775339"><ele>112.66666666666667</ele><time>2026-04-05T17:58:15Z</time></trkpt><trkpt lat="42.47307654391078" lon="-8.555131533465888"><ele>115.0</ele><time>2026-04-05T17:58:16Z</time></trkpt><trkpt lat="42.473253667326425" lon="-8.555001839462772"><ele>115.66666666666667</ele><time>2026-04-05T17:58:17Z</time></trkpt><trkpt lat="42.47342815133383" lon="-8.554856860362971"><ele>116.33333333333334</ele><time>2026-04-05T17:58:18Z</time></trkpt><trkpt lat="42.473591757887824" lon="-8.554703701851093"><ele>117.0</ele><time>2026-04-05T17:58:19Z</time></trkpt><trkpt lat="42.47375966787822" lon="-8.554546021287155"><ele>123.66666666666666</ele><time>2026-04-05T17:58:20Z</time></trkpt><trkpt lat="42.47397741444001" lon="-8.554492818321485"><ele>130.33333333333331</ele><time>2026-04-05T17:58:21Z</time></trkpt><trkpt lat="42.4741683440311" lon="-8.554400901359553"><ele>137.0</ele><time>2026-04-05T17:58:22Z</time></trkpt><trkpt lat="42.474361756310365" lon="-8.554327116395854"><ele>137.0</ele><time>2026-04-05T17:58:23Z</time></trkpt><trkpt lat="42.47455290478419" lon="-8.55423002289675"><ele>137.0</ele><time>2026-04-05T17:58:24Z</time></trkpt><trkpt lat="42.474742340994496" lon="-8.554132010869777"><ele>137.0</ele><time>2026-04-05T17:58:25Z</time></trkpt><trkpt lat="42.47493361145892" lon="-8.554019913028052"><ele>141.33333333333331</ele><time>2026-04-05T17:58:26Z</time></trkpt><trkpt lat="42.47510537538177" lon="-8.553865197414378"><ele>145.66666666666666</ele><time>2026-04-05T17:58:27Z</time></trkpt><trkpt lat="42.47526749677146" lon="-8.553686622930394"><ele>150.0</ele><time>2026-04-05T17:58:28Z</time></trkpt><trkpt lat="42.475407423950585" lon="-8.553471799641295"><ele>143.66666666666666</ele><time>2026-04-05T17:58:29Z</time></trkpt><trkpt lat="42.47552805110922" lon="-8.553231159798646"><ele>137.33333333333331</ele><time>2026-04-05T17:58:30Z</time></trkpt><trkpt lat="42.47563684729611" lon="-8.552974693364293"><ele>131.0</ele><time>2026-04-05T17:58:31Z</time></trkpt><trkpt lat="42.47570403923848" lon="-8.552695284002576"><ele>131.0</ele><time>2026-04-05T17:58:32Z</time></trkpt><trkpt lat="42.47576239049639" lon="-8.552404292399427"><ele>131.0</ele><time>2026-04-05T17:58:33Z</time></trkpt><trkpt lat="42.47583263529245" lon="-8.552119882824028"><ele>131.0</ele><time>2026-04-05T17:58:34Z</time></trkpt><trkpt lat="42.47588134236538" lon="-8.551829287286873"><ele>133.5</ele><time>2026-04-05T17:58:35Z</time></trkpt><trkpt lat="42.475935099412645" lon="-8.551531856175181"><ele>136.0</ele><time>2026-04-05T17:58:36Z</time></trkpt><trkpt lat="42.475985433064466" lon="-8.551233048793954"><ele>139.5</ele><time>2026-04-05T17:58:37Z</time></trkpt><trkpt lat="42.47602843575807" lon="-8.55092789446263"><ele>143.0</ele><time>2026-04-05T17:58:38Z</time></trkpt><trkpt lat="42.476072450432135" lon="-8.550615859406602"><ele>145.5</ele><time>2026-04-05T17:58:39Z</time></trkpt><trkpt lat="42.47611396998275" lon="-8.550298951736405"><ele>148.0</ele><time>2026-04-05T17:58:40Z</time></trkpt><trkpt lat="42.47615059003456" lon="-8.549985875059349"><ele>148.0</ele><time>2026-04-05T17:58:41Z</time></trkpt><trkpt lat="42.47619365318428" lon="-8.549675672948831"><ele>148.0</ele><time>2026-04-05T17:58:42Z</time></trkpt><trkpt lat="42.47623178653812" lon="-8.54935861384869"><ele>138.0</ele><time>2026-04-05T17:58:43Z</time></trkpt><trkpt lat="42.476279853755614" lon="-8.54905641244884"><ele>128.0</ele><time>2026-04-05T17:58:44Z</time></trkpt><trkpt lat="42.476348470058525" lon="-8.5487554995296"><ele>131.5</ele><time>2026-04-05T17:58:45Z</time></trkpt><trkpt lat="42.47644196335506" lon="-8.548466721806154"><ele>135.0</ele><time>2026-04-05T17:58:46Z</time></trkpt><trkpt lat="42.47654838278287" lon="-8.548194482620673"><ele>135.0</ele><time>2026-04-05T17:58:47Z</time></trkpt><trkpt lat="42.476658118796806" lon="-8.547919339374287"><ele>135.0</ele><time>2026-04-05T17:58:48Z</time></trkpt><trkpt lat="42.47677142855253" lon="-8.547651853488732"><ele>136.0</ele><time>2026-04-05T17:58:49Z</time></trkpt><trkpt lat="42.47687561658029" lon="-8.547377350999378"><ele>137.0</ele><time>2026-04-05T17:58:50Z</time></trkpt><trkpt lat="42.47696210388812" lon="-8.547091870299676"><ele>133.5</ele><time>2026-04-05T17:58:51Z</time></trkpt><trkpt lat="42.47705171779254" lon="-8.546811127309537"><ele>130.0</ele><time>2026-04-05T17:58:52Z</time></trkpt><trkpt lat="42.47712222863934" lon="-8.546521553068747"><ele>134.33333333333334</ele><time>2026-04-05T17:58:53Z</time></trkpt><trkpt lat="42.47717531017082" lon="-8.546231458877081"><ele>138.66666666666666</ele><time>2026-04-05T17:58:54Z</time></trkpt><trkpt lat="42.47721628762489" lon="-8.545932296998611"><ele>143.0</ele><time>2026-04-05T17:58:55Z</time></trkpt><trkpt lat="42.47725486465186" lon="-8.545638556781393"><ele>142.0</ele><time>2026-04-05T17:58:56Z</time></trkpt><trkpt lat="42.47731066537478" lon="-8.545354667653752"><ele>141.0</ele><time>2026-04-05T17:58:57Z</time></trkpt><trkpt lat="42.47739121519164" lon="-8.545075257423086"><ele>140.0</ele><time>2026-04-05T17:58:58Z</time></trkpt><trkpt lat="42.47749487449403" lon="-8.544820037173467"><ele>140.0</ele><time>2026-04-05T17:58:59Z</time></trkpt><trkpt lat="42.47761287068819" lon="-8.544576044997141"><ele>140.0</ele><time>2026-04-05T17:59:00Z</time></trkpt><trkpt lat="42.47773740454643" lon="-8.544344450174819"><ele>140.0</ele><time>2026-04-05T17:59:01Z</time></trkpt><trkpt lat="42.47787614760149" lon="-8.544129928291609"><ele>142.33333333333331</ele><time>2026-04-05T17:59:02Z</time></trkpt><trkpt lat="42.47802112155677" lon="-8.543923319558502"><ele>144.66666666666666</ele><time>2026-04-05T17:59:03Z</time></trkpt><trkpt lat="42.47817658181419" lon="-8.54373579356412"><ele>147.0</ele><time>2026-04-05T17:59:04Z</time></trkpt><trkpt lat="42.47834009718846" lon="-8.543558548575401"><ele>147.0</ele><time>2026-04-05T17:59:05Z</time></trkpt><trkpt lat="42.47850965753661" lon="-8.543396623803607"><ele>147.0</ele><time>2026-04-05T17:59:06Z</time></trkpt><trkpt lat="42.47868810556315" lon="-8.543249686963906"><ele>147.0</ele><time>2026-04-05T17:59:07Z</time></trkpt><trkpt lat="42.47887167312326" lon="-8.543111508586508"><ele>148.0</ele><time>2026-04-05T17:59:08Z</time></trkpt><trkpt lat="42.47905595235297" lon="-8.542985228495823"><ele>149.0</ele><time>2026-04-05T17:59:08.999Z</time></trkpt><trkpt lat="42.47924124040898" lon="-8.542858630511132"><ele>150.0</ele><time>2026-04-05T17:59:09.999Z</time></trkpt><trkpt lat="42.47942786438884" lon="-8.542741385801682"><ele>153.33333333333334</ele><time>2026-04-05T17:59:10.999Z</time></trkpt><trkpt lat="42.47961700120532" lon="-8.54263045902611"><ele>156.66666666666669</ele><time>2026-04-05T17:59:11.999Z</time></trkpt><trkpt lat="42.479803066057336" lon="-8.542530973067766"><ele>160.0</ele><time>2026-04-05T17:59:12.999Z</time></trkpt><trkpt lat="42.47999729444393" lon="-8.542439317720937"><ele>160.0</ele><time>2026-04-05T17:59:13.999Z</time></trkpt><trkpt lat="42.48019411501891" lon="-8.542352360437047"><ele>160.0</ele><time>2026-04-05T17:59:14.999Z</time></trkpt><trkpt lat="42.480391342575516" lon="-8.542271603998367"><ele>160.0</ele><time>2026-04-05T17:59:15.999Z</time></trkpt><trkpt lat="42.480591280341706" lon="-8.542196034922908"><ele>160.0</ele><time>2026-04-05T17:59:16.999Z</time></trkpt><trkpt lat="42.48079132124191" lon="-8.542127619462583"><ele>160.0</ele><time>2026-04-05T17:59:17.999Z</time></trkpt><trkpt lat="42.480996305276136" lon="-8.54205134556562"><ele>160.0</ele><time>2026-04-05T17:59:18.999Z</time></trkpt><trkpt lat="42.48119248535391" lon="-8.541970208125619"><ele>163.0</ele><time>2026-04-05T17:59:19.999Z</time></trkpt><trkpt lat="42.48139163274752" lon="-8.541892295861333"><ele>166.0</ele><time>2026-04-05T17:59:20.999Z</time></trkpt><trkpt lat="42.48159600241607" lon="-8.54181243842222"><ele>169.0</ele><time>2026-04-05T17:59:21.999Z</time></trkpt><trkpt lat="42.481799755367554" lon="-8.541735502572728"><ele>169.0</ele><time>2026-04-05T17:59:22.999Z</time></trkpt><trkpt lat="42.48200091383752" lon="-8.541661027607956"><ele>169.0</ele><time>2026-04-05T17:59:23.999Z</time></trkpt><trkpt lat="42.48220181131499" lon="-8.54158374363623"><ele>169.0</ele><time>2026-04-05T17:59:24.999Z</time></trkpt><trkpt lat="42.482402204715584" lon="-8.541503090284651"><ele>171.66666666666669</ele><time>2026-04-05T17:59:25.999Z</time></trkpt><trkpt lat="42.48260259156897" lon="-8.541421508959266"><ele>174.33333333333334</ele><time>2026-04-05T17:59:26.999Z</time></trkpt><trkpt lat="42.482803848007755" lon="-8.541346283968757"><ele>177.0</ele><time>2026-04-05T17:59:28Z</time></trkpt><trkpt lat="42.48300274833229" lon="-8.541267669649885"><ele>180.0</ele><time>2026-04-05T17:59:29Z</time></trkpt><trkpt lat="42.48320248465722" lon="-8.541190401567144"><ele>183.0</ele><time>2026-04-05T17:59:30Z</time></trkpt><trkpt lat="42.48340203099328" lon="-8.541120131105993"><ele>186.0</ele><time>2026-04-05T17:59:31Z</time></trkpt><trkpt lat="42.48360330628128" lon="-8.54104854810725"><ele>187.0</ele><time>2026-04-05T17:59:32Z</time></trkpt><trkpt lat="42.48380542651267" lon="-8.541003861118917"><ele>188.0</ele><time>2026-04-05T17:59:33Z</time></trkpt><trkpt lat="42.484013050178774" lon="-8.540981344307482"><ele>189.0</ele><time>2026-04-05T17:59:34Z</time></trkpt><trkpt lat="42.48421883311153" lon="-8.540995702204434"><ele>189.0</ele><time>2026-04-05T17:59:35Z</time></trkpt><trkpt lat="42.48442455417634" lon="-8.541030919667898"><ele>189.0</ele><time>2026-04-05T17:59:36Z</time></trkpt><trkpt lat="42.48462641842115" lon="-8.541096015382056"><ele>189.0</ele><time>2026-04-05T17:59:37Z</time></trkpt><trkpt lat="42.48482194668241" lon="-8.541181947139794"><ele>191.66666666666669</ele><time>2026-04-05T17:59:38Z</time></trkpt><trkpt lat="42.485015159281836" lon="-8.54128946278794"><ele>194.33333333333334</ele><time>2026-04-05T17:59:39Z</time></trkpt><trkpt lat="42.48520091562692" lon="-8.541404370656393"><ele>197.0</ele><time>2026-04-05T17:59:40Z</time></trkpt><trkpt lat="42.48539189816789" lon="-8.54151420526751"><ele>198.33333333333334</ele><time>2026-04-05T17:59:41Z</time></trkpt><trkpt lat="42.48558286533574" lon="-8.541602201207272"><ele>199.66666666666669</ele><time>2026-04-05T17:59:42Z</time></trkpt><trkpt lat="42.48578466002841" lon="-8.541672991724859"><ele>201.0</ele><time>2026-04-05T17:59:43Z</time></trkpt><trkpt lat="42.485987965691784" lon="-8.541707579058917"><ele>201.0</ele><time>2026-04-05T17:59:44Z</time></trkpt><trkpt lat="42.48619137369536" lon="-8.541720692911845"><ele>201.0</ele><time>2026-04-05T17:59:45Z</time></trkpt><trkpt lat="42.48639440778771" lon="-8.541712360534037"><ele>201.0</ele><time>2026-04-05T17:59:46Z</time></trkpt><trkpt lat="42.48660129430778" lon="-8.541701045362581"><ele>202.66666666666669</ele><time>2026-04-05T17:59:47Z</time></trkpt><trkpt lat="42.48680096819413" lon="-8.541720508403854"><ele>204.33333333333334</ele><time>2026-04-05T17:59:48Z</time></trkpt><trkpt lat="42.487001178324306" lon="-8.541753693437462"><ele>206.0</ele><time>2026-04-05T17:59:49Z</time></trkpt><trkpt lat="42.48719467374424" lon="-8.541809443523208"><ele>207.66666666666669</ele><time>2026-04-05T17:59:50Z</time></trkpt><trkpt lat="42.48738397295156" lon="-8.541903120202885"><ele>209.33333333333331</ele><time>2026-04-05T17:59:51Z</time></trkpt><trkpt lat="42.48754761071625" lon="-8.542043135302611"><ele>211.0</ele><time>2026-04-05T17:59:52Z</time></trkpt><trkpt lat="42.48771217748492" lon="-8.542208639956218"><ele>213.66666666666666</ele><time>2026-04-05T17:59:53Z</time></trkpt><trkpt lat="42.48784879896895" lon="-8.542401980450721"><ele>216.33333333333331</ele><time>2026-04-05T17:59:54Z</time></trkpt><trkpt lat="42.48796817804949" lon="-8.54261795691465"><ele>219.0</ele><time>2026-04-05T17:59:55Z</time></trkpt><trkpt lat="42.48807433346196" lon="-8.5428492827639"><ele>222.33333333333331</ele><time>2026-04-05T17:59:56Z</time></trkpt><trkpt lat="42.4881492378465" lon="-8.543089193309978"><ele>225.66666666666666</ele><time>2026-04-05T17:59:57Z</time></trkpt><trkpt lat="42.488218453169075" lon="-8.543338870148974"><ele>229.0</ele><time>2026-04-05T17:59:58Z</time></trkpt><trkpt lat="42.48829407258892" lon="-8.543584537586028"><ele>231.66666666666666</ele><time>2026-04-05T17:59:59Z</time></trkpt><trkpt lat="42.48837525981476" lon="-8.543826289951932"><ele>234.33333333333331</ele><time>2026-04-05T18:00:00Z</time></trkpt><trkpt lat="42.488468906303105" lon="-8.544062216727767"><ele>237.0</ele><time>2026-04-05T18:00:01Z</time></trkpt><trkpt lat="42.488601915269584" lon="-8.544255754894335"><ele>237.0</ele><time>2026-04-05T18:00:02Z</time></trkpt><trkpt lat="42.488748761077495" lon="-8.54443187948043"><ele>237.0</ele><time>2026-04-05T18:00:03Z</time></trkpt><trkpt lat="42.48890063664991" lon="-8.544603509446542"><ele>237.0</ele><time>2026-04-05T18:00:04Z</time></trkpt><trkpt lat="42.48908048654692" lon="-8.54472275664674"><ele>235.66666666666669</ele><time>2026-04-05T18:00:05Z</time></trkpt><trkpt lat="42.48926970180638" lon="-8.544811682034577"><ele>234.33333333333334</ele><time>2026-04-05T18:00:06Z</time></trkpt><trkpt lat="42.4894610152077" lon="-8.544872664351892"><ele>233.0</ele><time>2026-04-05T18:00:07Z</time></trkpt><trkpt lat="42.489652860505345" lon="-8.544898495052546"><ele>233.0</ele><time>2026-04-05T18:00:08Z</time></trkpt><trkpt lat="42.489852009819344" lon="-8.544897037699227"><ele>233.0</ele><time>2026-04-05T18:00:09Z</time></trkpt><trkpt lat="42.49004960281177" lon="-8.544862871888409"><ele>233.0</ele><time>2026-04-05T18:00:10Z</time></trkpt><trkpt lat="42.49023991499991" lon="-8.544799922155287"><ele>233.0</ele><time>2026-04-05T18:00:11Z</time></trkpt><trkpt lat="42.490422544416376" lon="-8.544706108145009"><ele>233.0</ele><time>2026-04-05T18:00:12Z</time></trkpt><trkpt lat="42.49059700806184" lon="-8.544572941635453"><ele>233.0</ele><time>2026-04-05T18:00:13Z</time></trkpt><trkpt lat="42.49075562438589" lon="-8.54441501799988"><ele>236.66666666666669</ele><time>2026-04-05T18:00:14Z</time></trkpt><trkpt lat="42.49090240831514" lon="-8.544237171815787"><ele>240.33333333333331</ele><time>2026-04-05T18:00:15Z</time></trkpt><trkpt lat="42.491032970163346" lon="-8.544037173578372"><ele>244.0</ele><time>2026-04-05T18:00:16Z</time></trkpt><trkpt lat="42.49115764582508" lon="-8.543830392186443"><ele>243.33333333333331</ele><time>2026-04-05T18:00:17Z</time></trkpt><trkpt lat="42.49127160938555" lon="-8.543613513961594"><ele>242.66666666666669</ele><time>2026-04-05T18:00:18Z</time></trkpt><trkpt lat="42.491384478273424" lon="-8.543396970206526"><ele>242.0</ele><time>2026-04-05T18:00:19Z</time></trkpt><trkpt lat="42.49150127350934" lon="-8.54317908196641"><ele>242.0</ele><time>2026-04-05T18:00:20Z</time></trkpt><trkpt lat="42.49162114224429" lon="-8.542958780699864"><ele>242.0</ele><time>2026-04-05T18:00:21Z</time></trkpt><trkpt lat="42.49174343900306" lon="-8.542739993308192"><ele>242.0</ele><time>2026-04-05T18:00:22Z</time></trkpt><trkpt lat="42.49187563312486" lon="-8.542522291604023"><ele>239.66666666666669</ele><time>2026-04-05T18:00:23Z</time></trkpt><trkpt lat="42.49201491534442" lon="-8.542314436287532"><ele>237.33333333333331</ele><time>2026-04-05T18:00:24Z</time></trkpt><trkpt lat="42.4921660411804" lon="-8.542110502469244"><ele>235.0</ele><time>2026-04-05T18:00:25Z</time></trkpt><trkpt lat="42.4923280449131" lon="-8.541912439864065"><ele>240.33333333333331</ele><time>2026-04-05T18:00:26Z</time></trkpt><trkpt lat="42.49250108107484" lon="-8.541732434992523"><ele>245.66666666666669</ele><time>2026-04-05T18:00:27Z</time></trkpt><trkpt lat="42.49268091113412" lon="-8.541565406395176"><ele>251.0</ele><time>2026-04-05T18:00:28Z</time></trkpt><trkpt lat="42.49287318590712" lon="-8.541402507486898"><ele>254.5</ele><time>2026-04-05T18:00:29Z</time></trkpt><trkpt lat="42.49306822190884" lon="-8.541250049251927"><ele>258.0</ele><time>2026-04-05T18:00:30Z</time></trkpt><trkpt lat="42.49327385098321" lon="-8.541111293830928"><ele>258.0</ele><time>2026-04-05T18:00:31Z</time></trkpt><trkpt lat="42.49348254684455" lon="-8.54099237796231"><ele>258.0</ele><time>2026-04-05T18:00:32Z</time></trkpt><trkpt lat="42.493692933838645" lon="-8.540886974089727"><ele>255.0</ele><time>2026-04-05T18:00:33Z</time></trkpt><trkpt lat="42.49388816844784" lon="-8.54079013758416"><ele>252.0</ele><time>2026-04-05T18:00:34Z</time></trkpt><trkpt lat="42.494081200997776" lon="-8.540704847080919"><ele>249.0</ele><time>2026-04-05T18:00:35Z</time></trkpt><trkpt lat="42.49428018563042" lon="-8.54064385780731"><ele>249.0</ele><time>2026-04-05T18:00:36Z</time></trkpt><trkpt lat="42.49448219580316" lon="-8.54060749848082"><ele>249.0</ele><time>2026-04-05T18:00:37Z</time></trkpt><trkpt lat="42.49468224372631" lon="-8.540601407486818"><ele>249.0</ele><time>2026-04-05T18:00:38Z</time></trkpt><trkpt lat="42.49487924683274" lon="-8.540640917073501"><ele>249.33333333333331</ele><time>2026-04-05T18:00:39Z</time></trkpt><trkpt lat="42.49507608073227" lon="-8.54071183025961"><ele>249.66666666666666</ele><time>2026-04-05T18:00:40Z</time></trkpt><trkpt lat="42.49527466660973" lon="-8.540802273420557"><ele>250.0</ele><time>2026-04-05T18:00:41Z</time></trkpt><trkpt lat="42.495472015304" lon="-8.540883305258129"><ele>253.33333333333331</ele><time>2026-04-05T18:00:42Z</time></trkpt><trkpt lat="42.49567895951672" lon="-8.540936860132144"><ele>256.6666666666667</ele><time>2026-04-05T18:00:43Z</time></trkpt><trkpt lat="42.4958883751441" lon="-8.540967679298186"><ele>260.0</ele><time>2026-04-05T18:00:44Z</time></trkpt><trkpt lat="42.496088671607446" lon="-8.54092198561113"><ele>257.33333333333337</ele><time>2026-04-05T18:00:45Z</time></trkpt><trkpt lat="42.49629025405278" lon="-8.540865055980452"><ele>254.66666666666669</ele><time>2026-04-05T18:00:46Z</time></trkpt><trkpt lat="42.49648452794562" lon="-8.540770965249754"><ele>252.0</ele><time>2026-04-05T18:00:47Z</time></trkpt><trkpt lat="42.49667814709675" lon="-8.540643553803514"><ele>252.0</ele><time>2026-04-05T18:00:48Z</time></trkpt><trkpt lat="42.49686368529813" lon="-8.540491442963821"><ele>252.0</ele><time>2026-04-05T18:00:49Z</time></trkpt><trkpt lat="42.49705251468669" lon="-8.540323948052933"><ele>252.0</ele><time>2026-04-05T18:00:50Z</time></trkpt><trkpt lat="42.49723846155409" lon="-8.540152069052908"><ele>251.0</ele><time>2026-04-05T18:00:51Z</time></trkpt><trkpt lat="42.497437386972294" lon="-8.540002317492567"><ele>250.0</ele><time>2026-04-05T18:00:52Z</time></trkpt><trkpt lat="42.497652633765966" lon="-8.539897052667984"><ele>250.0</ele><time>2026-04-05T18:00:53Z</time></trkpt><trkpt lat="42.49787611200741" lon="-8.539841534327797"><ele>250.0</ele><time>2026-04-05T18:00:54Z</time></trkpt><trkpt lat="42.49810319806303" lon="-8.539830089255258"><ele>249.5</ele><time>2026-04-05T18:00:55Z</time></trkpt><trkpt lat="42.49832921645687" lon="-8.539856655696923"><ele>249.0</ele><time>2026-04-05T18:00:56Z</time></trkpt><trkpt lat="42.498549278534156" lon="-8.539918283106909"><ele>254.5</ele><time>2026-04-05T18:00:57Z</time></trkpt><trkpt lat="42.49877207689691" lon="-8.53999126582551"><ele>260.0</ele><time>2026-04-05T18:00:58Z</time></trkpt><trkpt lat="42.49899374141108" lon="-8.540058053937774"><ele>260.0</ele><time>2026-04-05T18:00:59Z</time></trkpt><trkpt lat="42.49921539976834" lon="-8.540097213461946"><ele>260.0</ele><time>2026-04-05T18:00:59.999Z</time></trkpt><trkpt lat="42.499438919451435" lon="-8.54006310874273"><ele>260.0</ele><time>2026-04-05T18:01:00.999Z</time></trkpt><trkpt lat="42.49966002811478" lon="-8.5400041696227"><ele>260.0</ele><time>2026-04-05T18:01:01.999Z</time></trkpt><trkpt lat="42.499868828504525" lon="-8.53989987824994"><ele>260.0</ele><time>2026-04-05T18:01:02.999Z</time></trkpt><trkpt lat="42.5000651129984" lon="-8.539766016607858"><ele>260.0</ele><time>2026-04-05T18:01:03.999Z</time></trkpt><trkpt lat="42.5002461765394" lon="-8.539598946972536"><ele>260.33333333333337</ele><time>2026-04-05T18:01:04.999Z</time></trkpt><trkpt lat="42.50040920366267" lon="-8.539395312001396"><ele>260.6666666666667</ele><time>2026-04-05T18:01:05.999Z</time></trkpt><trkpt lat="42.50055257244528" lon="-8.539163041696582"><ele>261.0</ele><time>2026-04-05T18:01:06.999Z</time></trkpt><trkpt lat="42.50068035805234" lon="-8.538916553897037"><ele>264.0</ele><time>2026-04-05T18:01:07.999Z</time></trkpt><trkpt lat="42.500810157917286" lon="-8.538667698480703"><ele>267.0</ele><time>2026-04-05T18:01:08.999Z</time></trkpt><trkpt lat="42.50093432951306" lon="-8.538419574157365"><ele>270.0</ele><time>2026-04-05T18:01:09.999Z</time></trkpt><trkpt lat="42.50107724601996" lon="-8.53819120109372"><ele>270.0</ele><time>2026-04-05T18:01:10.999Z</time></trkpt><trkpt lat="42.501235167181" lon="-8.537985567150992"><ele>270.0</ele><time>2026-04-05T18:01:11.999Z</time></trkpt><trkpt lat="42.50139800006539" lon="-8.537787675359441"><ele>270.0</ele><time>2026-04-05T18:01:12.999Z</time></trkpt><trkpt lat="42.50155888881155" lon="-8.537587207082101"><ele>272.3333333333333</ele><time>2026-04-05T18:01:13.999Z</time></trkpt><trkpt lat="42.50172407988291" lon="-8.537393439710883"><ele>274.66666666666663</ele><time>2026-04-05T18:01:14.999Z</time></trkpt><trkpt lat="42.50188975119615" lon="-8.537205152706777"><ele>277.0</ele><time>2026-04-05T18:01:15.999Z</time></trkpt><trkpt lat="42.502053694110835" lon="-8.537009331557384"><ele>279.3333333333333</ele><time>2026-04-05T18:01:16.999Z</time></trkpt><trkpt lat="42.50222010827768" lon="-8.53682057317656"><ele>281.6666666666667</ele><time>2026-04-05T18:01:17.999Z</time></trkpt><trkpt lat="42.502397398651105" lon="-8.536637874409484"><ele>284.0</ele><time>2026-04-05T18:01:18.999Z</time></trkpt><trkpt lat="42.5025835352816" lon="-8.536497309889642"><ele>284.0</ele><time>2026-04-05T18:01:19.999Z</time></trkpt><trkpt lat="42.502784687746804" lon="-8.536380424662998"><ele>284.0</ele><time>2026-04-05T18:01:20.999Z</time></trkpt><trkpt lat="42.50299092672494" lon="-8.53629781338999"><ele>284.0</ele><time>2026-04-05T18:01:21.999Z</time></trkpt><trkpt lat="42.50320267210112" lon="-8.536249138046252"><ele>282.33333333333337</ele><time>2026-04-05T18:01:22.999Z</time></trkpt><trkpt lat="42.50342676616748" lon="-8.53623561259476"><ele>280.6666666666667</ele><time>2026-04-05T18:01:23.999Z</time></trkpt><trkpt lat="42.50363997867539" lon="-8.536247794213141"><ele>279.0</ele><time>2026-04-05T18:01:24.999Z</time></trkpt><trkpt lat="42.503855715509" lon="-8.536268548159942"><ele>279.0</ele><time>2026-04-05T18:01:25.999Z</time></trkpt><trkpt lat="42.50407456901782" lon="-8.536261242679487"><ele>279.0</ele><time>2026-04-05T18:01:26.999Z</time></trkpt><trkpt lat="42.50429375390408" lon="-8.536218788912178"><ele>279.0</ele><time>2026-04-05T18:01:27.999Z</time></trkpt><trkpt lat="42.50451473880023" lon="-8.536137098365582"><ele>282.5</ele><time>2026-04-05T18:01:28.999Z</time></trkpt><trkpt lat="42.50472238115255" lon="-8.5360065590843"><ele>286.0</ele><time>2026-04-05T18:01:29.999Z</time></trkpt><trkpt lat="42.50491438250585" lon="-8.535835871419655"><ele>286.0</ele><time>2026-04-05T18:01:30.999Z</time></trkpt><trkpt lat="42.50508616532983" lon="-8.535634246498716"><ele>286.0</ele><time>2026-04-05T18:01:31.999Z</time></trkpt><trkpt lat="42.505235293329996" lon="-8.535391482694088"><ele>283.3333333333333</ele><time>2026-04-05T18:01:32.999Z</time></trkpt><trkpt lat="42.50534639235488" lon="-8.535139115603668"><ele>280.6666666666667</ele><time>2026-04-05T18:01:34Z</time></trkpt><trkpt lat="42.5054257753495" lon="-8.534861758750516"><ele>278.0</ele><time>2026-04-05T18:01:35Z</time></trkpt><trkpt lat="42.50547267739181" lon="-8.534565340703281"><ele>279.6666666666667</ele><time>2026-04-05T18:01:36Z</time></trkpt><trkpt lat="42.50550268375845" lon="-8.534271660866807"><ele>281.3333333333333</ele><time>2026-04-05T18:01:37Z</time></trkpt><trkpt lat="42.505535425004275" lon="-8.533983112945327"><ele>283.0</ele><time>2026-04-05T18:01:38Z</time></trkpt><trkpt lat="42.505574797365966" lon="-8.533701092841518"><ele>286.66666666666663</ele><time>2026-04-05T18:01:39Z</time></trkpt><trkpt lat="42.505614354359814" lon="-8.533412085861125"><ele>290.3333333333333</ele><time>2026-04-05T18:01:40Z</time></trkpt><trkpt lat="42.505649589869414" lon="-8.533121492706341"><ele>294.0</ele><time>2026-04-05T18:01:41Z</time></trkpt><trkpt lat="42.50566323144305" lon="-8.532826823372458"><ele>295.6666666666667</ele><time>2026-04-05T18:01:42Z</time></trkpt><trkpt lat="42.505648672319396" lon="-8.53253184000876"><ele>297.33333333333337</ele><time>2026-04-05T18:01:43Z</time></trkpt><trkpt lat="42.50560587990996" lon="-8.532244575023094"><ele>299.0</ele><time>2026-04-05T18:01:44Z</time></trkpt><trkpt lat="42.505524934775366" lon="-8.531975762334593"><ele>299.0</ele><time>2026-04-05T18:01:45Z</time></trkpt><trkpt lat="42.505426175924384" lon="-8.531715780844353"><ele>299.0</ele><time>2026-04-05T18:01:46Z</time></trkpt><trkpt lat="42.50530413738357" lon="-8.531479278678674"><ele>299.0</ele><time>2026-04-05T18:01:47Z</time></trkpt><trkpt lat="42.50514440085583" lon="-8.531285376619099"><ele>302.0</ele><time>2026-04-05T18:01:48Z</time></trkpt><trkpt lat="42.50498283720551" lon="-8.531108392220828"><ele>305.0</ele><time>2026-04-05T18:01:49Z</time></trkpt><trkpt lat="42.50480462581338" lon="-8.530964333491031"><ele>308.0</ele><time>2026-04-05T18:01:50Z</time></trkpt><trkpt lat="42.50461020826951" lon="-8.530850300639422"><ele>311.33333333333337</ele><time>2026-04-05T18:01:51Z</time></trkpt><trkpt lat="42.50440742487711" lon="-8.530772136316877"><ele>314.6666666666667</ele><time>2026-04-05T18:01:52Z</time></trkpt><trkpt lat="42.50419667803861" lon="-8.530700918739587"><ele>318.0</ele><time>2026-04-05T18:01:53Z</time></trkpt><trkpt lat="42.5039903045689" lon="-8.530619365029647"><ele>318.0</ele><time>2026-04-05T18:01:54Z</time></trkpt><trkpt lat="42.5037812496767" lon="-8.530559689291659"><ele>318.0</ele><time>2026-04-05T18:01:55Z</time></trkpt><trkpt lat="42.503566863339465" lon="-8.530492720255127"><ele>318.0</ele><time>2026-04-05T18:01:56Z</time></trkpt><trkpt lat="42.503352856415326" lon="-8.53041938451139"><ele>317.0</ele><time>2026-04-05T18:01:57Z</time></trkpt><trkpt lat="42.503141183226866" lon="-8.530338381743713"><ele>316.0</ele><time>2026-04-05T18:01:58Z</time></trkpt><trkpt lat="42.502935746164994" lon="-8.530221405886808"><ele>315.0</ele><time>2026-04-05T18:01:59Z</time></trkpt><trkpt lat="42.5027420023458" lon="-8.530107492785577"><ele>315.0</ele><time>2026-04-05T18:02:00Z</time></trkpt><trkpt lat="42.502571804418274" lon="-8.529950246883832"><ele>315.0</ele><time>2026-04-05T18:02:01Z</time></trkpt><trkpt lat="42.502414951467735" lon="-8.529765186552147"><ele>315.0</ele><time>2026-04-05T18:02:02Z</time></trkpt><trkpt lat="42.50228214655732" lon="-8.52954300948546"><ele>313.6666666666667</ele><time>2026-04-05T18:02:03Z</time></trkpt><trkpt lat="42.50216853713154" lon="-8.529308054601254"><ele>312.33333333333337</ele><time>2026-04-05T18:02:04Z</time></trkpt><trkpt lat="42.50207452535206" lon="-8.529053964193535"><ele>311.0</ele><time>2026-04-05T18:02:05Z</time></trkpt><trkpt lat="42.5020067815673" lon="-8.52877849983094"><ele>316.6666666666667</ele><time>2026-04-05T18:02:06Z</time></trkpt><trkpt lat="42.50198375775346" lon="-8.528489181145078"><ele>322.3333333333333</ele><time>2026-04-05T18:02:07Z</time></trkpt><trkpt lat="42.50195148871154" lon="-8.528199119683386"><ele>328.0</ele><time>2026-04-05T18:02:08Z</time></trkpt><trkpt lat="42.50194584661185" lon="-8.527902099790605"><ele>330.66666666666663</ele><time>2026-04-05T18:02:09Z</time></trkpt><trkpt lat="42.50196702801822" lon="-8.52760025163441"><ele>333.3333333333333</ele><time>2026-04-05T18:02:10Z</time></trkpt><trkpt lat="42.50201093072256" lon="-8.527301687690928"><ele>336.0</ele><time>2026-04-05T18:02:11Z</time></trkpt><trkpt lat="42.50207750073512" lon="-8.527008287633729"><ele>323.0</ele><time>2026-04-05T18:02:12Z</time></trkpt><trkpt lat="42.50216482273505" lon="-8.526726719040685"><ele>310.0</ele><time>2026-04-05T18:02:13Z</time></trkpt><trkpt lat="42.502256273735426" lon="-8.526442014873874"><ele>313.0</ele><time>2026-04-05T18:02:14Z</time></trkpt><trkpt lat="42.502363813191785" lon="-8.526169971715944"><ele>316.0</ele><time>2026-04-05T18:02:15Z</time></trkpt><trkpt lat="42.50249151327329" lon="-8.525903637371876"><ele>316.0</ele><time>2026-04-05T18:02:16Z</time></trkpt><trkpt lat="42.50263883615299" lon="-8.52566164140836"><ele>316.0</ele><time>2026-04-05T18:02:17Z</time></trkpt><trkpt lat="42.50280450351612" lon="-8.52543258179935"><ele>310.5</ele><time>2026-04-05T18:02:18Z</time></trkpt><trkpt lat="42.5029783081946" lon="-8.525214100812525"><ele>305.0</ele><time>2026-04-05T18:02:19Z</time></trkpt><trkpt lat="42.503163807222926" lon="-8.525005285704639"><ele>305.0</ele><time>2026-04-05T18:02:20Z</time></trkpt><trkpt lat="42.503356116877264" lon="-8.524811959051405"><ele>305.0</ele><time>2026-04-05T18:02:21Z</time></trkpt><trkpt lat="42.503541453371064" lon="-8.524650644320447"><ele>302.33333333333337</ele><time>2026-04-05T18:02:22Z</time></trkpt><trkpt lat="42.50371339978493" lon="-8.524488642805876"><ele>299.6666666666667</ele><time>2026-04-05T18:02:23Z</time></trkpt><trkpt lat="42.50387159435548" lon="-8.524313113864718"><ele>297.0</ele><time>2026-04-05T18:02:24Z</time></trkpt><trkpt lat="42.50399710794649" lon="-8.524109175858806"><ele>297.0</ele><time>2026-04-05T18:02:25Z</time></trkpt><trkpt lat="42.504110125604896" lon="-8.52391503941507"><ele>297.0</ele><time>2026-04-05T18:02:26Z</time></trkpt><trkpt lat="42.50422181279718" lon="-8.523708434300492"><ele>297.0</ele><time>2026-04-05T18:02:27Z</time></trkpt><trkpt lat="42.504317738600626" lon="-8.523488512094506"><ele>300.3333333333333</ele><time>2026-04-05T18:02:28Z</time></trkpt><trkpt lat="42.50439586360706" lon="-8.523248302645351"><ele>303.66666666666663</ele><time>2026-04-05T18:02:29Z</time></trkpt><trkpt lat="42.504456815631585" lon="-8.522997191570738"><ele>307.0</ele><time>2026-04-05T18:02:30Z</time></trkpt><trkpt lat="42.50451157476565" lon="-8.522742464915137"><ele>309.0</ele><time>2026-04-05T18:02:31Z</time></trkpt><trkpt lat="42.504565233222074" lon="-8.522481533621034"><ele>311.0</ele><time>2026-04-05T18:02:32Z</time></trkpt><trkpt lat="42.504629121801706" lon="-8.522219557875209"><ele>313.0</ele><time>2026-04-05T18:02:33Z</time></trkpt><trkpt lat="42.50468040877545" lon="-8.521951764651083"><ele>309.3333333333333</ele><time>2026-04-05T18:02:34Z</time></trkpt><trkpt lat="42.50474708847682" lon="-8.521687957972029"><ele>305.6666666666667</ele><time>2026-04-05T18:02:35Z</time></trkpt><trkpt lat="42.50483502141951" lon="-8.521423724478325"><ele>302.0</ele><time>2026-04-05T18:02:36Z</time></trkpt><trkpt lat="42.50494244664118" lon="-8.521181146993284"><ele>302.0</ele><time>2026-04-05T18:02:37Z</time></trkpt><trkpt lat="42.505070112312" lon="-8.5209408175509"><ele>302.0</ele><time>2026-04-05T18:02:38Z</time></trkpt><trkpt lat="42.50521640642032" lon="-8.520715004829464"><ele>302.0</ele><time>2026-04-05T18:02:39Z</time></trkpt><trkpt lat="42.50536876309536" lon="-8.520500266575878"><ele>299.6666666666667</ele><time>2026-04-05T18:02:40Z</time></trkpt><trkpt lat="42.505517198117865" lon="-8.520268897297713"><ele>297.3333333333333</ele><time>2026-04-05T18:02:41Z</time></trkpt><trkpt lat="42.50566451456394" lon="-8.520044270882444"><ele>295.0</ele><time>2026-04-05T18:02:42Z</time></trkpt><trkpt lat="42.50581447035611" lon="-8.519810428150148"><ele>295.0</ele><time>2026-04-05T18:02:43Z</time></trkpt><trkpt lat="42.50597084934457" lon="-8.519577302195687"><ele>295.0</ele><time>2026-04-05T18:02:44Z</time></trkpt><trkpt lat="42.50612720354693" lon="-8.519344413784214"><ele>295.3333333333333</ele><time>2026-04-05T18:02:45Z</time></trkpt><trkpt lat="42.50626854401213" lon="-8.519126708824333"><ele>295.6666666666667</ele><time>2026-04-05T18:02:46Z</time></trkpt><trkpt lat="42.50639963185378" lon="-8.51892066077813"><ele>296.0</ele><time>2026-04-05T18:02:47Z</time></trkpt><trkpt lat="42.50652406191648" lon="-8.51871573216846"><ele>296.0</ele><time>2026-04-05T18:02:48Z</time></trkpt><trkpt lat="42.50664386448062" lon="-8.518518080951067"><ele>296.0</ele><time>2026-04-05T18:02:49Z</time></trkpt><trkpt lat="42.506735701337206" lon="-8.518312593480958"><ele>296.0</ele><time>2026-04-05T18:02:50Z</time></trkpt><trkpt lat="42.50681603812121" lon="-8.518097000479857"><ele>297.0</ele><time>2026-04-05T18:02:51Z</time></trkpt><trkpt lat="42.506870058084594" lon="-8.517874179229812"><ele>298.0</ele><time>2026-04-05T18:02:52Z</time></trkpt><trkpt lat="42.50696951016957" lon="-8.517688830903703"><ele>299.0</ele><time>2026-04-05T18:02:53Z</time></trkpt><trkpt lat="42.50690126193588" lon="-8.517430873461842"><ele>299.0</ele><time>2026-04-05T18:02:53.999Z</time></trkpt><trkpt lat="42.50686728443534" lon="-8.517210792108644"><ele>299.0</ele><time>2026-04-05T18:02:54.999Z</time></trkpt><trkpt lat="42.506814341477735" lon="-8.516998447921441"><ele>299.0</ele><time>2026-04-05T18:02:55.999Z</time></trkpt><trkpt lat="42.50674250259732" lon="-8.516785431625642"><ele>298.0</ele><time>2026-04-05T18:02:56.999Z</time></trkpt><trkpt lat="42.5066693913455" lon="-8.51657434951887"><ele>297.0</ele><time>2026-04-05T18:02:57.999Z</time></trkpt><trkpt lat="42.50659592422658" lon="-8.516359241185858"><ele>296.0</ele><time>2026-04-05T18:02:58.999Z</time></trkpt><trkpt lat="42.506536957430484" lon="-8.516146854869417"><ele>293.33333333333337</ele><time>2026-04-05T18:02:59.999Z</time></trkpt><trkpt lat="42.5065031403767" lon="-8.515920835944568"><ele>290.6666666666667</ele><time>2026-04-05T18:03:00.999Z</time></trkpt><trkpt lat="42.506488773277326" lon="-8.515687612142926"><ele>288.0</ele><time>2026-04-05T18:03:01.999Z</time></trkpt><trkpt lat="42.506512277035284" lon="-8.515450260223714"><ele>290.0</ele><time>2026-04-05T18:03:02.999Z</time></trkpt><trkpt lat="42.506565071233425" lon="-8.515216201616893"><ele>292.0</ele><time>2026-04-05T18:03:03.999Z</time></trkpt><trkpt lat="42.50663950375968" lon="-8.514992115632557"><ele>294.0</ele><time>2026-04-05T18:03:04.999Z</time></trkpt><trkpt lat="42.5067446739082" lon="-8.514793847601732"><ele>294.0</ele><time>2026-04-05T18:03:05.999Z</time></trkpt><trkpt lat="42.50685722441274" lon="-8.514619898099037"><ele>294.0</ele><time>2026-04-05T18:03:06.999Z</time></trkpt><trkpt lat="42.50698469399241" lon="-8.51448835897605"><ele>294.0</ele><time>2026-04-05T18:03:07.999Z</time></trkpt><trkpt lat="42.50711754158557" lon="-8.51439671532395"><ele>292.0</ele><time>2026-04-05T18:03:08.999Z</time></trkpt><trkpt lat="42.507248723408956" lon="-8.514317429696655"><ele>290.0</ele><time>2026-04-05T18:03:09.999Z</time></trkpt><trkpt lat="42.50738820525627" lon="-8.514255768040332"><ele>288.0</ele><time>2026-04-05T18:03:10.999Z</time></trkpt><trkpt lat="42.50751841127646" lon="-8.514226059911856"><ele>286.0</ele><time>2026-04-05T18:03:11.999Z</time></trkpt><trkpt lat="42.50765029710642" lon="-8.514218846680896"><ele>286.0</ele><time>2026-04-05T18:03:12.999Z</time></trkpt><trkpt lat="42.507777116133546" lon="-8.514231807654607"><ele>286.0</ele><time>2026-04-05T18:03:13.999Z</time></trkpt><trkpt lat="42.50789525255201" lon="-8.514259292724839"><ele>286.0</ele><time>2026-04-05T18:03:14.999Z</time></trkpt><trkpt lat="42.508014544073575" lon="-8.514302778083238"><ele>286.0</ele><time>2026-04-05T18:03:15.999Z</time></trkpt><trkpt lat="42.50813031774063" lon="-8.514356494624922"><ele>283.75</ele><time>2026-04-05T18:03:16.999Z</time></trkpt><trkpt lat="42.50825599073328" lon="-8.514417502509758"><ele>281.5</ele><time>2026-04-05T18:03:17.999Z</time></trkpt><trkpt lat="42.508393943770294" lon="-8.51449174569415"><ele>279.25</ele><time>2026-04-05T18:03:18.999Z</time></trkpt><trkpt lat="42.508533233550814" lon="-8.514571484736406"><ele>277.0</ele><time>2026-04-05T18:03:19.999Z</time></trkpt><trkpt lat="42.508679084470295" lon="-8.514647129847095"><ele>279.75</ele><time>2026-04-05T18:03:20.999Z</time></trkpt><trkpt lat="42.508825957312865" lon="-8.514711303135641"><ele>282.5</ele><time>2026-04-05T18:03:21.999Z</time></trkpt><trkpt lat="42.50896974313432" lon="-8.514744750329628"><ele>285.25</ele><time>2026-04-05T18:03:22.999Z</time></trkpt><trkpt lat="42.509111521133555" lon="-8.514745344164247"><ele>288.0</ele><time>2026-04-05T18:03:23.999Z</time></trkpt><trkpt lat="42.50925563484797" lon="-8.514722611118748"><ele>288.0</ele><time>2026-04-05T18:03:24.999Z</time></trkpt><trkpt lat="42.50940172891724" lon="-8.514662708616791"><ele>288.0</ele><time>2026-04-05T18:03:25.999Z</time></trkpt><trkpt lat="42.50953601031961" lon="-8.514571975127163"><ele>288.0</ele><time>2026-04-05T18:03:26.999Z</time></trkpt><trkpt lat="42.5096583734433" lon="-8.514460657359452"><ele>290.0</ele><time>2026-04-05T18:03:27.999Z</time></trkpt><trkpt lat="42.509771516979455" lon="-8.51433810611502"><ele>292.0</ele><time>2026-04-05T18:03:28.999Z</time></trkpt><trkpt lat="42.50987840289854" lon="-8.51420004491857"><ele>294.0</ele><time>2026-04-05T18:03:29.999Z</time></trkpt><trkpt lat="42.50998651410883" lon="-8.514052034183905"><ele>296.0</ele><time>2026-04-05T18:03:30.999Z</time></trkpt><trkpt lat="42.51009419106626" lon="-8.513884964156553"><ele>300.0</ele><time>2026-04-05T18:03:31.999Z</time></trkpt><trkpt lat="42.510194498034956" lon="-8.513708876949273"><ele>304.0</ele><time>2026-04-05T18:03:32.999Z</time></trkpt><trkpt lat="42.51028912788125" lon="-8.513518356439892"><ele>308.0</ele><time>2026-04-05T18:03:33.999Z</time></trkpt><trkpt lat="42.51037861087137" lon="-8.51331674206783"><ele>305.0</ele><time>2026-04-05T18:03:34.999Z</time></trkpt><trkpt lat="42.51045998985534" lon="-8.513111258713826"><ele>302.0</ele><time>2026-04-05T18:03:35.999Z</time></trkpt><trkpt lat="42.51053438267833" lon="-8.512900983429617"><ele>299.0</ele><time>2026-04-05T18:03:36.999Z</time></trkpt><trkpt lat="42.510605092504775" lon="-8.512691757130288"><ele>299.0</ele><time>2026-04-05T18:03:37.999Z</time></trkpt><trkpt lat="42.51067145321973" lon="-8.512470446130209"><ele>299.0</ele><time>2026-04-05T18:03:38.999Z</time></trkpt><trkpt lat="42.51072913412046" lon="-8.512242899685559"><ele>299.0</ele><time>2026-04-05T18:03:40Z</time></trkpt><trkpt lat="42.51078334255121" lon="-8.512012868773486"><ele>301.0</ele><time>2026-04-05T18:03:41Z</time></trkpt><trkpt lat="42.510838067978" lon="-8.511778425486426"><ele>303.0</ele><time>2026-04-05T18:03:42Z</time></trkpt><trkpt lat="42.510895589857995" lon="-8.511541463106036"><ele>305.0</ele><time>2026-04-05T18:03:43Z</time></trkpt><trkpt lat="42.51095794064081" lon="-8.51130434962705"><ele>311.33333333333337</ele><time>2026-04-05T18:03:44Z</time></trkpt><trkpt lat="42.51103569145229" lon="-8.511070683504741"><ele>317.6666666666667</ele><time>2026-04-05T18:03:45Z</time></trkpt><trkpt lat="42.51112668221601" lon="-8.510844375228706"><ele>324.0</ele><time>2026-04-05T18:03:46Z</time></trkpt><trkpt lat="42.51122478962885" lon="-8.510635543861795"><ele>319.3333333333333</ele><time>2026-04-05T18:03:47Z</time></trkpt><trkpt lat="42.5113435798238" lon="-8.51042694799177"><ele>314.66666666666663</ele><time>2026-04-05T18:03:48Z</time></trkpt><trkpt lat="42.51145277069222" lon="-8.51021906529987"><ele>310.0</ele><time>2026-04-05T18:03:49Z</time></trkpt><trkpt lat="42.5115560965902" lon="-8.51003180255172"><ele>310.0</ele><time>2026-04-05T18:03:50Z</time></trkpt><trkpt lat="42.51165053305643" lon="-8.509834456303153"><ele>310.0</ele><time>2026-04-05T18:03:51Z</time></trkpt><trkpt lat="42.51172970252761" lon="-8.509618026547253"><ele>310.0</ele><time>2026-04-05T18:03:52Z</time></trkpt><trkpt lat="42.51179188059376" lon="-8.509384072725442"><ele>313.3333333333333</ele><time>2026-04-05T18:03:53Z</time></trkpt><trkpt lat="42.511830230724506" lon="-8.509139516874695"><ele>316.6666666666667</ele><time>2026-04-05T18:03:54Z</time></trkpt><trkpt lat="42.511845037193496" lon="-8.508884075400678"><ele>320.0</ele><time>2026-04-05T18:03:55Z</time></trkpt><trkpt lat="42.51184195171106" lon="-8.508628407178994"><ele>322.33333333333337</ele><time>2026-04-05T18:03:56Z</time></trkpt><trkpt lat="42.51182482730613" lon="-8.508365630952111"><ele>324.6666666666667</ele><time>2026-04-05T18:03:57Z</time></trkpt><trkpt lat="42.51182221762388" lon="-8.508105587701449"><ele>327.0</ele><time>2026-04-05T18:03:58Z</time></trkpt><trkpt lat="42.511816642186105" lon="-8.507843434731315"><ele>327.3333333333333</ele><time>2026-04-05T18:03:59Z</time></trkpt><trkpt lat="42.51180580393494" lon="-8.507572915992716"><ele>327.66666666666663</ele><time>2026-04-05T18:04:00Z</time></trkpt><trkpt lat="42.51179441039037" lon="-8.507302719606855"><ele>328.0</ele><time>2026-04-05T18:04:01Z</time></trkpt><trkpt lat="42.511781559561015" lon="-8.507028927343764"><ele>328.0</ele><time>2026-04-05T18:04:02Z</time></trkpt><trkpt lat="42.51176638768205" lon="-8.506758112135442"><ele>328.0</ele><time>2026-04-05T18:04:03Z</time></trkpt><trkpt lat="42.511753133088924" lon="-8.506486757981047"><ele>328.0</ele><time>2026-04-05T18:04:04Z</time></trkpt><trkpt lat="42.511741778790714" lon="-8.506226674105076"><ele>329.3333333333333</ele><time>2026-04-05T18:04:05Z</time></trkpt><trkpt lat="42.51173757711325" lon="-8.505985094706714"><ele>330.6666666666667</ele><time>2026-04-05T18:04:06Z</time></trkpt><trkpt lat="42.511733587547944" lon="-8.505761668490488"><ele>332.0</ele><time>2026-04-05T18:04:07Z</time></trkpt><trkpt lat="42.51174108642622" lon="-8.505538592717235"><ele>331.33333333333337</ele><time>2026-04-05T18:04:08Z</time></trkpt><trkpt lat="42.511769924921715" lon="-8.505318981738593"><ele>330.6666666666667</ele><time>2026-04-05T18:04:09Z</time></trkpt><trkpt lat="42.5118268530045" lon="-8.50510386137744"><ele>330.0</ele><time>2026-04-05T18:04:10Z</time></trkpt><trkpt lat="42.511905493273034" lon="-8.50488972592424"><ele>330.0</ele><time>2026-04-05T18:04:11Z</time></trkpt><trkpt lat="42.51200439520056" lon="-8.504679396385475"><ele>330.0</ele><time>2026-04-05T18:04:12Z</time></trkpt><trkpt lat="42.512111467275915" lon="-8.504481031441053"><ele>330.0</ele><time>2026-04-05T18:04:13Z</time></trkpt><trkpt lat="42.512231599049265" lon="-8.504282797978403"><ele>330.0</ele><time>2026-04-05T18:04:14Z</time></trkpt><trkpt lat="42.51234275258098" lon="-8.504082071812457"><ele>330.0</ele><time>2026-04-05T18:04:15Z</time></trkpt><trkpt lat="42.51244087137504" lon="-8.50385529000486"><ele>330.0</ele><time>2026-04-05T18:04:16Z</time></trkpt><trkpt lat="42.51251378824267" lon="-8.50361335021013"><ele>330.6666666666667</ele><time>2026-04-05T18:04:17Z</time></trkpt><trkpt lat="42.51255111892371" lon="-8.503367130109504"><ele>331.33333333333337</ele><time>2026-04-05T18:04:18Z</time></trkpt><trkpt lat="42.51255149431897" lon="-8.50311245600888"><ele>332.0</ele><time>2026-04-05T18:04:19Z</time></trkpt><trkpt lat="42.512527255446734" lon="-8.502852736127227"><ele>332.0</ele><time>2026-04-05T18:04:20Z</time></trkpt><trkpt lat="42.5125067001075" lon="-8.502603736974658"><ele>332.0</ele><time>2026-04-05T18:04:21Z</time></trkpt><trkpt lat="42.51249383754234" lon="-8.502365559822254"><ele>332.0</ele><time>2026-04-05T18:04:22Z</time></trkpt><trkpt lat="42.51248144278782" lon="-8.502131881869346"><ele>331.0</ele><time>2026-04-05T18:04:23Z</time></trkpt><trkpt lat="42.5124556180779" lon="-8.501913176316172"><ele>330.0</ele><time>2026-04-05T18:04:24Z</time></trkpt><trkpt lat="42.51244533320877" lon="-8.501698897984435"><ele>329.0</ele><time>2026-04-05T18:04:25Z</time></trkpt><trkpt lat="42.512450486277785" lon="-8.501485935954774"><ele>329.0</ele><time>2026-04-05T18:04:26Z</time></trkpt><trkpt lat="42.512438990696836" lon="-8.501268359047089"><ele>329.0</ele><time>2026-04-05T18:04:27Z</time></trkpt><trkpt lat="42.51243267608551" lon="-8.501041535677416"><ele>329.0</ele><time>2026-04-05T18:04:28Z</time></trkpt><trkpt lat="42.51243007528646" lon="-8.500804105147619"><ele>327.6666666666667</ele><time>2026-04-05T18:04:29Z</time></trkpt><trkpt lat="42.512433983487526" lon="-8.500562964568735"><ele>326.3333333333333</ele><time>2026-04-05T18:04:30Z</time></trkpt><trkpt lat="42.512458025227374" lon="-8.500307650108573"><ele>325.0</ele><time>2026-04-05T18:04:31Z</time></trkpt><trkpt lat="42.51250820479994" lon="-8.500051465782718"><ele>323.66666666666663</ele><time>2026-04-05T18:04:32Z</time></trkpt><trkpt lat="42.51257311180774" lon="-8.499805084223132"><ele>322.3333333333333</ele><time>2026-04-05T18:04:33Z</time></trkpt><trkpt lat="42.51265998698902" lon="-8.499565222659909"><ele>321.0</ele><time>2026-04-05T18:04:34Z</time></trkpt><trkpt lat="42.51276265930811" lon="-8.499335438552603"><ele>322.0</ele><time>2026-04-05T18:04:35Z</time></trkpt><trkpt lat="42.51289375840039" lon="-8.499109989336462"><ele>323.0</ele><time>2026-04-05T18:04:36Z</time></trkpt><trkpt lat="42.513038648373275" lon="-8.498902143263217"><ele>324.0</ele><time>2026-04-05T18:04:37Z</time></trkpt><trkpt lat="42.513217783028146" lon="-8.498736939028845"><ele>324.0</ele><time>2026-04-05T18:04:38Z</time></trkpt><trkpt lat="42.51340165680306" lon="-8.498586798731502"><ele>324.0</ele><time>2026-04-05T18:04:39Z</time></trkpt><trkpt lat="42.513588769105354" lon="-8.49847059681607"><ele>324.0</ele><time>2026-04-05T18:04:40Z</time></trkpt><trkpt lat="42.513772374184526" lon="-8.498384333319047"><ele>323.6666666666667</ele><time>2026-04-05T18:04:41Z</time></trkpt><trkpt lat="42.51395337020573" lon="-8.49831961372345"><ele>323.33333333333337</ele><time>2026-04-05T18:04:42Z</time></trkpt><trkpt lat="42.51413178595258" lon="-8.49826709368697"><ele>323.0</ele><time>2026-04-05T18:04:43Z</time></trkpt><trkpt lat="42.51431343256459" lon="-8.498227501827063"><ele>323.0</ele><time>2026-04-05T18:04:44Z</time></trkpt><trkpt lat="42.514484469483435" lon="-8.498183562132866"><ele>323.0</ele><time>2026-04-05T18:04:45Z</time></trkpt><trkpt lat="42.514653025073166" lon="-8.498128786315931"><ele>323.0</ele><time>2026-04-05T18:04:46Z</time></trkpt><trkpt lat="42.514816157610205" lon="-8.498071171136287"><ele>325.0</ele><time>2026-04-05T18:04:47Z</time></trkpt><trkpt lat="42.514982737632884" lon="-8.497995375628319"><ele>327.0</ele><time>2026-04-05T18:04:48Z</time></trkpt><trkpt lat="42.5151465286289" lon="-8.497897567528867"><ele>329.0</ele><time>2026-04-05T18:04:49Z</time></trkpt><trkpt lat="42.51530097008641" lon="-8.49778022977078"><ele>326.33333333333337</ele><time>2026-04-05T18:04:50Z</time></trkpt><trkpt lat="42.51543706594595" lon="-8.497630440162526"><ele>323.6666666666667</ele><time>2026-04-05T18:04:51Z</time></trkpt><trkpt lat="42.51556919391284" lon="-8.49746367809555"><ele>321.0</ele><time>2026-04-05T18:04:52Z</time></trkpt><trkpt lat="42.51569223228431" lon="-8.497280020762922"><ele>322.3333333333333</ele><time>2026-04-05T18:04:52.999Z</time></trkpt><trkpt lat="42.515796149674664" lon="-8.497084341880447"><ele>323.66666666666663</ele><time>2026-04-05T18:04:53.999Z</time></trkpt><trkpt lat="42.51588998315814" lon="-8.496873284496486"><ele>325.0</ele><time>2026-04-05T18:04:54.999Z</time></trkpt><trkpt lat="42.515966713919966" lon="-8.496637107308043"><ele>325.0</ele><time>2026-04-05T18:04:55.999Z</time></trkpt><trkpt lat="42.516027078883724" lon="-8.496393166652604"><ele>325.0</ele><time>2026-04-05T18:04:56.999Z</time></trkpt><trkpt lat="42.516070729454604" lon="-8.496138754123429"><ele>325.0</ele><time>2026-04-05T18:04:57.999Z</time></trkpt><trkpt lat="42.51610410696675" lon="-8.49588592368665"><ele>324.0</ele><time>2026-04-05T18:04:58.999Z</time></trkpt><trkpt lat="42.51613240498142" lon="-8.495643444879176"><ele>323.0</ele><time>2026-04-05T18:04:59.999Z</time></trkpt><trkpt lat="42.51616788590509" lon="-8.495403974766452"><ele>322.0</ele><time>2026-04-05T18:05:00.999Z</time></trkpt><trkpt lat="42.516223860784564" lon="-8.495164989545207"><ele>317.0</ele><time>2026-04-05T18:05:01.999Z</time></trkpt><trkpt lat="42.516300384949666" lon="-8.49492956524428"><ele>312.0</ele><time>2026-04-05T18:05:02.999Z</time></trkpt><trkpt lat="42.51637763297979" lon="-8.494692946549394"><ele>307.0</ele><time>2026-04-05T18:05:03.999Z</time></trkpt><trkpt lat="42.51645697684075" lon="-8.49447214408797"><ele>306.0</ele><time>2026-04-05T18:05:04.999Z</time></trkpt><trkpt lat="42.51651954562667" lon="-8.494245940276851"><ele>305.0</ele><time>2026-04-05T18:05:05.999Z</time></trkpt><trkpt lat="42.51653801652883" lon="-8.494013963870879"><ele>304.0</ele><time>2026-04-05T18:05:06.999Z</time></trkpt><trkpt lat="42.51654808020389" lon="-8.493769499595302"><ele>304.0</ele><time>2026-04-05T18:05:07.999Z</time></trkpt><trkpt lat="42.51653103509448" lon="-8.49352598055173"><ele>304.0</ele><time>2026-04-05T18:05:08.999Z</time></trkpt><trkpt lat="42.51648939573796" lon="-8.49328696696095"><ele>304.0</ele><time>2026-04-05T18:05:09.999Z</time></trkpt><trkpt lat="42.51641946119652" lon="-8.493058370292564"><ele>305.3333333333333</ele><time>2026-04-05T18:05:10.999Z</time></trkpt><trkpt lat="42.51633711241801" lon="-8.49284620692223"><ele>306.6666666666667</ele><time>2026-04-05T18:05:11.999Z</time></trkpt><trkpt lat="42.51626294048489" lon="-8.492643621740147"><ele>308.0</ele><time>2026-04-05T18:05:12.999Z</time></trkpt><trkpt lat="42.516184334549024" lon="-8.492450010190412"><ele>308.0</ele><time>2026-04-05T18:05:13.999Z</time></trkpt><trkpt lat="42.51612459102062" lon="-8.492248354552153"><ele>308.0</ele><time>2026-04-05T18:05:14.999Z</time></trkpt><trkpt lat="42.5160957207988" lon="-8.492035494071482"><ele>308.0</ele><time>2026-04-05T18:05:15.999Z</time></trkpt><trkpt lat="42.51609048624212" lon="-8.491810804318867"><ele>307.0</ele><time>2026-04-05T18:05:16.999Z</time></trkpt><trkpt lat="42.516109956634985" lon="-8.49158096130293"><ele>306.0</ele><time>2026-04-05T18:05:17.999Z</time></trkpt><trkpt lat="42.51614984556762" lon="-8.49135135598515"><ele>305.0</ele><time>2026-04-05T18:05:18.999Z</time></trkpt><trkpt lat="42.516204666644356" lon="-8.491134668904191"><ele>298.0</ele><time>2026-04-05T18:05:19.999Z</time></trkpt><trkpt lat="42.51625983077314" lon="-8.490924907128306"><ele>291.0</ele><time>2026-04-05T18:05:20.999Z</time></trkpt><trkpt lat="42.51626313544926" lon="-8.490706234071343"><ele>284.0</ele><time>2026-04-05T18:05:21.999Z</time></trkpt><trkpt lat="42.516255414741146" lon="-8.4904840960597"><ele>287.33333333333337</ele><time>2026-04-05T18:05:22.999Z</time></trkpt><trkpt lat="42.51621016589951" lon="-8.490262422416254"><ele>290.6666666666667</ele><time>2026-04-05T18:05:23.999Z</time></trkpt><trkpt lat="42.51614266805383" lon="-8.490044812976732"><ele>294.0</ele><time>2026-04-05T18:05:24.999Z</time></trkpt><trkpt lat="42.51605018512737" lon="-8.489846198290861"><ele>294.0</ele><time>2026-04-05T18:05:25.999Z</time></trkpt><trkpt lat="42.515934113348656" lon="-8.48967832655509"><ele>294.0</ele><time>2026-04-05T18:05:26.999Z</time></trkpt><trkpt lat="42.51580432384543" lon="-8.489541861454152"><ele>294.0</ele><time>2026-04-05T18:05:27.999Z</time></trkpt><trkpt lat="42.51564977492754" lon="-8.489428802907927"><ele>291.3333333333333</ele><time>2026-04-05T18:05:28.999Z</time></trkpt><trkpt lat="42.51548537420083" lon="-8.489346281736514"><ele>288.66666666666663</ele><time>2026-04-05T18:05:29.999Z</time></trkpt><trkpt lat="42.51530321665695" lon="-8.489250967869786"><ele>286.0</ele><time>2026-04-05T18:05:30.999Z</time></trkpt><trkpt lat="42.5151494896537" lon="-8.489118836731384"><ele>286.0</ele><time>2026-04-05T18:05:31.999Z</time></trkpt><trkpt lat="42.51499191245729" lon="-8.488999328764248"><ele>286.0</ele><time>2026-04-05T18:05:32.999Z</time></trkpt><trkpt lat="42.514869082666" lon="-8.488819131977397"><ele>286.0</ele><time>2026-04-05T18:05:33.999Z</time></trkpt><trkpt lat="42.51474357252157" lon="-8.488629237369997"><ele>288.0</ele><time>2026-04-05T18:05:34.999Z</time></trkpt><trkpt lat="42.51461838151042" lon="-8.488437452558982"><ele>290.0</ele><time>2026-04-05T18:05:35.999Z</time></trkpt><trkpt lat="42.51451584378103" lon="-8.48821347506679"><ele>292.0</ele><time>2026-04-05T18:05:36.999Z</time></trkpt><trkpt lat="42.51442501444945" lon="-8.487994402062329"><ele>289.66666666666663</ele><time>2026-04-05T18:05:37.999Z</time></trkpt><trkpt lat="42.51435857153252" lon="-8.48776972174667"><ele>287.3333333333333</ele><time>2026-04-05T18:05:38.999Z</time></trkpt><trkpt lat="42.514285491315455" lon="-8.48756236649205"><ele>285.0</ele><time>2026-04-05T18:05:39.999Z</time></trkpt><trkpt lat="42.514209336310884" lon="-8.487356213546352"><ele>285.0</ele><time>2026-04-05T18:05:40.999Z</time></trkpt><trkpt lat="42.5141374306434" lon="-8.487143513182758"><ele>285.0</ele><time>2026-04-05T18:05:41.999Z</time></trkpt><trkpt lat="42.514045750853484" lon="-8.486945698259053"><ele>285.0</ele><time>2026-04-05T18:05:42.999Z</time></trkpt><trkpt lat="42.51398423538278" lon="-8.486718859833456"><ele>279.3333333333333</ele><time>2026-04-05T18:05:43.999Z</time></trkpt><trkpt lat="42.51393974534271" lon="-8.486479989550965"><ele>273.66666666666663</ele><time>2026-04-05T18:05:44.999Z</time></trkpt><trkpt lat="42.51390979587954" lon="-8.486235036997028"><ele>268.0</ele><time>2026-04-05T18:05:46Z</time></trkpt><trkpt lat="42.513900946535" lon="-8.485978030864274"><ele>267.0</ele><time>2026-04-05T18:05:47Z</time></trkpt><trkpt lat="42.5139134283141" lon="-8.485720029322794"><ele>266.0</ele><time>2026-04-05T18:05:48Z</time></trkpt><trkpt lat="42.51395116312164" lon="-8.485462953418196"><ele>265.0</ele><time>2026-04-05T18:05:49Z</time></trkpt><trkpt lat="42.513953547704695" lon="-8.485200602587296"><ele>264.0</ele><time>2026-04-05T18:05:50Z</time></trkpt><trkpt lat="42.5139594753786" lon="-8.484928635735578"><ele>263.0</ele><time>2026-04-05T18:05:51Z</time></trkpt><trkpt lat="42.5139467638634" lon="-8.48466071374305"><ele>262.0</ele><time>2026-04-05T18:05:52Z</time></trkpt><trkpt lat="42.51391145180887" lon="-8.48439144476148"><ele>259.3333333333333</ele><time>2026-04-05T18:05:53Z</time></trkpt><trkpt lat="42.51383965493136" lon="-8.484143472496946"><ele>256.6666666666667</ele><time>2026-04-05T18:05:54Z</time></trkpt><trkpt lat="42.51374856503881" lon="-8.483888553550592"><ele>254.0</ele><time>2026-04-05T18:05:55Z</time></trkpt><trkpt lat="42.51365115962591" lon="-8.483630040241867"><ele>253.33333333333334</ele><time>2026-04-05T18:05:56Z</time></trkpt><trkpt lat="42.51355484371691" lon="-8.483362409006567"><ele>252.66666666666669</ele><time>2026-04-05T18:05:57Z</time></trkpt><trkpt lat="42.51346636115181" lon="-8.483095239320667"><ele>252.0</ele><time>2026-04-05T18:05:58Z</time></trkpt><trkpt lat="42.51340367798842" lon="-8.482819970363748"><ele>253.66666666666669</ele><time>2026-04-05T18:05:59Z</time></trkpt><trkpt lat="42.51338227214561" lon="-8.482531755809623"><ele>255.33333333333334</ele><time>2026-04-05T18:06:00Z</time></trkpt><trkpt lat="42.51334655899439" lon="-8.482249230355373"><ele>257.0</ele><time>2026-04-05T18:06:01Z</time></trkpt><trkpt lat="42.513372725911616" lon="-8.481962092566455"><ele>260.6666666666667</ele><time>2026-04-05T18:06:02Z</time></trkpt><trkpt lat="42.51338874168263" lon="-8.48167724774636"><ele>264.3333333333333</ele><time>2026-04-05T18:06:03Z</time></trkpt><trkpt lat="42.51344374522603" lon="-8.481401787778545"><ele>268.0</ele><time>2026-04-05T18:06:04Z</time></trkpt><trkpt lat="42.51353456501076" lon="-8.481149570976074"><ele>271.3333333333333</ele><time>2026-04-05T18:06:05Z</time></trkpt><trkpt lat="42.513632646826125" lon="-8.480901567209091"><ele>274.6666666666667</ele><time>2026-04-05T18:06:06Z</time></trkpt><trkpt lat="42.51374848982846" lon="-8.480678297980973"><ele>278.0</ele><time>2026-04-05T18:06:07Z</time></trkpt><trkpt lat="42.51387269611964" lon="-8.48047859238358"><ele>274.0</ele><time>2026-04-05T18:06:08Z</time></trkpt><trkpt lat="42.5140145757716" lon="-8.480308084124951"><ele>270.0</ele><time>2026-04-05T18:06:09Z</time></trkpt><trkpt lat="42.51416425326366" lon="-8.480163052874419"><ele>266.0</ele><time>2026-04-05T18:06:10Z</time></trkpt><trkpt lat="42.51432371959709" lon="-8.48003076663916"><ele>266.0</ele><time>2026-04-05T18:06:11Z</time></trkpt><trkpt lat="42.51449146141388" lon="-8.47991179066224"><ele>266.0</ele><time>2026-04-05T18:06:12Z</time></trkpt><trkpt lat="42.51465553238631" lon="-8.479808445673989"><ele>266.0</ele><time>2026-04-05T18:06:13Z</time></trkpt><trkpt lat="42.51480672584831" lon="-8.479707590881546"><ele>270.6666666666667</ele><time>2026-04-05T18:06:14Z</time></trkpt><trkpt lat="42.5149472575029" lon="-8.479587389455116"><ele>275.3333333333333</ele><time>2026-04-05T18:06:15Z</time></trkpt><trkpt lat="42.51510059508252" lon="-8.479488519775508"><ele>280.0</ele><time>2026-04-05T18:06:16Z</time></trkpt><trkpt lat="42.51525049918384" lon="-8.479394515118152"><ele>280.0</ele><time>2026-04-05T18:06:17Z</time></trkpt><trkpt lat="42.51540066805866" lon="-8.479303532031066"><ele>280.0</ele><time>2026-04-05T18:06:18Z</time></trkpt><trkpt lat="42.51555572568098" lon="-8.479236321399126"><ele>280.0</ele><time>2026-04-05T18:06:19Z</time></trkpt><trkpt lat="42.515699458286676" lon="-8.47914332345196"><ele>278.66666666666663</ele><time>2026-04-05T18:06:20Z</time></trkpt><trkpt lat="42.51584354446807" lon="-8.479053069533247"><ele>277.3333333333333</ele><time>2026-04-05T18:06:21Z</time></trkpt><trkpt lat="42.51598638889696" lon="-8.478959755470138"><ele>276.0</ele><time>2026-04-05T18:06:22Z</time></trkpt><trkpt lat="42.51612660264332" lon="-8.478870355659806"><ele>275.0</ele><time>2026-04-05T18:06:23Z</time></trkpt><trkpt lat="42.51627139366823" lon="-8.478778775473586"><ele>274.0</ele><time>2026-04-05T18:06:24Z</time></trkpt><trkpt lat="42.516418231519495" lon="-8.478686102075242"><ele>273.0</ele><time>2026-04-05T18:06:25Z</time></trkpt><trkpt lat="42.51657015058052" lon="-8.478589482986367"><ele>278.3333333333333</ele><time>2026-04-05T18:06:26Z</time></trkpt><trkpt lat="42.51672263978426" lon="-8.478494756544325"><ele>283.66666666666663</ele><time>2026-04-05T18:06:27Z</time></trkpt><trkpt lat="42.51687872890691" lon="-8.478398847505769"><ele>289.0</ele><time>2026-04-05T18:06:28Z</time></trkpt><trkpt lat="42.51703903511786" lon="-8.478301345975463"><ele>286.66666666666663</ele><time>2026-04-05T18:06:29Z</time></trkpt><trkpt lat="42.51720443438319" lon="-8.478208450538544"><ele>284.3333333333333</ele><time>2026-04-05T18:06:30Z</time></trkpt><trkpt lat="42.51737684135484" lon="-8.478116603078295"><ele>282.0</ele><time>2026-04-05T18:06:31Z</time></trkpt><trkpt lat="42.51755188708114" lon="-8.478023321097037"><ele>285.3333333333333</ele><time>2026-04-05T18:06:32Z</time></trkpt><trkpt lat="42.517728054378274" lon="-8.477927445901488"><ele>288.66666666666663</ele><time>2026-04-05T18:06:33Z</time></trkpt><trkpt lat="42.51790252363009" lon="-8.477824766173157"><ele>292.0</ele><time>2026-04-05T18:06:34Z</time></trkpt><trkpt lat="42.51807392682482" lon="-8.477709415207904"><ele>292.0</ele><time>2026-04-05T18:06:35Z</time></trkpt><trkpt lat="42.5182212602222" lon="-8.4775504751902"><ele>292.0</ele><time>2026-04-05T18:06:36Z</time></trkpt><trkpt lat="42.51835964900637" lon="-8.47737523201751"><ele>292.0</ele><time>2026-04-05T18:06:37Z</time></trkpt><trkpt lat="42.518479753950125" lon="-8.477171213065247"><ele>291.66666666666663</ele><time>2026-04-05T18:06:38Z</time></trkpt><trkpt lat="42.518595684056706" lon="-8.476966474558974"><ele>291.3333333333333</ele><time>2026-04-05T18:06:39Z</time></trkpt><trkpt lat="42.51867455416586" lon="-8.476731918685147"><ele>291.0</ele><time>2026-04-05T18:06:40Z</time></trkpt><trkpt lat="42.51873698612956" lon="-8.476484732499674"><ele>293.0</ele><time>2026-04-05T18:06:41Z</time></trkpt><trkpt lat="42.51877784791262" lon="-8.47623147488781"><ele>295.0</ele><time>2026-04-05T18:06:42Z</time></trkpt><trkpt lat="42.51879626181906" lon="-8.47596929535734"><ele>297.0</ele><time>2026-04-05T18:06:43Z</time></trkpt><trkpt lat="42.51879620342675" lon="-8.475710722697391"><ele>297.0</ele><time>2026-04-05T18:06:44Z</time></trkpt><trkpt lat="42.51878162224314" lon="-8.475459942442551"><ele>297.0</ele><time>2026-04-05T18:06:45Z</time></trkpt><trkpt lat="42.51876466663031" lon="-8.475198274013357"><ele>297.0</ele><time>2026-04-05T18:06:46Z</time></trkpt><trkpt lat="42.51874864345129" lon="-8.47494550035625"><ele>297.0</ele><time>2026-04-05T18:06:47Z</time></trkpt><trkpt lat="42.51873594740486" lon="-8.47468640159088"><ele>297.0</ele><time>2026-04-05T18:06:48Z</time></trkpt><trkpt lat="42.51872746443386" lon="-8.474427480496752"><ele>297.0</ele><time>2026-04-05T18:06:49Z</time></trkpt><trkpt lat="42.51871706991731" lon="-8.47416770540733"><ele>299.6666666666667</ele><time>2026-04-05T18:06:50Z</time></trkpt><trkpt lat="42.51871183372707" lon="-8.47391215730787"><ele>302.33333333333337</ele><time>2026-04-05T18:06:51Z</time></trkpt><trkpt lat="42.518723650412866" lon="-8.473650040343072"><ele>305.0</ele><time>2026-04-05T18:06:52Z</time></trkpt><trkpt lat="42.518744327618926" lon="-8.473390468137254"><ele>307.0</ele><time>2026-04-05T18:06:53Z</time></trkpt><trkpt lat="42.518774154104655" lon="-8.473125303461982"><ele>309.0</ele><time>2026-04-05T18:06:54Z</time></trkpt><trkpt lat="42.51881545737619" lon="-8.472872944804251"><ele>311.0</ele><time>2026-04-05T18:06:55Z</time></trkpt><trkpt lat="42.518871619009396" lon="-8.472622989762145"><ele>314.6666666666667</ele><time>2026-04-05T18:06:55.999Z</time></trkpt><trkpt lat="42.518943490544" lon="-8.47238077419247"><ele>318.3333333333333</ele><time>2026-04-05T18:06:56.999Z</time></trkpt><trkpt lat="42.51902663060106" lon="-8.472145379980033"><ele>322.0</ele><time>2026-04-05T18:06:57.999Z</time></trkpt><trkpt lat="42.51912079208811" lon="-8.471923394916269"><ele>325.3333333333333</ele><time>2026-04-05T18:06:58.999Z</time></trkpt><trkpt lat="42.519215087895354" lon="-8.471697320172972"><ele>328.6666666666667</ele><time>2026-04-05T18:06:59.999Z</time></trkpt><trkpt lat="42.51930034611298" lon="-8.471461141552885"><ele>332.0</ele><time>2026-04-05T18:07:00.999Z</time></trkpt><trkpt lat="42.519361736804534" lon="-8.471215327780284"><ele>335.0</ele><time>2026-04-05T18:07:01.999Z</time></trkpt><trkpt lat="42.51939806428136" lon="-8.470957762232654"><ele>338.0</ele><time>2026-04-05T18:07:02.999Z</time></trkpt><trkpt lat="42.51941883154025" lon="-8.470699161530726"><ele>341.0</ele><time>2026-04-05T18:07:03.999Z</time></trkpt><trkpt lat="42.51942671304431" lon="-8.47043073727099"><ele>343.6666666666667</ele><time>2026-04-05T18:07:04.999Z</time></trkpt><trkpt lat="42.51943091371773" lon="-8.47016409733888"><ele>346.3333333333333</ele><time>2026-04-05T18:07:05.999Z</time></trkpt><trkpt lat="42.51944216819959" lon="-8.469890712388823"><ele>349.0</ele><time>2026-04-05T18:07:06.999Z</time></trkpt><trkpt lat="42.5194497149001" lon="-8.469621115877185"><ele>350.66666666666663</ele><time>2026-04-05T18:07:07.999Z</time></trkpt><trkpt lat="42.51946065526014" lon="-8.469343279538561"><ele>352.3333333333333</ele><time>2026-04-05T18:07:08.999Z</time></trkpt><trkpt lat="42.51947134448248" lon="-8.469067207527797"><ele>354.0</ele><time>2026-04-05T18:07:09.999Z</time></trkpt><trkpt lat="42.51947998797933" lon="-8.468777625392859"><ele>354.6666666666667</ele><time>2026-04-05T18:07:10.999Z</time></trkpt><trkpt lat="42.51949202808092" lon="-8.46849124791234"><ele>355.33333333333337</ele><time>2026-04-05T18:07:11.999Z</time></trkpt><trkpt lat="42.51951708166025" lon="-8.468209360218047"><ele>356.0</ele><time>2026-04-05T18:07:12.999Z</time></trkpt><trkpt lat="42.51951280680818" lon="-8.467912062153578"><ele>356.0</ele><time>2026-04-05T18:07:13.999Z</time></trkpt><trkpt lat="42.51952368199072" lon="-8.467624771519214"><ele>356.0</ele><time>2026-04-05T18:07:14.999Z</time></trkpt><trkpt lat="42.519533973862444" lon="-8.467339284329396"><ele>356.0</ele><time>2026-04-05T18:07:15.999Z</time></trkpt><trkpt lat="42.51954450637139" lon="-8.467046638426428"><ele>356.33333333333337</ele><time>2026-04-05T18:07:16.999Z</time></trkpt><trkpt lat="42.519554785947946" lon="-8.466761020381341"><ele>356.6666666666667</ele><time>2026-04-05T18:07:17.999Z</time></trkpt><trkpt lat="42.51956705909466" lon="-8.466465674098416"><ele>357.0</ele><time>2026-04-05T18:07:18.999Z</time></trkpt><trkpt lat="42.51957864374319" lon="-8.466175698987394"><ele>353.0</ele><time>2026-04-05T18:07:19.999Z</time></trkpt><trkpt lat="42.51959030096049" lon="-8.465883907196346"><ele>349.0</ele><time>2026-04-05T18:07:20.999Z</time></trkpt><trkpt lat="42.51960189431671" lon="-8.465593714080576"><ele>345.0</ele><time>2026-04-05T18:07:21.999Z</time></trkpt><trkpt lat="42.519613482644004" lon="-8.465303646794904"><ele>344.6666666666667</ele><time>2026-04-05T18:07:22.999Z</time></trkpt><trkpt lat="42.519624993336535" lon="-8.465015522777025"><ele>344.33333333333337</ele><time>2026-04-05T18:07:23.999Z</time></trkpt><trkpt lat="42.5196391098197" lon="-8.464745414024808"><ele>344.0</ele><time>2026-04-05T18:07:24.999Z</time></trkpt><trkpt lat="42.51966180264794" lon="-8.464470103666121"><ele>346.0</ele><time>2026-04-05T18:07:25.999Z</time></trkpt><trkpt lat="42.51969293440913" lon="-8.464199774791837"><ele>348.0</ele><time>2026-04-05T18:07:26.999Z</time></trkpt><trkpt lat="42.5197371815006" lon="-8.463932448779552"><ele>350.0</ele><time>2026-04-05T18:07:27.999Z</time></trkpt><trkpt lat="42.51978789403547" lon="-8.463668575978263"><ele>355.33333333333337</ele><time>2026-04-05T18:07:28.999Z</time></trkpt><trkpt lat="42.519847373105165" lon="-8.463411676817758"><ele>360.6666666666667</ele><time>2026-04-05T18:07:29.999Z</time></trkpt><trkpt lat="42.51991555536358" lon="-8.463153317889125"><ele>366.0</ele><time>2026-04-05T18:07:30.999Z</time></trkpt><trkpt lat="42.519987787861204" lon="-8.462901003576567"><ele>371.3333333333333</ele><time>2026-04-05T18:07:31.999Z</time></trkpt><trkpt lat="42.52007041562236" lon="-8.462651805891207"><ele>376.66666666666663</ele><time>2026-04-05T18:07:32.999Z</time></trkpt><trkpt lat="42.52017179019176" lon="-8.462428846729274"><ele>382.0</ele><time>2026-04-05T18:07:33.999Z</time></trkpt><trkpt lat="42.52025212329348" lon="-8.462182716725012"><ele>378.66666666666663</ele><time>2026-04-05T18:07:34.999Z</time></trkpt><trkpt lat="42.52036301127321" lon="-8.46195969713698"><ele>375.3333333333333</ele><time>2026-04-05T18:07:35.999Z</time></trkpt><trkpt lat="42.52045222193" lon="-8.461713426931023"><ele>372.0</ele><time>2026-04-05T18:07:36.999Z</time></trkpt><trkpt lat="42.52055748937043" lon="-8.461487870332176"><ele>374.0</ele><time>2026-04-05T18:07:37.999Z</time></trkpt><trkpt lat="42.52066700502962" lon="-8.461255457989456"><ele>376.0</ele><time>2026-04-05T18:07:38.999Z</time></trkpt><trkpt lat="42.52077584556433" lon="-8.461024476413895"><ele>378.0</ele><time>2026-04-05T18:07:39.999Z</time></trkpt><trkpt lat="42.52088419407576" lon="-8.460794538532571"><ele>378.0</ele><time>2026-04-05T18:07:40.999Z</time></trkpt><trkpt lat="42.520991345724376" lon="-8.460567140640787"><ele>378.0</ele><time>2026-04-05T18:07:41.999Z</time></trkpt><trkpt lat="42.52110237611507" lon="-8.460335332170182"><ele>378.0</ele><time>2026-04-05T18:07:42.999Z</time></trkpt><trkpt lat="42.52123589227599" lon="-8.460129740605263"><ele>380.66666666666663</ele><time>2026-04-05T18:07:43.999Z</time></trkpt><trkpt lat="42.521345773722814" lon="-8.45989660966103"><ele>383.3333333333333</ele><time>2026-04-05T18:07:44.999Z</time></trkpt><trkpt lat="42.521460295191964" lon="-8.459667791554512"><ele>386.0</ele><time>2026-04-05T18:07:45.999Z</time></trkpt><trkpt lat="42.5215770729136" lon="-8.459432477028017"><ele>386.0</ele><time>2026-04-05T18:07:46.999Z</time></trkpt><trkpt lat="42.52168117751521" lon="-8.459184158923074"><ele>386.0</ele><time>2026-04-05T18:07:47.999Z</time></trkpt><trkpt lat="42.52177664784766" lon="-8.458924209939537"><ele>386.0</ele><time>2026-04-05T18:07:48.999Z</time></trkpt><trkpt lat="42.521854087588856" lon="-8.458645227478167"><ele>388.5</ele><time>2026-04-05T18:07:49.999Z</time></trkpt><trkpt lat="42.521901586274524" lon="-8.4583513136588"><ele>391.0</ele><time>2026-04-05T18:07:50.999Z</time></trkpt><trkpt lat="42.52192370638157" lon="-8.4580404964818"><ele>391.5</ele><time>2026-04-05T18:07:52Z</time></trkpt><trkpt lat="42.52193832714197" lon="-8.457735406165275"><ele>392.0</ele><time>2026-04-05T18:07:53Z</time></trkpt><trkpt lat="42.52194015653809" lon="-8.457422836107858"><ele>394.0</ele><time>2026-04-05T18:07:54Z</time></trkpt><trkpt lat="42.52193959304783" lon="-8.457113315868309"><ele>396.0</ele><time>2026-04-05T18:07:55Z</time></trkpt><trkpt lat="42.52195255918762" lon="-8.456811052954862"><ele>396.0</ele><time>2026-04-05T18:07:56Z</time></trkpt><trkpt lat="42.52197073933731" lon="-8.456530184809607"><ele>396.0</ele><time>2026-04-05T18:07:57Z</time></trkpt><trkpt lat="42.52199758254623" lon="-8.45623943036317"><ele>396.0</ele><time>2026-04-05T18:07:58Z</time></trkpt><trkpt lat="42.52202849611574" lon="-8.455947329591508"><ele>388.3333333333333</ele><time>2026-04-05T18:07:59Z</time></trkpt><trkpt lat="42.52206711739067" lon="-8.455656020194185"><ele>380.66666666666663</ele><time>2026-04-05T18:08:00Z</time></trkpt><trkpt lat="42.52211352165933" lon="-8.455373646358844"><ele>373.0</ele><time>2026-04-05T18:08:01Z</time></trkpt><trkpt lat="42.52216350675181" lon="-8.455110171788494"><ele>373.0</ele><time>2026-04-05T18:08:02Z</time></trkpt><trkpt lat="42.522213024906584" lon="-8.454850757409185"><ele>373.0</ele><time>2026-04-05T18:08:03Z</time></trkpt><trkpt lat="42.522274090225004" lon="-8.45459486448074"><ele>373.0</ele><time>2026-04-05T18:08:04Z</time></trkpt><trkpt lat="42.52233438416739" lon="-8.454342563574357"><ele>376.0</ele><time>2026-04-05T18:08:05Z</time></trkpt><trkpt lat="42.52239548968231" lon="-8.454111750025243"><ele>379.0</ele><time>2026-04-05T18:08:06Z</time></trkpt><trkpt lat="42.522463451000625" lon="-8.453889564338256"><ele>382.0</ele><time>2026-04-05T18:08:07Z</time></trkpt><trkpt lat="42.522537987932736" lon="-8.453669087125087"><ele>384.0</ele><time>2026-04-05T18:08:08Z</time></trkpt><trkpt lat="42.522618161657" lon="-8.45345258340358"><ele>386.0</ele><time>2026-04-05T18:08:09Z</time></trkpt><trkpt lat="42.52270911185367" lon="-8.453245515773023"><ele>388.0</ele><time>2026-04-05T18:08:10Z</time></trkpt><trkpt lat="42.52281218036045" lon="-8.453038930943846"><ele>383.6666666666667</ele><time>2026-04-05T18:08:11Z</time></trkpt><trkpt lat="42.5229259536019" lon="-8.452835862774103"><ele>379.33333333333337</ele><time>2026-04-05T18:08:12Z</time></trkpt><trkpt lat="42.52305140436884" lon="-8.452649386891684"><ele>375.0</ele><time>2026-04-05T18:08:13Z</time></trkpt><trkpt lat="42.5231864108003" lon="-8.452478741683356"><ele>375.0</ele><time>2026-04-05T18:08:14Z</time></trkpt><trkpt lat="42.52333073634396" lon="-8.452333123663887"><ele>375.0</ele><time>2026-04-05T18:08:15Z</time></trkpt><trkpt lat="42.523492190435164" lon="-8.452208788183768"><ele>375.0</ele><time>2026-04-05T18:08:16Z</time></trkpt><trkpt lat="42.52365744963795" lon="-8.452097076730793"><ele>376.0</ele><time>2026-04-05T18:08:17Z</time></trkpt><trkpt lat="42.523821248265634" lon="-8.451991541808944"><ele>377.0</ele><time>2026-04-05T18:08:18Z</time></trkpt><trkpt lat="42.523983998663674" lon="-8.451890477340346"><ele>378.0</ele><time>2026-04-05T18:08:19Z</time></trkpt><trkpt lat="42.524151546180306" lon="-8.451778930984426"><ele>378.0</ele><time>2026-04-05T18:08:20Z</time></trkpt><trkpt lat="42.52431685596563" lon="-8.451668581675298"><ele>378.0</ele><time>2026-04-05T18:08:21Z</time></trkpt><trkpt lat="42.5244785633458" lon="-8.45153279530731"><ele>378.0</ele><time>2026-04-05T18:08:22Z</time></trkpt><trkpt lat="42.52461651795708" lon="-8.45139437641668"><ele>377.3333333333333</ele><time>2026-04-05T18:08:23Z</time></trkpt><trkpt lat="42.524748888957596" lon="-8.451217913145841"><ele>376.66666666666663</ele><time>2026-04-05T18:08:24Z</time></trkpt><trkpt lat="42.524867553938776" lon="-8.451022504171792"><ele>376.0</ele><time>2026-04-05T18:08:25Z</time></trkpt><trkpt lat="42.524973199034065" lon="-8.450801930437809"><ele>376.0</ele><time>2026-04-05T18:08:26Z</time></trkpt><trkpt lat="42.525067643327255" lon="-8.450560194395564"><ele>376.0</ele><time>2026-04-05T18:08:27Z</time></trkpt><trkpt lat="42.52514893762637" lon="-8.450302797535278"><ele>376.0</ele><time>2026-04-05T18:08:28Z</time></trkpt><trkpt lat="42.52521083989362" lon="-8.45005490431467"><ele>377.3333333333333</ele><time>2026-04-05T18:08:29Z</time></trkpt><trkpt lat="42.52525627101807" lon="-8.449814556635479"><ele>378.6666666666667</ele><time>2026-04-05T18:08:30Z</time></trkpt><trkpt lat="42.52528988872409" lon="-8.449571544220063"><ele>380.0</ele><time>2026-04-05T18:08:31Z</time></trkpt><trkpt lat="42.525306202553175" lon="-8.449320118681321"><ele>380.33333333333337</ele><time>2026-04-05T18:08:32Z</time></trkpt><trkpt lat="42.52529869840863" lon="-8.449076038737159"><ele>380.6666666666667</ele><time>2026-04-05T18:08:33Z</time></trkpt><trkpt lat="42.525272734528485" lon="-8.448827736540908"><ele>381.0</ele><time>2026-04-05T18:08:34Z</time></trkpt><trkpt lat="42.52522665249286" lon="-8.448590317391083"><ele>381.0</ele><time>2026-04-05T18:08:35Z</time></trkpt><trkpt lat="42.52516491738163" lon="-8.448361857218178"><ele>381.0</ele><time>2026-04-05T18:08:36Z</time></trkpt><trkpt lat="42.52508943799874" lon="-8.448135686919466"><ele>381.0</ele><time>2026-04-05T18:08:37Z</time></trkpt><trkpt lat="42.52499815074492" lon="-8.44791624055295"><ele>378.3333333333333</ele><time>2026-04-05T18:08:38Z</time></trkpt><trkpt lat="42.52489175348496" lon="-8.447707119910849"><ele>375.66666666666663</ele><time>2026-04-05T18:08:39Z</time></trkpt><trkpt lat="42.524767963009694" lon="-8.447504948415176"><ele>373.0</ele><time>2026-04-05T18:08:40Z</time></trkpt><trkpt lat="42.52464191589098" lon="-8.447304009894985"><ele>372.0</ele><time>2026-04-05T18:08:41Z</time></trkpt><trkpt lat="42.52451691932891" lon="-8.44711050753614"><ele>371.0</ele><time>2026-04-05T18:08:42Z</time></trkpt><trkpt lat="42.524401439021055" lon="-8.446918256175655"><ele>370.0</ele><time>2026-04-05T18:08:43Z</time></trkpt><trkpt lat="42.52428782685484" lon="-8.446730775030545"><ele>370.0</ele><time>2026-04-05T18:08:44Z</time></trkpt><trkpt lat="42.524179237425486" lon="-8.446534215219879"><ele>370.0</ele><time>2026-04-05T18:08:45Z</time></trkpt><trkpt lat="42.52407846639756" lon="-8.446321214754127"><ele>370.0</ele><time>2026-04-05T18:08:46Z</time></trkpt><trkpt lat="42.523986794679814" lon="-8.446099099752388"><ele>365.0</ele><time>2026-04-05T18:08:47Z</time></trkpt><trkpt lat="42.523906526522794" lon="-8.44585821734291"><ele>360.0</ele><time>2026-04-05T18:08:48Z</time></trkpt><trkpt lat="42.52383244439853" lon="-8.445612190196206"><ele>355.0</ele><time>2026-04-05T18:08:49Z</time></trkpt><trkpt lat="42.52375192084148" lon="-8.44536536366289"><ele>353.3333333333333</ele><time>2026-04-05T18:08:50Z</time></trkpt><trkpt lat="42.52369911614885" lon="-8.445094088388966"><ele>351.6666666666667</ele><time>2026-04-05T18:08:51Z</time></trkpt><trkpt lat="42.52367767259064" lon="-8.444807377530486"><ele>350.0</ele><time>2026-04-05T18:08:52Z</time></trkpt><trkpt lat="42.523653150701016" lon="-8.44451941882647"><ele>347.33333333333337</ele><time>2026-04-05T18:08:53Z</time></trkpt><trkpt lat="42.523625878805014" lon="-8.444221337939787"><ele>344.6666666666667</ele><time>2026-04-05T18:08:54Z</time></trkpt><trkpt lat="42.52364729458375" lon="-8.443920146999002"><ele>342.0</ele><time>2026-04-05T18:08:55Z</time></trkpt><trkpt lat="42.52366591333978" lon="-8.443625686529607"><ele>341.3333333333333</ele><time>2026-04-05T18:08:56Z</time></trkpt><trkpt lat="42.52370092991709" lon="-8.443338542477763"><ele>340.66666666666663</ele><time>2026-04-05T18:08:57Z</time></trkpt><trkpt lat="42.523747018558424" lon="-8.443054169669074"><ele>340.0</ele><time>2026-04-05T18:08:57.999Z</time></trkpt><trkpt lat="42.523810466148134" lon="-8.442781033232732"><ele>338.0</ele><time>2026-04-05T18:08:58.999Z</time></trkpt><trkpt lat="42.52388253534538" lon="-8.44251908635404"><ele>336.0</ele><time>2026-04-05T18:08:59.999Z</time></trkpt><trkpt lat="42.523970897745286" lon="-8.442261363385951"><ele>334.0</ele><time>2026-04-05T18:09:00.999Z</time></trkpt><trkpt lat="42.524072729077226" lon="-8.442016920689118"><ele>334.0</ele><time>2026-04-05T18:09:01.999Z</time></trkpt><trkpt lat="42.52418285257114" lon="-8.441776503852287"><ele>334.0</ele><time>2026-04-05T18:09:02.999Z</time></trkpt><trkpt lat="42.524296033237285" lon="-8.441558891011578"><ele>334.0</ele><time>2026-04-05T18:09:03.999Z</time></trkpt><trkpt lat="42.524416786872486" lon="-8.441352091278556"><ele>335.66666666666663</ele><time>2026-04-05T18:09:04.999Z</time></trkpt><trkpt lat="42.524544901152666" lon="-8.441161241330077"><ele>337.3333333333333</ele><time>2026-04-05T18:09:05.999Z</time></trkpt><trkpt lat="42.52468564082636" lon="-8.440978239638365"><ele>339.0</ele><time>2026-04-05T18:09:06.999Z</time></trkpt><trkpt lat="42.524835305095706" lon="-8.440803576162006"><ele>339.0</ele><time>2026-04-05T18:09:07.999Z</time></trkpt><trkpt lat="42.52499625420315" lon="-8.440637512544672"><ele>339.0</ele><time>2026-04-05T18:09:08.999Z</time></trkpt><trkpt lat="42.525168402921615" lon="-8.440485743341107"><ele>339.0</ele><time>2026-04-05T18:09:09.999Z</time></trkpt><trkpt lat="42.52535053759355" lon="-8.440357340957481"><ele>341.6666666666667</ele><time>2026-04-05T18:09:10.999Z</time></trkpt><trkpt lat="42.52553684190527" lon="-8.440239027888435"><ele>344.33333333333337</ele><time>2026-04-05T18:09:11.999Z</time></trkpt><trkpt lat="42.525732348867116" lon="-8.440138018124618"><ele>347.0</ele><time>2026-04-05T18:09:12.999Z</time></trkpt><trkpt lat="42.52592895634534" lon="-8.440047128021222"><ele>347.0</ele><time>2026-04-05T18:09:13.999Z</time></trkpt><trkpt lat="42.52613947239029" lon="-8.43996078017054"><ele>347.0</ele><time>2026-04-05T18:09:14.999Z</time></trkpt><trkpt lat="42.526339413909284" lon="-8.439920773778727"><ele>347.0</ele><time>2026-04-05T18:09:15.999Z</time></trkpt><trkpt lat="42.52654544865121" lon="-8.439878592024629"><ele>347.33333333333337</ele><time>2026-04-05T18:09:16.999Z</time></trkpt><trkpt lat="42.52675169423121" lon="-8.439836214590054"><ele>347.6666666666667</ele><time>2026-04-05T18:09:17.999Z</time></trkpt><trkpt lat="42.52695485877543" lon="-8.439793807832514"><ele>348.0</ele><time>2026-04-05T18:09:18.999Z</time></trkpt><trkpt lat="42.52715627211611" lon="-8.439732597140408"><ele>350.0</ele><time>2026-04-05T18:09:19.999Z</time></trkpt><trkpt lat="42.52734467823913" lon="-8.439645233947596"><ele>352.0</ele><time>2026-04-05T18:09:20.999Z</time></trkpt><trkpt lat="42.52752154833595" lon="-8.439531259554858"><ele>354.0</ele><time>2026-04-05T18:09:21.999Z</time></trkpt><trkpt lat="42.527679310548535" lon="-8.439387219606802"><ele>358.0</ele><time>2026-04-05T18:09:22.999Z</time></trkpt><trkpt lat="42.52782893494991" lon="-8.439223448745976"><ele>362.0</ele><time>2026-04-05T18:09:23.999Z</time></trkpt><trkpt lat="42.52796291792398" lon="-8.439041164251542"><ele>366.0</ele><time>2026-04-05T18:09:24.999Z</time></trkpt><trkpt lat="42.528083682781876" lon="-8.438840364448298"><ele>368.0</ele><time>2026-04-05T18:09:25.999Z</time></trkpt><trkpt lat="42.528187676369" lon="-8.438626292210577"><ele>370.0</ele><time>2026-04-05T18:09:26.999Z</time></trkpt><trkpt lat="42.528261542290664" lon="-8.438389980935366"><ele>372.0</ele><time>2026-04-05T18:09:27.999Z</time></trkpt><trkpt lat="42.528347084716444" lon="-8.438162544222228"><ele>374.6666666666667</ele><time>2026-04-05T18:09:28.999Z</time></trkpt><trkpt lat="42.52841276828574" lon="-8.43791979813707"><ele>377.33333333333337</ele><time>2026-04-05T18:09:29.999Z</time></trkpt><trkpt lat="42.528478011110195" lon="-8.437671886876778"><ele>380.0</ele><time>2026-04-05T18:09:30.999Z</time></trkpt><trkpt lat="42.5285291137885" lon="-8.43742762690295"><ele>380.0</ele><time>2026-04-05T18:09:31.999Z</time></trkpt><trkpt lat="42.52858355497794" lon="-8.43718183975584"><ele>380.0</ele><time>2026-04-05T18:09:32.999Z</time></trkpt><trkpt lat="42.52863283157142" lon="-8.436958789218068"><ele>380.0</ele><time>2026-04-05T18:09:33.999Z</time></trkpt><trkpt lat="42.52868304386404" lon="-8.436737769973197"><ele>379.6666666666667</ele><time>2026-04-05T18:09:34.999Z</time></trkpt><trkpt lat="42.52873401655811" lon="-8.436509901121141"><ele>379.3333333333333</ele><time>2026-04-05T18:09:35.999Z</time></trkpt><trkpt lat="42.52878360420226" lon="-8.436274718197394"><ele>379.0</ele><time>2026-04-05T18:09:36.999Z</time></trkpt><trkpt lat="42.52883159750863" lon="-8.436043611988124"><ele>379.66666666666663</ele><time>2026-04-05T18:09:37.999Z</time></trkpt><trkpt lat="42.528887203849145" lon="-8.435803793336675"><ele>380.3333333333333</ele><time>2026-04-05T18:09:38.999Z</time></trkpt><trkpt lat="42.52893955269554" lon="-8.435558028324166"><ele>381.0</ele><time>2026-04-05T18:09:39.999Z</time></trkpt><trkpt lat="42.528992218382285" lon="-8.435307261064915"><ele>381.0</ele><time>2026-04-05T18:09:40.999Z</time></trkpt><trkpt lat="42.529040338541414" lon="-8.435048964661782"><ele>381.0</ele><time>2026-04-05T18:09:41.999Z</time></trkpt><trkpt lat="42.5290844806702" lon="-8.434789578638046"><ele>381.0</ele><time>2026-04-05T18:09:42.999Z</time></trkpt><trkpt lat="42.52912537027548" lon="-8.434533716272059"><ele>381.3333333333333</ele><time>2026-04-05T18:09:43.999Z</time></trkpt><trkpt lat="42.52916190791246" lon="-8.434283693063113"><ele>381.66666666666663</ele><time>2026-04-05T18:09:44.999Z</time></trkpt><trkpt lat="42.52919836116626" lon="-8.434033134280927"><ele>382.0</ele><time>2026-04-05T18:09:45.999Z</time></trkpt><trkpt lat="42.52921093254745" lon="-8.433776089045834"><ele>382.0</ele><time>2026-04-05T18:09:46.999Z</time></trkpt><trkpt lat="42.52925396375964" lon="-8.433518979056231"><ele>382.0</ele><time>2026-04-05T18:09:47.999Z</time></trkpt><trkpt lat="42.52927726921755" lon="-8.4332603506019"><ele>382.0</ele><time>2026-04-05T18:09:48.999Z</time></trkpt><trkpt lat="42.529299925449436" lon="-8.433009237942347"><ele>381.66666666666663</ele><time>2026-04-05T18:09:49.999Z</time></trkpt><trkpt lat="42.52932930198593" lon="-8.432767510666746"><ele>381.3333333333333</ele><time>2026-04-05T18:09:50.999Z</time></trkpt><trkpt lat="42.52937436204352" lon="-8.432518584727367"><ele>381.0</ele><time>2026-04-05T18:09:51.999Z</time></trkpt><trkpt lat="42.529437558011125" lon="-8.432265688065485"><ele>380.3333333333333</ele><time>2026-04-05T18:09:52.999Z</time></trkpt><trkpt lat="42.52951065630049" lon="-8.432009345427836"><ele>379.66666666666663</ele><time>2026-04-05T18:09:53.999Z</time></trkpt><trkpt lat="42.52959208782692" lon="-8.431767914451292"><ele>379.0</ele><time>2026-04-05T18:09:54.999Z</time></trkpt><trkpt lat="42.52968859519322" lon="-8.431531103156953"><ele>376.0</ele><time>2026-04-05T18:09:55.999Z</time></trkpt><trkpt lat="42.52980114426032" lon="-8.431295176788202"><ele>373.0</ele><time>2026-04-05T18:09:56.999Z</time></trkpt><trkpt lat="42.52992100646626" lon="-8.43105716509809"><ele>370.0</ele><time>2026-04-05T18:09:58Z</time></trkpt><trkpt lat="42.530044834266235" lon="-8.4308246429453"><ele>370.0</ele><time>2026-04-05T18:09:59Z</time></trkpt><trkpt lat="42.53017797620542" lon="-8.430600156439738"><ele>370.0</ele><time>2026-04-05T18:10:00Z</time></trkpt><trkpt lat="42.53031758230304" lon="-8.43037223144458"><ele>370.0</ele><time>2026-04-05T18:10:01Z</time></trkpt><trkpt lat="42.53045320582031" lon="-8.430145865813843"><ele>364.3333333333333</ele><time>2026-04-05T18:10:02Z</time></trkpt><trkpt lat="42.53059229033191" lon="-8.429921912389847"><ele>358.6666666666667</ele><time>2026-04-05T18:10:03Z</time></trkpt><trkpt lat="42.53072703659791" lon="-8.429713764432172"><ele>353.0</ele><time>2026-04-05T18:10:04Z</time></trkpt><trkpt lat="42.530858592925526" lon="-8.429508169651218"><ele>353.0</ele><time>2026-04-05T18:10:05Z</time></trkpt><trkpt lat="42.53097084946397" lon="-8.429285596224883"><ele>353.0</ele><time>2026-04-05T18:10:06Z</time></trkpt><trkpt lat="42.53108854622078" lon="-8.429078635640803"><ele>353.0</ele><time>2026-04-05T18:10:07Z</time></trkpt><trkpt lat="42.53119710761442" lon="-8.428870027446827"><ele>350.6666666666667</ele><time>2026-04-05T18:10:08Z</time></trkpt><trkpt lat="42.53129083358852" lon="-8.428649249418573"><ele>348.3333333333333</ele><time>2026-04-05T18:10:09Z</time></trkpt><trkpt lat="42.53137511824051" lon="-8.428403939953622"><ele>346.0</ele><time>2026-04-05T18:10:10Z</time></trkpt><trkpt lat="42.53144921318487" lon="-8.428144397351277"><ele>344.3333333333333</ele><time>2026-04-05T18:10:11Z</time></trkpt><trkpt lat="42.53151357364227" lon="-8.427873651362056"><ele>342.6666666666667</ele><time>2026-04-05T18:10:12Z</time></trkpt><trkpt lat="42.53157421932904" lon="-8.427601525998224"><ele>341.0</ele><time>2026-04-05T18:10:13Z</time></trkpt><trkpt lat="42.53163746656707" lon="-8.427316419226445"><ele>336.6666666666667</ele><time>2026-04-05T18:10:14Z</time></trkpt><trkpt lat="42.53169929858104" lon="-8.427035210666057"><ele>332.3333333333333</ele><time>2026-04-05T18:10:15Z</time></trkpt><trkpt lat="42.53175877658432" lon="-8.426764426590186"><ele>328.0</ele><time>2026-04-05T18:10:16Z</time></trkpt><trkpt lat="42.53181684384761" lon="-8.426502379457478"><ele>329.0</ele><time>2026-04-05T18:10:17Z</time></trkpt><trkpt lat="42.53187276059972" lon="-8.42625466390011"><ele>330.0</ele><time>2026-04-05T18:10:18Z</time></trkpt><trkpt lat="42.53192693375736" lon="-8.426014672573748"><ele>331.0</ele><time>2026-04-05T18:10:19Z</time></trkpt><trkpt lat="42.53198236895964" lon="-8.425767929528742"><ele>331.0</ele><time>2026-04-05T18:10:20Z</time></trkpt><trkpt lat="42.53204170300988" lon="-8.425508812606372"><ele>331.0</ele><time>2026-04-05T18:10:21Z</time></trkpt><trkpt lat="42.53211288842699" lon="-8.425242224587087"><ele>331.0</ele><time>2026-04-05T18:10:22Z</time></trkpt><trkpt lat="42.532163616386335" lon="-8.424960729500995"><ele>339.66666666666663</ele><time>2026-04-05T18:10:23Z</time></trkpt><trkpt lat="42.532199535556785" lon="-8.42468127220409"><ele>348.3333333333333</ele><time>2026-04-05T18:10:24Z</time></trkpt><trkpt lat="42.53222069193551" lon="-8.424398900731449"><ele>357.0</ele><time>2026-04-05T18:10:25Z</time></trkpt><trkpt lat="42.53222350541992" lon="-8.42412384697043"><ele>358.6666666666667</ele><time>2026-04-05T18:10:26Z</time></trkpt><trkpt lat="42.532216840627456" lon="-8.423848341834457"><ele>360.33333333333337</ele><time>2026-04-05T18:10:27Z</time></trkpt><trkpt lat="42.53219607483375" lon="-8.42357265274829"><ele>362.0</ele><time>2026-04-05T18:10:28Z</time></trkpt><trkpt lat="42.53217308030105" lon="-8.423298333427105"><ele>362.0</ele><time>2026-04-05T18:10:29Z</time></trkpt><trkpt lat="42.53215567560529" lon="-8.42302446897936"><ele>362.0</ele><time>2026-04-05T18:10:30Z</time></trkpt><trkpt lat="42.53215042379716" lon="-8.422746738828948"><ele>362.0</ele><time>2026-04-05T18:10:31Z</time></trkpt><trkpt lat="42.532157863471866" lon="-8.422472738222723"><ele>362.0</ele><time>2026-04-05T18:10:32Z</time></trkpt><trkpt lat="42.53217775165429" lon="-8.422192291656568"><ele>362.0</ele><time>2026-04-05T18:10:33Z</time></trkpt><trkpt lat="42.53221948635738" lon="-8.421925556741803"><ele>362.0</ele><time>2026-04-05T18:10:34Z</time></trkpt><trkpt lat="42.5322695772368" lon="-8.421656540785609"><ele>360.0</ele><time>2026-04-05T18:10:35Z</time></trkpt><trkpt lat="42.53233692814059" lon="-8.421387995292799"><ele>358.0</ele><time>2026-04-05T18:10:36Z</time></trkpt><trkpt lat="42.53242199874474" lon="-8.421121931490564"><ele>356.0</ele><time>2026-04-05T18:10:37Z</time></trkpt><trkpt lat="42.53252503536248" lon="-8.420870714234198"><ele>354.6666666666667</ele><time>2026-04-05T18:10:38Z</time></trkpt><trkpt lat="42.532639256523794" lon="-8.420624711233197"><ele>353.3333333333333</ele><time>2026-04-05T18:10:39Z</time></trkpt><trkpt lat="42.53275531766272" lon="-8.420408694896974"><ele>352.0</ele><time>2026-04-05T18:10:40Z</time></trkpt><trkpt lat="42.53286933740942" lon="-8.420219799488118"><ele>356.66666666666663</ele><time>2026-04-05T18:10:41Z</time></trkpt><trkpt lat="42.53298163226488" lon="-8.420030811782006"><ele>361.3333333333333</ele><time>2026-04-05T18:10:42Z</time></trkpt><trkpt lat="42.53308632471384" lon="-8.419855451833659"><ele>366.0</ele><time>2026-04-05T18:10:43Z</time></trkpt><trkpt lat="42.53318317634917" lon="-8.419676313554472"><ele>360.6666666666667</ele><time>2026-04-05T18:10:44Z</time></trkpt><trkpt lat="42.53327412159357" lon="-8.419479656985091"><ele>355.33333333333337</ele><time>2026-04-05T18:10:45Z</time></trkpt><trkpt lat="42.533327526803355" lon="-8.41926229813556"><ele>350.0</ele><time>2026-04-05T18:10:46Z</time></trkpt><trkpt lat="42.5333886103797" lon="-8.419049300369055"><ele>350.0</ele><time>2026-04-05T18:10:47Z</time></trkpt><trkpt lat="42.53343938930855" lon="-8.418829552068406"><ele>350.0</ele><time>2026-04-05T18:10:48Z</time></trkpt><trkpt lat="42.533473341905754" lon="-8.418597168702858"><ele>350.0</ele><time>2026-04-05T18:10:49Z</time></trkpt><trkpt lat="42.53349172485245" lon="-8.418361254357942"><ele>348.6666666666667</ele><time>2026-04-05T18:10:50Z</time></trkpt><trkpt lat="42.53349910404067" lon="-8.418120231636735"><ele>347.3333333333333</ele><time>2026-04-05T18:10:51Z</time></trkpt><trkpt lat="42.53349145548999" lon="-8.417881252223149"><ele>346.0</ele><time>2026-04-05T18:10:52Z</time></trkpt><trkpt lat="42.533469529651676" lon="-8.417637493412661"><ele>345.3333333333333</ele><time>2026-04-05T18:10:53Z</time></trkpt><trkpt lat="42.53343724788306" lon="-8.41739372530832"><ele>344.6666666666667</ele><time>2026-04-05T18:10:54Z</time></trkpt><trkpt lat="42.53339134606715" lon="-8.41715847958138"><ele>344.0</ele><time>2026-04-05T18:10:55Z</time></trkpt><trkpt lat="42.533333681323995" lon="-8.416940725552545"><ele>347.33333333333337</ele><time>2026-04-05T18:10:56Z</time></trkpt><trkpt lat="42.53326674029381" lon="-8.41673998375701"><ele>350.6666666666667</ele><time>2026-04-05T18:10:57Z</time></trkpt><trkpt lat="42.5332102200051" lon="-8.416542723154553"><ele>354.0</ele><time>2026-04-05T18:10:58Z</time></trkpt><trkpt lat="42.533115829007706" lon="-8.41637244639983"><ele>358.6666666666667</ele><time>2026-04-05T18:10:59Z</time></trkpt><trkpt lat="42.53303435128459" lon="-8.416194470539685"><ele>363.33333333333337</ele><time>2026-04-05T18:11:00Z</time></trkpt><trkpt lat="42.53296383351905" lon="-8.416008478067779"><ele>368.0</ele><time>2026-04-05T18:11:01Z</time></trkpt><trkpt lat="42.532876356870524" lon="-8.415830340749025"><ele>361.6666666666667</ele><time>2026-04-05T18:11:02Z</time></trkpt><trkpt lat="42.53279892767797" lon="-8.415651286479717"><ele>355.3333333333333</ele><time>2026-04-05T18:11:03Z</time></trkpt><trkpt lat="42.532735249828505" lon="-8.415462684427995"><ele>349.0</ele><time>2026-04-05T18:11:04Z</time></trkpt><trkpt lat="42.53268280804803" lon="-8.415260315464824"><ele>349.0</ele><time>2026-04-05T18:11:05Z</time></trkpt><trkpt lat="42.532642623295715" lon="-8.415055279511703"><ele>349.0</ele><time>2026-04-05T18:11:05.999Z</time></trkpt><trkpt lat="42.53261812800956" lon="-8.414846027826009"><ele>349.0</ele><time>2026-04-05T18:11:06.999Z</time></trkpt><trkpt lat="42.532603748233186" lon="-8.414633064520892"><ele>349.66666666666663</ele><time>2026-04-05T18:11:07.999Z</time></trkpt><trkpt lat="42.53260697422603" lon="-8.414411624829189"><ele>350.3333333333333</ele><time>2026-04-05T18:11:08.999Z</time></trkpt><trkpt lat="42.53261386888241" lon="-8.414194451856048"><ele>351.0</ele><time>2026-04-05T18:11:09.999Z</time></trkpt><trkpt lat="42.53260226706333" lon="-8.4139704629091"><ele>352.6666666666667</ele><time>2026-04-05T18:11:10.999Z</time></trkpt><trkpt lat="42.53261499762762" lon="-8.41375420854637"><ele>354.33333333333337</ele><time>2026-04-05T18:11:11.999Z</time></trkpt><trkpt lat="42.53260774105641" lon="-8.41353082149326"><ele>356.0</ele><time>2026-04-05T18:11:12.999Z</time></trkpt><trkpt lat="42.53260550553218" lon="-8.413302976456404"><ele>356.0</ele><time>2026-04-05T18:11:13.999Z</time></trkpt><trkpt lat="42.532600592642844" lon="-8.413079804482539"><ele>356.0</ele><time>2026-04-05T18:11:14.999Z</time></trkpt><trkpt lat="42.532592172276054" lon="-8.41285580689566"><ele>356.0</ele><time>2026-04-05T18:11:15.999Z</time></trkpt><trkpt lat="42.5325839035428" lon="-8.412632945325258"><ele>355.0</ele><time>2026-04-05T18:11:16.999Z</time></trkpt><trkpt lat="42.5325803639972" lon="-8.41241100959454"><ele>354.0</ele><time>2026-04-05T18:11:17.999Z</time></trkpt><trkpt lat="42.532577020595795" lon="-8.412192792306428"><ele>353.0</ele><time>2026-04-05T18:11:18.999Z</time></trkpt><trkpt lat="42.53257265279414" lon="-8.411978974269406"><ele>353.0</ele><time>2026-04-05T18:11:19.999Z</time></trkpt><trkpt lat="42.5325454948492" lon="-8.411769509459374"><ele>353.0</ele><time>2026-04-05T18:11:20.999Z</time></trkpt><trkpt lat="42.5325262343492" lon="-8.411568764236979"><ele>353.0</ele><time>2026-04-05T18:11:21.999Z</time></trkpt><trkpt lat="42.532498317000396" lon="-8.411361279951551"><ele>356.33333333333337</ele><time>2026-04-05T18:11:22.999Z</time></trkpt><trkpt lat="42.53246294851511" lon="-8.411152918958537"><ele>359.6666666666667</ele><time>2026-04-05T18:11:23.999Z</time></trkpt><trkpt lat="42.53242021818254" lon="-8.410924735519295"><ele>363.0</ele><time>2026-04-05T18:11:24.999Z</time></trkpt><trkpt lat="42.532386846334994" lon="-8.410690792325047"><ele>364.3333333333333</ele><time>2026-04-05T18:11:25.999Z</time></trkpt><trkpt lat="42.532340384037944" lon="-8.41044650691113"><ele>365.66666666666663</ele><time>2026-04-05T18:11:26.999Z</time></trkpt><trkpt lat="42.53229680570793" lon="-8.41019572762359"><ele>367.0</ele><time>2026-04-05T18:11:27.999Z</time></trkpt><trkpt lat="42.53225017169033" lon="-8.409943054332407"><ele>367.0</ele><time>2026-04-05T18:11:28.999Z</time></trkpt><trkpt lat="42.53220281098624" lon="-8.409679840376251"><ele>367.0</ele><time>2026-04-05T18:11:29.999Z</time></trkpt><trkpt lat="42.53215714021929" lon="-8.409413635250278"><ele>367.0</ele><time>2026-04-05T18:11:30.999Z</time></trkpt><trkpt lat="42.53210728779333" lon="-8.40914180321711"><ele>369.3333333333333</ele><time>2026-04-05T18:11:31.999Z</time></trkpt><trkpt lat="42.53205717146337" lon="-8.408867232733026"><ele>371.6666666666667</ele><time>2026-04-05T18:11:32.999Z</time></trkpt><trkpt lat="42.53200848714787" lon="-8.40858551475202"><ele>374.0</ele><time>2026-04-05T18:11:33.999Z</time></trkpt><trkpt lat="42.53195629728184" lon="-8.408303552121794"><ele>365.33333333333337</ele><time>2026-04-05T18:11:34.999Z</time></trkpt><trkpt lat="42.5319113651313" lon="-8.408015179997166"><ele>356.6666666666667</ele><time>2026-04-05T18:11:35.999Z</time></trkpt><trkpt lat="42.53187133809955" lon="-8.407725087863332"><ele>348.0</ele><time>2026-04-05T18:11:36.999Z</time></trkpt><trkpt lat="42.53185157266928" lon="-8.407451391685084"><ele>348.0</ele><time>2026-04-05T18:11:37.999Z</time></trkpt><trkpt lat="42.53185789740324" lon="-8.40718354477025"><ele>348.0</ele><time>2026-04-05T18:11:38.999Z</time></trkpt><trkpt lat="42.531889293006536" lon="-8.40690946938107"><ele>348.0</ele><time>2026-04-05T18:11:39.999Z</time></trkpt><trkpt lat="42.53194271402816" lon="-8.406651169443354"><ele>348.3333333333333</ele><time>2026-04-05T18:11:40.999Z</time></trkpt><trkpt lat="42.53200978474362" lon="-8.406419198255616"><ele>348.66666666666663</ele><time>2026-04-05T18:11:41.999Z</time></trkpt><trkpt lat="42.53208344525013" lon="-8.406202044475721"><ele>349.0</ele><time>2026-04-05T18:11:42.999Z</time></trkpt><trkpt lat="42.532162154415666" lon="-8.406007567369995"><ele>352.0</ele><time>2026-04-05T18:11:43.999Z</time></trkpt><trkpt lat="42.532236883693216" lon="-8.40582149522143"><ele>355.0</ele><time>2026-04-05T18:11:44.999Z</time></trkpt><trkpt lat="42.53231403844174" lon="-8.405622315090476"><ele>358.0</ele><time>2026-04-05T18:11:45.999Z</time></trkpt><trkpt lat="42.532390323770066" lon="-8.405417255274282"><ele>358.0</ele><time>2026-04-05T18:11:46.999Z</time></trkpt><trkpt lat="42.53246863076199" lon="-8.405195847602378"><ele>358.0</ele><time>2026-04-05T18:11:47.999Z</time></trkpt><trkpt lat="42.53254295859582" lon="-8.404970964561501"><ele>358.0</ele><time>2026-04-05T18:11:48.999Z</time></trkpt><trkpt lat="42.53262295212407" lon="-8.40474552061722"><ele>354.0</ele><time>2026-04-05T18:11:49.999Z</time></trkpt><trkpt lat="42.53270617574595" lon="-8.404507699250354"><ele>350.0</ele><time>2026-04-05T18:11:50.999Z</time></trkpt><trkpt lat="42.532763954296804" lon="-8.404252312738114"><ele>346.0</ele><time>2026-04-05T18:11:51.999Z</time></trkpt><trkpt lat="42.532816242321324" lon="-8.403998690556595"><ele>345.3333333333333</ele><time>2026-04-05T18:11:52.999Z</time></trkpt><trkpt lat="42.532846868252776" lon="-8.40372570259211"><ele>344.6666666666667</ele><time>2026-04-05T18:11:53.999Z</time></trkpt><trkpt lat="42.532835388452874" lon="-8.40344124661666"><ele>344.0</ele><time>2026-04-05T18:11:54.999Z</time></trkpt><trkpt lat="42.532796703266" lon="-8.403153528796102"><ele>344.6666666666667</ele><time>2026-04-05T18:11:55.999Z</time></trkpt><trkpt lat="42.532756789373174" lon="-8.402859410879643"><ele>345.3333333333333</ele><time>2026-04-05T18:11:56.999Z</time></trkpt><trkpt lat="42.53271811547905" lon="-8.402572063205133"><ele>346.0</ele><time>2026-04-05T18:11:57.999Z</time></trkpt><trkpt lat="42.53267773985937" lon="-8.402272071632046"><ele>348.0</ele><time>2026-04-05T18:11:58.999Z</time></trkpt><trkpt lat="42.532639238587244" lon="-8.401974173399278"><ele>350.0</ele><time>2026-04-05T18:11:59.999Z</time></trkpt><trkpt lat="42.53260091081199" lon="-8.40167130042115"><ele>352.0</ele><time>2026-04-05T18:12:00.999Z</time></trkpt><trkpt lat="42.53256297429651" lon="-8.40137151922239"><ele>352.66666666666663</ele><time>2026-04-05T18:12:01.999Z</time></trkpt><trkpt lat="42.53252812357211" lon="-8.401096122509017"><ele>353.3333333333333</ele><time>2026-04-05T18:12:02.999Z</time></trkpt><trkpt lat="42.53249526040581" lon="-8.40083643183383"><ele>354.0</ele><time>2026-04-05T18:12:04Z</time></trkpt><trkpt lat="42.5324658005651" lon="-8.400588803963874"><ele>355.0</ele><time>2026-04-05T18:12:05Z</time></trkpt><trkpt lat="42.532438860270716" lon="-8.400347811346851"><ele>356.0</ele><time>2026-04-05T18:12:06Z</time></trkpt><trkpt lat="42.53241416715769" lon="-8.400087731327822"><ele>357.0</ele><time>2026-04-05T18:12:07Z</time></trkpt><trkpt lat="42.53239129273823" lon="-8.399817089232906"><ele>356.6666666666667</ele><time>2026-04-05T18:12:08Z</time></trkpt><trkpt lat="42.53236948120829" lon="-8.399532007616758"><ele>356.33333333333337</ele><time>2026-04-05T18:12:09Z</time></trkpt><trkpt lat="42.53234711676046" lon="-8.399227510249712"><ele>356.0</ele><time>2026-04-05T18:12:10Z</time></trkpt><trkpt lat="42.53232644335694" lon="-8.398920485660787"><ele>353.0</ele><time>2026-04-05T18:12:11Z</time></trkpt><trkpt lat="42.5323058126857" lon="-8.398603215814639"><ele>350.0</ele><time>2026-04-05T18:12:12Z</time></trkpt><trkpt lat="42.53228540308811" lon="-8.398303480546431"><ele>346.0</ele><time>2026-04-05T18:12:13Z</time></trkpt><trkpt lat="42.53226452077265" lon="-8.397997825333974"><ele>342.0</ele><time>2026-04-05T18:12:14Z</time></trkpt><trkpt lat="42.53224316139873" lon="-8.397677445388219"><ele>342.0</ele><time>2026-04-05T18:12:15Z</time></trkpt><trkpt lat="42.53222189238469" lon="-8.39735496887817"><ele>342.0</ele><time>2026-04-05T18:12:16Z</time></trkpt><trkpt lat="42.532200272232174" lon="-8.397027168464284"><ele>338.0</ele><time>2026-04-05T18:12:17Z</time></trkpt><trkpt lat="42.53217909999151" lon="-8.396706159280312"><ele>334.0</ele><time>2026-04-05T18:12:18Z</time></trkpt><trkpt lat="42.53216072220522" lon="-8.396408278051588"><ele>333.66666666666663</ele><time>2026-04-05T18:12:19Z</time></trkpt><trkpt lat="42.53214651284907" lon="-8.396135884087299"><ele>333.3333333333333</ele><time>2026-04-05T18:12:20Z</time></trkpt><trkpt lat="42.53214953592543" lon="-8.39588912492066"><ele>333.0</ele><time>2026-04-05T18:12:21Z</time></trkpt><trkpt lat="42.532130210324766" lon="-8.39568867789325"><ele>333.0</ele><time>2026-04-05T18:12:22Z</time></trkpt><trkpt lat="42.53210274502791" lon="-8.395508731388276"><ele>333.0</ele><time>2026-04-05T18:12:23Z</time></trkpt><trkpt lat="42.532064538851984" lon="-8.395346626648557"><ele>333.0</ele><time>2026-04-05T18:12:24Z</time></trkpt><trkpt lat="42.53201317184088" lon="-8.395211684804483"><ele>333.0</ele><time>2026-04-05T18:12:25Z</time></trkpt><trkpt lat="42.531969115800145" lon="-8.395083871388893"><ele>333.4</ele><time>2026-04-05T18:12:26Z</time></trkpt><trkpt lat="42.53195186224072" lon="-8.394954314552747"><ele>333.79999999999995</ele><time>2026-04-05T18:12:27Z</time></trkpt><trkpt lat="42.53196589171554" lon="-8.394810060775768"><ele>334.2</ele><time>2026-04-05T18:12:28Z</time></trkpt><trkpt lat="42.53200460688603" lon="-8.394646700993652"><ele>334.6</ele><time>2026-04-05T18:12:29Z</time></trkpt><trkpt lat="42.53203302850557" lon="-8.394504476932205"><ele>335.0</ele><time>2026-04-05T18:12:30Z</time></trkpt><trkpt lat="42.53203750202686" lon="-8.394400701048376"><ele>336.0</ele><time>2026-04-05T18:12:31Z</time></trkpt><trkpt lat="42.53203431657198" lon="-8.394313851219648"><ele>337.0</ele><time>2026-04-05T18:12:32Z</time></trkpt><trkpt lat="42.53203411851107" lon="-8.394152108947015"><ele>338.0</ele><time>2026-04-05T18:12:34Z</time></trkpt><trkpt lat="42.532030952096974" lon="-8.393989869653296"><ele>339.0</ele><time>2026-04-05T18:12:36Z</time></trkpt><trkpt lat="42.53202781350973" lon="-8.39390371013591"><ele>340.0</ele><time>2026-04-05T18:12:37Z</time></trkpt><trkpt lat="42.53202449529994" lon="-8.393812398791141"><ele>341.0</ele><time>2026-04-05T18:12:38Z</time></trkpt><trkpt lat="42.53202470281676" lon="-8.393712605809279"><ele>341.6</ele><time>2026-04-05T18:12:39Z</time></trkpt><trkpt lat="42.532023873193985" lon="-8.393624289976922"><ele>342.20000000000005</ele><time>2026-04-05T18:12:40Z</time></trkpt><trkpt lat="42.53202145024713" lon="-8.393489078445327"><ele>342.79999999999995</ele><time>2026-04-05T18:12:42Z</time></trkpt><trkpt lat="42.532018337021434" lon="-8.393374226463948"><ele>343.4</ele><time>2026-04-05T18:12:44Z</time></trkpt><trkpt lat="42.53201568175931" lon="-8.393242870574053"><ele>344.0</ele><time>2026-04-05T18:12:46Z</time></trkpt><trkpt lat="42.53201706982349" lon="-8.393092793781634"><ele>344.42857142857144</ele><time>2026-04-05T18:12:48Z</time></trkpt><trkpt lat="42.5320168408307" lon="-8.392994243830314"><ele>344.8571428571429</ele><time>2026-04-05T18:12:49Z</time></trkpt><trkpt lat="42.53201910748744" lon="-8.392891835301764"><ele>345.28571428571433</ele><time>2026-04-05T18:12:50Z</time></trkpt><trkpt lat="42.53202533345666" lon="-8.392793546343537"><ele>345.7142857142857</ele><time>2026-04-05T18:12:51Z</time></trkpt><trkpt lat="42.53202900202708" lon="-8.392695063502243"><ele>346.1428571428571</ele><time>2026-04-05T18:12:52Z</time></trkpt><trkpt lat="42.53202997362488" lon="-8.392600010508982"><ele>346.5714285714286</ele><time>2026-04-05T18:12:53Z</time></trkpt><trkpt lat="42.532014189384725" lon="-8.392509712455526"><ele>347.0</ele><time>2026-04-05T18:12:54Z</time></trkpt><trkpt lat="42.5320113286106" lon="-8.39241353914996"><ele>347.0</ele><time>2026-04-05T18:12:55Z</time></trkpt><trkpt lat="42.532004261714754" lon="-8.392307609283536"><ele>347.0</ele><time>2026-04-05T18:12:56Z</time></trkpt><trkpt lat="42.53199860235662" lon="-8.392207766733492"><ele>347.0</ele><time>2026-04-05T18:12:57Z</time></trkpt><trkpt lat="42.53199245563307" lon="-8.39209932606694"><ele>347.0</ele><time>2026-04-05T18:12:58Z</time></trkpt><trkpt lat="42.53198633829255" lon="-8.391991403788191"><ele>347.0</ele><time>2026-04-05T18:12:59Z</time></trkpt><trkpt lat="42.53197651276942" lon="-8.391882659194048"><ele>347.0</ele><time>2026-04-05T18:13:00Z</time></trkpt><trkpt lat="42.53196664405459" lon="-8.391774874819948"><ele>348.6</ele><time>2026-04-05T18:13:01Z</time></trkpt><trkpt lat="42.531957100041886" lon="-8.391670636785586"><ele>350.20000000000005</ele><time>2026-04-05T18:13:02Z</time></trkpt><trkpt lat="42.53194575788033" lon="-8.391552321727636"><ele>351.8</ele><time>2026-04-05T18:13:03Z</time></trkpt><trkpt lat="42.531931540886276" lon="-8.391405179929317"><ele>353.4</ele><time>2026-04-05T18:13:04Z</time></trkpt><trkpt lat="42.53191750976541" lon="-8.391259961654132"><ele>355.0</ele><time>2026-04-05T18:13:05Z</time></trkpt><trkpt lat="42.531905717324726" lon="-8.391127984231867"><ele>355.2</ele><time>2026-04-05T18:13:05.999Z</time></trkpt><trkpt lat="42.53189389042071" lon="-8.390988757528604"><ele>355.4</ele><time>2026-04-05T18:13:06.999Z</time></trkpt><trkpt lat="42.531886642011784" lon="-8.390842274825006"><ele>355.6</ele><time>2026-04-05T18:13:07.999Z</time></trkpt><trkpt lat="42.53188451525225" lon="-8.390687272789728"><ele>355.8</ele><time>2026-04-05T18:13:08.999Z</time></trkpt><trkpt lat="42.53188757329335" lon="-8.390543396270003"><ele>356.0</ele><time>2026-04-05T18:13:09.999Z</time></trkpt><trkpt lat="42.53189763099065" lon="-8.390412518046633"><ele>356.0</ele><time>2026-04-05T18:13:10.999Z</time></trkpt><trkpt lat="42.53193316855374" lon="-8.390281946721826"><ele>356.0</ele><time>2026-04-05T18:13:11.999Z</time></trkpt><trkpt lat="42.531991025847994" lon="-8.390162272972464"><ele>356.0</ele><time>2026-04-05T18:13:12.999Z</time></trkpt><trkpt lat="42.53204106250807" lon="-8.390031392242062"><ele>356.0</ele><time>2026-04-05T18:13:13.999Z</time></trkpt><trkpt lat="42.53209028000728" lon="-8.389900922951657"><ele>356.0</ele><time>2026-04-05T18:13:14.999Z</time></trkpt><trkpt lat="42.532135481590366" lon="-8.389770940200734"><ele>358.6</ele><time>2026-04-05T18:13:15.999Z</time></trkpt><trkpt lat="42.53218227050095" lon="-8.389637981877096"><ele>361.20000000000005</ele><time>2026-04-05T18:13:16.999Z</time></trkpt><trkpt lat="42.53222832493006" lon="-8.389507025315769"><ele>363.79999999999995</ele><time>2026-04-05T18:13:17.999Z</time></trkpt><trkpt lat="42.532278630099924" lon="-8.389379086613149"><ele>366.4</ele><time>2026-04-05T18:13:18.999Z</time></trkpt><trkpt lat="42.532325284143724" lon="-8.389241784283817"><ele>369.0</ele><time>2026-04-05T18:13:19.999Z</time></trkpt><trkpt lat="42.53237652399272" lon="-8.389097672111994"><ele>369.0</ele><time>2026-04-05T18:13:20.999Z</time></trkpt><trkpt lat="42.53243059356998" lon="-8.38895093282732"><ele>369.0</ele><time>2026-04-05T18:13:21.999Z</time></trkpt><trkpt lat="42.532487279807384" lon="-8.388800725554738"><ele>369.0</ele><time>2026-04-05T18:13:22.999Z</time></trkpt><trkpt lat="42.53254528790856" lon="-8.388640233206862"><ele>369.0</ele><time>2026-04-05T18:13:23.999Z</time></trkpt><trkpt lat="42.53260137601072" lon="-8.388491868203793"><ele>368.5</ele><time>2026-04-05T18:13:24.999Z</time></trkpt><trkpt lat="42.532658141012874" lon="-8.388340535626003"><ele>368.0</ele><time>2026-04-05T18:13:25.999Z</time></trkpt><trkpt lat="42.532723236188765" lon="-8.388184140924086"><ele>367.5</ele><time>2026-04-05T18:13:26.999Z</time></trkpt><trkpt lat="42.53278842307699" lon="-8.388023027765932"><ele>367.0</ele><time>2026-04-05T18:13:27.999Z</time></trkpt><trkpt lat="42.532860130259415" lon="-8.387864453510051"><ele>371.0</ele><time>2026-04-05T18:13:28.999Z</time></trkpt><trkpt lat="42.53293061216457" lon="-8.387713134914023"><ele>375.0</ele><time>2026-04-05T18:13:29.999Z</time></trkpt><trkpt lat="42.5329945833212" lon="-8.387566731426915"><ele>379.0</ele><time>2026-04-05T18:13:30.999Z</time></trkpt><trkpt lat="42.53305817665523" lon="-8.387429503238993"><ele>383.0</ele><time>2026-04-05T18:13:31.999Z</time></trkpt><trkpt lat="42.53311680721559" lon="-8.387299189659183"><ele>382.25</ele><time>2026-04-05T18:13:32.999Z</time></trkpt><trkpt lat="42.53317441090675" lon="-8.387162175175472"><ele>381.5</ele><time>2026-04-05T18:13:33.999Z</time></trkpt><trkpt lat="42.53325163680161" lon="-8.387019827079666"><ele>380.75</ele><time>2026-04-05T18:13:34.999Z</time></trkpt><trkpt lat="42.533344306166825" lon="-8.38687778206706"><ele>380.0</ele><time>2026-04-05T18:13:35.999Z</time></trkpt><trkpt lat="42.53343832496206" lon="-8.38674844551736"><ele>380.0</ele><time>2026-04-05T18:13:36.999Z</time></trkpt><trkpt lat="42.533520954894" lon="-8.386625849290933"><ele>380.0</ele><time>2026-04-05T18:13:37.999Z</time></trkpt><trkpt lat="42.5335885305981" lon="-8.386513301459864"><ele>380.0</ele><time>2026-04-05T18:13:38.999Z</time></trkpt><trkpt lat="42.53364780412249" lon="-8.38637664519405"><ele>380.0</ele><time>2026-04-05T18:13:39.999Z</time></trkpt><trkpt lat="42.53368555774136" lon="-8.386215278694987"><ele>379.5</ele><time>2026-04-05T18:13:40.999Z</time></trkpt><trkpt lat="42.53368557135048" lon="-8.386033565595778"><ele>379.0</ele><time>2026-04-05T18:13:41.999Z</time></trkpt><trkpt lat="42.53368305463821" lon="-8.385843892503104"><ele>378.5</ele><time>2026-04-05T18:13:42.999Z</time></trkpt><trkpt lat="42.533685152481205" lon="-8.385664077493876"><ele>378.0</ele><time>2026-04-05T18:13:43.999Z</time></trkpt><trkpt lat="42.53367942427041" lon="-8.385486253031221"><ele>377.75</ele><time>2026-04-05T18:13:44.999Z</time></trkpt><trkpt lat="42.533721761482674" lon="-8.385323897073262"><ele>377.5</ele><time>2026-04-05T18:13:45.999Z</time></trkpt><trkpt lat="42.533762917339246" lon="-8.385155532020006"><ele>377.25</ele><time>2026-04-05T18:13:46.999Z</time></trkpt><trkpt lat="42.533816692850145" lon="-8.38498897862992"><ele>377.0</ele><time>2026-04-05T18:13:47.999Z</time></trkpt><trkpt lat="42.533884915763025" lon="-8.384821113918562"><ele>382.0</ele><time>2026-04-05T18:13:48.999Z</time></trkpt><trkpt lat="42.533955762479216" lon="-8.384651588523809"><ele>387.0</ele><time>2026-04-05T18:13:49.999Z</time></trkpt><trkpt lat="42.534032929356364" lon="-8.38447693710246"><ele>392.0</ele><time>2026-04-05T18:13:50.999Z</time></trkpt><trkpt lat="42.534110354704815" lon="-8.384302462027698"><ele>397.0</ele><time>2026-04-05T18:13:51.999Z</time></trkpt><trkpt lat="42.53418938947593" lon="-8.384116985528115"><ele>397.0</ele><time>2026-04-05T18:13:52.999Z</time></trkpt><trkpt lat="42.534269479917896" lon="-8.383925092238496"><ele>397.0</ele><time>2026-04-05T18:13:53.999Z</time></trkpt><trkpt lat="42.534344093267926" lon="-8.383723269726808"><ele>397.0</ele><time>2026-04-05T18:13:54.999Z</time></trkpt><trkpt lat="42.53441629550147" lon="-8.383514735325825"><ele>394.0</ele><time>2026-04-05T18:13:55.999Z</time></trkpt><trkpt lat="42.534476226999466" lon="-8.383293515178822"><ele>391.0</ele><time>2026-04-05T18:13:56.999Z</time></trkpt><trkpt lat="42.53453246135673" lon="-8.383065354260449"><ele>388.0</ele><time>2026-04-05T18:13:57.999Z</time></trkpt><trkpt lat="42.53459235585894" lon="-8.38284038778536"><ele>394.6666666666667</ele><time>2026-04-05T18:13:58.999Z</time></trkpt><trkpt lat="42.534653571969386" lon="-8.38261614638339"><ele>401.33333333333337</ele><time>2026-04-05T18:13:59.999Z</time></trkpt><trkpt lat="42.5347156631182" lon="-8.382386084078675"><ele>408.0</ele><time>2026-04-05T18:14:00.999Z</time></trkpt><trkpt lat="42.53478455894241" lon="-8.382155505653596"><ele>408.0</ele><time>2026-04-05T18:14:01.999Z</time></trkpt><trkpt lat="42.53484730583383" lon="-8.381921023499908"><ele>408.0</ele><time>2026-04-05T18:14:02.999Z</time></trkpt><trkpt lat="42.53491342710161" lon="-8.381688121199153"><ele>408.0</ele><time>2026-04-05T18:14:03.999Z</time></trkpt><trkpt lat="42.53497372717198" lon="-8.381451764196715"><ele>406.33333333333337</ele><time>2026-04-05T18:14:04.999Z</time></trkpt><trkpt lat="42.5350345363756" lon="-8.381213529676426"><ele>404.6666666666667</ele><time>2026-04-05T18:14:05.999Z</time></trkpt><trkpt lat="42.53510265629222" lon="-8.380985684151526"><ele>403.0</ele><time>2026-04-05T18:14:06.999Z</time></trkpt><trkpt lat="42.53518420678057" lon="-8.380760433213844"><ele>403.0</ele><time>2026-04-05T18:14:07.999Z</time></trkpt><trkpt lat="42.53527684157114" lon="-8.38053773769792"><ele>403.0</ele><time>2026-04-05T18:14:08.999Z</time></trkpt><trkpt lat="42.53538045413608" lon="-8.380313321010378"><ele>403.0</ele><time>2026-04-05T18:14:10Z</time></trkpt><trkpt lat="42.53548633937611" lon="-8.380097815657443"><ele>407.6666666666667</ele><time>2026-04-05T18:14:11Z</time></trkpt><trkpt lat="42.535599494687425" lon="-8.37988825658255"><ele>412.33333333333337</ele><time>2026-04-05T18:14:12Z</time></trkpt><trkpt lat="42.53572128775973" lon="-8.379683495122244"><ele>417.0</ele><time>2026-04-05T18:14:13Z</time></trkpt><trkpt lat="42.53585072635871" lon="-8.379488803917134"><ele>417.0</ele><time>2026-04-05T18:14:14Z</time></trkpt><trkpt lat="42.535985978051556" lon="-8.379302609421307"><ele>417.0</ele><time>2026-04-05T18:14:15Z</time></trkpt><trkpt lat="42.53612583427078" lon="-8.37912259754464"><ele>417.0</ele><time>2026-04-05T18:14:16Z</time></trkpt><trkpt lat="42.536270597919255" lon="-8.378943392060503"><ele>419.66666666666663</ele><time>2026-04-05T18:14:17Z</time></trkpt><trkpt lat="42.53641771509937" lon="-8.378771313281824"><ele>422.3333333333333</ele><time>2026-04-05T18:14:18Z</time></trkpt><trkpt lat="42.53657513211997" lon="-8.37860549551966"><ele>425.0</ele><time>2026-04-05T18:14:19Z</time></trkpt><trkpt lat="42.5367340783466" lon="-8.378449423775958"><ele>425.0</ele><time>2026-04-05T18:14:20Z</time></trkpt><trkpt lat="42.536894049525834" lon="-8.378289860169259"><ele>425.0</ele><time>2026-04-05T18:14:21Z</time></trkpt><trkpt lat="42.53705168508819" lon="-8.378120014892785"><ele>425.0</ele><time>2026-04-05T18:14:22Z</time></trkpt><trkpt lat="42.537206843676294" lon="-8.377955284171524"><ele>427.66666666666663</ele><time>2026-04-05T18:14:23Z</time></trkpt><trkpt lat="42.53735743041546" lon="-8.377780048781466"><ele>430.33333333333337</ele><time>2026-04-05T18:14:24Z</time></trkpt><trkpt lat="42.537507196815426" lon="-8.37759810563604"><ele>433.0</ele><time>2026-04-05T18:14:25Z</time></trkpt><trkpt lat="42.537653870003425" lon="-8.377406135833219"><ele>433.0</ele><time>2026-04-05T18:14:26Z</time></trkpt><trkpt lat="42.53780265188683" lon="-8.377232977925798"><ele>433.0</ele><time>2026-04-05T18:14:27Z</time></trkpt><trkpt lat="42.537956148598326" lon="-8.37705001183784"><ele>433.0</ele><time>2026-04-05T18:14:28Z</time></trkpt><trkpt lat="42.53810791690487" lon="-8.376866572432315"><ele>434.33333333333337</ele><time>2026-04-05T18:14:29Z</time></trkpt><trkpt lat="42.538259018349684" lon="-8.37669115876312"><ele>435.66666666666663</ele><time>2026-04-05T18:14:30Z</time></trkpt><trkpt lat="42.538423152111385" lon="-8.37652088099607"><ele>437.0</ele><time>2026-04-05T18:14:31Z</time></trkpt><trkpt lat="42.538577650884505" lon="-8.376361682593007"><ele>439.66666666666663</ele><time>2026-04-05T18:14:32Z</time></trkpt><trkpt lat="42.53873983525529" lon="-8.376197288079394"><ele>442.33333333333337</ele><time>2026-04-05T18:14:33Z</time></trkpt><trkpt lat="42.538902469761744" lon="-8.376029569319288"><ele>445.0</ele><time>2026-04-05T18:14:34Z</time></trkpt><trkpt lat="42.53906380716982" lon="-8.375867351828223"><ele>445.0</ele><time>2026-04-05T18:14:35Z</time></trkpt><trkpt lat="42.539223346277865" lon="-8.375697867186064"><ele>445.0</ele><time>2026-04-05T18:14:36Z</time></trkpt><trkpt lat="42.539382639934615" lon="-8.375520106521623"><ele>445.0</ele><time>2026-04-05T18:14:37Z</time></trkpt><trkpt lat="42.53953170245731" lon="-8.375335276705519"><ele>448.6666666666667</ele><time>2026-04-05T18:14:38Z</time></trkpt><trkpt lat="42.539673848578644" lon="-8.375139191863173"><ele>452.33333333333337</ele><time>2026-04-05T18:14:39Z</time></trkpt><trkpt lat="42.53980758851127" lon="-8.374931162636516"><ele>456.0</ele><time>2026-04-05T18:14:40Z</time></trkpt><trkpt lat="42.53993791669329" lon="-8.374714423424635"><ele>452.66666666666663</ele><time>2026-04-05T18:14:41Z</time></trkpt><trkpt lat="42.540062740560224" lon="-8.374493851157085"><ele>449.3333333333333</ele><time>2026-04-05T18:14:42Z</time></trkpt><trkpt lat="42.540182635011796" lon="-8.37427341109311"><ele>446.0</ele><time>2026-04-05T18:14:43Z</time></trkpt><trkpt lat="42.54028844063524" lon="-8.37403882444179"><ele>451.0</ele><time>2026-04-05T18:14:44Z</time></trkpt><trkpt lat="42.5403987939088" lon="-8.373810963766518"><ele>456.0</ele><time>2026-04-05T18:14:45Z</time></trkpt><trkpt lat="42.54050693759672" lon="-8.373572279763847"><ele>461.0</ele><time>2026-04-05T18:14:46Z</time></trkpt><trkpt lat="42.54061636937469" lon="-8.373342887378548"><ele>461.0</ele><time>2026-04-05T18:14:47Z</time></trkpt><trkpt lat="42.540724317206006" lon="-8.37311418780609"><ele>461.0</ele><time>2026-04-05T18:14:48Z</time></trkpt><trkpt lat="42.54083066922142" lon="-8.372887144591362"><ele>461.0</ele><time>2026-04-05T18:14:49Z</time></trkpt><trkpt lat="42.540935127136684" lon="-8.372645942795877"><ele>457.3333333333333</ele><time>2026-04-05T18:14:50Z</time></trkpt><trkpt lat="42.54102905712326" lon="-8.37241157021618"><ele>453.66666666666663</ele><time>2026-04-05T18:14:51Z</time></trkpt><trkpt lat="42.541121478305605" lon="-8.372192057648757"><ele>450.0</ele><time>2026-04-05T18:14:52Z</time></trkpt><trkpt lat="42.541202620665004" lon="-8.371954665991224"><ele>458.0</ele><time>2026-04-05T18:14:53Z</time></trkpt><trkpt lat="42.54126282101681" lon="-8.371712847610986"><ele>466.0</ele><time>2026-04-05T18:14:54Z</time></trkpt><trkpt lat="42.54129973208225" lon="-8.371454616313448"><ele>474.0</ele><time>2026-04-05T18:14:55Z</time></trkpt><trkpt lat="42.54131163745171" lon="-8.371194007451287"><ele>476.33333333333337</ele><time>2026-04-05T18:14:56Z</time></trkpt><trkpt lat="42.541307973527196" lon="-8.370935339964683"><ele>478.6666666666667</ele><time>2026-04-05T18:14:57Z</time></trkpt><trkpt lat="42.54128362385365" lon="-8.37067940450506"><ele>481.0</ele><time>2026-04-05T18:14:58Z</time></trkpt><trkpt lat="42.541242248364725" lon="-8.370420808134467"><ele>477.6666666666667</ele><time>2026-04-05T18:14:59Z</time></trkpt><trkpt lat="42.54117594866672" lon="-8.370177010375926"><ele>474.33333333333337</ele><time>2026-04-05T18:15:00Z</time></trkpt><trkpt lat="42.54109463404351" lon="-8.3699426311458"><ele>471.0</ele><time>2026-04-05T18:15:01Z</time></trkpt><trkpt lat="42.540990313605406" lon="-8.369717760876101"><ele>474.66666666666663</ele><time>2026-04-05T18:15:02Z</time></trkpt><trkpt lat="42.54087027498633" lon="-8.369509508557817"><ele>478.3333333333333</ele><time>2026-04-05T18:15:03Z</time></trkpt><trkpt lat="42.54073973748661" lon="-8.369316606059543"><ele>482.0</ele><time>2026-04-05T18:15:04Z</time></trkpt><trkpt lat="42.54059853952674" lon="-8.369132029207117"><ele>482.0</ele><time>2026-04-05T18:15:05Z</time></trkpt><trkpt lat="42.54044738844649" lon="-8.368958382926634"><ele>482.0</ele><time>2026-04-05T18:15:06Z</time></trkpt><trkpt lat="42.540292327254605" lon="-8.36879935082887"><ele>482.0</ele><time>2026-04-05T18:15:07Z</time></trkpt><trkpt lat="42.54013922883484" lon="-8.368636400118602"><ele>485.66666666666663</ele><time>2026-04-05T18:15:08Z</time></trkpt><trkpt lat="42.53997653408451" lon="-8.368474849019805"><ele>489.33333333333337</ele><time>2026-04-05T18:15:08.999Z</time></trkpt><trkpt lat="42.53981474005234" lon="-8.368320074047157"><ele>493.0</ele><time>2026-04-05T18:15:09.999Z</time></trkpt><trkpt lat="42.53964771377246" lon="-8.368165227510394"><ele>494.6666666666667</ele><time>2026-04-05T18:15:10.999Z</time></trkpt><trkpt lat="42.53947724921588" lon="-8.368016128144188"><ele>496.33333333333337</ele><time>2026-04-05T18:15:11.999Z</time></trkpt><trkpt lat="42.53931060886944" lon="-8.367860380969285"><ele>498.0</ele><time>2026-04-05T18:15:12.999Z</time></trkpt><trkpt lat="42.53915561092448" lon="-8.367684634328594"><ele>498.0</ele><time>2026-04-05T18:15:13.999Z</time></trkpt><trkpt lat="42.53902849548207" lon="-8.367470920980024"><ele>498.0</ele><time>2026-04-05T18:15:14.999Z</time></trkpt><trkpt lat="42.53892175635698" lon="-8.36723821667336"><ele>498.0</ele><time>2026-04-05T18:15:15.999Z</time></trkpt><trkpt lat="42.53884678672283" lon="-8.366978661166574"><ele>500.66666666666663</ele><time>2026-04-05T18:15:16.999Z</time></trkpt><trkpt lat="42.5387974958387" lon="-8.366710584908994"><ele>503.3333333333333</ele><time>2026-04-05T18:15:17.999Z</time></trkpt><trkpt lat="42.53876708444846" lon="-8.366435348505247"><ele>506.0</ele><time>2026-04-05T18:15:18.999Z</time></trkpt><trkpt lat="42.53874890231525" lon="-8.366153640495872"><ele>509.0</ele><time>2026-04-05T18:15:19.999Z</time></trkpt><trkpt lat="42.538733576482464" lon="-8.365889044763229"><ele>512.0</ele><time>2026-04-05T18:15:20.999Z</time></trkpt><trkpt lat="42.53872827949709" lon="-8.365606798063766"><ele>515.0</ele><time>2026-04-05T18:15:21.999Z</time></trkpt><trkpt lat="42.53874214606217" lon="-8.36533610042435"><ele>515.0</ele><time>2026-04-05T18:15:22.999Z</time></trkpt><trkpt lat="42.5387925028688" lon="-8.365071272366308"><ele>515.0</ele><time>2026-04-05T18:15:23.999Z</time></trkpt><trkpt lat="42.53886174524697" lon="-8.364813694723308"><ele>515.0</ele><time>2026-04-05T18:15:24.999Z</time></trkpt><trkpt lat="42.53896038681205" lon="-8.364575454390943"><ele>512.0</ele><time>2026-04-05T18:15:25.999Z</time></trkpt><trkpt lat="42.53908349552184" lon="-8.364354847220437"><ele>509.0</ele><time>2026-04-05T18:15:26.999Z</time></trkpt><trkpt lat="42.53921859841666" lon="-8.364151000718866"><ele>506.0</ele><time>2026-04-05T18:15:27.999Z</time></trkpt><trkpt lat="42.53936876104732" lon="-8.36396405055496"><ele>509.3333333333333</ele><time>2026-04-05T18:15:28.999Z</time></trkpt><trkpt lat="42.53951986556723" lon="-8.363775551730283"><ele>512.6666666666666</ele><time>2026-04-05T18:15:29.999Z</time></trkpt><trkpt lat="42.539664336625826" lon="-8.363590813797465"><ele>516.0</ele><time>2026-04-05T18:15:30.999Z</time></trkpt><trkpt lat="42.53981384551655" lon="-8.36341042973267"><ele>516.0</ele><time>2026-04-05T18:15:31.999Z</time></trkpt><trkpt lat="42.53996370720714" lon="-8.363215023201732"><ele>516.0</ele><time>2026-04-05T18:15:32.999Z</time></trkpt><trkpt lat="42.54010464199609" lon="-8.363014708353335"><ele>516.0</ele><time>2026-04-05T18:15:33.999Z</time></trkpt><trkpt lat="42.54024377458028" lon="-8.36279892541052"><ele>514.6666666666666</ele><time>2026-04-05T18:15:34.999Z</time></trkpt><trkpt lat="42.5403785665512" lon="-8.362570541634888"><ele>513.3333333333333</ele><time>2026-04-05T18:15:35.999Z</time></trkpt><trkpt lat="42.54050525701376" lon="-8.36232378855416"><ele>512.0</ele><time>2026-04-05T18:15:36.999Z</time></trkpt><trkpt lat="42.540640300858726" lon="-8.362077764299867"><ele>512.0</ele><time>2026-04-05T18:15:37.999Z</time></trkpt><trkpt lat="42.54078206613083" lon="-8.36183732838695"><ele>512.0</ele><time>2026-04-05T18:15:38.999Z</time></trkpt><trkpt lat="42.54094436052285" lon="-8.361602981311451"><ele>511.0</ele><time>2026-04-05T18:15:39.999Z</time></trkpt><trkpt lat="42.54108882525399" lon="-8.361346671062643"><ele>510.0</ele><time>2026-04-05T18:15:40.999Z</time></trkpt><trkpt lat="42.54122747486222" lon="-8.361079540383976"><ele>510.0</ele><time>2026-04-05T18:15:41.999Z</time></trkpt><trkpt lat="42.54134684807408" lon="-8.360796400695609"><ele>510.0</ele><time>2026-04-05T18:15:42.999Z</time></trkpt><trkpt lat="42.54144436768394" lon="-8.360493995976535"><ele>507.5</ele><time>2026-04-05T18:15:43.999Z</time></trkpt><trkpt lat="42.5415125853369" lon="-8.360187300359414"><ele>505.0</ele><time>2026-04-05T18:15:44.999Z</time></trkpt><trkpt lat="42.541545523241254" lon="-8.359866173151872"><ele>507.5</ele><time>2026-04-05T18:15:45.999Z</time></trkpt><trkpt lat="42.54156720432063" lon="-8.359552160938671"><ele>510.0</ele><time>2026-04-05T18:15:46.999Z</time></trkpt><trkpt lat="42.541586589003884" lon="-8.359235943476662"><ele>510.0</ele><time>2026-04-05T18:15:47.999Z</time></trkpt><trkpt lat="42.5416176489683" lon="-8.358924785152725"><ele>510.0</ele><time>2026-04-05T18:15:48.999Z</time></trkpt><trkpt lat="42.54167878835192" lon="-8.358622819475135"><ele>509.0</ele><time>2026-04-05T18:15:49.999Z</time></trkpt><trkpt lat="42.54174514664075" lon="-8.358328143858634"><ele>508.0</ele><time>2026-04-05T18:15:50.999Z</time></trkpt><trkpt lat="42.541842826883304" lon="-8.358050768111612"><ele>506.0</ele><time>2026-04-05T18:15:51.999Z</time></trkpt><trkpt lat="42.54195377349572" lon="-8.357787176293384"><ele>504.0</ele><time>2026-04-05T18:15:52.999Z</time></trkpt><trkpt lat="42.54208276007782" lon="-8.357533386031438"><ele>507.66666666666663</ele><time>2026-04-05T18:15:53.999Z</time></trkpt><trkpt lat="42.54221039976498" lon="-8.357286951449018"><ele>511.3333333333333</ele><time>2026-04-05T18:15:54.999Z</time></trkpt><trkpt lat="42.54234208290435" lon="-8.357041086641967"><ele>515.0</ele><time>2026-04-05T18:15:55.999Z</time></trkpt><trkpt lat="42.54246529134407" lon="-8.356792302738048"><ele>516.3333333333333</ele><time>2026-04-05T18:15:56.999Z</time></trkpt><trkpt lat="42.5425832061338" lon="-8.356544455505789"><ele>517.6666666666666</ele><time>2026-04-05T18:15:57.999Z</time></trkpt><trkpt lat="42.54270426137127" lon="-8.356296058905238"><ele>519.0</ele><time>2026-04-05T18:15:58.999Z</time></trkpt><trkpt lat="42.542827915505534" lon="-8.356051867112873"><ele>518.6666666666666</ele><time>2026-04-05T18:15:59.999Z</time></trkpt><trkpt lat="42.54294340897051" lon="-8.35581614093619"><ele>518.3333333333333</ele><time>2026-04-05T18:16:00.999Z</time></trkpt><trkpt lat="42.54304862126519" lon="-8.355592334784722"><ele>518.0</ele><time>2026-04-05T18:16:01.999Z</time></trkpt><trkpt lat="42.54311926157203" lon="-8.35537574278428"><ele>520.0</ele><time>2026-04-05T18:16:02.999Z</time></trkpt><trkpt lat="42.543188718489" lon="-8.355168588529743"><ele>522.0</ele><time>2026-04-05T18:16:03.999Z</time></trkpt><trkpt lat="42.54324363233835" lon="-8.35498222869521"><ele>524.0</ele><time>2026-04-05T18:16:04.999Z</time></trkpt><trkpt lat="42.543291840337325" lon="-8.354791915926665"><ele>525.3333333333333</ele><time>2026-04-05T18:16:05.999Z</time></trkpt><trkpt lat="42.54333025793648" lon="-8.35459459296512"><ele>526.6666666666666</ele><time>2026-04-05T18:16:06.999Z</time></trkpt><trkpt lat="42.54336403581051" lon="-8.35438348262152"><ele>528.0</ele><time>2026-04-05T18:16:07.999Z</time></trkpt><trkpt lat="42.543391519680924" lon="-8.354167251080638"><ele>528.0</ele><time>2026-04-05T18:16:08.999Z</time></trkpt><trkpt lat="42.5434070801758" lon="-8.353942748073946"><ele>528.0</ele><time>2026-04-05T18:16:09.999Z</time></trkpt><trkpt lat="42.543418276517706" lon="-8.35370989252632"><ele>528.0</ele><time>2026-04-05T18:16:10.999Z</time></trkpt><trkpt lat="42.54342916141638" lon="-8.353471934020817"><ele>529.3333333333334</ele><time>2026-04-05T18:16:11.999Z</time></trkpt><trkpt lat="42.543439862005144" lon="-8.353233044404867"><ele>530.6666666666667</ele><time>2026-04-05T18:16:12.999Z</time></trkpt><trkpt lat="42.543451560704774" lon="-8.352982436388658"><ele>532.0</ele><time>2026-04-05T18:16:13.999Z</time></trkpt><trkpt lat="42.543470747666596" lon="-8.352730056636865"><ele>532.3333333333334</ele><time>2026-04-05T18:16:14.999Z</time></trkpt><trkpt lat="42.54349567992071" lon="-8.352474557218041"><ele>532.6666666666666</ele><time>2026-04-05T18:16:16Z</time></trkpt><trkpt lat="42.54352539901058" lon="-8.352216232350768"><ele>533.0</ele><time>2026-04-05T18:16:17Z</time></trkpt><trkpt lat="42.543559854849924" lon="-8.351958422215365"><ele>534.3333333333333</ele><time>2026-04-05T18:16:18Z</time></trkpt><trkpt lat="42.54359468139871" lon="-8.35172597479965"><ele>535.6666666666666</ele><time>2026-04-05T18:16:19Z</time></trkpt><trkpt lat="42.54362943033706" lon="-8.351513837215759"><ele>537.0</ele><time>2026-04-05T18:16:20Z</time></trkpt><trkpt lat="42.543660341575084" lon="-8.351315406336711"><ele>536.5</ele><time>2026-04-05T18:16:21Z</time></trkpt><trkpt lat="42.54368686331556" lon="-8.351117970247662"><ele>536.0</ele><time>2026-04-05T18:16:22Z</time></trkpt><trkpt lat="42.54370778504568" lon="-8.350924514319367"><ele>535.5</ele><time>2026-04-05T18:16:23Z</time></trkpt><trkpt lat="42.54372358310945" lon="-8.35072665266472"><ele>535.0</ele><time>2026-04-05T18:16:24Z</time></trkpt><trkpt lat="42.54374879973057" lon="-8.350532110271335"><ele>535.0</ele><time>2026-04-05T18:16:25Z</time></trkpt><trkpt lat="42.543748535550655" lon="-8.350337035963113"><ele>535.0</ele><time>2026-04-05T18:16:26Z</time></trkpt><trkpt lat="42.54373775170369" lon="-8.350137192115664"><ele>535.0</ele><time>2026-04-05T18:16:27Z</time></trkpt><trkpt lat="42.54371831964649" lon="-8.349925785679174"><ele>535.0</ele><time>2026-04-05T18:16:28Z</time></trkpt><trkpt lat="42.543688957100585" lon="-8.349695469848786"><ele>535.3333333333334</ele><time>2026-04-05T18:16:29Z</time></trkpt><trkpt lat="42.5436525076199" lon="-8.349460442761142"><ele>535.6666666666666</ele><time>2026-04-05T18:16:30Z</time></trkpt><trkpt lat="42.543580956940495" lon="-8.34923625799859"><ele>536.0</ele><time>2026-04-05T18:16:31Z</time></trkpt><trkpt lat="42.54351210610836" lon="-8.348996891254012"><ele>535.6666666666666</ele><time>2026-04-05T18:16:32Z</time></trkpt><trkpt lat="42.543444638746614" lon="-8.34876725970856"><ele>535.3333333333334</ele><time>2026-04-05T18:16:33Z</time></trkpt><trkpt lat="42.54338180966475" lon="-8.348555147782877"><ele>535.0</ele><time>2026-04-05T18:16:34Z</time></trkpt><trkpt lat="42.54332056916831" lon="-8.348348398938017"><ele>535.0</ele><time>2026-04-05T18:16:35Z</time></trkpt><trkpt lat="42.54325789013316" lon="-8.34812889532167"><ele>535.0</ele><time>2026-04-05T18:16:36Z</time></trkpt><trkpt lat="42.54320304068247" lon="-8.347905248436296"><ele>535.0</ele><time>2026-04-05T18:16:37Z</time></trkpt><trkpt lat="42.54316559564029" lon="-8.347668397703064"><ele>536.6666666666667</ele><time>2026-04-05T18:16:38Z</time></trkpt><trkpt lat="42.54312847006334" lon="-8.34742960341793"><ele>538.3333333333334</ele><time>2026-04-05T18:16:39Z</time></trkpt><trkpt lat="42.54308244058266" lon="-8.347157616100143"><ele>540.0</ele><time>2026-04-05T18:16:40Z</time></trkpt><trkpt lat="42.543076873836014" lon="-8.346927636005516"><ele>542.0</ele><time>2026-04-05T18:16:41Z</time></trkpt><trkpt lat="42.54305343018856" lon="-8.346682960639257"><ele>544.0</ele><time>2026-04-05T18:16:42Z</time></trkpt><trkpt lat="42.54302464152133" lon="-8.346431481037873"><ele>546.0</ele><time>2026-04-05T18:16:43Z</time></trkpt><trkpt lat="42.54300745835853" lon="-8.346181473073328"><ele>546.6666666666666</ele><time>2026-04-05T18:16:44Z</time></trkpt><trkpt lat="42.54298974904688" lon="-8.34592380987193"><ele>547.3333333333333</ele><time>2026-04-05T18:16:45Z</time></trkpt><trkpt lat="42.54297132777147" lon="-8.345665266933613"><ele>548.0</ele><time>2026-04-05T18:16:46Z</time></trkpt><trkpt lat="42.54295127827642" lon="-8.345395661950176"><ele>549.0</ele><time>2026-04-05T18:16:47Z</time></trkpt><trkpt lat="42.542931097504564" lon="-8.345130886394253"><ele>550.0</ele><time>2026-04-05T18:16:48Z</time></trkpt><trkpt lat="42.5429099330502" lon="-8.344863629438096"><ele>551.0</ele><time>2026-04-05T18:16:49Z</time></trkpt><trkpt lat="42.54290493234523" lon="-8.344600567915451"><ele>553.6666666666666</ele><time>2026-04-05T18:16:50Z</time></trkpt><trkpt lat="42.542888577292295" lon="-8.344326455733162"><ele>556.3333333333334</ele><time>2026-04-05T18:16:51Z</time></trkpt><trkpt lat="42.54285979590938" lon="-8.344060399660538"><ele>559.0</ele><time>2026-04-05T18:16:52Z</time></trkpt><trkpt lat="42.54287963897708" lon="-8.343800289858988"><ele>560.0</ele><time>2026-04-05T18:16:53Z</time></trkpt><trkpt lat="42.54290877957204" lon="-8.343550752808662"><ele>561.0</ele><time>2026-04-05T18:16:54Z</time></trkpt><trkpt lat="42.54296282278111" lon="-8.343299617896658"><ele>562.0</ele><time>2026-04-05T18:16:55Z</time></trkpt><trkpt lat="42.54302568505296" lon="-8.343053715838796"><ele>562.3333333333334</ele><time>2026-04-05T18:16:56Z</time></trkpt><trkpt lat="42.54308254916906" lon="-8.342828492513917"><ele>562.6666666666666</ele><time>2026-04-05T18:16:57Z</time></trkpt><trkpt lat="42.54309899020514" lon="-8.342608812714188"><ele>563.0</ele><time>2026-04-05T18:16:58Z</time></trkpt><trkpt lat="42.54310924736516" lon="-8.34236620558009"><ele>564.6666666666666</ele><time>2026-04-05T18:16:59Z</time></trkpt><trkpt lat="42.54309706871579" lon="-8.342108952519917"><ele>566.3333333333334</ele><time>2026-04-05T18:17:00Z</time></trkpt><trkpt lat="42.543062155916544" lon="-8.341858989601873"><ele>568.0</ele><time>2026-04-05T18:17:01Z</time></trkpt><trkpt lat="42.54300676666176" lon="-8.341620504840927"><ele>568.0</ele><time>2026-04-05T18:17:02Z</time></trkpt><trkpt lat="42.5429349342467" lon="-8.341399611409255"><ele>568.0</ele><time>2026-04-05T18:17:03Z</time></trkpt><trkpt lat="42.5428470219841" lon="-8.341194151881375"><ele>568.0</ele><time>2026-04-05T18:17:04Z</time></trkpt><trkpt lat="42.54274422404792" lon="-8.341004557383204"><ele>566.0</ele><time>2026-04-05T18:17:05Z</time></trkpt><trkpt lat="42.54262280861213" lon="-8.340821892066536"><ele>564.0</ele><time>2026-04-05T18:17:06Z</time></trkpt><trkpt lat="42.54248614161659" lon="-8.340667116594762"><ele>562.0</ele><time>2026-04-05T18:17:07Z</time></trkpt><trkpt lat="42.54233949261826" lon="-8.34052766538914"><ele>563.3333333333334</ele><time>2026-04-05T18:17:08Z</time></trkpt><trkpt lat="42.542186855149886" lon="-8.340396829347673"><ele>564.6666666666666</ele><time>2026-04-05T18:17:09Z</time></trkpt><trkpt lat="42.54202571882495" lon="-8.340277809314745"><ele>566.0</ele><time>2026-04-05T18:17:10Z</time></trkpt><trkpt lat="42.54185953821394" lon="-8.34013966916631"><ele>566.0</ele><time>2026-04-05T18:17:11Z</time></trkpt><trkpt lat="42.54168530664461" lon="-8.340038076827893"><ele>566.0</ele><time>2026-04-05T18:17:12Z</time></trkpt><trkpt lat="42.54151358644009" lon="-8.339911590177252"><ele>566.0</ele><time>2026-04-05T18:17:13Z</time></trkpt><trkpt lat="42.54135673131109" lon="-8.339748408476797"><ele>566.3333333333333</ele><time>2026-04-05T18:17:14Z</time></trkpt><trkpt lat="42.54118605259435" lon="-8.339610296716796"><ele>566.6666666666666</ele><time>2026-04-05T18:17:15Z</time></trkpt><trkpt lat="42.54103743220278" lon="-8.339415554346036"><ele>567.0</ele><time>2026-04-05T18:17:16Z</time></trkpt><trkpt lat="42.540883492038525" lon="-8.339222328163672"><ele>567.0</ele><time>2026-04-05T18:17:17Z</time></trkpt><trkpt lat="42.54072952565809" lon="-8.339031644906791"><ele>567.0</ele><time>2026-04-05T18:17:18Z</time></trkpt><trkpt lat="42.54059089405324" lon="-8.33881594714062"><ele>567.0</ele><time>2026-04-05T18:17:19Z</time></trkpt><trkpt lat="42.5404516111944" lon="-8.338599257497695"><ele>566.6666666666666</ele><time>2026-04-05T18:17:20Z</time></trkpt><trkpt lat="42.54031067402721" lon="-8.338383163720966"><ele>566.3333333333333</ele><time>2026-04-05T18:17:21Z</time></trkpt><trkpt lat="42.540172564783646" lon="-8.338171405869067"><ele>566.0</ele><time>2026-04-05T18:17:22Z</time></trkpt><trkpt lat="42.54004409302358" lon="-8.337974424834206"><ele>569.6666666666666</ele><time>2026-04-05T18:17:23Z</time></trkpt><trkpt lat="42.53992643981197" lon="-8.337794031478477"><ele>573.3333333333334</ele><time>2026-04-05T18:17:24Z</time></trkpt><trkpt lat="42.53981300397671" lon="-8.337618942635839"><ele>577.0</ele><time>2026-04-05T18:17:25Z</time></trkpt><trkpt lat="42.53970047200123" lon="-8.337444354838615"><ele>577.0</ele><time>2026-04-05T18:17:26Z</time></trkpt><trkpt lat="42.53958745481178" lon="-8.337264442954794"><ele>577.0</ele><time>2026-04-05T18:17:27Z</time></trkpt><trkpt lat="42.53947798600582" lon="-8.337069868972083"><ele>577.0</ele><time>2026-04-05T18:17:28Z</time></trkpt><trkpt lat="42.53937934923116" lon="-8.336860125343007"><ele>575.3333333333334</ele><time>2026-04-05T18:17:29Z</time></trkpt><trkpt lat="42.539300413252214" lon="-8.336633887131496"><ele>573.6666666666666</ele><time>2026-04-05T18:17:30Z</time></trkpt><trkpt lat="42.539239318205134" lon="-8.336393013312689"><ele>572.0</ele><time>2026-04-05T18:17:31Z</time></trkpt><trkpt lat="42.53920032531626" lon="-8.336137680506225"><ele>572.0</ele><time>2026-04-05T18:17:31.999Z</time></trkpt><trkpt lat="42.53918410627429" lon="-8.335875523306878"><ele>572.0</ele><time>2026-04-05T18:17:32.999Z</time></trkpt><trkpt lat="42.53918739207404" lon="-8.335608508857327"><ele>572.0</ele><time>2026-04-05T18:17:33.999Z</time></trkpt><trkpt lat="42.539214940903285" lon="-8.335349081985049"><ele>571.6666666666666</ele><time>2026-04-05T18:17:34.999Z</time></trkpt><trkpt lat="42.539264370160545" lon="-8.3350929725868"><ele>571.3333333333334</ele><time>2026-04-05T18:17:35.999Z</time></trkpt><trkpt lat="42.53935438660802" lon="-8.334857664671928"><ele>571.0</ele><time>2026-04-05T18:17:36.999Z</time></trkpt><trkpt lat="42.53943187562879" lon="-8.334614504412366"><ele>572.6666666666667</ele><time>2026-04-05T18:17:37.999Z</time></trkpt><trkpt lat="42.539556642774016" lon="-8.334409458999074"><ele>574.3333333333334</ele><time>2026-04-05T18:17:38.999Z</time></trkpt><trkpt lat="42.53968880872714" lon="-8.334210453245714"><ele>576.0</ele><time>2026-04-05T18:17:39.999Z</time></trkpt><trkpt lat="42.53983581201458" lon="-8.334025742989487"><ele>572.0</ele><time>2026-04-05T18:17:40.999Z</time></trkpt><trkpt lat="42.540006720168805" lon="-8.333859585237388"><ele>568.0</ele><time>2026-04-05T18:17:41.999Z</time></trkpt><trkpt lat="42.54018976696411" lon="-8.333705780692219"><ele>564.0</ele><time>2026-04-05T18:17:42.999Z</time></trkpt><trkpt lat="42.54038222095455" lon="-8.333552317736567"><ele>563.3333333333334</ele><time>2026-04-05T18:17:43.999Z</time></trkpt><trkpt lat="42.54056560810049" lon="-8.333394120619008"><ele>562.6666666666667</ele><time>2026-04-05T18:17:44.999Z</time></trkpt><trkpt lat="42.540726497468626" lon="-8.333214373502921"><ele>562.0</ele><time>2026-04-05T18:17:45.999Z</time></trkpt><trkpt lat="42.54087620898804" lon="-8.333039976657863"><ele>562.0</ele><time>2026-04-05T18:17:46.999Z</time></trkpt><trkpt lat="42.54101324419729" lon="-8.332846142353128"><ele>562.0</ele><time>2026-04-05T18:17:47.999Z</time></trkpt><trkpt lat="42.54113969489957" lon="-8.332634973038436"><ele>562.0</ele><time>2026-04-05T18:17:48.999Z</time></trkpt><trkpt lat="42.54125641974347" lon="-8.332403439154325"><ele>563.3333333333334</ele><time>2026-04-05T18:17:49.999Z</time></trkpt><trkpt lat="42.54135629001288" lon="-8.332155108774112"><ele>564.6666666666666</ele><time>2026-04-05T18:17:50.999Z</time></trkpt><trkpt lat="42.54144410046176" lon="-8.331893415793758"><ele>566.0</ele><time>2026-04-05T18:17:51.999Z</time></trkpt><trkpt lat="42.54151517596702" lon="-8.331614876761048"><ele>565.3333333333333</ele><time>2026-04-05T18:17:52.999Z</time></trkpt><trkpt lat="42.5415653151987" lon="-8.33132812903262"><ele>564.6666666666666</ele><time>2026-04-05T18:17:53.999Z</time></trkpt><trkpt lat="42.54159882095425" lon="-8.33103113832702"><ele>564.0</ele><time>2026-04-05T18:17:54.999Z</time></trkpt><trkpt lat="42.54161169221623" lon="-8.330719230874372"><ele>565.5</ele><time>2026-04-05T18:17:55.999Z</time></trkpt><trkpt lat="42.54160204706953" lon="-8.330410741778566"><ele>567.0</ele><time>2026-04-05T18:17:56.999Z</time></trkpt><trkpt lat="42.54156332261931" lon="-8.330103453875033"><ele>567.0</ele><time>2026-04-05T18:17:57.999Z</time></trkpt><trkpt lat="42.54150265800009" lon="-8.329803464680113"><ele>567.0</ele><time>2026-04-05T18:17:58.999Z</time></trkpt><trkpt lat="42.541426557081245" lon="-8.329518573003535"><ele>568.0</ele><time>2026-04-05T18:17:59.999Z</time></trkpt><trkpt lat="42.54134110264973" lon="-8.329265574495393"><ele>569.0</ele><time>2026-04-05T18:18:00.999Z</time></trkpt><trkpt lat="42.54124395377529" lon="-8.3290236377829"><ele>570.0</ele><time>2026-04-05T18:18:01.999Z</time></trkpt><trkpt lat="42.54113346297255" lon="-8.328789440303224"><ele>568.0</ele><time>2026-04-05T18:18:02.999Z</time></trkpt><trkpt lat="42.54100796065628" lon="-8.328565857479294"><ele>566.0</ele><time>2026-04-05T18:18:03.999Z</time></trkpt><trkpt lat="42.54086811618765" lon="-8.3283666321082"><ele>564.0</ele><time>2026-04-05T18:18:04.999Z</time></trkpt><trkpt lat="42.540712886991436" lon="-8.328181816439473"><ele>565.0</ele><time>2026-04-05T18:18:05.999Z</time></trkpt><trkpt lat="42.540547597878835" lon="-8.328005874271309"><ele>566.0</ele><time>2026-04-05T18:18:06.999Z</time></trkpt><trkpt lat="42.54038022554921" lon="-8.327835488136909"><ele>567.0</ele><time>2026-04-05T18:18:07.999Z</time></trkpt><trkpt lat="42.540208781479514" lon="-8.327663801397735"><ele>567.0</ele><time>2026-04-05T18:18:08.999Z</time></trkpt><trkpt lat="42.540046832892706" lon="-8.327500246976465"><ele>567.0</ele><time>2026-04-05T18:18:09.999Z</time></trkpt><trkpt lat="42.53989400504935" lon="-8.327333628875873"><ele>567.0</ele><time>2026-04-05T18:18:10.999Z</time></trkpt><trkpt lat="42.53975521154213" lon="-8.327159952507616"><ele>566.3333333333334</ele><time>2026-04-05T18:18:11.999Z</time></trkpt><trkpt lat="42.5396296156314" lon="-8.326977204804107"><ele>565.6666666666667</ele><time>2026-04-05T18:18:12.999Z</time></trkpt><trkpt lat="42.53951039290476" lon="-8.326781951175356"><ele>565.0</ele><time>2026-04-05T18:18:13.999Z</time></trkpt><trkpt lat="42.53939000653918" lon="-8.326572005051787"><ele>565.6666666666667</ele><time>2026-04-05T18:18:14.999Z</time></trkpt><trkpt lat="42.53927549655262" lon="-8.326361359860663"><ele>566.3333333333334</ele><time>2026-04-05T18:18:15.999Z</time></trkpt><trkpt lat="42.539155139993966" lon="-8.326137110621465"><ele>567.0</ele><time>2026-04-05T18:18:16.999Z</time></trkpt><trkpt lat="42.53903458772988" lon="-8.325914053061272"><ele>567.0</ele><time>2026-04-05T18:18:17.999Z</time></trkpt><trkpt lat="42.53891933914687" lon="-8.325704976415441"><ele>567.0</ele><time>2026-04-05T18:18:18.999Z</time></trkpt><trkpt lat="42.538807848689125" lon="-8.325500949671317"><ele>567.0</ele><time>2026-04-05T18:18:19.999Z</time></trkpt><trkpt lat="42.53870116513759" lon="-8.325301200466743"><ele>568.3333333333334</ele><time>2026-04-05T18:18:20.999Z</time></trkpt><trkpt lat="42.53859504124801" lon="-8.325098674618975"><ele>569.6666666666667</ele><time>2026-04-05T18:18:22Z</time></trkpt><trkpt lat="42.53849400175242" lon="-8.324905090740886"><ele>571.0</ele><time>2026-04-05T18:18:23Z</time></trkpt><trkpt lat="42.53839278024911" lon="-8.324712622288057"><ele>571.3333333333334</ele><time>2026-04-05T18:18:24Z</time></trkpt><trkpt lat="42.53828783940258" lon="-8.324518875526689"><ele>571.6666666666666</ele><time>2026-04-05T18:18:25Z</time></trkpt><trkpt lat="42.53817824548403" lon="-8.324316742429293"><ele>572.0</ele><time>2026-04-05T18:18:26Z</time></trkpt><trkpt lat="42.5380687999986" lon="-8.32410731244134"><ele>572.3333333333333</ele><time>2026-04-05T18:18:27Z</time></trkpt><trkpt lat="42.53795932443087" lon="-8.323885338580325"><ele>572.6666666666666</ele><time>2026-04-05T18:18:28Z</time></trkpt><trkpt lat="42.53787184507102" lon="-8.323648884814851"><ele>573.0</ele><time>2026-04-05T18:18:29Z</time></trkpt><trkpt lat="42.537773872270066" lon="-8.323415171258219"><ele>573.0</ele><time>2026-04-05T18:18:30Z</time></trkpt><trkpt lat="42.537701019522906" lon="-8.32317123667338"><ele>573.0</ele><time>2026-04-05T18:18:31Z</time></trkpt><trkpt lat="42.537637526595056" lon="-8.32291474268725"><ele>573.0</ele><time>2026-04-05T18:18:32Z</time></trkpt><trkpt lat="42.53758998015493" lon="-8.322639393017791"><ele>573.0</ele><time>2026-04-05T18:18:33Z</time></trkpt><trkpt lat="42.53756046999315" lon="-8.322359082382322"><ele>573.0</ele><time>2026-04-05T18:18:34Z</time></trkpt><trkpt lat="42.537545743487485" lon="-8.322070334136058"><ele>573.0</ele><time>2026-04-05T18:18:35Z</time></trkpt><trkpt lat="42.53755311294013" lon="-8.321777793731428"><ele>571.6666666666666</ele><time>2026-04-05T18:18:36Z</time></trkpt><trkpt lat="42.537570274944244" lon="-8.321484852570153"><ele>570.3333333333333</ele><time>2026-04-05T18:18:37Z</time></trkpt><trkpt lat="42.53760460459825" lon="-8.321194451935458"><ele>569.0</ele><time>2026-04-05T18:18:38Z</time></trkpt><trkpt lat="42.53761405695362" lon="-8.320901461030155"><ele>569.0</ele><time>2026-04-05T18:18:39Z</time></trkpt><trkpt lat="42.537633333464754" lon="-8.32060350310805"><ele>569.0</ele><time>2026-04-05T18:18:40Z</time></trkpt><trkpt lat="42.53765382223706" lon="-8.320305210562319"><ele>569.0</ele><time>2026-04-05T18:18:41Z</time></trkpt><trkpt lat="42.53768104336378" lon="-8.320005215057282"><ele>571.0</ele><time>2026-04-05T18:18:42Z</time></trkpt><trkpt lat="42.53770691584764" lon="-8.319690573495267"><ele>573.0</ele><time>2026-04-05T18:18:43Z</time></trkpt><trkpt lat="42.53772473403057" lon="-8.319402352408131"><ele>575.0</ele><time>2026-04-05T18:18:44Z</time></trkpt><trkpt lat="42.53774566632823" lon="-8.319104180206736"><ele>575.6666666666666</ele><time>2026-04-05T18:18:45Z</time></trkpt><trkpt lat="42.537774554031294" lon="-8.318803454697479"><ele>576.3333333333334</ele><time>2026-04-05T18:18:46Z</time></trkpt><trkpt lat="42.5378194425452" lon="-8.318514406380464"><ele>577.0</ele><time>2026-04-05T18:18:47Z</time></trkpt><trkpt lat="42.537875812230496" lon="-8.318221699541764"><ele>578.3333333333334</ele><time>2026-04-05T18:18:48Z</time></trkpt><trkpt lat="42.5379523659477" lon="-8.31793622459061"><ele>579.6666666666666</ele><time>2026-04-05T18:18:49Z</time></trkpt><trkpt lat="42.53804831376603" lon="-8.317663637447536"><ele>581.0</ele><time>2026-04-05T18:18:50Z</time></trkpt><trkpt lat="42.538160996286834" lon="-8.317403179425908"><ele>580.6666666666666</ele><time>2026-04-05T18:18:51Z</time></trkpt><trkpt lat="42.53828729625296" lon="-8.31715542205721"><ele>580.3333333333334</ele><time>2026-04-05T18:18:52Z</time></trkpt><trkpt lat="42.53842482432048" lon="-8.316917218307031"><ele>580.0</ele><time>2026-04-05T18:18:53Z</time></trkpt><trkpt lat="42.53856728451456" lon="-8.316694610613071"><ele>580.0</ele><time>2026-04-05T18:18:54Z</time></trkpt><trkpt lat="42.53871355871524" lon="-8.316471232763218"><ele>580.0</ele><time>2026-04-05T18:18:55Z</time></trkpt><trkpt lat="42.53886124258305" lon="-8.316250034363874"><ele>580.0</ele><time>2026-04-05T18:18:56Z</time></trkpt><trkpt lat="42.53900785137371" lon="-8.316031578317585"><ele>582.0</ele><time>2026-04-05T18:18:57Z</time></trkpt><trkpt lat="42.53916187348936" lon="-8.315819878963985"><ele>584.0</ele><time>2026-04-05T18:18:58Z</time></trkpt><trkpt lat="42.53930704216004" lon="-8.315589559857425"><ele>586.0</ele><time>2026-04-05T18:18:59Z</time></trkpt><trkpt lat="42.53944937834939" lon="-8.315364247049601"><ele>587.3333333333334</ele><time>2026-04-05T18:19:00Z</time></trkpt><trkpt lat="42.53959119539498" lon="-8.315139758320901"><ele>588.6666666666666</ele><time>2026-04-05T18:19:01Z</time></trkpt><trkpt lat="42.53973705051094" lon="-8.314907072074464"><ele>590.0</ele><time>2026-04-05T18:19:02Z</time></trkpt><trkpt lat="42.5398784007356" lon="-8.314685058045304"><ele>592.0</ele><time>2026-04-05T18:19:03Z</time></trkpt><trkpt lat="42.54002226300711" lon="-8.31445286511328"><ele>594.0</ele><time>2026-04-05T18:19:04Z</time></trkpt><trkpt lat="42.54016307604309" lon="-8.314229500519428"><ele>596.0</ele><time>2026-04-05T18:19:05Z</time></trkpt><trkpt lat="42.540305888068765" lon="-8.314003448781886"><ele>598.0</ele><time>2026-04-05T18:19:06Z</time></trkpt><trkpt lat="42.5404441965137" lon="-8.313776025284465"><ele>600.0</ele><time>2026-04-05T18:19:07Z</time></trkpt><trkpt lat="42.54057417180835" lon="-8.313542830440777"><ele>602.0</ele><time>2026-04-05T18:19:08Z</time></trkpt><trkpt lat="42.54068689176027" lon="-8.313298214500707"><ele>604.3333333333333</ele><time>2026-04-05T18:19:09Z</time></trkpt><trkpt lat="42.54077674848627" lon="-8.313037972841647"><ele>606.6666666666666</ele><time>2026-04-05T18:19:10Z</time></trkpt><trkpt lat="42.54083656349875" lon="-8.312761383468464"><ele>609.0</ele><time>2026-04-05T18:19:11Z</time></trkpt><trkpt lat="42.54084338737753" lon="-8.3124793291516"><ele>611.3333333333334</ele><time>2026-04-05T18:19:12Z</time></trkpt><trkpt lat="42.54083339467929" lon="-8.312202501065268"><ele>613.6666666666667</ele><time>2026-04-05T18:19:13Z</time></trkpt><trkpt lat="42.54080503622689" lon="-8.311926763013311"><ele>616.0</ele><time>2026-04-05T18:19:14Z</time></trkpt><trkpt lat="42.540752956619265" lon="-8.311656732788434"><ele>616.0</ele><time>2026-04-05T18:19:15Z</time></trkpt><trkpt lat="42.540667008961606" lon="-8.311416316441989"><ele>616.0</ele><time>2026-04-05T18:19:16Z</time></trkpt><trkpt lat="42.5405633325304" lon="-8.311185472391417"><ele>616.0</ele><time>2026-04-05T18:19:17Z</time></trkpt><trkpt lat="42.54044708633035" lon="-8.310959676726808"><ele>617.0</ele><time>2026-04-05T18:19:18Z</time></trkpt><trkpt lat="42.540313150459745" lon="-8.3107663967675"><ele>618.0</ele><time>2026-04-05T18:19:19Z</time></trkpt><trkpt lat="42.54017473812013" lon="-8.310574742564988"><ele>619.0</ele><time>2026-04-05T18:19:20Z</time></trkpt><trkpt lat="42.54001853369486" lon="-8.31041536343137"><ele>619.0</ele><time>2026-04-05T18:19:21Z</time></trkpt><trkpt lat="42.53986627002016" lon="-8.310245579670813"><ele>619.0</ele><time>2026-04-05T18:19:22Z</time></trkpt><trkpt lat="42.53971944400469" lon="-8.310066973498213"><ele>619.0</ele><time>2026-04-05T18:19:23Z</time></trkpt><trkpt lat="42.539573900538436" lon="-8.309889713569143"><ele>621.0</ele><time>2026-04-05T18:19:24Z</time></trkpt><trkpt lat="42.539424871306814" lon="-8.309709249779416"><ele>623.0</ele><time>2026-04-05T18:19:25Z</time></trkpt><trkpt lat="42.5392721147242" lon="-8.309527862530032"><ele>625.0</ele><time>2026-04-05T18:19:26Z</time></trkpt><trkpt lat="42.539110212979644" lon="-8.309348264241834"><ele>625.0</ele><time>2026-04-05T18:19:27Z</time></trkpt><trkpt lat="42.538958851975686" lon="-8.309174723068217"><ele>625.0</ele><time>2026-04-05T18:19:28Z</time></trkpt><trkpt lat="42.53880068971173" lon="-8.308998505546402"><ele>625.0</ele><time>2026-04-05T18:19:29Z</time></trkpt><trkpt lat="42.538634569281434" lon="-8.308834074088452"><ele>628.3333333333334</ele><time>2026-04-05T18:19:30Z</time></trkpt><trkpt lat="42.53845727669331" lon="-8.3087079923802"><ele>631.6666666666666</ele><time>2026-04-05T18:19:31Z</time></trkpt><trkpt lat="42.538277848159545" lon="-8.30858354196634"><ele>635.0</ele><time>2026-04-05T18:19:32Z</time></trkpt><trkpt lat="42.538096883654575" lon="-8.308440547633438"><ele>635.0</ele><time>2026-04-05T18:19:33Z</time></trkpt><trkpt lat="42.53791110088358" lon="-8.30833207234174"><ele>635.0</ele><time>2026-04-05T18:19:33.999Z</time></trkpt><trkpt lat="42.53773309065895" lon="-8.308208105160405"><ele>635.0</ele><time>2026-04-05T18:19:34.999Z</time></trkpt><trkpt lat="42.53757635582862" lon="-8.308098752949224"><ele>637.3333333333333</ele><time>2026-04-05T18:19:35.999Z</time></trkpt><trkpt lat="42.53743704694424" lon="-8.307974952998332"><ele>639.6666666666666</ele><time>2026-04-05T18:19:36.999Z</time></trkpt><trkpt lat="42.537295892996156" lon="-8.307878891885263"><ele>642.0</ele><time>2026-04-05T18:19:37.999Z</time></trkpt><trkpt lat="42.53715458468438" lon="-8.307773297999967"><ele>642.0</ele><time>2026-04-05T18:19:38.999Z</time></trkpt><trkpt lat="42.5370149103567" lon="-8.30766885144399"><ele>642.0</ele><time>2026-04-05T18:19:39.999Z</time></trkpt><trkpt lat="42.53688837831784" lon="-8.307554043103236"><ele>642.0</ele><time>2026-04-05T18:19:40.999Z</time></trkpt><trkpt lat="42.53677707203769" lon="-8.30741542047423"><ele>642.0</ele><time>2026-04-05T18:19:41.999Z</time></trkpt><trkpt lat="42.536693725837054" lon="-8.307250469074065"><ele>642.0</ele><time>2026-04-05T18:19:42.999Z</time></trkpt><trkpt lat="42.536611547741494" lon="-8.307065822495483"><ele>642.0</ele><time>2026-04-05T18:19:43.999Z</time></trkpt><trkpt lat="42.536564316026784" lon="-8.306874364869035"><ele>642.75</ele><time>2026-04-05T18:19:44.999Z</time></trkpt><trkpt lat="42.53656170659503" lon="-8.306670528638287"><ele>643.5</ele><time>2026-04-05T18:19:45.999Z</time></trkpt><trkpt lat="42.53656430784929" lon="-8.306475658026626"><ele>644.25</ele><time>2026-04-05T18:19:46.999Z</time></trkpt><trkpt lat="42.53656122590869" lon="-8.30631378873789"><ele>645.0</ele><time>2026-04-05T18:19:47.999Z</time></trkpt><trkpt lat="42.53656846359983" lon="-8.30616799908223"><ele>645.5</ele><time>2026-04-05T18:19:48.999Z</time></trkpt><trkpt lat="42.536577071470184" lon="-8.30602968357337"><ele>646.0</ele><time>2026-04-05T18:19:49.999Z</time></trkpt><trkpt lat="42.53658523766905" lon="-8.305910501233463"><ele>646.5</ele><time>2026-04-05T18:19:50.999Z</time></trkpt><trkpt lat="42.5365922577041" lon="-8.305823937450276"><ele>647.0</ele><time>2026-04-05T18:19:51.999Z</time></trkpt><trkpt lat="42.536602234453106" lon="-8.305703007179405"><ele>647.5</ele><time>2026-04-05T18:19:53.999Z</time></trkpt><trkpt lat="42.5366133171329" lon="-8.305572418656972"><ele>648.0</ele><time>2026-04-05T18:19:56.999Z</time></trkpt><trkpt lat="42.536621817116114" lon="-8.305446010356645"><ele>648.5999999999999</ele><time>2026-04-05T18:19:59.999Z</time></trkpt><trkpt lat="42.53663136450244" lon="-8.305304025533385"><ele>649.1999999999999</ele><time>2026-04-05T18:20:02.999Z</time></trkpt><trkpt lat="42.53664180692008" lon="-8.3051487300594"><ele>649.8</ele><time>2026-04-05T18:20:04.999Z</time></trkpt><trkpt lat="42.53664762319081" lon="-8.305033760985326"><ele>650.4</ele><time>2026-04-05T18:20:15.999Z</time></trkpt><trkpt lat="42.53665498736068" lon="-8.304899341574936"><ele>651.0</ele><time>2026-04-05T18:20:17.999Z</time></trkpt><trkpt lat="42.53666020276753" lon="-8.304720228078425"><ele>651.3333333333334</ele><time>2026-04-05T18:20:19.999Z</time></trkpt><trkpt lat="42.53665961512044" lon="-8.304603168323624"><ele>651.6666666666666</ele><time>2026-04-05T18:20:20.999Z</time></trkpt><trkpt lat="42.53665663149818" lon="-8.304504059666439"><ele>652.0</ele><time>2026-04-05T18:20:21.999Z</time></trkpt><trkpt lat="42.53665183490868" lon="-8.304412002899388"><ele>652.3333333333333</ele><time>2026-04-05T18:20:22.999Z</time></trkpt><trkpt lat="42.53664339512475" lon="-8.304305270749648"><ele>652.6666666666666</ele><time>2026-04-05T18:20:23.999Z</time></trkpt><trkpt lat="42.53663205381756" lon="-8.304180680678563"><ele>653.0</ele><time>2026-04-05T18:20:24.999Z</time></trkpt><trkpt lat="42.53661712590329" lon="-8.304045063135828"><ele>653.2</ele><time>2026-04-05T18:20:25.999Z</time></trkpt><trkpt lat="42.536600962297435" lon="-8.303904624353976"><ele>653.4</ele><time>2026-04-05T18:20:26.999Z</time></trkpt><trkpt lat="42.53658290068781" lon="-8.303760402055396"><ele>653.6</ele><time>2026-04-05T18:20:28Z</time></trkpt><trkpt lat="42.53656371866503" lon="-8.303613701376822"><ele>653.8000000000001</ele><time>2026-04-05T18:20:29Z</time></trkpt><trkpt lat="42.53654164444145" lon="-8.303467566062062"><ele>654.0</ele><time>2026-04-05T18:20:30Z</time></trkpt><trkpt lat="42.53651626713215" lon="-8.30331858633247"><ele>654.0</ele><time>2026-04-05T18:20:31Z</time></trkpt><trkpt lat="42.53649198693214" lon="-8.303176047144149"><ele>654.0</ele><time>2026-04-05T18:20:32Z</time></trkpt><trkpt lat="42.53645962900326" lon="-8.303034248180248"><ele>654.0</ele><time>2026-04-05T18:20:33Z</time></trkpt><trkpt lat="42.53642688710385" lon="-8.302900370941016"><ele>654.0</ele><time>2026-04-05T18:20:34Z</time></trkpt><trkpt lat="42.53639006247197" lon="-8.302774300171148"><ele>654.0</ele><time>2026-04-05T18:20:35Z</time></trkpt><trkpt lat="42.536350130675864" lon="-8.302650062309722"><ele>653.8000000000001</ele><time>2026-04-05T18:20:36Z</time></trkpt><trkpt lat="42.53630645106056" lon="-8.302521310791384"><ele>653.6</ele><time>2026-04-05T18:20:37Z</time></trkpt><trkpt lat="42.53625389816604" lon="-8.302383650265659"><ele>653.4</ele><time>2026-04-05T18:20:38Z</time></trkpt><trkpt lat="42.53619185869704" lon="-8.30225874977564"><ele>653.2</ele><time>2026-04-05T18:20:39Z</time></trkpt><trkpt lat="42.53612673851422" lon="-8.302139295719943"><ele>653.0</ele><time>2026-04-05T18:20:40Z</time></trkpt><trkpt lat="42.53605930451882" lon="-8.302037040669234"><ele>652.2</ele><time>2026-04-05T18:20:41Z</time></trkpt><trkpt lat="42.53598814189467" lon="-8.301936958964536"><ele>651.4</ele><time>2026-04-05T18:20:42Z</time></trkpt><trkpt lat="42.53590491412999" lon="-8.301840584769367"><ele>650.6</ele><time>2026-04-05T18:20:43Z</time></trkpt><trkpt lat="42.535813366106254" lon="-8.30175467365907"><ele>649.8000000000001</ele><time>2026-04-05T18:20:44Z</time></trkpt><trkpt lat="42.53571363377415" lon="-8.301673184946688"><ele>649.0</ele><time>2026-04-05T18:20:45Z</time></trkpt><trkpt lat="42.53561076801295" lon="-8.30160930723961"><ele>649.0</ele><time>2026-04-05T18:20:46Z</time></trkpt><trkpt lat="42.53550007304021" lon="-8.301544207455485"><ele>649.0</ele><time>2026-04-05T18:20:47Z</time></trkpt><trkpt lat="42.53538180548836" lon="-8.301475855101277"><ele>649.0</ele><time>2026-04-05T18:20:48Z</time></trkpt><trkpt lat="42.53526216044559" lon="-8.301406706637593"><ele>649.0</ele><time>2026-04-05T18:20:49Z</time></trkpt><trkpt lat="42.53513722277025" lon="-8.301334499309528"><ele>650.0</ele><time>2026-04-05T18:20:50Z</time></trkpt><trkpt lat="42.53500749582714" lon="-8.301249842817565"><ele>651.0</ele><time>2026-04-05T18:20:51Z</time></trkpt><trkpt lat="42.534884927797734" lon="-8.301155510684188"><ele>652.0</ele><time>2026-04-05T18:20:52Z</time></trkpt><trkpt lat="42.53476816843946" lon="-8.301036709284855"><ele>653.0</ele><time>2026-04-05T18:20:53Z</time></trkpt><trkpt lat="42.5346634320869" lon="-8.300901648891715"><ele>653.0</ele><time>2026-04-05T18:20:54Z</time></trkpt><trkpt lat="42.53457558776897" lon="-8.300744372069936"><ele>653.0</ele><time>2026-04-05T18:20:55Z</time></trkpt><trkpt lat="42.53451116150638" lon="-8.300553613613857"><ele>653.0</ele><time>2026-04-05T18:20:56Z</time></trkpt><trkpt lat="42.53445779301121" lon="-8.30037956877999"><ele>653.0</ele><time>2026-04-05T18:20:57Z</time></trkpt><trkpt lat="42.53440274562103" lon="-8.300215240384878"><ele>654.5</ele><time>2026-04-05T18:20:58Z</time></trkpt><trkpt lat="42.534346298041285" lon="-8.300046732296291"><ele>656.0</ele><time>2026-04-05T18:20:59Z</time></trkpt><trkpt lat="42.534290281665534" lon="-8.299874303373159"><ele>657.5</ele><time>2026-04-05T18:21:00Z</time></trkpt><trkpt lat="42.534235354988134" lon="-8.299701306221252"><ele>659.0</ele><time>2026-04-05T18:21:01Z</time></trkpt><trkpt lat="42.53417786541061" lon="-8.299520236967265"><ele>659.25</ele><time>2026-04-05T18:21:02Z</time></trkpt><trkpt lat="42.53411860911647" lon="-8.29934234631058"><ele>659.5</ele><time>2026-04-05T18:21:03Z</time></trkpt><trkpt lat="42.53405463620368" lon="-8.299154744224197"><ele>659.75</ele><time>2026-04-05T18:21:04Z</time></trkpt><trkpt lat="42.53399108823896" lon="-8.298968387909355"><ele>660.0</ele><time>2026-04-05T18:21:05Z</time></trkpt><trkpt lat="42.533929397050514" lon="-8.298781492933962"><ele>660.3333333333334</ele><time>2026-04-05T18:21:06Z</time></trkpt><trkpt lat="42.53386607127202" lon="-8.29858289210275"><ele>660.6666666666667</ele><time>2026-04-05T18:21:07Z</time></trkpt><trkpt lat="42.53380590545005" lon="-8.298376121367983"><ele>661.0</ele><time>2026-04-05T18:21:08Z</time></trkpt><trkpt lat="42.53374788789578" lon="-8.298176733527606"><ele>664.3333333333334</ele><time>2026-04-05T18:21:09Z</time></trkpt><trkpt lat="42.533687045893764" lon="-8.297972222417933"><ele>667.6666666666666</ele><time>2026-04-05T18:21:10Z</time></trkpt><trkpt lat="42.533624790102195" lon="-8.297764393941888"><ele>671.0</ele><time>2026-04-05T18:21:11Z</time></trkpt><trkpt lat="42.53356160736618" lon="-8.297555083380349"><ele>671.0</ele><time>2026-04-05T18:21:12Z</time></trkpt><trkpt lat="42.5334942013672" lon="-8.297342497442306"><ele>671.0</ele><time>2026-04-05T18:21:13Z</time></trkpt><trkpt lat="42.53342203820616" lon="-8.29713492880502"><ele>671.0</ele><time>2026-04-05T18:21:14Z</time></trkpt><trkpt lat="42.53334186781443" lon="-8.296935519280154"><ele>671.3333333333333</ele><time>2026-04-05T18:21:15Z</time></trkpt><trkpt lat="42.53324190129582" lon="-8.296746290367174"><ele>671.6666666666666</ele><time>2026-04-05T18:21:16Z</time></trkpt><trkpt lat="42.53312047075341" lon="-8.296572722098206"><ele>672.0</ele><time>2026-04-05T18:21:17Z</time></trkpt><trkpt lat="42.532988452363526" lon="-8.296428687060994"><ele>673.6666666666666</ele><time>2026-04-05T18:21:18Z</time></trkpt><trkpt lat="42.53284152852429" lon="-8.296316389156376"><ele>675.3333333333333</ele><time>2026-04-05T18:21:19Z</time></trkpt><trkpt lat="42.5326809392703" lon="-8.296233834659786"><ele>677.0</ele><time>2026-04-05T18:21:20Z</time></trkpt><trkpt lat="42.53251701973227" lon="-8.296147212959566"><ele>677.0</ele><time>2026-04-05T18:21:21Z</time></trkpt><trkpt lat="42.532348595957814" lon="-8.296092682933336"><ele>677.0</ele><time>2026-04-05T18:21:22Z</time></trkpt><trkpt lat="42.53218028017529" lon="-8.296034072286938"><ele>677.0</ele><time>2026-04-05T18:21:23Z</time></trkpt><trkpt lat="42.53201610609403" lon="-8.295963873125629"><ele>679.0</ele><time>2026-04-05T18:21:24Z</time></trkpt><trkpt lat="42.531850769580686" lon="-8.29588473406042"><ele>681.0</ele><time>2026-04-05T18:21:25Z</time></trkpt><trkpt lat="42.53169504605422" lon="-8.295786989102552"><ele>683.0</ele><time>2026-04-05T18:21:26Z</time></trkpt><trkpt lat="42.531545071293756" lon="-8.295671701489686"><ele>681.0</ele><time>2026-04-05T18:21:27Z</time></trkpt><trkpt lat="42.53140468422342" lon="-8.29553238448779"><ele>679.0</ele><time>2026-04-05T18:21:28Z</time></trkpt><trkpt lat="42.531276623050836" lon="-8.295374222964135"><ele>677.0</ele><time>2026-04-05T18:21:29Z</time></trkpt><trkpt lat="42.53116119984473" lon="-8.295194169408404"><ele>683.0</ele><time>2026-04-05T18:21:30Z</time></trkpt><trkpt lat="42.53105918342072" lon="-8.295002039373589"><ele>689.0</ele><time>2026-04-05T18:21:31Z</time></trkpt><trkpt lat="42.530968785673295" lon="-8.294800504224996"><ele>695.0</ele><time>2026-04-05T18:21:32Z</time></trkpt><trkpt lat="42.530890756556296" lon="-8.29458818046307"><ele>695.0</ele><time>2026-04-05T18:21:33Z</time></trkpt><trkpt lat="42.53082242951001" lon="-8.294365786298377"><ele>695.0</ele><time>2026-04-05T18:21:34Z</time></trkpt><trkpt lat="42.53075912439595" lon="-8.294145955298115"><ele>695.0</ele><time>2026-04-05T18:21:35Z</time></trkpt><trkpt lat="42.53068630958282" lon="-8.29392392253716"><ele>694.3333333333333</ele><time>2026-04-05T18:21:35.999Z</time></trkpt><trkpt lat="42.53058803433787" lon="-8.293716981148744"><ele>693.6666666666666</ele><time>2026-04-05T18:21:36.999Z</time></trkpt><trkpt lat="42.530491321315886" lon="-8.293515095594737"><ele>693.0</ele><time>2026-04-05T18:21:37.999Z</time></trkpt><trkpt lat="42.53038800328164" lon="-8.293318277118523"><ele>696.3333333333334</ele><time>2026-04-05T18:21:38.999Z</time></trkpt><trkpt lat="42.53028003856986" lon="-8.293121625935761"><ele>699.6666666666667</ele><time>2026-04-05T18:21:39.999Z</time></trkpt><trkpt lat="42.53015382306614" lon="-8.292944510797723"><ele>703.0</ele><time>2026-04-05T18:21:40.999Z</time></trkpt><trkpt lat="42.53001587791084" lon="-8.292781634212366"><ele>703.0</ele><time>2026-04-05T18:21:41.999Z</time></trkpt><trkpt lat="42.52986268734607" lon="-8.292648320720541"><ele>703.0</ele><time>2026-04-05T18:21:42.999Z</time></trkpt><trkpt lat="42.52971089339527" lon="-8.292514610881055"><ele>703.0</ele><time>2026-04-05T18:21:43.999Z</time></trkpt><trkpt lat="42.5295556933312" lon="-8.292394208524078"><ele>702.6666666666667</ele><time>2026-04-05T18:21:44.999Z</time></trkpt><trkpt lat="42.52940348966217" lon="-8.292261673608435"><ele>702.3333333333334</ele><time>2026-04-05T18:21:45.999Z</time></trkpt><trkpt lat="42.529235117479516" lon="-8.292159462433089"><ele>702.0</ele><time>2026-04-05T18:21:46.999Z</time></trkpt><trkpt lat="42.52906812965043" lon="-8.292055293931877"><ele>702.0</ele><time>2026-04-05T18:21:47.999Z</time></trkpt><trkpt lat="42.52889962778574" lon="-8.29194847724858"><ele>702.0</ele><time>2026-04-05T18:21:48.999Z</time></trkpt><trkpt lat="42.52873192663958" lon="-8.291853213384694"><ele>702.0</ele><time>2026-04-05T18:21:49.999Z</time></trkpt><trkpt lat="42.52855798911107" lon="-8.291763515328123"><ele>706.0</ele><time>2026-04-05T18:21:50.999Z</time></trkpt><trkpt lat="42.5283816448524" lon="-8.291681389296677"><ele>710.0</ele><time>2026-04-05T18:21:51.999Z</time></trkpt><trkpt lat="42.528202413372426" lon="-8.291606830855693"><ele>714.0</ele><time>2026-04-05T18:21:52.999Z</time></trkpt><trkpt lat="42.528024346436965" lon="-8.291534559985308"><ele>712.0</ele><time>2026-04-05T18:21:53.999Z</time></trkpt><trkpt lat="42.52784205180527" lon="-8.291458107431358"><ele>710.0</ele><time>2026-04-05T18:21:54.999Z</time></trkpt><trkpt lat="42.52765938130411" lon="-8.291386678613078"><ele>708.0</ele><time>2026-04-05T18:21:55.999Z</time></trkpt><trkpt lat="42.527473814055654" lon="-8.291319127991196"><ele>708.0</ele><time>2026-04-05T18:21:56.999Z</time></trkpt><trkpt lat="42.52729145930065" lon="-8.29125514035558"><ele>708.0</ele><time>2026-04-05T18:21:57.999Z</time></trkpt><trkpt lat="42.52710340049483" lon="-8.291195955086152"><ele>708.0</ele><time>2026-04-05T18:21:58.999Z</time></trkpt><trkpt lat="42.52691668623122" lon="-8.291141997696359"><ele>712.0</ele><time>2026-04-05T18:21:59.999Z</time></trkpt><trkpt lat="42.52672671718125" lon="-8.29108924840498"><ele>716.0</ele><time>2026-04-05T18:22:00.999Z</time></trkpt><trkpt lat="42.526538203170816" lon="-8.29104578133723"><ele>720.0</ele><time>2026-04-05T18:22:01.999Z</time></trkpt><trkpt lat="42.52634788305497" lon="-8.290999412904345"><ele>722.6666666666666</ele><time>2026-04-05T18:22:02.999Z</time></trkpt><trkpt lat="42.52615607172207" lon="-8.290956941536585"><ele>725.3333333333333</ele><time>2026-04-05T18:22:03.999Z</time></trkpt><trkpt lat="42.525964142188826" lon="-8.290906690803894"><ele>728.0</ele><time>2026-04-05T18:22:04.999Z</time></trkpt><trkpt lat="42.525775941819546" lon="-8.290846104391841"><ele>728.0</ele><time>2026-04-05T18:22:05.999Z</time></trkpt><trkpt lat="42.52559219531857" lon="-8.290765171110165"><ele>728.0</ele><time>2026-04-05T18:22:06.999Z</time></trkpt><trkpt lat="42.52541202469203" lon="-8.29065749797159"><ele>728.0</ele><time>2026-04-05T18:22:07.999Z</time></trkpt><trkpt lat="42.525241039996935" lon="-8.290529566240345"><ele>728.0</ele><time>2026-04-05T18:22:08.999Z</time></trkpt><trkpt lat="42.5250702449748" lon="-8.290403514416544"><ele>728.0</ele><time>2026-04-05T18:22:09.999Z</time></trkpt><trkpt lat="42.524916062790965" lon="-8.290236360750445"><ele>728.0</ele><time>2026-04-05T18:22:10.999Z</time></trkpt><trkpt lat="42.52477324334396" lon="-8.290061881834015"><ele>728.0</ele><time>2026-04-05T18:22:11.999Z</time></trkpt><trkpt lat="42.52463020389528" lon="-8.289877680163583"><ele>728.0</ele><time>2026-04-05T18:22:12.999Z</time></trkpt><trkpt lat="42.52449040075788" lon="-8.289693800116517"><ele>728.0</ele><time>2026-04-05T18:22:13.999Z</time></trkpt><trkpt lat="42.52436415324922" lon="-8.289490197705693"><ele>731.3333333333333</ele><time>2026-04-05T18:22:14.999Z</time></trkpt><trkpt lat="42.52422595889054" lon="-8.289305092333235"><ele>734.6666666666666</ele><time>2026-04-05T18:22:15.999Z</time></trkpt><trkpt lat="42.52407886989383" lon="-8.289138122085074"><ele>738.0</ele><time>2026-04-05T18:22:16.999Z</time></trkpt><trkpt lat="42.523934282119356" lon="-8.28896097877879"><ele>741.0</ele><time>2026-04-05T18:22:17.999Z</time></trkpt><trkpt lat="42.52378723369682" lon="-8.288785538139956"><ele>744.0</ele><time>2026-04-05T18:22:18.999Z</time></trkpt><trkpt lat="42.52363939521841" lon="-8.288611088953816"><ele>747.0</ele><time>2026-04-05T18:22:19.999Z</time></trkpt><trkpt lat="42.52350047088592" lon="-8.288423519141222"><ele>747.0</ele><time>2026-04-05T18:22:20.999Z</time></trkpt><trkpt lat="42.52333566279105" lon="-8.288267582709572"><ele>747.0</ele><time>2026-04-05T18:22:21.999Z</time></trkpt><trkpt lat="42.523195187312844" lon="-8.288084196125666"><ele>747.0</ele><time>2026-04-05T18:22:22.999Z</time></trkpt><trkpt lat="42.52303683335052" lon="-8.287918229198592"><ele>748.6666666666666</ele><time>2026-04-05T18:22:23.999Z</time></trkpt><trkpt lat="42.522880018461336" lon="-8.287759500594618"><ele>750.3333333333333</ele><time>2026-04-05T18:22:24.999Z</time></trkpt><trkpt lat="42.52272052696762" lon="-8.28762955930875"><ele>752.0</ele><time>2026-04-05T18:22:25.999Z</time></trkpt><trkpt lat="42.522564290623585" lon="-8.287479726411409"><ele>752.0</ele><time>2026-04-05T18:22:26.999Z</time></trkpt><trkpt lat="42.522415103903754" lon="-8.287317695096243"><ele>752.0</ele><time>2026-04-05T18:22:27.999Z</time></trkpt><trkpt lat="42.52225207257112" lon="-8.287176333217499"><ele>752.0</ele><time>2026-04-05T18:22:28.999Z</time></trkpt><trkpt lat="42.5220739268254" lon="-8.28706911579835"><ele>753.3333333333333</ele><time>2026-04-05T18:22:29.999Z</time></trkpt><trkpt lat="42.52190293003507" lon="-8.286955901900289"><ele>754.6666666666666</ele><time>2026-04-05T18:22:30.999Z</time></trkpt><trkpt lat="42.5217268882726" lon="-8.286850919011094"><ele>756.0</ele><time>2026-04-05T18:22:31.999Z</time></trkpt><trkpt lat="42.521548593487076" lon="-8.286741162149042"><ele>756.0</ele><time>2026-04-05T18:22:32.999Z</time></trkpt><trkpt lat="42.52135972058348" lon="-8.286666549326736"><ele>756.0</ele><time>2026-04-05T18:22:34Z</time></trkpt><trkpt lat="42.521171975925455" lon="-8.286603694272035"><ele>756.0</ele><time>2026-04-05T18:22:35Z</time></trkpt><trkpt lat="42.52097756329288" lon="-8.28656284926927"><ele>758.0</ele><time>2026-04-05T18:22:36Z</time></trkpt><trkpt lat="42.520783509211306" lon="-8.286543007719679"><ele>760.0</ele><time>2026-04-05T18:22:37Z</time></trkpt><trkpt lat="42.520589209037986" lon="-8.286530843604949"><ele>762.0</ele><time>2026-04-05T18:22:38Z</time></trkpt><trkpt lat="42.5203945396593" lon="-8.28650725014725"><ele>762.0</ele><time>2026-04-05T18:22:39Z</time></trkpt><trkpt lat="42.52019827536681" lon="-8.286465064838781"><ele>762.0</ele><time>2026-04-05T18:22:40Z</time></trkpt><trkpt lat="42.520004499120944" lon="-8.28640101414755"><ele>762.0</ele><time>2026-04-05T18:22:41Z</time></trkpt><trkpt lat="42.519824449502046" lon="-8.286302335782949"><ele>760.6666666666666</ele><time>2026-04-05T18:22:42Z</time></trkpt><trkpt lat="42.5196506510231" lon="-8.286165007827659"><ele>759.3333333333333</ele><time>2026-04-05T18:22:43Z</time></trkpt><trkpt lat="42.51949745460907" lon="-8.285984179967299"><ele>758.0</ele><time>2026-04-05T18:22:44Z</time></trkpt><trkpt lat="42.51936229399116" lon="-8.285786495770266"><ele>762.3333333333333</ele><time>2026-04-05T18:22:45Z</time></trkpt><trkpt lat="42.5192385852415" lon="-8.285572120662588"><ele>766.6666666666666</ele><time>2026-04-05T18:22:46Z</time></trkpt><trkpt lat="42.51916681443033" lon="-8.285325075224987"><ele>771.0</ele><time>2026-04-05T18:22:47Z</time></trkpt><trkpt lat="42.51908933787404" lon="-8.285076704710848"><ele>771.0</ele><time>2026-04-05T18:22:48Z</time></trkpt><trkpt lat="42.51906430655565" lon="-8.284809065424788"><ele>771.0</ele><time>2026-04-05T18:22:49Z</time></trkpt><trkpt lat="42.51905206497252" lon="-8.284546339014625"><ele>771.0</ele><time>2026-04-05T18:22:50Z</time></trkpt><trkpt lat="42.51905627432696" lon="-8.284283817809612"><ele>773.3333333333333</ele><time>2026-04-05T18:22:51Z</time></trkpt><trkpt lat="42.51909645170016" lon="-8.284027242144244"><ele>775.6666666666666</ele><time>2026-04-05T18:22:52Z</time></trkpt><trkpt lat="42.51915054059815" lon="-8.283772587841455"><ele>778.0</ele><time>2026-04-05T18:22:53Z</time></trkpt><trkpt lat="42.51920391627514" lon="-8.283522950274229"><ele>779.3333333333333</ele><time>2026-04-05T18:22:54Z</time></trkpt><trkpt lat="42.51924501720934" lon="-8.283265515707843"><ele>780.6666666666667</ele><time>2026-04-05T18:22:55Z</time></trkpt><trkpt lat="42.519272920291996" lon="-8.283010247288095"><ele>782.0</ele><time>2026-04-05T18:22:56Z</time></trkpt><trkpt lat="42.519271327193486" lon="-8.282748921678628"><ele>784.0</ele><time>2026-04-05T18:22:57Z</time></trkpt><trkpt lat="42.51927737627723" lon="-8.282481256462873"><ele>786.0</ele><time>2026-04-05T18:22:58Z</time></trkpt><trkpt lat="42.5192521821467" lon="-8.282226255638333"><ele>788.0</ele><time>2026-04-05T18:22:59Z</time></trkpt><trkpt lat="42.519207183172526" lon="-8.281968769240866"><ele>790.0</ele><time>2026-04-05T18:23:00Z</time></trkpt><trkpt lat="42.51915345272759" lon="-8.281715717980997"><ele>792.0</ele><time>2026-04-05T18:23:01Z</time></trkpt><trkpt lat="42.51909446191915" lon="-8.281465306690006"><ele>794.0</ele><time>2026-04-05T18:23:02Z</time></trkpt><trkpt lat="42.51904403382644" lon="-8.281212159700704"><ele>796.3333333333334</ele><time>2026-04-05T18:23:03Z</time></trkpt><trkpt lat="42.51899843775139" lon="-8.280960554549871"><ele>798.6666666666667</ele><time>2026-04-05T18:23:04Z</time></trkpt><trkpt lat="42.51896184652634" lon="-8.280702446262865"><ele>801.0</ele><time>2026-04-05T18:23:05Z</time></trkpt><trkpt lat="42.51895667503294" lon="-8.280443231420861"><ele>802.0</ele><time>2026-04-05T18:23:06Z</time></trkpt><trkpt lat="42.5189813551642" lon="-8.28017460800566"><ele>803.0</ele><time>2026-04-05T18:23:07Z</time></trkpt><trkpt lat="42.51903416944532" lon="-8.279920167184956"><ele>804.0</ele><time>2026-04-05T18:23:08Z</time></trkpt><trkpt lat="42.5191034657528" lon="-8.279673249809388"><ele>802.0</ele><time>2026-04-05T18:23:09Z</time></trkpt><trkpt lat="42.51920667213254" lon="-8.279444764977773"><ele>800.0</ele><time>2026-04-05T18:23:10Z</time></trkpt><trkpt lat="42.51933014921161" lon="-8.279236047519047"><ele>798.0</ele><time>2026-04-05T18:23:11Z</time></trkpt><trkpt lat="42.519478352619984" lon="-8.279056237656425"><ele>798.6666666666667</ele><time>2026-04-05T18:23:12Z</time></trkpt><trkpt lat="42.51964053786751" lon="-8.278895591127858"><ele>799.3333333333334</ele><time>2026-04-05T18:23:13Z</time></trkpt><trkpt lat="42.51980914697872" lon="-8.278731591928885"><ele>800.0</ele><time>2026-04-05T18:23:14Z</time></trkpt><trkpt lat="42.51996060598559" lon="-8.278558281700096"><ele>800.0</ele><time>2026-04-05T18:23:15Z</time></trkpt><trkpt lat="42.520089275236685" lon="-8.27833624931746"><ele>800.0</ele><time>2026-04-05T18:23:16Z</time></trkpt><trkpt lat="42.52016849929489" lon="-8.278075434055728"><ele>800.0</ele><time>2026-04-05T18:23:17Z</time></trkpt><trkpt lat="42.52023318140305" lon="-8.277808753247497"><ele>799.3333333333334</ele><time>2026-04-05T18:23:18Z</time></trkpt><trkpt lat="42.52026126351368" lon="-8.277529125483236"><ele>798.6666666666667</ele><time>2026-04-05T18:23:19Z</time></trkpt><trkpt lat="42.52025313937123" lon="-8.277243349505929"><ele>798.0</ele><time>2026-04-05T18:23:20Z</time></trkpt><trkpt lat="42.520207750679326" lon="-8.276964397186983"><ele>798.0</ele><time>2026-04-05T18:23:21Z</time></trkpt><trkpt lat="42.52014690005809" lon="-8.276683999476706"><ele>798.0</ele><time>2026-04-05T18:23:22Z</time></trkpt><trkpt lat="42.520080733625335" lon="-8.276404530539262"><ele>798.0</ele><time>2026-04-05T18:23:23Z</time></trkpt><trkpt lat="42.52000264311873" lon="-8.276124617944651"><ele>800.3333333333333</ele><time>2026-04-05T18:23:24Z</time></trkpt><trkpt lat="42.51991312216353" lon="-8.275864048993078"><ele>802.6666666666666</ele><time>2026-04-05T18:23:25Z</time></trkpt><trkpt lat="42.51979971359605" lon="-8.275598063852975"><ele>805.0</ele><time>2026-04-05T18:23:26Z</time></trkpt><trkpt lat="42.51967001830439" lon="-8.275348026614733"><ele>802.5</ele><time>2026-04-05T18:23:27Z</time></trkpt><trkpt lat="42.51951986668972" lon="-8.275120458504313"><ele>800.0</ele><time>2026-04-05T18:23:28Z</time></trkpt><trkpt lat="42.519352802667946" lon="-8.274913600761478"><ele>807.0</ele><time>2026-04-05T18:23:29Z</time></trkpt><trkpt lat="42.51916923759508" lon="-8.274724637813138"><ele>814.0</ele><time>2026-04-05T18:23:30Z</time></trkpt><trkpt lat="42.518976300603924" lon="-8.274565858015205"><ele>814.0</ele><time>2026-04-05T18:23:31Z</time></trkpt><trkpt lat="42.518782077246044" lon="-8.274389916722857"><ele>814.0</ele><time>2026-04-05T18:23:32Z</time></trkpt><trkpt lat="42.51856594048277" lon="-8.274275245501082"><ele>808.5</ele><time>2026-04-05T18:23:33Z</time></trkpt><trkpt lat="42.518344215835064" lon="-8.274171702614955"><ele>803.0</ele><time>2026-04-05T18:23:34Z</time></trkpt><trkpt lat="42.51813732861909" lon="-8.274074975366785"><ele>803.0</ele><time>2026-04-05T18:23:35Z</time></trkpt><trkpt lat="42.5179431512604" lon="-8.273991013833653"><ele>803.0</ele><time>2026-04-05T18:23:36Z</time></trkpt><trkpt lat="42.517755192148506" lon="-8.27389870006126"><ele>803.0</ele><time>2026-04-05T18:23:37Z</time></trkpt><trkpt lat="42.51756239889477" lon="-8.273829879497354"><ele>802.6666666666667</ele><time>2026-04-05T18:23:38Z</time></trkpt><trkpt lat="42.51737281651304" lon="-8.273739286261588"><ele>802.3333333333333</ele><time>2026-04-05T18:23:39Z</time></trkpt><trkpt lat="42.51717831034442" lon="-8.273646340145113"><ele>802.0</ele><time>2026-04-05T18:23:39.999Z</time></trkpt><trkpt lat="42.51697969818737" lon="-8.273551431972669"><ele>802.0</ele><time>2026-04-05T18:23:40.999Z</time></trkpt><trkpt lat="42.51678596281763" lon="-8.27345885423509"><ele>802.0</ele><time>2026-04-05T18:23:41.999Z</time></trkpt><trkpt lat="42.516597215074235" lon="-8.273368550123585"><ele>802.0</ele><time>2026-04-05T18:23:42.999Z</time></trkpt><trkpt lat="42.51640755872433" lon="-8.273277005211451"><ele>803.3333333333333</ele><time>2026-04-05T18:23:43.999Z</time></trkpt><trkpt lat="42.51622007960067" lon="-8.273186509511117"><ele>804.6666666666667</ele><time>2026-04-05T18:23:44.999Z</time></trkpt><trkpt lat="42.516037583847606" lon="-8.273097275297472"><ele>806.0</ele><time>2026-04-05T18:23:45.999Z</time></trkpt><trkpt lat="42.51586833234328" lon="-8.273011368725136"><ele>806.0</ele><time>2026-04-05T18:23:46.999Z</time></trkpt><trkpt lat="42.51570860716258" lon="-8.272922586404578"><ele>806.0</ele><time>2026-04-05T18:23:47.999Z</time></trkpt><trkpt lat="42.51555597202635" lon="-8.272816219376496"><ele>806.0</ele><time>2026-04-05T18:23:48.999Z</time></trkpt><trkpt lat="42.515424135994614" lon="-8.272656060858385"><ele>803.0</ele><time>2026-04-05T18:23:49.999Z</time></trkpt><trkpt lat="42.51529680625918" lon="-8.27248984142446"><ele>800.0</ele><time>2026-04-05T18:23:50.999Z</time></trkpt><trkpt lat="42.51519614644869" lon="-8.272302221030568"><ele>797.0</ele><time>2026-04-05T18:23:51.999Z</time></trkpt><trkpt lat="42.515102296814895" lon="-8.272098971295406"><ele>797.0</ele><time>2026-04-05T18:23:52.999Z</time></trkpt><trkpt lat="42.515069673364714" lon="-8.271870050317913"><ele>797.0</ele><time>2026-04-05T18:23:53.999Z</time></trkpt><trkpt lat="42.51504364165097" lon="-8.271651361644823"><ele>797.0</ele><time>2026-04-05T18:23:54.999Z</time></trkpt><trkpt lat="42.5150414362133" lon="-8.271423387790982"><ele>794.3333333333334</ele><time>2026-04-05T18:23:55.999Z</time></trkpt><trkpt lat="42.51507064984683" lon="-8.271191274702641"><ele>791.6666666666667</ele><time>2026-04-05T18:23:56.999Z</time></trkpt><trkpt lat="42.51511545763947" lon="-8.27096391156444"><ele>789.0</ele><time>2026-04-05T18:23:57.999Z</time></trkpt><trkpt lat="42.515190167321904" lon="-8.270745263793227"><ele>791.3333333333333</ele><time>2026-04-05T18:23:58.999Z</time></trkpt><trkpt lat="42.51528620216354" lon="-8.27054536852439"><ele>793.6666666666666</ele><time>2026-04-05T18:23:59.999Z</time></trkpt><trkpt lat="42.51540377407247" lon="-8.2703710679653"><ele>796.0</ele><time>2026-04-05T18:24:00.999Z</time></trkpt><trkpt lat="42.51553657813586" lon="-8.270222029599015"><ele>796.0</ele><time>2026-04-05T18:24:01.999Z</time></trkpt><trkpt lat="42.51566948458875" lon="-8.270087390436364"><ele>796.0</ele><time>2026-04-05T18:24:02.999Z</time></trkpt><trkpt lat="42.51577335294438" lon="-8.269932894950198"><ele>796.0</ele><time>2026-04-05T18:24:03.999Z</time></trkpt><trkpt lat="42.51587556872491" lon="-8.269785129839278"><ele>794.0</ele><time>2026-04-05T18:24:04.999Z</time></trkpt><trkpt lat="42.51597359753575" lon="-8.269629820907797"><ele>792.0</ele><time>2026-04-05T18:24:05.999Z</time></trkpt><trkpt lat="42.516062391977876" lon="-8.269475285259798"><ele>790.0</ele><time>2026-04-05T18:24:06.999Z</time></trkpt><trkpt lat="42.51614279009293" lon="-8.26932895284299"><ele>788.0</ele><time>2026-04-05T18:24:07.999Z</time></trkpt><trkpt lat="42.51622236322662" lon="-8.269175519528778"><ele>791.25</ele><time>2026-04-05T18:24:08.999Z</time></trkpt><trkpt lat="42.516288764491186" lon="-8.269012651337427"><ele>794.5</ele><time>2026-04-05T18:24:09.999Z</time></trkpt><trkpt lat="42.516337917346675" lon="-8.268830188800372"><ele>797.75</ele><time>2026-04-05T18:24:10.999Z</time></trkpt><trkpt lat="42.51636374015725" lon="-8.26863144284735"><ele>801.0</ele><time>2026-04-05T18:24:11.999Z</time></trkpt><trkpt lat="42.51640272313761" lon="-8.268416723107821"><ele>801.0</ele><time>2026-04-05T18:24:12.999Z</time></trkpt><trkpt lat="42.516378303546716" lon="-8.26819487299679"><ele>801.0</ele><time>2026-04-05T18:24:13.999Z</time></trkpt><trkpt lat="42.51634192792723" lon="-8.267975861973216"><ele>801.0</ele><time>2026-04-05T18:24:14.999Z</time></trkpt><trkpt lat="42.51631045201264" lon="-8.267771523660269"><ele>801.0</ele><time>2026-04-05T18:24:15.999Z</time></trkpt><trkpt lat="42.51628348249719" lon="-8.267572015417926"><ele>801.0</ele><time>2026-04-05T18:24:16.999Z</time></trkpt><trkpt lat="42.516227570387976" lon="-8.267363011147589"><ele>801.0</ele><time>2026-04-05T18:24:17.999Z</time></trkpt><trkpt lat="42.516229449090154" lon="-8.267147069935998"><ele>801.0</ele><time>2026-04-05T18:24:18.999Z</time></trkpt><trkpt lat="42.51624702996051" lon="-8.266922068871317"><ele>801.0</ele><time>2026-04-05T18:24:19.999Z</time></trkpt><trkpt lat="42.516280818521835" lon="-8.266693471214454"><ele>801.0</ele><time>2026-04-05T18:24:20.999Z</time></trkpt><trkpt lat="42.51632197370765" lon="-8.266467438526094"><ele>799.0</ele><time>2026-04-05T18:24:21.999Z</time></trkpt><trkpt lat="42.51637340887293" lon="-8.266241720356891"><ele>797.0</ele><time>2026-04-05T18:24:22.999Z</time></trkpt><trkpt lat="42.51641642441142" lon="-8.26601805221885"><ele>795.0</ele><time>2026-04-05T18:24:23.999Z</time></trkpt><trkpt lat="42.5164521740172" lon="-8.265786822609952"><ele>795.3333333333333</ele><time>2026-04-05T18:24:24.999Z</time></trkpt><trkpt lat="42.51646338762285" lon="-8.265556801306548"><ele>795.6666666666666</ele><time>2026-04-05T18:24:25.999Z</time></trkpt><trkpt lat="42.5164470168525" lon="-8.265329269386626"><ele>796.0</ele><time>2026-04-05T18:24:26.999Z</time></trkpt><trkpt lat="42.51642116648308" lon="-8.265110627873778"><ele>796.0</ele><time>2026-04-05T18:24:27.999Z</time></trkpt><trkpt lat="42.51638959141612" lon="-8.264896982958351"><ele>796.0</ele><time>2026-04-05T18:24:28.999Z</time></trkpt><trkpt lat="42.51635676278721" lon="-8.26468237888246"><ele>796.0</ele><time>2026-04-05T18:24:29.999Z</time></trkpt><trkpt lat="42.51631538817595" lon="-8.264473916812031"><ele>797.3333333333333</ele><time>2026-04-05T18:24:30.999Z</time></trkpt><trkpt lat="42.51625774963609" lon="-8.264266440381002"><ele>798.6666666666667</ele><time>2026-04-05T18:24:31.999Z</time></trkpt><trkpt lat="42.516183365689585" lon="-8.264056353866607"><ele>800.0</ele><time>2026-04-05T18:24:32.999Z</time></trkpt><trkpt lat="42.51608377725295" lon="-8.263863285443476"><ele>797.3333333333334</ele><time>2026-04-05T18:24:33.999Z</time></trkpt><trkpt lat="42.51595682441908" lon="-8.263697088179285"><ele>794.6666666666667</ele><time>2026-04-05T18:24:34.999Z</time></trkpt><trkpt lat="42.51580934026709" lon="-8.26355417114728"><ele>792.0</ele><time>2026-04-05T18:24:35.999Z</time></trkpt><trkpt lat="42.51565072506178" lon="-8.263457114176681"><ele>792.0</ele><time>2026-04-05T18:24:36.999Z</time></trkpt><trkpt lat="42.515476162483765" lon="-8.263385929555511"><ele>792.0</ele><time>2026-04-05T18:24:37.999Z</time></trkpt><trkpt lat="42.515301134374" lon="-8.263326142167429"><ele>792.0</ele><time>2026-04-05T18:24:38.999Z</time></trkpt><trkpt lat="42.515123597609886" lon="-8.263272246665238"><ele>790.6666666666667</ele><time>2026-04-05T18:24:40Z</time></trkpt><trkpt lat="42.51495208353808" lon="-8.263221256629139"><ele>789.3333333333334</ele><time>2026-04-05T18:24:41Z</time></trkpt><trkpt lat="42.514770975526936" lon="-8.26316382664072"><ele>788.0</ele><time>2026-04-05T18:24:42Z</time></trkpt><trkpt lat="42.51458478422325" lon="-8.263112948836604"><ele>791.3333333333334</ele><time>2026-04-05T18:24:43Z</time></trkpt><trkpt lat="42.51439672115278" lon="-8.26305899442706"><ele>794.6666666666667</ele><time>2026-04-05T18:24:44Z</time></trkpt><trkpt lat="42.514204672370035" lon="-8.263004261692272"><ele>798.0</ele><time>2026-04-05T18:24:45Z</time></trkpt><trkpt lat="42.51401146140352" lon="-8.26294950052668"><ele>798.0</ele><time>2026-04-05T18:24:46Z</time></trkpt><trkpt lat="42.51381408330269" lon="-8.262892406008646"><ele>798.0</ele><time>2026-04-05T18:24:47Z</time></trkpt><trkpt lat="42.513613871153886" lon="-8.262823833502253"><ele>798.0</ele><time>2026-04-05T18:24:48Z</time></trkpt><trkpt lat="42.51340846513703" lon="-8.262773867270916"><ele>797.6666666666667</ele><time>2026-04-05T18:24:49Z</time></trkpt><trkpt lat="42.51320671887094" lon="-8.262715040061043"><ele>797.3333333333334</ele><time>2026-04-05T18:24:50Z</time></trkpt><trkpt lat="42.51299951531458" lon="-8.262675773879861"><ele>797.0</ele><time>2026-04-05T18:24:51Z</time></trkpt><trkpt lat="42.51279145519951" lon="-8.262620785754345"><ele>797.0</ele><time>2026-04-05T18:24:52Z</time></trkpt><trkpt lat="42.512583956538066" lon="-8.262565822607822"><ele>797.0</ele><time>2026-04-05T18:24:53Z</time></trkpt><trkpt lat="42.512379094818826" lon="-8.262509935788842"><ele>797.0</ele><time>2026-04-05T18:24:54Z</time></trkpt><trkpt lat="42.51217573835795" lon="-8.262452692050468"><ele>797.3333333333334</ele><time>2026-04-05T18:24:55Z</time></trkpt><trkpt lat="42.51196496497928" lon="-8.26239313884074"><ele>797.6666666666667</ele><time>2026-04-05T18:24:56Z</time></trkpt><trkpt lat="42.51176226467305" lon="-8.26233510100466"><ele>798.0</ele><time>2026-04-05T18:24:57Z</time></trkpt><trkpt lat="42.51155619941807" lon="-8.262275781560628"><ele>803.0</ele><time>2026-04-05T18:24:58Z</time></trkpt><trkpt lat="42.511350686088925" lon="-8.262218061310179"><ele>808.0</ele><time>2026-04-05T18:24:59Z</time></trkpt><trkpt lat="42.51114489454152" lon="-8.26216135707546"><ele>813.0</ele><time>2026-04-05T18:25:00Z</time></trkpt><trkpt lat="42.51094668643773" lon="-8.262085192498164"><ele>813.0</ele><time>2026-04-05T18:25:01Z</time></trkpt><trkpt lat="42.51076626322978" lon="-8.261987679310991"><ele>813.0</ele><time>2026-04-05T18:25:02Z</time></trkpt><trkpt lat="42.5106009934571" lon="-8.261845060489641"><ele>813.0</ele><time>2026-04-05T18:25:03Z</time></trkpt><trkpt lat="42.51045734964664" lon="-8.261672026225487"><ele>812.3333333333333</ele><time>2026-04-05T18:25:04Z</time></trkpt><trkpt lat="42.51033925170921" lon="-8.261465724546685"><ele>811.6666666666666</ele><time>2026-04-05T18:25:05Z</time></trkpt><trkpt lat="42.51025037634187" lon="-8.261238150327829"><ele>811.0</ele><time>2026-04-05T18:25:06Z</time></trkpt><trkpt lat="42.510189968634556" lon="-8.260990797902872"><ele>811.0</ele><time>2026-04-05T18:25:07Z</time></trkpt><trkpt lat="42.510144418188176" lon="-8.260738566715053"><ele>811.0</ele><time>2026-04-05T18:25:08Z</time></trkpt><trkpt lat="42.5101065410483" lon="-8.260492034437936"><ele>811.0</ele><time>2026-04-05T18:25:09Z</time></trkpt><trkpt lat="42.51006720049544" lon="-8.260237176400487"><ele>812.3333333333333</ele><time>2026-04-05T18:25:10Z</time></trkpt><trkpt lat="42.51001665680573" lon="-8.259992704758345"><ele>813.6666666666667</ele><time>2026-04-05T18:25:11Z</time></trkpt><trkpt lat="42.509938381722016" lon="-8.259759434020284"><ele>815.0</ele><time>2026-04-05T18:25:12Z</time></trkpt><trkpt lat="42.50983362171168" lon="-8.259553766466722"><ele>815.3333333333334</ele><time>2026-04-05T18:25:13Z</time></trkpt><trkpt lat="42.509698360209406" lon="-8.259363580344319"><ele>815.6666666666667</ele><time>2026-04-05T18:25:14Z</time></trkpt><trkpt lat="42.509538685503884" lon="-8.259219096619542"><ele>816.0</ele><time>2026-04-05T18:25:15Z</time></trkpt><trkpt lat="42.509357550264944" lon="-8.259114091541132"><ele>816.0</ele><time>2026-04-05T18:25:16Z</time></trkpt><trkpt lat="42.50916729293024" lon="-8.259031987956977"><ele>816.0</ele><time>2026-04-05T18:25:17Z</time></trkpt><trkpt lat="42.50897584943556" lon="-8.258954927692102"><ele>816.0</ele><time>2026-04-05T18:25:18Z</time></trkpt><trkpt lat="42.508796599519165" lon="-8.258881181670407"><ele>818.3333333333333</ele><time>2026-04-05T18:25:19Z</time></trkpt><trkpt lat="42.508621693602265" lon="-8.258787514933712"><ele>820.6666666666666</ele><time>2026-04-05T18:25:20Z</time></trkpt><trkpt lat="42.5084518600885" lon="-8.25866782032774"><ele>823.0</ele><time>2026-04-05T18:25:21Z</time></trkpt><trkpt lat="42.50828794908297" lon="-8.258521954734752"><ele>823.0</ele><time>2026-04-05T18:25:22Z</time></trkpt><trkpt lat="42.50816286198175" lon="-8.258312258947473"><ele>823.0</ele><time>2026-04-05T18:25:23Z</time></trkpt><trkpt lat="42.50801736159652" lon="-8.258131049615676"><ele>823.0</ele><time>2026-04-05T18:25:24Z</time></trkpt><trkpt lat="42.50787162894178" lon="-8.25795170896847"><ele>824.0</ele><time>2026-04-05T18:25:25Z</time></trkpt><trkpt lat="42.50771882760677" lon="-8.25777227011502"><ele>825.0</ele><time>2026-04-05T18:25:26Z</time></trkpt><trkpt lat="42.50754522156056" lon="-8.257641428178772"><ele>826.0</ele><time>2026-04-05T18:25:27Z</time></trkpt><trkpt lat="42.507384621305306" lon="-8.257499009095888"><ele>826.0</ele><time>2026-04-05T18:25:28Z</time></trkpt><trkpt lat="42.50720646409745" lon="-8.257368879805119"><ele>826.0</ele><time>2026-04-05T18:25:29Z</time></trkpt><trkpt lat="42.50703683350292" lon="-8.257262352492653"><ele>826.0</ele><time>2026-04-05T18:25:30Z</time></trkpt><trkpt lat="42.50686344004636" lon="-8.257153666663626"><ele>828.0</ele><time>2026-04-05T18:25:31Z</time></trkpt><trkpt lat="42.50668874186508" lon="-8.257042317968631"><ele>830.0</ele><time>2026-04-05T18:25:32Z</time></trkpt><trkpt lat="42.506513798349665" lon="-8.256931915611702"><ele>832.0</ele><time>2026-04-05T18:25:33Z</time></trkpt><trkpt lat="42.50633194564835" lon="-8.256818820481662"><ele>828.6666666666666</ele><time>2026-04-05T18:25:34Z</time></trkpt><trkpt lat="42.506152972028445" lon="-8.256707515805001"><ele>825.3333333333333</ele><time>2026-04-05T18:25:35Z</time></trkpt><trkpt lat="42.505975953836014" lon="-8.256597608408068"><ele>822.0</ele><time>2026-04-05T18:25:36Z</time></trkpt><trkpt lat="42.50580726886422" lon="-8.256492932437043"><ele>822.6666666666667</ele><time>2026-04-05T18:25:37Z</time></trkpt><trkpt lat="42.50564817955964" lon="-8.25639421097958"><ele>823.3333333333334</ele><time>2026-04-05T18:25:38Z</time></trkpt><trkpt lat="42.50549178663798" lon="-8.256298327916438"><ele>824.0</ele><time>2026-04-05T18:25:39Z</time></trkpt><trkpt lat="42.50533713993862" lon="-8.25620366611769"><ele>824.0</ele><time>2026-04-05T18:25:40Z</time></trkpt><trkpt lat="42.50519810585222" lon="-8.256068194508993"><ele>824.0</ele><time>2026-04-05T18:25:41Z</time></trkpt><trkpt lat="42.50504644975632" lon="-8.255971300965655"><ele>824.0</ele><time>2026-04-05T18:25:42Z</time></trkpt><trkpt lat="42.50490133149561" lon="-8.2558617537923"><ele>824.0</ele><time>2026-04-05T18:25:43Z</time></trkpt><trkpt lat="42.50476662718266" lon="-8.255735830392183"><ele>824.0</ele><time>2026-04-05T18:25:43.999Z</time></trkpt><trkpt lat="42.50464249037519" lon="-8.255588752907533"><ele>824.0</ele><time>2026-04-05T18:25:44.999Z</time></trkpt><trkpt lat="42.504538805014036" lon="-8.25541811006819"><ele>824.3333333333334</ele><time>2026-04-05T18:25:45.999Z</time></trkpt><trkpt lat="42.50445066777931" lon="-8.255222444078973"><ele>824.6666666666667</ele><time>2026-04-05T18:25:46.999Z</time></trkpt><trkpt lat="42.504385188196835" lon="-8.255006198514666"><ele>825.0</ele><time>2026-04-05T18:25:47.999Z</time></trkpt><trkpt lat="42.50434609177047" lon="-8.254774745297528"><ele>824.0</ele><time>2026-04-05T18:25:48.999Z</time></trkpt><trkpt lat="42.504302391056804" lon="-8.254533736799145"><ele>823.0</ele><time>2026-04-05T18:25:49.999Z</time></trkpt><trkpt lat="42.504325236107185" lon="-8.25427545191698"><ele>822.0</ele><time>2026-04-05T18:25:50.999Z</time></trkpt><trkpt lat="42.50436024466399" lon="-8.254018956455846"><ele>819.3333333333333</ele><time>2026-04-05T18:25:51.999Z</time></trkpt><trkpt lat="42.504398180677136" lon="-8.253755268914695"><ele>816.6666666666666</ele><time>2026-04-05T18:25:52.999Z</time></trkpt><trkpt lat="42.50443874713572" lon="-8.253482580406537"><ele>814.0</ele><time>2026-04-05T18:25:53.999Z</time></trkpt><trkpt lat="42.50447842482799" lon="-8.25320866756847"><ele>812.3333333333333</ele><time>2026-04-05T18:25:54.999Z</time></trkpt><trkpt lat="42.50451252441019" lon="-8.252952012962224"><ele>810.6666666666667</ele><time>2026-04-05T18:25:55.999Z</time></trkpt><trkpt lat="42.50453745238408" lon="-8.252698027722392"><ele>809.0</ele><time>2026-04-05T18:25:56.999Z</time></trkpt><trkpt lat="42.50455272982105" lon="-8.252443994739071"><ele>808.6666666666667</ele><time>2026-04-05T18:25:57.999Z</time></trkpt><trkpt lat="42.50455936994834" lon="-8.252194180193932"><ele>808.3333333333333</ele><time>2026-04-05T18:25:58.999Z</time></trkpt><trkpt lat="42.50455942439706" lon="-8.251948076693372"><ele>808.0</ele><time>2026-04-05T18:25:59.999Z</time></trkpt><trkpt lat="42.504553181593145" lon="-8.251700113647871"><ele>808.3333333333333</ele><time>2026-04-05T18:26:00.999Z</time></trkpt><trkpt lat="42.504538442555194" lon="-8.251445805637161"><ele>808.6666666666667</ele><time>2026-04-05T18:26:01.999Z</time></trkpt><trkpt lat="42.50451237240431" lon="-8.2511915617504"><ele>809.0</ele><time>2026-04-05T18:26:02.999Z</time></trkpt><trkpt lat="42.50448039498488" lon="-8.25093052247372"><ele>809.0</ele><time>2026-04-05T18:26:03.999Z</time></trkpt><trkpt lat="42.50444531733463" lon="-8.25067355067425"><ele>809.0</ele><time>2026-04-05T18:26:04.999Z</time></trkpt><trkpt lat="42.50441270701048" lon="-8.250432305817826"><ele>809.0</ele><time>2026-04-05T18:26:05.999Z</time></trkpt><trkpt lat="42.5043802678755" lon="-8.250205214983016"><ele>809.0</ele><time>2026-04-05T18:26:06.999Z</time></trkpt><trkpt lat="42.50435145911012" lon="-8.24998325670676"><ele>809.0</ele><time>2026-04-05T18:26:07.999Z</time></trkpt><trkpt lat="42.504336218194304" lon="-8.249758580851942"><ele>809.0</ele><time>2026-04-05T18:26:08.999Z</time></trkpt><trkpt lat="42.50435115228019" lon="-8.249522784748065"><ele>809.3333333333334</ele><time>2026-04-05T18:26:09.999Z</time></trkpt><trkpt lat="42.504403240143866" lon="-8.249299036850752"><ele>809.6666666666667</ele><time>2026-04-05T18:26:10.999Z</time></trkpt><trkpt lat="42.50446708766121" lon="-8.249077285203354"><ele>810.0</ele><time>2026-04-05T18:26:11.999Z</time></trkpt><trkpt lat="42.50453114282493" lon="-8.248861799572536"><ele>811.0</ele><time>2026-04-05T18:26:12.999Z</time></trkpt><trkpt lat="42.50460615883526" lon="-8.248666398200687"><ele>812.0</ele><time>2026-04-05T18:26:13.999Z</time></trkpt><trkpt lat="42.50468175943913" lon="-8.248476245256255"><ele>813.0</ele><time>2026-04-05T18:26:14.999Z</time></trkpt><trkpt lat="42.50475841121337" lon="-8.248285174826187"><ele>814.0</ele><time>2026-04-05T18:26:15.999Z</time></trkpt><trkpt lat="42.5048311199889" lon="-8.24808895968359"><ele>815.0</ele><time>2026-04-05T18:26:16.999Z</time></trkpt><trkpt lat="42.50490354219806" lon="-8.247888884768297"><ele>816.0</ele><time>2026-04-05T18:26:17.999Z</time></trkpt><trkpt lat="42.50497618444547" lon="-8.247686358044172"><ele>816.0</ele><time>2026-04-05T18:26:18.999Z</time></trkpt><trkpt lat="42.505045988551124" lon="-8.247482315274137"><ele>816.0</ele><time>2026-04-05T18:26:19.999Z</time></trkpt><trkpt lat="42.50511610107539" lon="-8.247275784760378"><ele>816.0</ele><time>2026-04-05T18:26:20.999Z</time></trkpt><trkpt lat="42.50518226711854" lon="-8.247070823147011"><ele>815.6666666666667</ele><time>2026-04-05T18:26:21.999Z</time></trkpt><trkpt lat="42.50524500046738" lon="-8.246870809401864"><ele>815.3333333333334</ele><time>2026-04-05T18:26:22.999Z</time></trkpt><trkpt lat="42.505304651019934" lon="-8.24667342929735"><ele>815.0</ele><time>2026-04-05T18:26:23.999Z</time></trkpt><trkpt lat="42.505360438294204" lon="-8.246481576816812"><ele>814.75</ele><time>2026-04-05T18:26:24.999Z</time></trkpt><trkpt lat="42.50541533718003" lon="-8.246288515744581"><ele>814.5</ele><time>2026-04-05T18:26:25.999Z</time></trkpt><trkpt lat="42.50546722244142" lon="-8.246101436500078"><ele>814.25</ele><time>2026-04-05T18:26:26.999Z</time></trkpt><trkpt lat="42.50551762194395" lon="-8.245914917369708"><ele>814.0</ele><time>2026-04-05T18:26:27.999Z</time></trkpt><trkpt lat="42.50556605895793" lon="-8.245727122485645"><ele>813.25</ele><time>2026-04-05T18:26:28.999Z</time></trkpt><trkpt lat="42.50562874331942" lon="-8.245545395926104"><ele>812.5</ele><time>2026-04-05T18:26:29.999Z</time></trkpt><trkpt lat="42.50567117275814" lon="-8.245352608656425"><ele>811.75</ele><time>2026-04-05T18:26:30.999Z</time></trkpt><trkpt lat="42.50571267990223" lon="-8.245160201931965"><ele>811.0</ele><time>2026-04-05T18:26:31.999Z</time></trkpt><trkpt lat="42.50574397818493" lon="-8.244969800824277"><ele>809.6666666666666</ele><time>2026-04-05T18:26:32.999Z</time></trkpt><trkpt lat="42.50574696990296" lon="-8.244770865383769"><ele>808.3333333333333</ele><time>2026-04-05T18:26:33.999Z</time></trkpt><trkpt lat="42.50575084791239" lon="-8.244565471958898"><ele>807.0</ele><time>2026-04-05T18:26:34.999Z</time></trkpt><trkpt lat="42.50574084768957" lon="-8.244342614358892"><ele>807.0</ele><time>2026-04-05T18:26:35.999Z</time></trkpt><trkpt lat="42.50567212524102" lon="-8.244125629487884"><ele>807.0</ele><time>2026-04-05T18:26:36.999Z</time></trkpt><trkpt lat="42.50558506742301" lon="-8.243913791933638"><ele>807.0</ele><time>2026-04-05T18:26:37.999Z</time></trkpt><trkpt lat="42.50547393412055" lon="-8.243716684362893"><ele>804.3333333333333</ele><time>2026-04-05T18:26:38.999Z</time></trkpt><trkpt lat="42.505332747877254" lon="-8.243546182817227"><ele>801.6666666666666</ele><time>2026-04-05T18:26:39.999Z</time></trkpt><trkpt lat="42.50518095216019" lon="-8.243385098742104"><ele>799.0</ele><time>2026-04-05T18:26:40.999Z</time></trkpt><trkpt lat="42.50503562636591" lon="-8.243236281962535"><ele>801.0</ele><time>2026-04-05T18:26:41.999Z</time></trkpt><trkpt lat="42.504904516974555" lon="-8.243081573674242"><ele>803.0</ele><time>2026-04-05T18:26:42.999Z</time></trkpt><trkpt lat="42.5047619347693" lon="-8.242958468430295"><ele>805.0</ele><time>2026-04-05T18:26:43.999Z</time></trkpt><trkpt lat="42.50463295776277" lon="-8.242810539521287"><ele>802.6666666666666</ele><time>2026-04-05T18:26:44.999Z</time></trkpt><trkpt lat="42.504498144457564" lon="-8.242687063158108"><ele>800.3333333333333</ele><time>2026-04-05T18:26:46Z</time></trkpt><trkpt lat="42.50438902183896" lon="-8.242534557266474"><ele>798.0</ele><time>2026-04-05T18:26:47Z</time></trkpt><trkpt lat="42.504262982241194" lon="-8.242399775295347"><ele>800.3333333333333</ele><time>2026-04-05T18:26:48Z</time></trkpt><trkpt lat="42.50415530617104" lon="-8.242247273024761"><ele>802.6666666666666</ele><time>2026-04-05T18:26:49Z</time></trkpt><trkpt lat="42.50405128553284" lon="-8.242097147067806"><ele>805.0</ele><time>2026-04-05T18:26:50Z</time></trkpt><trkpt lat="42.50395212178146" lon="-8.24195403136244"><ele>805.0</ele><time>2026-04-05T18:26:51Z</time></trkpt><trkpt lat="42.50385415940194" lon="-8.241812430017372"><ele>805.0</ele><time>2026-04-05T18:26:52Z</time></trkpt><trkpt lat="42.50375118730465" lon="-8.241672912013662"><ele>805.0</ele><time>2026-04-05T18:26:53Z</time></trkpt><trkpt lat="42.50364347061923" lon="-8.241537374116993"><ele>805.0</ele><time>2026-04-05T18:26:54Z</time></trkpt><trkpt lat="42.503532089200554" lon="-8.241404935137174"><ele>803.75</ele><time>2026-04-05T18:26:55Z</time></trkpt><trkpt lat="42.503422082424585" lon="-8.241284354135136"><ele>802.5</ele><time>2026-04-05T18:26:56Z</time></trkpt><trkpt lat="42.50331565793246" lon="-8.241157964327382"><ele>801.25</ele><time>2026-04-05T18:26:57Z</time></trkpt><trkpt lat="42.50322296407273" lon="-8.241006150125354"><ele>800.0</ele><time>2026-04-05T18:26:58Z</time></trkpt><trkpt lat="42.50314987011731" lon="-8.240819442677365"><ele>799.3333333333334</ele><time>2026-04-05T18:26:59Z</time></trkpt><trkpt lat="42.50311555966691" lon="-8.240599940761433"><ele>798.6666666666667</ele><time>2026-04-05T18:27:00Z</time></trkpt><trkpt lat="42.50306273348601" lon="-8.24038627606843"><ele>798.0</ele><time>2026-04-05T18:27:01Z</time></trkpt><trkpt lat="42.50302424728276" lon="-8.240162838454623"><ele>798.0</ele><time>2026-04-05T18:27:02Z</time></trkpt><trkpt lat="42.50299499793438" lon="-8.239952715215994"><ele>798.0</ele><time>2026-04-05T18:27:03Z</time></trkpt><trkpt lat="42.50291544889721" lon="-8.239767938060663"><ele>798.0</ele><time>2026-04-05T18:27:04Z</time></trkpt><trkpt lat="42.50281592619928" lon="-8.239601666150131"><ele>797.3333333333333</ele><time>2026-04-05T18:27:05Z</time></trkpt><trkpt lat="42.502696736965675" lon="-8.23947168853494"><ele>796.6666666666666</ele><time>2026-04-05T18:27:06Z</time></trkpt><trkpt lat="42.50256491888123" lon="-8.239372222570715"><ele>796.0</ele><time>2026-04-05T18:27:07Z</time></trkpt><trkpt lat="42.50240655900895" lon="-8.23935336356421"><ele>796.0</ele><time>2026-04-05T18:27:08Z</time></trkpt><trkpt lat="42.50226004341783" lon="-8.239289044816188"><ele>796.0</ele><time>2026-04-05T18:27:09Z</time></trkpt><trkpt lat="42.50211576684355" lon="-8.23926515856523"><ele>796.0</ele><time>2026-04-05T18:27:10Z</time></trkpt><trkpt lat="42.50197373042295" lon="-8.239239419767374"><ele>796.0</ele><time>2026-04-05T18:27:11Z</time></trkpt><trkpt lat="42.501833352121615" lon="-8.2392154759143"><ele>794.0</ele><time>2026-04-05T18:27:12Z</time></trkpt><trkpt lat="42.501694592407055" lon="-8.239209613085773"><ele>792.0</ele><time>2026-04-05T18:27:13Z</time></trkpt><trkpt lat="42.50154857753008" lon="-8.239142413759588"><ele>790.0</ele><time>2026-04-05T18:27:14Z</time></trkpt><trkpt lat="42.50140524786109" lon="-8.239038505242522"><ele>789.0</ele><time>2026-04-05T18:27:15Z</time></trkpt><trkpt lat="42.50127538081378" lon="-8.238898983409857"><ele>788.0</ele><time>2026-04-05T18:27:16Z</time></trkpt><trkpt lat="42.50115639155772" lon="-8.238735413083642"><ele>787.0</ele><time>2026-04-05T18:27:17Z</time></trkpt><trkpt lat="42.5010459498497" lon="-8.23856085498567"><ele>787.0</ele><time>2026-04-05T18:27:18Z</time></trkpt><trkpt lat="42.500942283466905" lon="-8.238380099258869"><ele>787.0</ele><time>2026-04-05T18:27:19Z</time></trkpt><trkpt lat="42.5008468938622" lon="-8.238206344359135"><ele>787.0</ele><time>2026-04-05T18:27:20Z</time></trkpt><trkpt lat="42.500757171642995" lon="-8.238037919515092"><ele>788.0</ele><time>2026-04-05T18:27:21Z</time></trkpt><trkpt lat="42.500669060850235" lon="-8.237867125919577"><ele>789.0</ele><time>2026-04-05T18:27:22Z</time></trkpt><trkpt lat="42.50057934219528" lon="-8.23769321559671"><ele>790.0</ele><time>2026-04-05T18:27:23Z</time></trkpt><trkpt lat="42.500489278838195" lon="-8.237518637183173"><ele>788.0</ele><time>2026-04-05T18:27:24Z</time></trkpt><trkpt lat="42.500398101469855" lon="-8.237341899309996"><ele>786.0</ele><time>2026-04-05T18:27:25Z</time></trkpt><trkpt lat="42.500306542510984" lon="-8.237164421827757"><ele>784.0</ele><time>2026-04-05T18:27:26Z</time></trkpt><trkpt lat="42.500215112979966" lon="-8.23698899106838"><ele>784.0</ele><time>2026-04-05T18:27:27Z</time></trkpt><trkpt lat="42.50012067928805" lon="-8.236812309473203"><ele>784.0</ele><time>2026-04-05T18:27:28Z</time></trkpt><trkpt lat="42.50001070848966" lon="-8.236649213422595"><ele>784.0</ele><time>2026-04-05T18:27:29Z</time></trkpt><trkpt lat="42.49988456600104" lon="-8.236500312988127"><ele>786.6666666666666</ele><time>2026-04-05T18:27:30Z</time></trkpt><trkpt lat="42.49974151095507" lon="-8.236375293225693"><ele>789.3333333333333</ele><time>2026-04-05T18:27:31Z</time></trkpt><trkpt lat="42.49957691099444" lon="-8.236280738857475"><ele>792.0</ele><time>2026-04-05T18:27:32Z</time></trkpt><trkpt lat="42.49940325446878" lon="-8.236209700029898"><ele>792.0</ele><time>2026-04-05T18:27:33Z</time></trkpt><trkpt lat="42.49922620307046" lon="-8.236133503738428"><ele>792.0</ele><time>2026-04-05T18:27:34Z</time></trkpt><trkpt lat="42.49904362929958" lon="-8.236066297771439"><ele>792.0</ele><time>2026-04-05T18:27:35Z</time></trkpt><trkpt lat="42.498855230276035" lon="-8.236011836157857"><ele>793.0</ele><time>2026-04-05T18:27:36Z</time></trkpt><trkpt lat="42.49869036720729" lon="-8.23590481193946"><ele>794.0</ele><time>2026-04-05T18:27:37Z</time></trkpt><trkpt lat="42.498536540902116" lon="-8.235772018906069"><ele>795.0</ele><time>2026-04-05T18:27:38Z</time></trkpt><trkpt lat="42.498392698379256" lon="-8.235616012367734"><ele>795.0</ele><time>2026-04-05T18:27:39Z</time></trkpt><trkpt lat="42.49825024313299" lon="-8.235451604672814"><ele>795.0</ele><time>2026-04-05T18:27:40Z</time></trkpt><trkpt lat="42.498115257389024" lon="-8.235290808197892"><ele>795.0</ele><time>2026-04-05T18:27:41Z</time></trkpt><trkpt lat="42.49798335323892" lon="-8.235136046908606"><ele>794.3333333333333</ele><time>2026-04-05T18:27:42Z</time></trkpt><trkpt lat="42.497852110599474" lon="-8.234982063256451"><ele>793.6666666666666</ele><time>2026-04-05T18:27:43Z</time></trkpt><trkpt lat="42.497721703412125" lon="-8.234829059828712"><ele>793.0</ele><time>2026-04-05T18:27:43.999Z</time></trkpt><trkpt lat="42.49759224588821" lon="-8.234675258425247"><ele>793.0</ele><time>2026-04-05T18:27:44.999Z</time></trkpt><trkpt lat="42.49746374733983" lon="-8.234519997951635"><ele>793.0</ele><time>2026-04-05T18:27:45.999Z</time></trkpt><trkpt lat="42.49733368618647" lon="-8.234362849439346"><ele>793.0</ele><time>2026-04-05T18:27:46.999Z</time></trkpt><trkpt lat="42.49720735375176" lon="-8.234210206140405"><ele>792.3333333333333</ele><time>2026-04-05T18:27:47.999Z</time></trkpt><trkpt lat="42.49707819352785" lon="-8.234056002114485"><ele>791.6666666666667</ele><time>2026-04-05T18:27:48.999Z</time></trkpt><trkpt lat="42.49694753644521" lon="-8.233901584059577"><ele>791.0</ele><time>2026-04-05T18:27:49.999Z</time></trkpt><trkpt lat="42.49683158379292" lon="-8.233715407941531"><ele>791.0</ele><time>2026-04-05T18:27:50.999Z</time></trkpt><trkpt lat="42.496693580811424" lon="-8.233548663258903"><ele>791.0</ele><time>2026-04-05T18:27:51.999Z</time></trkpt><trkpt lat="42.49656128039591" lon="-8.233368901292929"><ele>791.0</ele><time>2026-04-05T18:27:52.999Z</time></trkpt><trkpt lat="42.49643526406029" lon="-8.233173290829638"><ele>791.6666666666667</ele><time>2026-04-05T18:27:53.999Z</time></trkpt><trkpt lat="42.49631135141471" lon="-8.232977732195325"><ele>792.3333333333333</ele><time>2026-04-05T18:27:54.999Z</time></trkpt><trkpt lat="42.49624608134158" lon="-8.23271463789737"><ele>793.0</ele><time>2026-04-05T18:27:55.999Z</time></trkpt><trkpt lat="42.49618896499305" lon="-8.232454561588673"><ele>790.0</ele><time>2026-04-05T18:27:56.999Z</time></trkpt><trkpt lat="42.496151570392804" lon="-8.232179754526756"><ele>787.0</ele><time>2026-04-05T18:27:57.999Z</time></trkpt><trkpt lat="42.49612534643759" lon="-8.231896210043404"><ele>784.0</ele><time>2026-04-05T18:27:58.999Z</time></trkpt><trkpt lat="42.49607897158734" lon="-8.231616722606354"><ele>785.3333333333333</ele><time>2026-04-05T18:27:59.999Z</time></trkpt><trkpt lat="42.496049324886485" lon="-8.231331449849113"><ele>786.6666666666667</ele><time>2026-04-05T18:28:00.999Z</time></trkpt><trkpt lat="42.4960173077703" lon="-8.231028946560707"><ele>788.0</ele><time>2026-04-05T18:28:01.999Z</time></trkpt><trkpt lat="42.495985784762524" lon="-8.230735898465166"><ele>789.5</ele><time>2026-04-05T18:28:02.999Z</time></trkpt><trkpt lat="42.495953604951495" lon="-8.230436744553554"><ele>791.0</ele><time>2026-04-05T18:28:03.999Z</time></trkpt><trkpt lat="42.49589390505614" lon="-8.229881755019818"><ele>793.0</ele><time>2026-04-05T18:28:05.999Z</time></trkpt><trkpt lat="42.49586493850605" lon="-8.229613300162717"><ele>795.0</ele><time>2026-04-05T18:28:06.999Z</time></trkpt><trkpt lat="42.49583435962093" lon="-8.22934891600357"><ele>797.0</ele><time>2026-04-05T18:28:07.999Z</time></trkpt><trkpt lat="42.49580220634657" lon="-8.229083620615551"><ele>798.3333333333334</ele><time>2026-04-05T18:28:08.999Z</time></trkpt><trkpt lat="42.49576348587524" lon="-8.228824174101241"><ele>799.6666666666667</ele><time>2026-04-05T18:28:09.999Z</time></trkpt><trkpt lat="42.49571589279249" lon="-8.22856365091992"><ele>801.0</ele><time>2026-04-05T18:28:10.999Z</time></trkpt><trkpt lat="42.495652282350406" lon="-8.228306563323645"><ele>799.3333333333333</ele><time>2026-04-05T18:28:11.999Z</time></trkpt><trkpt lat="42.4955736300223" lon="-8.228055277346325"><ele>797.6666666666666</ele><time>2026-04-05T18:28:12.999Z</time></trkpt><trkpt lat="42.495498545560196" lon="-8.227812906963655"><ele>796.0</ele><time>2026-04-05T18:28:13.999Z</time></trkpt><trkpt lat="42.49537926647131" lon="-8.227587041506958"><ele>799.0</ele><time>2026-04-05T18:28:14.999Z</time></trkpt><trkpt lat="42.4952609998895" lon="-8.227366506953778"><ele>802.0</ele><time>2026-04-05T18:28:15.999Z</time></trkpt><trkpt lat="42.495131946468554" lon="-8.2271599737912"><ele>805.0</ele><time>2026-04-05T18:28:16.999Z</time></trkpt><trkpt lat="42.494993352106675" lon="-8.226969238651712"><ele>805.0</ele><time>2026-04-05T18:28:17.999Z</time></trkpt><trkpt lat="42.49484863268394" lon="-8.226791473203916"><ele>805.0</ele><time>2026-04-05T18:28:18.999Z</time></trkpt><trkpt lat="42.49469011151569" lon="-8.226623881581755"><ele>805.0</ele><time>2026-04-05T18:28:19.999Z</time></trkpt><trkpt lat="42.49452724189832" lon="-8.226463378216774"><ele>808.3333333333333</ele><time>2026-04-05T18:28:20.999Z</time></trkpt><trkpt lat="42.49437309245159" lon="-8.226282231346062"><ele>811.6666666666667</ele><time>2026-04-05T18:28:21.999Z</time></trkpt><trkpt lat="42.49421010608087" lon="-8.226122650597603"><ele>815.0</ele><time>2026-04-05T18:28:22.999Z</time></trkpt><trkpt lat="42.49404591639466" lon="-8.225959676990627"><ele>815.0</ele><time>2026-04-05T18:28:23.999Z</time></trkpt><trkpt lat="42.49389966278938" lon="-8.225805683127229"><ele>815.0</ele><time>2026-04-05T18:28:24.999Z</time></trkpt><trkpt lat="42.49375822496331" lon="-8.225657103935129"><ele>815.0</ele><time>2026-04-05T18:28:25.999Z</time></trkpt><trkpt lat="42.49360427525904" lon="-8.225513630615648"><ele>816.6666666666667</ele><time>2026-04-05T18:28:26.999Z</time></trkpt><trkpt lat="42.49346917514154" lon="-8.225343606135551"><ele>818.3333333333333</ele><time>2026-04-05T18:28:27.999Z</time></trkpt><trkpt lat="42.49334335035549" lon="-8.225158913715738"><ele>820.0</ele><time>2026-04-05T18:28:28.999Z</time></trkpt><trkpt lat="42.49322418210248" lon="-8.22496778490617"><ele>820.6666666666666</ele><time>2026-04-05T18:28:29.999Z</time></trkpt><trkpt lat="42.49311794439137" lon="-8.224759188907338"><ele>821.3333333333333</ele><time>2026-04-05T18:28:30.999Z</time></trkpt><trkpt lat="42.49302482101323" lon="-8.224539372163937"><ele>822.0</ele><time>2026-04-05T18:28:31.999Z</time></trkpt><trkpt lat="42.49294508652791" lon="-8.224308175718129"><ele>822.0</ele><time>2026-04-05T18:28:32.999Z</time></trkpt><trkpt lat="42.492883394386695" lon="-8.224068232191028"><ele>822.0</ele><time>2026-04-05T18:28:33.999Z</time></trkpt><trkpt lat="42.49283468463146" lon="-8.223828411891596"><ele>822.0</ele><time>2026-04-05T18:28:34.999Z</time></trkpt><trkpt lat="42.49279871480415" lon="-8.22358831375196"><ele>821.3333333333333</ele><time>2026-04-05T18:28:35.999Z</time></trkpt><trkpt lat="42.49278242299312" lon="-8.223354876253817"><ele>820.6666666666666</ele><time>2026-04-05T18:28:36.999Z</time></trkpt><trkpt lat="42.492776943162085" lon="-8.223118184372787"><ele>820.0</ele><time>2026-04-05T18:28:37.999Z</time></trkpt><trkpt lat="42.49277464020475" lon="-8.222883908629786"><ele>818.3333333333333</ele><time>2026-04-05T18:28:38.999Z</time></trkpt><trkpt lat="42.49277296361718" lon="-8.22264378746565"><ele>816.6666666666667</ele><time>2026-04-05T18:28:39.999Z</time></trkpt><trkpt lat="42.492771317257485" lon="-8.222407995557528"><ele>815.0</ele><time>2026-04-05T18:28:40.999Z</time></trkpt><trkpt lat="42.49276968296204" lon="-8.222173931290417"><ele>814.0</ele><time>2026-04-05T18:28:41.999Z</time></trkpt><trkpt lat="42.49276169182363" lon="-8.221940775360144"><ele>813.0</ele><time>2026-04-05T18:28:42.999Z</time></trkpt><trkpt lat="42.49274692741013" lon="-8.221702897178053"><ele>812.0</ele><time>2026-04-05T18:28:43.999Z</time></trkpt><trkpt lat="42.492715479784344" lon="-8.221468056386078"><ele>809.3333333333334</ele><time>2026-04-05T18:28:44.999Z</time></trkpt><trkpt lat="42.49267012178497" lon="-8.22123263685757"><ele>806.6666666666667</ele><time>2026-04-05T18:28:45.999Z</time></trkpt><trkpt lat="42.492616101760476" lon="-8.220998701462856"><ele>804.0</ele><time>2026-04-05T18:28:46.999Z</time></trkpt><trkpt lat="42.492551225452466" lon="-8.220768482340356"><ele>799.0</ele><time>2026-04-05T18:28:47.999Z</time></trkpt><trkpt lat="42.49248326086643" lon="-8.220540062666155"><ele>794.0</ele><time>2026-04-05T18:28:48.999Z</time></trkpt><trkpt lat="42.49241292742854" lon="-8.220312619221534"><ele>789.0</ele><time>2026-04-05T18:28:49.999Z</time></trkpt><trkpt lat="42.49234032571224" lon="-8.220082791867735"><ele>789.0</ele><time>2026-04-05T18:28:50.999Z</time></trkpt><trkpt lat="42.492263143619354" lon="-8.21984517754366"><ele>789.0</ele><time>2026-04-05T18:28:52Z</time></trkpt><trkpt lat="42.492182427507046" lon="-8.21960219301843"><ele>789.0</ele><time>2026-04-05T18:28:53Z</time></trkpt><trkpt lat="42.4920976727851" lon="-8.219355537517867"><ele>793.6666666666667</ele><time>2026-04-05T18:28:54Z</time></trkpt><trkpt lat="42.492004977464255" lon="-8.21909912736458"><ele>798.3333333333334</ele><time>2026-04-05T18:28:55Z</time></trkpt><trkpt lat="42.491910198158095" lon="-8.218856291731003"><ele>803.0</ele><time>2026-04-05T18:28:56Z</time></trkpt><trkpt lat="42.491813676396305" lon="-8.21862322994229"><ele>803.0</ele><time>2026-04-05T18:28:57Z</time></trkpt><trkpt lat="42.49171760296019" lon="-8.21839754623837"><ele>803.0</ele><time>2026-04-05T18:28:58Z</time></trkpt><trkpt lat="42.491624746020754" lon="-8.218179418266477"><ele>803.0</ele><time>2026-04-05T18:28:59Z</time></trkpt><trkpt lat="42.491539843361316" lon="-8.217965905915994"><ele>796.6666666666667</ele><time>2026-04-05T18:29:00Z</time></trkpt><trkpt lat="42.49146425731044" lon="-8.217746707899588"><ele>790.3333333333333</ele><time>2026-04-05T18:29:01Z</time></trkpt><trkpt lat="42.49141434872883" lon="-8.21752611707453"><ele>784.0</ele><time>2026-04-05T18:29:02Z</time></trkpt><trkpt lat="42.49138646506182" lon="-8.217301431908496"><ele>783.0</ele><time>2026-04-05T18:29:03Z</time></trkpt><trkpt lat="42.491383465685416" lon="-8.217052607270107"><ele>782.0</ele><time>2026-04-05T18:29:04Z</time></trkpt><trkpt lat="42.4914091984321" lon="-8.21680863827317"><ele>781.0</ele><time>2026-04-05T18:29:05Z</time></trkpt><trkpt lat="42.49144006619783" lon="-8.216554458071824"><ele>781.0</ele><time>2026-04-05T18:29:06Z</time></trkpt><trkpt lat="42.49144989030884" lon="-8.216302703999183"><ele>781.0</ele><time>2026-04-05T18:29:07Z</time></trkpt><trkpt lat="42.4914495974858" lon="-8.216059077843527"><ele>781.0</ele><time>2026-04-05T18:29:08Z</time></trkpt><trkpt lat="42.49147044415369" lon="-8.215804471566825"><ele>779.0</ele><time>2026-04-05T18:29:09Z</time></trkpt><trkpt lat="42.49142357490915" lon="-8.215550549142447"><ele>777.0</ele><time>2026-04-05T18:29:10Z</time></trkpt><trkpt lat="42.491343139098355" lon="-8.215315896011328"><ele>775.0</ele><time>2026-04-05T18:29:11Z</time></trkpt><trkpt lat="42.4912384606556" lon="-8.215097965092356"><ele>777.3333333333333</ele><time>2026-04-05T18:29:12Z</time></trkpt><trkpt lat="42.49107642949825" lon="-8.214951204014136"><ele>779.6666666666667</ele><time>2026-04-05T18:29:13Z</time></trkpt><trkpt lat="42.49092525980792" lon="-8.214811471485312"><ele>782.0</ele><time>2026-04-05T18:29:14Z</time></trkpt><trkpt lat="42.49075303579363" lon="-8.214711971348642"><ele>782.0</ele><time>2026-04-05T18:29:15Z</time></trkpt><trkpt lat="42.49056506411014" lon="-8.214646957293526"><ele>782.0</ele><time>2026-04-05T18:29:16Z</time></trkpt><trkpt lat="42.49037106509152" lon="-8.21460205053122"><ele>782.0</ele><time>2026-04-05T18:29:17Z</time></trkpt><trkpt lat="42.49017846794937" lon="-8.214578193816676"><ele>779.3333333333334</ele><time>2026-04-05T18:29:18Z</time></trkpt><trkpt lat="42.48998980761632" lon="-8.214543863106206"><ele>776.6666666666667</ele><time>2026-04-05T18:29:19Z</time></trkpt><trkpt lat="42.489810243121156" lon="-8.214504341214601"><ele>774.0</ele><time>2026-04-05T18:29:20Z</time></trkpt><trkpt lat="42.4896365974415" lon="-8.214458022702823"><ele>774.6666666666667</ele><time>2026-04-05T18:29:21Z</time></trkpt><trkpt lat="42.489458945009844" lon="-8.214390255483568"><ele>775.3333333333334</ele><time>2026-04-05T18:29:22Z</time></trkpt><trkpt lat="42.48928367416449" lon="-8.214295170893415"><ele>776.0</ele><time>2026-04-05T18:29:23Z</time></trkpt><trkpt lat="42.48910703987598" lon="-8.214163385431467"><ele>776.0</ele><time>2026-04-05T18:29:24Z</time></trkpt><trkpt lat="42.48893805666451" lon="-8.214008053919798"><ele>776.0</ele><time>2026-04-05T18:29:25Z</time></trkpt><trkpt lat="42.4887719731928" lon="-8.213835343685084"><ele>776.0</ele><time>2026-04-05T18:29:26Z</time></trkpt><trkpt lat="42.488614205676896" lon="-8.213671065228095"><ele>773.3333333333334</ele><time>2026-04-05T18:29:27Z</time></trkpt><trkpt lat="42.48846288578197" lon="-8.213511796293078"><ele>770.6666666666667</ele><time>2026-04-05T18:29:28Z</time></trkpt><trkpt lat="42.48831476116601" lon="-8.213354558989204"><ele>768.0</ele><time>2026-04-05T18:29:29Z</time></trkpt><trkpt lat="42.48816734842583" lon="-8.21319838162034"><ele>765.6666666666666</ele><time>2026-04-05T18:29:30Z</time></trkpt><trkpt lat="42.48801586753603" lon="-8.213037952121988"><ele>763.3333333333333</ele><time>2026-04-05T18:29:31Z</time></trkpt><trkpt lat="42.48786851056042" lon="-8.212876893885634"><ele>761.0</ele><time>2026-04-05T18:29:32Z</time></trkpt><trkpt lat="42.487730159566404" lon="-8.212702978921666"><ele>761.0</ele><time>2026-04-05T18:29:33Z</time></trkpt><trkpt lat="42.48760005356229" lon="-8.21251551990604"><ele>761.0</ele><time>2026-04-05T18:29:34Z</time></trkpt><trkpt lat="42.4874830702656" lon="-8.212302856618189"><ele>761.0</ele><time>2026-04-05T18:29:35Z</time></trkpt><trkpt lat="42.487387310181184" lon="-8.212073259099437"><ele>758.0</ele><time>2026-04-05T18:29:36Z</time></trkpt><trkpt lat="42.48732455792815" lon="-8.211822054722909"><ele>755.0</ele><time>2026-04-05T18:29:37Z</time></trkpt><trkpt lat="42.48725225254645" lon="-8.211574324082873"><ele>752.0</ele><time>2026-04-05T18:29:38Z</time></trkpt><trkpt lat="42.48722676630132" lon="-8.211305515676173"><ele>751.3333333333333</ele><time>2026-04-05T18:29:39Z</time></trkpt><trkpt lat="42.48720364490948" lon="-8.211040088761608"><ele>750.6666666666666</ele><time>2026-04-05T18:29:40Z</time></trkpt><trkpt lat="42.4872030210157" lon="-8.210770254888395"><ele>750.0</ele><time>2026-04-05T18:29:41Z</time></trkpt><trkpt lat="42.48722070894738" lon="-8.21050124950159"><ele>749.6666666666666</ele><time>2026-04-05T18:29:42Z</time></trkpt><trkpt lat="42.48724968019205" lon="-8.2102417164728"><ele>749.3333333333333</ele><time>2026-04-05T18:29:43Z</time></trkpt><trkpt lat="42.487281512298566" lon="-8.209997139237032"><ele>749.0</ele><time>2026-04-05T18:29:44Z</time></trkpt><trkpt lat="42.48731146261921" lon="-8.209756375340927"><ele>747.3333333333333</ele><time>2026-04-05T18:29:45Z</time></trkpt><trkpt lat="42.4873348995153" lon="-8.209520181166877"><ele>745.6666666666666</ele><time>2026-04-05T18:29:46Z</time></trkpt><trkpt lat="42.48735720365726" lon="-8.20929549593"><ele>744.0</ele><time>2026-04-05T18:29:46.999Z</time></trkpt><trkpt lat="42.48735509432054" lon="-8.20907006773005"><ele>743.0</ele><time>2026-04-05T18:29:47.999Z</time></trkpt><trkpt lat="42.48735720572349" lon="-8.208845906603399"><ele>742.0</ele><time>2026-04-05T18:29:48.999Z</time></trkpt><trkpt lat="42.48734867377209" lon="-8.208615262088573"><ele>741.0</ele><time>2026-04-05T18:29:49.999Z</time></trkpt><trkpt lat="42.48732887353876" lon="-8.208377016227637"><ele>739.3333333333334</ele><time>2026-04-05T18:29:50.999Z</time></trkpt><trkpt lat="42.4872983350852" lon="-8.20814063659962"><ele>737.6666666666667</ele><time>2026-04-05T18:29:51.999Z</time></trkpt><trkpt lat="42.487252569807424" lon="-8.207903091928936"><ele>736.0</ele><time>2026-04-05T18:29:52.999Z</time></trkpt><trkpt lat="42.487192768238295" lon="-8.207667199983986"><ele>736.0</ele><time>2026-04-05T18:29:53.999Z</time></trkpt><trkpt lat="42.48711624032327" lon="-8.207430823257162"><ele>736.0</ele><time>2026-04-05T18:29:54.999Z</time></trkpt><trkpt lat="42.487028252832836" lon="-8.207193713034043"><ele>736.0</ele><time>2026-04-05T18:29:55.999Z</time></trkpt><trkpt lat="42.48691992315665" lon="-8.20695031658206"><ele>738.3333333333334</ele><time>2026-04-05T18:29:56.999Z</time></trkpt><trkpt lat="42.48680255292941" lon="-8.206708092358538"><ele>740.6666666666666</ele><time>2026-04-05T18:29:57.999Z</time></trkpt><trkpt lat="42.48667050541089" lon="-8.206463409912036"><ele>743.0</ele><time>2026-04-05T18:29:58.999Z</time></trkpt><trkpt lat="42.486537015451134" lon="-8.206216054630241"><ele>738.3333333333333</ele><time>2026-04-05T18:29:59.999Z</time></trkpt><trkpt lat="42.48640665977345" lon="-8.205974005410678"><ele>733.6666666666666</ele><time>2026-04-05T18:30:00.999Z</time></trkpt><trkpt lat="42.486291069411855" lon="-8.205730668976559"><ele>729.0</ele><time>2026-04-05T18:30:01.999Z</time></trkpt><trkpt lat="42.48619089562111" lon="-8.205485868554199"><ele>729.0</ele><time>2026-04-05T18:30:02.999Z</time></trkpt><trkpt lat="42.48611837797207" lon="-8.20522355585808"><ele>729.0</ele><time>2026-04-05T18:30:03.999Z</time></trkpt><trkpt lat="42.48605134899478" lon="-8.204950727537593"><ele>729.0</ele><time>2026-04-05T18:30:04.999Z</time></trkpt><trkpt lat="42.48600636904459" lon="-8.204665213662336"><ele>727.6666666666666</ele><time>2026-04-05T18:30:05.999Z</time></trkpt><trkpt lat="42.4859853857305" lon="-8.204372098769612"><ele>726.3333333333333</ele><time>2026-04-05T18:30:06.999Z</time></trkpt><trkpt lat="42.4859826265409" lon="-8.204071991052494"><ele>725.0</ele><time>2026-04-05T18:30:07.999Z</time></trkpt><trkpt lat="42.48599152463126" lon="-8.203769318912487"><ele>724.6666666666666</ele><time>2026-04-05T18:30:08.999Z</time></trkpt><trkpt lat="42.48600740176981" lon="-8.20347524882278"><ele>724.3333333333334</ele><time>2026-04-05T18:30:09.999Z</time></trkpt><trkpt lat="42.486003116995505" lon="-8.203172476155704"><ele>724.0</ele><time>2026-04-05T18:30:10.999Z</time></trkpt><trkpt lat="42.48601623813181" lon="-8.202871440996097"><ele>723.3333333333334</ele><time>2026-04-05T18:30:11.999Z</time></trkpt><trkpt lat="42.486027158147785" lon="-8.202574521044758"><ele>722.6666666666666</ele><time>2026-04-05T18:30:12.999Z</time></trkpt><trkpt lat="42.48602656605825" lon="-8.202273620994834"><ele>722.0</ele><time>2026-04-05T18:30:13.999Z</time></trkpt><trkpt lat="42.486011849924175" lon="-8.20198248139043"><ele>719.6666666666666</ele><time>2026-04-05T18:30:14.999Z</time></trkpt><trkpt lat="42.48598173319133" lon="-8.201697519918383"><ele>717.3333333333334</ele><time>2026-04-05T18:30:15.999Z</time></trkpt><trkpt lat="42.48593544291126" lon="-8.201424790131941"><ele>715.0</ele><time>2026-04-05T18:30:16.999Z</time></trkpt><trkpt lat="42.485872673094796" lon="-8.201142673538019"><ele>712.6666666666667</ele><time>2026-04-05T18:30:17.999Z</time></trkpt><trkpt lat="42.48578653349472" lon="-8.200866941874942"><ele>710.3333333333334</ele><time>2026-04-05T18:30:18.999Z</time></trkpt><trkpt lat="42.48568646893799" lon="-8.200604483865922"><ele>708.0</ele><time>2026-04-05T18:30:19.999Z</time></trkpt><trkpt lat="42.48557019361213" lon="-8.200353975834656"><ele>708.6666666666666</ele><time>2026-04-05T18:30:20.999Z</time></trkpt><trkpt lat="42.485445923337025" lon="-8.200122607792853"><ele>709.3333333333333</ele><time>2026-04-05T18:30:21.999Z</time></trkpt><trkpt lat="42.485319907550746" lon="-8.19989848333668"><ele>710.0</ele><time>2026-04-05T18:30:22.999Z</time></trkpt><trkpt lat="42.48519643884155" lon="-8.199681372633071"><ele>705.6666666666666</ele><time>2026-04-05T18:30:23.999Z</time></trkpt><trkpt lat="42.485073396376805" lon="-8.199459131030606"><ele>701.3333333333334</ele><time>2026-04-05T18:30:24.999Z</time></trkpt><trkpt lat="42.48496637721858" lon="-8.199215669642802"><ele>697.0</ele><time>2026-04-05T18:30:25.999Z</time></trkpt><trkpt lat="42.484844676141236" lon="-8.198976530159026"><ele>693.6666666666667</ele><time>2026-04-05T18:30:26.999Z</time></trkpt><trkpt lat="42.484755129876966" lon="-8.198701579265562"><ele>690.3333333333334</ele><time>2026-04-05T18:30:27.999Z</time></trkpt><trkpt lat="42.484701872513384" lon="-8.19841312701658"><ele>687.0</ele><time>2026-04-05T18:30:28.999Z</time></trkpt><trkpt lat="42.48465922398158" lon="-8.198110780595961"><ele>683.5</ele><time>2026-04-05T18:30:29.999Z</time></trkpt><trkpt lat="42.48463500470133" lon="-8.197797207544074"><ele>680.0</ele><time>2026-04-05T18:30:30.999Z</time></trkpt><trkpt lat="42.48460711537329" lon="-8.197496961591504"><ele>686.6666666666666</ele><time>2026-04-05T18:30:31.999Z</time></trkpt><trkpt lat="42.48456523839653" lon="-8.197212760747696"><ele>693.3333333333334</ele><time>2026-04-05T18:30:32.999Z</time></trkpt><trkpt lat="42.48453632255885" lon="-8.196933682458072"><ele>700.0</ele><time>2026-04-05T18:30:33.999Z</time></trkpt><trkpt lat="42.48449733733315" lon="-8.196670166280175"><ele>696.6666666666667</ele><time>2026-04-05T18:30:34.999Z</time></trkpt><trkpt lat="42.48444351396194" lon="-8.19640887022347"><ele>693.3333333333334</ele><time>2026-04-05T18:30:35.999Z</time></trkpt><trkpt lat="42.484377001901876" lon="-8.196165846442165"><ele>690.0</ele><time>2026-04-05T18:30:36.999Z</time></trkpt><trkpt lat="42.484309274836136" lon="-8.195918236715801"><ele>690.0</ele><time>2026-04-05T18:30:37.999Z</time></trkpt><trkpt lat="42.48421532384034" lon="-8.19568944548129"><ele>690.0</ele><time>2026-04-05T18:30:38.999Z</time></trkpt><trkpt lat="42.48410877363406" lon="-8.195470563114554"><ele>690.0</ele><time>2026-04-05T18:30:39.999Z</time></trkpt><trkpt lat="42.483990338213104" lon="-8.195259686977373"><ele>691.6666666666666</ele><time>2026-04-05T18:30:40.999Z</time></trkpt><trkpt lat="42.483859937715366" lon="-8.19505353298466"><ele>693.3333333333333</ele><time>2026-04-05T18:30:41.999Z</time></trkpt><trkpt lat="42.48371796644188" lon="-8.194847156238891"><ele>695.0</ele><time>2026-04-05T18:30:42.999Z</time></trkpt><trkpt lat="42.48356332904231" lon="-8.194632306013643"><ele>687.0</ele><time>2026-04-05T18:30:43.999Z</time></trkpt><trkpt lat="42.483407313917674" lon="-8.19440522646979"><ele>679.0</ele><time>2026-04-05T18:30:44.999Z</time></trkpt><trkpt lat="42.483251297118485" lon="-8.194172096338882"><ele>675.0</ele><time>2026-04-05T18:30:45.999Z</time></trkpt><trkpt lat="42.48309256750851" lon="-8.193931317203184"><ele>671.0</ele><time>2026-04-05T18:30:46.999Z</time></trkpt><trkpt lat="42.48292373016004" lon="-8.193689033548779"><ele>671.0</ele><time>2026-04-05T18:30:47.999Z</time></trkpt><trkpt lat="42.482755659096405" lon="-8.193442108560841"><ele>671.0</ele><time>2026-04-05T18:30:48.999Z</time></trkpt><trkpt lat="42.482587163248475" lon="-8.193188517756509"><ele>666.5</ele><time>2026-04-05T18:30:49.999Z</time></trkpt><trkpt lat="42.48242156431476" lon="-8.192927749294398"><ele>662.0</ele><time>2026-04-05T18:30:50.999Z</time></trkpt><trkpt lat="42.48225111832511" lon="-8.192664170117446"><ele>662.0</ele><time>2026-04-05T18:30:51.999Z</time></trkpt><trkpt lat="42.48208538801384" lon="-8.192395662228327"><ele>662.0</ele><time>2026-04-05T18:30:52.999Z</time></trkpt><trkpt lat="42.48191927401862" lon="-8.19212627491553"><ele>662.0</ele><time>2026-04-05T18:30:53.999Z</time></trkpt><trkpt lat="42.48176419517988" lon="-8.19186388586515"><ele>662.0</ele><time>2026-04-05T18:30:54.999Z</time></trkpt><trkpt lat="42.48159607909323" lon="-8.19161572346757"><ele>658.5</ele><time>2026-04-05T18:30:55.999Z</time></trkpt><trkpt lat="42.48144975845946" lon="-8.191331997777008"><ele>655.0</ele><time>2026-04-05T18:30:56.999Z</time></trkpt><trkpt lat="42.481291058879776" lon="-8.191060517970593"><ele>657.0</ele><time>2026-04-05T18:30:58Z</time></trkpt><trkpt lat="42.48113101546403" lon="-8.190781741413444"><ele>659.0</ele><time>2026-04-05T18:30:59Z</time></trkpt><trkpt lat="42.48097555642005" lon="-8.19050728397721"><ele>659.0</ele><time>2026-04-05T18:31:00Z</time></trkpt><trkpt lat="42.480828895155014" lon="-8.190243069518944"><ele>659.0</ele><time>2026-04-05T18:31:01Z</time></trkpt><trkpt lat="42.48068014066903" lon="-8.189981311533705"><ele>655.0</ele><time>2026-04-05T18:31:02Z</time></trkpt><trkpt lat="42.48053103494167" lon="-8.189712164735509"><ele>651.0</ele><time>2026-04-05T18:31:03Z</time></trkpt><trkpt lat="42.480389810176945" lon="-8.189438264166746"><ele>651.0</ele><time>2026-04-05T18:31:04Z</time></trkpt><trkpt lat="42.48022919210952" lon="-8.189190749635337"><ele>651.0</ele><time>2026-04-05T18:31:05Z</time></trkpt><trkpt lat="42.480085392396646" lon="-8.18893584589653"><ele>645.0</ele><time>2026-04-05T18:31:06Z</time></trkpt><trkpt lat="42.47994655153182" lon="-8.188688893786676"><ele>639.0</ele><time>2026-04-05T18:31:07Z</time></trkpt><trkpt lat="42.47981141032002" lon="-8.18845329511956"><ele>633.0</ele><time>2026-04-05T18:31:08Z</time></trkpt><trkpt lat="42.47966726523288" lon="-8.188241160824681"><ele>631.3333333333334</ele><time>2026-04-05T18:31:09Z</time></trkpt><trkpt lat="42.479509567564136" lon="-8.188076531554442"><ele>629.6666666666667</ele><time>2026-04-05T18:31:10Z</time></trkpt><trkpt lat="42.47933376983134" lon="-8.187953665657513"><ele>628.0</ele><time>2026-04-05T18:31:11Z</time></trkpt><trkpt lat="42.479133651648816" lon="-8.187869565628274"><ele>628.0</ele><time>2026-04-05T18:31:12Z</time></trkpt><trkpt lat="42.4789413405815" lon="-8.187838456339534"><ele>628.0</ele><time>2026-04-05T18:31:13Z</time></trkpt><trkpt lat="42.47873962103558" lon="-8.187841583647595"><ele>628.0</ele><time>2026-04-05T18:31:14Z</time></trkpt><trkpt lat="42.478546568317455" lon="-8.187885685723751"><ele>626.6666666666667</ele><time>2026-04-05T18:31:15Z</time></trkpt><trkpt lat="42.4783602282389" lon="-8.187917283684966"><ele>625.3333333333334</ele><time>2026-04-05T18:31:16Z</time></trkpt><trkpt lat="42.47817709677641" lon="-8.187910455263752"><ele>624.0</ele><time>2026-04-05T18:31:17Z</time></trkpt><trkpt lat="42.477987128168714" lon="-8.187876762386662"><ele>624.6666666666666</ele><time>2026-04-05T18:31:18Z</time></trkpt><trkpt lat="42.477799628889976" lon="-8.187805705079002"><ele>625.3333333333333</ele><time>2026-04-05T18:31:19Z</time></trkpt><trkpt lat="42.4776300186279" lon="-8.18768734238549"><ele>626.0</ele><time>2026-04-05T18:31:20Z</time></trkpt><trkpt lat="42.47747821706647" lon="-8.187525891557199"><ele>624.0</ele><time>2026-04-05T18:31:21Z</time></trkpt><trkpt lat="42.477341492403966" lon="-8.187340432552585"><ele>622.0</ele><time>2026-04-05T18:31:22Z</time></trkpt><trkpt lat="42.477215510126435" lon="-8.187140070319687"><ele>620.0</ele><time>2026-04-05T18:31:23Z</time></trkpt><trkpt lat="42.47707098126589" lon="-8.1869627566552"><ele>620.0</ele><time>2026-04-05T18:31:24Z</time></trkpt><trkpt lat="42.47692799766432" lon="-8.186794561625852"><ele>620.0</ele><time>2026-04-05T18:31:25Z</time></trkpt><trkpt lat="42.47676757613515" lon="-8.186657362634753"><ele>620.0</ele><time>2026-04-05T18:31:26Z</time></trkpt><trkpt lat="42.47659120388813" lon="-8.1865602241207"><ele>615.6666666666666</ele><time>2026-04-05T18:31:27Z</time></trkpt><trkpt lat="42.476413408527954" lon="-8.186477191954095"><ele>611.3333333333334</ele><time>2026-04-05T18:31:28Z</time></trkpt><trkpt lat="42.47624176565219" lon="-8.186400931916726"><ele>607.0</ele><time>2026-04-05T18:31:29Z</time></trkpt><trkpt lat="42.476074738728464" lon="-8.18631697761464"><ele>607.0</ele><time>2026-04-05T18:31:30Z</time></trkpt><trkpt lat="42.47591895992974" lon="-8.186212904385364"><ele>607.0</ele><time>2026-04-05T18:31:31Z</time></trkpt><trkpt lat="42.475766222895224" lon="-8.186075725482567"><ele>607.0</ele><time>2026-04-05T18:31:32Z</time></trkpt><trkpt lat="42.47564082709442" lon="-8.185893566082505"><ele>607.0</ele><time>2026-04-05T18:31:33Z</time></trkpt><trkpt lat="42.47553387978599" lon="-8.185691963162178"><ele>607.0</ele><time>2026-04-05T18:31:34Z</time></trkpt><trkpt lat="42.47546210171385" lon="-8.185462209943426"><ele>607.0</ele><time>2026-04-05T18:31:35Z</time></trkpt><trkpt lat="42.47540928871546" lon="-8.185224156836512"><ele>608.3333333333334</ele><time>2026-04-05T18:31:36Z</time></trkpt><trkpt lat="42.47537746665204" lon="-8.184975498348283"><ele>609.6666666666666</ele><time>2026-04-05T18:31:37Z</time></trkpt><trkpt lat="42.47536600068143" lon="-8.18473500393539"><ele>611.0</ele><time>2026-04-05T18:31:38Z</time></trkpt><trkpt lat="42.475334923573435" lon="-8.184507656258418"><ele>611.0</ele><time>2026-04-05T18:31:39Z</time></trkpt><trkpt lat="42.4753044479846" lon="-8.184291130293541"><ele>611.0</ele><time>2026-04-05T18:31:40Z</time></trkpt><trkpt lat="42.475257543118694" lon="-8.184074809957412"><ele>611.0</ele><time>2026-04-05T18:31:41Z</time></trkpt><trkpt lat="42.47518562118511" lon="-8.183865997662545"><ele>605.3333333333333</ele><time>2026-04-05T18:31:42Z</time></trkpt><trkpt lat="42.47508946698635" lon="-8.18367075131288"><ele>599.6666666666666</ele><time>2026-04-05T18:31:43Z</time></trkpt><trkpt lat="42.47497655054237" lon="-8.183465157217842"><ele>594.0</ele><time>2026-04-05T18:31:44Z</time></trkpt><trkpt lat="42.47481880321164" lon="-8.18333113506844"><ele>594.0</ele><time>2026-04-05T18:31:45Z</time></trkpt><trkpt lat="42.474651512525625" lon="-8.183203782836683"><ele>594.0</ele><time>2026-04-05T18:31:46Z</time></trkpt><trkpt lat="42.47447479360961" lon="-8.183117713706851"><ele>594.0</ele><time>2026-04-05T18:31:47Z</time></trkpt><trkpt lat="42.474298809539434" lon="-8.18306838928831"><ele>591.6666666666666</ele><time>2026-04-05T18:31:48Z</time></trkpt><trkpt lat="42.47412813495735" lon="-8.183063588418236"><ele>589.3333333333333</ele><time>2026-04-05T18:31:49Z</time></trkpt><trkpt lat="42.47394544171155" lon="-8.183066234705361"><ele>587.0</ele><time>2026-04-05T18:31:50Z</time></trkpt><trkpt lat="42.47375237773327" lon="-8.183129344333553"><ele>588.0</ele><time>2026-04-05T18:31:50.999Z</time></trkpt><trkpt lat="42.47355993023325" lon="-8.183193694242515"><ele>589.0</ele><time>2026-04-05T18:31:51.999Z</time></trkpt><trkpt lat="42.47334993131039" lon="-8.183261065904945"><ele>590.0</ele><time>2026-04-05T18:31:52.999Z</time></trkpt><trkpt lat="42.473134955833494" lon="-8.183320167352187"><ele>586.0</ele><time>2026-04-05T18:31:53.999Z</time></trkpt><trkpt lat="42.47292204606948" lon="-8.183411793153619"><ele>582.0</ele><time>2026-04-05T18:31:54.999Z</time></trkpt><trkpt lat="42.47271680675437" lon="-8.183480354567507"><ele>578.0</ele><time>2026-04-05T18:31:55.999Z</time></trkpt><trkpt lat="42.47250274697868" lon="-8.18355186234412"><ele>578.0</ele><time>2026-04-05T18:31:56.999Z</time></trkpt><trkpt lat="42.472282715225305" lon="-8.183623346485861"><ele>578.0</ele><time>2026-04-05T18:31:57.999Z</time></trkpt><trkpt lat="42.47206996961413" lon="-8.183689003233598"><ele>578.0</ele><time>2026-04-05T18:31:58.999Z</time></trkpt><trkpt lat="42.47186197947318" lon="-8.183746248382958"><ele>575.6666666666666</ele><time>2026-04-05T18:31:59.999Z</time></trkpt><trkpt lat="42.471645614128825" lon="-8.183798003151834"><ele>573.3333333333334</ele><time>2026-04-05T18:32:00.999Z</time></trkpt><trkpt lat="42.471428225796586" lon="-8.183845566163"><ele>571.0</ele><time>2026-04-05T18:32:01.999Z</time></trkpt><trkpt lat="42.471201344824536" lon="-8.183887991046257"><ele>571.0</ele><time>2026-04-05T18:32:02.999Z</time></trkpt><trkpt lat="42.47096516942548" lon="-8.18390522458741"><ele>571.0</ele><time>2026-04-05T18:32:03.999Z</time></trkpt><trkpt lat="42.47073208449765" lon="-8.183940767572341"><ele>571.0</ele><time>2026-04-05T18:32:04.999Z</time></trkpt><trkpt lat="42.47049769898076" lon="-8.183975760209067"><ele>571.0</ele><time>2026-04-05T18:32:05.999Z</time></trkpt><trkpt lat="42.47027215319829" lon="-8.18399644417068"><ele>573.0</ele><time>2026-04-05T18:32:06.999Z</time></trkpt><trkpt lat="42.470051328389495" lon="-8.184019004718133"><ele>575.0</ele><time>2026-04-05T18:32:07.999Z</time></trkpt><trkpt lat="42.46982945609552" lon="-8.184034383922953"><ele>577.0</ele><time>2026-04-05T18:32:08.999Z</time></trkpt><trkpt lat="42.46959954528522" lon="-8.184063741172894"><ele>571.0</ele><time>2026-04-05T18:32:09.999Z</time></trkpt><trkpt lat="42.469358593340104" lon="-8.184076176556083"><ele>565.0</ele><time>2026-04-05T18:32:10.999Z</time></trkpt><trkpt lat="42.46912246926006" lon="-8.18408179488209"><ele>565.0</ele><time>2026-04-05T18:32:11.999Z</time></trkpt><trkpt lat="42.46887314585297" lon="-8.184079320082889"><ele>565.0</ele><time>2026-04-05T18:32:12.999Z</time></trkpt><trkpt lat="42.46862271093629" lon="-8.184071014565722"><ele>561.5</ele><time>2026-04-05T18:32:13.999Z</time></trkpt><trkpt lat="42.46837257016196" lon="-8.184013537258416"><ele>558.0</ele><time>2026-04-05T18:32:14.999Z</time></trkpt><trkpt lat="42.46811277568803" lon="-8.184000952656165"><ele>547.0</ele><time>2026-04-05T18:32:15.999Z</time></trkpt><trkpt lat="42.46785337139121" lon="-8.183987326604601"><ele>536.0</ele><time>2026-04-05T18:32:16.999Z</time></trkpt><trkpt lat="42.46759288595484" lon="-8.18397399856849"><ele>542.0</ele><time>2026-04-05T18:32:17.999Z</time></trkpt><trkpt lat="42.46733563208111" lon="-8.184021423825126"><ele>548.0</ele><time>2026-04-05T18:32:18.999Z</time></trkpt><trkpt lat="42.46707898352784" lon="-8.1840157579892"><ele>537.0</ele><time>2026-04-05T18:32:19.999Z</time></trkpt><trkpt lat="42.466814613808694" lon="-8.184006092876412"><ele>526.0</ele><time>2026-04-05T18:32:20.999Z</time></trkpt><trkpt lat="42.466551536904454" lon="-8.183993205523358"><ele>526.0</ele><time>2026-04-05T18:32:21.999Z</time></trkpt><trkpt lat="42.466288661698556" lon="-8.183986133553685"><ele>526.0</ele><time>2026-04-05T18:32:22.999Z</time></trkpt><trkpt lat="42.46602633691914" lon="-8.183982274791564"><ele>525.5</ele><time>2026-04-05T18:32:23.999Z</time></trkpt><trkpt lat="42.46576393502015" lon="-8.18395905462236"><ele>525.0</ele><time>2026-04-05T18:32:24.999Z</time></trkpt><trkpt lat="42.465513757407436" lon="-8.18397881107207"><ele>525.5</ele><time>2026-04-05T18:32:25.999Z</time></trkpt><trkpt lat="42.465267089848645" lon="-8.183957758367189"><ele>526.0</ele><time>2026-04-05T18:32:26.999Z</time></trkpt><trkpt lat="42.46502930972754" lon="-8.183963446087331"><ele>526.0</ele><time>2026-04-05T18:32:27.999Z</time></trkpt><trkpt lat="42.46479209707217" lon="-8.183967706381738"><ele>526.0</ele><time>2026-04-05T18:32:28.999Z</time></trkpt><trkpt lat="42.464554170661536" lon="-8.183958437757124"><ele>530.5</ele><time>2026-04-05T18:32:29.999Z</time></trkpt><trkpt lat="42.464320781515234" lon="-8.183940777807992"><ele>535.0</ele><time>2026-04-05T18:32:30.999Z</time></trkpt><trkpt lat="42.464086416307204" lon="-8.183904770216976"><ele>535.0</ele><time>2026-04-05T18:32:31.999Z</time></trkpt><trkpt lat="42.46385291690462" lon="-8.183843593024543"><ele>535.0</ele><time>2026-04-05T18:32:32.999Z</time></trkpt><trkpt lat="42.46362653585504" lon="-8.183756432998663"><ele>537.5</ele><time>2026-04-05T18:32:33.999Z</time></trkpt><trkpt lat="42.463404961291886" lon="-8.183651014779"><ele>540.0</ele><time>2026-04-05T18:32:34.999Z</time></trkpt><trkpt lat="42.46319194101545" lon="-8.183510026775416"><ele>540.0</ele><time>2026-04-05T18:32:35.999Z</time></trkpt><trkpt lat="42.46298242770007" lon="-8.183353071423426"><ele>540.0</ele><time>2026-04-05T18:32:36.999Z</time></trkpt><trkpt lat="42.462775285928636" lon="-8.18317318796758"><ele>536.5</ele><time>2026-04-05T18:32:37.999Z</time></trkpt><trkpt lat="42.462578234681345" lon="-8.182977555170634"><ele>533.0</ele><time>2026-04-05T18:32:38.999Z</time></trkpt><trkpt lat="42.462398681300506" lon="-8.18275716401342"><ele>533.0</ele><time>2026-04-05T18:32:39.999Z</time></trkpt><trkpt lat="42.46223508160088" lon="-8.182531043979063"><ele>533.0</ele><time>2026-04-05T18:32:40.999Z</time></trkpt><trkpt lat="42.46207512766891" lon="-8.182303652498458"><ele>531.5</ele><time>2026-04-05T18:32:41.999Z</time></trkpt><trkpt lat="42.4619372920294" lon="-8.182044365283305"><ele>530.0</ele><time>2026-04-05T18:32:42.999Z</time></trkpt><trkpt lat="42.461811951675315" lon="-8.181768828267996"><ele>522.5</ele><time>2026-04-05T18:32:43.999Z</time></trkpt><trkpt lat="42.46170227234338" lon="-8.181484936783516"><ele>515.0</ele><time>2026-04-05T18:32:44.999Z</time></trkpt><trkpt lat="42.46161115138457" lon="-8.181187169538843"><ele>515.0</ele><time>2026-04-05T18:32:45.999Z</time></trkpt><trkpt lat="42.46153456840165" lon="-8.180882564833903"><ele>515.0</ele><time>2026-04-05T18:32:46.999Z</time></trkpt><trkpt lat="42.461475751127374" lon="-8.180581359557213"><ele>509.5</ele><time>2026-04-05T18:32:47.999Z</time></trkpt><trkpt lat="42.46143514715092" lon="-8.180269088900364"><ele>504.0</ele><time>2026-04-05T18:32:48.999Z</time></trkpt><trkpt lat="42.46141325601341" lon="-8.1799524469868"><ele>502.5</ele><time>2026-04-05T18:32:49.999Z</time></trkpt><trkpt lat="42.46142506695236" lon="-8.179633685679553"><ele>501.0</ele><time>2026-04-05T18:32:50.999Z</time></trkpt><trkpt lat="42.46142216863423" lon="-8.179325346355084"><ele>501.0</ele><time>2026-04-05T18:32:51.999Z</time></trkpt><trkpt lat="42.461467011418456" lon="-8.17903553511189"><ele>501.0</ele><time>2026-04-05T18:32:52.999Z</time></trkpt><trkpt lat="42.461517571471596" lon="-8.178752867934797"><ele>501.0</ele><time>2026-04-05T18:32:53.999Z</time></trkpt><trkpt lat="42.46159529843313" lon="-8.178478531609079"><ele>504.5</ele><time>2026-04-05T18:32:54.999Z</time></trkpt><trkpt lat="42.46170028990714" lon="-8.178209774274963"><ele>508.0</ele><time>2026-04-05T18:32:55.999Z</time></trkpt><trkpt lat="42.46183074464042" lon="-8.177955679161409"><ele>506.0</ele><time>2026-04-05T18:32:56.999Z</time></trkpt><trkpt lat="42.461979411399696" lon="-8.177718520734533"><ele>504.0</ele><time>2026-04-05T18:32:57.999Z</time></trkpt><trkpt lat="42.462148995411525" lon="-8.17749391105066"><ele>504.5</ele><time>2026-04-05T18:32:58.999Z</time></trkpt><trkpt lat="42.46231140432366" lon="-8.177260026266472"><ele>505.0</ele><time>2026-04-05T18:32:59.999Z</time></trkpt><trkpt lat="42.46248410406022" lon="-8.177034990679902"><ele>505.0</ele><time>2026-04-05T18:33:00.999Z</time></trkpt><trkpt lat="42.462670119978554" lon="-8.176820916392279"><ele>505.0</ele><time>2026-04-05T18:33:01.999Z</time></trkpt><trkpt lat="42.462844215292975" lon="-8.1765951501641"><ele>497.5</ele><time>2026-04-05T18:33:02.999Z</time></trkpt><trkpt lat="42.46303248279474" lon="-8.176370572851802"><ele>490.0</ele><time>2026-04-05T18:33:04Z</time></trkpt><trkpt lat="42.46321572535631" lon="-8.176141316013057"><ele>490.0</ele><time>2026-04-05T18:33:05Z</time></trkpt><trkpt lat="42.46339505151682" lon="-8.17591749873429"><ele>490.0</ele><time>2026-04-05T18:33:06Z</time></trkpt><trkpt lat="42.46355937574759" lon="-8.175700075641625"><ele>491.6666666666667</ele><time>2026-04-05T18:33:07Z</time></trkpt><trkpt lat="42.463707743932154" lon="-8.175485866280582"><ele>493.33333333333337</ele><time>2026-04-05T18:33:08Z</time></trkpt><trkpt lat="42.46384461199351" lon="-8.175236474167935"><ele>495.0</ele><time>2026-04-05T18:33:09Z</time></trkpt><trkpt lat="42.463961925364686" lon="-8.174958516528257"><ele>491.5</ele><time>2026-04-05T18:33:10Z</time></trkpt><trkpt lat="42.46405699705342" lon="-8.174665862944837"><ele>488.0</ele><time>2026-04-05T18:33:11Z</time></trkpt><trkpt lat="42.464133785257374" lon="-8.174357786694888"><ele>488.0</ele><time>2026-04-05T18:33:12Z</time></trkpt><trkpt lat="42.464189712502886" lon="-8.174044051812649"><ele>488.0</ele><time>2026-04-05T18:33:13Z</time></trkpt><trkpt lat="42.46424732907715" lon="-8.173730024962332"><ele>490.0</ele><time>2026-04-05T18:33:14Z</time></trkpt><trkpt lat="42.464304672632394" lon="-8.173419403190254"><ele>492.0</ele><time>2026-04-05T18:33:15Z</time></trkpt><trkpt lat="42.464372635326086" lon="-8.17310534628934"><ele>498.0</ele><time>2026-04-05T18:33:16Z</time></trkpt><trkpt lat="42.46445977864377" lon="-8.172800827413488"><ele>504.0</ele><time>2026-04-05T18:33:17Z</time></trkpt><trkpt lat="42.464566929991406" lon="-8.17250359227274"><ele>497.5</ele><time>2026-04-05T18:33:18Z</time></trkpt><trkpt lat="42.46469497901725" lon="-8.172221550597497"><ele>491.0</ele><time>2026-04-05T18:33:19Z</time></trkpt><trkpt lat="42.46483554475966" lon="-8.171953434775645"><ele>491.0</ele><time>2026-04-05T18:33:20Z</time></trkpt><trkpt lat="42.464985907859834" lon="-8.17169216066703"><ele>491.0</ele><time>2026-04-05T18:33:21Z</time></trkpt><trkpt lat="42.46513392362748" lon="-8.171421649023632"><ele>495.0</ele><time>2026-04-05T18:33:22Z</time></trkpt><trkpt lat="42.465271984650194" lon="-8.171157106259054"><ele>499.0</ele><time>2026-04-05T18:33:23Z</time></trkpt><trkpt lat="42.46540986737241" lon="-8.170889077933067"><ele>493.0</ele><time>2026-04-05T18:33:24Z</time></trkpt><trkpt lat="42.46554062379568" lon="-8.170615790775383"><ele>487.0</ele><time>2026-04-05T18:33:25Z</time></trkpt><trkpt lat="42.465668569609356" lon="-8.170339508947874"><ele>487.0</ele><time>2026-04-05T18:33:26Z</time></trkpt><trkpt lat="42.465795580538206" lon="-8.1700637442412"><ele>487.0</ele><time>2026-04-05T18:33:27Z</time></trkpt><trkpt lat="42.46592619965907" lon="-8.16977850417744"><ele>490.5</ele><time>2026-04-05T18:33:28Z</time></trkpt><trkpt lat="42.46605311603811" lon="-8.169494837725999"><ele>494.0</ele><time>2026-04-05T18:33:29Z</time></trkpt><trkpt lat="42.4661713995405" lon="-8.169204451622097"><ele>483.0</ele><time>2026-04-05T18:33:30Z</time></trkpt><trkpt lat="42.46629054212477" lon="-8.168912615707917"><ele>472.0</ele><time>2026-04-05T18:33:31Z</time></trkpt><trkpt lat="42.46639732776717" lon="-8.168607820705015"><ele>472.0</ele><time>2026-04-05T18:33:32Z</time></trkpt><trkpt lat="42.466503791799305" lon="-8.168320038587357"><ele>472.0</ele><time>2026-04-05T18:33:33Z</time></trkpt><trkpt lat="42.46661451512745" lon="-8.16805867376213"><ele>475.6666666666667</ele><time>2026-04-05T18:33:34Z</time></trkpt><trkpt lat="42.4667041234094" lon="-8.167800803648904"><ele>479.33333333333337</ele><time>2026-04-05T18:33:35Z</time></trkpt><trkpt lat="42.46678265157" lon="-8.16755098774874"><ele>483.0</ele><time>2026-04-05T18:33:36Z</time></trkpt><trkpt lat="42.466848934406435" lon="-8.167298574825345"><ele>485.66666666666663</ele><time>2026-04-05T18:33:37Z</time></trkpt><trkpt lat="42.46690120042124" lon="-8.167051211838258"><ele>488.3333333333333</ele><time>2026-04-05T18:33:38Z</time></trkpt><trkpt lat="42.46691228551674" lon="-8.166791815082181"><ele>491.0</ele><time>2026-04-05T18:33:39Z</time></trkpt><trkpt lat="42.46690759179967" lon="-8.166535372804859"><ele>490.3333333333333</ele><time>2026-04-05T18:33:40Z</time></trkpt><trkpt lat="42.46687744544634" lon="-8.166272875744912"><ele>489.66666666666663</ele><time>2026-04-05T18:33:41Z</time></trkpt><trkpt lat="42.46681820344287" lon="-8.16601665317323"><ele>489.0</ele><time>2026-04-05T18:33:42Z</time></trkpt><trkpt lat="42.46673348256678" lon="-8.165767240238196"><ele>484.0</ele><time>2026-04-05T18:33:43Z</time></trkpt><trkpt lat="42.466624100175906" lon="-8.165544594907468"><ele>479.0</ele><time>2026-04-05T18:33:44Z</time></trkpt><trkpt lat="42.466495470301275" lon="-8.165341346083608"><ele>474.0</ele><time>2026-04-05T18:33:45Z</time></trkpt><trkpt lat="42.4663415213187" lon="-8.165168362272059"><ele>472.0</ele><time>2026-04-05T18:33:46Z</time></trkpt><trkpt lat="42.46617396271344" lon="-8.165021163482642"><ele>470.0</ele><time>2026-04-05T18:33:47Z</time></trkpt><trkpt lat="42.46599066596857" lon="-8.164904100808355"><ele>468.0</ele><time>2026-04-05T18:33:48Z</time></trkpt><trkpt lat="42.465798567645635" lon="-8.164809969495614"><ele>468.0</ele><time>2026-04-05T18:33:49Z</time></trkpt><trkpt lat="42.46560548437333" lon="-8.16472330064635"><ele>468.0</ele><time>2026-04-05T18:33:50Z</time></trkpt><trkpt lat="42.46540639734458" lon="-8.164630190690035"><ele>468.0</ele><time>2026-04-05T18:33:51Z</time></trkpt><trkpt lat="42.465210741832806" lon="-8.164528290676436"><ele>469.0</ele><time>2026-04-05T18:33:52Z</time></trkpt><trkpt lat="42.465028470768914" lon="-8.164374449576902"><ele>470.0</ele><time>2026-04-05T18:33:53Z</time></trkpt><trkpt lat="42.46486448343341" lon="-8.164199268745943"><ele>471.0</ele><time>2026-04-05T18:33:54Z</time></trkpt><trkpt lat="42.46473408820506" lon="-8.16397722931303"><ele>474.66666666666663</ele><time>2026-04-05T18:33:55Z</time></trkpt><trkpt lat="42.46461150059787" lon="-8.163734070776389"><ele>478.3333333333333</ele><time>2026-04-05T18:33:56Z</time></trkpt><trkpt lat="42.46446876388328" lon="-8.163520485693526"><ele>482.0</ele><time>2026-04-05T18:33:57Z</time></trkpt><trkpt lat="42.464339206939606" lon="-8.16329459036223"><ele>480.66666666666663</ele><time>2026-04-05T18:33:57.999Z</time></trkpt><trkpt lat="42.46421859314662" lon="-8.163084249372307"><ele>479.33333333333337</ele><time>2026-04-05T18:33:58.999Z</time></trkpt><trkpt lat="42.46409802158226" lon="-8.162900618749529"><ele>478.0</ele><time>2026-04-05T18:33:59.999Z</time></trkpt><trkpt lat="42.46394798084468" lon="-8.16275596831463"><ele>478.0</ele><time>2026-04-05T18:34:00.999Z</time></trkpt><trkpt lat="42.46378304292314" lon="-8.162614917435459"><ele>478.0</ele><time>2026-04-05T18:34:01.999Z</time></trkpt><trkpt lat="42.463614897550684" lon="-8.16247156293666"><ele>478.0</ele><time>2026-04-05T18:34:02.999Z</time></trkpt><trkpt lat="42.463445630676595" lon="-8.16231119055712"><ele>478.6666666666667</ele><time>2026-04-05T18:34:03.999Z</time></trkpt><trkpt lat="42.46326624168088" lon="-8.16215575130114"><ele>479.33333333333337</ele><time>2026-04-05T18:34:04.999Z</time></trkpt><trkpt lat="42.463088893664626" lon="-8.162004789148918"><ele>480.0</ele><time>2026-04-05T18:34:05.999Z</time></trkpt><trkpt lat="42.46290324946419" lon="-8.161839596439899"><ele>480.0</ele><time>2026-04-05T18:34:06.999Z</time></trkpt><trkpt lat="42.46270816743767" lon="-8.161682105399876"><ele>480.0</ele><time>2026-04-05T18:34:07.999Z</time></trkpt><trkpt lat="42.46251637986461" lon="-8.16149578068517"><ele>476.5</ele><time>2026-04-05T18:34:08.999Z</time></trkpt><trkpt lat="42.46233895274442" lon="-8.161318411841188"><ele>473.0</ele><time>2026-04-05T18:34:09.999Z</time></trkpt><trkpt lat="42.462155817605705" lon="-8.161124904660923"><ele>478.5</ele><time>2026-04-05T18:34:10.999Z</time></trkpt><trkpt lat="42.46198854418633" lon="-8.160913380285082"><ele>484.0</ele><time>2026-04-05T18:34:11.999Z</time></trkpt><trkpt lat="42.4618024479471" lon="-8.160737554193751"><ele>483.33333333333337</ele><time>2026-04-05T18:34:12.999Z</time></trkpt><trkpt lat="42.461623005709335" lon="-8.16055829663412"><ele>482.66666666666663</ele><time>2026-04-05T18:34:13.999Z</time></trkpt><trkpt lat="42.46143121135141" lon="-8.160410541106689"><ele>482.0</ele><time>2026-04-05T18:34:14.999Z</time></trkpt><trkpt lat="42.46122250350549" lon="-8.16031583955269"><ele>482.0</ele><time>2026-04-05T18:34:15.999Z</time></trkpt><trkpt lat="42.461004576586745" lon="-8.160287667234984"><ele>482.0</ele><time>2026-04-05T18:34:16.999Z</time></trkpt><trkpt lat="42.460784489532365" lon="-8.160297260037574"><ele>482.0</ele><time>2026-04-05T18:34:17.999Z</time></trkpt><trkpt lat="42.46056353160665" lon="-8.16031902365491"><ele>479.5</ele><time>2026-04-05T18:34:18.999Z</time></trkpt><trkpt lat="42.460333497621434" lon="-8.16033469719683"><ele>477.0</ele><time>2026-04-05T18:34:19.999Z</time></trkpt><trkpt lat="42.460111637833286" lon="-8.160352136649676"><ele>477.0</ele><time>2026-04-05T18:34:20.999Z</time></trkpt><trkpt lat="42.45990672509598" lon="-8.160371726818104"><ele>477.0</ele><time>2026-04-05T18:34:21.999Z</time></trkpt><trkpt lat="42.4597111485723" lon="-8.160390424423204"><ele>477.0</ele><time>2026-04-05T18:34:22.999Z</time></trkpt><trkpt lat="42.45952510758178" lon="-8.160408210422409"><ele>478.0</ele><time>2026-04-05T18:34:23.999Z</time></trkpt><trkpt lat="42.45933595414215" lon="-8.160427457438214"><ele>479.0</ele><time>2026-04-05T18:34:24.999Z</time></trkpt><trkpt lat="42.45915142233379" lon="-8.160443339444626"><ele>480.0</ele><time>2026-04-05T18:34:25.999Z</time></trkpt><trkpt lat="42.45896954199066" lon="-8.16045052267025"><ele>480.0</ele><time>2026-04-05T18:34:26.999Z</time></trkpt><trkpt lat="42.45879527639294" lon="-8.16043287600098"><ele>480.0</ele><time>2026-04-05T18:34:27.999Z</time></trkpt><trkpt lat="42.458624440370734" lon="-8.160372536948927"><ele>480.0</ele><time>2026-04-05T18:34:28.999Z</time></trkpt><trkpt lat="42.458460495676036" lon="-8.160273115576153"><ele>481.0</ele><time>2026-04-05T18:34:29.999Z</time></trkpt><trkpt lat="42.45831050385234" lon="-8.160128294919506"><ele>482.0</ele><time>2026-04-05T18:34:30.999Z</time></trkpt><trkpt lat="42.4581875706311" lon="-8.159954354889127"><ele>483.0</ele><time>2026-04-05T18:34:31.999Z</time></trkpt><trkpt lat="42.45809688098845" lon="-8.159761364464579"><ele>479.66666666666663</ele><time>2026-04-05T18:34:32.999Z</time></trkpt><trkpt lat="42.4580446037433" lon="-8.159546369043065"><ele>476.3333333333333</ele><time>2026-04-05T18:34:33.999Z</time></trkpt><trkpt lat="42.45800797879036" lon="-8.15933702255124"><ele>473.0</ele><time>2026-04-05T18:34:34.999Z</time></trkpt><trkpt lat="42.45800757314708" lon="-8.159116635964612"><ele>472.66666666666663</ele><time>2026-04-05T18:34:35.999Z</time></trkpt><trkpt lat="42.45802692069211" lon="-8.158886862819067"><ele>472.33333333333337</ele><time>2026-04-05T18:34:36.999Z</time></trkpt><trkpt lat="42.458080369639056" lon="-8.158670072062675"><ele>472.0</ele><time>2026-04-05T18:34:37.999Z</time></trkpt><trkpt lat="42.4581611998119" lon="-8.158459310641733"><ele>472.0</ele><time>2026-04-05T18:34:38.999Z</time></trkpt><trkpt lat="42.458253578487025" lon="-8.158254242575728"><ele>472.0</ele><time>2026-04-05T18:34:39.999Z</time></trkpt><trkpt lat="42.4583489944575" lon="-8.158053930424252"><ele>472.0</ele><time>2026-04-05T18:34:40.999Z</time></trkpt><trkpt lat="42.45844003769104" lon="-8.157870182472804"><ele>474.6666666666667</ele><time>2026-04-05T18:34:41.999Z</time></trkpt><trkpt lat="42.45852433100236" lon="-8.157673207862148"><ele>477.33333333333337</ele><time>2026-04-05T18:34:42.999Z</time></trkpt><trkpt lat="42.458599520455806" lon="-8.157466879279442"><ele>480.0</ele><time>2026-04-05T18:34:43.999Z</time></trkpt><trkpt lat="42.458659929049475" lon="-8.157245574907302"><ele>480.33333333333337</ele><time>2026-04-05T18:34:44.999Z</time></trkpt><trkpt lat="42.45869386196112" lon="-8.157010623206142"><ele>480.6666666666667</ele><time>2026-04-05T18:34:45.999Z</time></trkpt><trkpt lat="42.4586970641156" lon="-8.156764200319124"><ele>481.0</ele><time>2026-04-05T18:34:46.999Z</time></trkpt><trkpt lat="42.45865800201186" lon="-8.156511679670423"><ele>477.33333333333337</ele><time>2026-04-05T18:34:47.999Z</time></trkpt><trkpt lat="42.45863875206039" lon="-8.156243548468407"><ele>473.66666666666663</ele><time>2026-04-05T18:34:48.999Z</time></trkpt><trkpt lat="42.458585207440684" lon="-8.155978364705437"><ele>470.0</ele><time>2026-04-05T18:34:49.999Z</time></trkpt><trkpt lat="42.458546369034615" lon="-8.155705697994776"><ele>466.3333333333333</ele><time>2026-04-05T18:34:50.999Z</time></trkpt><trkpt lat="42.45850668771505" lon="-8.155427113686171"><ele>462.66666666666663</ele><time>2026-04-05T18:34:51.999Z</time></trkpt><trkpt lat="42.458469142743716" lon="-8.155163527613082"><ele>459.0</ele><time>2026-04-05T18:34:52.999Z</time></trkpt><trkpt lat="42.45843176731487" lon="-8.154905333029305"><ele>457.66666666666663</ele><time>2026-04-05T18:34:53.999Z</time></trkpt><trkpt lat="42.45839389068109" lon="-8.154644362582731"><ele>456.3333333333333</ele><time>2026-04-05T18:34:54.999Z</time></trkpt><trkpt lat="42.45835538545212" lon="-8.15437906110034"><ele>455.0</ele><time>2026-04-05T18:34:55.999Z</time></trkpt><trkpt lat="42.45833370768911" lon="-8.154114361254678"><ele>452.66666666666663</ele><time>2026-04-05T18:34:56.999Z</time></trkpt><trkpt lat="42.45829163559298" lon="-8.15386246744819"><ele>450.33333333333337</ele><time>2026-04-05T18:34:57.999Z</time></trkpt><trkpt lat="42.45823739772266" lon="-8.153622270662892"><ele>448.0</ele><time>2026-04-05T18:34:58.999Z</time></trkpt><trkpt lat="42.4581698168904" lon="-8.153389785343599"><ele>444.33333333333337</ele><time>2026-04-05T18:34:59.999Z</time></trkpt><trkpt lat="42.45807294610402" lon="-8.153181597541943"><ele>440.66666666666663</ele><time>2026-04-05T18:35:00.999Z</time></trkpt><trkpt lat="42.45795685448534" lon="-8.152997976478405"><ele>437.0</ele><time>2026-04-05T18:35:01.999Z</time></trkpt><trkpt lat="42.45782014480589" lon="-8.152846020681682"><ele>437.0</ele><time>2026-04-05T18:35:02.999Z</time></trkpt><trkpt lat="42.457660970272165" lon="-8.152745015473357"><ele>437.0</ele><time>2026-04-05T18:35:03.999Z</time></trkpt><trkpt lat="42.457502039626895" lon="-8.152670481093427"><ele>437.0</ele><time>2026-04-05T18:35:04.999Z</time></trkpt><trkpt lat="42.457340733207474" lon="-8.152632042898768"><ele>437.0</ele><time>2026-04-05T18:35:05.999Z</time></trkpt><trkpt lat="42.45716206816844" lon="-8.152608116918517"><ele>437.0</ele><time>2026-04-05T18:35:06.999Z</time></trkpt><trkpt lat="42.456974738653514" lon="-8.15258713463995"><ele>437.0</ele><time>2026-04-05T18:35:07.999Z</time></trkpt><trkpt lat="42.45678896451138" lon="-8.15256616592481"><ele>438.0</ele><time>2026-04-05T18:35:08.999Z</time></trkpt><trkpt lat="42.45660381774034" lon="-8.152544479515779"><ele>439.0</ele><time>2026-04-05T18:35:10Z</time></trkpt><trkpt lat="42.456414718081625" lon="-8.152532100750301"><ele>440.0</ele><time>2026-04-05T18:35:11Z</time></trkpt><trkpt lat="42.45622096755543" lon="-8.152524681389792"><ele>441.0</ele><time>2026-04-05T18:35:12Z</time></trkpt><trkpt lat="42.45603057355399" lon="-8.152513048125723"><ele>442.0</ele><time>2026-04-05T18:35:13Z</time></trkpt><trkpt lat="42.45583332746448" lon="-8.152499775998084"><ele>443.0</ele><time>2026-04-05T18:35:14Z</time></trkpt><trkpt lat="42.45563886738633" lon="-8.152483449154548"><ele>442.3333333333333</ele><time>2026-04-05T18:35:15Z</time></trkpt><trkpt lat="42.45544320790593" lon="-8.152461880896029"><ele>441.66666666666663</ele><time>2026-04-05T18:35:16Z</time></trkpt><trkpt lat="42.45524945511191" lon="-8.152429947004041"><ele>441.0</ele><time>2026-04-05T18:35:17Z</time></trkpt><trkpt lat="42.45506238115498" lon="-8.152383843368806"><ele>435.66666666666663</ele><time>2026-04-05T18:35:18Z</time></trkpt><trkpt lat="42.45487287939059" lon="-8.15229659496779"><ele>430.3333333333333</ele><time>2026-04-05T18:35:19Z</time></trkpt><trkpt lat="42.45469822268512" lon="-8.152162578071458"><ele>425.0</ele><time>2026-04-05T18:35:20Z</time></trkpt><trkpt lat="42.454535083031104" lon="-8.152021582583615"><ele>425.0</ele><time>2026-04-05T18:35:21Z</time></trkpt><trkpt lat="42.454379335756116" lon="-8.151883995431254"><ele>425.0</ele><time>2026-04-05T18:35:22Z</time></trkpt><trkpt lat="42.454228598378926" lon="-8.151745837871042"><ele>425.0</ele><time>2026-04-05T18:35:23Z</time></trkpt><trkpt lat="42.45407852917959" lon="-8.151609434159461"><ele>423.66666666666663</ele><time>2026-04-05T18:35:24Z</time></trkpt><trkpt lat="42.45393696560643" lon="-8.151473597730446"><ele>422.33333333333337</ele><time>2026-04-05T18:35:25Z</time></trkpt><trkpt lat="42.453809434369276" lon="-8.151322401820963"><ele>421.0</ele><time>2026-04-05T18:35:26Z</time></trkpt><trkpt lat="42.453695501493634" lon="-8.151147370742565"><ele>421.0</ele><time>2026-04-05T18:35:27Z</time></trkpt><trkpt lat="42.45360126106555" lon="-8.15097071788924"><ele>421.0</ele><time>2026-04-05T18:35:28Z</time></trkpt><trkpt lat="42.453525635024974" lon="-8.150768874346827"><ele>421.0</ele><time>2026-04-05T18:35:29Z</time></trkpt><trkpt lat="42.45342529925722" lon="-8.150579705382922"><ele>417.6666666666667</ele><time>2026-04-05T18:35:30Z</time></trkpt><trkpt lat="42.453332288245676" lon="-8.150379447100992"><ele>414.33333333333337</ele><time>2026-04-05T18:35:31Z</time></trkpt><trkpt lat="42.4532234874286" lon="-8.150200392504468"><ele>411.0</ele><time>2026-04-05T18:35:32Z</time></trkpt><trkpt lat="42.45310504444695" lon="-8.150044951460611"><ele>411.0</ele><time>2026-04-05T18:35:33Z</time></trkpt><trkpt lat="42.45296403264867" lon="-8.149921097060847"><ele>411.0</ele><time>2026-04-05T18:35:34Z</time></trkpt><trkpt lat="42.45279756020121" lon="-8.149815244845687"><ele>411.0</ele><time>2026-04-05T18:35:35Z</time></trkpt><trkpt lat="42.45261397919885" lon="-8.149739327315089"><ele>407.0</ele><time>2026-04-05T18:35:36Z</time></trkpt><trkpt lat="42.45243336492743" lon="-8.149680128862908"><ele>403.0</ele><time>2026-04-05T18:35:37Z</time></trkpt><trkpt lat="42.452259914074716" lon="-8.149626997457995"><ele>399.0</ele><time>2026-04-05T18:35:38Z</time></trkpt><trkpt lat="42.452097625989445" lon="-8.149580224790755"><ele>399.0</ele><time>2026-04-05T18:35:39Z</time></trkpt><trkpt lat="42.451928810767825" lon="-8.149534601115958"><ele>399.0</ele><time>2026-04-05T18:35:40Z</time></trkpt><trkpt lat="42.45176617181868" lon="-8.14949046377378"><ele>399.0</ele><time>2026-04-05T18:35:41Z</time></trkpt><trkpt lat="42.451606732295915" lon="-8.149447196439418"><ele>399.0</ele><time>2026-04-05T18:35:42Z</time></trkpt><trkpt lat="42.45145560936324" lon="-8.149405961245956"><ele>399.0</ele><time>2026-04-05T18:35:43Z</time></trkpt><trkpt lat="42.45130486414012" lon="-8.149364888142555"><ele>399.0</ele><time>2026-04-05T18:35:44Z</time></trkpt><trkpt lat="42.4511802664212" lon="-8.14932574123162"><ele>399.0</ele><time>2026-04-05T18:35:45Z</time></trkpt><trkpt lat="42.45106955152878" lon="-8.149284811645233"><ele>398.79999999999995</ele><time>2026-04-05T18:35:46Z</time></trkpt><trkpt lat="42.45096505683425" lon="-8.149237685189947"><ele>398.59999999999997</ele><time>2026-04-05T18:35:47Z</time></trkpt><trkpt lat="42.45087111810514" lon="-8.149170536464752"><ele>398.4</ele><time>2026-04-05T18:35:48Z</time></trkpt><trkpt lat="42.4507894518658" lon="-8.149067478638369"><ele>398.2</ele><time>2026-04-05T18:35:49Z</time></trkpt><trkpt lat="42.4507444463548" lon="-8.14892934244672"><ele>398.0</ele><time>2026-04-05T18:35:50Z</time></trkpt><trkpt lat="42.4506930403343" lon="-8.148815667874162"><ele>396.5</ele><time>2026-04-05T18:35:51Z</time></trkpt><trkpt lat="42.45069347024953" lon="-8.14867374956767"><ele>395.0</ele><time>2026-04-05T18:35:52Z</time></trkpt><trkpt lat="42.45067246204891" lon="-8.148535578662264"><ele>393.5</ele><time>2026-04-05T18:35:53Z</time></trkpt><trkpt lat="42.45068204117107" lon="-8.148356099178935"><ele>392.0</ele><time>2026-04-05T18:35:54Z</time></trkpt><trkpt lat="42.45069244896643" lon="-8.148164113674603"><ele>390.66666666666663</ele><time>2026-04-05T18:35:55Z</time></trkpt><trkpt lat="42.450705981635224" lon="-8.14793987884007"><ele>389.33333333333337</ele><time>2026-04-05T18:35:56Z</time></trkpt><trkpt lat="42.45071883122966" lon="-8.14773868518101"><ele>388.0</ele><time>2026-04-05T18:35:57Z</time></trkpt><trkpt lat="42.450730122135454" lon="-8.147540633856732"><ele>386.6666666666667</ele><time>2026-04-05T18:35:58Z</time></trkpt><trkpt lat="42.45074159084214" lon="-8.14731349545012"><ele>385.33333333333337</ele><time>2026-04-05T18:35:59Z</time></trkpt><trkpt lat="42.45075392285428" lon="-8.147074145586261"><ele>384.0</ele><time>2026-04-05T18:36:00Z</time></trkpt><trkpt lat="42.45076857251706" lon="-8.146842302251933"><ele>384.0</ele><time>2026-04-05T18:36:01Z</time></trkpt><trkpt lat="42.45078316246725" lon="-8.146617862125805"><ele>384.0</ele><time>2026-04-05T18:36:02Z</time></trkpt><trkpt lat="42.4507976362518" lon="-8.146396189456125"><ele>384.0</ele><time>2026-04-05T18:36:03Z</time></trkpt><trkpt lat="42.45080908018167" lon="-8.146195087193119"><ele>383.25</ele><time>2026-04-05T18:36:04Z</time></trkpt><trkpt lat="42.45081909458091" lon="-8.14600411949275"><ele>382.5</ele><time>2026-04-05T18:36:05Z</time></trkpt><trkpt lat="42.450827694719585" lon="-8.145840120768458"><ele>381.75</ele><time>2026-04-05T18:36:05.999Z</time></trkpt><trkpt lat="42.45083369937114" lon="-8.145725616177604"><ele>381.0</ele><time>2026-04-05T18:36:06.999Z</time></trkpt><trkpt lat="42.45084465475696" lon="-8.145516704570117"><ele>380.0</ele><time>2026-04-05T18:36:08.999Z</time></trkpt><trkpt lat="42.450852141889634" lon="-8.14537393012666"><ele>379.0</ele><time>2026-04-05T18:36:09.999Z</time></trkpt><trkpt lat="42.45087287067734" lon="-8.145214731099427"><ele>378.0</ele><time>2026-04-05T18:36:10.999Z</time></trkpt><trkpt lat="42.45087632854587" lon="-8.145031717999535"><ele>377.0</ele><time>2026-04-05T18:36:11.999Z</time></trkpt><trkpt lat="42.45089308234087" lon="-8.144829083346366"><ele>376.33333333333337</ele><time>2026-04-05T18:36:12.999Z</time></trkpt><trkpt lat="42.45090785607371" lon="-8.14461922069413"><ele>375.6666666666667</ele><time>2026-04-05T18:36:13.999Z</time></trkpt><trkpt lat="42.45091901027511" lon="-8.144382056597351"><ele>375.0</ele><time>2026-04-05T18:36:14.999Z</time></trkpt><trkpt lat="42.45093174890855" lon="-8.14414208983453"><ele>374.0</ele><time>2026-04-05T18:36:15.999Z</time></trkpt><trkpt lat="42.45092952111616" lon="-8.143881602023482"><ele>373.0</ele><time>2026-04-05T18:36:16.999Z</time></trkpt><trkpt lat="42.45094309902399" lon="-8.143607464291831"><ele>372.0</ele><time>2026-04-05T18:36:17.999Z</time></trkpt><trkpt lat="42.45095571135745" lon="-8.143338420266401"><ele>370.3333333333333</ele><time>2026-04-05T18:36:18.999Z</time></trkpt><trkpt lat="42.45096359944885" lon="-8.143063300077962"><ele>368.66666666666663</ele><time>2026-04-05T18:36:19.999Z</time></trkpt><trkpt lat="42.45096204508429" lon="-8.142777386104635"><ele>367.0</ele><time>2026-04-05T18:36:20.999Z</time></trkpt><trkpt lat="42.4509278992288" lon="-8.142478730434558"><ele>365.0</ele><time>2026-04-05T18:36:21.999Z</time></trkpt><trkpt lat="42.45092182121781" lon="-8.14214449952973"><ele>363.0</ele><time>2026-04-05T18:36:22.999Z</time></trkpt><trkpt lat="42.45083345665167" lon="-8.141873332356719"><ele>363.0</ele><time>2026-04-05T18:36:23.999Z</time></trkpt><trkpt lat="42.45073495523867" lon="-8.141586385418304"><ele>363.0</ele><time>2026-04-05T18:36:24.999Z</time></trkpt><trkpt lat="42.450627932556166" lon="-8.141302493776465"><ele>362.0</ele><time>2026-04-05T18:36:25.999Z</time></trkpt><trkpt lat="42.45050990527579" lon="-8.141019623043801"><ele>361.0</ele><time>2026-04-05T18:36:26.999Z</time></trkpt><trkpt lat="42.450357666808564" lon="-8.140761001788238"><ele>357.5</ele><time>2026-04-05T18:36:27.999Z</time></trkpt><trkpt lat="42.45022407619776" lon="-8.140490505816345"><ele>354.0</ele><time>2026-04-05T18:36:28.999Z</time></trkpt><trkpt lat="42.45006899380249" lon="-8.140237370444407"><ele>354.0</ele><time>2026-04-05T18:36:29.999Z</time></trkpt><trkpt lat="42.449901739634704" lon="-8.139993226919886"><ele>354.0</ele><time>2026-04-05T18:36:30.999Z</time></trkpt><trkpt lat="42.44972647391311" lon="-8.139771596077143"><ele>360.5</ele><time>2026-04-05T18:36:31.999Z</time></trkpt><trkpt lat="42.44954235264098" lon="-8.139567725660287"><ele>367.0</ele><time>2026-04-05T18:36:32.999Z</time></trkpt><trkpt lat="42.44935040704368" lon="-8.139388168258769"><ele>367.0</ele><time>2026-04-05T18:36:33.999Z</time></trkpt><trkpt lat="42.44915023965908" lon="-8.139214051798046"><ele>367.0</ele><time>2026-04-05T18:36:34.999Z</time></trkpt><trkpt lat="42.44893420211167" lon="-8.139082354648304"><ele>375.0</ele><time>2026-04-05T18:36:35.999Z</time></trkpt><trkpt lat="42.44871234206449" lon="-8.139002713606699"><ele>383.0</ele><time>2026-04-05T18:36:36.999Z</time></trkpt><trkpt lat="42.44849509425304" lon="-8.138916946188244"><ele>383.0</ele><time>2026-04-05T18:36:37.999Z</time></trkpt><trkpt lat="42.44828073444326" lon="-8.138857090196355"><ele>383.0</ele><time>2026-04-05T18:36:38.999Z</time></trkpt><trkpt lat="42.44806911894356" lon="-8.138814988706828"><ele>383.0</ele><time>2026-04-05T18:36:39.999Z</time></trkpt><trkpt lat="42.44785357847288" lon="-8.138784494361317"><ele>382.6666666666667</ele><time>2026-04-05T18:36:40.999Z</time></trkpt><trkpt lat="42.44764043429797" lon="-8.138740008718724"><ele>382.3333333333333</ele><time>2026-04-05T18:36:41.999Z</time></trkpt><trkpt lat="42.447428223504495" lon="-8.138720440926068"><ele>382.0</ele><time>2026-04-05T18:36:42.999Z</time></trkpt><trkpt lat="42.447219784398946" lon="-8.138695960728096"><ele>383.66666666666663</ele><time>2026-04-05T18:36:43.999Z</time></trkpt><trkpt lat="42.44701867375856" lon="-8.13869203031365"><ele>385.3333333333333</ele><time>2026-04-05T18:36:44.999Z</time></trkpt><trkpt lat="42.446812233382936" lon="-8.13863784234499"><ele>387.0</ele><time>2026-04-05T18:36:45.999Z</time></trkpt><trkpt lat="42.446599045462165" lon="-8.138621220793972"><ele>387.0</ele><time>2026-04-05T18:36:46.999Z</time></trkpt><trkpt lat="42.44639434969084" lon="-8.13857758766108"><ele>387.0</ele><time>2026-04-05T18:36:47.999Z</time></trkpt><trkpt lat="42.44619457164631" lon="-8.13852522094149"><ele>387.0</ele><time>2026-04-05T18:36:48.999Z</time></trkpt><trkpt lat="42.44599562649125" lon="-8.138464751308145"><ele>386.66666666666663</ele><time>2026-04-05T18:36:49.999Z</time></trkpt><trkpt lat="42.44579534282905" lon="-8.138390891081325"><ele>386.3333333333333</ele><time>2026-04-05T18:36:50.999Z</time></trkpt><trkpt lat="42.44560690507037" lon="-8.138302042806853"><ele>386.0</ele><time>2026-04-05T18:36:51.999Z</time></trkpt><trkpt lat="42.44541204271117" lon="-8.138228752668207"><ele>391.3333333333333</ele><time>2026-04-05T18:36:52.999Z</time></trkpt><trkpt lat="42.44521718701737" lon="-8.138145015389522"><ele>396.66666666666663</ele><time>2026-04-05T18:36:53.999Z</time></trkpt><trkpt lat="42.445029009301884" lon="-8.138059577150829"><ele>402.0</ele><time>2026-04-05T18:36:54.999Z</time></trkpt><trkpt lat="42.44483283313315" lon="-8.13799502453321"><ele>402.0</ele><time>2026-04-05T18:36:55.999Z</time></trkpt><trkpt lat="42.44464668525612" lon="-8.137915456207748"><ele>402.0</ele><time>2026-04-05T18:36:56.999Z</time></trkpt><trkpt lat="42.44445250129254" lon="-8.137839673601832"><ele>402.0</ele><time>2026-04-05T18:36:57.999Z</time></trkpt><trkpt lat="42.44425398830731" lon="-8.13775996588489"><ele>401.0</ele><time>2026-04-05T18:36:58.999Z</time></trkpt><trkpt lat="42.44405506167348" lon="-8.137705698599389"><ele>400.0</ele><time>2026-04-05T18:36:59.999Z</time></trkpt><trkpt lat="42.4438543239162" lon="-8.137665722989418"><ele>399.0</ele><time>2026-04-05T18:37:00.999Z</time></trkpt><trkpt lat="42.44364513340718" lon="-8.137611026637293"><ele>398.33333333333337</ele><time>2026-04-05T18:37:01.999Z</time></trkpt><trkpt lat="42.44343612126832" lon="-8.137584870297356"><ele>397.6666666666667</ele><time>2026-04-05T18:37:02.999Z</time></trkpt><trkpt lat="42.443228443913526" lon="-8.137531827327829"><ele>397.0</ele><time>2026-04-05T18:37:03.999Z</time></trkpt><trkpt lat="42.443032560304694" lon="-8.137431195437427"><ele>397.0</ele><time>2026-04-05T18:37:04.999Z</time></trkpt><trkpt lat="42.44284185301124" lon="-8.137292324624998"><ele>397.0</ele><time>2026-04-05T18:37:05.999Z</time></trkpt><trkpt lat="42.44266057152816" lon="-8.137121983583596"><ele>397.0</ele><time>2026-04-05T18:37:06.999Z</time></trkpt><trkpt lat="42.44248456107933" lon="-8.136979527479026"><ele>397.0</ele><time>2026-04-05T18:37:07.999Z</time></trkpt><trkpt lat="42.442297054961706" lon="-8.136810248688203"><ele>397.0</ele><time>2026-04-05T18:37:08.999Z</time></trkpt><trkpt lat="42.4421080719603" lon="-8.136665057267304"><ele>397.0</ele><time>2026-04-05T18:37:09.999Z</time></trkpt><trkpt lat="42.44190394349356" lon="-8.13655658165142"><ele>402.6666666666667</ele><time>2026-04-05T18:37:10.999Z</time></trkpt><trkpt lat="42.44169584073941" lon="-8.136520977365837"><ele>408.33333333333337</ele><time>2026-04-05T18:37:11.999Z</time></trkpt><trkpt lat="42.441476647137854" lon="-8.136500409340158"><ele>414.0</ele><time>2026-04-05T18:37:12.999Z</time></trkpt><trkpt lat="42.44125715133944" lon="-8.136480659946535"><ele>416.33333333333337</ele><time>2026-04-05T18:37:13.999Z</time></trkpt><trkpt lat="42.441045240765355" lon="-8.13646099331434"><ele>418.6666666666667</ele><time>2026-04-05T18:37:14.999Z</time></trkpt><trkpt lat="42.44083718422087" lon="-8.136418439438959"><ele>421.0</ele><time>2026-04-05T18:37:16Z</time></trkpt><trkpt lat="42.44062244535318" lon="-8.13641894726803"><ele>420.0</ele><time>2026-04-05T18:37:17Z</time></trkpt><trkpt lat="42.44041374440874" lon="-8.13637888807536"><ele>419.0</ele><time>2026-04-05T18:37:18Z</time></trkpt><trkpt lat="42.44020570072892" lon="-8.136360196933877"><ele>418.0</ele><time>2026-04-05T18:37:19Z</time></trkpt><trkpt lat="42.440023094719805" lon="-8.136365291505456"><ele>418.0</ele><time>2026-04-05T18:37:20Z</time></trkpt><trkpt lat="42.43984989139047" lon="-8.136389728139964"><ele>418.0</ele><time>2026-04-05T18:37:21Z</time></trkpt><trkpt lat="42.4396816078871" lon="-8.13645573126055"><ele>418.0</ele><time>2026-04-05T18:37:22Z</time></trkpt><trkpt lat="42.43952650459363" lon="-8.136538223372119"><ele>414.6666666666667</ele><time>2026-04-05T18:37:23Z</time></trkpt><trkpt lat="42.43938171327678" lon="-8.136622877095986"><ele>411.33333333333337</ele><time>2026-04-05T18:37:24Z</time></trkpt><trkpt lat="42.43923820236186" lon="-8.136689418341533"><ele>408.0</ele><time>2026-04-05T18:37:25Z</time></trkpt><trkpt lat="42.43909457926686" lon="-8.136737530219802"><ele>408.0</ele><time>2026-04-05T18:37:26Z</time></trkpt><trkpt lat="42.43895111271535" lon="-8.1367693352761"><ele>408.0</ele><time>2026-04-05T18:37:27Z</time></trkpt><trkpt lat="42.438808568201075" lon="-8.136775834718932"><ele>408.0</ele><time>2026-04-05T18:37:28Z</time></trkpt><trkpt lat="42.438673670851905" lon="-8.13675269500156"><ele>408.0</ele><time>2026-04-05T18:37:29Z</time></trkpt><trkpt lat="42.43854236599919" lon="-8.136708170635572"><ele>409.5</ele><time>2026-04-05T18:37:30Z</time></trkpt><trkpt lat="42.43841758999425" lon="-8.136642536484697"><ele>411.0</ele><time>2026-04-05T18:37:31Z</time></trkpt><trkpt lat="42.43829942255736" lon="-8.136564559349617"><ele>412.5</ele><time>2026-04-05T18:37:32Z</time></trkpt><trkpt lat="42.438178947083074" lon="-8.136468938334104"><ele>414.0</ele><time>2026-04-05T18:37:33Z</time></trkpt><trkpt lat="42.438071591267885" lon="-8.136346635477672"><ele>414.25</ele><time>2026-04-05T18:37:34Z</time></trkpt><trkpt lat="42.437964834453545" lon="-8.136208803696144"><ele>414.5</ele><time>2026-04-05T18:37:35Z</time></trkpt><trkpt lat="42.43785713683227" lon="-8.136079338977034"><ele>414.75</ele><time>2026-04-05T18:37:36Z</time></trkpt><trkpt lat="42.43774064388442" lon="-8.135937899121952"><ele>415.0</ele><time>2026-04-05T18:37:37Z</time></trkpt><trkpt lat="42.43760880308588" lon="-8.135803675933971"><ele>415.0</ele><time>2026-04-05T18:37:38Z</time></trkpt><trkpt lat="42.43746002569844" lon="-8.135682474532125"><ele>415.0</ele><time>2026-04-05T18:37:39Z</time></trkpt><trkpt lat="42.43730859822292" lon="-8.135585373071583"><ele>415.0</ele><time>2026-04-05T18:37:40Z</time></trkpt><trkpt lat="42.43713795136597" lon="-8.135501120079178"><ele>414.33333333333337</ele><time>2026-04-05T18:37:41Z</time></trkpt><trkpt lat="42.436953166961004" lon="-8.135440257138633"><ele>413.66666666666663</ele><time>2026-04-05T18:37:42Z</time></trkpt><trkpt lat="42.43676353214391" lon="-8.135398218202651"><ele>413.0</ele><time>2026-04-05T18:37:43Z</time></trkpt><trkpt lat="42.436572763449604" lon="-8.135376555382136"><ele>413.0</ele><time>2026-04-05T18:37:44Z</time></trkpt><trkpt lat="42.4363867455102" lon="-8.135365053460994"><ele>413.0</ele><time>2026-04-05T18:37:45Z</time></trkpt><trkpt lat="42.43621356242549" lon="-8.135356341111363"><ele>413.0</ele><time>2026-04-05T18:37:46Z</time></trkpt><trkpt lat="42.436047040793746" lon="-8.135354161921308"><ele>411.3333333333333</ele><time>2026-04-05T18:37:47Z</time></trkpt><trkpt lat="42.4358844724818" lon="-8.135341812864313"><ele>409.66666666666663</ele><time>2026-04-05T18:37:48Z</time></trkpt><trkpt lat="42.435720798553454" lon="-8.135336234683786"><ele>408.0</ele><time>2026-04-05T18:37:49Z</time></trkpt><trkpt lat="42.43554709988122" lon="-8.135333087068323"><ele>407.0</ele><time>2026-04-05T18:37:50Z</time></trkpt><trkpt lat="42.43536825509793" lon="-8.135329029105106"><ele>406.0</ele><time>2026-04-05T18:37:51Z</time></trkpt><trkpt lat="42.43518861369504" lon="-8.13532108676833"><ele>405.0</ele><time>2026-04-05T18:37:52Z</time></trkpt><trkpt lat="42.43499951355498" lon="-8.135301423287643"><ele>405.0</ele><time>2026-04-05T18:37:53Z</time></trkpt><trkpt lat="42.43480332625185" lon="-8.135279399768685"><ele>405.0</ele><time>2026-04-05T18:37:54Z</time></trkpt><trkpt lat="42.4346096900856" lon="-8.13522990174515"><ele>405.0</ele><time>2026-04-05T18:37:55Z</time></trkpt><trkpt lat="42.43440517222032" lon="-8.135161226352981"><ele>403.33333333333337</ele><time>2026-04-05T18:37:56Z</time></trkpt><trkpt lat="42.43420518310995" lon="-8.135072804746084"><ele>401.6666666666667</ele><time>2026-04-05T18:37:57Z</time></trkpt><trkpt lat="42.43399908459195" lon="-8.13496866094416"><ele>400.0</ele><time>2026-04-05T18:37:58Z</time></trkpt><trkpt lat="42.43378629253222" lon="-8.134860731295168"><ele>399.5</ele><time>2026-04-05T18:37:59Z</time></trkpt><trkpt lat="42.43357417202704" lon="-8.134759312932323"><ele>399.0</ele><time>2026-04-05T18:38:00Z</time></trkpt><trkpt lat="42.43336124629411" lon="-8.134647431945485"><ele>399.0</ele><time>2026-04-05T18:38:01Z</time></trkpt><trkpt lat="42.43313835885703" lon="-8.134535038644856"><ele>399.0</ele><time>2026-04-05T18:38:02Z</time></trkpt><trkpt lat="42.43291735214548" lon="-8.134408902372176"><ele>398.0</ele><time>2026-04-05T18:38:03Z</time></trkpt><trkpt lat="42.43270738970661" lon="-8.134268178326666"><ele>397.0</ele><time>2026-04-05T18:38:04Z</time></trkpt><trkpt lat="42.43251201898508" lon="-8.13410756124795"><ele>396.0</ele><time>2026-04-05T18:38:05Z</time></trkpt><trkpt lat="42.4323287558644" lon="-8.133917700379786"><ele>395.0</ele><time>2026-04-05T18:38:06Z</time></trkpt><trkpt lat="42.43215898938108" lon="-8.133695267123052"><ele>395.0</ele><time>2026-04-05T18:38:07Z</time></trkpt><trkpt lat="42.43200733014546" lon="-8.133449421431415"><ele>395.0</ele><time>2026-04-05T18:38:08Z</time></trkpt><trkpt lat="42.43187428584746" lon="-8.133185593212009"><ele>395.5</ele><time>2026-04-05T18:38:09Z</time></trkpt><trkpt lat="42.43175315791609" lon="-8.132912367197028"><ele>396.0</ele><time>2026-04-05T18:38:10Z</time></trkpt><trkpt lat="42.43164661907692" lon="-8.132627426176166"><ele>395.5</ele><time>2026-04-05T18:38:11Z</time></trkpt><trkpt lat="42.431515770497754" lon="-8.13236429536895"><ele>395.0</ele><time>2026-04-05T18:38:12Z</time></trkpt><trkpt lat="42.43139593601575" lon="-8.132087242819788"><ele>392.5</ele><time>2026-04-05T18:38:13Z</time></trkpt><trkpt lat="42.43126476808986" lon="-8.131812126192028"><ele>390.0</ele><time>2026-04-05T18:38:14Z</time></trkpt><trkpt lat="42.43113877071004" lon="-8.131539719469885"><ele>390.0</ele><time>2026-04-05T18:38:14.999Z</time></trkpt><trkpt lat="42.43098779380074" lon="-8.131292177962406"><ele>390.0</ele><time>2026-04-05T18:38:15.999Z</time></trkpt><trkpt lat="42.430822995365695" lon="-8.131053010513469"><ele>390.0</ele><time>2026-04-05T18:38:16.999Z</time></trkpt><trkpt lat="42.43063960428587" lon="-8.130841928342123"><ele>390.0</ele><time>2026-04-05T18:38:17.999Z</time></trkpt><trkpt lat="42.43046051063406" lon="-8.130631742756822"><ele>390.5</ele><time>2026-04-05T18:38:18.999Z</time></trkpt><trkpt lat="42.43027304781708" lon="-8.130434914515359"><ele>391.0</ele><time>2026-04-05T18:38:19.999Z</time></trkpt><trkpt lat="42.43008131135642" lon="-8.130239297550022"><ele>391.0</ele><time>2026-04-05T18:38:20.999Z</time></trkpt><trkpt lat="42.42989334579851" lon="-8.13002621017006"><ele>391.0</ele><time>2026-04-05T18:38:21.999Z</time></trkpt><trkpt lat="42.429695851806905" lon="-8.129839825772887"><ele>390.5</ele><time>2026-04-05T18:38:22.999Z</time></trkpt><trkpt lat="42.42949620242679" lon="-8.129652469382552"><ele>390.0</ele><time>2026-04-05T18:38:23.999Z</time></trkpt><trkpt lat="42.42930877185832" lon="-8.129443834295143"><ele>390.0</ele><time>2026-04-05T18:38:24.999Z</time></trkpt><trkpt lat="42.42912097208725" lon="-8.129253652105952"><ele>390.0</ele><time>2026-04-05T18:38:25.999Z</time></trkpt><trkpt lat="42.428914751405856" lon="-8.129076244149998"><ele>390.0</ele><time>2026-04-05T18:38:26.999Z</time></trkpt><trkpt lat="42.42872116476307" lon="-8.128885916540762"><ele>390.0</ele><time>2026-04-05T18:38:27.999Z</time></trkpt><trkpt lat="42.428524139383924" lon="-8.12869962782678"><ele>390.0</ele><time>2026-04-05T18:38:28.999Z</time></trkpt><trkpt lat="42.428319279326104" lon="-8.12852934789723"><ele>390.0</ele><time>2026-04-05T18:38:29.999Z</time></trkpt><trkpt lat="42.42810807677345" lon="-8.128382657196653"><ele>386.5</ele><time>2026-04-05T18:38:30.999Z</time></trkpt><trkpt lat="42.42788248927632" lon="-8.128259299795713"><ele>383.0</ele><time>2026-04-05T18:38:31.999Z</time></trkpt><trkpt lat="42.427649772251186" lon="-8.128161700469446"><ele>392.5</ele><time>2026-04-05T18:38:32.999Z</time></trkpt><trkpt lat="42.4274148173808" lon="-8.128092910590702"><ele>402.0</ele><time>2026-04-05T18:38:33.999Z</time></trkpt><trkpt lat="42.42718146443797" lon="-8.128020856689634"><ele>402.5</ele><time>2026-04-05T18:38:34.999Z</time></trkpt><trkpt lat="42.42694608251903" lon="-8.12798859681135"><ele>403.0</ele><time>2026-04-05T18:38:35.999Z</time></trkpt><trkpt lat="42.42670586701183" lon="-8.127956602987252"><ele>403.0</ele><time>2026-04-05T18:38:36.999Z</time></trkpt><trkpt lat="42.426468080595534" lon="-8.127920185606156"><ele>403.0</ele><time>2026-04-05T18:38:37.999Z</time></trkpt><trkpt lat="42.42622592270287" lon="-8.127864383500365"><ele>401.5</ele><time>2026-04-05T18:38:38.999Z</time></trkpt><trkpt lat="42.425983673279035" lon="-8.127838817631229"><ele>400.0</ele><time>2026-04-05T18:38:39.999Z</time></trkpt><trkpt lat="42.42574791813377" lon="-8.127789632311158"><ele>400.0</ele><time>2026-04-05T18:38:40.999Z</time></trkpt><trkpt lat="42.42551563721039" lon="-8.127752088576917"><ele>400.0</ele><time>2026-04-05T18:38:41.999Z</time></trkpt><trkpt lat="42.42527950522375" lon="-8.127716014156288"><ele>396.5</ele><time>2026-04-05T18:38:42.999Z</time></trkpt><trkpt lat="42.42503965923817" lon="-8.127678168043968"><ele>393.0</ele><time>2026-04-05T18:38:43.999Z</time></trkpt><trkpt lat="42.42480434693419" lon="-8.127652853182234"><ele>391.5</ele><time>2026-04-05T18:38:44.999Z</time></trkpt><trkpt lat="42.42457348611151" lon="-8.127589194072849"><ele>390.0</ele><time>2026-04-05T18:38:45.999Z</time></trkpt><trkpt lat="42.424349067039515" lon="-8.127495897492482"><ele>401.5</ele><time>2026-04-05T18:38:46.999Z</time></trkpt><trkpt lat="42.42414125525375" lon="-8.127344042047843"><ele>413.0</ele><time>2026-04-05T18:38:47.999Z</time></trkpt><trkpt lat="42.42393631151253" lon="-8.127208445728021"><ele>407.0</ele><time>2026-04-05T18:38:48.999Z</time></trkpt><trkpt lat="42.42373660014221" lon="-8.12704707088107"><ele>401.0</ele><time>2026-04-05T18:38:49.999Z</time></trkpt><trkpt lat="42.42353810628063" lon="-8.12691592367932"><ele>401.0</ele><time>2026-04-05T18:38:50.999Z</time></trkpt><trkpt lat="42.423341565696795" lon="-8.126762164117578"><ele>401.0</ele><time>2026-04-05T18:38:51.999Z</time></trkpt><trkpt lat="42.42314372374496" lon="-8.126607385957922"><ele>401.66666666666663</ele><time>2026-04-05T18:38:52.999Z</time></trkpt><trkpt lat="42.42295021180877" lon="-8.126455995310158"><ele>402.33333333333337</ele><time>2026-04-05T18:38:53.999Z</time></trkpt><trkpt lat="42.422762752629254" lon="-8.126307150486332"><ele>403.0</ele><time>2026-04-05T18:38:54.999Z</time></trkpt><trkpt lat="42.422607585790544" lon="-8.126132454437842"><ele>403.0</ele><time>2026-04-05T18:38:55.999Z</time></trkpt><trkpt lat="42.42244736515952" lon="-8.125993794774494"><ele>403.0</ele><time>2026-04-05T18:38:56.999Z</time></trkpt><trkpt lat="42.42229613201393" lon="-8.125861593171164"><ele>403.0</ele><time>2026-04-05T18:38:57.999Z</time></trkpt><trkpt lat="42.422144094497824" lon="-8.125721046408538"><ele>401.6666666666667</ele><time>2026-04-05T18:38:58.999Z</time></trkpt><trkpt lat="42.42198704244441" lon="-8.12558152380077"><ele>400.33333333333337</ele><time>2026-04-05T18:38:59.999Z</time></trkpt><trkpt lat="42.421835807494936" lon="-8.125435988724895"><ele>399.0</ele><time>2026-04-05T18:39:00.999Z</time></trkpt><trkpt lat="42.421690778564205" lon="-8.125285349025134"><ele>399.0</ele><time>2026-04-05T18:39:01.999Z</time></trkpt><trkpt lat="42.42155948195415" lon="-8.125099501833077"><ele>399.0</ele><time>2026-04-05T18:39:02.999Z</time></trkpt><trkpt lat="42.42145494411878" lon="-8.124895595045464"><ele>399.0</ele><time>2026-04-05T18:39:03.999Z</time></trkpt><trkpt lat="42.42137418858942" lon="-8.124676127556235"><ele>400.0</ele><time>2026-04-05T18:39:04.999Z</time></trkpt><trkpt lat="42.421324965307754" lon="-8.124421845280583"><ele>401.0</ele><time>2026-04-05T18:39:05.999Z</time></trkpt><trkpt lat="42.421297910851784" lon="-8.124157345508621"><ele>402.0</ele><time>2026-04-05T18:39:06.999Z</time></trkpt><trkpt lat="42.42130446668456" lon="-8.12387037635957"><ele>396.66666666666663</ele><time>2026-04-05T18:39:07.999Z</time></trkpt><trkpt lat="42.42130031639748" lon="-8.123580853158757"><ele>391.3333333333333</ele><time>2026-04-05T18:39:08.999Z</time></trkpt><trkpt lat="42.421311891019364" lon="-8.123286063685144"><ele>386.0</ele><time>2026-04-05T18:39:09.999Z</time></trkpt><trkpt lat="42.4213434437328" lon="-8.122984194720193"><ele>386.0</ele><time>2026-04-05T18:39:10.999Z</time></trkpt><trkpt lat="42.42139148913747" lon="-8.122689901787048"><ele>386.0</ele><time>2026-04-05T18:39:11.999Z</time></trkpt><trkpt lat="42.42145814399867" lon="-8.122385224928971"><ele>381.0</ele><time>2026-04-05T18:39:12.999Z</time></trkpt><trkpt lat="42.4215220595962" lon="-8.122073737562813"><ele>376.0</ele><time>2026-04-05T18:39:13.999Z</time></trkpt><trkpt lat="42.4216188630691" lon="-8.121785250303464"><ele>371.5</ele><time>2026-04-05T18:39:14.999Z</time></trkpt><trkpt lat="42.42169882068294" lon="-8.12148449163356"><ele>367.0</ele><time>2026-04-05T18:39:15.999Z</time></trkpt><trkpt lat="42.42178296976802" lon="-8.121181319532969"><ele>367.0</ele><time>2026-04-05T18:39:16.999Z</time></trkpt><trkpt lat="42.42187565956499" lon="-8.120885834140427"><ele>367.0</ele><time>2026-04-05T18:39:17.999Z</time></trkpt><trkpt lat="42.421968130577554" lon="-8.120587724336898"><ele>365.0</ele><time>2026-04-05T18:39:18.999Z</time></trkpt><trkpt lat="42.42206850568861" lon="-8.120288116041085"><ele>363.0</ele><time>2026-04-05T18:39:19.999Z</time></trkpt><trkpt lat="42.422172531887895" lon="-8.119993632463032"><ele>370.0</ele><time>2026-04-05T18:39:20.999Z</time></trkpt><trkpt lat="42.42227936418855" lon="-8.11969462936367"><ele>377.0</ele><time>2026-04-05T18:39:22Z</time></trkpt><trkpt lat="42.42238868666681" lon="-8.119402697247514"><ele>377.0</ele><time>2026-04-05T18:39:23Z</time></trkpt><trkpt lat="42.422507793611004" lon="-8.11910444255501"><ele>377.0</ele><time>2026-04-05T18:39:24Z</time></trkpt><trkpt lat="42.422635796723576" lon="-8.118801502826411"><ele>369.0</ele><time>2026-04-05T18:39:25Z</time></trkpt><trkpt lat="42.42275693351604" lon="-8.118524196400832"><ele>361.0</ele><time>2026-04-05T18:39:26Z</time></trkpt><trkpt lat="42.42288005047804" lon="-8.11822865896627"><ele>364.0</ele><time>2026-04-05T18:39:27Z</time></trkpt><trkpt lat="42.42300216193638" lon="-8.117925106998095"><ele>367.0</ele><time>2026-04-05T18:39:28Z</time></trkpt><trkpt lat="42.423127831070225" lon="-8.117626479280037"><ele>362.5</ele><time>2026-04-05T18:39:29Z</time></trkpt><trkpt lat="42.42326101843761" lon="-8.117330683325706"><ele>358.0</ele><time>2026-04-05T18:39:30Z</time></trkpt><trkpt lat="42.42338972297394" lon="-8.117024839513638"><ele>358.0</ele><time>2026-04-05T18:39:31Z</time></trkpt><trkpt lat="42.423521556569916" lon="-8.116721390669097"><ele>358.0</ele><time>2026-04-05T18:39:32Z</time></trkpt><trkpt lat="42.42366214756353" lon="-8.116430862592885"><ele>355.5</ele><time>2026-04-05T18:39:33Z</time></trkpt><trkpt lat="42.42381084450926" lon="-8.116146287659069"><ele>353.0</ele><time>2026-04-05T18:39:34Z</time></trkpt><trkpt lat="42.42397695413368" lon="-8.115884432202105"><ele>358.5</ele><time>2026-04-05T18:39:35Z</time></trkpt><trkpt lat="42.42415394259847" lon="-8.115664610814601"><ele>364.0</ele><time>2026-04-05T18:39:36Z</time></trkpt><trkpt lat="42.42432164105151" lon="-8.115458452865374"><ele>364.0</ele><time>2026-04-05T18:39:37Z</time></trkpt><trkpt lat="42.424491435915876" lon="-8.115268147291694"><ele>364.0</ele><time>2026-04-05T18:39:38Z</time></trkpt><trkpt lat="42.42466255619755" lon="-8.115074027434618"><ele>364.0</ele><time>2026-04-05T18:39:39Z</time></trkpt><trkpt lat="42.42486434022432" lon="-8.114921116772885"><ele>358.0</ele><time>2026-04-05T18:39:40Z</time></trkpt><trkpt lat="42.425061189997955" lon="-8.114747354690728"><ele>352.0</ele><time>2026-04-05T18:39:41Z</time></trkpt><trkpt lat="42.42525592842898" lon="-8.114551800148993"><ele>352.0</ele><time>2026-04-05T18:39:42Z</time></trkpt><trkpt lat="42.42544872169699" lon="-8.114346320294146"><ele>352.0</ele><time>2026-04-05T18:39:43Z</time></trkpt><trkpt lat="42.425622712823866" lon="-8.114121416455179"><ele>351.5</ele><time>2026-04-05T18:39:44Z</time></trkpt><trkpt lat="42.42579025040064" lon="-8.113889155648573"><ele>351.0</ele><time>2026-04-05T18:39:45Z</time></trkpt><trkpt lat="42.42594325022216" lon="-8.113631423047005"><ele>351.0</ele><time>2026-04-05T18:39:46Z</time></trkpt><trkpt lat="42.42607455235213" lon="-8.113357947837732"><ele>351.0</ele><time>2026-04-05T18:39:47Z</time></trkpt><trkpt lat="42.426195927075874" lon="-8.113067215537038"><ele>349.0</ele><time>2026-04-05T18:39:48Z</time></trkpt><trkpt lat="42.42627939274182" lon="-8.112762360302813"><ele>347.0</ele><time>2026-04-05T18:39:49Z</time></trkpt><trkpt lat="42.42637832542728" lon="-8.112461625066363"><ele>349.0</ele><time>2026-04-05T18:39:50Z</time></trkpt><trkpt lat="42.42642686522002" lon="-8.11214403266933"><ele>351.0</ele><time>2026-04-05T18:39:51Z</time></trkpt><trkpt lat="42.42646745945741" lon="-8.11183315355102"><ele>351.0</ele><time>2026-04-05T18:39:52Z</time></trkpt><trkpt lat="42.42649552984689" lon="-8.111522048306359"><ele>351.0</ele><time>2026-04-05T18:39:53Z</time></trkpt><trkpt lat="42.4265051464842" lon="-8.111208654030223"><ele>351.0</ele><time>2026-04-05T18:39:54Z</time></trkpt><trkpt lat="42.426497285745164" lon="-8.110902258917884"><ele>351.0</ele><time>2026-04-05T18:39:55Z</time></trkpt><trkpt lat="42.4264771674787" lon="-8.110599942041846"><ele>351.0</ele><time>2026-04-05T18:39:56Z</time></trkpt><trkpt lat="42.426441026159395" lon="-8.110304687087638"><ele>351.0</ele><time>2026-04-05T18:39:57Z</time></trkpt><trkpt lat="42.42639038296824" lon="-8.110003169713112"><ele>351.0</ele><time>2026-04-05T18:39:58Z</time></trkpt><trkpt lat="42.42631462954907" lon="-8.10972153112579"><ele>350.3333333333333</ele><time>2026-04-05T18:39:59Z</time></trkpt><trkpt lat="42.4262340383031" lon="-8.109468252150833"><ele>349.66666666666663</ele><time>2026-04-05T18:40:00Z</time></trkpt><trkpt lat="42.426150756561974" lon="-8.109227705418729"><ele>349.0</ele><time>2026-04-05T18:40:01Z</time></trkpt><trkpt lat="42.42606763959092" lon="-8.108997223616516"><ele>349.0</ele><time>2026-04-05T18:40:02Z</time></trkpt><trkpt lat="42.42598268350459" lon="-8.108767673201852"><ele>349.0</ele><time>2026-04-05T18:40:03Z</time></trkpt><trkpt lat="42.42589879680199" lon="-8.108546401436474"><ele>349.0</ele><time>2026-04-05T18:40:04Z</time></trkpt><trkpt lat="42.42581844935163" lon="-8.10833673026594"><ele>350.0</ele><time>2026-04-05T18:40:05Z</time></trkpt><trkpt lat="42.42574228671582" lon="-8.108136525874286"><ele>351.0</ele><time>2026-04-05T18:40:06Z</time></trkpt><trkpt lat="42.425663193966436" lon="-8.10792998805616"><ele>352.0</ele><time>2026-04-05T18:40:07Z</time></trkpt><trkpt lat="42.42558403009612" lon="-8.107724113437698"><ele>352.0</ele><time>2026-04-05T18:40:08Z</time></trkpt><trkpt lat="42.42550772474206" lon="-8.107510865752534"><ele>352.0</ele><time>2026-04-05T18:40:09Z</time></trkpt><trkpt lat="42.42544654265901" lon="-8.107288245297578"><ele>352.0</ele><time>2026-04-05T18:40:10Z</time></trkpt><trkpt lat="42.42537869144999" lon="-8.107064887947876"><ele>350.66666666666663</ele><time>2026-04-05T18:40:11Z</time></trkpt><trkpt lat="42.42531126524602" lon="-8.106840132691012"><ele>349.3333333333333</ele><time>2026-04-05T18:40:12Z</time></trkpt><trkpt lat="42.4252556222677" lon="-8.106599232914496"><ele>348.0</ele><time>2026-04-05T18:40:13Z</time></trkpt><trkpt lat="42.425221014034626" lon="-8.106398804760435"><ele>348.0</ele><time>2026-04-05T18:40:14Z</time></trkpt><trkpt lat="42.42520317989369" lon="-8.106120261215835"><ele>348.0</ele><time>2026-04-05T18:40:14.999Z</time></trkpt><trkpt lat="42.42520993731892" lon="-8.105865278511242"><ele>348.0</ele><time>2026-04-05T18:40:15.999Z</time></trkpt><trkpt lat="42.42523463811165" lon="-8.105612363584479"><ele>348.3333333333333</ele><time>2026-04-05T18:40:16.999Z</time></trkpt><trkpt lat="42.42526791065518" lon="-8.10536537895403"><ele>348.66666666666663</ele><time>2026-04-05T18:40:17.999Z</time></trkpt><trkpt lat="42.42530701360844" lon="-8.105124187456656"><ele>349.0</ele><time>2026-04-05T18:40:18.999Z</time></trkpt><trkpt lat="42.42535233886643" lon="-8.104885369773163"><ele>349.3333333333333</ele><time>2026-04-05T18:40:19.999Z</time></trkpt><trkpt lat="42.425374680636345" lon="-8.104647332683165"><ele>349.6666666666667</ele><time>2026-04-05T18:40:20.999Z</time></trkpt><trkpt lat="42.425406099214214" lon="-8.104417113707242"><ele>350.0</ele><time>2026-04-05T18:40:21.999Z</time></trkpt><trkpt lat="42.425431919551166" lon="-8.104186444699796"><ele>350.0</ele><time>2026-04-05T18:40:22.999Z</time></trkpt><trkpt lat="42.42544888322578" lon="-8.103951017738774"><ele>350.0</ele><time>2026-04-05T18:40:23.999Z</time></trkpt><trkpt lat="42.42545189929276" lon="-8.103703801849004"><ele>350.0</ele><time>2026-04-05T18:40:24.999Z</time></trkpt><trkpt lat="42.42544098257566" lon="-8.103451125587544"><ele>350.33333333333337</ele><time>2026-04-05T18:40:25.999Z</time></trkpt><trkpt lat="42.42542154024097" lon="-8.10320681424939"><ele>350.6666666666667</ele><time>2026-04-05T18:40:26.999Z</time></trkpt><trkpt lat="42.42539568475282" lon="-8.102963417202876"><ele>351.0</ele><time>2026-04-05T18:40:27.999Z</time></trkpt><trkpt lat="42.42536651586272" lon="-8.102709652079016"><ele>351.0</ele><time>2026-04-05T18:40:28.999Z</time></trkpt><trkpt lat="42.42533780123638" lon="-8.102459839041734"><ele>351.0</ele><time>2026-04-05T18:40:29.999Z</time></trkpt><trkpt lat="42.42531519765393" lon="-8.102195839487333"><ele>351.0</ele><time>2026-04-05T18:40:30.999Z</time></trkpt><trkpt lat="42.42530744217577" lon="-8.101935515527412"><ele>352.3333333333333</ele><time>2026-04-05T18:40:31.999Z</time></trkpt><trkpt lat="42.42531645547809" lon="-8.101673425730494"><ele>353.66666666666663</ele><time>2026-04-05T18:40:32.999Z</time></trkpt><trkpt lat="42.42533900697431" lon="-8.101414218904198"><ele>355.0</ele><time>2026-04-05T18:40:33.999Z</time></trkpt><trkpt lat="42.42539191246613" lon="-8.10115545123567"><ele>356.0</ele><time>2026-04-05T18:40:34.999Z</time></trkpt><trkpt lat="42.42542636117116" lon="-8.100895305357446"><ele>357.0</ele><time>2026-04-05T18:40:35.999Z</time></trkpt><trkpt lat="42.42548658143635" lon="-8.100643856368398"><ele>358.0</ele><time>2026-04-05T18:40:36.999Z</time></trkpt><trkpt lat="42.42556786968018" lon="-8.100399282145494"><ele>363.66666666666663</ele><time>2026-04-05T18:40:37.999Z</time></trkpt><trkpt lat="42.42562865118994" lon="-8.100150716828804"><ele>369.3333333333333</ele><time>2026-04-05T18:40:38.999Z</time></trkpt><trkpt lat="42.42569007198323" lon="-8.099890146626356"><ele>375.0</ele><time>2026-04-05T18:40:39.999Z</time></trkpt><trkpt lat="42.42574382020947" lon="-8.099635140096458"><ele>376.6666666666667</ele><time>2026-04-05T18:40:40.999Z</time></trkpt><trkpt lat="42.425760124277424" lon="-8.099362464152067"><ele>378.33333333333337</ele><time>2026-04-05T18:40:41.999Z</time></trkpt><trkpt lat="42.42579127156118" lon="-8.099095851690723"><ele>380.0</ele><time>2026-04-05T18:40:42.999Z</time></trkpt><trkpt lat="42.425807470446905" lon="-8.098824332357866"><ele>382.0</ele><time>2026-04-05T18:40:43.999Z</time></trkpt><trkpt lat="42.425821861869295" lon="-8.098545943123591"><ele>384.0</ele><time>2026-04-05T18:40:44.999Z</time></trkpt><trkpt lat="42.4258486670472" lon="-8.098268695588237"><ele>386.0</ele><time>2026-04-05T18:40:45.999Z</time></trkpt><trkpt lat="42.42588395795538" lon="-8.097991789536389"><ele>386.0</ele><time>2026-04-05T18:40:46.999Z</time></trkpt><trkpt lat="42.42594212517567" lon="-8.09770373296001"><ele>386.0</ele><time>2026-04-05T18:40:47.999Z</time></trkpt><trkpt lat="42.42601042607512" lon="-8.097440709081061"><ele>386.0</ele><time>2026-04-05T18:40:48.999Z</time></trkpt><trkpt lat="42.42609645471194" lon="-8.097184703141194"><ele>386.0</ele><time>2026-04-05T18:40:49.999Z</time></trkpt><trkpt lat="42.426189244845276" lon="-8.096942324263221"><ele>386.0</ele><time>2026-04-05T18:40:50.999Z</time></trkpt><trkpt lat="42.4262945790929" lon="-8.096718786940134"><ele>386.0</ele><time>2026-04-05T18:40:51.999Z</time></trkpt><trkpt lat="42.42640974842517" lon="-8.096512288354976"><ele>384.3333333333333</ele><time>2026-04-05T18:40:52.999Z</time></trkpt><trkpt lat="42.42653585476104" lon="-8.096305491656858"><ele>382.66666666666663</ele><time>2026-04-05T18:40:53.999Z</time></trkpt><trkpt lat="42.42666773583428" lon="-8.096100789092846"><ele>381.0</ele><time>2026-04-05T18:40:54.999Z</time></trkpt><trkpt lat="42.42680589301013" lon="-8.09589192739708"><ele>381.6666666666667</ele><time>2026-04-05T18:40:55.999Z</time></trkpt><trkpt lat="42.42694672503794" lon="-8.095677615722611"><ele>382.33333333333337</ele><time>2026-04-05T18:40:56.999Z</time></trkpt><trkpt lat="42.427089667045884" lon="-8.095461581090044"><ele>383.0</ele><time>2026-04-05T18:40:57.999Z</time></trkpt><trkpt lat="42.427230505033044" lon="-8.095244080358523"><ele>383.0</ele><time>2026-04-05T18:40:58.999Z</time></trkpt><trkpt lat="42.427377522559546" lon="-8.095025804028982"><ele>383.0</ele><time>2026-04-05T18:40:59.999Z</time></trkpt><trkpt lat="42.427526245071775" lon="-8.094805522767567"><ele>383.0</ele><time>2026-04-05T18:41:00.999Z</time></trkpt><trkpt lat="42.4276883453568" lon="-8.09458772169028"><ele>382.6666666666667</ele><time>2026-04-05T18:41:01.999Z</time></trkpt><trkpt lat="42.42783797995602" lon="-8.094364989670371"><ele>382.3333333333333</ele><time>2026-04-05T18:41:02.999Z</time></trkpt><trkpt lat="42.42798077531061" lon="-8.094127843635025"><ele>382.0</ele><time>2026-04-05T18:41:03.999Z</time></trkpt><trkpt lat="42.428122681363185" lon="-8.093885367354455"><ele>378.5</ele><time>2026-04-05T18:41:04.999Z</time></trkpt><trkpt lat="42.4282415015844" lon="-8.093614440372296"><ele>375.0</ele><time>2026-04-05T18:41:05.999Z</time></trkpt><trkpt lat="42.428382902242795" lon="-8.09336717510598"><ele>373.6666666666667</ele><time>2026-04-05T18:41:06.999Z</time></trkpt><trkpt lat="42.42853288683922" lon="-8.093136982574043"><ele>372.33333333333337</ele><time>2026-04-05T18:41:07.999Z</time></trkpt><trkpt lat="42.42865146239064" lon="-8.092905726990251"><ele>371.0</ele><time>2026-04-05T18:41:08.999Z</time></trkpt><trkpt lat="42.428773094495966" lon="-8.092696262217554"><ele>372.6666666666667</ele><time>2026-04-05T18:41:09.999Z</time></trkpt><trkpt lat="42.428885125120054" lon="-8.092489149894082"><ele>374.3333333333333</ele><time>2026-04-05T18:41:10.999Z</time></trkpt><trkpt lat="42.428989229243186" lon="-8.092285758937592"><ele>376.0</ele><time>2026-04-05T18:41:11.999Z</time></trkpt><trkpt lat="42.4290911276258" lon="-8.092080032691754"><ele>376.0</ele><time>2026-04-05T18:41:12.999Z</time></trkpt><trkpt lat="42.4291945565336" lon="-8.091869016128456"><ele>376.0</ele><time>2026-04-05T18:41:13.999Z</time></trkpt><trkpt lat="42.42930009344604" lon="-8.091661242935416"><ele>376.0</ele><time>2026-04-05T18:41:14.999Z</time></trkpt><trkpt lat="42.4294106780051" lon="-8.09145079251341"><ele>375.0</ele><time>2026-04-05T18:41:15.999Z</time></trkpt><trkpt lat="42.429517127673364" lon="-8.091234057291832"><ele>374.0</ele><time>2026-04-05T18:41:16.999Z</time></trkpt><trkpt lat="42.42962067562151" lon="-8.09102218949968"><ele>373.0</ele><time>2026-04-05T18:41:17.999Z</time></trkpt><trkpt lat="42.42971399537062" lon="-8.090818404750873"><ele>377.0</ele><time>2026-04-05T18:41:18.999Z</time></trkpt><trkpt lat="42.42971087932778" lon="-8.090543284695753"><ele>381.0</ele><time>2026-04-05T18:41:19.999Z</time></trkpt><trkpt lat="42.42988756129644" lon="-8.090427087005484"><ele>385.0</ele><time>2026-04-05T18:41:20.999Z</time></trkpt><trkpt lat="42.42997465783465" lon="-8.090235815577802"><ele>385.0</ele><time>2026-04-05T18:41:21.999Z</time></trkpt><trkpt lat="42.43005965052539" lon="-8.090042982784837"><ele>385.0</ele><time>2026-04-05T18:41:22.999Z</time></trkpt><trkpt lat="42.43015379519426" lon="-8.089840830001904"><ele>385.0</ele><time>2026-04-05T18:41:23.999Z</time></trkpt><trkpt lat="42.43024103764698" lon="-8.089632650910659"><ele>383.6666666666667</ele><time>2026-04-05T18:41:24.999Z</time></trkpt><trkpt lat="42.430326077867065" lon="-8.08942522398091"><ele>382.33333333333337</ele><time>2026-04-05T18:41:25.999Z</time></trkpt><trkpt lat="42.430416557844815" lon="-8.089225748198984"><ele>381.0</ele><time>2026-04-05T18:41:26.999Z</time></trkpt><trkpt lat="42.4305086539298" lon="-8.08902950052998"><ele>381.0</ele><time>2026-04-05T18:41:28Z</time></trkpt><trkpt lat="42.43060235099251" lon="-8.088842167539324"><ele>381.0</ele><time>2026-04-05T18:41:29Z</time></trkpt><trkpt lat="42.430695537844564" lon="-8.088655983982749"><ele>381.0</ele><time>2026-04-05T18:41:30Z</time></trkpt><trkpt lat="42.430789858953204" lon="-8.088472496279294"><ele>381.0</ele><time>2026-04-05T18:41:31Z</time></trkpt><trkpt lat="42.430889480581094" lon="-8.088300870550666"><ele>381.0</ele><time>2026-04-05T18:41:32Z</time></trkpt><trkpt lat="42.430989829769445" lon="-8.088139827041678"><ele>381.0</ele><time>2026-04-05T18:41:33Z</time></trkpt><trkpt lat="42.43109684648244" lon="-8.087977736109393"><ele>379.3333333333333</ele><time>2026-04-05T18:41:34Z</time></trkpt><trkpt lat="42.43120985826366" lon="-8.087830430854003"><ele>377.66666666666663</ele><time>2026-04-05T18:41:35Z</time></trkpt><trkpt lat="42.43132272276419" lon="-8.087680453524005"><ele>376.0</ele><time>2026-04-05T18:41:36Z</time></trkpt><trkpt lat="42.43143988019718" lon="-8.087537826303647"><ele>377.0</ele><time>2026-04-05T18:41:37Z</time></trkpt><trkpt lat="42.431556660595724" lon="-8.087390566311532"><ele>378.0</ele><time>2026-04-05T18:41:38Z</time></trkpt><trkpt lat="42.43167744331657" lon="-8.08724626254442"><ele>379.0</ele><time>2026-04-05T18:41:39Z</time></trkpt><trkpt lat="42.431799761122015" lon="-8.087111132200164"><ele>379.0</ele><time>2026-04-05T18:41:40Z</time></trkpt><trkpt lat="42.43191735704122" lon="-8.08698701082095"><ele>379.0</ele><time>2026-04-05T18:41:41Z</time></trkpt><trkpt lat="42.43202395180396" lon="-8.086857380162765"><ele>379.0</ele><time>2026-04-05T18:41:42Z</time></trkpt><trkpt lat="42.432136733070905" lon="-8.086728349138367"><ele>379.0</ele><time>2026-04-05T18:41:43Z</time></trkpt><trkpt lat="42.43224668110723" lon="-8.086595181450296"><ele>380.5</ele><time>2026-04-05T18:41:44Z</time></trkpt><trkpt lat="42.43235737856259" lon="-8.086468816777451"><ele>382.0</ele><time>2026-04-05T18:41:45Z</time></trkpt><trkpt lat="42.432474076983624" lon="-8.086339888881106"><ele>383.5</ele><time>2026-04-05T18:41:46Z</time></trkpt><trkpt lat="42.432587639271695" lon="-8.08620485622189"><ele>385.0</ele><time>2026-04-05T18:41:47Z</time></trkpt><trkpt lat="42.43269876875731" lon="-8.086071944614101"><ele>385.0</ele><time>2026-04-05T18:41:48Z</time></trkpt><trkpt lat="42.43281313132382" lon="-8.085925107802847"><ele>385.0</ele><time>2026-04-05T18:41:49Z</time></trkpt><trkpt lat="42.43292936837873" lon="-8.085768309548545"><ele>385.0</ele><time>2026-04-05T18:41:50Z</time></trkpt><trkpt lat="42.43305374675078" lon="-8.085596234963544"><ele>384.6666666666667</ele><time>2026-04-05T18:41:51Z</time></trkpt><trkpt lat="42.43317357339882" lon="-8.08542843797728"><ele>384.33333333333337</ele><time>2026-04-05T18:41:52Z</time></trkpt><trkpt lat="42.43330449463352" lon="-8.08525523663429"><ele>384.0</ele><time>2026-04-05T18:41:53Z</time></trkpt><trkpt lat="42.433439180960335" lon="-8.08508572502128"><ele>382.0</ele><time>2026-04-05T18:41:54Z</time></trkpt><trkpt lat="42.43356699943943" lon="-8.084927126885969"><ele>380.0</ele><time>2026-04-05T18:41:55Z</time></trkpt><trkpt lat="42.43368006998288" lon="-8.084767497894713"><ele>378.0</ele><time>2026-04-05T18:41:56Z</time></trkpt><trkpt lat="42.43380443325858" lon="-8.08462432062423"><ele>378.0</ele><time>2026-04-05T18:41:57Z</time></trkpt><trkpt lat="42.43393641445517" lon="-8.08447684132257"><ele>378.0</ele><time>2026-04-05T18:41:58Z</time></trkpt><trkpt lat="42.43407680166829" lon="-8.08434503009464"><ele>378.0</ele><time>2026-04-05T18:41:59Z</time></trkpt><trkpt lat="42.43422584090764" lon="-8.08422112162141"><ele>378.0</ele><time>2026-04-05T18:42:00Z</time></trkpt><trkpt lat="42.43437278250911" lon="-8.084089734704287"><ele>378.0</ele><time>2026-04-05T18:42:01Z</time></trkpt><trkpt lat="42.434524934912886" lon="-8.0839808666965"><ele>378.0</ele><time>2026-04-05T18:42:02Z</time></trkpt><trkpt lat="42.434679020715414" lon="-8.083864530403762"><ele>378.0</ele><time>2026-04-05T18:42:03Z</time></trkpt><trkpt lat="42.43483554545385" lon="-8.083762396270176"><ele>378.0</ele><time>2026-04-05T18:42:04Z</time></trkpt><trkpt lat="42.435002407572085" lon="-8.083675383529636"><ele>378.0</ele><time>2026-04-05T18:42:05Z</time></trkpt><trkpt lat="42.43515978630589" lon="-8.083584703443398"><ele>378.0</ele><time>2026-04-05T18:42:06Z</time></trkpt><trkpt lat="42.43531851844894" lon="-8.083505730645339"><ele>378.0</ele><time>2026-04-05T18:42:07Z</time></trkpt><trkpt lat="42.435472420315236" lon="-8.083436275775293"><ele>378.0</ele><time>2026-04-05T18:42:08Z</time></trkpt><trkpt lat="42.43562290435487" lon="-8.083347030049985"><ele>378.6666666666667</ele><time>2026-04-05T18:42:09Z</time></trkpt><trkpt lat="42.435761607877474" lon="-8.083272769737711"><ele>379.33333333333337</ele><time>2026-04-05T18:42:10Z</time></trkpt><trkpt lat="42.43590487201868" lon="-8.083205762559501"><ele>380.0</ele><time>2026-04-05T18:42:11Z</time></trkpt><trkpt lat="42.43605225878943" lon="-8.083133311775498"><ele>380.0</ele><time>2026-04-05T18:42:12Z</time></trkpt><trkpt lat="42.43619557361206" lon="-8.083054394986794"><ele>380.0</ele><time>2026-04-05T18:42:13Z</time></trkpt><trkpt lat="42.436331257695656" lon="-8.082954579125818"><ele>380.0</ele><time>2026-04-05T18:42:13.999Z</time></trkpt><trkpt lat="42.43644645737071" lon="-8.082830184969096"><ele>379.75</ele><time>2026-04-05T18:42:14.999Z</time></trkpt><trkpt lat="42.43654509320656" lon="-8.082678972926251"><ele>379.5</ele><time>2026-04-05T18:42:15.999Z</time></trkpt><trkpt lat="42.43661529065917" lon="-8.08251916180864"><ele>379.25</ele><time>2026-04-05T18:42:16.999Z</time></trkpt><trkpt lat="42.43667182291061" lon="-8.082348971431191"><ele>379.0</ele><time>2026-04-05T18:42:17.999Z</time></trkpt><trkpt lat="42.43672015565569" lon="-8.082163802241187"><ele>379.0</ele><time>2026-04-05T18:42:18.999Z</time></trkpt><trkpt lat="42.43676123368962" lon="-8.081953683281007"><ele>379.0</ele><time>2026-04-05T18:42:19.999Z</time></trkpt><trkpt lat="42.43679677137996" lon="-8.081740330474174"><ele>379.0</ele><time>2026-04-05T18:42:20.999Z</time></trkpt><trkpt lat="42.43681558119541" lon="-8.08151427752969"><ele>378.66666666666663</ele><time>2026-04-05T18:42:21.999Z</time></trkpt><trkpt lat="42.4368243961403" lon="-8.081285799491514"><ele>378.3333333333333</ele><time>2026-04-05T18:42:22.999Z</time></trkpt><trkpt lat="42.436822713682275" lon="-8.081070463875257"><ele>378.0</ele><time>2026-04-05T18:42:23.999Z</time></trkpt><trkpt lat="42.436807389056106" lon="-8.080853066057147"><ele>379.25</ele><time>2026-04-05T18:42:24.999Z</time></trkpt><trkpt lat="42.43677753639532" lon="-8.080651187190313"><ele>380.5</ele><time>2026-04-05T18:42:25.999Z</time></trkpt><trkpt lat="42.436740227198115" lon="-8.080464349965077"><ele>381.75</ele><time>2026-04-05T18:42:26.999Z</time></trkpt><trkpt lat="42.43669875016209" lon="-8.080289700274639"><ele>383.0</ele><time>2026-04-05T18:42:27.999Z</time></trkpt><trkpt lat="42.436645907729726" lon="-8.080102989104553"><ele>384.0</ele><time>2026-04-05T18:42:28.999Z</time></trkpt><trkpt lat="42.43657607423915" lon="-8.079923065297177"><ele>385.0</ele><time>2026-04-05T18:42:29.999Z</time></trkpt><trkpt lat="42.436517021579824" lon="-8.079765653621223"><ele>386.0</ele><time>2026-04-05T18:42:30.999Z</time></trkpt><trkpt lat="42.43644345242693" lon="-8.07959432011444"><ele>387.0</ele><time>2026-04-05T18:42:31.999Z</time></trkpt><trkpt lat="42.4363745891135" lon="-8.079448774203744"><ele>388.40000000000003</ele><time>2026-04-05T18:42:32.999Z</time></trkpt><trkpt lat="42.436298313841704" lon="-8.079320584088347"><ele>389.8</ele><time>2026-04-05T18:42:33.999Z</time></trkpt><trkpt lat="42.43622211978425" lon="-8.079202728697837"><ele>391.2</ele><time>2026-04-05T18:42:34.999Z</time></trkpt><trkpt lat="42.43615096062919" lon="-8.079104076831698"><ele>392.6</ele><time>2026-04-05T18:42:35.999Z</time></trkpt><trkpt lat="42.43607529322616" lon="-8.079035408655002"><ele>394.0</ele><time>2026-04-05T18:42:36.999Z</time></trkpt><trkpt lat="42.436007643052214" lon="-8.078949533792459"><ele>394.1666666666667</ele><time>2026-04-05T18:42:37.999Z</time></trkpt><trkpt lat="42.43595092964211" lon="-8.078850964507048"><ele>394.33333333333337</ele><time>2026-04-05T18:42:38.999Z</time></trkpt><trkpt lat="42.43586777115553" lon="-8.07879178018627"><ele>394.5</ele><time>2026-04-05T18:42:39.999Z</time></trkpt><trkpt lat="42.4357999582793" lon="-8.078721229479982"><ele>394.66666666666663</ele><time>2026-04-05T18:42:40.999Z</time></trkpt><trkpt lat="42.43573294612761" lon="-8.07865680164176"><ele>394.8333333333333</ele><time>2026-04-05T18:42:41.999Z</time></trkpt><trkpt lat="42.43567979083661" lon="-8.078578614959698"><ele>395.0</ele><time>2026-04-05T18:42:42.999Z</time></trkpt><trkpt lat="42.43562472474859" lon="-8.078527326078861"><ele>395.0</ele><time>2026-04-05T18:42:43.999Z</time></trkpt><trkpt lat="42.43556813696218" lon="-8.078473039831865"><ele>395.0</ele><time>2026-04-05T18:42:44.999Z</time></trkpt><trkpt lat="42.43550701917507" lon="-8.078409782278124"><ele>395.0</ele><time>2026-04-05T18:42:45.999Z</time></trkpt><trkpt lat="42.43543787604402" lon="-8.078347184936014"><ele>395.0</ele><time>2026-04-05T18:42:46.999Z</time></trkpt><trkpt lat="42.43537528724933" lon="-8.07830988330414"><ele>395.0</ele><time>2026-04-05T18:42:47.999Z</time></trkpt><trkpt lat="42.435323681837474" lon="-8.078234663616662"><ele>395.0</ele><time>2026-04-05T18:42:48.999Z</time></trkpt><trkpt lat="42.435264058314274" lon="-8.078176710714729"><ele>395.0</ele><time>2026-04-05T18:42:49.999Z</time></trkpt><trkpt lat="42.43520385095538" lon="-8.078144455713787"><ele>396.8</ele><time>2026-04-05T18:42:50.999Z</time></trkpt><trkpt lat="42.4351323878774" lon="-8.078048896995314"><ele>398.6</ele><time>2026-04-05T18:42:52.999Z</time></trkpt><trkpt lat="42.435052206398005" lon="-8.07798017642446"><ele>400.4</ele><time>2026-04-05T18:42:54.999Z</time></trkpt><trkpt lat="42.43495458725487" lon="-8.077946921102471"><ele>402.2</ele><time>2026-04-05T18:42:56.999Z</time></trkpt><trkpt lat="42.43484131895561" lon="-8.077908900998253"><ele>404.0</ele><time>2026-04-05T18:42:58.999Z</time></trkpt><trkpt lat="42.43475188346594" lon="-8.077807602675914"><ele>404.0</ele><time>2026-04-05T18:43:00.999Z</time></trkpt><trkpt lat="42.43471659745605" lon="-8.077654760973488"><ele>404.0</ele><time>2026-04-05T18:43:02.999Z</time></trkpt><trkpt lat="42.43473328072287" lon="-8.077502316373268"><ele>404.0</ele><time>2026-04-05T18:43:04.999Z</time></trkpt><trkpt lat="42.43471841554287" lon="-8.077335352997846"><ele>404.0</ele><time>2026-04-05T18:43:06.999Z</time></trkpt><trkpt lat="42.43467420434583" lon="-8.077267669849784"><ele>404.0</ele><time>2026-04-05T18:43:07.999Z</time></trkpt><trkpt lat="42.43463744136971" lon="-8.07718730598039"><ele>404.49999999999994</ele><time>2026-04-05T18:43:08.999Z</time></trkpt><trkpt lat="42.434599455115084" lon="-8.077104268029116"><ele>405.0</ele><time>2026-04-05T18:43:09.999Z</time></trkpt><trkpt lat="42.43455892340653" lon="-8.077016274465384"><ele>405.5</ele><time>2026-04-05T18:43:10.999Z</time></trkpt><trkpt lat="42.43451577358455" lon="-8.076922643463833"><ele>406.0</ele><time>2026-04-05T18:43:11.999Z</time></trkpt><trkpt lat="42.43446556155968" lon="-8.076813688154395"><ele>406.49999999999994</ele><time>2026-04-05T18:43:12.999Z</time></trkpt><trkpt lat="42.434418604587" lon="-8.076711796008524"><ele>407.0</ele><time>2026-04-05T18:43:13.999Z</time></trkpt><trkpt lat="42.434376972331876" lon="-8.076621457978636"><ele>407.14285714285717</ele><time>2026-04-05T18:43:14.999Z</time></trkpt><trkpt lat="42.43434230775812" lon="-8.076546239183882"><ele>407.2857142857143</ele><time>2026-04-05T18:43:15.999Z</time></trkpt><trkpt lat="42.43430811396821" lon="-8.076471983164272"><ele>407.42857142857144</ele><time>2026-04-05T18:43:16.999Z</time></trkpt><trkpt lat="42.434272553839435" lon="-8.076394443856186"><ele>407.57142857142856</ele><time>2026-04-05T18:43:17.999Z</time></trkpt><trkpt lat="42.43423495714695" lon="-8.076312463786088"><ele>407.7142857142857</ele><time>2026-04-05T18:43:18.999Z</time></trkpt><trkpt lat="42.43419935950588" lon="-8.076234842669503"><ele>407.8571428571429</ele><time>2026-04-05T18:43:19.999Z</time></trkpt><trkpt lat="42.4341612735514" lon="-8.076151795751844"><ele>408.0</ele><time>2026-04-05T18:43:20.999Z</time></trkpt><trkpt lat="42.43412658953857" lon="-8.076076166820437"><ele>408.0</ele><time>2026-04-05T18:43:21.999Z</time></trkpt><trkpt lat="42.434079232735535" lon="-8.07597322392643"><ele>408.0</ele><time>2026-04-05T18:43:22.999Z</time></trkpt><trkpt lat="42.43402485198383" lon="-8.075855086426008"><ele>408.0</ele><time>2026-04-05T18:43:23.999Z</time></trkpt><trkpt lat="42.43396410505327" lon="-8.075722649838479"><ele>408.0</ele><time>2026-04-05T18:43:24.999Z</time></trkpt><trkpt lat="42.433904721645916" lon="-8.075592710795577"><ele>408.0</ele><time>2026-04-05T18:43:25.999Z</time></trkpt><trkpt lat="42.43386900160513" lon="-8.075475616411799"><ele>408.0</ele><time>2026-04-05T18:43:26.999Z</time></trkpt><trkpt lat="42.433817474091704" lon="-8.075403157921166"><ele>408.0</ele><time>2026-04-05T18:43:27.999Z</time></trkpt><trkpt lat="42.43378037909903" lon="-8.0753220267968"><ele>408.0</ele><time>2026-04-05T18:43:34Z</time></trkpt><trkpt lat="42.43372733297085" lon="-8.075206205995359"><ele>408.0</ele><time>2026-04-05T18:43:49Z</time></trkpt><trkpt lat="42.43368199625037" lon="-8.075107217906984"><ele>408.0</ele><time>2026-04-05T18:43:50Z</time></trkpt><trkpt lat="42.43364135997952" lon="-8.075018492624345"><ele>408.0</ele><time>2026-04-05T18:43:51Z</time></trkpt><trkpt lat="42.433602813297156" lon="-8.074933847391913"><ele>408.0</ele><time>2026-04-05T18:43:53Z</time></trkpt><trkpt lat="42.433530023495706" lon="-8.07476947612895"><ele>408.0</ele><time>2026-04-05T18:43:55Z</time></trkpt><trkpt lat="42.43347781032943" lon="-8.074651570273312"><ele>408.0</ele><time>2026-04-05T18:43:57Z</time></trkpt><trkpt lat="42.43344176257494" lon="-8.07457016856188"><ele>408.0</ele><time>2026-04-05T18:43:58Z</time></trkpt><trkpt lat="42.433403788160874" lon="-8.074484639371573"><ele>408.0</ele><time>2026-04-05T18:43:59Z</time></trkpt><trkpt lat="42.433363446313145" lon="-8.074394109838337"><ele>408.0</ele><time>2026-04-05T18:44:00Z</time></trkpt><trkpt lat="42.43332745374562" lon="-8.074313340337872"><ele>408.0</ele><time>2026-04-05T18:44:01Z</time></trkpt><trkpt lat="42.433286427012476" lon="-8.07422127386401"><ele>408.0</ele><time>2026-04-05T18:44:02Z</time></trkpt><trkpt lat="42.43324710749348" lon="-8.074133038495143"><ele>408.0</ele><time>2026-04-05T18:44:03Z</time></trkpt><trkpt lat="42.433201729284555" lon="-8.074031207056532"><ele>408.0</ele><time>2026-04-05T18:44:04Z</time></trkpt><trkpt lat="42.43315890367868" lon="-8.073935103807935"><ele>408.0</ele><time>2026-04-05T18:44:05Z</time></trkpt><trkpt lat="42.433115220903986" lon="-8.073837077022855"><ele>407.1666666666667</ele><time>2026-04-05T18:44:06Z</time></trkpt><trkpt lat="42.43307708702879" lon="-8.073751502302947"><ele>406.33333333333337</ele><time>2026-04-05T18:44:07Z</time></trkpt><trkpt lat="42.43303694844403" lon="-8.073661428894917"><ele>405.5</ele><time>2026-04-05T18:44:08Z</time></trkpt><trkpt lat="42.43298646130665" lon="-8.073548132683252"><ele>404.6666666666667</ele><time>2026-04-05T18:44:09Z</time></trkpt><trkpt lat="42.43295589664897" lon="-8.073458058624432"><ele>403.83333333333337</ele><time>2026-04-05T18:44:10Z</time></trkpt><trkpt lat="42.43291149364753" lon="-8.073379900737793"><ele>403.0</ele><time>2026-04-05T18:44:11Z</time></trkpt><trkpt lat="42.432874961351686" lon="-8.073297920056223"><ele>402.75</ele><time>2026-04-05T18:44:12Z</time></trkpt><trkpt lat="42.43279457024886" lon="-8.07319020402912"><ele>402.5</ele><time>2026-04-05T18:44:14Z</time></trkpt><trkpt lat="42.4326742122057" lon="-8.073282129943681"><ele>402.25</ele><time>2026-04-05T18:44:16.999Z</time></trkpt><trkpt lat="42.432597606975776" lon="-8.07334683579661"><ele>402.0</ele><time>2026-04-05T18:44:18.999Z</time></trkpt><trkpt lat="42.43249717231412" lon="-8.073431319276862"><ele>402.0</ele><time>2026-04-05T18:44:20.999Z</time></trkpt><trkpt lat="42.43242718605317" lon="-8.073489351481062"><ele>402.0</ele><time>2026-04-05T18:44:22.999Z</time></trkpt><trkpt lat="42.43235402013808" lon="-8.07355002024475"><ele>402.0</ele><time>2026-04-05T18:45:28.999Z</time></trkpt><trkpt lat="42.432300026912806" lon="-8.073594791116314"><ele>402.0</ele><time>2026-04-05T18:45:30.999Z</time></trkpt><trkpt lat="42.43224212436516" lon="-8.073642803577927"><ele>402.0</ele><time>2026-04-05T18:45:32.999Z</time></trkpt><trkpt lat="42.432165659230286" lon="-8.073706208030618"><ele>402.0</ele><time>2026-04-05T18:45:35.999Z</time></trkpt><trkpt lat="42.43209102872077" lon="-8.073767168028539"><ele>402.0</ele><time>2026-04-05T18:45:38.999Z</time></trkpt><trkpt lat="42.43201721139395" lon="-8.07382735122643"><ele>402.0</ele><time>2026-04-05T18:45:49Z</time></trkpt><trkpt lat="42.43193305628787" lon="-8.073895962808692"><ele>402.0</ele><time>2026-04-05T18:45:51Z</time></trkpt><trkpt lat="42.431482232189445" lon="-8.074275144710224"><ele>402.0</ele><time>2026-04-05T18:53:07Z</time></trkpt><trkpt lat="42.43135974712775" lon="-8.074355946857443"><ele>402.0</ele><time>2026-04-05T18:53:09Z</time></trkpt><trkpt lat="42.431298411861015" lon="-8.074412421760561"><ele>402.0</ele><time>2026-04-05T18:53:10Z</time></trkpt><trkpt lat="42.43122552115501" lon="-8.07446197705913"><ele>402.0</ele><time>2026-04-05T18:53:11Z</time></trkpt><trkpt lat="42.43114961694621" lon="-8.074508740923148"><ele>402.0</ele><time>2026-04-05T18:53:12Z</time></trkpt><trkpt lat="42.4310748411226" lon="-8.07454858394876"><ele>401.8</ele><time>2026-04-05T18:53:13Z</time></trkpt><trkpt lat="42.43099494438674" lon="-8.074571604322674"><ele>401.6</ele><time>2026-04-05T18:53:14Z</time></trkpt><trkpt lat="42.43089383830005" lon="-8.074634893312226"><ele>401.40000000000003</ele><time>2026-04-05T18:53:16Z</time></trkpt><trkpt lat="42.430768423720245" lon="-8.07469762249944"><ele>401.20000000000005</ele><time>2026-04-05T18:53:18Z</time></trkpt><trkpt lat="42.43068350046271" lon="-8.07471808653642"><ele>401.0</ele><time>2026-04-05T18:53:20Z</time></trkpt><trkpt lat="42.43061738286006" lon="-8.074762166443422"><ele>401.0</ele><time>2026-04-05T18:53:22.999Z</time></trkpt><trkpt lat="42.43056060932621" lon="-8.074804363043379"><ele>401.0</ele><time>2026-04-05T18:53:24.999Z</time></trkpt><trkpt lat="42.43055554285509" lon="-8.074890982499571"><ele>401.0</ele><time>2026-04-05T18:53:27.999Z</time></trkpt><trkpt lat="42.43057433790595" lon="-8.074978334943033"><ele>401.0</ele><time>2026-04-05T18:53:28.999Z</time></trkpt><trkpt lat="42.43059210172044" lon="-8.075060236379686"><ele>401.0</ele><time>2026-04-05T18:53:29.999Z</time></trkpt><trkpt lat="42.430614366627616" lon="-8.07516289044853"><ele>401.0</ele><time>2026-04-05T18:53:30.999Z</time></trkpt><trkpt lat="42.43063907209772" lon="-8.075276796911965"><ele>401.0</ele><time>2026-04-05T18:53:31.999Z</time></trkpt><trkpt lat="42.43066821846814" lon="-8.075411178750919"><ele>401.6</ele><time>2026-04-05T18:53:32.999Z</time></trkpt><trkpt lat="42.430698388729844" lon="-8.07551660505707"><ele>402.20000000000005</ele><time>2026-04-05T18:53:33.999Z</time></trkpt><trkpt lat="42.43074100889086" lon="-8.075642798920933"><ele>402.79999999999995</ele><time>2026-04-05T18:53:34.999Z</time></trkpt><trkpt lat="42.43074879022645" lon="-8.07578164463431"><ele>403.4</ele><time>2026-04-05T18:53:35.999Z</time></trkpt><trkpt lat="42.430765234314734" lon="-8.075893030773669"><ele>404.0</ele><time>2026-04-05T18:53:36.999Z</time></trkpt><trkpt lat="42.43080166061076" lon="-8.075989905932065"><ele>404.0</ele><time>2026-04-05T18:53:37.999Z</time></trkpt><trkpt lat="42.4308212910571" lon="-8.076075679176848"><ele>404.0</ele><time>2026-04-05T18:53:38.999Z</time></trkpt><trkpt lat="42.43084634656493" lon="-8.07618639295674"><ele>404.0</ele><time>2026-04-05T18:53:39.999Z</time></trkpt><trkpt lat="42.4307080980585" lon="-8.076325417892509"><ele>404.0</ele><time>2026-04-05T18:53:40.999Z</time></trkpt><trkpt lat="42.43064578530216" lon="-8.076430526719514"><ele>404.0</ele><time>2026-04-05T18:53:41.999Z</time></trkpt><trkpt lat="42.43057979563855" lon="-8.076547712082789"><ele>404.3333333333333</ele><time>2026-04-05T18:53:43.999Z</time></trkpt><trkpt lat="42.43050062600731" lon="-8.076646705726864"><ele>404.66666666666663</ele><time>2026-04-05T18:53:45.999Z</time></trkpt><trkpt lat="42.43045950789782" lon="-8.076721841982444"><ele>405.0</ele><time>2026-04-05T18:53:46.999Z</time></trkpt><trkpt lat="42.430428786746695" lon="-8.076818472146423"><ele>405.33333333333337</ele><time>2026-04-05T18:53:47.999Z</time></trkpt><trkpt lat="42.43036039555237" lon="-8.076897881432819"><ele>405.6666666666667</ele><time>2026-04-05T18:53:48.999Z</time></trkpt><trkpt lat="42.43030938091918" lon="-8.076991309476725"><ele>406.0</ele><time>2026-04-05T18:53:49.999Z</time></trkpt><trkpt lat="42.43027317784605" lon="-8.077078674958116"><ele>405.20000000000005</ele><time>2026-04-05T18:53:50.999Z</time></trkpt><trkpt lat="42.430202248316604" lon="-8.077193144253227"><ele>404.40000000000003</ele><time>2026-04-05T18:53:52.999Z</time></trkpt><trkpt lat="42.430086542508214" lon="-8.07729639365632"><ele>403.6</ele><time>2026-04-05T18:53:54.999Z</time></trkpt><trkpt lat="42.430016830497316" lon="-8.077354436829237"><ele>402.8</ele><time>2026-04-05T18:53:55.999Z</time></trkpt><trkpt lat="42.42994188316153" lon="-8.077416838797014"><ele>402.0</ele><time>2026-04-05T18:53:56.999Z</time></trkpt><trkpt lat="42.429869884603164" lon="-8.077480726603955"><ele>402.0</ele><time>2026-04-05T18:53:57.999Z</time></trkpt><trkpt lat="42.42980262533665" lon="-8.077540464258277"><ele>402.0</ele><time>2026-04-05T18:53:58.999Z</time></trkpt><trkpt lat="42.42974520300569" lon="-8.07759565189675"><ele>402.0</ele><time>2026-04-05T18:53:59.999Z</time></trkpt><trkpt lat="42.42967455624726" lon="-8.077661260347229"><ele>402.0</ele><time>2026-04-05T18:54:00.999Z</time></trkpt><trkpt lat="42.429592932803246" lon="-8.077733479134562"><ele>402.0</ele><time>2026-04-05T18:54:01.999Z</time></trkpt><trkpt lat="42.42952157417658" lon="-8.07780243796079"><ele>402.0</ele><time>2026-04-05T18:54:02.999Z</time></trkpt><trkpt lat="42.429439131044646" lon="-8.077853596742369"><ele>402.0</ele><time>2026-04-05T18:54:03.999Z</time></trkpt><trkpt lat="42.429360929777744" lon="-8.077935910994904"><ele>402.0</ele><time>2026-04-05T18:54:04.999Z</time></trkpt><trkpt lat="42.42929424253799" lon="-8.078021401517715"><ele>402.0</ele><time>2026-04-05T18:54:05.999Z</time></trkpt><trkpt lat="42.42921266424227" lon="-8.078078230306975"><ele>402.0</ele><time>2026-04-05T18:54:06.999Z</time></trkpt><trkpt lat="42.42916168971947" lon="-8.078160238835748"><ele>402.0</ele><time>2026-04-05T18:54:07.999Z</time></trkpt><trkpt lat="42.429092469375526" lon="-8.078211543591637"><ele>402.0</ele><time>2026-04-05T18:54:08.999Z</time></trkpt><trkpt lat="42.42903908966823" lon="-8.078297736171912"><ele>402.0</ele><time>2026-04-05T18:54:09.999Z</time></trkpt><trkpt lat="42.429000735997164" lon="-8.07840201070683"><ele>402.0</ele><time>2026-04-05T18:54:10.999Z</time></trkpt><trkpt lat="42.42895469881994" lon="-8.078486709741009"><ele>402.0</ele><time>2026-04-05T18:54:11.999Z</time></trkpt><trkpt lat="42.42890161066274" lon="-8.078588790384469"><ele>402.0</ele><time>2026-04-05T18:54:12.999Z</time></trkpt><trkpt lat="42.42881412636031" lon="-8.07871928917684"><ele>402.0</ele><time>2026-04-05T18:54:13.999Z</time></trkpt><trkpt lat="42.42874251489849" lon="-8.078864527694993"><ele>401.40000000000003</ele><time>2026-04-05T18:54:14.999Z</time></trkpt><trkpt lat="42.42865445265828" lon="-8.079003849299154"><ele>400.8</ele><time>2026-04-05T18:54:15.999Z</time></trkpt><trkpt lat="42.42858706927666" lon="-8.079121904126565"><ele>400.2</ele><time>2026-04-05T18:54:16.999Z</time></trkpt><trkpt lat="42.42854143439585" lon="-8.079216958895472"><ele>399.6</ele><time>2026-04-05T18:54:17.999Z</time></trkpt><trkpt lat="42.42847613309445" lon="-8.079292122413031"><ele>399.0</ele><time>2026-04-05T18:54:18.999Z</time></trkpt><trkpt lat="42.42839864870699" lon="-8.07933452164752"><ele>399.0</ele><time>2026-04-05T18:54:19.999Z</time></trkpt><trkpt lat="42.428314663933484" lon="-8.079358664844325"><ele>399.0</ele><time>2026-04-05T18:54:20.999Z</time></trkpt><trkpt lat="42.42824205243232" lon="-8.079387343736334"><ele>399.0</ele><time>2026-04-05T18:54:21.999Z</time></trkpt><trkpt lat="42.428175567042054" lon="-8.079417915453629"><ele>399.0</ele><time>2026-04-05T18:54:22.999Z</time></trkpt><trkpt lat="42.428120691368484" lon="-8.079468817278926"><ele>399.0</ele><time>2026-04-05T18:54:23.999Z</time></trkpt><trkpt lat="42.42803400761494" lon="-8.079548272148887"><ele>399.0</ele><time>2026-04-05T18:54:25.999Z</time></trkpt><trkpt lat="42.428111634566264" lon="-8.079703013455388"><ele>399.0</ele><time>2026-04-05T18:54:30.999Z</time></trkpt><trkpt lat="42.42818354885665" lon="-8.079761365324353"><ele>399.0</ele><time>2026-04-05T18:54:33.999Z</time></trkpt><trkpt lat="42.42823484701818" lon="-8.079822565006609"><ele>399.0</ele><time>2026-04-05T18:54:36.999Z</time></trkpt><trkpt lat="42.42818255153007" lon="-8.080000383604505"><ele>399.0</ele><time>2026-04-05T18:55:21.999Z</time></trkpt><trkpt lat="42.428084174257364" lon="-8.080092932002358"><ele>399.0</ele><time>2026-04-05T18:55:22.999Z</time></trkpt><trkpt lat="42.427991213667624" lon="-8.080178593037814"><ele>398.25</ele><time>2026-04-05T18:55:23.999Z</time></trkpt><trkpt lat="42.427902611445106" lon="-8.080260307854468"><ele>397.5</ele><time>2026-04-05T18:55:24.999Z</time></trkpt><trkpt lat="42.42780885856433" lon="-8.080349654330258"><ele>396.75</ele><time>2026-04-05T18:55:25.999Z</time></trkpt><trkpt lat="42.427702303204285" lon="-8.08045702310205"><ele>396.0</ele><time>2026-04-05T18:55:26.999Z</time></trkpt><trkpt lat="42.42760123249126" lon="-8.080560909214407"><ele>396.0</ele><time>2026-04-05T18:55:27.999Z</time></trkpt><trkpt lat="42.42751547223784" lon="-8.0806504912411"><ele>396.0</ele><time>2026-04-05T18:55:28.999Z</time></trkpt><trkpt lat="42.427429217474966" lon="-8.080743620808247"><ele>396.0</ele><time>2026-04-05T18:55:29.999Z</time></trkpt><trkpt lat="42.427348141679744" lon="-8.080840939296383"><ele>396.0</ele><time>2026-04-05T18:55:30.999Z</time></trkpt><trkpt lat="42.42727084928923" lon="-8.080945314210547"><ele>396.0</ele><time>2026-04-05T18:55:31.999Z</time></trkpt><trkpt lat="42.42719872400472" lon="-8.081060035874458"><ele>395.4</ele><time>2026-04-05T18:55:32.999Z</time></trkpt><trkpt lat="42.427129231727626" lon="-8.081177228527011"><ele>394.8</ele><time>2026-04-05T18:55:33.999Z</time></trkpt><trkpt lat="42.4270680602906" lon="-8.081286152275638"><ele>394.2</ele><time>2026-04-05T18:55:34.999Z</time></trkpt><trkpt lat="42.42701601684867" lon="-8.081381024644362"><ele>393.59999999999997</ele><time>2026-04-05T18:55:35.999Z</time></trkpt><trkpt lat="42.42696831216485" lon="-8.081473498868098"><ele>393.0</ele><time>2026-04-05T18:55:36.999Z</time></trkpt><trkpt lat="42.426916342611705" lon="-8.081579003198733"><ele>393.4</ele><time>2026-04-05T18:55:37.999Z</time></trkpt><trkpt lat="42.42685625460227" lon="-8.081710137256763"><ele>393.79999999999995</ele><time>2026-04-05T18:55:38.999Z</time></trkpt><trkpt lat="42.42680559740481" lon="-8.081845393483148"><ele>394.2</ele><time>2026-04-05T18:55:39.999Z</time></trkpt><trkpt lat="42.42676620158312" lon="-8.081966149916164"><ele>394.6</ele><time>2026-04-05T18:55:40.999Z</time></trkpt><trkpt lat="42.426745209772776" lon="-8.082082325578503"><ele>395.0</ele><time>2026-04-05T18:55:41.999Z</time></trkpt><trkpt lat="42.426721908053764" lon="-8.082239595720495"><ele>395.0</ele><time>2026-04-05T18:55:42.999Z</time></trkpt><trkpt lat="42.426738314964645" lon="-8.082379449064762"><ele>395.0</ele><time>2026-04-05T18:55:43.999Z</time></trkpt><trkpt lat="42.42675154116995" lon="-8.082513440086625"><ele>395.0</ele><time>2026-04-05T18:55:44.999Z</time></trkpt><trkpt lat="42.42676285026825" lon="-8.082625476274282"><ele>395.0</ele><time>2026-04-05T18:55:45.999Z</time></trkpt><trkpt lat="42.42677212584169" lon="-8.082735273715754"><ele>395.0</ele><time>2026-04-05T18:55:46.999Z</time></trkpt><trkpt lat="42.42678082139088" lon="-8.08286136668695"><ele>395.0</ele><time>2026-04-05T18:55:47.999Z</time></trkpt><trkpt lat="42.426791802977434" lon="-8.082987182953904"><ele>395.0</ele><time>2026-04-05T18:55:48.999Z</time></trkpt><trkpt lat="42.42680669333267" lon="-8.083119223131414"><ele>395.0</ele><time>2026-04-05T18:55:49.999Z</time></trkpt><trkpt lat="42.426806762857844" lon="-8.083254597797882"><ele>395.0</ele><time>2026-04-05T18:55:50.999Z</time></trkpt><trkpt lat="42.426809969319365" lon="-8.083389034015626"><ele>395.0</ele><time>2026-04-05T18:55:51.999Z</time></trkpt><trkpt lat="42.42680362950801" lon="-8.083526120063256"><ele>395.8</ele><time>2026-04-05T18:55:52.999Z</time></trkpt><trkpt lat="42.426799480212075" lon="-8.083655174957977"><ele>396.6</ele><time>2026-04-05T18:55:53.999Z</time></trkpt><trkpt lat="42.42678425601796" lon="-8.083785532479968"><ele>397.4</ele><time>2026-04-05T18:55:54.999Z</time></trkpt><trkpt lat="42.426767244018485" lon="-8.08391520117588"><ele>398.2</ele><time>2026-04-05T18:55:55.999Z</time></trkpt><trkpt lat="42.4267438955147" lon="-8.08405205655855"><ele>399.0</ele><time>2026-04-05T18:55:56.999Z</time></trkpt><trkpt lat="42.42672054606753" lon="-8.084193930387997"><ele>399.3333333333333</ele><time>2026-04-05T18:55:57.999Z</time></trkpt><trkpt lat="42.42670379569386" lon="-8.084311717090696"><ele>399.66666666666663</ele><time>2026-04-05T18:55:58.999Z</time></trkpt><trkpt lat="42.4266859322519" lon="-8.084420735336534"><ele>400.0</ele><time>2026-04-05T18:55:59.999Z</time></trkpt><trkpt lat="42.426672448676825" lon="-8.084524386452502"><ele>400.3333333333333</ele><time>2026-04-05T18:56:00.999Z</time></trkpt><trkpt lat="42.42666045600746" lon="-8.084608559157282"><ele>400.66666666666663</ele><time>2026-04-05T18:56:01.999Z</time></trkpt><trkpt lat="42.42663956915767" lon="-8.084735901294815"><ele>401.0</ele><time>2026-04-05T18:56:03.999Z</time></trkpt><trkpt lat="42.42662003004226" lon="-8.08486614907426"><ele>401.0</ele><time>2026-04-05T18:56:05.999Z</time></trkpt><trkpt lat="42.42677065736482" lon="-8.08495926998511"><ele>401.0</ele><time>2026-04-05T18:56:10.999Z</time></trkpt><trkpt lat="42.42685665341754" lon="-8.085010400518064"><ele>401.0</ele><time>2026-04-05T18:56:12.999Z</time></trkpt><trkpt lat="42.426904590033764" lon="-8.085070367320899"><ele>401.0</ele><time>2026-04-05T18:56:30.999Z</time></trkpt><trkpt lat="42.42692597335417" lon="-8.08498105896683"><ele>401.0</ele><time>2026-04-05T19:00:27.999Z</time></trkpt><trkpt lat="42.42687637864863" lon="-8.085051856876488"><ele>400.99999999999994</ele><time>2026-04-05T19:00:41.999Z</time></trkpt><trkpt lat="42.42680459139278" lon="-8.085026744843825"><ele>401.0</ele><time>2026-04-05T19:02:33.999Z</time></trkpt><trkpt lat="42.42671398769827" lon="-8.084951957237392"><ele>401.0</ele><time>2026-04-05T19:02:35.999Z</time></trkpt><trkpt lat="42.42665094647954" lon="-8.084928368025471"><ele>401.0</ele><time>2026-04-05T19:02:37.999Z</time></trkpt><trkpt lat="42.42659363937293" lon="-8.084844285998262"><ele>400.99999999999994</ele><time>2026-04-05T19:02:45.999Z</time></trkpt><trkpt lat="42.42653439673682" lon="-8.084774953370564"><ele>401.0</ele><time>2026-04-05T19:02:46.999Z</time></trkpt><trkpt lat="42.426423993405564" lon="-8.084716355314539"><ele>401.0</ele><time>2026-04-05T19:02:47.999Z</time></trkpt><trkpt lat="42.426321106752276" lon="-8.084679624653488"><ele>401.0</ele><time>2026-04-05T19:02:48.999Z</time></trkpt><trkpt lat="42.42621031844501" lon="-8.084636462171654"><ele>401.0</ele><time>2026-04-05T19:02:49.999Z</time></trkpt><trkpt lat="42.426102414844095" lon="-8.084592731024841"><ele>401.0</ele><time>2026-04-05T19:02:50.999Z</time></trkpt><trkpt lat="42.4260122138762" lon="-8.084556677344573"><ele>401.0</ele><time>2026-04-05T19:02:52Z</time></trkpt><trkpt lat="42.42593696864682" lon="-8.08453419226004"><ele>401.0</ele><time>2026-04-05T19:02:53Z</time></trkpt><trkpt lat="42.42583880197573" lon="-8.084500553502167"><ele>401.0</ele><time>2026-04-05T19:02:55Z</time></trkpt><trkpt lat="42.425759980612185" lon="-8.084710443423983"><ele>401.0</ele><time>2026-04-05T19:02:57Z</time></trkpt><trkpt lat="42.42571681601347" lon="-8.084845821437389"><ele>401.0</ele><time>2026-04-05T19:02:58Z</time></trkpt><trkpt lat="42.42566120127212" lon="-8.084989340291973"><ele>401.0</ele><time>2026-04-05T19:02:59Z</time></trkpt><trkpt lat="42.425613240991154" lon="-8.085148633700125"><ele>401.0</ele><time>2026-04-05T19:03:00Z</time></trkpt><trkpt lat="42.42555339194775" lon="-8.085319748389564"><ele>401.0</ele><time>2026-04-05T19:03:01Z</time></trkpt><trkpt lat="42.42549906925606" lon="-8.085502904583041"><ele>401.0</ele><time>2026-04-05T19:03:02Z</time></trkpt><trkpt lat="42.42541661814083" lon="-8.085684270769214"><ele>401.66666666666663</ele><time>2026-04-05T19:03:03Z</time></trkpt><trkpt lat="42.42535331045526" lon="-8.08588015663961"><ele>402.33333333333337</ele><time>2026-04-05T19:03:04Z</time></trkpt><trkpt lat="42.4252546106762" lon="-8.086059157203973"><ele>403.0</ele><time>2026-04-05T19:03:05Z</time></trkpt><trkpt lat="42.425124157582125" lon="-8.08620557996448"><ele>403.0</ele><time>2026-04-05T19:03:06Z</time></trkpt><trkpt lat="42.42499899634967" lon="-8.086352179762189"><ele>403.0</ele><time>2026-04-05T19:03:07Z</time></trkpt><trkpt lat="42.42487908551286" lon="-8.086526405734999"><ele>403.0</ele><time>2026-04-05T19:03:08Z</time></trkpt><trkpt lat="42.424765063958446" lon="-8.086673843852756"><ele>403.25</ele><time>2026-04-05T19:03:09Z</time></trkpt><trkpt lat="42.42465744767341" lon="-8.086809039515119"><ele>403.5</ele><time>2026-04-05T19:03:10Z</time></trkpt><trkpt lat="42.42455850291311" lon="-8.086924833421453"><ele>403.75</ele><time>2026-04-05T19:03:11Z</time></trkpt><trkpt lat="42.424471230997234" lon="-8.087024838968679"><ele>404.0</ele><time>2026-04-05T19:03:12Z</time></trkpt><trkpt lat="42.42439213908693" lon="-8.08709345341979"><ele>408.0</ele><time>2026-04-05T19:03:13Z</time></trkpt><trkpt lat="42.42434111066049" lon="-8.087153348334391"><ele>408.0</ele><time>2026-04-05T19:03:14Z</time></trkpt><trkpt lat="42.424299854495054" lon="-8.087220500493823"><ele>408.0</ele><time>2026-04-05T19:03:15Z</time></trkpt><trkpt lat="42.42423204320007" lon="-8.087319294120299"><ele>408.0</ele><time>2026-04-05T19:03:17Z</time></trkpt></trkseg></trk></gpx>